<?xml version='1.0' encoding='UTF-8'?><gpx version="1.1" creator="JPX - https://github.com/jenetics/jpx" xmlns="http://www.topografix.com/GPX/1/1"><trk><trkseg><trkpt lat="45.2194357" lon="12.2818399"><ele>2.0</ele><time>2026-03-22T07:24:17.503Z</time></trkpt><trkpt lat="45.2194185" lon="12.2817498"><ele>1.9999999999999998</ele><time>2026-03-22T07:25:34.216Z</time></trkpt><trkpt lat="45.2193555" lon="12.2817182"><ele>2.0</ele><time>2026-03-22T07:25:37.214Z</time></trkpt><trkpt lat="45.2192726" lon="12.2816924"><ele>2.0</ele><time>2026-03-22T07:25:40.211Z</time></trkpt><trkpt lat="45.2192068" lon="12.2816604"><ele>1.9999999999999998</ele><time>2026-03-22T07:25:44.207Z</time></trkpt><trkpt lat="45.2191324" lon="12.281636"><ele>2.0</ele><time>2026-03-22T07:25:46.207Z</time></trkpt><trkpt lat="45.219064" lon="12.2816107"><ele>2.0</ele><time>2026-03-22T07:25:48.211Z</time></trkpt><trkpt lat="45.21895" lon="12.2815598"><ele>2.0</ele><time>2026-03-22T07:25:50.21Z</time></trkpt><trkpt lat="45.2188832" lon="12.2815434"><ele>1.9999999999999998</ele><time>2026-03-22T07:25:52.209Z</time></trkpt><trkpt lat="45.2187883" lon="12.2815147"><ele>2.0</ele><time>2026-03-22T07:25:54.21Z</time></trkpt><trkpt lat="45.2187174" lon="12.2814891"><ele>2.0</ele><time>2026-03-22T07:25:57.213Z</time></trkpt><trkpt lat="45.21864" lon="12.2814923"><ele>1.9999999999999998</ele><time>2026-03-22T07:26:06.207Z</time></trkpt><trkpt lat="45.2185776" lon="12.2815086"><ele>2.0</ele><time>2026-03-22T07:26:11.216Z</time></trkpt><trkpt lat="45.2185103" lon="12.281499"><ele>2.0</ele><time>2026-03-22T07:26:16.213Z</time></trkpt><trkpt lat="45.2184054" lon="12.2814965"><ele>1.9999999999999998</ele><time>2026-03-22T07:26:20.223Z</time></trkpt><trkpt lat="45.2183275" lon="12.2814616"><ele>2.0</ele><time>2026-03-22T07:26:24.219Z</time></trkpt><trkpt lat="45.2182986" lon="12.2815453"><ele>2.0</ele><time>2026-03-22T07:26:28.218Z</time></trkpt><trkpt lat="45.2182565" lon="12.2816983"><ele>2.0</ele><time>2026-03-22T07:26:30.22Z</time></trkpt><trkpt lat="45.2182244" lon="12.2818264"><ele>1.9999999999999998</ele><time>2026-03-22T07:26:32.218Z</time></trkpt><trkpt lat="45.2182011" lon="12.2819458"><ele>2.0</ele><time>2026-03-22T07:26:34.227Z</time></trkpt><trkpt lat="45.2181616" lon="12.2820608"><ele>2.1666666666666665</ele><time>2026-03-22T07:26:36.227Z</time></trkpt><trkpt lat="45.2181262" lon="12.282167"><ele>2.333333333333333</ele><time>2026-03-22T07:26:38.222Z</time></trkpt><trkpt lat="45.2180943" lon="12.282281"><ele>2.5</ele><time>2026-03-22T07:26:40.239Z</time></trkpt><trkpt lat="45.2180543" lon="12.2823931"><ele>2.6666666666666665</ele><time>2026-03-22T07:26:42.235Z</time></trkpt><trkpt lat="45.2180439" lon="12.2825148"><ele>2.8333333333333335</ele><time>2026-03-22T07:26:44.23Z</time></trkpt><trkpt lat="45.2180365" lon="12.2826468"><ele>3.0</ele><time>2026-03-22T07:26:46.216Z</time></trkpt><trkpt lat="45.2180253" lon="12.2827774"><ele>2.6</ele><time>2026-03-22T07:26:48.229Z</time></trkpt><trkpt lat="45.2180103" lon="12.2829201"><ele>2.1999999999999997</ele><time>2026-03-22T07:26:50.225Z</time></trkpt><trkpt lat="45.2179939" lon="12.2830856"><ele>1.8</ele><time>2026-03-22T07:26:52.223Z</time></trkpt><trkpt lat="45.2179485" lon="12.2832461"><ele>1.4</ele><time>2026-03-22T07:26:54.233Z</time></trkpt><trkpt lat="45.217915" lon="12.2833234"><ele>1.0</ele><time>2026-03-22T07:26:55.226Z</time></trkpt><trkpt lat="45.2178546" lon="12.2834744"><ele>0.8</ele><time>2026-03-22T07:26:57.225Z</time></trkpt><trkpt lat="45.217803" lon="12.2836078"><ele>0.6000000000000001</ele><time>2026-03-22T07:26:59.23Z</time></trkpt><trkpt lat="45.2177474" lon="12.2837304"><ele>0.4</ele><time>2026-03-22T07:27:01.224Z</time></trkpt><trkpt lat="45.217701" lon="12.2838559"><ele>0.2</ele><time>2026-03-22T07:27:03.227Z</time></trkpt><trkpt lat="45.2176495" lon="12.2839691"><ele>0.0</ele><time>2026-03-22T07:27:05.227Z</time></trkpt><trkpt lat="45.2175793" lon="12.2840627"><ele>0.0</ele><time>2026-03-22T07:27:07.225Z</time></trkpt><trkpt lat="45.2174594" lon="12.2841209"><ele>0.0</ele><time>2026-03-22T07:27:09.224Z</time></trkpt><trkpt lat="45.2173953" lon="12.2841608"><ele>0.0</ele><time>2026-03-22T07:27:10.223Z</time></trkpt><trkpt lat="45.2173244" lon="12.2842956"><ele>0.0</ele><time>2026-03-22T07:27:12.222Z</time></trkpt><trkpt lat="45.2173147" lon="12.2843926"><ele>0.0</ele><time>2026-03-22T07:27:13.224Z</time></trkpt><trkpt lat="45.2173197" lon="12.2844975"><ele>0.0</ele><time>2026-03-22T07:27:14.226Z</time></trkpt><trkpt lat="45.2173128" lon="12.2846034"><ele>0.0</ele><time>2026-03-22T07:27:15.226Z</time></trkpt><trkpt lat="45.2172902" lon="12.2847107"><ele>0.0</ele><time>2026-03-22T07:27:16.226Z</time></trkpt><trkpt lat="45.2172562" lon="12.2848235"><ele>0.0</ele><time>2026-03-22T07:27:17.228Z</time></trkpt><trkpt lat="45.2172175" lon="12.2849489"><ele>0.0</ele><time>2026-03-22T07:27:18.223Z</time></trkpt><trkpt lat="45.2171792" lon="12.285076"><ele>0.0</ele><time>2026-03-22T07:27:19.221Z</time></trkpt><trkpt lat="45.2171415" lon="12.2852073"><ele>0.0</ele><time>2026-03-22T07:27:20.226Z</time></trkpt><trkpt lat="45.2170954" lon="12.2853404"><ele>0.0</ele><time>2026-03-22T07:27:21.229Z</time></trkpt><trkpt lat="45.2170493" lon="12.2854829"><ele>0.0</ele><time>2026-03-22T07:27:22.231Z</time></trkpt><trkpt lat="45.2170013" lon="12.2856284"><ele>0.0</ele><time>2026-03-22T07:27:23.226Z</time></trkpt><trkpt lat="45.2169478" lon="12.2857754"><ele>0.0</ele><time>2026-03-22T07:27:24.232Z</time></trkpt><trkpt lat="45.2168914" lon="12.2859197"><ele>0.0</ele><time>2026-03-22T07:27:25.225Z</time></trkpt><trkpt lat="45.2168407" lon="12.2860542"><ele>0.0</ele><time>2026-03-22T07:27:26.231Z</time></trkpt><trkpt lat="45.2167895" lon="12.2861948"><ele>0.0</ele><time>2026-03-22T07:27:27.225Z</time></trkpt><trkpt lat="45.2167449" lon="12.2863303"><ele>0.0</ele><time>2026-03-22T07:27:28.224Z</time></trkpt><trkpt lat="45.2166946" lon="12.2864693"><ele>0.0</ele><time>2026-03-22T07:27:29.231Z</time></trkpt><trkpt lat="45.2166493" lon="12.2865974"><ele>0.0</ele><time>2026-03-22T07:27:30.227Z</time></trkpt><trkpt lat="45.216606" lon="12.2867149"><ele>0.0</ele><time>2026-03-22T07:27:31.228Z</time></trkpt><trkpt lat="45.2165654" lon="12.2868298"><ele>0.0</ele><time>2026-03-22T07:27:32.228Z</time></trkpt><trkpt lat="45.2165251" lon="12.2869447"><ele>0.0</ele><time>2026-03-22T07:27:33.223Z</time></trkpt><trkpt lat="45.2164836" lon="12.2870606"><ele>0.0</ele><time>2026-03-22T07:27:34.223Z</time></trkpt><trkpt lat="45.2164404" lon="12.2871705"><ele>0.0</ele><time>2026-03-22T07:27:35.227Z</time></trkpt><trkpt lat="45.2164052" lon="12.2872765"><ele>0.0</ele><time>2026-03-22T07:27:36.222Z</time></trkpt><trkpt lat="45.2163775" lon="12.287359"><ele>0.0</ele><time>2026-03-22T07:27:37.226Z</time></trkpt><trkpt lat="45.2163223" lon="12.2874948"><ele>0.0</ele><time>2026-03-22T07:27:39.225Z</time></trkpt><trkpt lat="45.216292" lon="12.2875835"><ele>0.0</ele><time>2026-03-22T07:27:40.252Z</time></trkpt><trkpt lat="45.2162654" lon="12.2876755"><ele>0.0</ele><time>2026-03-22T07:27:41.235Z</time></trkpt><trkpt lat="45.2162323" lon="12.2877909"><ele>0.0</ele><time>2026-03-22T07:27:42.24Z</time></trkpt><trkpt lat="45.216203" lon="12.2879265"><ele>0.0</ele><time>2026-03-22T07:27:43.249Z</time></trkpt><trkpt lat="45.216182" lon="12.2880728"><ele>0.0</ele><time>2026-03-22T07:27:44.241Z</time></trkpt><trkpt lat="45.2161656" lon="12.2882031"><ele>0.0</ele><time>2026-03-22T07:27:45.24Z</time></trkpt><trkpt lat="45.2161443" lon="12.2883196"><ele>0.0</ele><time>2026-03-22T07:27:46.239Z</time></trkpt><trkpt lat="45.2161237" lon="12.2884221"><ele>0.0</ele><time>2026-03-22T07:27:47.239Z</time></trkpt><trkpt lat="45.2160956" lon="12.2885114"><ele>0.0</ele><time>2026-03-22T07:27:48.239Z</time></trkpt><trkpt lat="45.2160424" lon="12.2886481"><ele>0.0</ele><time>2026-03-22T07:27:50.248Z</time></trkpt><trkpt lat="45.2159932" lon="12.2887746"><ele>0.0</ele><time>2026-03-22T07:27:52.238Z</time></trkpt><trkpt lat="45.2159637" lon="12.2888817"><ele>0.0</ele><time>2026-03-22T07:27:54.244Z</time></trkpt><trkpt lat="45.2159157" lon="12.288984"><ele>0.0</ele><time>2026-03-22T07:27:56.245Z</time></trkpt><trkpt lat="45.215862" lon="12.2891408"><ele>0.0</ele><time>2026-03-22T07:27:58.242Z</time></trkpt><trkpt lat="45.2158327" lon="12.2892286"><ele>0.0</ele><time>2026-03-22T07:27:59.248Z</time></trkpt><trkpt lat="45.2158079" lon="12.2893171"><ele>0.0</ele><time>2026-03-22T07:28:00.244Z</time></trkpt><trkpt lat="45.2157682" lon="12.2894603"><ele>0.0</ele><time>2026-03-22T07:28:02.246Z</time></trkpt><trkpt lat="45.2157332" lon="12.2896113"><ele>0.0</ele><time>2026-03-22T07:28:04.235Z</time></trkpt><trkpt lat="45.2157094" lon="12.2896956"><ele>0.0</ele><time>2026-03-22T07:28:05.241Z</time></trkpt><trkpt lat="45.2156802" lon="12.2897877"><ele>1.0</ele><time>2026-03-22T07:28:06.239Z</time></trkpt><trkpt lat="45.2156449" lon="12.2899051"><ele>2.0</ele><time>2026-03-22T07:28:07.234Z</time></trkpt><trkpt lat="45.2156097" lon="12.2900313"><ele>3.0</ele><time>2026-03-22T07:28:08.241Z</time></trkpt><trkpt lat="45.2155891" lon="12.2901459"><ele>4.0</ele><time>2026-03-22T07:28:09.235Z</time></trkpt><trkpt lat="45.2155674" lon="12.2902499"><ele>5.0</ele><time>2026-03-22T07:28:10.241Z</time></trkpt><trkpt lat="45.2155288" lon="12.2904128"><ele>5.0</ele><time>2026-03-22T07:28:12.238Z</time></trkpt><trkpt lat="45.2154992" lon="12.2905387"><ele>5.0</ele><time>2026-03-22T07:28:14.228Z</time></trkpt><trkpt lat="45.2154779" lon="12.2906607"><ele>5.0</ele><time>2026-03-22T07:28:17.233Z</time></trkpt><trkpt lat="45.2154634" lon="12.2907668"><ele>5.0</ele><time>2026-03-22T07:28:55.24Z</time></trkpt><trkpt lat="45.2154215" lon="12.2908923"><ele>5.0</ele><time>2026-03-22T07:28:57.233Z</time></trkpt><trkpt lat="45.2153938" lon="12.290984"><ele>5.0</ele><time>2026-03-22T07:28:58.241Z</time></trkpt><trkpt lat="45.215365" lon="12.2910787"><ele>5.5</ele><time>2026-03-22T07:28:59.239Z</time></trkpt><trkpt lat="45.215335" lon="12.2911684"><ele>6.0</ele><time>2026-03-22T07:29:00.239Z</time></trkpt><trkpt lat="45.2153049" lon="12.2912658"><ele>6.5</ele><time>2026-03-22T07:29:01.245Z</time></trkpt><trkpt lat="45.2152803" lon="12.2913796"><ele>7.0</ele><time>2026-03-22T07:29:02.244Z</time></trkpt><trkpt lat="45.2152514" lon="12.2915126"><ele>7.499999999999999</ele><time>2026-03-22T07:29:03.241Z</time></trkpt><trkpt lat="45.2152199" lon="12.2916447"><ele>8.0</ele><time>2026-03-22T07:29:04.239Z</time></trkpt><trkpt lat="45.2151885" lon="12.2917597"><ele>7.999999999999999</ele><time>2026-03-22T07:29:05.24Z</time></trkpt><trkpt lat="45.215165" lon="12.2918726"><ele>8.0</ele><time>2026-03-22T07:29:06.238Z</time></trkpt><trkpt lat="45.2151374" lon="12.2919754"><ele>8.0</ele><time>2026-03-22T07:29:07.235Z</time></trkpt><trkpt lat="45.2151112" lon="12.2920863"><ele>8.0</ele><time>2026-03-22T07:29:08.239Z</time></trkpt><trkpt lat="45.21508" lon="12.2921978"><ele>7.999999999999999</ele><time>2026-03-22T07:29:09.242Z</time></trkpt><trkpt lat="45.2150541" lon="12.2923078"><ele>8.0</ele><time>2026-03-22T07:29:10.238Z</time></trkpt><trkpt lat="45.2150273" lon="12.2924103"><ele>8.166666666666666</ele><time>2026-03-22T07:29:11.241Z</time></trkpt><trkpt lat="45.2149976" lon="12.2925093"><ele>8.333333333333332</ele><time>2026-03-22T07:29:12.236Z</time></trkpt><trkpt lat="45.2149676" lon="12.2925978"><ele>8.5</ele><time>2026-03-22T07:29:13.244Z</time></trkpt><trkpt lat="45.2149077" lon="12.292746"><ele>8.666666666666666</ele><time>2026-03-22T07:29:15.241Z</time></trkpt><trkpt lat="45.2148716" lon="12.2928211"><ele>8.833333333333334</ele><time>2026-03-22T07:29:16.228Z</time></trkpt><trkpt lat="45.2148393" lon="12.2929067"><ele>9.0</ele><time>2026-03-22T07:29:17.239Z</time></trkpt><trkpt lat="45.2148042" lon="12.2929922"><ele>8.8</ele><time>2026-03-22T07:29:18.233Z</time></trkpt><trkpt lat="45.2147873" lon="12.293103"><ele>8.600000000000001</ele><time>2026-03-22T07:29:19.233Z</time></trkpt><trkpt lat="45.2147749" lon="12.293227"><ele>8.4</ele><time>2026-03-22T07:29:20.236Z</time></trkpt><trkpt lat="45.2147715" lon="12.2933727"><ele>8.200000000000001</ele><time>2026-03-22T07:29:21.237Z</time></trkpt><trkpt lat="45.2147719" lon="12.2935288"><ele>8.0</ele><time>2026-03-22T07:29:22.237Z</time></trkpt><trkpt lat="45.2147727" lon="12.2936711"><ele>7.999999999999999</ele><time>2026-03-22T07:29:23.238Z</time></trkpt><trkpt lat="45.2147825" lon="12.2937921"><ele>8.0</ele><time>2026-03-22T07:29:24.232Z</time></trkpt><trkpt lat="45.2147937" lon="12.2938885"><ele>8.0</ele><time>2026-03-22T07:29:25.242Z</time></trkpt><trkpt lat="45.2148066" lon="12.2940698"><ele>8.0</ele><time>2026-03-22T07:29:27.245Z</time></trkpt><trkpt lat="45.2148075" lon="12.2941789"><ele>7.999999999999999</ele><time>2026-03-22T07:29:28.243Z</time></trkpt><trkpt lat="45.2148111" lon="12.2942837"><ele>8.0</ele><time>2026-03-22T07:29:29.244Z</time></trkpt><trkpt lat="45.2148172" lon="12.2943811"><ele>7.999999999999999</ele><time>2026-03-22T07:29:30.242Z</time></trkpt><trkpt lat="45.2148281" lon="12.2944725"><ele>8.0</ele><time>2026-03-22T07:29:31.246Z</time></trkpt><trkpt lat="45.214837" lon="12.2946393"><ele>8.0</ele><time>2026-03-22T07:29:33.246Z</time></trkpt><trkpt lat="45.2148538" lon="12.2947753"><ele>8.0</ele><time>2026-03-22T07:29:35.247Z</time></trkpt><trkpt lat="45.2148455" lon="12.2948989"><ele>7.999999999999999</ele><time>2026-03-22T07:29:38.246Z</time></trkpt><trkpt lat="45.2147837" lon="12.2949452"><ele>8.0</ele><time>2026-03-22T07:29:40.244Z</time></trkpt><trkpt lat="45.2146635" lon="12.2949415"><ele>7.25</ele><time>2026-03-22T07:29:42.246Z</time></trkpt><trkpt lat="45.2145529" lon="12.2949378"><ele>6.5</ele><time>2026-03-22T07:29:43.238Z</time></trkpt><trkpt lat="45.2144283" lon="12.2949498"><ele>5.75</ele><time>2026-03-22T07:29:44.234Z</time></trkpt><trkpt lat="45.214291" lon="12.2949513"><ele>5.0</ele><time>2026-03-22T07:29:45.236Z</time></trkpt><trkpt lat="45.2141426" lon="12.2949646"><ele>5.0</ele><time>2026-03-22T07:29:46.244Z</time></trkpt><trkpt lat="45.2139925" lon="12.2949778"><ele>5.0</ele><time>2026-03-22T07:29:47.229Z</time></trkpt><trkpt lat="45.2138515" lon="12.2949872"><ele>5.0</ele><time>2026-03-22T07:29:48.235Z</time></trkpt><trkpt lat="45.2137176" lon="12.2950051"><ele>5.0</ele><time>2026-03-22T07:29:49.235Z</time></trkpt><trkpt lat="45.2135911" lon="12.2950178"><ele>5.0</ele><time>2026-03-22T07:29:50.238Z</time></trkpt><trkpt lat="45.2134764" lon="12.2950336"><ele>5.0</ele><time>2026-03-22T07:29:51.237Z</time></trkpt><trkpt lat="45.2133644" lon="12.2950526"><ele>5.0</ele><time>2026-03-22T07:29:52.23Z</time></trkpt><trkpt lat="45.2132496" lon="12.2950637"><ele>5.0</ele><time>2026-03-22T07:29:53.232Z</time></trkpt><trkpt lat="45.213136" lon="12.2950676"><ele>4.6</ele><time>2026-03-22T07:29:54.228Z</time></trkpt><trkpt lat="45.2130158" lon="12.2950876"><ele>4.2</ele><time>2026-03-22T07:29:55.229Z</time></trkpt><trkpt lat="45.2129029" lon="12.2951105"><ele>3.8</ele><time>2026-03-22T07:29:56.229Z</time></trkpt><trkpt lat="45.2127988" lon="12.2951393"><ele>3.4</ele><time>2026-03-22T07:29:57.232Z</time></trkpt><trkpt lat="45.2126919" lon="12.2951643"><ele>3.0</ele><time>2026-03-22T07:29:58.234Z</time></trkpt><trkpt lat="45.2125823" lon="12.2951893"><ele>3.0</ele><time>2026-03-22T07:29:59.239Z</time></trkpt><trkpt lat="45.2124744" lon="12.2952059"><ele>3.0</ele><time>2026-03-22T07:30:00.239Z</time></trkpt><trkpt lat="45.2123606" lon="12.2952263"><ele>3.0</ele><time>2026-03-22T07:30:01.242Z</time></trkpt><trkpt lat="45.2122468" lon="12.2952421"><ele>3.0</ele><time>2026-03-22T07:30:02.238Z</time></trkpt><trkpt lat="45.2121391" lon="12.2952581"><ele>3.0</ele><time>2026-03-22T07:30:03.238Z</time></trkpt><trkpt lat="45.2120301" lon="12.2952778"><ele>4.0</ele><time>2026-03-22T07:30:04.243Z</time></trkpt><trkpt lat="45.2119266" lon="12.2953004"><ele>5.0</ele><time>2026-03-22T07:30:05.24Z</time></trkpt><trkpt lat="45.2118178" lon="12.2953266"><ele>6.000000000000001</ele><time>2026-03-22T07:30:06.242Z</time></trkpt><trkpt lat="45.2117036" lon="12.2953518"><ele>7.0</ele><time>2026-03-22T07:30:07.239Z</time></trkpt><trkpt lat="45.2115884" lon="12.2953828"><ele>8.0</ele><time>2026-03-22T07:30:08.242Z</time></trkpt><trkpt lat="45.2114725" lon="12.2954062"><ele>8.0</ele><time>2026-03-22T07:30:09.238Z</time></trkpt><trkpt lat="45.2113549" lon="12.2954256"><ele>8.0</ele><time>2026-03-22T07:30:10.24Z</time></trkpt><trkpt lat="45.2112339" lon="12.295451"><ele>8.0</ele><time>2026-03-22T07:30:11.24Z</time></trkpt><trkpt lat="45.2111089" lon="12.2954802"><ele>8.0</ele><time>2026-03-22T07:30:12.238Z</time></trkpt><trkpt lat="45.2109811" lon="12.2955079"><ele>8.0</ele><time>2026-03-22T07:30:13.243Z</time></trkpt><trkpt lat="45.2108567" lon="12.2955376"><ele>8.0</ele><time>2026-03-22T07:30:14.238Z</time></trkpt><trkpt lat="45.2107351" lon="12.2955665"><ele>8.0</ele><time>2026-03-22T07:30:15.245Z</time></trkpt><trkpt lat="45.2106132" lon="12.2955943"><ele>8.0</ele><time>2026-03-22T07:30:16.234Z</time></trkpt><trkpt lat="45.2104919" lon="12.2956283"><ele>7.0</ele><time>2026-03-22T07:30:17.237Z</time></trkpt><trkpt lat="45.210367" lon="12.2956715"><ele>6.0</ele><time>2026-03-22T07:30:18.243Z</time></trkpt><trkpt lat="45.2102434" lon="12.2957149"><ele>5.0</ele><time>2026-03-22T07:30:19.243Z</time></trkpt><trkpt lat="45.2101204" lon="12.2957643"><ele>4.0</ele><time>2026-03-22T07:30:20.241Z</time></trkpt><trkpt lat="45.2100029" lon="12.2958153"><ele>4.0</ele><time>2026-03-22T07:30:21.24Z</time></trkpt><trkpt lat="45.2098958" lon="12.2958651"><ele>4.0</ele><time>2026-03-22T07:30:22.245Z</time></trkpt><trkpt lat="45.2097958" lon="12.2959195"><ele>4.0</ele><time>2026-03-22T07:30:23.244Z</time></trkpt><trkpt lat="45.2097041" lon="12.2959803"><ele>4.0</ele><time>2026-03-22T07:30:24.238Z</time></trkpt><trkpt lat="45.2096064" lon="12.2960494"><ele>4.0</ele><time>2026-03-22T07:30:25.239Z</time></trkpt><trkpt lat="45.2095065" lon="12.296122"><ele>3.75</ele><time>2026-03-22T07:30:26.239Z</time></trkpt><trkpt lat="45.2094071" lon="12.2961995"><ele>3.5</ele><time>2026-03-22T07:30:27.241Z</time></trkpt><trkpt lat="45.2093063" lon="12.2962808"><ele>3.25</ele><time>2026-03-22T07:30:28.233Z</time></trkpt><trkpt lat="45.2091969" lon="12.2963658"><ele>3.0</ele><time>2026-03-22T07:30:29.238Z</time></trkpt><trkpt lat="45.2090855" lon="12.2964629"><ele>2.25</ele><time>2026-03-22T07:30:30.235Z</time></trkpt><trkpt lat="45.2089741" lon="12.296569"><ele>1.5</ele><time>2026-03-22T07:30:31.239Z</time></trkpt><trkpt lat="45.2088571" lon="12.2966778"><ele>0.75</ele><time>2026-03-22T07:30:32.238Z</time></trkpt><trkpt lat="45.20874" lon="12.2967756"><ele>0.0</ele><time>2026-03-22T07:30:33.239Z</time></trkpt><trkpt lat="45.208635" lon="12.2968591"><ele>0.0</ele><time>2026-03-22T07:30:34.235Z</time></trkpt><trkpt lat="45.2085351" lon="12.2969376"><ele>0.0</ele><time>2026-03-22T07:30:35.25Z</time></trkpt><trkpt lat="45.2084441" lon="12.29702"><ele>0.0</ele><time>2026-03-22T07:30:36.243Z</time></trkpt><trkpt lat="45.2083397" lon="12.2971074"><ele>0.0</ele><time>2026-03-22T07:30:37.242Z</time></trkpt><trkpt lat="45.2082359" lon="12.2971956"><ele>0.0</ele><time>2026-03-22T07:30:38.247Z</time></trkpt><trkpt lat="45.20814" lon="12.2972693"><ele>0.0</ele><time>2026-03-22T07:30:39.245Z</time></trkpt><trkpt lat="45.2080539" lon="12.2973417"><ele>0.0</ele><time>2026-03-22T07:30:40.24Z</time></trkpt><trkpt lat="45.2079697" lon="12.297407"><ele>0.0</ele><time>2026-03-22T07:30:41.24Z</time></trkpt><trkpt lat="45.2078817" lon="12.2974813"><ele>0.0</ele><time>2026-03-22T07:30:42.239Z</time></trkpt><trkpt lat="45.2077917" lon="12.2975556"><ele>0.0</ele><time>2026-03-22T07:30:43.239Z</time></trkpt><trkpt lat="45.2077019" lon="12.2976362"><ele>0.0</ele><time>2026-03-22T07:30:44.244Z</time></trkpt><trkpt lat="45.2076101" lon="12.2977118"><ele>0.0</ele><time>2026-03-22T07:30:45.251Z</time></trkpt><trkpt lat="45.2075181" lon="12.29778"><ele>0.0</ele><time>2026-03-22T07:30:46.241Z</time></trkpt><trkpt lat="45.2074246" lon="12.297848"><ele>0.0</ele><time>2026-03-22T07:30:47.246Z</time></trkpt><trkpt lat="45.2073397" lon="12.2979042"><ele>0.0</ele><time>2026-03-22T07:30:48.239Z</time></trkpt><trkpt lat="45.2072597" lon="12.2979545"><ele>0.0</ele><time>2026-03-22T07:30:49.243Z</time></trkpt><trkpt lat="45.2071862" lon="12.2979992"><ele>0.0</ele><time>2026-03-22T07:30:50.248Z</time></trkpt><trkpt lat="45.2071118" lon="12.2980502"><ele>0.0</ele><time>2026-03-22T07:30:51.244Z</time></trkpt><trkpt lat="45.2070279" lon="12.2981061"><ele>0.0</ele><time>2026-03-22T07:30:52.245Z</time></trkpt><trkpt lat="45.2069347" lon="12.2981742"><ele>0.0</ele><time>2026-03-22T07:30:53.241Z</time></trkpt><trkpt lat="45.206831" lon="12.2982378"><ele>0.25</ele><time>2026-03-22T07:30:54.248Z</time></trkpt><trkpt lat="45.2067171" lon="12.2982992"><ele>0.5</ele><time>2026-03-22T07:30:55.245Z</time></trkpt><trkpt lat="45.2066025" lon="12.2983608"><ele>0.75</ele><time>2026-03-22T07:30:56.243Z</time></trkpt><trkpt lat="45.2064983" lon="12.2984138"><ele>1.0</ele><time>2026-03-22T07:30:57.245Z</time></trkpt><trkpt lat="45.2063986" lon="12.2984614"><ele>1.0</ele><time>2026-03-22T07:30:58.24Z</time></trkpt><trkpt lat="45.2063034" lon="12.2985015"><ele>1.0</ele><time>2026-03-22T07:30:59.247Z</time></trkpt><trkpt lat="45.2062127" lon="12.2985422"><ele>1.0</ele><time>2026-03-22T07:31:00.239Z</time></trkpt><trkpt lat="45.2061232" lon="12.2985795"><ele>1.0</ele><time>2026-03-22T07:31:01.241Z</time></trkpt><trkpt lat="45.2060311" lon="12.2986201"><ele>1.0</ele><time>2026-03-22T07:31:02.244Z</time></trkpt><trkpt lat="45.205921" lon="12.2986677"><ele>1.0</ele><time>2026-03-22T07:31:03.237Z</time></trkpt><trkpt lat="45.2057953" lon="12.2987295"><ele>1.0</ele><time>2026-03-22T07:31:04.247Z</time></trkpt><trkpt lat="45.2056353" lon="12.2988066"><ele>1.0</ele><time>2026-03-22T07:31:05.236Z</time></trkpt><trkpt lat="45.2054187" lon="12.2989154"><ele>2.0</ele><time>2026-03-22T07:31:06.243Z</time></trkpt><trkpt lat="45.2051777" lon="12.2990036"><ele>3.0</ele><time>2026-03-22T07:31:07.24Z</time></trkpt><trkpt lat="45.2049834" lon="12.2990801"><ele>2.6666666666666665</ele><time>2026-03-22T07:31:08.235Z</time></trkpt><trkpt lat="45.2048206" lon="12.2991319"><ele>2.333333333333333</ele><time>2026-03-22T07:31:09.245Z</time></trkpt><trkpt lat="45.204667" lon="12.2991923"><ele>2.0</ele><time>2026-03-22T07:31:10.241Z</time></trkpt><trkpt lat="45.2045283" lon="12.299248"><ele>2.0</ele><time>2026-03-22T07:31:11.248Z</time></trkpt><trkpt lat="45.2043868" lon="12.2993037"><ele>2.0</ele><time>2026-03-22T07:31:12.24Z</time></trkpt><trkpt lat="45.2042314" lon="12.2993634"><ele>2.0</ele><time>2026-03-22T07:31:13.242Z</time></trkpt><trkpt lat="45.2040625" lon="12.2994356"><ele>2.6666666666666665</ele><time>2026-03-22T07:31:14.238Z</time></trkpt><trkpt lat="45.2038971" lon="12.2995084"><ele>3.333333333333333</ele><time>2026-03-22T07:31:15.243Z</time></trkpt><trkpt lat="45.2037426" lon="12.2995744"><ele>4.0</ele><time>2026-03-22T07:31:16.244Z</time></trkpt><trkpt lat="45.2035956" lon="12.2996381"><ele>4.0</ele><time>2026-03-22T07:31:17.247Z</time></trkpt><trkpt lat="45.2034529" lon="12.2996921"><ele>4.0</ele><time>2026-03-22T07:31:18.247Z</time></trkpt><trkpt lat="45.203308" lon="12.2997513"><ele>4.0</ele><time>2026-03-22T07:31:19.253Z</time></trkpt><trkpt lat="45.203167" lon="12.2998184"><ele>4.0</ele><time>2026-03-22T07:31:20.248Z</time></trkpt><trkpt lat="45.2030274" lon="12.2998823"><ele>4.5</ele><time>2026-03-22T07:31:21.259Z</time></trkpt><trkpt lat="45.2028928" lon="12.2999465"><ele>5.0</ele><time>2026-03-22T07:31:22.244Z</time></trkpt><trkpt lat="45.2027614" lon="12.3000111"><ele>5.5</ele><time>2026-03-22T07:31:23.252Z</time></trkpt><trkpt lat="45.2026241" lon="12.3000659"><ele>6.0</ele><time>2026-03-22T07:31:24.246Z</time></trkpt><trkpt lat="45.202483" lon="12.3001172"><ele>6.0</ele><time>2026-03-22T07:31:25.245Z</time></trkpt><trkpt lat="45.2023542" lon="12.3001743"><ele>6.0</ele><time>2026-03-22T07:31:26.242Z</time></trkpt><trkpt lat="45.2022223" lon="12.3002285"><ele>6.0</ele><time>2026-03-22T07:31:27.249Z</time></trkpt><trkpt lat="45.2020889" lon="12.3002674"><ele>6.0</ele><time>2026-03-22T07:31:28.246Z</time></trkpt><trkpt lat="45.201944" lon="12.3003156"><ele>4.333333333333333</ele><time>2026-03-22T07:31:29.242Z</time></trkpt><trkpt lat="45.2017934" lon="12.3003616"><ele>2.6666666666666665</ele><time>2026-03-22T07:31:30.258Z</time></trkpt><trkpt lat="45.2016385" lon="12.3004114"><ele>1.0</ele><time>2026-03-22T07:31:31.249Z</time></trkpt><trkpt lat="45.2014807" lon="12.3004593"><ele>1.0</ele><time>2026-03-22T07:31:32.249Z</time></trkpt><trkpt lat="45.2013327" lon="12.3005145"><ele>1.0</ele><time>2026-03-22T07:31:33.251Z</time></trkpt><trkpt lat="45.2011775" lon="12.3005643"><ele>1.0</ele><time>2026-03-22T07:31:34.243Z</time></trkpt><trkpt lat="45.2010188" lon="12.3006194"><ele>1.0</ele><time>2026-03-22T07:31:35.244Z</time></trkpt><trkpt lat="45.2008597" lon="12.3006676"><ele>1.0</ele><time>2026-03-22T07:31:36.254Z</time></trkpt><trkpt lat="45.2007143" lon="12.3007072"><ele>1.0</ele><time>2026-03-22T07:31:37.247Z</time></trkpt><trkpt lat="45.2005765" lon="12.300754"><ele>1.25</ele><time>2026-03-22T07:31:38.25Z</time></trkpt><trkpt lat="45.2004369" lon="12.3007901"><ele>1.5</ele><time>2026-03-22T07:31:39.252Z</time></trkpt><trkpt lat="45.2002924" lon="12.3008376"><ele>1.75</ele><time>2026-03-22T07:31:40.262Z</time></trkpt><trkpt lat="45.2001447" lon="12.3008833"><ele>2.0</ele><time>2026-03-22T07:31:41.25Z</time></trkpt><trkpt lat="45.1999981" lon="12.3009247"><ele>2.0</ele><time>2026-03-22T07:31:42.251Z</time></trkpt><trkpt lat="45.1998582" lon="12.3009614"><ele>2.0</ele><time>2026-03-22T07:31:43.254Z</time></trkpt><trkpt lat="45.1997195" lon="12.3009769"><ele>2.0</ele><time>2026-03-22T07:31:44.251Z</time></trkpt><trkpt lat="45.1995759" lon="12.3009689"><ele>2.0</ele><time>2026-03-22T07:31:45.252Z</time></trkpt><trkpt lat="45.1994435" lon="12.3009296"><ele>2.25</ele><time>2026-03-22T07:31:46.253Z</time></trkpt><trkpt lat="45.1993145" lon="12.3008819"><ele>2.5</ele><time>2026-03-22T07:31:47.256Z</time></trkpt><trkpt lat="45.1991973" lon="12.3008043"><ele>2.75</ele><time>2026-03-22T07:31:48.246Z</time></trkpt><trkpt lat="45.1991047" lon="12.3007227"><ele>3.0</ele><time>2026-03-22T07:31:49.25Z</time></trkpt><trkpt lat="45.1990311" lon="12.3006585"><ele>2.8333333333333335</ele><time>2026-03-22T07:31:50.252Z</time></trkpt><trkpt lat="45.1989811" lon="12.3006032"><ele>2.6666666666666665</ele><time>2026-03-22T07:31:51.261Z</time></trkpt><trkpt lat="45.1989108" lon="12.300506"><ele>2.5</ele><time>2026-03-22T07:31:53.252Z</time></trkpt><trkpt lat="45.1988624" lon="12.3004043"><ele>2.333333333333333</ele><time>2026-03-22T07:31:55.256Z</time></trkpt><trkpt lat="45.1988072" lon="12.3002748"><ele>2.1666666666666665</ele><time>2026-03-22T07:31:57.251Z</time></trkpt><trkpt lat="45.198768" lon="12.3002005"><ele>2.0</ele><time>2026-03-22T07:31:58.25Z</time></trkpt><trkpt lat="45.1987196" lon="12.3001164"><ele>2.2</ele><time>2026-03-22T07:31:59.242Z</time></trkpt><trkpt lat="45.1986748" lon="12.3000077"><ele>2.4000000000000004</ele><time>2026-03-22T07:32:00.248Z</time></trkpt><trkpt lat="45.1986335" lon="12.2998679"><ele>2.5999999999999996</ele><time>2026-03-22T07:32:01.245Z</time></trkpt><trkpt lat="45.1985915" lon="12.2997147"><ele>2.8</ele><time>2026-03-22T07:32:02.251Z</time></trkpt><trkpt lat="45.1985575" lon="12.2995584"><ele>3.0</ele><time>2026-03-22T07:32:03.245Z</time></trkpt><trkpt lat="45.1985252" lon="12.2994041"><ele>3.0</ele><time>2026-03-22T07:32:04.247Z</time></trkpt><trkpt lat="45.1984954" lon="12.2992679"><ele>3.0</ele><time>2026-03-22T07:32:05.247Z</time></trkpt><trkpt lat="45.1984674" lon="12.2991346"><ele>3.0</ele><time>2026-03-22T07:32:06.24Z</time></trkpt><trkpt lat="45.1984431" lon="12.2990161"><ele>3.0</ele><time>2026-03-22T07:32:07.246Z</time></trkpt><trkpt lat="45.1984222" lon="12.2989068"><ele>3.0</ele><time>2026-03-22T07:32:08.246Z</time></trkpt><trkpt lat="45.1984015" lon="12.298796"><ele>3.0</ele><time>2026-03-22T07:32:09.25Z</time></trkpt><trkpt lat="45.1983746" lon="12.2986761"><ele>3.1666666666666665</ele><time>2026-03-22T07:32:10.261Z</time></trkpt><trkpt lat="45.1983496" lon="12.2985574"><ele>3.333333333333333</ele><time>2026-03-22T07:32:11.253Z</time></trkpt><trkpt lat="45.1983249" lon="12.2984398"><ele>3.5</ele><time>2026-03-22T07:32:12.253Z</time></trkpt><trkpt lat="45.1983017" lon="12.2983205"><ele>3.6666666666666665</ele><time>2026-03-22T07:32:13.255Z</time></trkpt><trkpt lat="45.1982856" lon="12.298226"><ele>3.833333333333333</ele><time>2026-03-22T07:32:14.259Z</time></trkpt><trkpt lat="45.1982592" lon="12.2980907"><ele>4.0</ele><time>2026-03-22T07:32:16.256Z</time></trkpt><trkpt lat="45.1982135" lon="12.297933"><ele>4.0</ele><time>2026-03-22T07:32:18.253Z</time></trkpt><trkpt lat="45.198187" lon="12.2978292"><ele>4.0</ele><time>2026-03-22T07:32:19.242Z</time></trkpt><trkpt lat="45.198158" lon="12.2976987"><ele>4.0</ele><time>2026-03-22T07:32:20.261Z</time></trkpt><trkpt lat="45.1981265" lon="12.2975416"><ele>4.0</ele><time>2026-03-22T07:32:21.252Z</time></trkpt><trkpt lat="45.1980978" lon="12.2973767"><ele>4.0</ele><time>2026-03-22T07:32:22.247Z</time></trkpt><trkpt lat="45.1980679" lon="12.2972102"><ele>4.25</ele><time>2026-03-22T07:32:23.25Z</time></trkpt><trkpt lat="45.1980374" lon="12.2970397"><ele>4.5</ele><time>2026-03-22T07:32:24.24Z</time></trkpt><trkpt lat="45.1980001" lon="12.2968656"><ele>4.75</ele><time>2026-03-22T07:32:25.259Z</time></trkpt><trkpt lat="45.1979611" lon="12.2966815"><ele>5.0</ele><time>2026-03-22T07:32:26.25Z</time></trkpt><trkpt lat="45.1979226" lon="12.2964939"><ele>4.5</ele><time>2026-03-22T07:32:27.249Z</time></trkpt><trkpt lat="45.1978853" lon="12.2963107"><ele>4.0</ele><time>2026-03-22T07:32:28.246Z</time></trkpt><trkpt lat="45.1978522" lon="12.2961304"><ele>3.5</ele><time>2026-03-22T07:32:29.252Z</time></trkpt><trkpt lat="45.1978151" lon="12.2959514"><ele>3.0</ele><time>2026-03-22T07:32:30.256Z</time></trkpt><trkpt lat="45.1977794" lon="12.2957762"><ele>3.0</ele><time>2026-03-22T07:32:31.255Z</time></trkpt><trkpt lat="45.1977423" lon="12.2955984"><ele>3.0</ele><time>2026-03-22T07:32:32.251Z</time></trkpt><trkpt lat="45.1977045" lon="12.2954121"><ele>3.0</ele><time>2026-03-22T07:32:33.256Z</time></trkpt><trkpt lat="45.1976656" lon="12.2952184"><ele>3.0</ele><time>2026-03-22T07:32:34.254Z</time></trkpt><trkpt lat="45.197629" lon="12.2950246"><ele>3.0</ele><time>2026-03-22T07:32:35.251Z</time></trkpt><trkpt lat="45.1975915" lon="12.2948512"><ele>3.0</ele><time>2026-03-22T07:32:36.254Z</time></trkpt><trkpt lat="45.19756" lon="12.2946697"><ele>3.0</ele><time>2026-03-22T07:32:37.259Z</time></trkpt><trkpt lat="45.1975236" lon="12.2944874"><ele>3.0</ele><time>2026-03-22T07:32:38.254Z</time></trkpt><trkpt lat="45.197489" lon="12.2943074"><ele>3.25</ele><time>2026-03-22T07:32:39.254Z</time></trkpt><trkpt lat="45.1974683" lon="12.2940958"><ele>3.5</ele><time>2026-03-22T07:32:40.258Z</time></trkpt><trkpt lat="45.1974539" lon="12.2938901"><ele>3.75</ele><time>2026-03-22T07:32:41.254Z</time></trkpt><trkpt lat="45.1974442" lon="12.293697"><ele>4.0</ele><time>2026-03-22T07:32:42.261Z</time></trkpt><trkpt lat="45.1974348" lon="12.293517"><ele>4.0</ele><time>2026-03-22T07:32:43.253Z</time></trkpt><trkpt lat="45.1974244" lon="12.2933328"><ele>4.0</ele><time>2026-03-22T07:32:44.255Z</time></trkpt><trkpt lat="45.1974122" lon="12.293142"><ele>4.0</ele><time>2026-03-22T07:32:45.259Z</time></trkpt><trkpt lat="45.1973946" lon="12.2929421"><ele>4.0</ele><time>2026-03-22T07:32:46.251Z</time></trkpt><trkpt lat="45.1973756" lon="12.2927444"><ele>4.333333333333333</ele><time>2026-03-22T07:32:47.256Z</time></trkpt><trkpt lat="45.1973572" lon="12.2925365"><ele>4.666666666666667</ele><time>2026-03-22T07:32:48.257Z</time></trkpt><trkpt lat="45.197342" lon="12.2923129"><ele>5.0</ele><time>2026-03-22T07:32:49.262Z</time></trkpt><trkpt lat="45.1973253" lon="12.2920911"><ele>4.666666666666667</ele><time>2026-03-22T07:32:50.258Z</time></trkpt><trkpt lat="45.1973117" lon="12.2918714"><ele>4.333333333333333</ele><time>2026-03-22T07:32:51.257Z</time></trkpt><trkpt lat="45.1972986" lon="12.2916404"><ele>4.0</ele><time>2026-03-22T07:32:52.258Z</time></trkpt><trkpt lat="45.197282" lon="12.2914014"><ele>4.0</ele><time>2026-03-22T07:32:53.256Z</time></trkpt><trkpt lat="45.19726" lon="12.2911605"><ele>4.0</ele><time>2026-03-22T07:32:54.26Z</time></trkpt><trkpt lat="45.197242" lon="12.2909058"><ele>4.0</ele><time>2026-03-22T07:32:55.257Z</time></trkpt><trkpt lat="45.1972225" lon="12.2906473"><ele>3.333333333333333</ele><time>2026-03-22T07:32:56.256Z</time></trkpt><trkpt lat="45.197203" lon="12.2904105"><ele>2.6666666666666665</ele><time>2026-03-22T07:32:57.256Z</time></trkpt><trkpt lat="45.1971906" lon="12.290185"><ele>2.0</ele><time>2026-03-22T07:32:58.259Z</time></trkpt><trkpt lat="45.1971787" lon="12.289975"><ele>2.0</ele><time>2026-03-22T07:32:59.256Z</time></trkpt><trkpt lat="45.1971655" lon="12.2897724"><ele>2.0</ele><time>2026-03-22T07:33:00.256Z</time></trkpt><trkpt lat="45.1971422" lon="12.2895947"><ele>2.0</ele><time>2026-03-22T07:33:01.25Z</time></trkpt><trkpt lat="45.1971281" lon="12.2894457"><ele>2.0</ele><time>2026-03-22T07:33:02.261Z</time></trkpt><trkpt lat="45.1971246" lon="12.2893086"><ele>2.2</ele><time>2026-03-22T07:33:03.258Z</time></trkpt><trkpt lat="45.1971161" lon="12.2892101"><ele>2.4000000000000004</ele><time>2026-03-22T07:33:04.248Z</time></trkpt><trkpt lat="45.1971131" lon="12.2890595"><ele>2.5999999999999996</ele><time>2026-03-22T07:33:06.254Z</time></trkpt><trkpt lat="45.1971116" lon="12.2888986"><ele>2.8</ele><time>2026-03-22T07:33:08.251Z</time></trkpt><trkpt lat="45.197112" lon="12.2887954"><ele>3.0</ele><time>2026-03-22T07:33:09.255Z</time></trkpt><trkpt lat="45.1971062" lon="12.2886704"><ele>3.0</ele><time>2026-03-22T07:33:10.254Z</time></trkpt><trkpt lat="45.1970915" lon="12.2885253"><ele>3.0</ele><time>2026-03-22T07:33:11.257Z</time></trkpt><trkpt lat="45.1970626" lon="12.2883673"><ele>3.0</ele><time>2026-03-22T07:33:12.251Z</time></trkpt><trkpt lat="45.1970402" lon="12.2882084"><ele>3.0</ele><time>2026-03-22T07:33:13.252Z</time></trkpt><trkpt lat="45.197024" lon="12.2880387"><ele>3.25</ele><time>2026-03-22T07:33:14.248Z</time></trkpt><trkpt lat="45.1970083" lon="12.2878627"><ele>3.5</ele><time>2026-03-22T07:33:15.256Z</time></trkpt><trkpt lat="45.197" lon="12.2876725"><ele>3.75</ele><time>2026-03-22T07:33:16.246Z</time></trkpt><trkpt lat="45.1969869" lon="12.2874621"><ele>4.0</ele><time>2026-03-22T07:33:17.251Z</time></trkpt><trkpt lat="45.1969772" lon="12.2872441"><ele>4.0</ele><time>2026-03-22T07:33:18.258Z</time></trkpt><trkpt lat="45.1969601" lon="12.2870119"><ele>4.0</ele><time>2026-03-22T07:33:19.256Z</time></trkpt><trkpt lat="45.1969436" lon="12.2867802"><ele>4.0</ele><time>2026-03-22T07:33:20.256Z</time></trkpt><trkpt lat="45.1969224" lon="12.2865786"><ele>3.75</ele><time>2026-03-22T07:33:21.261Z</time></trkpt><trkpt lat="45.1969055" lon="12.2863847"><ele>3.5</ele><time>2026-03-22T07:33:22.259Z</time></trkpt><trkpt lat="45.1968896" lon="12.2862038"><ele>3.25</ele><time>2026-03-22T07:33:23.253Z</time></trkpt><trkpt lat="45.1968794" lon="12.2860328"><ele>3.0</ele><time>2026-03-22T07:33:24.256Z</time></trkpt><trkpt lat="45.1968667" lon="12.2858682"><ele>3.0</ele><time>2026-03-22T07:33:25.255Z</time></trkpt><trkpt lat="45.196855" lon="12.2857036"><ele>3.0</ele><time>2026-03-22T07:33:26.252Z</time></trkpt><trkpt lat="45.1968411" lon="12.2855316"><ele>3.0</ele><time>2026-03-22T07:33:27.257Z</time></trkpt><trkpt lat="45.1968315" lon="12.2853608"><ele>3.0</ele><time>2026-03-22T07:33:28.252Z</time></trkpt><trkpt lat="45.196818" lon="12.2851949"><ele>3.0</ele><time>2026-03-22T07:33:29.265Z</time></trkpt><trkpt lat="45.1968073" lon="12.2850352"><ele>3.0</ele><time>2026-03-22T07:33:30.257Z</time></trkpt><trkpt lat="45.1968" lon="12.2848815"><ele>3.0</ele><time>2026-03-22T07:33:31.264Z</time></trkpt><trkpt lat="45.1967896" lon="12.2847406"><ele>3.0</ele><time>2026-03-22T07:33:32.26Z</time></trkpt><trkpt lat="45.1967845" lon="12.2846038"><ele>3.0</ele><time>2026-03-22T07:33:33.255Z</time></trkpt><trkpt lat="45.1967768" lon="12.2844789"><ele>2.6666666666666665</ele><time>2026-03-22T07:33:34.26Z</time></trkpt><trkpt lat="45.1967717" lon="12.2843665"><ele>2.3333333333333335</ele><time>2026-03-22T07:33:35.259Z</time></trkpt><trkpt lat="45.1967669" lon="12.2842648"><ele>2.0</ele><time>2026-03-22T07:33:36.262Z</time></trkpt><trkpt lat="45.1967623" lon="12.2841563"><ele>1.6666666666666665</ele><time>2026-03-22T07:33:37.257Z</time></trkpt><trkpt lat="45.1967565" lon="12.2840395"><ele>1.3333333333333333</ele><time>2026-03-22T07:33:38.264Z</time></trkpt><trkpt lat="45.1967474" lon="12.2839159"><ele>1.0</ele><time>2026-03-22T07:33:39.259Z</time></trkpt><trkpt lat="45.1967406" lon="12.2837952"><ele>0.9999999999999999</ele><time>2026-03-22T07:33:40.254Z</time></trkpt><trkpt lat="45.1967354" lon="12.2836826"><ele>1.0</ele><time>2026-03-22T07:33:41.253Z</time></trkpt><trkpt lat="45.1967269" lon="12.2835482"><ele>1.0</ele><time>2026-03-22T07:33:43.257Z</time></trkpt><trkpt lat="45.1967218" lon="12.2834566"><ele>1.0</ele><time>2026-03-22T07:33:46.255Z</time></trkpt><trkpt lat="45.196737" lon="12.2833647"><ele>0.9999999999999999</ele><time>2026-03-22T07:33:48.254Z</time></trkpt><trkpt lat="45.1967818" lon="12.2832287"><ele>1.0</ele><time>2026-03-22T07:33:50.26Z</time></trkpt><trkpt lat="45.1968071" lon="12.2830719"><ele>0.8</ele><time>2026-03-22T07:33:52.255Z</time></trkpt><trkpt lat="45.1967701" lon="12.2829368"><ele>0.6000000000000001</ele><time>2026-03-22T07:33:54.263Z</time></trkpt><trkpt lat="45.1966406" lon="12.2829255"><ele>0.4</ele><time>2026-03-22T07:33:56.264Z</time></trkpt><trkpt lat="45.1965561" lon="12.282953"><ele>0.2</ele><time>2026-03-22T07:33:57.254Z</time></trkpt><trkpt lat="45.1964794" lon="12.2829775"><ele>0.0</ele><time>2026-03-22T07:33:58.253Z</time></trkpt><trkpt lat="45.1964099" lon="12.2829828"><ele>0.0</ele><time>2026-03-22T07:33:59.253Z</time></trkpt><trkpt lat="45.1963473" lon="12.2829663"><ele>0.0</ele><time>2026-03-22T07:34:00.252Z</time></trkpt><trkpt lat="45.1962903" lon="12.2829209"><ele>0.0</ele><time>2026-03-22T07:34:01.25Z</time></trkpt><trkpt lat="45.1962399" lon="12.2828529"><ele>0.0</ele><time>2026-03-22T07:34:02.255Z</time></trkpt><trkpt lat="45.196194" lon="12.2827828"><ele>0.0</ele><time>2026-03-22T07:34:03.255Z</time></trkpt><trkpt lat="45.1961536" lon="12.2827031"><ele>0.0</ele><time>2026-03-22T07:34:04.254Z</time></trkpt><trkpt lat="45.1961195" lon="12.2826203"><ele>0.0</ele><time>2026-03-22T07:34:05.254Z</time></trkpt><trkpt lat="45.1960675" lon="12.2824639"><ele>0.0</ele><time>2026-03-22T07:34:07.253Z</time></trkpt><trkpt lat="45.1960192" lon="12.2823261"><ele>0.0</ele><time>2026-03-22T07:34:09.26Z</time></trkpt><trkpt lat="45.1959427" lon="12.2822318"><ele>0.0</ele><time>2026-03-22T07:34:11.262Z</time></trkpt><trkpt lat="45.1958194" lon="12.2822809"><ele>0.0</ele><time>2026-03-22T07:34:13.256Z</time></trkpt><trkpt lat="45.195747" lon="12.2823323"><ele>0.0</ele><time>2026-03-22T07:34:14.251Z</time></trkpt><trkpt lat="45.1956688" lon="12.2823709"><ele>0.2</ele><time>2026-03-22T07:34:15.256Z</time></trkpt><trkpt lat="45.1955828" lon="12.2823764"><ele>0.4</ele><time>2026-03-22T07:34:16.249Z</time></trkpt><trkpt lat="45.1954859" lon="12.2823579"><ele>0.6000000000000001</ele><time>2026-03-22T07:34:17.258Z</time></trkpt><trkpt lat="45.1953781" lon="12.2823289"><ele>0.8</ele><time>2026-03-22T07:34:18.25Z</time></trkpt><trkpt lat="45.1952707" lon="12.2822904"><ele>1.0</ele><time>2026-03-22T07:34:19.256Z</time></trkpt><trkpt lat="45.1951582" lon="12.2822548"><ele>1.0</ele><time>2026-03-22T07:34:20.249Z</time></trkpt><trkpt lat="45.1950542" lon="12.2822201"><ele>1.0</ele><time>2026-03-22T07:34:21.252Z</time></trkpt><trkpt lat="45.1949614" lon="12.2821898"><ele>1.0</ele><time>2026-03-22T07:34:22.249Z</time></trkpt><trkpt lat="45.1948734" lon="12.2821614"><ele>1.0</ele><time>2026-03-22T07:34:23.248Z</time></trkpt><trkpt lat="45.1947885" lon="12.2821345"><ele>1.0</ele><time>2026-03-22T07:34:24.259Z</time></trkpt><trkpt lat="45.1947057" lon="12.2821145"><ele>1.4</ele><time>2026-03-22T07:34:25.248Z</time></trkpt><trkpt lat="45.1946236" lon="12.2820882"><ele>1.8</ele><time>2026-03-22T07:34:26.257Z</time></trkpt><trkpt lat="45.1945388" lon="12.282058"><ele>2.1999999999999997</ele><time>2026-03-22T07:34:27.246Z</time></trkpt><trkpt lat="45.1944466" lon="12.2820309"><ele>2.6</ele><time>2026-03-22T07:34:28.248Z</time></trkpt><trkpt lat="45.1943517" lon="12.2820027"><ele>3.0</ele><time>2026-03-22T07:34:29.257Z</time></trkpt><trkpt lat="45.1942538" lon="12.2819702"><ele>3.0</ele><time>2026-03-22T07:34:30.374Z</time></trkpt><trkpt lat="45.1940317" lon="12.2818927"><ele>3.0</ele><time>2026-03-22T07:34:32.245Z</time></trkpt><trkpt lat="45.1939035" lon="12.2818509"><ele>3.0</ele><time>2026-03-22T07:34:33.25Z</time></trkpt><trkpt lat="45.1937785" lon="12.2818123"><ele>2.5</ele><time>2026-03-22T07:34:34.252Z</time></trkpt><trkpt lat="45.193658" lon="12.2817761"><ele>2.0</ele><time>2026-03-22T07:34:35.251Z</time></trkpt><trkpt lat="45.1935409" lon="12.2817402"><ele>1.5</ele><time>2026-03-22T07:34:36.251Z</time></trkpt><trkpt lat="45.1934305" lon="12.2817103"><ele>1.0</ele><time>2026-03-22T07:34:37.247Z</time></trkpt><trkpt lat="45.1933198" lon="12.2816781"><ele>1.0</ele><time>2026-03-22T07:34:38.251Z</time></trkpt><trkpt lat="45.1932072" lon="12.2816435"><ele>1.0</ele><time>2026-03-22T07:34:39.253Z</time></trkpt><trkpt lat="45.1930887" lon="12.281604"><ele>1.0</ele><time>2026-03-22T07:34:40.252Z</time></trkpt><trkpt lat="45.1929642" lon="12.2815655"><ele>1.0</ele><time>2026-03-22T07:34:41.254Z</time></trkpt><trkpt lat="45.1928347" lon="12.2815186"><ele>1.0</ele><time>2026-03-22T07:34:42.25Z</time></trkpt><trkpt lat="45.1927065" lon="12.2814627"><ele>1.0</ele><time>2026-03-22T07:34:43.25Z</time></trkpt><trkpt lat="45.1925769" lon="12.2814008"><ele>1.0</ele><time>2026-03-22T07:34:44.245Z</time></trkpt><trkpt lat="45.1924548" lon="12.2813348"><ele>1.0</ele><time>2026-03-22T07:34:45.25Z</time></trkpt><trkpt lat="45.1923418" lon="12.2812705"><ele>1.2000000000000002</ele><time>2026-03-22T07:34:46.25Z</time></trkpt><trkpt lat="45.1922354" lon="12.2812044"><ele>1.4000000000000001</ele><time>2026-03-22T07:34:47.251Z</time></trkpt><trkpt lat="45.1921323" lon="12.2811465"><ele>1.6</ele><time>2026-03-22T07:34:48.257Z</time></trkpt><trkpt lat="45.1920316" lon="12.2810902"><ele>1.8</ele><time>2026-03-22T07:34:49.253Z</time></trkpt><trkpt lat="45.1919311" lon="12.2810333"><ele>2.0</ele><time>2026-03-22T07:34:50.25Z</time></trkpt><trkpt lat="45.1918328" lon="12.2809799"><ele>2.0</ele><time>2026-03-22T07:34:51.259Z</time></trkpt><trkpt lat="45.1917329" lon="12.2809298"><ele>2.0</ele><time>2026-03-22T07:34:52.256Z</time></trkpt><trkpt lat="45.1916306" lon="12.2808798"><ele>2.0</ele><time>2026-03-22T07:34:53.256Z</time></trkpt><trkpt lat="45.1915231" lon="12.2808283"><ele>2.0</ele><time>2026-03-22T07:34:54.259Z</time></trkpt><trkpt lat="45.1914074" lon="12.2807711"><ele>2.0</ele><time>2026-03-22T07:34:55.262Z</time></trkpt><trkpt lat="45.1912826" lon="12.2807142"><ele>2.0</ele><time>2026-03-22T07:34:56.253Z</time></trkpt><trkpt lat="45.1911488" lon="12.2806475"><ele>2.0</ele><time>2026-03-22T07:34:57.255Z</time></trkpt><trkpt lat="45.1910062" lon="12.2805796"><ele>2.0</ele><time>2026-03-22T07:34:58.251Z</time></trkpt><trkpt lat="45.1908569" lon="12.2805089"><ele>2.0</ele><time>2026-03-22T07:34:59.26Z</time></trkpt><trkpt lat="45.1907107" lon="12.2804605"><ele>2.0</ele><time>2026-03-22T07:35:00.256Z</time></trkpt><trkpt lat="45.1905648" lon="12.2804214"><ele>2.0</ele><time>2026-03-22T07:35:01.258Z</time></trkpt><trkpt lat="45.1904175" lon="12.2803906"><ele>2.0</ele><time>2026-03-22T07:35:02.254Z</time></trkpt><trkpt lat="45.1902888" lon="12.2803594"><ele>1.5</ele><time>2026-03-22T07:35:03.255Z</time></trkpt><trkpt lat="45.1901535" lon="12.2803368"><ele>1.0</ele><time>2026-03-22T07:35:04.252Z</time></trkpt><trkpt lat="45.1900149" lon="12.2803176"><ele>0.5</ele><time>2026-03-22T07:35:05.255Z</time></trkpt><trkpt lat="45.189879" lon="12.2803024"><ele>0.0</ele><time>2026-03-22T07:35:06.252Z</time></trkpt><trkpt lat="45.1897475" lon="12.2802848"><ele>0.0</ele><time>2026-03-22T07:35:07.256Z</time></trkpt><trkpt lat="45.1896266" lon="12.2802587"><ele>0.0</ele><time>2026-03-22T07:35:08.254Z</time></trkpt><trkpt lat="45.1895096" lon="12.28024"><ele>0.0</ele><time>2026-03-22T07:35:09.254Z</time></trkpt><trkpt lat="45.189396" lon="12.2802224"><ele>0.0</ele><time>2026-03-22T07:35:10.253Z</time></trkpt><trkpt lat="45.1892711" lon="12.2802028"><ele>0.0</ele><time>2026-03-22T07:35:11.254Z</time></trkpt><trkpt lat="45.1891507" lon="12.280183"><ele>0.0</ele><time>2026-03-22T07:35:12.251Z</time></trkpt><trkpt lat="45.1890296" lon="12.2801787"><ele>0.0</ele><time>2026-03-22T07:35:13.26Z</time></trkpt><trkpt lat="45.1889099" lon="12.2801655"><ele>0.0</ele><time>2026-03-22T07:35:14.25Z</time></trkpt><trkpt lat="45.1887875" lon="12.2801607"><ele>0.25</ele><time>2026-03-22T07:35:15.252Z</time></trkpt><trkpt lat="45.1886646" lon="12.2801504"><ele>0.5</ele><time>2026-03-22T07:35:16.257Z</time></trkpt><trkpt lat="45.1885364" lon="12.2801428"><ele>0.75</ele><time>2026-03-22T07:35:17.26Z</time></trkpt><trkpt lat="45.1884057" lon="12.2801347"><ele>1.0</ele><time>2026-03-22T07:35:18.262Z</time></trkpt><trkpt lat="45.1882711" lon="12.2801193"><ele>1.0</ele><time>2026-03-22T07:35:19.258Z</time></trkpt><trkpt lat="45.1881395" lon="12.280091"><ele>1.0</ele><time>2026-03-22T07:35:20.266Z</time></trkpt><trkpt lat="45.1880113" lon="12.2800452"><ele>1.0</ele><time>2026-03-22T07:35:21.27Z</time></trkpt><trkpt lat="45.1878924" lon="12.2799865"><ele>1.0</ele><time>2026-03-22T07:35:22.258Z</time></trkpt><trkpt lat="45.187782" lon="12.2799169"><ele>1.0</ele><time>2026-03-22T07:35:23.262Z</time></trkpt><trkpt lat="45.187678" lon="12.2798432"><ele>1.0</ele><time>2026-03-22T07:35:24.267Z</time></trkpt><trkpt lat="45.1875783" lon="12.2797822"><ele>1.0</ele><time>2026-03-22T07:35:25.267Z</time></trkpt><trkpt lat="45.1874822" lon="12.2797369"><ele>1.0</ele><time>2026-03-22T07:35:26.267Z</time></trkpt><trkpt lat="45.1873919" lon="12.27969"><ele>1.0</ele><time>2026-03-22T07:35:27.26Z</time></trkpt><trkpt lat="45.1873076" lon="12.2796433"><ele>1.1666666666666665</ele><time>2026-03-22T07:35:28.27Z</time></trkpt><trkpt lat="45.1872307" lon="12.2796085"><ele>1.3333333333333333</ele><time>2026-03-22T07:35:29.27Z</time></trkpt><trkpt lat="45.187152" lon="12.2795695"><ele>1.5</ele><time>2026-03-22T07:35:30.271Z</time></trkpt><trkpt lat="45.1870721" lon="12.2795317"><ele>1.6666666666666665</ele><time>2026-03-22T07:35:31.27Z</time></trkpt><trkpt lat="45.1869911" lon="12.2794988"><ele>1.8333333333333333</ele><time>2026-03-22T07:35:32.258Z</time></trkpt><trkpt lat="45.1869072" lon="12.2794581"><ele>2.0</ele><time>2026-03-22T07:35:33.264Z</time></trkpt><trkpt lat="45.1868167" lon="12.2794198"><ele>2.0</ele><time>2026-03-22T07:35:34.256Z</time></trkpt><trkpt lat="45.1867173" lon="12.2793782"><ele>2.0</ele><time>2026-03-22T07:35:35.267Z</time></trkpt><trkpt lat="45.1866071" lon="12.2793337"><ele>2.0</ele><time>2026-03-22T07:35:36.262Z</time></trkpt><trkpt lat="45.1864893" lon="12.2792828"><ele>2.0</ele><time>2026-03-22T07:35:37.257Z</time></trkpt><trkpt lat="45.1863596" lon="12.2792309"><ele>1.5</ele><time>2026-03-22T07:35:38.261Z</time></trkpt><trkpt lat="45.1862272" lon="12.2791818"><ele>1.0</ele><time>2026-03-22T07:35:39.263Z</time></trkpt><trkpt lat="45.1861042" lon="12.2791318"><ele>0.5</ele><time>2026-03-22T07:35:40.262Z</time></trkpt><trkpt lat="45.1859888" lon="12.2790845"><ele>0.0</ele><time>2026-03-22T07:35:41.267Z</time></trkpt><trkpt lat="45.1858847" lon="12.2790469"><ele>0.0</ele><time>2026-03-22T07:35:42.269Z</time></trkpt><trkpt lat="45.1857816" lon="12.2790158"><ele>0.0</ele><time>2026-03-22T07:35:43.263Z</time></trkpt><trkpt lat="45.1856765" lon="12.2789777"><ele>0.0</ele><time>2026-03-22T07:35:44.257Z</time></trkpt><trkpt lat="45.1855734" lon="12.2789394"><ele>0.0</ele><time>2026-03-22T07:35:45.267Z</time></trkpt><trkpt lat="45.1854728" lon="12.2788959"><ele>0.0</ele><time>2026-03-22T07:35:46.258Z</time></trkpt><trkpt lat="45.1853793" lon="12.278856"><ele>0.16666666666666666</ele><time>2026-03-22T07:35:47.26Z</time></trkpt><trkpt lat="45.1852885" lon="12.2788219"><ele>0.3333333333333333</ele><time>2026-03-22T07:35:48.268Z</time></trkpt><trkpt lat="45.1852075" lon="12.2787993"><ele>0.5</ele><time>2026-03-22T07:35:49.265Z</time></trkpt><trkpt lat="45.1851339" lon="12.2787687"><ele>0.6666666666666666</ele><time>2026-03-22T07:35:50.263Z</time></trkpt><trkpt lat="45.1850666" lon="12.2787448"><ele>0.8333333333333333</ele><time>2026-03-22T07:35:51.268Z</time></trkpt><trkpt lat="45.1849504" lon="12.2787042"><ele>1.0</ele><time>2026-03-22T07:35:53.266Z</time></trkpt><trkpt lat="45.1848883" lon="12.2786831"><ele>1.0</ele><time>2026-03-22T07:35:54.259Z</time></trkpt><trkpt lat="45.1848226" lon="12.2786557"><ele>0.9999999999999999</ele><time>2026-03-22T07:35:55.262Z</time></trkpt><trkpt lat="45.1847558" lon="12.2786305"><ele>1.0</ele><time>2026-03-22T07:35:56.263Z</time></trkpt><trkpt lat="45.18469" lon="12.2786053"><ele>1.0</ele><time>2026-03-22T07:35:57.258Z</time></trkpt><trkpt lat="45.184621" lon="12.2785831"><ele>0.9999999999999999</ele><time>2026-03-22T07:35:58.26Z</time></trkpt><trkpt lat="45.1845501" lon="12.2785573"><ele>1.0</ele><time>2026-03-22T07:35:59.263Z</time></trkpt><trkpt lat="45.1844697" lon="12.2785307"><ele>1.0</ele><time>2026-03-22T07:36:00.26Z</time></trkpt><trkpt lat="45.1843819" lon="12.2785022"><ele>1.0</ele><time>2026-03-22T07:36:01.266Z</time></trkpt><trkpt lat="45.1842979" lon="12.2784711"><ele>1.0</ele><time>2026-03-22T07:36:02.26Z</time></trkpt><trkpt lat="45.1842058" lon="12.2784434"><ele>1.0</ele><time>2026-03-22T07:36:03.259Z</time></trkpt><trkpt lat="45.1841033" lon="12.2784118"><ele>1.0</ele><time>2026-03-22T07:36:04.251Z</time></trkpt><trkpt lat="45.1839882" lon="12.2783797"><ele>1.0</ele><time>2026-03-22T07:36:05.261Z</time></trkpt><trkpt lat="45.1838476" lon="12.2783459"><ele>1.5</ele><time>2026-03-22T07:36:06.242Z</time></trkpt><trkpt lat="45.1837162" lon="12.2783309"><ele>2.0</ele><time>2026-03-22T07:36:07.266Z</time></trkpt><trkpt lat="45.1835913" lon="12.2783212"><ele>2.5</ele><time>2026-03-22T07:36:08.251Z</time></trkpt><trkpt lat="45.183469" lon="12.2783179"><ele>3.0</ele><time>2026-03-22T07:36:09.26Z</time></trkpt><trkpt lat="45.1833489" lon="12.2783214"><ele>3.0</ele><time>2026-03-22T07:36:10.257Z</time></trkpt><trkpt lat="45.1832279" lon="12.2783256"><ele>3.0</ele><time>2026-03-22T07:36:11.254Z</time></trkpt><trkpt lat="45.1831064" lon="12.2783248"><ele>3.0</ele><time>2026-03-22T07:36:12.258Z</time></trkpt><trkpt lat="45.1829816" lon="12.2783239"><ele>3.0</ele><time>2026-03-22T07:36:13.256Z</time></trkpt><trkpt lat="45.1828475" lon="12.2783259"><ele>3.0</ele><time>2026-03-22T07:36:14.251Z</time></trkpt><trkpt lat="45.1826973" lon="12.2783364"><ele>3.0</ele><time>2026-03-22T07:36:15.25Z</time></trkpt><trkpt lat="45.1825168" lon="12.2783384"><ele>3.0</ele><time>2026-03-22T07:36:16.247Z</time></trkpt><trkpt lat="45.1823244" lon="12.2783376"><ele>3.0</ele><time>2026-03-22T07:36:17.263Z</time></trkpt><trkpt lat="45.1821298" lon="12.2783272"><ele>3.0</ele><time>2026-03-22T07:36:18.26Z</time></trkpt><trkpt lat="45.1819537" lon="12.2782952"><ele>3.0</ele><time>2026-03-22T07:36:19.256Z</time></trkpt><trkpt lat="45.1817974" lon="12.2782661"><ele>3.0</ele><time>2026-03-22T07:36:20.261Z</time></trkpt><trkpt lat="45.1816655" lon="12.2782275"><ele>3.0</ele><time>2026-03-22T07:36:21.261Z</time></trkpt><trkpt lat="45.1815544" lon="12.2781961"><ele>3.0</ele><time>2026-03-22T07:36:22.258Z</time></trkpt><trkpt lat="45.1814713" lon="12.2781627"><ele>3.0</ele><time>2026-03-22T07:36:23.259Z</time></trkpt><trkpt lat="45.1814045" lon="12.2781293"><ele>3.0</ele><time>2026-03-22T07:36:24.255Z</time></trkpt><trkpt lat="45.1813305" lon="12.2780953"><ele>2.8</ele><time>2026-03-22T07:36:26.258Z</time></trkpt><trkpt lat="45.1812881" lon="12.2780225"><ele>2.5999999999999996</ele><time>2026-03-22T07:36:35.271Z</time></trkpt><trkpt lat="45.1813446" lon="12.2779327"><ele>2.4000000000000004</ele><time>2026-03-22T07:36:38.264Z</time></trkpt><trkpt lat="45.1814906" lon="12.2779516"><ele>2.2</ele><time>2026-03-22T07:36:40.256Z</time></trkpt><trkpt lat="45.1816035" lon="12.2779772"><ele>2.0</ele><time>2026-03-22T07:36:41.259Z</time></trkpt><trkpt lat="45.1817348" lon="12.2779861"><ele>2.0</ele><time>2026-03-22T07:36:42.254Z</time></trkpt><trkpt lat="45.1818857" lon="12.2779871"><ele>2.0</ele><time>2026-03-22T07:36:43.26Z</time></trkpt><trkpt lat="45.1820437" lon="12.2779673"><ele>2.0</ele><time>2026-03-22T07:36:44.259Z</time></trkpt><trkpt lat="45.1822162" lon="12.2779441"><ele>2.6666666666666665</ele><time>2026-03-22T07:36:45.261Z</time></trkpt><trkpt lat="45.1823787" lon="12.2778927"><ele>3.333333333333333</ele><time>2026-03-22T07:36:46.261Z</time></trkpt><trkpt lat="45.1825464" lon="12.2778392"><ele>4.0</ele><time>2026-03-22T07:36:47.263Z</time></trkpt><trkpt lat="45.1827315" lon="12.2777639"><ele>4.0</ele><time>2026-03-22T07:36:48.271Z</time></trkpt><trkpt lat="45.1829124" lon="12.2776687"><ele>4.0</ele><time>2026-03-22T07:36:49.265Z</time></trkpt><trkpt lat="45.1830728" lon="12.2775806"><ele>4.0</ele><time>2026-03-22T07:36:50.27Z</time></trkpt><trkpt lat="45.1832198" lon="12.2775015"><ele>3.75</ele><time>2026-03-22T07:36:51.269Z</time></trkpt><trkpt lat="45.1833546" lon="12.27743"><ele>3.5</ele><time>2026-03-22T07:36:52.268Z</time></trkpt><trkpt lat="45.1834872" lon="12.2773592"><ele>3.25</ele><time>2026-03-22T07:36:53.27Z</time></trkpt><trkpt lat="45.1836249" lon="12.277282"><ele>3.0</ele><time>2026-03-22T07:36:54.269Z</time></trkpt><trkpt lat="45.1837663" lon="12.2772077"><ele>2.6666666666666665</ele><time>2026-03-22T07:36:55.269Z</time></trkpt><trkpt lat="45.183918" lon="12.2771414"><ele>2.333333333333333</ele><time>2026-03-22T07:36:56.272Z</time></trkpt><trkpt lat="45.1840687" lon="12.2770898"><ele>2.0</ele><time>2026-03-22T07:36:57.271Z</time></trkpt><trkpt lat="45.1842116" lon="12.2770523"><ele>1.3333333333333333</ele><time>2026-03-22T07:36:58.269Z</time></trkpt><trkpt lat="45.1843494" lon="12.2770253"><ele>0.6666666666666666</ele><time>2026-03-22T07:36:59.273Z</time></trkpt><trkpt lat="45.184503" lon="12.2769929"><ele>0.0</ele><time>2026-03-22T07:37:00.264Z</time></trkpt><trkpt lat="45.1846629" lon="12.2769675"><ele>0.0</ele><time>2026-03-22T07:37:01.274Z</time></trkpt><trkpt lat="45.1848239" lon="12.2769602"><ele>0.0</ele><time>2026-03-22T07:37:02.264Z</time></trkpt><trkpt lat="45.1849936" lon="12.2769688"><ele>0.0</ele><time>2026-03-22T07:37:03.268Z</time></trkpt><trkpt lat="45.1851599" lon="12.2769794"><ele>-0.25</ele><time>2026-03-22T07:37:04.266Z</time></trkpt><trkpt lat="45.1853088" lon="12.2769854"><ele>-0.5</ele><time>2026-03-22T07:37:05.274Z</time></trkpt><trkpt lat="45.1854219" lon="12.2770045"><ele>-0.75</ele><time>2026-03-22T07:37:06.256Z</time></trkpt><trkpt lat="45.1855215" lon="12.2770244"><ele>-1.0</ele><time>2026-03-22T07:37:07.273Z</time></trkpt><trkpt lat="45.185616" lon="12.2770383"><ele>-0.6000000000000001</ele><time>2026-03-22T07:37:08.265Z</time></trkpt><trkpt lat="45.1857142" lon="12.2770428"><ele>-0.20000000000000007</ele><time>2026-03-22T07:37:09.274Z</time></trkpt><trkpt lat="45.1858132" lon="12.277041"><ele>0.20000000000000007</ele><time>2026-03-22T07:37:10.281Z</time></trkpt><trkpt lat="45.1859201" lon="12.2770348"><ele>0.6000000000000001</ele><time>2026-03-22T07:37:11.276Z</time></trkpt><trkpt lat="45.1860277" lon="12.2770327"><ele>1.0</ele><time>2026-03-22T07:37:12.268Z</time></trkpt><trkpt lat="45.1861318" lon="12.277034"><ele>1.0</ele><time>2026-03-22T07:37:13.27Z</time></trkpt><trkpt lat="45.1862321" lon="12.2770397"><ele>1.0</ele><time>2026-03-22T07:37:14.27Z</time></trkpt><trkpt lat="45.186329" lon="12.2770391"><ele>1.0</ele><time>2026-03-22T07:37:15.274Z</time></trkpt><trkpt lat="45.1864246" lon="12.2770419"><ele>1.0</ele><time>2026-03-22T07:37:16.265Z</time></trkpt><trkpt lat="45.1865187" lon="12.2770439"><ele>1.0</ele><time>2026-03-22T07:37:17.267Z</time></trkpt><trkpt lat="45.1866073" lon="12.2770554"><ele>0.4</ele><time>2026-03-22T07:37:18.257Z</time></trkpt><trkpt lat="45.1866893" lon="12.277079"><ele>-0.19999999999999996</ele><time>2026-03-22T07:37:19.266Z</time></trkpt><trkpt lat="45.1867575" lon="12.2771322"><ele>-0.8000000000000002</ele><time>2026-03-22T07:37:20.26Z</time></trkpt><trkpt lat="45.1868296" lon="12.2771943"><ele>-1.4000000000000001</ele><time>2026-03-22T07:37:21.261Z</time></trkpt><trkpt lat="45.1869099" lon="12.2772688"><ele>-2.0</ele><time>2026-03-22T07:37:22.261Z</time></trkpt><trkpt lat="45.1870094" lon="12.2773288"><ele>-2.0</ele><time>2026-03-22T07:37:23.262Z</time></trkpt><trkpt lat="45.1871256" lon="12.2773617"><ele>-2.0</ele><time>2026-03-22T07:37:24.268Z</time></trkpt><trkpt lat="45.187242" lon="12.2773363"><ele>-2.0</ele><time>2026-03-22T07:37:25.265Z</time></trkpt><trkpt lat="45.1873545" lon="12.2772715"><ele>-2.0</ele><time>2026-03-22T07:37:26.263Z</time></trkpt><trkpt lat="45.1874516" lon="12.2771639"><ele>-2.0</ele><time>2026-03-22T07:37:27.262Z</time></trkpt><trkpt lat="45.1875273" lon="12.2770261"><ele>-2.0</ele><time>2026-03-22T07:37:28.264Z</time></trkpt><trkpt lat="45.1875695" lon="12.2768694"><ele>-2.0</ele><time>2026-03-22T07:37:29.271Z</time></trkpt><trkpt lat="45.1875927" lon="12.2766909"><ele>-2.0</ele><time>2026-03-22T07:37:30.264Z</time></trkpt><trkpt lat="45.1875795" lon="12.2765158"><ele>-2.0</ele><time>2026-03-22T07:37:31.272Z</time></trkpt><trkpt lat="45.1875337" lon="12.2763541"><ele>-2.0</ele><time>2026-03-22T07:37:32.267Z</time></trkpt><trkpt lat="45.1874624" lon="12.2762157"><ele>-2.0</ele><time>2026-03-22T07:37:33.263Z</time></trkpt><trkpt lat="45.1873765" lon="12.2761089"><ele>-2.0</ele><time>2026-03-22T07:37:34.264Z</time></trkpt><trkpt lat="45.1872891" lon="12.2760111"><ele>-1.8333333333333333</ele><time>2026-03-22T07:37:35.266Z</time></trkpt><trkpt lat="45.187209" lon="12.2759165"><ele>-1.6666666666666665</ele><time>2026-03-22T07:37:36.269Z</time></trkpt><trkpt lat="45.1871438" lon="12.2758148"><ele>-1.5</ele><time>2026-03-22T07:37:37.263Z</time></trkpt><trkpt lat="45.1870949" lon="12.2757137"><ele>-1.3333333333333333</ele><time>2026-03-22T07:37:38.278Z</time></trkpt><trkpt lat="45.1870712" lon="12.2756119"><ele>-1.1666666666666665</ele><time>2026-03-22T07:37:39.264Z</time></trkpt><trkpt lat="45.187062" lon="12.2755212"><ele>-1.0</ele><time>2026-03-22T07:37:40.271Z</time></trkpt><trkpt lat="45.1870924" lon="12.2754054"><ele>-0.6666666666666666</ele><time>2026-03-22T07:37:42.275Z</time></trkpt><trkpt lat="45.1871194" lon="12.2752621"><ele>-0.3333333333333333</ele><time>2026-03-22T07:37:44.277Z</time></trkpt><trkpt lat="45.1871013" lon="12.2751731"><ele>0.0</ele><time>2026-03-22T07:37:45.268Z</time></trkpt><trkpt lat="45.1870696" lon="12.2750895"><ele>0.3333333333333333</ele><time>2026-03-22T07:37:46.263Z</time></trkpt><trkpt lat="45.1870168" lon="12.2750148"><ele>0.6666666666666666</ele><time>2026-03-22T07:37:47.276Z</time></trkpt><trkpt lat="45.1869294" lon="12.2749371"><ele>1.0</ele><time>2026-03-22T07:37:48.272Z</time></trkpt><trkpt lat="45.1868329" lon="12.2748393"><ele>0.5</ele><time>2026-03-22T07:37:49.262Z</time></trkpt><trkpt lat="45.1867188" lon="12.2747446"><ele>0.0</ele><time>2026-03-22T07:37:50.263Z</time></trkpt><trkpt lat="45.1865933" lon="12.2746756"><ele>-0.5</ele><time>2026-03-22T07:37:51.275Z</time></trkpt><trkpt lat="45.1864522" lon="12.2746412"><ele>-1.0</ele><time>2026-03-22T07:37:52.273Z</time></trkpt><trkpt lat="45.1863015" lon="12.2746289"><ele>-1.0</ele><time>2026-03-22T07:37:53.279Z</time></trkpt><trkpt lat="45.1861605" lon="12.2746265"><ele>-1.0</ele><time>2026-03-22T07:37:54.27Z</time></trkpt><trkpt lat="45.1860276" lon="12.2746284"><ele>-1.0</ele><time>2026-03-22T07:37:55.275Z</time></trkpt><trkpt lat="45.1859045" lon="12.2746306"><ele>-1.0</ele><time>2026-03-22T07:37:56.271Z</time></trkpt><trkpt lat="45.1857978" lon="12.274639"><ele>-0.9999999999999999</ele><time>2026-03-22T07:37:57.273Z</time></trkpt><trkpt lat="45.185721" lon="12.2746437"><ele>-1.0</ele><time>2026-03-22T07:37:58.261Z</time></trkpt><trkpt lat="45.1856582" lon="12.2746518"><ele>-1.0</ele><time>2026-03-22T07:37:59.272Z</time></trkpt><trkpt lat="45.1855536" lon="12.2746524"><ele>-1.0</ele><time>2026-03-22T07:38:01.275Z</time></trkpt><trkpt lat="45.1854421" lon="12.2745978"><ele>-0.9999999999999999</ele><time>2026-03-22T07:38:03.269Z</time></trkpt><trkpt lat="45.185386" lon="12.2745385"><ele>-1.0</ele><time>2026-03-22T07:38:04.272Z</time></trkpt><trkpt lat="45.1853375" lon="12.2744545"><ele>-0.75</ele><time>2026-03-22T07:38:05.27Z</time></trkpt><trkpt lat="45.1852924" lon="12.2743442"><ele>-0.5</ele><time>2026-03-22T07:38:06.271Z</time></trkpt><trkpt lat="45.1852572" lon="12.2742003"><ele>-0.25</ele><time>2026-03-22T07:38:07.273Z</time></trkpt><trkpt lat="45.1852247" lon="12.2740234"><ele>0.0</ele><time>2026-03-22T07:38:08.273Z</time></trkpt><trkpt lat="45.185193" lon="12.2738175"><ele>0.0</ele><time>2026-03-22T07:38:09.27Z</time></trkpt><trkpt lat="45.1851564" lon="12.2735907"><ele>0.0</ele><time>2026-03-22T07:38:10.27Z</time></trkpt><trkpt lat="45.1851154" lon="12.2733248"><ele>0.0</ele><time>2026-03-22T07:38:11.274Z</time></trkpt><trkpt lat="45.185063" lon="12.2731006"><ele>0.25</ele><time>2026-03-22T07:38:12.273Z</time></trkpt><trkpt lat="45.1850186" lon="12.2729152"><ele>0.5</ele><time>2026-03-22T07:38:13.275Z</time></trkpt><trkpt lat="45.1849776" lon="12.2727282"><ele>0.75</ele><time>2026-03-22T07:38:14.275Z</time></trkpt><trkpt lat="45.1849273" lon="12.272545"><ele>1.0</ele><time>2026-03-22T07:38:15.279Z</time></trkpt><trkpt lat="45.1848768" lon="12.2723553"><ele>0.5</ele><time>2026-03-22T07:38:16.277Z</time></trkpt><trkpt lat="45.1848203" lon="12.2721771"><ele>0.0</ele><time>2026-03-22T07:38:17.275Z</time></trkpt><trkpt lat="45.1847771" lon="12.2719882"><ele>-0.5</ele><time>2026-03-22T07:38:18.279Z</time></trkpt><trkpt lat="45.1847375" lon="12.2718091"><ele>-1.0</ele><time>2026-03-22T07:38:19.271Z</time></trkpt><trkpt lat="45.1846998" lon="12.271647"><ele>-1.0</ele><time>2026-03-22T07:38:20.28Z</time></trkpt><trkpt lat="45.1846543" lon="12.2714894"><ele>-1.0</ele><time>2026-03-22T07:38:21.275Z</time></trkpt><trkpt lat="45.184607" lon="12.2713169"><ele>-1.0</ele><time>2026-03-22T07:38:22.282Z</time></trkpt><trkpt lat="45.1845617" lon="12.2711336"><ele>-1.0</ele><time>2026-03-22T07:38:23.28Z</time></trkpt><trkpt lat="45.1845144" lon="12.270943"><ele>-1.0</ele><time>2026-03-22T07:38:24.283Z</time></trkpt><trkpt lat="45.1844677" lon="12.2707494"><ele>-1.0</ele><time>2026-03-22T07:38:25.278Z</time></trkpt><trkpt lat="45.1844137" lon="12.2705564"><ele>-1.0</ele><time>2026-03-22T07:38:26.286Z</time></trkpt><trkpt lat="45.1843599" lon="12.2703567"><ele>-1.0</ele><time>2026-03-22T07:38:27.274Z</time></trkpt><trkpt lat="45.1843014" lon="12.2701349"><ele>-0.6666666666666666</ele><time>2026-03-22T07:38:28.281Z</time></trkpt><trkpt lat="45.1842479" lon="12.2698861"><ele>-0.3333333333333333</ele><time>2026-03-22T07:38:29.281Z</time></trkpt><trkpt lat="45.1841936" lon="12.269654"><ele>0.0</ele><time>2026-03-22T07:38:30.272Z</time></trkpt><trkpt lat="45.1841401" lon="12.2694329"><ele>0.0</ele><time>2026-03-22T07:38:31.283Z</time></trkpt><trkpt lat="45.1840913" lon="12.269227"><ele>0.0</ele><time>2026-03-22T07:38:32.278Z</time></trkpt><trkpt lat="45.1840364" lon="12.2690222"><ele>0.0</ele><time>2026-03-22T07:38:33.281Z</time></trkpt><trkpt lat="45.1839839" lon="12.2688166"><ele>-0.3333333333333333</ele><time>2026-03-22T07:38:34.277Z</time></trkpt><trkpt lat="45.1839314" lon="12.2686027"><ele>-0.6666666666666666</ele><time>2026-03-22T07:38:35.273Z</time></trkpt><trkpt lat="45.1838771" lon="12.2683924"><ele>-1.0</ele><time>2026-03-22T07:38:36.272Z</time></trkpt><trkpt lat="45.1838172" lon="12.2681757"><ele>-1.0</ele><time>2026-03-22T07:38:37.278Z</time></trkpt><trkpt lat="45.183754" lon="12.2679491"><ele>-1.0</ele><time>2026-03-22T07:38:38.281Z</time></trkpt><trkpt lat="45.1836904" lon="12.2677192"><ele>-1.0</ele><time>2026-03-22T07:38:39.275Z</time></trkpt><trkpt lat="45.1836238" lon="12.2674782"><ele>-1.6666666666666665</ele><time>2026-03-22T07:38:40.278Z</time></trkpt><trkpt lat="45.1835565" lon="12.2672172"><ele>-2.3333333333333335</ele><time>2026-03-22T07:38:41.275Z</time></trkpt><trkpt lat="45.1834903" lon="12.2669499"><ele>-3.0</ele><time>2026-03-22T07:38:42.279Z</time></trkpt><trkpt lat="45.1834267" lon="12.2666866"><ele>-3.333333333333333</ele><time>2026-03-22T07:38:43.27Z</time></trkpt><trkpt lat="45.1833745" lon="12.2664364"><ele>-3.6666666666666665</ele><time>2026-03-22T07:38:44.269Z</time></trkpt><trkpt lat="45.1833543" lon="12.2662012"><ele>-4.0</ele><time>2026-03-22T07:38:45.272Z</time></trkpt><trkpt lat="45.1833612" lon="12.2659468"><ele>-4.0</ele><time>2026-03-22T07:38:46.273Z</time></trkpt><trkpt lat="45.1833723" lon="12.2656879"><ele>-4.0</ele><time>2026-03-22T07:38:47.271Z</time></trkpt><trkpt lat="45.183383" lon="12.2654183"><ele>-4.0</ele><time>2026-03-22T07:38:48.274Z</time></trkpt><trkpt lat="45.183386" lon="12.2651391"><ele>-3.333333333333333</ele><time>2026-03-22T07:38:49.282Z</time></trkpt><trkpt lat="45.1833949" lon="12.2648602"><ele>-2.6666666666666665</ele><time>2026-03-22T07:38:50.275Z</time></trkpt><trkpt lat="45.1834037" lon="12.2645773"><ele>-2.0</ele><time>2026-03-22T07:38:51.275Z</time></trkpt><trkpt lat="45.183412" lon="12.2642852"><ele>-2.0</ele><time>2026-03-22T07:38:52.278Z</time></trkpt><trkpt lat="45.1834182" lon="12.2639904"><ele>-2.0</ele><time>2026-03-22T07:38:53.275Z</time></trkpt><trkpt lat="45.1834238" lon="12.2636861"><ele>-2.0</ele><time>2026-03-22T07:38:54.279Z</time></trkpt><trkpt lat="45.1834327" lon="12.2633729"><ele>-2.0</ele><time>2026-03-22T07:38:55.277Z</time></trkpt><trkpt lat="45.1834403" lon="12.2630596"><ele>-2.0</ele><time>2026-03-22T07:38:56.277Z</time></trkpt><trkpt lat="45.183444" lon="12.2627451"><ele>-2.0</ele><time>2026-03-22T07:38:57.278Z</time></trkpt><trkpt lat="45.18345" lon="12.2624159"><ele>-2.0</ele><time>2026-03-22T07:38:58.272Z</time></trkpt><trkpt lat="45.1834509" lon="12.2620887"><ele>-2.0</ele><time>2026-03-22T07:38:59.287Z</time></trkpt><trkpt lat="45.1834559" lon="12.2617645"><ele>-2.5</ele><time>2026-03-22T07:39:00.279Z</time></trkpt><trkpt lat="45.1834652" lon="12.2614413"><ele>-3.0</ele><time>2026-03-22T07:39:01.282Z</time></trkpt><trkpt lat="45.1834687" lon="12.2611108"><ele>-3.0</ele><time>2026-03-22T07:39:02.285Z</time></trkpt><trkpt lat="45.1834774" lon="12.2607704"><ele>-3.0</ele><time>2026-03-22T07:39:03.279Z</time></trkpt><trkpt lat="45.1834815" lon="12.2604474"><ele>-2.3333333333333335</ele><time>2026-03-22T07:39:04.283Z</time></trkpt><trkpt lat="45.1834877" lon="12.2601258"><ele>-1.6666666666666665</ele><time>2026-03-22T07:39:05.278Z</time></trkpt><trkpt lat="45.1834979" lon="12.2598197"><ele>-1.0</ele><time>2026-03-22T07:39:06.274Z</time></trkpt><trkpt lat="45.1835149" lon="12.2595346"><ele>-0.6666666666666666</ele><time>2026-03-22T07:39:07.276Z</time></trkpt><trkpt lat="45.1835228" lon="12.2592679"><ele>-0.3333333333333333</ele><time>2026-03-22T07:39:08.275Z</time></trkpt><trkpt lat="45.1835351" lon="12.258995"><ele>0.0</ele><time>2026-03-22T07:39:09.275Z</time></trkpt><trkpt lat="45.1835448" lon="12.2587323"><ele>0.0</ele><time>2026-03-22T07:39:10.277Z</time></trkpt><trkpt lat="45.1835519" lon="12.2584638"><ele>0.0</ele><time>2026-03-22T07:39:11.276Z</time></trkpt><trkpt lat="45.1835579" lon="12.2581828"><ele>0.0</ele><time>2026-03-22T07:39:12.275Z</time></trkpt><trkpt lat="45.183567" lon="12.2579038"><ele>-0.3333333333333333</ele><time>2026-03-22T07:39:13.282Z</time></trkpt><trkpt lat="45.1835758" lon="12.2576203"><ele>-0.6666666666666666</ele><time>2026-03-22T07:39:14.282Z</time></trkpt><trkpt lat="45.1835874" lon="12.2573357"><ele>-1.0</ele><time>2026-03-22T07:39:15.28Z</time></trkpt><trkpt lat="45.1835971" lon="12.2570515"><ele>-1.0</ele><time>2026-03-22T07:39:16.286Z</time></trkpt><trkpt lat="45.1836088" lon="12.256757"><ele>-1.0</ele><time>2026-03-22T07:39:17.28Z</time></trkpt><trkpt lat="45.1836209" lon="12.2564545"><ele>-1.0</ele><time>2026-03-22T07:39:18.286Z</time></trkpt><trkpt lat="45.1836371" lon="12.2561559"><ele>-1.0</ele><time>2026-03-22T07:39:19.279Z</time></trkpt><trkpt lat="45.1836514" lon="12.2558494"><ele>-1.0</ele><time>2026-03-22T07:39:20.283Z</time></trkpt><trkpt lat="45.1836682" lon="12.2555404"><ele>-1.0</ele><time>2026-03-22T07:39:21.283Z</time></trkpt><trkpt lat="45.1836848" lon="12.2552254"><ele>-0.6666666666666666</ele><time>2026-03-22T07:39:22.281Z</time></trkpt><trkpt lat="45.1837028" lon="12.2549169"><ele>-0.3333333333333333</ele><time>2026-03-22T07:39:23.281Z</time></trkpt><trkpt lat="45.1837238" lon="12.2546022"><ele>0.0</ele><time>2026-03-22T07:39:24.276Z</time></trkpt><trkpt lat="45.1837395" lon="12.2542901"><ele>0.0</ele><time>2026-03-22T07:39:25.28Z</time></trkpt><trkpt lat="45.1837589" lon="12.2539648"><ele>0.0</ele><time>2026-03-22T07:39:26.286Z</time></trkpt><trkpt lat="45.1837818" lon="12.2536436"><ele>0.0</ele><time>2026-03-22T07:39:27.28Z</time></trkpt><trkpt lat="45.1838011" lon="12.2533174"><ele>0.0</ele><time>2026-03-22T07:39:28.28Z</time></trkpt><trkpt lat="45.1838207" lon="12.2529952"><ele>0.5</ele><time>2026-03-22T07:39:29.287Z</time></trkpt><trkpt lat="45.1838425" lon="12.2526649"><ele>1.0</ele><time>2026-03-22T07:39:30.282Z</time></trkpt><trkpt lat="45.1838603" lon="12.25235"><ele>1.5</ele><time>2026-03-22T07:39:31.284Z</time></trkpt><trkpt lat="45.1838793" lon="12.2520295"><ele>2.0</ele><time>2026-03-22T07:39:32.285Z</time></trkpt><trkpt lat="45.1838988" lon="12.251703"><ele>1.0</ele><time>2026-03-22T07:39:33.283Z</time></trkpt><trkpt lat="45.1839098" lon="12.251383"><ele>0.0</ele><time>2026-03-22T07:39:34.281Z</time></trkpt><trkpt lat="45.1839232" lon="12.2510517"><ele>0.0</ele><time>2026-03-22T07:39:35.279Z</time></trkpt><trkpt lat="45.1839374" lon="12.2507226"><ele>0.0</ele><time>2026-03-22T07:39:36.281Z</time></trkpt><trkpt lat="45.1839585" lon="12.2503869"><ele>0.0</ele><time>2026-03-22T07:39:37.275Z</time></trkpt><trkpt lat="45.1839787" lon="12.2500612"><ele>0.0</ele><time>2026-03-22T07:39:38.282Z</time></trkpt><trkpt lat="45.1839999" lon="12.2497312"><ele>0.0</ele><time>2026-03-22T07:39:39.278Z</time></trkpt><trkpt lat="45.1840191" lon="12.2493993"><ele>0.0</ele><time>2026-03-22T07:39:40.283Z</time></trkpt><trkpt lat="45.1840434" lon="12.2490686"><ele>0.0</ele><time>2026-03-22T07:39:41.278Z</time></trkpt><trkpt lat="45.1840807" lon="12.2487372"><ele>0.0</ele><time>2026-03-22T07:39:42.276Z</time></trkpt><trkpt lat="45.1841427" lon="12.24842"><ele>0.0</ele><time>2026-03-22T07:39:43.274Z</time></trkpt><trkpt lat="45.1842315" lon="12.2481156"><ele>0.0</ele><time>2026-03-22T07:39:44.286Z</time></trkpt><trkpt lat="45.1843194" lon="12.2478056"><ele>0.0</ele><time>2026-03-22T07:39:45.279Z</time></trkpt><trkpt lat="45.1844117" lon="12.2474967"><ele>0.0</ele><time>2026-03-22T07:39:46.282Z</time></trkpt><trkpt lat="45.1845059" lon="12.2471832"><ele>0.0</ele><time>2026-03-22T07:39:47.278Z</time></trkpt><trkpt lat="45.1845984" lon="12.2468744"><ele>0.0</ele><time>2026-03-22T07:39:48.283Z</time></trkpt><trkpt lat="45.1846915" lon="12.2465605"><ele>0.0</ele><time>2026-03-22T07:39:49.285Z</time></trkpt><trkpt lat="45.184777" lon="12.2462568"><ele>0.0</ele><time>2026-03-22T07:39:50.283Z</time></trkpt><trkpt lat="45.1848657" lon="12.2459753"><ele>0.0</ele><time>2026-03-22T07:39:51.284Z</time></trkpt><trkpt lat="45.1849456" lon="12.2457015"><ele>0.0</ele><time>2026-03-22T07:39:52.282Z</time></trkpt><trkpt lat="45.185021" lon="12.2454256"><ele>0.0</ele><time>2026-03-22T07:39:53.286Z</time></trkpt><trkpt lat="45.1850942" lon="12.2451624"><ele>0.0</ele><time>2026-03-22T07:39:54.278Z</time></trkpt><trkpt lat="45.1851636" lon="12.244915"><ele>0.0</ele><time>2026-03-22T07:39:55.279Z</time></trkpt><trkpt lat="45.1852153" lon="12.2446753"><ele>0.0</ele><time>2026-03-22T07:39:56.279Z</time></trkpt><trkpt lat="45.1852527" lon="12.2444565"><ele>0.0</ele><time>2026-03-22T07:39:57.28Z</time></trkpt><trkpt lat="45.1852866" lon="12.2442671"><ele>0.0</ele><time>2026-03-22T07:39:58.275Z</time></trkpt><trkpt lat="45.1853097" lon="12.2441028"><ele>0.0</ele><time>2026-03-22T07:39:59.287Z</time></trkpt><trkpt lat="45.1853356" lon="12.2439648"><ele>0.0</ele><time>2026-03-22T07:40:00.278Z</time></trkpt><trkpt lat="45.1853544" lon="12.2438622"><ele>0.0</ele><time>2026-03-22T07:40:01.281Z</time></trkpt><trkpt lat="45.1854047" lon="12.2437389"><ele>0.0</ele><time>2026-03-22T07:40:03.29Z</time></trkpt><trkpt lat="45.1854748" lon="12.2436438"><ele>0.2</ele><time>2026-03-22T07:40:05.289Z</time></trkpt><trkpt lat="45.185525" lon="12.2435032"><ele>0.4</ele><time>2026-03-22T07:40:07.278Z</time></trkpt><trkpt lat="45.1855013" lon="12.2433592"><ele>0.6000000000000001</ele><time>2026-03-22T07:40:09.281Z</time></trkpt><trkpt lat="45.185441" lon="12.2433074"><ele>0.8</ele><time>2026-03-22T07:40:10.281Z</time></trkpt><trkpt lat="45.1853509" lon="12.2432545"><ele>1.0</ele><time>2026-03-22T07:40:11.277Z</time></trkpt><trkpt lat="45.1852551" lon="12.2431748"><ele>1.0</ele><time>2026-03-22T07:40:12.279Z</time></trkpt><trkpt lat="45.1851558" lon="12.2430662"><ele>1.0</ele><time>2026-03-22T07:40:13.28Z</time></trkpt><trkpt lat="45.1850481" lon="12.2429249"><ele>1.0</ele><time>2026-03-22T07:40:14.271Z</time></trkpt><trkpt lat="45.1849395" lon="12.2427737"><ele>1.0</ele><time>2026-03-22T07:40:15.283Z</time></trkpt><trkpt lat="45.1848253" lon="12.2426172"><ele>1.0</ele><time>2026-03-22T07:40:16.279Z</time></trkpt><trkpt lat="45.1846957" lon="12.2424385"><ele>1.0</ele><time>2026-03-22T07:40:17.275Z</time></trkpt><trkpt lat="45.18458" lon="12.2422623"><ele>1.0</ele><time>2026-03-22T07:40:18.281Z</time></trkpt><trkpt lat="45.1844739" lon="12.2421022"><ele>0.5</ele><time>2026-03-22T07:40:19.279Z</time></trkpt><trkpt lat="45.1843712" lon="12.2419572"><ele>0.0</ele><time>2026-03-22T07:40:20.286Z</time></trkpt><trkpt lat="45.184277" lon="12.2418138"><ele>-0.5</ele><time>2026-03-22T07:40:21.281Z</time></trkpt><trkpt lat="45.1841891" lon="12.2416704"><ele>-1.0</ele><time>2026-03-22T07:40:22.283Z</time></trkpt><trkpt lat="45.1841044" lon="12.241532"><ele>-1.25</ele><time>2026-03-22T07:40:23.278Z</time></trkpt><trkpt lat="45.184021" lon="12.2413991"><ele>-1.5</ele><time>2026-03-22T07:40:24.272Z</time></trkpt><trkpt lat="45.1839384" lon="12.2412743"><ele>-1.75</ele><time>2026-03-22T07:40:25.281Z</time></trkpt><trkpt lat="45.1838618" lon="12.2411531"><ele>-2.0</ele><time>2026-03-22T07:40:26.276Z</time></trkpt><trkpt lat="45.1837876" lon="12.2410424"><ele>-1.6666666666666665</ele><time>2026-03-22T07:40:27.282Z</time></trkpt><trkpt lat="45.1837271" lon="12.2409423"><ele>-1.3333333333333333</ele><time>2026-03-22T07:40:28.275Z</time></trkpt><trkpt lat="45.1836718" lon="12.240853"><ele>-1.0</ele><time>2026-03-22T07:40:29.29Z</time></trkpt><trkpt lat="45.1836125" lon="12.2407805"><ele>-0.6666666666666666</ele><time>2026-03-22T07:40:31.286Z</time></trkpt><trkpt lat="45.1835542" lon="12.2407105"><ele>-0.3333333333333333</ele><time>2026-03-22T07:40:34.27Z</time></trkpt><trkpt lat="45.1834706" lon="12.2407409"><ele>0.0</ele><time>2026-03-22T07:40:37.269Z</time></trkpt><trkpt lat="45.183412" lon="12.2408401"><ele>0.0</ele><time>2026-03-22T07:40:39.27Z</time></trkpt><trkpt lat="45.1833735" lon="12.2409797"><ele>0.0</ele><time>2026-03-22T07:40:41.277Z</time></trkpt><trkpt lat="45.1833544" lon="12.2411037"><ele>0.0</ele><time>2026-03-22T07:40:43.282Z</time></trkpt><trkpt lat="45.1833364" lon="12.2411906"><ele>0.0</ele><time>2026-03-22T07:40:45.279Z</time></trkpt><trkpt lat="45.1833139" lon="12.2412799"><ele>0.0</ele><time>2026-03-22T07:40:49.267Z</time></trkpt><trkpt lat="45.1832877" lon="12.2414204"><ele>0.0</ele><time>2026-03-22T07:43:22.274Z</time></trkpt><trkpt lat="45.1832774" lon="12.2415318"><ele>-0.16666666666666666</ele><time>2026-03-22T07:43:23.261Z</time></trkpt><trkpt lat="45.1832741" lon="12.2416382"><ele>-0.3333333333333333</ele><time>2026-03-22T07:43:24.265Z</time></trkpt><trkpt lat="45.1832715" lon="12.2417506"><ele>-0.5</ele><time>2026-03-22T07:43:25.275Z</time></trkpt><trkpt lat="45.1832706" lon="12.241862"><ele>-0.6666666666666666</ele><time>2026-03-22T07:43:26.272Z</time></trkpt><trkpt lat="45.183273" lon="12.241963"><ele>-0.8333333333333333</ele><time>2026-03-22T07:43:27.275Z</time></trkpt><trkpt lat="45.1832736" lon="12.2420636"><ele>-1.0</ele><time>2026-03-22T07:43:28.271Z</time></trkpt><trkpt lat="45.1832746" lon="12.242177"><ele>-0.9999999999999999</ele><time>2026-03-22T07:43:29.27Z</time></trkpt><trkpt lat="45.1832809" lon="12.2423006"><ele>-1.0</ele><time>2026-03-22T07:43:30.272Z</time></trkpt><trkpt lat="45.1832939" lon="12.2424248"><ele>-1.0</ele><time>2026-03-22T07:43:31.269Z</time></trkpt><trkpt lat="45.1833103" lon="12.2425379"><ele>-1.0</ele><time>2026-03-22T07:43:32.263Z</time></trkpt><trkpt lat="45.1833278" lon="12.2426353"><ele>-0.9999999999999999</ele><time>2026-03-22T07:43:33.266Z</time></trkpt><trkpt lat="45.1833472" lon="12.2427208"><ele>-1.0</ele><time>2026-03-22T07:43:34.264Z</time></trkpt><trkpt lat="45.183366" lon="12.2428077"><ele>-0.9999999999999999</ele><time>2026-03-22T07:43:35.265Z</time></trkpt><trkpt lat="45.1833877" lon="12.2429025"><ele>-1.0</ele><time>2026-03-22T07:43:36.271Z</time></trkpt><trkpt lat="45.1834128" lon="12.2429914"><ele>-1.0</ele><time>2026-03-22T07:43:37.273Z</time></trkpt><trkpt lat="45.1834368" lon="12.2430763"><ele>-1.0</ele><time>2026-03-22T07:43:38.271Z</time></trkpt><trkpt lat="45.1834605" lon="12.2431593"><ele>-0.9999999999999999</ele><time>2026-03-22T07:43:39.272Z</time></trkpt><trkpt lat="45.1834939" lon="12.2433391"><ele>-1.0</ele><time>2026-03-22T07:43:41.267Z</time></trkpt><trkpt lat="45.1834923" lon="12.2434531"><ele>-1.0</ele><time>2026-03-22T07:43:42.271Z</time></trkpt><trkpt lat="45.1834802" lon="12.2435833"><ele>-1.0</ele><time>2026-03-22T07:43:43.274Z</time></trkpt><trkpt lat="45.18345" lon="12.2437377"><ele>-1.0</ele><time>2026-03-22T07:43:44.275Z</time></trkpt><trkpt lat="45.1834117" lon="12.2438998"><ele>-1.0</ele><time>2026-03-22T07:43:45.275Z</time></trkpt><trkpt lat="45.1833732" lon="12.2440653"><ele>-1.0</ele><time>2026-03-22T07:43:46.276Z</time></trkpt><trkpt lat="45.1833365" lon="12.2442304"><ele>-0.75</ele><time>2026-03-22T07:43:47.273Z</time></trkpt><trkpt lat="45.1832952" lon="12.2443936"><ele>-0.5</ele><time>2026-03-22T07:43:48.274Z</time></trkpt><trkpt lat="45.183254" lon="12.2445619"><ele>-0.25</ele><time>2026-03-22T07:43:49.27Z</time></trkpt><trkpt lat="45.1832084" lon="12.2447466"><ele>0.0</ele><time>2026-03-22T07:43:50.269Z</time></trkpt><trkpt lat="45.1831631" lon="12.244947"><ele>-1.0</ele><time>2026-03-22T07:43:51.268Z</time></trkpt><trkpt lat="45.1831141" lon="12.2451562"><ele>-2.0</ele><time>2026-03-22T07:43:52.271Z</time></trkpt><trkpt lat="45.1830662" lon="12.2453654"><ele>-3.0</ele><time>2026-03-22T07:43:53.276Z</time></trkpt><trkpt lat="45.1830211" lon="12.2455733"><ele>-3.0</ele><time>2026-03-22T07:43:54.271Z</time></trkpt><trkpt lat="45.1829747" lon="12.2457834"><ele>-3.0</ele><time>2026-03-22T07:43:55.275Z</time></trkpt><trkpt lat="45.1829329" lon="12.2459796"><ele>-3.0</ele><time>2026-03-22T07:43:56.273Z</time></trkpt><trkpt lat="45.1828852" lon="12.2461867"><ele>-3.0</ele><time>2026-03-22T07:43:57.273Z</time></trkpt><trkpt lat="45.1828395" lon="12.2463943"><ele>-3.0</ele><time>2026-03-22T07:43:58.275Z</time></trkpt><trkpt lat="45.1827891" lon="12.2466101"><ele>-3.0</ele><time>2026-03-22T07:43:59.277Z</time></trkpt><trkpt lat="45.1827444" lon="12.2468331"><ele>-2.3333333333333335</ele><time>2026-03-22T07:44:00.273Z</time></trkpt><trkpt lat="45.1826957" lon="12.2470642"><ele>-1.6666666666666665</ele><time>2026-03-22T07:44:01.277Z</time></trkpt><trkpt lat="45.1826407" lon="12.2472903"><ele>-1.0</ele><time>2026-03-22T07:44:02.274Z</time></trkpt><trkpt lat="45.1825906" lon="12.2475076"><ele>-1.0</ele><time>2026-03-22T07:44:03.273Z</time></trkpt><trkpt lat="45.1825389" lon="12.2477143"><ele>-1.0</ele><time>2026-03-22T07:44:04.272Z</time></trkpt><trkpt lat="45.1824895" lon="12.2479192"><ele>-1.0</ele><time>2026-03-22T07:44:05.276Z</time></trkpt><trkpt lat="45.1824392" lon="12.2481328"><ele>-1.0</ele><time>2026-03-22T07:44:06.277Z</time></trkpt><trkpt lat="45.1823872" lon="12.248352"><ele>-1.0</ele><time>2026-03-22T07:44:07.269Z</time></trkpt><trkpt lat="45.1823355" lon="12.248582"><ele>-1.0</ele><time>2026-03-22T07:44:08.276Z</time></trkpt><trkpt lat="45.1822881" lon="12.2488143"><ele>-1.3333333333333333</ele><time>2026-03-22T07:44:09.269Z</time></trkpt><trkpt lat="45.1822384" lon="12.249057"><ele>-1.6666666666666665</ele><time>2026-03-22T07:44:10.27Z</time></trkpt><trkpt lat="45.1821921" lon="12.2493055"><ele>-2.0</ele><time>2026-03-22T07:44:11.28Z</time></trkpt><trkpt lat="45.1821455" lon="12.2495576"><ele>-1.0</ele><time>2026-03-22T07:44:12.273Z</time></trkpt><trkpt lat="45.1820983" lon="12.2497973"><ele>0.0</ele><time>2026-03-22T07:44:13.273Z</time></trkpt><trkpt lat="45.182048" lon="12.250045"><ele>1.0</ele><time>2026-03-22T07:44:14.274Z</time></trkpt><trkpt lat="45.1819953" lon="12.2502888"><ele>1.0</ele><time>2026-03-22T07:44:15.274Z</time></trkpt><trkpt lat="45.1819443" lon="12.2505262"><ele>1.0</ele><time>2026-03-22T07:44:16.275Z</time></trkpt><trkpt lat="45.1818941" lon="12.2507592"><ele>1.0</ele><time>2026-03-22T07:44:17.272Z</time></trkpt><trkpt lat="45.1818415" lon="12.2509946"><ele>1.0</ele><time>2026-03-22T07:44:18.274Z</time></trkpt><trkpt lat="45.1817938" lon="12.2512333"><ele>1.0</ele><time>2026-03-22T07:44:19.275Z</time></trkpt><trkpt lat="45.1817472" lon="12.2514739"><ele>1.0</ele><time>2026-03-22T07:44:20.277Z</time></trkpt><trkpt lat="45.1816961" lon="12.2517132"><ele>1.0</ele><time>2026-03-22T07:44:21.275Z</time></trkpt><trkpt lat="45.1816436" lon="12.2519505"><ele>1.0</ele><time>2026-03-22T07:44:22.278Z</time></trkpt><trkpt lat="45.1815962" lon="12.2521932"><ele>1.0</ele><time>2026-03-22T07:44:23.275Z</time></trkpt><trkpt lat="45.1815517" lon="12.2524324"><ele>0.0</ele><time>2026-03-22T07:44:24.276Z</time></trkpt><trkpt lat="45.1815119" lon="12.2526747"><ele>-1.0</ele><time>2026-03-22T07:44:25.271Z</time></trkpt><trkpt lat="45.1814782" lon="12.2529012"><ele>-2.0</ele><time>2026-03-22T07:44:26.269Z</time></trkpt><trkpt lat="45.1814459" lon="12.253133"><ele>-2.333333333333333</ele><time>2026-03-22T07:44:27.275Z</time></trkpt><trkpt lat="45.1814211" lon="12.2533807"><ele>-2.6666666666666665</ele><time>2026-03-22T07:44:28.272Z</time></trkpt><trkpt lat="45.1814105" lon="12.2536287"><ele>-3.0</ele><time>2026-03-22T07:44:29.281Z</time></trkpt><trkpt lat="45.1814085" lon="12.2538822"><ele>-3.0</ele><time>2026-03-22T07:44:30.272Z</time></trkpt><trkpt lat="45.1814161" lon="12.2541474"><ele>-3.0</ele><time>2026-03-22T07:44:31.278Z</time></trkpt><trkpt lat="45.1814334" lon="12.2544103"><ele>-3.0</ele><time>2026-03-22T07:44:32.271Z</time></trkpt><trkpt lat="45.1814526" lon="12.254678"><ele>-3.0</ele><time>2026-03-22T07:44:33.279Z</time></trkpt><trkpt lat="45.1814712" lon="12.254946"><ele>-3.0</ele><time>2026-03-22T07:44:34.27Z</time></trkpt><trkpt lat="45.1814903" lon="12.2552144"><ele>-3.0</ele><time>2026-03-22T07:44:35.278Z</time></trkpt><trkpt lat="45.1815062" lon="12.2554885"><ele>-2.3333333333333335</ele><time>2026-03-22T07:44:36.271Z</time></trkpt><trkpt lat="45.1815287" lon="12.2557527"><ele>-1.6666666666666665</ele><time>2026-03-22T07:44:37.275Z</time></trkpt><trkpt lat="45.181554" lon="12.2560099"><ele>-1.0</ele><time>2026-03-22T07:44:38.271Z</time></trkpt><trkpt lat="45.1815798" lon="12.2562692"><ele>-1.0</ele><time>2026-03-22T07:44:39.271Z</time></trkpt><trkpt lat="45.1816208" lon="12.2565193"><ele>-1.0</ele><time>2026-03-22T07:44:40.266Z</time></trkpt><trkpt lat="45.1816725" lon="12.2567673"><ele>-1.0</ele><time>2026-03-22T07:44:41.269Z</time></trkpt><trkpt lat="45.181731" lon="12.2570024"><ele>-1.0</ele><time>2026-03-22T07:44:42.27Z</time></trkpt><trkpt lat="45.1817834" lon="12.2572174"><ele>-1.0</ele><time>2026-03-22T07:44:43.269Z</time></trkpt><trkpt lat="45.1818277" lon="12.2574309"><ele>-1.0</ele><time>2026-03-22T07:44:44.274Z</time></trkpt><trkpt lat="45.1818596" lon="12.2576518"><ele>-0.6666666666666666</ele><time>2026-03-22T07:44:45.27Z</time></trkpt><trkpt lat="45.1818625" lon="12.2578716"><ele>-0.3333333333333333</ele><time>2026-03-22T07:44:46.272Z</time></trkpt><trkpt lat="45.1818428" lon="12.2581005"><ele>0.0</ele><time>2026-03-22T07:44:47.269Z</time></trkpt><trkpt lat="45.1818188" lon="12.2583374"><ele>0.0</ele><time>2026-03-22T07:44:48.275Z</time></trkpt><trkpt lat="45.1817957" lon="12.2585702"><ele>0.0</ele><time>2026-03-22T07:44:49.278Z</time></trkpt><trkpt lat="45.1817869" lon="12.2588127"><ele>0.0</ele><time>2026-03-22T07:44:50.275Z</time></trkpt><trkpt lat="45.1817778" lon="12.2590532"><ele>0.0</ele><time>2026-03-22T07:44:51.28Z</time></trkpt><trkpt lat="45.1817716" lon="12.259299"><ele>0.0</ele><time>2026-03-22T07:44:52.273Z</time></trkpt><trkpt lat="45.1817645" lon="12.2595504"><ele>0.0</ele><time>2026-03-22T07:44:53.278Z</time></trkpt><trkpt lat="45.1817554" lon="12.2598058"><ele>-0.3333333333333333</ele><time>2026-03-22T07:44:54.278Z</time></trkpt><trkpt lat="45.181754" lon="12.2600568"><ele>-0.6666666666666666</ele><time>2026-03-22T07:44:55.271Z</time></trkpt><trkpt lat="45.1817511" lon="12.2603206"><ele>-1.0</ele><time>2026-03-22T07:44:56.275Z</time></trkpt><trkpt lat="45.1817424" lon="12.2605943"><ele>-1.0</ele><time>2026-03-22T07:44:57.28Z</time></trkpt><trkpt lat="45.1817383" lon="12.2608561"><ele>-1.0</ele><time>2026-03-22T07:44:58.273Z</time></trkpt><trkpt lat="45.1817349" lon="12.2611283"><ele>-1.0</ele><time>2026-03-22T07:44:59.278Z</time></trkpt><trkpt lat="45.1817361" lon="12.2613963"><ele>-1.0</ele><time>2026-03-22T07:45:00.275Z</time></trkpt><trkpt lat="45.1817274" lon="12.2616576"><ele>-1.0</ele><time>2026-03-22T07:45:01.273Z</time></trkpt><trkpt lat="45.1817258" lon="12.2619234"><ele>-1.0</ele><time>2026-03-22T07:45:02.274Z</time></trkpt><trkpt lat="45.1817209" lon="12.2621839"><ele>-1.0</ele><time>2026-03-22T07:45:03.277Z</time></trkpt><trkpt lat="45.1817132" lon="12.2624495"><ele>-1.0</ele><time>2026-03-22T07:45:04.277Z</time></trkpt><trkpt lat="45.1817081" lon="12.2627156"><ele>-1.0</ele><time>2026-03-22T07:45:05.271Z</time></trkpt><trkpt lat="45.1817035" lon="12.2629694"><ele>-1.0</ele><time>2026-03-22T07:45:06.279Z</time></trkpt><trkpt lat="45.1816996" lon="12.2632073"><ele>-1.0</ele><time>2026-03-22T07:45:07.273Z</time></trkpt><trkpt lat="45.1817016" lon="12.2634293"><ele>-1.0</ele><time>2026-03-22T07:45:08.271Z</time></trkpt><trkpt lat="45.1816998" lon="12.2636423"><ele>-1.0</ele><time>2026-03-22T07:45:09.276Z</time></trkpt><trkpt lat="45.1816984" lon="12.2638629"><ele>-1.0</ele><time>2026-03-22T07:45:10.271Z</time></trkpt><trkpt lat="45.1816976" lon="12.2640675"><ele>-1.0</ele><time>2026-03-22T07:45:11.275Z</time></trkpt><trkpt lat="45.1816894" lon="12.2642697"><ele>-1.0</ele><time>2026-03-22T07:45:12.271Z</time></trkpt><trkpt lat="45.1816795" lon="12.2644697"><ele>-0.8</ele><time>2026-03-22T07:45:13.277Z</time></trkpt><trkpt lat="45.1816757" lon="12.2646564"><ele>-0.6000000000000001</ele><time>2026-03-22T07:45:14.275Z</time></trkpt><trkpt lat="45.1816827" lon="12.2648208"><ele>-0.4</ele><time>2026-03-22T07:45:15.275Z</time></trkpt><trkpt lat="45.1816851" lon="12.2649554"><ele>-0.2</ele><time>2026-03-22T07:45:16.275Z</time></trkpt><trkpt lat="45.1816793" lon="12.2650673"><ele>0.0</ele><time>2026-03-22T07:45:17.267Z</time></trkpt><trkpt lat="45.181622" lon="12.265222"><ele>0.0</ele><time>2026-03-22T07:45:19.269Z</time></trkpt><trkpt lat="45.181572" lon="12.2652785"><ele>0.0</ele><time>2026-03-22T07:45:20.273Z</time></trkpt><trkpt lat="45.1815105" lon="12.2653195"><ele>0.0</ele><time>2026-03-22T07:45:21.275Z</time></trkpt><trkpt lat="45.1814497" lon="12.2653487"><ele>0.0</ele><time>2026-03-22T07:45:22.271Z</time></trkpt><trkpt lat="45.1813784" lon="12.2653599"><ele>0.0</ele><time>2026-03-22T07:45:24.268Z</time></trkpt><trkpt lat="45.1812862" lon="12.2653561"><ele>0.0</ele><time>2026-03-22T07:45:53.278Z</time></trkpt><trkpt lat="45.1811691" lon="12.2652971"><ele>-0.4</ele><time>2026-03-22T07:45:55.277Z</time></trkpt><trkpt lat="45.1811134" lon="12.2652157"><ele>-0.8</ele><time>2026-03-22T07:45:56.274Z</time></trkpt><trkpt lat="45.181064" lon="12.2651106"><ele>-1.2000000000000002</ele><time>2026-03-22T07:45:57.275Z</time></trkpt><trkpt lat="45.1810147" lon="12.2649879"><ele>-1.6</ele><time>2026-03-22T07:45:58.27Z</time></trkpt><trkpt lat="45.1809625" lon="12.2648349"><ele>-2.0</ele><time>2026-03-22T07:45:59.286Z</time></trkpt><trkpt lat="45.1809032" lon="12.2646681"><ele>-2.0</ele><time>2026-03-22T07:46:00.275Z</time></trkpt><trkpt lat="45.1808425" lon="12.2645018"><ele>-2.0</ele><time>2026-03-22T07:46:01.284Z</time></trkpt><trkpt lat="45.180783" lon="12.264328"><ele>-2.0</ele><time>2026-03-22T07:46:02.281Z</time></trkpt><trkpt lat="45.1807228" lon="12.2641449"><ele>-2.0</ele><time>2026-03-22T07:46:03.281Z</time></trkpt><trkpt lat="45.1806574" lon="12.263953"><ele>-2.333333333333333</ele><time>2026-03-22T07:46:04.284Z</time></trkpt><trkpt lat="45.1805902" lon="12.2637457"><ele>-2.6666666666666665</ele><time>2026-03-22T07:46:05.283Z</time></trkpt><trkpt lat="45.1805181" lon="12.2635354"><ele>-3.0</ele><time>2026-03-22T07:46:06.277Z</time></trkpt><trkpt lat="45.1804391" lon="12.2633223"><ele>-3.0</ele><time>2026-03-22T07:46:07.282Z</time></trkpt><trkpt lat="45.1803642" lon="12.2631031"><ele>-3.0</ele><time>2026-03-22T07:46:08.283Z</time></trkpt><trkpt lat="45.1802847" lon="12.2628844"><ele>-3.0</ele><time>2026-03-22T07:46:09.283Z</time></trkpt><trkpt lat="45.1802079" lon="12.2626652"><ele>-3.0</ele><time>2026-03-22T07:46:10.287Z</time></trkpt><trkpt lat="45.1801225" lon="12.262447"><ele>-3.0</ele><time>2026-03-22T07:46:11.297Z</time></trkpt><trkpt lat="45.1800386" lon="12.2622314"><ele>-3.0</ele><time>2026-03-22T07:46:12.287Z</time></trkpt><trkpt lat="45.1799577" lon="12.2620102"><ele>-3.0</ele><time>2026-03-22T07:46:13.295Z</time></trkpt><trkpt lat="45.1798752" lon="12.2617967"><ele>-3.0</ele><time>2026-03-22T07:46:14.297Z</time></trkpt><trkpt lat="45.1797951" lon="12.2615782"><ele>-3.0</ele><time>2026-03-22T07:46:15.296Z</time></trkpt><trkpt lat="45.1797236" lon="12.2613614"><ele>-3.0</ele><time>2026-03-22T07:46:16.297Z</time></trkpt><trkpt lat="45.1796498" lon="12.2611566"><ele>-3.0</ele><time>2026-03-22T07:46:17.289Z</time></trkpt><trkpt lat="45.1795786" lon="12.2609533"><ele>-3.0</ele><time>2026-03-22T07:46:18.297Z</time></trkpt><trkpt lat="45.1795005" lon="12.2607571"><ele>-2.6666666666666665</ele><time>2026-03-22T07:46:19.292Z</time></trkpt><trkpt lat="45.1794269" lon="12.2605623"><ele>-2.333333333333333</ele><time>2026-03-22T07:46:20.29Z</time></trkpt><trkpt lat="45.1793543" lon="12.2603533"><ele>-2.0</ele><time>2026-03-22T07:46:21.291Z</time></trkpt><trkpt lat="45.179278" lon="12.2601366"><ele>-2.0</ele><time>2026-03-22T07:46:22.298Z</time></trkpt><trkpt lat="45.1791893" lon="12.2599233"><ele>-2.0</ele><time>2026-03-22T07:46:23.29Z</time></trkpt><trkpt lat="45.179098" lon="12.25973"><ele>-2.0</ele><time>2026-03-22T07:46:24.289Z</time></trkpt><trkpt lat="45.1790065" lon="12.2595541"><ele>-2.0</ele><time>2026-03-22T07:46:25.285Z</time></trkpt><trkpt lat="45.1789063" lon="12.2593871"><ele>-2.0</ele><time>2026-03-22T07:46:26.293Z</time></trkpt><trkpt lat="45.1787954" lon="12.2592471"><ele>-2.0</ele><time>2026-03-22T07:46:27.292Z</time></trkpt><trkpt lat="45.1786806" lon="12.2591173"><ele>-2.0</ele><time>2026-03-22T07:46:28.291Z</time></trkpt><trkpt lat="45.1785659" lon="12.2589896"><ele>-2.0</ele><time>2026-03-22T07:46:29.298Z</time></trkpt><trkpt lat="45.1784453" lon="12.258871"><ele>-2.0</ele><time>2026-03-22T07:46:30.288Z</time></trkpt><trkpt lat="45.1783235" lon="12.2587534"><ele>-2.0</ele><time>2026-03-22T07:46:31.3Z</time></trkpt><trkpt lat="45.1781891" lon="12.258643"><ele>-1.6666666666666665</ele><time>2026-03-22T07:46:32.288Z</time></trkpt><trkpt lat="45.1780612" lon="12.2585312"><ele>-1.3333333333333333</ele><time>2026-03-22T07:46:33.298Z</time></trkpt><trkpt lat="45.1779288" lon="12.2584164"><ele>-1.0</ele><time>2026-03-22T07:46:34.295Z</time></trkpt><trkpt lat="45.1777919" lon="12.2583042"><ele>-1.0</ele><time>2026-03-22T07:46:35.297Z</time></trkpt><trkpt lat="45.1776638" lon="12.2581884"><ele>-1.0</ele><time>2026-03-22T07:46:36.287Z</time></trkpt><trkpt lat="45.1775409" lon="12.2580945"><ele>-1.0</ele><time>2026-03-22T07:46:37.29Z</time></trkpt><trkpt lat="45.177434" lon="12.2580008"><ele>-1.0</ele><time>2026-03-22T07:46:38.288Z</time></trkpt><trkpt lat="45.1773281" lon="12.2579091"><ele>-1.6</ele><time>2026-03-22T07:46:39.289Z</time></trkpt><trkpt lat="45.1772293" lon="12.2578133"><ele>-2.2</ele><time>2026-03-22T07:46:40.286Z</time></trkpt><trkpt lat="45.1771374" lon="12.2577287"><ele>-2.8000000000000003</ele><time>2026-03-22T07:46:41.287Z</time></trkpt><trkpt lat="45.1770465" lon="12.2576457"><ele>-3.4000000000000004</ele><time>2026-03-22T07:46:42.291Z</time></trkpt><trkpt lat="45.1769562" lon="12.2575666"><ele>-4.0</ele><time>2026-03-22T07:46:43.282Z</time></trkpt><trkpt lat="45.1768599" lon="12.2574781"><ele>-4.0</ele><time>2026-03-22T07:46:44.29Z</time></trkpt><trkpt lat="45.176762" lon="12.2573916"><ele>-4.0</ele><time>2026-03-22T07:46:45.291Z</time></trkpt><trkpt lat="45.1766575" lon="12.2573031"><ele>-4.0</ele><time>2026-03-22T07:46:46.295Z</time></trkpt><trkpt lat="45.176549" lon="12.2572118"><ele>-4.0</ele><time>2026-03-22T07:46:47.301Z</time></trkpt><trkpt lat="45.1764357" lon="12.2571109"><ele>-3.0</ele><time>2026-03-22T07:46:48.288Z</time></trkpt><trkpt lat="45.176313" lon="12.2570001"><ele>-2.0</ele><time>2026-03-22T07:46:49.297Z</time></trkpt><trkpt lat="45.176169" lon="12.2568906"><ele>-1.0</ele><time>2026-03-22T07:46:50.295Z</time></trkpt><trkpt lat="45.1760245" lon="12.2567721"><ele>-1.0</ele><time>2026-03-22T07:46:51.295Z</time></trkpt><trkpt lat="45.1758854" lon="12.2566558"><ele>-1.0</ele><time>2026-03-22T07:46:52.294Z</time></trkpt><trkpt lat="45.175747" lon="12.2565386"><ele>-1.0</ele><time>2026-03-22T07:46:53.298Z</time></trkpt><trkpt lat="45.1756084" lon="12.2564222"><ele>-1.6666666666666665</ele><time>2026-03-22T07:46:54.297Z</time></trkpt><trkpt lat="45.1754704" lon="12.2562999"><ele>-2.3333333333333335</ele><time>2026-03-22T07:46:55.288Z</time></trkpt><trkpt lat="45.1753288" lon="12.2561742"><ele>-3.0</ele><time>2026-03-22T07:46:56.288Z</time></trkpt><trkpt lat="45.1751838" lon="12.2560423"><ele>-3.0</ele><time>2026-03-22T07:46:57.303Z</time></trkpt><trkpt lat="45.1750374" lon="12.2559185"><ele>-3.0</ele><time>2026-03-22T07:46:58.289Z</time></trkpt><trkpt lat="45.1748945" lon="12.2558086"><ele>-3.0</ele><time>2026-03-22T07:46:59.295Z</time></trkpt><trkpt lat="45.1747583" lon="12.2556948"><ele>-2.0</ele><time>2026-03-22T07:47:00.291Z</time></trkpt><trkpt lat="45.174619" lon="12.2555828"><ele>-1.0</ele><time>2026-03-22T07:47:01.291Z</time></trkpt><trkpt lat="45.1744773" lon="12.2554678"><ele>0.0</ele><time>2026-03-22T07:47:02.298Z</time></trkpt><trkpt lat="45.1743314" lon="12.2553476"><ele>0.0</ele><time>2026-03-22T07:47:03.291Z</time></trkpt><trkpt lat="45.1741869" lon="12.2552162"><ele>0.0</ele><time>2026-03-22T07:47:04.298Z</time></trkpt><trkpt lat="45.1740402" lon="12.2550838"><ele>0.0</ele><time>2026-03-22T07:47:05.302Z</time></trkpt><trkpt lat="45.173892" lon="12.2549541"><ele>-0.3333333333333333</ele><time>2026-03-22T07:47:06.297Z</time></trkpt><trkpt lat="45.1737321" lon="12.2548215"><ele>-0.6666666666666666</ele><time>2026-03-22T07:47:07.292Z</time></trkpt><trkpt lat="45.1735747" lon="12.2546932"><ele>-1.0</ele><time>2026-03-22T07:47:08.295Z</time></trkpt><trkpt lat="45.1734207" lon="12.2545646"><ele>-1.3333333333333333</ele><time>2026-03-22T07:47:09.292Z</time></trkpt><trkpt lat="45.1732699" lon="12.254435"><ele>-1.6666666666666665</ele><time>2026-03-22T07:47:10.295Z</time></trkpt><trkpt lat="45.1731137" lon="12.2543052"><ele>-2.0</ele><time>2026-03-22T07:47:11.3Z</time></trkpt><trkpt lat="45.1729589" lon="12.2541727"><ele>-2.0</ele><time>2026-03-22T07:47:12.293Z</time></trkpt><trkpt lat="45.1728131" lon="12.2540403"><ele>-2.0</ele><time>2026-03-22T07:47:13.297Z</time></trkpt><trkpt lat="45.1726737" lon="12.2539257"><ele>-2.0</ele><time>2026-03-22T07:47:14.295Z</time></trkpt><trkpt lat="45.1725374" lon="12.2538084"><ele>-2.0</ele><time>2026-03-22T07:47:15.3Z</time></trkpt><trkpt lat="45.1724081" lon="12.2536961"><ele>-2.0</ele><time>2026-03-22T07:47:16.298Z</time></trkpt><trkpt lat="45.1722879" lon="12.2535827"><ele>-2.0</ele><time>2026-03-22T07:47:17.304Z</time></trkpt><trkpt lat="45.1721746" lon="12.2534789"><ele>-2.0</ele><time>2026-03-22T07:47:18.299Z</time></trkpt><trkpt lat="45.1720609" lon="12.2533718"><ele>-2.0</ele><time>2026-03-22T07:47:19.297Z</time></trkpt><trkpt lat="45.1719463" lon="12.2532529"><ele>-2.0</ele><time>2026-03-22T07:47:20.296Z</time></trkpt><trkpt lat="45.1718381" lon="12.2531327"><ele>-2.0</ele><time>2026-03-22T07:47:21.3Z</time></trkpt><trkpt lat="45.1717324" lon="12.2530135"><ele>-2.0</ele><time>2026-03-22T07:47:22.303Z</time></trkpt><trkpt lat="45.1716366" lon="12.2528834"><ele>-2.0</ele><time>2026-03-22T07:47:23.294Z</time></trkpt><trkpt lat="45.1715412" lon="12.252747"><ele>-2.0</ele><time>2026-03-22T07:47:24.295Z</time></trkpt><trkpt lat="45.1714499" lon="12.2525863"><ele>-2.0</ele><time>2026-03-22T07:47:25.294Z</time></trkpt><trkpt lat="45.171355" lon="12.2524141"><ele>-2.0</ele><time>2026-03-22T07:47:26.294Z</time></trkpt><trkpt lat="45.1712625" lon="12.2522213"><ele>-2.0</ele><time>2026-03-22T07:47:27.295Z</time></trkpt><trkpt lat="45.1711735" lon="12.2520207"><ele>-2.0</ele><time>2026-03-22T07:47:28.298Z</time></trkpt><trkpt lat="45.1710822" lon="12.2518196"><ele>-2.0</ele><time>2026-03-22T07:47:29.291Z</time></trkpt><trkpt lat="45.170993" lon="12.2516041"><ele>-1.6666666666666665</ele><time>2026-03-22T07:47:30.301Z</time></trkpt><trkpt lat="45.170895" lon="12.2513898"><ele>-1.3333333333333333</ele><time>2026-03-22T07:47:31.301Z</time></trkpt><trkpt lat="45.1708033" lon="12.2511796"><ele>-1.0</ele><time>2026-03-22T07:47:32.299Z</time></trkpt><trkpt lat="45.1707113" lon="12.2509573"><ele>-1.3333333333333333</ele><time>2026-03-22T07:47:33.299Z</time></trkpt><trkpt lat="45.1706166" lon="12.250735"><ele>-1.6666666666666665</ele><time>2026-03-22T07:47:34.3Z</time></trkpt><trkpt lat="45.1705127" lon="12.2505111"><ele>-2.0</ele><time>2026-03-22T07:47:35.301Z</time></trkpt><trkpt lat="45.1704159" lon="12.2503005"><ele>-1.6666666666666665</ele><time>2026-03-22T07:47:36.302Z</time></trkpt><trkpt lat="45.1703224" lon="12.2500981"><ele>-1.3333333333333333</ele><time>2026-03-22T07:47:37.297Z</time></trkpt><trkpt lat="45.1702276" lon="12.249892"><ele>-1.0</ele><time>2026-03-22T07:47:38.299Z</time></trkpt><trkpt lat="45.1701398" lon="12.2496839"><ele>-1.0</ele><time>2026-03-22T07:47:39.303Z</time></trkpt><trkpt lat="45.1700494" lon="12.2494712"><ele>-1.0</ele><time>2026-03-22T07:47:40.294Z</time></trkpt><trkpt lat="45.1699497" lon="12.2492633"><ele>-1.0</ele><time>2026-03-22T07:47:41.299Z</time></trkpt><trkpt lat="45.1698536" lon="12.2490486"><ele>-1.6666666666666665</ele><time>2026-03-22T07:47:42.295Z</time></trkpt><trkpt lat="45.1697582" lon="12.2488395"><ele>-2.3333333333333335</ele><time>2026-03-22T07:47:43.298Z</time></trkpt><trkpt lat="45.1696602" lon="12.2486248"><ele>-3.0</ele><time>2026-03-22T07:47:44.293Z</time></trkpt><trkpt lat="45.1695597" lon="12.2484146"><ele>-3.0</ele><time>2026-03-22T07:47:45.301Z</time></trkpt><trkpt lat="45.1694688" lon="12.2482013"><ele>-3.0</ele><time>2026-03-22T07:47:46.295Z</time></trkpt><trkpt lat="45.1693774" lon="12.2479904"><ele>-3.0</ele><time>2026-03-22T07:47:47.298Z</time></trkpt><trkpt lat="45.1692814" lon="12.2477712"><ele>-2.3333333333333335</ele><time>2026-03-22T07:47:48.301Z</time></trkpt><trkpt lat="45.1691797" lon="12.2475561"><ele>-1.6666666666666665</ele><time>2026-03-22T07:47:49.297Z</time></trkpt><trkpt lat="45.1690776" lon="12.2473432"><ele>-1.0</ele><time>2026-03-22T07:47:50.304Z</time></trkpt><trkpt lat="45.1689819" lon="12.2471273"><ele>-0.6666666666666666</ele><time>2026-03-22T07:47:51.296Z</time></trkpt><trkpt lat="45.1688825" lon="12.2469135"><ele>-0.3333333333333333</ele><time>2026-03-22T07:47:52.305Z</time></trkpt><trkpt lat="45.1687854" lon="12.2466895"><ele>0.0</ele><time>2026-03-22T07:47:53.294Z</time></trkpt><trkpt lat="45.168686" lon="12.2464797"><ele>-0.3333333333333333</ele><time>2026-03-22T07:47:54.291Z</time></trkpt><trkpt lat="45.1685972" lon="12.2462796"><ele>-0.6666666666666666</ele><time>2026-03-22T07:47:55.295Z</time></trkpt><trkpt lat="45.1685114" lon="12.2460859"><ele>-1.0</ele><time>2026-03-22T07:47:56.303Z</time></trkpt><trkpt lat="45.1684334" lon="12.245887"><ele>-1.0</ele><time>2026-03-22T07:47:57.295Z</time></trkpt><trkpt lat="45.1683463" lon="12.2456978"><ele>-1.0</ele><time>2026-03-22T07:47:58.299Z</time></trkpt><trkpt lat="45.1682702" lon="12.2455195"><ele>-1.0</ele><time>2026-03-22T07:47:59.297Z</time></trkpt><trkpt lat="45.1682002" lon="12.2453465"><ele>-1.0</ele><time>2026-03-22T07:48:00.297Z</time></trkpt><trkpt lat="45.1681204" lon="12.2451669"><ele>-0.75</ele><time>2026-03-22T07:48:01.298Z</time></trkpt><trkpt lat="45.1680442" lon="12.2449977"><ele>-0.5</ele><time>2026-03-22T07:48:02.291Z</time></trkpt><trkpt lat="45.1679731" lon="12.2448334"><ele>-0.25</ele><time>2026-03-22T07:48:03.295Z</time></trkpt><trkpt lat="45.1679038" lon="12.2446767"><ele>0.0</ele><time>2026-03-22T07:48:04.297Z</time></trkpt><trkpt lat="45.1678305" lon="12.2445142"><ele>0.0</ele><time>2026-03-22T07:48:05.294Z</time></trkpt><trkpt lat="45.1677485" lon="12.2443495"><ele>0.0</ele><time>2026-03-22T07:48:06.295Z</time></trkpt><trkpt lat="45.1676678" lon="12.2441801"><ele>0.0</ele><time>2026-03-22T07:48:07.302Z</time></trkpt><trkpt lat="45.1675936" lon="12.2440045"><ele>0.0</ele><time>2026-03-22T07:48:08.294Z</time></trkpt><trkpt lat="45.1675269" lon="12.2438408"><ele>-0.25</ele><time>2026-03-22T07:48:09.298Z</time></trkpt><trkpt lat="45.1674612" lon="12.2436892"><ele>-0.5</ele><time>2026-03-22T07:48:10.294Z</time></trkpt><trkpt lat="45.1673984" lon="12.2435482"><ele>-0.75</ele><time>2026-03-22T07:48:11.298Z</time></trkpt><trkpt lat="45.1673373" lon="12.2434169"><ele>-1.0</ele><time>2026-03-22T07:48:12.295Z</time></trkpt><trkpt lat="45.1672799" lon="12.2432827"><ele>-1.0</ele><time>2026-03-22T07:48:13.299Z</time></trkpt><trkpt lat="45.1672116" lon="12.2431402"><ele>-1.0</ele><time>2026-03-22T07:48:14.295Z</time></trkpt><trkpt lat="45.167143" lon="12.2429751"><ele>-1.0</ele><time>2026-03-22T07:48:15.295Z</time></trkpt><trkpt lat="45.1670695" lon="12.2428136"><ele>-1.0</ele><time>2026-03-22T07:48:16.296Z</time></trkpt><trkpt lat="45.1669953" lon="12.2426551"><ele>-1.0</ele><time>2026-03-22T07:48:17.295Z</time></trkpt><trkpt lat="45.1669205" lon="12.2424945"><ele>-1.0</ele><time>2026-03-22T07:48:18.293Z</time></trkpt><trkpt lat="45.1668485" lon="12.2423288"><ele>-1.0</ele><time>2026-03-22T07:48:19.306Z</time></trkpt><trkpt lat="45.1667743" lon="12.2421725"><ele>-1.0</ele><time>2026-03-22T07:48:20.298Z</time></trkpt><trkpt lat="45.166703" lon="12.241999"><ele>-1.0</ele><time>2026-03-22T07:48:21.299Z</time></trkpt><trkpt lat="45.1666318" lon="12.2418416"><ele>-1.0</ele><time>2026-03-22T07:48:22.296Z</time></trkpt><trkpt lat="45.1665725" lon="12.2416875"><ele>-1.0</ele><time>2026-03-22T07:48:23.297Z</time></trkpt><trkpt lat="45.1665194" lon="12.2415255"><ele>-1.0</ele><time>2026-03-22T07:48:24.292Z</time></trkpt><trkpt lat="45.1664845" lon="12.241355"><ele>-1.0</ele><time>2026-03-22T07:48:25.289Z</time></trkpt><trkpt lat="45.1664681" lon="12.2411791"><ele>-1.0</ele><time>2026-03-22T07:48:26.292Z</time></trkpt><trkpt lat="45.1664512" lon="12.2410031"><ele>-1.0</ele><time>2026-03-22T07:48:27.298Z</time></trkpt><trkpt lat="45.1664343" lon="12.2408177"><ele>-1.0</ele><time>2026-03-22T07:48:28.301Z</time></trkpt><trkpt lat="45.1664169" lon="12.2406322"><ele>-1.25</ele><time>2026-03-22T07:48:29.309Z</time></trkpt><trkpt lat="45.1664043" lon="12.2404607"><ele>-1.5</ele><time>2026-03-22T07:48:30.301Z</time></trkpt><trkpt lat="45.1663922" lon="12.2403022"><ele>-1.75</ele><time>2026-03-22T07:48:31.296Z</time></trkpt><trkpt lat="45.166381" lon="12.2401463"><ele>-2.0</ele><time>2026-03-22T07:48:32.299Z</time></trkpt><trkpt lat="45.1663727" lon="12.2399951"><ele>-2.0</ele><time>2026-03-22T07:48:33.305Z</time></trkpt><trkpt lat="45.1663643" lon="12.239857"><ele>-2.0</ele><time>2026-03-22T07:48:34.303Z</time></trkpt><trkpt lat="45.1663637" lon="12.2397242"><ele>-2.0</ele><time>2026-03-22T07:48:35.296Z</time></trkpt><trkpt lat="45.1663626" lon="12.2395815"><ele>-2.0</ele><time>2026-03-22T07:48:36.304Z</time></trkpt><trkpt lat="45.1663567" lon="12.2394268"><ele>-2.0</ele><time>2026-03-22T07:48:37.295Z</time></trkpt><trkpt lat="45.1663453" lon="12.2392519"><ele>-2.25</ele><time>2026-03-22T07:48:38.294Z</time></trkpt><trkpt lat="45.1663333" lon="12.2390605"><ele>-2.5</ele><time>2026-03-22T07:48:39.301Z</time></trkpt><trkpt lat="45.1663176" lon="12.2388574"><ele>-2.75</ele><time>2026-03-22T07:48:40.296Z</time></trkpt><trkpt lat="45.1663022" lon="12.2386521"><ele>-3.0</ele><time>2026-03-22T07:48:41.304Z</time></trkpt><trkpt lat="45.1662879" lon="12.2384542"><ele>-3.0</ele><time>2026-03-22T07:48:42.301Z</time></trkpt><trkpt lat="45.1662749" lon="12.2382644"><ele>-3.0</ele><time>2026-03-22T07:48:43.301Z</time></trkpt><trkpt lat="45.1662612" lon="12.2380984"><ele>-3.0</ele><time>2026-03-22T07:48:44.295Z</time></trkpt><trkpt lat="45.1662508" lon="12.2379346"><ele>-3.0</ele><time>2026-03-22T07:48:45.303Z</time></trkpt><trkpt lat="45.1662369" lon="12.2377715"><ele>-3.0</ele><time>2026-03-22T07:48:46.299Z</time></trkpt><trkpt lat="45.1662256" lon="12.2375869"><ele>-3.0</ele><time>2026-03-22T07:48:47.294Z</time></trkpt><trkpt lat="45.1662109" lon="12.2373949"><ele>-3.0</ele><time>2026-03-22T07:48:48.301Z</time></trkpt><trkpt lat="45.1661958" lon="12.2372019"><ele>-3.0</ele><time>2026-03-22T07:48:49.3Z</time></trkpt><trkpt lat="45.1661815" lon="12.2370087"><ele>-3.0</ele><time>2026-03-22T07:48:50.307Z</time></trkpt><trkpt lat="45.1661667" lon="12.2368165"><ele>-3.0</ele><time>2026-03-22T07:48:51.306Z</time></trkpt><trkpt lat="45.1661494" lon="12.2366185"><ele>-3.0</ele><time>2026-03-22T07:48:52.296Z</time></trkpt><trkpt lat="45.1661374" lon="12.2364044"><ele>-3.0</ele><time>2026-03-22T07:48:53.298Z</time></trkpt><trkpt lat="45.1661242" lon="12.236195"><ele>-2.5</ele><time>2026-03-22T07:48:54.298Z</time></trkpt><trkpt lat="45.16611" lon="12.2359947"><ele>-2.0</ele><time>2026-03-22T07:48:55.293Z</time></trkpt><trkpt lat="45.1661041" lon="12.2357903"><ele>-1.5</ele><time>2026-03-22T07:48:56.296Z</time></trkpt><trkpt lat="45.1661054" lon="12.23559"><ele>-1.0</ele><time>2026-03-22T07:48:57.29Z</time></trkpt><trkpt lat="45.1661211" lon="12.2353895"><ele>-1.0</ele><time>2026-03-22T07:48:58.291Z</time></trkpt><trkpt lat="45.166145" lon="12.2352004"><ele>-1.0</ele><time>2026-03-22T07:48:59.292Z</time></trkpt><trkpt lat="45.1661748" lon="12.235026"><ele>-1.0</ele><time>2026-03-22T07:49:00.302Z</time></trkpt><trkpt lat="45.1661941" lon="12.2348677"><ele>-1.0</ele><time>2026-03-22T07:49:01.301Z</time></trkpt><trkpt lat="45.1662149" lon="12.2347119"><ele>-1.0</ele><time>2026-03-22T07:49:02.294Z</time></trkpt><trkpt lat="45.1662426" lon="12.2345622"><ele>-1.0</ele><time>2026-03-22T07:49:03.303Z</time></trkpt><trkpt lat="45.1662683" lon="12.2344214"><ele>-1.0</ele><time>2026-03-22T07:49:04.295Z</time></trkpt><trkpt lat="45.1662941" lon="12.2342897"><ele>-1.0</ele><time>2026-03-22T07:49:05.291Z</time></trkpt><trkpt lat="45.1663197" lon="12.2341653"><ele>-1.0</ele><time>2026-03-22T07:49:06.286Z</time></trkpt><trkpt lat="45.1663512" lon="12.2340613"><ele>-1.0</ele><time>2026-03-22T07:49:07.291Z</time></trkpt><trkpt lat="45.1663712" lon="12.2339749"><ele>-1.0</ele><time>2026-03-22T07:49:08.298Z</time></trkpt><trkpt lat="45.166408" lon="12.2338421"><ele>-1.0</ele><time>2026-03-22T07:49:10.29Z</time></trkpt><trkpt lat="45.1664421" lon="12.2336821"><ele>-1.0</ele><time>2026-03-22T07:49:12.291Z</time></trkpt><trkpt lat="45.1664504" lon="12.2335617"><ele>-1.0</ele><time>2026-03-22T07:49:13.297Z</time></trkpt><trkpt lat="45.166445" lon="12.2334039"><ele>-1.0</ele><time>2026-03-22T07:49:14.294Z</time></trkpt><trkpt lat="45.1664264" lon="12.2332093"><ele>-1.0</ele><time>2026-03-22T07:49:15.297Z</time></trkpt><trkpt lat="45.1663826" lon="12.2329852"><ele>-1.0</ele><time>2026-03-22T07:49:16.295Z</time></trkpt><trkpt lat="45.1662957" lon="12.2327213"><ele>-1.0</ele><time>2026-03-22T07:49:17.284Z</time></trkpt><trkpt lat="45.1661788" lon="12.2324603"><ele>-1.0</ele><time>2026-03-22T07:49:18.291Z</time></trkpt><trkpt lat="45.1660592" lon="12.2321901"><ele>-1.0</ele><time>2026-03-22T07:49:19.29Z</time></trkpt><trkpt lat="45.1659479" lon="12.231924"><ele>-1.0</ele><time>2026-03-22T07:49:20.292Z</time></trkpt><trkpt lat="45.165823" lon="12.2316477"><ele>-1.0</ele><time>2026-03-22T07:49:21.294Z</time></trkpt><trkpt lat="45.165691" lon="12.2313727"><ele>-0.5</ele><time>2026-03-22T07:49:22.294Z</time></trkpt><trkpt lat="45.1655601" lon="12.2310891"><ele>0.0</ele><time>2026-03-22T07:49:23.296Z</time></trkpt><trkpt lat="45.1654273" lon="12.2308006"><ele>0.0</ele><time>2026-03-22T07:49:24.3Z</time></trkpt><trkpt lat="45.1652969" lon="12.2305159"><ele>0.0</ele><time>2026-03-22T07:49:25.301Z</time></trkpt><trkpt lat="45.1651658" lon="12.2302441"><ele>0.0</ele><time>2026-03-22T07:49:26.301Z</time></trkpt><trkpt lat="45.1650309" lon="12.2299853"><ele>0.0</ele><time>2026-03-22T07:49:27.298Z</time></trkpt><trkpt lat="45.1649015" lon="12.229713"><ele>-0.3333333333333333</ele><time>2026-03-22T07:49:28.299Z</time></trkpt><trkpt lat="45.1647761" lon="12.2294509"><ele>-0.6666666666666666</ele><time>2026-03-22T07:49:29.299Z</time></trkpt><trkpt lat="45.1646567" lon="12.2291921"><ele>-1.0</ele><time>2026-03-22T07:49:30.301Z</time></trkpt><trkpt lat="45.1645374" lon="12.2289298"><ele>-1.3333333333333333</ele><time>2026-03-22T07:49:31.302Z</time></trkpt><trkpt lat="45.1644171" lon="12.2286753"><ele>-1.6666666666666665</ele><time>2026-03-22T07:49:32.295Z</time></trkpt><trkpt lat="45.1642988" lon="12.2284311"><ele>-2.0</ele><time>2026-03-22T07:49:33.302Z</time></trkpt><trkpt lat="45.1641846" lon="12.2281733"><ele>-2.0</ele><time>2026-03-22T07:49:34.296Z</time></trkpt><trkpt lat="45.164069" lon="12.2279214"><ele>-2.0</ele><time>2026-03-22T07:49:35.295Z</time></trkpt><trkpt lat="45.1639547" lon="12.2276673"><ele>-2.0</ele><time>2026-03-22T07:49:36.296Z</time></trkpt><trkpt lat="45.1638309" lon="12.227421"><ele>-1.6666666666666665</ele><time>2026-03-22T07:49:37.294Z</time></trkpt><trkpt lat="45.1637135" lon="12.2271752"><ele>-1.3333333333333333</ele><time>2026-03-22T07:49:38.299Z</time></trkpt><trkpt lat="45.163592" lon="12.2269213"><ele>-1.0</ele><time>2026-03-22T07:49:39.295Z</time></trkpt><trkpt lat="45.1634761" lon="12.2266692"><ele>-1.3333333333333333</ele><time>2026-03-22T07:49:40.299Z</time></trkpt><trkpt lat="45.1633634" lon="12.2264281"><ele>-1.6666666666666665</ele><time>2026-03-22T07:49:41.296Z</time></trkpt><trkpt lat="45.1632462" lon="12.2261912"><ele>-2.0</ele><time>2026-03-22T07:49:42.296Z</time></trkpt><trkpt lat="45.1631289" lon="12.2259398"><ele>-2.0</ele><time>2026-03-22T07:49:43.303Z</time></trkpt><trkpt lat="45.163006" lon="12.2256815"><ele>-2.0</ele><time>2026-03-22T07:49:44.301Z</time></trkpt><trkpt lat="45.1628832" lon="12.2254202"><ele>-2.0</ele><time>2026-03-22T07:49:45.299Z</time></trkpt><trkpt lat="45.1627583" lon="12.2251595"><ele>-2.0</ele><time>2026-03-22T07:49:46.299Z</time></trkpt><trkpt lat="45.1626282" lon="12.224892"><ele>-2.0</ele><time>2026-03-22T07:49:47.3Z</time></trkpt><trkpt lat="45.1625004" lon="12.2246178"><ele>-2.0</ele><time>2026-03-22T07:49:48.296Z</time></trkpt><trkpt lat="45.1623712" lon="12.2243411"><ele>-2.0</ele><time>2026-03-22T07:49:49.292Z</time></trkpt><trkpt lat="45.1622383" lon="12.2240599"><ele>-2.0</ele><time>2026-03-22T07:49:50.299Z</time></trkpt><trkpt lat="45.1621019" lon="12.2237814"><ele>-2.0</ele><time>2026-03-22T07:49:51.303Z</time></trkpt><trkpt lat="45.1619699" lon="12.2235099"><ele>-2.0</ele><time>2026-03-22T07:49:52.297Z</time></trkpt><trkpt lat="45.1618442" lon="12.2232483"><ele>-2.0</ele><time>2026-03-22T07:49:53.3Z</time></trkpt><trkpt lat="45.1617278" lon="12.2229957"><ele>-2.0</ele><time>2026-03-22T07:49:54.295Z</time></trkpt><trkpt lat="45.1616055" lon="12.2227472"><ele>-2.0</ele><time>2026-03-22T07:49:55.3Z</time></trkpt><trkpt lat="45.1614893" lon="12.2225021"><ele>-2.0</ele><time>2026-03-22T07:49:56.295Z</time></trkpt><trkpt lat="45.1613711" lon="12.2222625"><ele>-2.0</ele><time>2026-03-22T07:49:57.297Z</time></trkpt><trkpt lat="45.1612576" lon="12.2220074"><ele>-2.0</ele><time>2026-03-22T07:49:58.301Z</time></trkpt><trkpt lat="45.1611375" lon="12.221752"><ele>-2.0</ele><time>2026-03-22T07:49:59.302Z</time></trkpt><trkpt lat="45.1610224" lon="12.2214971"><ele>-2.0</ele><time>2026-03-22T07:50:00.295Z</time></trkpt><trkpt lat="45.1608994" lon="12.2212458"><ele>-2.0</ele><time>2026-03-22T07:50:01.303Z</time></trkpt><trkpt lat="45.160776" lon="12.2209974"><ele>-2.0</ele><time>2026-03-22T07:50:02.296Z</time></trkpt><trkpt lat="45.1606508" lon="12.2207548"><ele>-2.0</ele><time>2026-03-22T07:50:03.299Z</time></trkpt><trkpt lat="45.1605297" lon="12.2205146"><ele>-2.0</ele><time>2026-03-22T07:50:04.294Z</time></trkpt><trkpt lat="45.1604128" lon="12.2202671"><ele>-2.0</ele><time>2026-03-22T07:50:05.294Z</time></trkpt><trkpt lat="45.1602979" lon="12.2200136"><ele>-2.0</ele><time>2026-03-22T07:50:06.299Z</time></trkpt><trkpt lat="45.1601809" lon="12.2197535"><ele>-2.0</ele><time>2026-03-22T07:50:07.29Z</time></trkpt><trkpt lat="45.1600629" lon="12.2194938"><ele>-2.0</ele><time>2026-03-22T07:50:08.298Z</time></trkpt><trkpt lat="45.1599417" lon="12.2192325"><ele>-2.0</ele><time>2026-03-22T07:50:09.297Z</time></trkpt><trkpt lat="45.1598216" lon="12.2189812"><ele>-2.0</ele><time>2026-03-22T07:50:10.296Z</time></trkpt><trkpt lat="45.1596957" lon="12.2187313"><ele>-2.0</ele><time>2026-03-22T07:50:11.293Z</time></trkpt><trkpt lat="45.1595745" lon="12.218468"><ele>-2.0</ele><time>2026-03-22T07:50:12.296Z</time></trkpt><trkpt lat="45.1594473" lon="12.2182028"><ele>-2.0</ele><time>2026-03-22T07:50:13.291Z</time></trkpt><trkpt lat="45.1593238" lon="12.21794"><ele>-2.0</ele><time>2026-03-22T07:50:14.297Z</time></trkpt><trkpt lat="45.1592002" lon="12.2176799"><ele>-2.0</ele><time>2026-03-22T07:50:15.298Z</time></trkpt><trkpt lat="45.1590749" lon="12.2174143"><ele>-2.0</ele><time>2026-03-22T07:50:16.294Z</time></trkpt><trkpt lat="45.1589496" lon="12.2171434"><ele>-2.0</ele><time>2026-03-22T07:50:17.299Z</time></trkpt><trkpt lat="45.1588186" lon="12.2168702"><ele>-2.0</ele><time>2026-03-22T07:50:18.299Z</time></trkpt><trkpt lat="45.1586918" lon="12.216595"><ele>-2.0</ele><time>2026-03-22T07:50:19.301Z</time></trkpt><trkpt lat="45.1585621" lon="12.2163272"><ele>-2.0</ele><time>2026-03-22T07:50:20.293Z</time></trkpt><trkpt lat="45.1584379" lon="12.2160572"><ele>-2.0</ele><time>2026-03-22T07:50:21.301Z</time></trkpt><trkpt lat="45.1583167" lon="12.215784"><ele>-1.0</ele><time>2026-03-22T07:50:22.303Z</time></trkpt><trkpt lat="45.1581924" lon="12.2155097"><ele>0.0</ele><time>2026-03-22T07:50:23.298Z</time></trkpt><trkpt lat="45.158064" lon="12.2152422"><ele>0.0</ele><time>2026-03-22T07:50:24.296Z</time></trkpt><trkpt lat="45.1579421" lon="12.2149805"><ele>0.0</ele><time>2026-03-22T07:50:25.297Z</time></trkpt><trkpt lat="45.1578288" lon="12.2147317"><ele>0.0</ele><time>2026-03-22T07:50:26.297Z</time></trkpt><trkpt lat="45.1577174" lon="12.214486"><ele>-0.3333333333333333</ele><time>2026-03-22T07:50:27.3Z</time></trkpt><trkpt lat="45.1576015" lon="12.2142458"><ele>-0.6666666666666666</ele><time>2026-03-22T07:50:28.301Z</time></trkpt><trkpt lat="45.1574894" lon="12.2139962"><ele>-1.0</ele><time>2026-03-22T07:50:29.299Z</time></trkpt><trkpt lat="45.1573751" lon="12.2137444"><ele>-1.0</ele><time>2026-03-22T07:50:30.295Z</time></trkpt><trkpt lat="45.1572646" lon="12.2134821"><ele>-1.0</ele><time>2026-03-22T07:50:31.298Z</time></trkpt><trkpt lat="45.1571508" lon="12.2132202"><ele>-1.0</ele><time>2026-03-22T07:50:32.296Z</time></trkpt><trkpt lat="45.1570367" lon="12.2129638"><ele>-1.3333333333333333</ele><time>2026-03-22T07:50:33.305Z</time></trkpt><trkpt lat="45.156923" lon="12.2127007"><ele>-1.6666666666666665</ele><time>2026-03-22T07:50:34.293Z</time></trkpt><trkpt lat="45.1568104" lon="12.2124387"><ele>-2.0</ele><time>2026-03-22T07:50:35.303Z</time></trkpt><trkpt lat="45.1566975" lon="12.2121754"><ele>-2.0</ele><time>2026-03-22T07:50:36.293Z</time></trkpt><trkpt lat="45.1565873" lon="12.2119204"><ele>-2.0</ele><time>2026-03-22T07:50:37.292Z</time></trkpt><trkpt lat="45.1564866" lon="12.2116868"><ele>-2.0</ele><time>2026-03-22T07:50:38.289Z</time></trkpt><trkpt lat="45.1563941" lon="12.2114596"><ele>-2.0</ele><time>2026-03-22T07:50:39.297Z</time></trkpt><trkpt lat="45.1563032" lon="12.2112633"><ele>-2.0</ele><time>2026-03-22T07:50:40.291Z</time></trkpt><trkpt lat="45.1562243" lon="12.2110883"><ele>-2.0</ele><time>2026-03-22T07:50:41.293Z</time></trkpt><trkpt lat="45.1561582" lon="12.2109514"><ele>-2.0</ele><time>2026-03-22T07:50:42.294Z</time></trkpt><trkpt lat="45.1561039" lon="12.2108077"><ele>-2.0</ele><time>2026-03-22T07:50:43.293Z</time></trkpt><trkpt lat="45.1560476" lon="12.2106678"><ele>-2.0</ele><time>2026-03-22T07:50:44.294Z</time></trkpt><trkpt lat="45.1559887" lon="12.2105374"><ele>-2.0</ele><time>2026-03-22T07:50:45.294Z</time></trkpt><trkpt lat="45.155931" lon="12.2104106"><ele>-2.0</ele><time>2026-03-22T07:50:46.3Z</time></trkpt><trkpt lat="45.1558809" lon="12.2102833"><ele>-2.0</ele><time>2026-03-22T07:50:47.29Z</time></trkpt><trkpt lat="45.1558314" lon="12.2101767"><ele>-1.8</ele><time>2026-03-22T07:50:48.295Z</time></trkpt><trkpt lat="45.1557911" lon="12.2100774"><ele>-1.6</ele><time>2026-03-22T07:50:49.295Z</time></trkpt><trkpt lat="45.1557586" lon="12.2099844"><ele>-1.4000000000000001</ele><time>2026-03-22T07:50:50.294Z</time></trkpt><trkpt lat="45.1557287" lon="12.2098941"><ele>-1.2000000000000002</ele><time>2026-03-22T07:50:51.296Z</time></trkpt><trkpt lat="45.1556693" lon="12.2097493"><ele>-1.0</ele><time>2026-03-22T07:50:53.297Z</time></trkpt><trkpt lat="45.1556115" lon="12.2096142"><ele>-0.9999999999999999</ele><time>2026-03-22T07:50:55.298Z</time></trkpt><trkpt lat="45.1555442" lon="12.2095875"><ele>-1.0</ele><time>2026-03-22T07:50:57.285Z</time></trkpt><trkpt lat="45.155447" lon="12.209663"><ele>-1.0</ele><time>2026-03-22T07:50:59.29Z</time></trkpt><trkpt lat="45.1553905" lon="12.2097154"><ele>-1.0</ele><time>2026-03-22T07:51:00.291Z</time></trkpt><trkpt lat="45.1553281" lon="12.2097767"><ele>-0.9999999999999999</ele><time>2026-03-22T07:51:01.288Z</time></trkpt><trkpt lat="45.1552621" lon="12.2098437"><ele>-1.0</ele><time>2026-03-22T07:51:02.296Z</time></trkpt><trkpt lat="45.1552066" lon="12.2099032"><ele>-1.0</ele><time>2026-03-22T07:51:03.292Z</time></trkpt><trkpt lat="45.1551547" lon="12.2099544"><ele>-1.0</ele><time>2026-03-22T07:51:04.297Z</time></trkpt><trkpt lat="45.1550631" lon="12.2100067"><ele>-1.0</ele><time>2026-03-22T07:51:06.293Z</time></trkpt><trkpt lat="45.154972" lon="12.2099217"><ele>-1.0</ele><time>2026-03-22T07:51:08.29Z</time></trkpt><trkpt lat="45.1549241" lon="12.2098191"><ele>-1.0</ele><time>2026-03-22T07:51:09.296Z</time></trkpt><trkpt lat="45.1548687" lon="12.2096755"><ele>-0.5</ele><time>2026-03-22T07:51:10.297Z</time></trkpt><trkpt lat="45.1548027" lon="12.2095014"><ele>0.0</ele><time>2026-03-22T07:51:11.293Z</time></trkpt><trkpt lat="45.1547335" lon="12.2093308"><ele>0.5</ele><time>2026-03-22T07:51:12.296Z</time></trkpt><trkpt lat="45.1546688" lon="12.2091729"><ele>1.0</ele><time>2026-03-22T07:51:13.299Z</time></trkpt><trkpt lat="45.154604" lon="12.2090234"><ele>0.6000000000000001</ele><time>2026-03-22T07:51:14.289Z</time></trkpt><trkpt lat="45.1545386" lon="12.2089042"><ele>0.20000000000000007</ele><time>2026-03-22T07:51:15.298Z</time></trkpt><trkpt lat="45.1544613" lon="12.2088492"><ele>-0.20000000000000007</ele><time>2026-03-22T07:51:16.296Z</time></trkpt><trkpt lat="45.1543704" lon="12.2088601"><ele>-0.6000000000000001</ele><time>2026-03-22T07:51:17.296Z</time></trkpt><trkpt lat="45.1542698" lon="12.2089208"><ele>-1.0</ele><time>2026-03-22T07:51:18.289Z</time></trkpt><trkpt lat="45.1541562" lon="12.2089896"><ele>-0.75</ele><time>2026-03-22T07:51:19.289Z</time></trkpt><trkpt lat="45.1540269" lon="12.2090205"><ele>-0.5</ele><time>2026-03-22T07:51:20.286Z</time></trkpt><trkpt lat="45.1538888" lon="12.2090069"><ele>-0.25</ele><time>2026-03-22T07:51:21.3Z</time></trkpt><trkpt lat="45.1537293" lon="12.2089637"><ele>0.0</ele><time>2026-03-22T07:51:22.286Z</time></trkpt><trkpt lat="45.1535666" lon="12.2089233"><ele>-0.3333333333333333</ele><time>2026-03-22T07:51:23.285Z</time></trkpt><trkpt lat="45.1534089" lon="12.2088843"><ele>-0.6666666666666666</ele><time>2026-03-22T07:51:24.291Z</time></trkpt><trkpt lat="45.1532431" lon="12.2088508"><ele>-1.0</ele><time>2026-03-22T07:51:25.29Z</time></trkpt><trkpt lat="45.1530748" lon="12.2088145"><ele>-1.0</ele><time>2026-03-22T07:51:26.295Z</time></trkpt><trkpt lat="45.1529009" lon="12.2087821"><ele>-1.0</ele><time>2026-03-22T07:51:27.292Z</time></trkpt><trkpt lat="45.1527249" lon="12.2087423"><ele>-1.0</ele><time>2026-03-22T07:51:28.293Z</time></trkpt><trkpt lat="45.1525468" lon="12.2087039"><ele>-1.3333333333333333</ele><time>2026-03-22T07:51:29.289Z</time></trkpt><trkpt lat="45.1523679" lon="12.2086708"><ele>-1.6666666666666665</ele><time>2026-03-22T07:51:30.287Z</time></trkpt><trkpt lat="45.1521931" lon="12.2086342"><ele>-2.0</ele><time>2026-03-22T07:51:31.29Z</time></trkpt><trkpt lat="45.1520161" lon="12.2086025"><ele>-2.0</ele><time>2026-03-22T07:51:32.291Z</time></trkpt><trkpt lat="45.1518353" lon="12.2085551"><ele>-2.0</ele><time>2026-03-22T07:51:33.295Z</time></trkpt><trkpt lat="45.151651" lon="12.2085087"><ele>-2.0</ele><time>2026-03-22T07:51:34.292Z</time></trkpt><trkpt lat="45.1514663" lon="12.2084678"><ele>-1.6666666666666665</ele><time>2026-03-22T07:51:35.296Z</time></trkpt><trkpt lat="45.1512833" lon="12.2084229"><ele>-1.3333333333333333</ele><time>2026-03-22T07:51:36.293Z</time></trkpt><trkpt lat="45.1510939" lon="12.2083819"><ele>-1.0</ele><time>2026-03-22T07:51:37.291Z</time></trkpt><trkpt lat="45.1509027" lon="12.2083366"><ele>-1.0</ele><time>2026-03-22T07:51:38.295Z</time></trkpt><trkpt lat="45.1507086" lon="12.2082958"><ele>-1.0</ele><time>2026-03-22T07:51:39.295Z</time></trkpt><trkpt lat="45.1505096" lon="12.2082538"><ele>-1.0</ele><time>2026-03-22T07:51:40.295Z</time></trkpt><trkpt lat="45.1503076" lon="12.2082081"><ele>-1.3333333333333333</ele><time>2026-03-22T07:51:41.294Z</time></trkpt><trkpt lat="45.1501076" lon="12.2081719"><ele>-1.6666666666666665</ele><time>2026-03-22T07:51:42.295Z</time></trkpt><trkpt lat="45.1499072" lon="12.2081219"><ele>-2.0</ele><time>2026-03-22T07:51:43.29Z</time></trkpt><trkpt lat="45.1497052" lon="12.2080766"><ele>-2.0</ele><time>2026-03-22T07:51:44.296Z</time></trkpt><trkpt lat="45.1494975" lon="12.2080318"><ele>-2.0</ele><time>2026-03-22T07:51:45.299Z</time></trkpt><trkpt lat="45.1492886" lon="12.2079815"><ele>-2.0</ele><time>2026-03-22T07:51:46.293Z</time></trkpt><trkpt lat="45.1490866" lon="12.2079363"><ele>-2.333333333333333</ele><time>2026-03-22T07:51:47.295Z</time></trkpt><trkpt lat="45.1488866" lon="12.2078917"><ele>-2.6666666666666665</ele><time>2026-03-22T07:51:48.296Z</time></trkpt><trkpt lat="45.1486876" lon="12.2078443"><ele>-3.0</ele><time>2026-03-22T07:51:49.29Z</time></trkpt><trkpt lat="45.1484894" lon="12.2078031"><ele>-3.0</ele><time>2026-03-22T07:51:50.292Z</time></trkpt><trkpt lat="45.1482863" lon="12.2077623"><ele>-3.0</ele><time>2026-03-22T07:51:51.293Z</time></trkpt><trkpt lat="45.1480763" lon="12.207719"><ele>-3.0</ele><time>2026-03-22T07:51:52.287Z</time></trkpt><trkpt lat="45.1478677" lon="12.2076718"><ele>-3.0</ele><time>2026-03-22T07:51:53.295Z</time></trkpt><trkpt lat="45.1476543" lon="12.2076254"><ele>-3.0</ele><time>2026-03-22T07:51:54.295Z</time></trkpt><trkpt lat="45.1474412" lon="12.2075739"><ele>-3.0</ele><time>2026-03-22T07:51:55.3Z</time></trkpt><trkpt lat="45.1472302" lon="12.20753"><ele>-3.0</ele><time>2026-03-22T07:51:56.299Z</time></trkpt><trkpt lat="45.1470176" lon="12.2074839"><ele>-3.0</ele><time>2026-03-22T07:51:57.295Z</time></trkpt><trkpt lat="45.1468125" lon="12.2074348"><ele>-3.0</ele><time>2026-03-22T07:51:58.293Z</time></trkpt><trkpt lat="45.1466028" lon="12.2073856"><ele>-3.0</ele><time>2026-03-22T07:51:59.301Z</time></trkpt><trkpt lat="45.1463936" lon="12.2073349"><ele>-3.0</ele><time>2026-03-22T07:52:00.292Z</time></trkpt><trkpt lat="45.1461769" lon="12.2072875"><ele>-3.0</ele><time>2026-03-22T07:52:01.296Z</time></trkpt><trkpt lat="45.1459556" lon="12.2072359"><ele>-3.0</ele><time>2026-03-22T07:52:02.295Z</time></trkpt><trkpt lat="45.1457377" lon="12.2071873"><ele>-3.0</ele><time>2026-03-22T07:52:03.294Z</time></trkpt><trkpt lat="45.145514" lon="12.2071422"><ele>-3.0</ele><time>2026-03-22T07:52:04.295Z</time></trkpt><trkpt lat="45.1452912" lon="12.2070928"><ele>-3.0</ele><time>2026-03-22T07:52:05.294Z</time></trkpt><trkpt lat="45.1450659" lon="12.2070424"><ele>-3.0</ele><time>2026-03-22T07:52:06.294Z</time></trkpt><trkpt lat="45.1448391" lon="12.2069928"><ele>-3.0</ele><time>2026-03-22T07:52:07.294Z</time></trkpt><trkpt lat="45.1446078" lon="12.2069442"><ele>-3.0</ele><time>2026-03-22T07:52:08.3Z</time></trkpt><trkpt lat="45.1443773" lon="12.2068901"><ele>-3.0</ele><time>2026-03-22T07:52:09.298Z</time></trkpt><trkpt lat="45.1441494" lon="12.2068393"><ele>-3.0</ele><time>2026-03-22T07:52:10.294Z</time></trkpt><trkpt lat="45.1439169" lon="12.2067835"><ele>-4.0</ele><time>2026-03-22T07:52:11.294Z</time></trkpt><trkpt lat="45.1436831" lon="12.2067318"><ele>-5.0</ele><time>2026-03-22T07:52:12.302Z</time></trkpt><trkpt lat="45.1434448" lon="12.2066742"><ele>-4.5</ele><time>2026-03-22T07:52:13.308Z</time></trkpt><trkpt lat="45.1432078" lon="12.2066226"><ele>-4.0</ele><time>2026-03-22T07:52:14.291Z</time></trkpt><trkpt lat="45.1429668" lon="12.2065744"><ele>-4.0</ele><time>2026-03-22T07:52:15.299Z</time></trkpt><trkpt lat="45.1427257" lon="12.2065243"><ele>-4.0</ele><time>2026-03-22T07:52:16.294Z</time></trkpt><trkpt lat="45.1424774" lon="12.2064737"><ele>-3.5</ele><time>2026-03-22T07:52:17.292Z</time></trkpt><trkpt lat="45.1422329" lon="12.2064174"><ele>-3.0</ele><time>2026-03-22T07:52:18.291Z</time></trkpt><trkpt lat="45.1419874" lon="12.206352"><ele>-3.0</ele><time>2026-03-22T07:52:19.29Z</time></trkpt><trkpt lat="45.141743" lon="12.2062936"><ele>-3.0</ele><time>2026-03-22T07:52:20.295Z</time></trkpt><trkpt lat="45.1414974" lon="12.2062478"><ele>-3.5</ele><time>2026-03-22T07:52:21.294Z</time></trkpt><trkpt lat="45.1412558" lon="12.2061911"><ele>-4.0</ele><time>2026-03-22T07:52:22.29Z</time></trkpt><trkpt lat="45.1410105" lon="12.20614"><ele>-4.0</ele><time>2026-03-22T07:52:23.295Z</time></trkpt><trkpt lat="45.1407612" lon="12.2060863"><ele>-4.0</ele><time>2026-03-22T07:52:24.289Z</time></trkpt><trkpt lat="45.1405122" lon="12.2060319"><ele>-3.5</ele><time>2026-03-22T07:52:25.29Z</time></trkpt><trkpt lat="45.1402725" lon="12.2059726"><ele>-3.0</ele><time>2026-03-22T07:52:26.293Z</time></trkpt><trkpt lat="45.1400342" lon="12.20592"><ele>-3.0</ele><time>2026-03-22T07:52:27.299Z</time></trkpt><trkpt lat="45.1397922" lon="12.2058645"><ele>-3.0</ele><time>2026-03-22T07:52:28.301Z</time></trkpt><trkpt lat="45.13955" lon="12.2058117"><ele>-3.0</ele><time>2026-03-22T07:52:29.297Z</time></trkpt><trkpt lat="45.1393076" lon="12.2057547"><ele>-3.0</ele><time>2026-03-22T07:52:30.303Z</time></trkpt><trkpt lat="45.139064" lon="12.2057019"><ele>-3.5</ele><time>2026-03-22T07:52:31.292Z</time></trkpt><trkpt lat="45.1388211" lon="12.2056486"><ele>-4.0</ele><time>2026-03-22T07:52:32.299Z</time></trkpt><trkpt lat="45.1385756" lon="12.205594"><ele>-4.0</ele><time>2026-03-22T07:52:33.29Z</time></trkpt><trkpt lat="45.1383379" lon="12.2055444"><ele>-4.0</ele><time>2026-03-22T07:52:34.298Z</time></trkpt><trkpt lat="45.1381013" lon="12.2054887"><ele>-3.5</ele><time>2026-03-22T07:52:35.297Z</time></trkpt><trkpt lat="45.1378652" lon="12.205443"><ele>-3.0</ele><time>2026-03-22T07:52:36.299Z</time></trkpt><trkpt lat="45.1376296" lon="12.2053924"><ele>-3.0</ele><time>2026-03-22T07:52:37.293Z</time></trkpt><trkpt lat="45.1373918" lon="12.2053366"><ele>-3.0</ele><time>2026-03-22T07:52:38.293Z</time></trkpt><trkpt lat="45.1371541" lon="12.2052907"><ele>-3.5</ele><time>2026-03-22T07:52:39.295Z</time></trkpt><trkpt lat="45.1369198" lon="12.2052395"><ele>-4.0</ele><time>2026-03-22T07:52:40.289Z</time></trkpt><trkpt lat="45.136681" lon="12.2051924"><ele>-4.0</ele><time>2026-03-22T07:52:41.302Z</time></trkpt><trkpt lat="45.1364428" lon="12.2051463"><ele>-4.0</ele><time>2026-03-22T07:52:42.287Z</time></trkpt><trkpt lat="45.1362094" lon="12.2050917"><ele>-4.0</ele><time>2026-03-22T07:52:43.295Z</time></trkpt><trkpt lat="45.1359701" lon="12.2050381"><ele>-4.0</ele><time>2026-03-22T07:52:44.292Z</time></trkpt><trkpt lat="45.1357354" lon="12.2049957"><ele>-4.0</ele><time>2026-03-22T07:52:45.3Z</time></trkpt><trkpt lat="45.135499" lon="12.2049452"><ele>-4.0</ele><time>2026-03-22T07:52:46.3Z</time></trkpt><trkpt lat="45.1352619" lon="12.2048934"><ele>-4.0</ele><time>2026-03-22T07:52:47.291Z</time></trkpt><trkpt lat="45.1350179" lon="12.2048404"><ele>-4.0</ele><time>2026-03-22T07:52:48.29Z</time></trkpt><trkpt lat="45.1347827" lon="12.204782"><ele>-3.5</ele><time>2026-03-22T07:52:49.298Z</time></trkpt><trkpt lat="45.1345469" lon="12.2047301"><ele>-3.0</ele><time>2026-03-22T07:52:50.29Z</time></trkpt><trkpt lat="45.1343132" lon="12.2046775"><ele>-3.0</ele><time>2026-03-22T07:52:51.301Z</time></trkpt><trkpt lat="45.1340762" lon="12.2046245"><ele>-3.0</ele><time>2026-03-22T07:52:52.29Z</time></trkpt><trkpt lat="45.1338413" lon="12.2045686"><ele>-3.0</ele><time>2026-03-22T07:52:53.295Z</time></trkpt><trkpt lat="45.1336188" lon="12.2045263"><ele>-3.0</ele><time>2026-03-22T07:52:54.294Z</time></trkpt><trkpt lat="45.1334108" lon="12.2044834"><ele>-3.0</ele><time>2026-03-22T07:52:55.292Z</time></trkpt><trkpt lat="45.1331994" lon="12.2044359"><ele>-3.0</ele><time>2026-03-22T07:52:56.29Z</time></trkpt><trkpt lat="45.1329873" lon="12.2043912"><ele>-3.0</ele><time>2026-03-22T07:52:57.301Z</time></trkpt><trkpt lat="45.1327736" lon="12.2043499"><ele>-3.0</ele><time>2026-03-22T07:52:58.294Z</time></trkpt><trkpt lat="45.1325812" lon="12.2043025"><ele>-3.0</ele><time>2026-03-22T07:52:59.292Z</time></trkpt><trkpt lat="45.132401" lon="12.204262"><ele>-3.0</ele><time>2026-03-22T07:53:00.294Z</time></trkpt><trkpt lat="45.1322362" lon="12.2042407"><ele>-3.0</ele><time>2026-03-22T07:53:01.287Z</time></trkpt><trkpt lat="45.1321082" lon="12.2042081"><ele>-2.8</ele><time>2026-03-22T07:53:02.298Z</time></trkpt><trkpt lat="45.132009" lon="12.2041801"><ele>-2.5999999999999996</ele><time>2026-03-22T07:53:03.288Z</time></trkpt><trkpt lat="45.1319253" lon="12.2041387"><ele>-2.4000000000000004</ele><time>2026-03-22T07:53:04.292Z</time></trkpt><trkpt lat="45.1318505" lon="12.2040611"><ele>-2.2</ele><time>2026-03-22T07:53:05.279Z</time></trkpt><trkpt lat="45.1317956" lon="12.2039434"><ele>-2.0</ele><time>2026-03-22T07:53:06.284Z</time></trkpt><trkpt lat="45.131755" lon="12.2038059"><ele>-2.0</ele><time>2026-03-22T07:53:07.282Z</time></trkpt><trkpt lat="45.1317183" lon="12.203651"><ele>-2.0</ele><time>2026-03-22T07:53:08.288Z</time></trkpt><trkpt lat="45.131695" lon="12.2034551"><ele>-2.0</ele><time>2026-03-22T07:53:09.284Z</time></trkpt><trkpt lat="45.1316586" lon="12.2032557"><ele>-2.0</ele><time>2026-03-22T07:53:10.284Z</time></trkpt><trkpt lat="45.131617" lon="12.2030379"><ele>-2.333333333333333</ele><time>2026-03-22T07:53:11.286Z</time></trkpt><trkpt lat="45.1315626" lon="12.2027879"><ele>-2.6666666666666665</ele><time>2026-03-22T07:53:12.289Z</time></trkpt><trkpt lat="45.1315215" lon="12.2025322"><ele>-3.0</ele><time>2026-03-22T07:53:13.291Z</time></trkpt><trkpt lat="45.1314775" lon="12.202292"><ele>-3.333333333333333</ele><time>2026-03-22T07:53:14.297Z</time></trkpt><trkpt lat="45.1314347" lon="12.2020755"><ele>-3.6666666666666665</ele><time>2026-03-22T07:53:15.304Z</time></trkpt><trkpt lat="45.1313959" lon="12.2018688"><ele>-4.0</ele><time>2026-03-22T07:53:16.295Z</time></trkpt><trkpt lat="45.1313644" lon="12.2016647"><ele>-3.5</ele><time>2026-03-22T07:53:17.296Z</time></trkpt><trkpt lat="45.1313284" lon="12.2014611"><ele>-3.0</ele><time>2026-03-22T07:53:18.298Z</time></trkpt><trkpt lat="45.1312927" lon="12.2012617"><ele>-2.5</ele><time>2026-03-22T07:53:19.29Z</time></trkpt><trkpt lat="45.1312661" lon="12.2010691"><ele>-2.0</ele><time>2026-03-22T07:53:20.291Z</time></trkpt><trkpt lat="45.1312583" lon="12.2008938"><ele>-1.9999999999999998</ele><time>2026-03-22T07:53:21.299Z</time></trkpt><trkpt lat="45.1312544" lon="12.2007262"><ele>-2.0</ele><time>2026-03-22T07:53:22.288Z</time></trkpt><trkpt lat="45.1312384" lon="12.2005922"><ele>-2.0</ele><time>2026-03-22T07:53:23.305Z</time></trkpt><trkpt lat="45.1312051" lon="12.2005018"><ele>-2.0</ele><time>2026-03-22T07:53:24.298Z</time></trkpt><trkpt lat="45.1311481" lon="12.2004438"><ele>-1.9999999999999998</ele><time>2026-03-22T07:53:25.292Z</time></trkpt><trkpt lat="45.1310684" lon="12.2004189"><ele>-2.0</ele><time>2026-03-22T07:53:26.29Z</time></trkpt><trkpt lat="45.1309813" lon="12.20041"><ele>-1.75</ele><time>2026-03-22T07:53:27.299Z</time></trkpt><trkpt lat="45.1308864" lon="12.2004088"><ele>-1.5</ele><time>2026-03-22T07:53:28.286Z</time></trkpt><trkpt lat="45.1307745" lon="12.2004021"><ele>-1.25</ele><time>2026-03-22T07:53:29.296Z</time></trkpt><trkpt lat="45.1306359" lon="12.2003884"><ele>-1.0</ele><time>2026-03-22T07:53:30.293Z</time></trkpt><trkpt lat="45.1304719" lon="12.2003695"><ele>-2.0</ele><time>2026-03-22T07:53:31.289Z</time></trkpt><trkpt lat="45.130298" lon="12.2003472"><ele>-3.0</ele><time>2026-03-22T07:53:32.293Z</time></trkpt><trkpt lat="45.1301135" lon="12.2003256"><ele>-4.0</ele><time>2026-03-22T07:53:33.291Z</time></trkpt><trkpt lat="45.1299238" lon="12.2003057"><ele>-4.0</ele><time>2026-03-22T07:53:34.289Z</time></trkpt><trkpt lat="45.129718" lon="12.2002753"><ele>-4.0</ele><time>2026-03-22T07:53:35.291Z</time></trkpt><trkpt lat="45.1295087" lon="12.2002503"><ele>-4.0</ele><time>2026-03-22T07:53:36.296Z</time></trkpt><trkpt lat="45.129306" lon="12.2002316"><ele>-4.0</ele><time>2026-03-22T07:53:37.291Z</time></trkpt><trkpt lat="45.1291021" lon="12.2002183"><ele>-4.0</ele><time>2026-03-22T07:53:38.302Z</time></trkpt><trkpt lat="45.1288995" lon="12.2002099"><ele>-4.0</ele><time>2026-03-22T07:53:39.298Z</time></trkpt><trkpt lat="45.1287093" lon="12.2001928"><ele>-4.0</ele><time>2026-03-22T07:53:40.299Z</time></trkpt><trkpt lat="45.1285118" lon="12.2001657"><ele>-4.0</ele><time>2026-03-22T07:53:41.293Z</time></trkpt><trkpt lat="45.1283042" lon="12.2001409"><ele>-4.0</ele><time>2026-03-22T07:53:42.294Z</time></trkpt><trkpt lat="45.1280909" lon="12.2001169"><ele>-3.6666666666666665</ele><time>2026-03-22T07:53:43.294Z</time></trkpt><trkpt lat="45.1278724" lon="12.2000901"><ele>-3.333333333333333</ele><time>2026-03-22T07:53:44.299Z</time></trkpt><trkpt lat="45.1276433" lon="12.200068"><ele>-3.0</ele><time>2026-03-22T07:53:45.295Z</time></trkpt><trkpt lat="45.1274214" lon="12.2000408"><ele>-3.0</ele><time>2026-03-22T07:53:46.299Z</time></trkpt><trkpt lat="45.1272111" lon="12.2000104"><ele>-3.0</ele><time>2026-03-22T07:53:47.293Z</time></trkpt><trkpt lat="45.1270139" lon="12.1999861"><ele>-3.0</ele><time>2026-03-22T07:53:48.301Z</time></trkpt><trkpt lat="45.1268145" lon="12.1999655"><ele>-3.0</ele><time>2026-03-22T07:53:49.296Z</time></trkpt><trkpt lat="45.126611" lon="12.1999364"><ele>-3.0</ele><time>2026-03-22T07:53:50.293Z</time></trkpt><trkpt lat="45.1264036" lon="12.199909"><ele>-3.0</ele><time>2026-03-22T07:53:51.298Z</time></trkpt><trkpt lat="45.1261945" lon="12.199885"><ele>-3.0</ele><time>2026-03-22T07:53:52.297Z</time></trkpt><trkpt lat="45.1259876" lon="12.1998541"><ele>-3.0</ele><time>2026-03-22T07:53:53.294Z</time></trkpt><trkpt lat="45.1257823" lon="12.1998288"><ele>-3.0</ele><time>2026-03-22T07:53:54.305Z</time></trkpt><trkpt lat="45.1255756" lon="12.1998085"><ele>-3.0</ele><time>2026-03-22T07:53:55.299Z</time></trkpt><trkpt lat="45.125366" lon="12.1997824"><ele>-3.0</ele><time>2026-03-22T07:53:56.302Z</time></trkpt><trkpt lat="45.1251543" lon="12.1997552"><ele>-3.0</ele><time>2026-03-22T07:53:57.292Z</time></trkpt><trkpt lat="45.124944" lon="12.1997372"><ele>-3.333333333333333</ele><time>2026-03-22T07:53:58.303Z</time></trkpt><trkpt lat="45.1247372" lon="12.1997139"><ele>-3.6666666666666665</ele><time>2026-03-22T07:53:59.295Z</time></trkpt><trkpt lat="45.124534" lon="12.1996901"><ele>-4.0</ele><time>2026-03-22T07:54:00.3Z</time></trkpt><trkpt lat="45.124348" lon="12.1996714"><ele>-4.0</ele><time>2026-03-22T07:54:01.298Z</time></trkpt><trkpt lat="45.1241663" lon="12.1996482"><ele>-4.0</ele><time>2026-03-22T07:54:02.299Z</time></trkpt><trkpt lat="45.1239811" lon="12.1996268"><ele>-4.0</ele><time>2026-03-22T07:54:03.295Z</time></trkpt><trkpt lat="45.1237929" lon="12.1996032"><ele>-3.6666666666666665</ele><time>2026-03-22T07:54:04.303Z</time></trkpt><trkpt lat="45.1236039" lon="12.1995813"><ele>-3.333333333333333</ele><time>2026-03-22T07:54:05.298Z</time></trkpt><trkpt lat="45.1234189" lon="12.1995505"><ele>-3.0</ele><time>2026-03-22T07:54:06.304Z</time></trkpt><trkpt lat="45.1232436" lon="12.1995279"><ele>-3.0</ele><time>2026-03-22T07:54:07.297Z</time></trkpt><trkpt lat="45.1230837" lon="12.1995152"><ele>-3.0</ele><time>2026-03-22T07:54:08.298Z</time></trkpt><trkpt lat="45.1229316" lon="12.1994981"><ele>-3.0</ele><time>2026-03-22T07:54:09.294Z</time></trkpt><trkpt lat="45.1227835" lon="12.1994813"><ele>-3.0</ele><time>2026-03-22T07:54:10.301Z</time></trkpt><trkpt lat="45.1226569" lon="12.1994647"><ele>-3.0</ele><time>2026-03-22T07:54:11.298Z</time></trkpt><trkpt lat="45.1225452" lon="12.1994526"><ele>-3.0</ele><time>2026-03-22T07:54:12.29Z</time></trkpt><trkpt lat="45.122449" lon="12.1994372"><ele>-3.0</ele><time>2026-03-22T07:54:13.292Z</time></trkpt><trkpt lat="45.1223689" lon="12.1994239"><ele>-3.0</ele><time>2026-03-22T07:54:14.298Z</time></trkpt><trkpt lat="45.122309" lon="12.1993929"><ele>-3.1666666666666665</ele><time>2026-03-22T07:54:16.297Z</time></trkpt><trkpt lat="45.1222416" lon="12.1993919"><ele>-3.333333333333333</ele><time>2026-03-22T07:54:19.301Z</time></trkpt><trkpt lat="45.1221541" lon="12.1993844"><ele>-3.5</ele><time>2026-03-22T07:54:21.295Z</time></trkpt><trkpt lat="45.1220896" lon="12.1993775"><ele>-3.6666666666666665</ele><time>2026-03-22T07:54:22.296Z</time></trkpt><trkpt lat="45.1220096" lon="12.1993725"><ele>-3.833333333333333</ele><time>2026-03-22T07:54:23.301Z</time></trkpt><trkpt lat="45.1219242" lon="12.1993683"><ele>-4.0</ele><time>2026-03-22T07:54:24.299Z</time></trkpt><trkpt lat="45.1218338" lon="12.199364"><ele>-4.0</ele><time>2026-03-22T07:54:25.296Z</time></trkpt><trkpt lat="45.1217339" lon="12.1993504"><ele>-4.0</ele><time>2026-03-22T07:54:26.297Z</time></trkpt><trkpt lat="45.1216252" lon="12.1993359"><ele>-4.0</ele><time>2026-03-22T07:54:27.291Z</time></trkpt><trkpt lat="45.1215059" lon="12.1993215"><ele>-4.0</ele><time>2026-03-22T07:54:28.299Z</time></trkpt><trkpt lat="45.1213961" lon="12.1993053"><ele>-4.0</ele><time>2026-03-22T07:54:29.302Z</time></trkpt><trkpt lat="45.1212857" lon="12.1992911"><ele>-3.6</ele><time>2026-03-22T07:54:30.294Z</time></trkpt><trkpt lat="45.1211742" lon="12.1992781"><ele>-3.2</ele><time>2026-03-22T07:54:31.298Z</time></trkpt><trkpt lat="45.1210619" lon="12.199267"><ele>-2.8000000000000003</ele><time>2026-03-22T07:54:32.29Z</time></trkpt><trkpt lat="45.1209566" lon="12.1992455"><ele>-2.4000000000000004</ele><time>2026-03-22T07:54:33.294Z</time></trkpt><trkpt lat="45.1208648" lon="12.1992028"><ele>-2.0</ele><time>2026-03-22T07:54:34.287Z</time></trkpt><trkpt lat="45.1207929" lon="12.1991297"><ele>-2.0</ele><time>2026-03-22T07:54:35.295Z</time></trkpt><trkpt lat="45.1207338" lon="12.19903"><ele>-2.0</ele><time>2026-03-22T07:54:36.284Z</time></trkpt><trkpt lat="45.1206706" lon="12.1988979"><ele>-2.0</ele><time>2026-03-22T07:54:37.291Z</time></trkpt><trkpt lat="45.1205984" lon="12.1987336"><ele>-2.0</ele><time>2026-03-22T07:54:38.291Z</time></trkpt><trkpt lat="45.1205124" lon="12.1985356"><ele>-3.0</ele><time>2026-03-22T07:54:39.291Z</time></trkpt><trkpt lat="45.1204147" lon="12.1983087"><ele>-4.0</ele><time>2026-03-22T07:54:40.29Z</time></trkpt><trkpt lat="45.1202953" lon="12.1980683"><ele>-5.0</ele><time>2026-03-22T07:54:41.29Z</time></trkpt><trkpt lat="45.12018" lon="12.1978152"><ele>-5.0</ele><time>2026-03-22T07:54:42.291Z</time></trkpt><trkpt lat="45.1200633" lon="12.1975648"><ele>-5.0</ele><time>2026-03-22T07:54:43.291Z</time></trkpt><trkpt lat="45.1199483" lon="12.1973268"><ele>-5.0</ele><time>2026-03-22T07:54:44.299Z</time></trkpt><trkpt lat="45.1198345" lon="12.1971013"><ele>-4.666666666666667</ele><time>2026-03-22T07:54:45.3Z</time></trkpt><trkpt lat="45.1197252" lon="12.196871"><ele>-4.333333333333333</ele><time>2026-03-22T07:54:46.297Z</time></trkpt><trkpt lat="45.1196042" lon="12.1966221"><ele>-4.0</ele><time>2026-03-22T07:54:47.295Z</time></trkpt><trkpt lat="45.1194786" lon="12.1963626"><ele>-4.0</ele><time>2026-03-22T07:54:48.295Z</time></trkpt><trkpt lat="45.1193433" lon="12.1960893"><ele>-4.0</ele><time>2026-03-22T07:54:49.299Z</time></trkpt><trkpt lat="45.1192208" lon="12.1958333"><ele>-4.0</ele><time>2026-03-22T07:54:50.302Z</time></trkpt><trkpt lat="45.1190983" lon="12.195589"><ele>-4.0</ele><time>2026-03-22T07:54:51.301Z</time></trkpt><trkpt lat="45.1189724" lon="12.1953377"><ele>-4.0</ele><time>2026-03-22T07:54:52.295Z</time></trkpt><trkpt lat="45.1188469" lon="12.1950817"><ele>-4.0</ele><time>2026-03-22T07:54:53.296Z</time></trkpt><trkpt lat="45.1187184" lon="12.1948185"><ele>-4.0</ele><time>2026-03-22T07:54:54.299Z</time></trkpt><trkpt lat="45.1185928" lon="12.1945565"><ele>-4.0</ele><time>2026-03-22T07:54:55.303Z</time></trkpt><trkpt lat="45.1184669" lon="12.1943007"><ele>-4.0</ele><time>2026-03-22T07:54:56.303Z</time></trkpt><trkpt lat="45.1183449" lon="12.1940474"><ele>-4.0</ele><time>2026-03-22T07:54:57.301Z</time></trkpt><trkpt lat="45.118226" lon="12.1938005"><ele>-4.0</ele><time>2026-03-22T07:54:58.304Z</time></trkpt><trkpt lat="45.118101" lon="12.1935508"><ele>-4.0</ele><time>2026-03-22T07:54:59.301Z</time></trkpt><trkpt lat="45.1179775" lon="12.193298"><ele>-4.0</ele><time>2026-03-22T07:55:00.307Z</time></trkpt><trkpt lat="45.1178488" lon="12.1930492"><ele>-4.0</ele><time>2026-03-22T07:55:01.3Z</time></trkpt><trkpt lat="45.1177229" lon="12.1927947"><ele>-4.0</ele><time>2026-03-22T07:55:02.304Z</time></trkpt><trkpt lat="45.1175959" lon="12.1925408"><ele>-4.0</ele><time>2026-03-22T07:55:03.3Z</time></trkpt><trkpt lat="45.1174703" lon="12.192285"><ele>-4.0</ele><time>2026-03-22T07:55:04.301Z</time></trkpt><trkpt lat="45.1173436" lon="12.1920289"><ele>-4.0</ele><time>2026-03-22T07:55:05.303Z</time></trkpt><trkpt lat="45.1172177" lon="12.1917662"><ele>-4.0</ele><time>2026-03-22T07:55:06.299Z</time></trkpt><trkpt lat="45.1170935" lon="12.1915051"><ele>-4.0</ele><time>2026-03-22T07:55:07.304Z</time></trkpt><trkpt lat="45.1169669" lon="12.1912398"><ele>-4.0</ele><time>2026-03-22T07:55:08.302Z</time></trkpt><trkpt lat="45.1168446" lon="12.1909726"><ele>-4.0</ele><time>2026-03-22T07:55:09.302Z</time></trkpt><trkpt lat="45.116721" lon="12.1907204"><ele>-4.0</ele><time>2026-03-22T07:55:10.298Z</time></trkpt><trkpt lat="45.1166082" lon="12.1904904"><ele>-3.0</ele><time>2026-03-22T07:55:11.303Z</time></trkpt><trkpt lat="45.1165001" lon="12.1902718"><ele>-2.0</ele><time>2026-03-22T07:55:12.301Z</time></trkpt><trkpt lat="45.1163984" lon="12.1900606"><ele>-1.0</ele><time>2026-03-22T07:55:13.311Z</time></trkpt><trkpt lat="45.1163035" lon="12.1898591"><ele>-1.0</ele><time>2026-03-22T07:55:14.301Z</time></trkpt><trkpt lat="45.1162144" lon="12.1896741"><ele>-1.0</ele><time>2026-03-22T07:55:15.308Z</time></trkpt><trkpt lat="45.1161279" lon="12.1895077"><ele>-1.0</ele><time>2026-03-22T07:55:16.296Z</time></trkpt><trkpt lat="45.1160491" lon="12.1893567"><ele>-1.0</ele><time>2026-03-22T07:55:17.296Z</time></trkpt><trkpt lat="45.1159756" lon="12.1892166"><ele>-1.0</ele><time>2026-03-22T07:55:18.306Z</time></trkpt><trkpt lat="45.115901" lon="12.1890983"><ele>-1.0</ele><time>2026-03-22T07:55:19.303Z</time></trkpt><trkpt lat="45.1158321" lon="12.1889787"><ele>-1.0</ele><time>2026-03-22T07:55:20.31Z</time></trkpt><trkpt lat="45.1157583" lon="12.1888486"><ele>-1.0</ele><time>2026-03-22T07:55:21.305Z</time></trkpt><trkpt lat="45.1156794" lon="12.1887152"><ele>-0.8</ele><time>2026-03-22T07:55:22.297Z</time></trkpt><trkpt lat="45.1156025" lon="12.1885941"><ele>-0.6000000000000001</ele><time>2026-03-22T07:55:23.302Z</time></trkpt><trkpt lat="45.1155284" lon="12.1884837"><ele>-0.4</ele><time>2026-03-22T07:55:24.305Z</time></trkpt><trkpt lat="45.1154542" lon="12.1883863"><ele>-0.2</ele><time>2026-03-22T07:55:25.296Z</time></trkpt><trkpt lat="45.1153862" lon="12.1882969"><ele>0.0</ele><time>2026-03-22T07:55:26.3Z</time></trkpt><trkpt lat="45.1153223" lon="12.1882256"><ele>-0.16666666666666666</ele><time>2026-03-22T07:55:27.301Z</time></trkpt><trkpt lat="45.1152638" lon="12.1881651"><ele>-0.3333333333333333</ele><time>2026-03-22T07:55:28.299Z</time></trkpt><trkpt lat="45.1152097" lon="12.1881035"><ele>-0.5</ele><time>2026-03-22T07:55:29.305Z</time></trkpt><trkpt lat="45.1151166" lon="12.1879879"><ele>-0.6666666666666666</ele><time>2026-03-22T07:55:31.314Z</time></trkpt><trkpt lat="45.1150628" lon="12.1879213"><ele>-0.8333333333333333</ele><time>2026-03-22T07:55:32.298Z</time></trkpt><trkpt lat="45.1150061" lon="12.1878439"><ele>-1.0</ele><time>2026-03-22T07:55:33.305Z</time></trkpt><trkpt lat="45.1149464" lon="12.1877626"><ele>-0.33333333333333326</ele><time>2026-03-22T07:55:34.299Z</time></trkpt><trkpt lat="45.1148915" lon="12.187683"><ele>0.33333333333333337</ele><time>2026-03-22T07:55:35.306Z</time></trkpt><trkpt lat="45.114841" lon="12.1876078"><ele>1.0</ele><time>2026-03-22T07:55:36.303Z</time></trkpt><trkpt lat="45.1147954" lon="12.1875416"><ele>1.6666666666666667</ele><time>2026-03-22T07:55:37.294Z</time></trkpt><trkpt lat="45.1146825" lon="12.1874782"><ele>2.3333333333333335</ele><time>2026-03-22T07:55:39.306Z</time></trkpt><trkpt lat="45.1146117" lon="12.1875022"><ele>3.0</ele><time>2026-03-22T07:55:40.298Z</time></trkpt><trkpt lat="45.1145411" lon="12.187573"><ele>3.0</ele><time>2026-03-22T07:55:41.304Z</time></trkpt><trkpt lat="45.114468" lon="12.187698"><ele>3.0</ele><time>2026-03-22T07:55:42.299Z</time></trkpt><trkpt lat="45.1144009" lon="12.1878562"><ele>3.0</ele><time>2026-03-22T07:55:43.293Z</time></trkpt><trkpt lat="45.1143219" lon="12.188001"><ele>3.0</ele><time>2026-03-22T07:55:44.301Z</time></trkpt><trkpt lat="45.1142399" lon="12.188122"><ele>3.0</ele><time>2026-03-22T07:55:45.305Z</time></trkpt><trkpt lat="45.1141651" lon="12.1882329"><ele>3.0</ele><time>2026-03-22T07:55:46.306Z</time></trkpt><trkpt lat="45.1141005" lon="12.1883279"><ele>3.0</ele><time>2026-03-22T07:55:47.298Z</time></trkpt><trkpt lat="45.1140467" lon="12.1884062"><ele>3.0</ele><time>2026-03-22T07:55:48.306Z</time></trkpt><trkpt lat="45.1139648" lon="12.1885421"><ele>3.0</ele><time>2026-03-22T07:55:50.313Z</time></trkpt><trkpt lat="45.1139102" lon="12.1886198"><ele>3.0</ele><time>2026-03-22T07:55:51.306Z</time></trkpt><trkpt lat="45.1138486" lon="12.1887173"><ele>3.0</ele><time>2026-03-22T07:55:52.299Z</time></trkpt><trkpt lat="45.1137756" lon="12.1888346"><ele>3.0</ele><time>2026-03-22T07:55:53.319Z</time></trkpt><trkpt lat="45.1137023" lon="12.1889632"><ele>3.0</ele><time>2026-03-22T07:55:54.311Z</time></trkpt><trkpt lat="45.1136359" lon="12.189089"><ele>3.0</ele><time>2026-03-22T07:55:55.3Z</time></trkpt><trkpt lat="45.1135787" lon="12.1891978"><ele>2.8</ele><time>2026-03-22T07:55:56.306Z</time></trkpt><trkpt lat="45.1135323" lon="12.1892959"><ele>2.5999999999999996</ele><time>2026-03-22T07:55:57.297Z</time></trkpt><trkpt lat="45.1134881" lon="12.1893791"><ele>2.4000000000000004</ele><time>2026-03-22T07:55:58.302Z</time></trkpt><trkpt lat="45.1133941" lon="12.1894599"><ele>2.2</ele><time>2026-03-22T07:56:00.303Z</time></trkpt><trkpt lat="45.1132829" lon="12.1893706"><ele>2.0</ele><time>2026-03-22T07:56:02.312Z</time></trkpt><trkpt lat="45.1132213" lon="12.1892776"><ele>2.0</ele><time>2026-03-22T07:56:03.301Z</time></trkpt><trkpt lat="45.1131481" lon="12.1891779"><ele>2.0</ele><time>2026-03-22T07:56:04.312Z</time></trkpt><trkpt lat="45.113063" lon="12.1890653"><ele>2.0</ele><time>2026-03-22T07:56:05.311Z</time></trkpt><trkpt lat="45.1129612" lon="12.188932"><ele>2.0</ele><time>2026-03-22T07:56:06.303Z</time></trkpt><trkpt lat="45.1128615" lon="12.1888086"><ele>2.2</ele><time>2026-03-22T07:56:07.31Z</time></trkpt><trkpt lat="45.1127696" lon="12.1887045"><ele>2.4000000000000004</ele><time>2026-03-22T07:56:08.306Z</time></trkpt><trkpt lat="45.1126866" lon="12.1886117"><ele>2.5999999999999996</ele><time>2026-03-22T07:56:09.3Z</time></trkpt><trkpt lat="45.1126137" lon="12.1885236"><ele>2.8</ele><time>2026-03-22T07:56:10.305Z</time></trkpt><trkpt lat="45.112543" lon="12.1884408"><ele>3.0</ele><time>2026-03-22T07:56:11.309Z</time></trkpt><trkpt lat="45.1124796" lon="12.1883713"><ele>3.0</ele><time>2026-03-22T07:56:12.299Z</time></trkpt><trkpt lat="45.1124293" lon="12.1883161"><ele>3.0</ele><time>2026-03-22T07:56:13.305Z</time></trkpt><trkpt lat="45.1123933" lon="12.1882084"><ele>3.0</ele><time>2026-03-22T07:56:15.306Z</time></trkpt><trkpt lat="45.1124324" lon="12.1880942"><ele>3.0</ele><time>2026-03-22T07:56:17.305Z</time></trkpt><trkpt lat="45.1125061" lon="12.1879865"><ele>3.0</ele><time>2026-03-22T07:56:19.306Z</time></trkpt><trkpt lat="45.1125964" lon="12.1878905"><ele>2.6</ele><time>2026-03-22T07:56:21.305Z</time></trkpt><trkpt lat="45.1126729" lon="12.1878073"><ele>2.1999999999999997</ele><time>2026-03-22T07:56:23.301Z</time></trkpt><trkpt lat="45.1127405" lon="12.1877136"><ele>1.8</ele><time>2026-03-22T07:56:25.306Z</time></trkpt><trkpt lat="45.1127998" lon="12.1876247"><ele>1.4</ele><time>2026-03-22T07:56:27.304Z</time></trkpt><trkpt lat="45.1128625" lon="12.1875366"><ele>1.0</ele><time>2026-03-22T07:56:29.305Z</time></trkpt><trkpt lat="45.1129376" lon="12.1874231"><ele>1.1666666666666665</ele><time>2026-03-22T07:56:31.301Z</time></trkpt><trkpt lat="45.1130223" lon="12.1872843"><ele>1.3333333333333333</ele><time>2026-03-22T07:56:33.304Z</time></trkpt><trkpt lat="45.11307" lon="12.1872115"><ele>1.5</ele><time>2026-03-22T07:56:34.307Z</time></trkpt><trkpt lat="45.113117" lon="12.1871375"><ele>1.6666666666666665</ele><time>2026-03-22T07:56:35.305Z</time></trkpt><trkpt lat="45.1131642" lon="12.1870623"><ele>1.8333333333333333</ele><time>2026-03-22T07:56:36.308Z</time></trkpt><trkpt lat="45.1132089" lon="12.1869871"><ele>2.0</ele><time>2026-03-22T07:56:37.305Z</time></trkpt><trkpt lat="45.1132512" lon="12.1869148"><ele>1.9999999999999998</ele><time>2026-03-22T07:56:38.299Z</time></trkpt><trkpt lat="45.1133186" lon="12.1868042"><ele>2.0</ele><time>2026-03-22T07:56:40.304Z</time></trkpt><trkpt lat="45.1133776" lon="12.1867041"><ele>2.0</ele><time>2026-03-22T07:56:42.301Z</time></trkpt><trkpt lat="45.1134433" lon="12.186588"><ele>2.0</ele><time>2026-03-22T07:56:44.298Z</time></trkpt><trkpt lat="45.1134846" lon="12.1865089"><ele>1.9999999999999998</ele><time>2026-03-22T07:56:45.295Z</time></trkpt><trkpt lat="45.1135305" lon="12.1864177"><ele>2.0</ele><time>2026-03-22T07:56:46.299Z</time></trkpt><trkpt lat="45.1135888" lon="12.1863025"><ele>1.0</ele><time>2026-03-22T07:56:47.295Z</time></trkpt><trkpt lat="45.1136493" lon="12.1861748"><ele>2.220446049250313E-16</ele><time>2026-03-22T07:56:48.298Z</time></trkpt><trkpt lat="45.1137159" lon="12.1860434"><ele>-0.9999999999999998</ele><time>2026-03-22T07:56:49.298Z</time></trkpt><trkpt lat="45.1137796" lon="12.1859194"><ele>-2.0</ele><time>2026-03-22T07:56:50.3Z</time></trkpt><trkpt lat="45.1138494" lon="12.1857862"><ele>-3.0</ele><time>2026-03-22T07:56:51.299Z</time></trkpt><trkpt lat="45.1139198" lon="12.1856451"><ele>-3.333333333333333</ele><time>2026-03-22T07:56:52.288Z</time></trkpt><trkpt lat="45.1139992" lon="12.1854774"><ele>-3.6666666666666665</ele><time>2026-03-22T07:56:53.303Z</time></trkpt><trkpt lat="45.1140882" lon="12.1852846"><ele>-4.0</ele><time>2026-03-22T07:56:54.294Z</time></trkpt><trkpt lat="45.1141816" lon="12.1850787"><ele>-3.5</ele><time>2026-03-22T07:56:55.295Z</time></trkpt><trkpt lat="45.1142672" lon="12.1848961"><ele>-3.0</ele><time>2026-03-22T07:56:56.299Z</time></trkpt><trkpt lat="45.114344" lon="12.1847316"><ele>-2.5</ele><time>2026-03-22T07:56:57.298Z</time></trkpt><trkpt lat="45.1144195" lon="12.184579"><ele>-2.0</ele><time>2026-03-22T07:56:58.297Z</time></trkpt><trkpt lat="45.1144922" lon="12.1844204"><ele>-2.0</ele><time>2026-03-22T07:56:59.296Z</time></trkpt><trkpt lat="45.1145704" lon="12.1842711"><ele>-2.0</ele><time>2026-03-22T07:57:00.306Z</time></trkpt><trkpt lat="45.1146406" lon="12.1841115"><ele>-2.0</ele><time>2026-03-22T07:57:01.299Z</time></trkpt><trkpt lat="45.114709" lon="12.183951"><ele>-2.0</ele><time>2026-03-22T07:57:02.297Z</time></trkpt><trkpt lat="45.1147808" lon="12.1837953"><ele>-2.25</ele><time>2026-03-22T07:57:03.3Z</time></trkpt><trkpt lat="45.1148549" lon="12.1836392"><ele>-2.5</ele><time>2026-03-22T07:57:04.3Z</time></trkpt><trkpt lat="45.1149265" lon="12.1834936"><ele>-2.75</ele><time>2026-03-22T07:57:05.306Z</time></trkpt><trkpt lat="45.115" lon="12.1833384"><ele>-3.0</ele><time>2026-03-22T07:57:06.301Z</time></trkpt><trkpt lat="45.1150761" lon="12.1831803"><ele>-3.0</ele><time>2026-03-22T07:57:07.3Z</time></trkpt><trkpt lat="45.1151534" lon="12.1830191"><ele>-3.0</ele><time>2026-03-22T07:57:08.302Z</time></trkpt><trkpt lat="45.115235" lon="12.1828524"><ele>-3.0</ele><time>2026-03-22T07:57:09.305Z</time></trkpt><trkpt lat="45.1153166" lon="12.1826823"><ele>-3.0</ele><time>2026-03-22T07:57:10.296Z</time></trkpt><trkpt lat="45.1154002" lon="12.1825052"><ele>-3.333333333333333</ele><time>2026-03-22T07:57:11.302Z</time></trkpt><trkpt lat="45.1154782" lon="12.1823218"><ele>-3.6666666666666665</ele><time>2026-03-22T07:57:12.298Z</time></trkpt><trkpt lat="45.1155663" lon="12.1821328"><ele>-4.0</ele><time>2026-03-22T07:57:13.307Z</time></trkpt><trkpt lat="45.1156666" lon="12.1819346"><ele>-3.6666666666666665</ele><time>2026-03-22T07:57:14.295Z</time></trkpt><trkpt lat="45.1157704" lon="12.1817276"><ele>-3.333333333333333</ele><time>2026-03-22T07:57:15.306Z</time></trkpt><trkpt lat="45.1158783" lon="12.1814976"><ele>-3.0</ele><time>2026-03-22T07:57:16.306Z</time></trkpt><trkpt lat="45.1159812" lon="12.1812767"><ele>-2.6666666666666665</ele><time>2026-03-22T07:57:17.299Z</time></trkpt><trkpt lat="45.1160785" lon="12.1810785"><ele>-2.333333333333333</ele><time>2026-03-22T07:57:18.296Z</time></trkpt><trkpt lat="45.1161823" lon="12.1808777"><ele>-2.0</ele><time>2026-03-22T07:57:19.305Z</time></trkpt><trkpt lat="45.1162872" lon="12.1806716"><ele>-2.0</ele><time>2026-03-22T07:57:20.302Z</time></trkpt><trkpt lat="45.1163952" lon="12.1804625"><ele>-2.0</ele><time>2026-03-22T07:57:21.301Z</time></trkpt><trkpt lat="45.1164902" lon="12.1802514"><ele>-2.0</ele><time>2026-03-22T07:57:22.297Z</time></trkpt><trkpt lat="45.1165904" lon="12.1800398"><ele>-2.0</ele><time>2026-03-22T07:57:23.301Z</time></trkpt><trkpt lat="45.1166898" lon="12.179831"><ele>-2.0</ele><time>2026-03-22T07:57:24.3Z</time></trkpt><trkpt lat="45.1167965" lon="12.1796028"><ele>-2.0</ele><time>2026-03-22T07:57:25.299Z</time></trkpt><trkpt lat="45.1169065" lon="12.1793717"><ele>-2.0</ele><time>2026-03-22T07:57:26.298Z</time></trkpt><trkpt lat="45.1170132" lon="12.1791424"><ele>-2.0</ele><time>2026-03-22T07:57:27.311Z</time></trkpt><trkpt lat="45.1171189" lon="12.17891"><ele>-2.0</ele><time>2026-03-22T07:57:28.294Z</time></trkpt><trkpt lat="45.1172281" lon="12.1786739"><ele>-2.0</ele><time>2026-03-22T07:57:29.299Z</time></trkpt><trkpt lat="45.1173432" lon="12.1784295"><ele>-2.0</ele><time>2026-03-22T07:57:30.295Z</time></trkpt><trkpt lat="45.117462" lon="12.1781711"><ele>-2.0</ele><time>2026-03-22T07:57:31.305Z</time></trkpt><trkpt lat="45.1175854" lon="12.1779036"><ele>0.0</ele><time>2026-03-22T07:57:32.298Z</time></trkpt><trkpt lat="45.11771" lon="12.177642"><ele>2.0</ele><time>2026-03-22T07:57:33.299Z</time></trkpt><trkpt lat="45.117832" lon="12.1773625"><ele>1.3333333333333333</ele><time>2026-03-22T07:57:34.3Z</time></trkpt><trkpt lat="45.1179549" lon="12.1770893"><ele>0.6666666666666666</ele><time>2026-03-22T07:57:35.302Z</time></trkpt><trkpt lat="45.118069" lon="12.1768237"><ele>0.0</ele><time>2026-03-22T07:57:36.303Z</time></trkpt><trkpt lat="45.118182" lon="12.1765548"><ele>0.0</ele><time>2026-03-22T07:57:37.302Z</time></trkpt><trkpt lat="45.1182997" lon="12.1762955"><ele>0.0</ele><time>2026-03-22T07:57:38.296Z</time></trkpt><trkpt lat="45.1184181" lon="12.1760551"><ele>0.0</ele><time>2026-03-22T07:57:39.303Z</time></trkpt><trkpt lat="45.1185273" lon="12.175808"><ele>0.0</ele><time>2026-03-22T07:57:40.297Z</time></trkpt><trkpt lat="45.1186362" lon="12.1755765"><ele>0.0</ele><time>2026-03-22T07:57:41.3Z</time></trkpt><trkpt lat="45.1187379" lon="12.1753315"><ele>0.0</ele><time>2026-03-22T07:57:42.295Z</time></trkpt><trkpt lat="45.1188467" lon="12.1750911"><ele>-0.3333333333333333</ele><time>2026-03-22T07:57:43.301Z</time></trkpt><trkpt lat="45.1189558" lon="12.1748445"><ele>-0.6666666666666666</ele><time>2026-03-22T07:57:44.294Z</time></trkpt><trkpt lat="45.1190628" lon="12.1745941"><ele>-1.0</ele><time>2026-03-22T07:57:45.302Z</time></trkpt><trkpt lat="45.1191727" lon="12.1743307"><ele>-0.6666666666666666</ele><time>2026-03-22T07:57:46.294Z</time></trkpt><trkpt lat="45.1192746" lon="12.1740598"><ele>-0.3333333333333333</ele><time>2026-03-22T07:57:47.296Z</time></trkpt><trkpt lat="45.1193762" lon="12.1737815"><ele>0.0</ele><time>2026-03-22T07:57:48.3Z</time></trkpt><trkpt lat="45.1194791" lon="12.1734932"><ele>0.0</ele><time>2026-03-22T07:57:49.301Z</time></trkpt><trkpt lat="45.119571" lon="12.1732052"><ele>0.0</ele><time>2026-03-22T07:57:50.308Z</time></trkpt><trkpt lat="45.1196637" lon="12.172907"><ele>0.5</ele><time>2026-03-22T07:57:51.304Z</time></trkpt><trkpt lat="45.1197433" lon="12.1726039"><ele>1.0</ele><time>2026-03-22T07:57:52.298Z</time></trkpt><trkpt lat="45.1198205" lon="12.1723069"><ele>0.5</ele><time>2026-03-22T07:57:53.301Z</time></trkpt><trkpt lat="45.1199008" lon="12.1719922"><ele>0.0</ele><time>2026-03-22T07:57:54.298Z</time></trkpt><trkpt lat="45.1199701" lon="12.1716913"><ele>1.0</ele><time>2026-03-22T07:57:55.304Z</time></trkpt><trkpt lat="45.1200345" lon="12.1713862"><ele>2.0</ele><time>2026-03-22T07:57:56.302Z</time></trkpt><trkpt lat="45.1201035" lon="12.171072"><ele>2.0</ele><time>2026-03-22T07:57:57.303Z</time></trkpt><trkpt lat="45.1201631" lon="12.1707477"><ele>2.0</ele><time>2026-03-22T07:57:58.299Z</time></trkpt><trkpt lat="45.1202132" lon="12.1704317"><ele>2.5</ele><time>2026-03-22T07:57:59.306Z</time></trkpt><trkpt lat="45.1202596" lon="12.1701097"><ele>3.0</ele><time>2026-03-22T07:58:00.295Z</time></trkpt><trkpt lat="45.1202943" lon="12.1697785"><ele>2.0</ele><time>2026-03-22T07:58:01.302Z</time></trkpt><trkpt lat="45.1203303" lon="12.169447"><ele>1.0</ele><time>2026-03-22T07:58:02.301Z</time></trkpt><trkpt lat="45.1203726" lon="12.1691206"><ele>0.5</ele><time>2026-03-22T07:58:03.31Z</time></trkpt><trkpt lat="45.1204136" lon="12.1687879"><ele>0.0</ele><time>2026-03-22T07:58:04.299Z</time></trkpt><trkpt lat="45.1204523" lon="12.1684561"><ele>-1.0</ele><time>2026-03-22T07:58:05.306Z</time></trkpt><trkpt lat="45.1204905" lon="12.1681366"><ele>-2.0</ele><time>2026-03-22T07:58:06.298Z</time></trkpt><trkpt lat="45.1205266" lon="12.1678265"><ele>-2.0</ele><time>2026-03-22T07:58:07.307Z</time></trkpt><trkpt lat="45.1205622" lon="12.1675245"><ele>-2.0</ele><time>2026-03-22T07:58:08.303Z</time></trkpt><trkpt lat="45.120605" lon="12.1672189"><ele>-2.0</ele><time>2026-03-22T07:58:09.301Z</time></trkpt><trkpt lat="45.1206443" lon="12.1669052"><ele>-2.0</ele><time>2026-03-22T07:58:10.302Z</time></trkpt><trkpt lat="45.1206826" lon="12.1665867"><ele>-2.0</ele><time>2026-03-22T07:58:11.307Z</time></trkpt><trkpt lat="45.1207255" lon="12.1662707"><ele>-1.0</ele><time>2026-03-22T07:58:12.302Z</time></trkpt><trkpt lat="45.1207633" lon="12.165958"><ele>0.0</ele><time>2026-03-22T07:58:13.309Z</time></trkpt><trkpt lat="45.1207964" lon="12.1656549"><ele>1.0</ele><time>2026-03-22T07:58:14.301Z</time></trkpt><trkpt lat="45.1208332" lon="12.1653571"><ele>1.0</ele><time>2026-03-22T07:58:15.308Z</time></trkpt><trkpt lat="45.1208739" lon="12.1650701"><ele>1.0</ele><time>2026-03-22T07:58:16.302Z</time></trkpt><trkpt lat="45.1209102" lon="12.1647731"><ele>1.0</ele><time>2026-03-22T07:58:17.303Z</time></trkpt><trkpt lat="45.1209493" lon="12.1644734"><ele>1.0</ele><time>2026-03-22T07:58:18.303Z</time></trkpt><trkpt lat="45.1209829" lon="12.1641868"><ele>1.0</ele><time>2026-03-22T07:58:19.302Z</time></trkpt><trkpt lat="45.1210146" lon="12.1639159"><ele>1.0</ele><time>2026-03-22T07:58:20.307Z</time></trkpt><trkpt lat="45.1210527" lon="12.1636519"><ele>1.0</ele><time>2026-03-22T07:58:21.3Z</time></trkpt><trkpt lat="45.1210888" lon="12.1633981"><ele>1.0</ele><time>2026-03-22T07:58:22.3Z</time></trkpt><trkpt lat="45.1211173" lon="12.1631439"><ele>1.0</ele><time>2026-03-22T07:58:23.297Z</time></trkpt><trkpt lat="45.1211525" lon="12.16289"><ele>1.0</ele><time>2026-03-22T07:58:24.305Z</time></trkpt><trkpt lat="45.1211859" lon="12.162632"><ele>1.0</ele><time>2026-03-22T07:58:25.299Z</time></trkpt><trkpt lat="45.1212233" lon="12.1623595"><ele>1.0</ele><time>2026-03-22T07:58:26.312Z</time></trkpt><trkpt lat="45.1212607" lon="12.1620879"><ele>1.0</ele><time>2026-03-22T07:58:27.301Z</time></trkpt><trkpt lat="45.1213003" lon="12.1618102"><ele>1.0</ele><time>2026-03-22T07:58:28.304Z</time></trkpt><trkpt lat="45.1213379" lon="12.1615357"><ele>1.0</ele><time>2026-03-22T07:58:29.302Z</time></trkpt><trkpt lat="45.1213743" lon="12.1612478"><ele>0.6666666666666666</ele><time>2026-03-22T07:58:30.306Z</time></trkpt><trkpt lat="45.1214081" lon="12.1609538"><ele>0.3333333333333333</ele><time>2026-03-22T07:58:31.301Z</time></trkpt><trkpt lat="45.1214507" lon="12.1606569"><ele>0.0</ele><time>2026-03-22T07:58:32.296Z</time></trkpt><trkpt lat="45.1214906" lon="12.1603543"><ele>0.3333333333333333</ele><time>2026-03-22T07:58:33.3Z</time></trkpt><trkpt lat="45.1215268" lon="12.1600519"><ele>0.6666666666666666</ele><time>2026-03-22T07:58:34.298Z</time></trkpt><trkpt lat="45.1215686" lon="12.159744"><ele>1.0</ele><time>2026-03-22T07:58:35.3Z</time></trkpt><trkpt lat="45.1216188" lon="12.1594359"><ele>1.0</ele><time>2026-03-22T07:58:36.305Z</time></trkpt><trkpt lat="45.1216742" lon="12.1591186"><ele>1.0</ele><time>2026-03-22T07:58:37.306Z</time></trkpt><trkpt lat="45.1217256" lon="12.1588024"><ele>1.0</ele><time>2026-03-22T07:58:38.305Z</time></trkpt><trkpt lat="45.1217883" lon="12.1584833"><ele>1.0</ele><time>2026-03-22T07:58:39.3Z</time></trkpt><trkpt lat="45.1218625" lon="12.1581594"><ele>1.0</ele><time>2026-03-22T07:58:40.299Z</time></trkpt><trkpt lat="45.1219391" lon="12.1578479"><ele>1.0</ele><time>2026-03-22T07:58:41.3Z</time></trkpt><trkpt lat="45.1220107" lon="12.1575416"><ele>1.5</ele><time>2026-03-22T07:58:42.308Z</time></trkpt><trkpt lat="45.1220873" lon="12.1572293"><ele>2.0</ele><time>2026-03-22T07:58:43.299Z</time></trkpt><trkpt lat="45.1221698" lon="12.1569229"><ele>2.0</ele><time>2026-03-22T07:58:44.305Z</time></trkpt><trkpt lat="45.1222598" lon="12.1566204"><ele>2.0</ele><time>2026-03-22T07:58:45.301Z</time></trkpt><trkpt lat="45.1223463" lon="12.1563188"><ele>2.0</ele><time>2026-03-22T07:58:46.307Z</time></trkpt><trkpt lat="45.1224347" lon="12.15603"><ele>2.0</ele><time>2026-03-22T07:58:47.297Z</time></trkpt><trkpt lat="45.1225155" lon="12.1557505"><ele>2.0</ele><time>2026-03-22T07:58:48.306Z</time></trkpt><trkpt lat="45.1225897" lon="12.1554739"><ele>1.6666666666666665</ele><time>2026-03-22T07:58:49.302Z</time></trkpt><trkpt lat="45.1226653" lon="12.1552116"><ele>1.3333333333333333</ele><time>2026-03-22T07:58:50.305Z</time></trkpt><trkpt lat="45.1227398" lon="12.1549629"><ele>1.0</ele><time>2026-03-22T07:58:51.3Z</time></trkpt><trkpt lat="45.1228212" lon="12.1547017"><ele>1.0</ele><time>2026-03-22T07:58:52.301Z</time></trkpt><trkpt lat="45.1228913" lon="12.1544426"><ele>1.0</ele><time>2026-03-22T07:58:53.299Z</time></trkpt><trkpt lat="45.1229605" lon="12.154171"><ele>1.0</ele><time>2026-03-22T07:58:54.297Z</time></trkpt><trkpt lat="45.1230218" lon="12.1538902"><ele>0.6666666666666666</ele><time>2026-03-22T07:58:55.299Z</time></trkpt><trkpt lat="45.1230665" lon="12.1536019"><ele>0.3333333333333333</ele><time>2026-03-22T07:58:56.298Z</time></trkpt><trkpt lat="45.1231004" lon="12.1533085"><ele>0.0</ele><time>2026-03-22T07:58:57.307Z</time></trkpt><trkpt lat="45.1231325" lon="12.1529965"><ele>-0.5</ele><time>2026-03-22T07:58:58.301Z</time></trkpt><trkpt lat="45.1231565" lon="12.1526788"><ele>-1.0</ele><time>2026-03-22T07:58:59.299Z</time></trkpt><trkpt lat="45.1231704" lon="12.1523486"><ele>-1.0</ele><time>2026-03-22T07:59:00.299Z</time></trkpt><trkpt lat="45.1231697" lon="12.1520145"><ele>-1.0</ele><time>2026-03-22T07:59:01.303Z</time></trkpt><trkpt lat="45.1231574" lon="12.151677"><ele>-0.5</ele><time>2026-03-22T07:59:02.302Z</time></trkpt><trkpt lat="45.1231385" lon="12.1513374"><ele>0.0</ele><time>2026-03-22T07:59:03.3Z</time></trkpt><trkpt lat="45.1231086" lon="12.1510046"><ele>0.0</ele><time>2026-03-22T07:59:04.301Z</time></trkpt><trkpt lat="45.1230734" lon="12.1506671"><ele>0.0</ele><time>2026-03-22T07:59:05.298Z</time></trkpt><trkpt lat="45.1230306" lon="12.1503273"><ele>0.0</ele><time>2026-03-22T07:59:06.301Z</time></trkpt><trkpt lat="45.1229843" lon="12.1499944"><ele>0.0</ele><time>2026-03-22T07:59:07.301Z</time></trkpt><trkpt lat="45.1229387" lon="12.1496641"><ele>0.0</ele><time>2026-03-22T07:59:08.304Z</time></trkpt><trkpt lat="45.122878" lon="12.1493351"><ele>0.0</ele><time>2026-03-22T07:59:09.298Z</time></trkpt><trkpt lat="45.1228195" lon="12.1490042"><ele>0.5</ele><time>2026-03-22T07:59:10.298Z</time></trkpt><trkpt lat="45.1227594" lon="12.1486877"><ele>1.0</ele><time>2026-03-22T07:59:11.303Z</time></trkpt><trkpt lat="45.1226925" lon="12.1483773"><ele>1.5</ele><time>2026-03-22T07:59:12.298Z</time></trkpt><trkpt lat="45.1226144" lon="12.1480725"><ele>2.0</ele><time>2026-03-22T07:59:13.302Z</time></trkpt><trkpt lat="45.1225338" lon="12.1477731"><ele>2.0</ele><time>2026-03-22T07:59:14.3Z</time></trkpt><trkpt lat="45.1224488" lon="12.1474944"><ele>2.0</ele><time>2026-03-22T07:59:15.304Z</time></trkpt><trkpt lat="45.1223609" lon="12.1472307"><ele>2.0</ele><time>2026-03-22T07:59:16.297Z</time></trkpt><trkpt lat="45.122276" lon="12.1469841"><ele>1.3333333333333333</ele><time>2026-03-22T07:59:17.3Z</time></trkpt><trkpt lat="45.1221909" lon="12.1467378"><ele>0.6666666666666666</ele><time>2026-03-22T07:59:18.303Z</time></trkpt><trkpt lat="45.1221051" lon="12.1464826"><ele>0.0</ele><time>2026-03-22T07:59:19.304Z</time></trkpt><trkpt lat="45.122019" lon="12.1462262"><ele>0.0</ele><time>2026-03-22T07:59:20.304Z</time></trkpt><trkpt lat="45.1219226" lon="12.1459627"><ele>0.0</ele><time>2026-03-22T07:59:21.302Z</time></trkpt><trkpt lat="45.1218323" lon="12.1457049"><ele>0.0</ele><time>2026-03-22T07:59:22.305Z</time></trkpt><trkpt lat="45.1217418" lon="12.1454383"><ele>0.0</ele><time>2026-03-22T07:59:23.297Z</time></trkpt><trkpt lat="45.1216519" lon="12.1451653"><ele>0.0</ele><time>2026-03-22T07:59:24.302Z</time></trkpt><trkpt lat="45.1215616" lon="12.144897"><ele>0.0</ele><time>2026-03-22T07:59:25.298Z</time></trkpt><trkpt lat="45.1214758" lon="12.1446331"><ele>0.0</ele><time>2026-03-22T07:59:26.307Z</time></trkpt><trkpt lat="45.1213933" lon="12.1443644"><ele>0.0</ele><time>2026-03-22T07:59:27.3Z</time></trkpt><trkpt lat="45.1213172" lon="12.1440987"><ele>0.0</ele><time>2026-03-22T07:59:28.3Z</time></trkpt><trkpt lat="45.1212549" lon="12.1438208"><ele>0.0</ele><time>2026-03-22T07:59:29.3Z</time></trkpt><trkpt lat="45.1212086" lon="12.1435395"><ele>0.0</ele><time>2026-03-22T07:59:30.295Z</time></trkpt><trkpt lat="45.1211734" lon="12.143256"><ele>0.0</ele><time>2026-03-22T07:59:31.298Z</time></trkpt><trkpt lat="45.1211535" lon="12.1429848"><ele>0.3333333333333333</ele><time>2026-03-22T07:59:32.296Z</time></trkpt><trkpt lat="45.1211537" lon="12.1427252"><ele>0.6666666666666666</ele><time>2026-03-22T07:59:33.298Z</time></trkpt><trkpt lat="45.1211714" lon="12.1424669"><ele>1.0</ele><time>2026-03-22T07:59:34.289Z</time></trkpt><trkpt lat="45.1212151" lon="12.1422268"><ele>1.3333333333333333</ele><time>2026-03-22T07:59:35.298Z</time></trkpt><trkpt lat="45.1212794" lon="12.1419788"><ele>1.6666666666666665</ele><time>2026-03-22T07:59:36.293Z</time></trkpt><trkpt lat="45.1213595" lon="12.141736"><ele>2.0</ele><time>2026-03-22T07:59:37.297Z</time></trkpt><trkpt lat="45.1214397" lon="12.1414892"><ele>2.0</ele><time>2026-03-22T07:59:38.299Z</time></trkpt><trkpt lat="45.1215212" lon="12.1412427"><ele>2.0</ele><time>2026-03-22T07:59:39.302Z</time></trkpt><trkpt lat="45.1216014" lon="12.140996"><ele>2.0</ele><time>2026-03-22T07:59:40.299Z</time></trkpt><trkpt lat="45.1216758" lon="12.1407647"><ele>1.6666666666666665</ele><time>2026-03-22T07:59:41.305Z</time></trkpt><trkpt lat="45.1217579" lon="12.1405468"><ele>1.3333333333333333</ele><time>2026-03-22T07:59:42.3Z</time></trkpt><trkpt lat="45.1218494" lon="12.1403292"><ele>1.0</ele><time>2026-03-22T07:59:43.305Z</time></trkpt><trkpt lat="45.121949" lon="12.1401209"><ele>1.0</ele><time>2026-03-22T07:59:44.304Z</time></trkpt><trkpt lat="45.1220558" lon="12.1399172"><ele>1.0</ele><time>2026-03-22T07:59:45.302Z</time></trkpt><trkpt lat="45.1221531" lon="12.1397259"><ele>1.0</ele><time>2026-03-22T07:59:46.297Z</time></trkpt><trkpt lat="45.1222478" lon="12.1395266"><ele>1.3333333333333333</ele><time>2026-03-22T07:59:47.299Z</time></trkpt><trkpt lat="45.1223547" lon="12.1393363"><ele>1.6666666666666665</ele><time>2026-03-22T07:59:48.298Z</time></trkpt><trkpt lat="45.1224709" lon="12.1391403"><ele>2.0</ele><time>2026-03-22T07:59:49.295Z</time></trkpt><trkpt lat="45.122603" lon="12.1389523"><ele>1.0</ele><time>2026-03-22T07:59:50.298Z</time></trkpt><trkpt lat="45.1227327" lon="12.1387508"><ele>0.0</ele><time>2026-03-22T07:59:51.303Z</time></trkpt><trkpt lat="45.1228664" lon="12.1385404"><ele>-1.0</ele><time>2026-03-22T07:59:52.301Z</time></trkpt><trkpt lat="45.1230017" lon="12.1383214"><ele>-1.3333333333333333</ele><time>2026-03-22T07:59:53.305Z</time></trkpt><trkpt lat="45.1231349" lon="12.1381012"><ele>-1.6666666666666665</ele><time>2026-03-22T07:59:54.299Z</time></trkpt><trkpt lat="45.1232708" lon="12.1378915"><ele>-2.0</ele><time>2026-03-22T07:59:55.298Z</time></trkpt><trkpt lat="45.1234103" lon="12.1376765"><ele>-1.3333333333333333</ele><time>2026-03-22T07:59:56.304Z</time></trkpt><trkpt lat="45.1235439" lon="12.1374735"><ele>-0.6666666666666666</ele><time>2026-03-22T07:59:57.303Z</time></trkpt><trkpt lat="45.123676" lon="12.1372612"><ele>0.0</ele><time>2026-03-22T07:59:58.305Z</time></trkpt><trkpt lat="45.1238078" lon="12.1370573"><ele>0.0</ele><time>2026-03-22T07:59:59.296Z</time></trkpt><trkpt lat="45.1239407" lon="12.1368488"><ele>0.0</ele><time>2026-03-22T08:00:00.298Z</time></trkpt><trkpt lat="45.1240691" lon="12.1366433"><ele>0.0</ele><time>2026-03-22T08:00:01.298Z</time></trkpt><trkpt lat="45.1242036" lon="12.1364391"><ele>0.6666666666666666</ele><time>2026-03-22T08:00:02.312Z</time></trkpt><trkpt lat="45.1243374" lon="12.1362327"><ele>1.3333333333333333</ele><time>2026-03-22T08:00:03.298Z</time></trkpt><trkpt lat="45.1244726" lon="12.1360269"><ele>2.0</ele><time>2026-03-22T08:00:04.297Z</time></trkpt><trkpt lat="45.1246005" lon="12.1358254"><ele>2.0</ele><time>2026-03-22T08:00:05.296Z</time></trkpt><trkpt lat="45.1247332" lon="12.1356125"><ele>2.0</ele><time>2026-03-22T08:00:06.298Z</time></trkpt><trkpt lat="45.1248685" lon="12.1354058"><ele>2.0</ele><time>2026-03-22T08:00:07.296Z</time></trkpt><trkpt lat="45.1249996" lon="12.1351999"><ele>2.0</ele><time>2026-03-22T08:00:08.3Z</time></trkpt><trkpt lat="45.1251352" lon="12.13499"><ele>2.0</ele><time>2026-03-22T08:00:09.3Z</time></trkpt><trkpt lat="45.1252768" lon="12.1347781"><ele>2.0</ele><time>2026-03-22T08:00:10.317Z</time></trkpt><trkpt lat="45.125417" lon="12.1345632"><ele>2.0</ele><time>2026-03-22T08:00:11.298Z</time></trkpt><trkpt lat="45.1255622" lon="12.1343441"><ele>2.0</ele><time>2026-03-22T08:00:12.302Z</time></trkpt><trkpt lat="45.1256981" lon="12.134126"><ele>2.0</ele><time>2026-03-22T08:00:13.295Z</time></trkpt><trkpt lat="45.1258347" lon="12.1338964"><ele>1.6666666666666665</ele><time>2026-03-22T08:00:14.296Z</time></trkpt><trkpt lat="45.1259605" lon="12.1336552"><ele>1.3333333333333333</ele><time>2026-03-22T08:00:15.298Z</time></trkpt><trkpt lat="45.1260777" lon="12.1334062"><ele>1.0</ele><time>2026-03-22T08:00:16.298Z</time></trkpt><trkpt lat="45.126184" lon="12.1331629"><ele>0.6666666666666666</ele><time>2026-03-22T08:00:17.302Z</time></trkpt><trkpt lat="45.1262814" lon="12.1329094"><ele>0.3333333333333333</ele><time>2026-03-22T08:00:18.294Z</time></trkpt><trkpt lat="45.1263694" lon="12.1326441"><ele>0.0</ele><time>2026-03-22T08:00:19.302Z</time></trkpt><trkpt lat="45.126452" lon="12.1323675"><ele>0.0</ele><time>2026-03-22T08:00:20.292Z</time></trkpt><trkpt lat="45.1265235" lon="12.1320732"><ele>0.0</ele><time>2026-03-22T08:00:21.299Z</time></trkpt><trkpt lat="45.1265844" lon="12.1317729"><ele>0.0</ele><time>2026-03-22T08:00:22.302Z</time></trkpt><trkpt lat="45.1266502" lon="12.1314822"><ele>0.0</ele><time>2026-03-22T08:00:23.3Z</time></trkpt><trkpt lat="45.1267211" lon="12.1311853"><ele>0.0</ele><time>2026-03-22T08:00:24.297Z</time></trkpt><trkpt lat="45.1267869" lon="12.1308936"><ele>0.0</ele><time>2026-03-22T08:00:25.298Z</time></trkpt><trkpt lat="45.1268604" lon="12.1305977"><ele>0.0</ele><time>2026-03-22T08:00:26.299Z</time></trkpt><trkpt lat="45.1269332" lon="12.1303107"><ele>0.0</ele><time>2026-03-22T08:00:27.301Z</time></trkpt><trkpt lat="45.127005" lon="12.1300139"><ele>0.0</ele><time>2026-03-22T08:00:28.304Z</time></trkpt><trkpt lat="45.1270778" lon="12.1297167"><ele>0.0</ele><time>2026-03-22T08:00:29.3Z</time></trkpt><trkpt lat="45.1271477" lon="12.1294276"><ele>0.0</ele><time>2026-03-22T08:00:30.299Z</time></trkpt><trkpt lat="45.1272323" lon="12.1291385"><ele>0.0</ele><time>2026-03-22T08:00:31.296Z</time></trkpt><trkpt lat="45.1273196" lon="12.1288552"><ele>0.3333333333333333</ele><time>2026-03-22T08:00:32.313Z</time></trkpt><trkpt lat="45.1274058" lon="12.1285819"><ele>0.6666666666666666</ele><time>2026-03-22T08:00:33.297Z</time></trkpt><trkpt lat="45.1275029" lon="12.1282991"><ele>1.0</ele><time>2026-03-22T08:00:34.299Z</time></trkpt><trkpt lat="45.1276028" lon="12.1280288"><ele>1.0</ele><time>2026-03-22T08:00:35.293Z</time></trkpt><trkpt lat="45.1277104" lon="12.1277729"><ele>1.0</ele><time>2026-03-22T08:00:36.295Z</time></trkpt><trkpt lat="45.1278393" lon="12.1275118"><ele>1.0</ele><time>2026-03-22T08:00:37.3Z</time></trkpt><trkpt lat="45.1279599" lon="12.1272562"><ele>0.6666666666666666</ele><time>2026-03-22T08:00:38.293Z</time></trkpt><trkpt lat="45.1280829" lon="12.1270068"><ele>0.3333333333333333</ele><time>2026-03-22T08:00:39.293Z</time></trkpt><trkpt lat="45.1282082" lon="12.1267799"><ele>0.0</ele><time>2026-03-22T08:00:40.31Z</time></trkpt><trkpt lat="45.1283323" lon="12.1265567"><ele>0.0</ele><time>2026-03-22T08:00:41.298Z</time></trkpt><trkpt lat="45.1284649" lon="12.1263469"><ele>0.0</ele><time>2026-03-22T08:00:42.301Z</time></trkpt><trkpt lat="45.128603" lon="12.1261446"><ele>0.0</ele><time>2026-03-22T08:00:43.299Z</time></trkpt><trkpt lat="45.128744" lon="12.1259561"><ele>0.0</ele><time>2026-03-22T08:00:44.297Z</time></trkpt><trkpt lat="45.1288913" lon="12.1257735"><ele>0.0</ele><time>2026-03-22T08:00:45.299Z</time></trkpt><trkpt lat="45.1290407" lon="12.1255945"><ele>0.0</ele><time>2026-03-22T08:00:46.291Z</time></trkpt><trkpt lat="45.1292039" lon="12.1254171"><ele>0.3333333333333333</ele><time>2026-03-22T08:00:47.295Z</time></trkpt><trkpt lat="45.1293729" lon="12.1252508"><ele>0.6666666666666666</ele><time>2026-03-22T08:00:48.296Z</time></trkpt><trkpt lat="45.1295561" lon="12.1251017"><ele>1.0</ele><time>2026-03-22T08:00:49.305Z</time></trkpt><trkpt lat="45.1297399" lon="12.1249555"><ele>0.3333333333333333</ele><time>2026-03-22T08:00:50.296Z</time></trkpt><trkpt lat="45.1299282" lon="12.1248042"><ele>-0.3333333333333333</ele><time>2026-03-22T08:00:51.295Z</time></trkpt><trkpt lat="45.1301129" lon="12.1246607"><ele>-1.0</ele><time>2026-03-22T08:00:52.302Z</time></trkpt><trkpt lat="45.1302919" lon="12.1245157"><ele>-1.0</ele><time>2026-03-22T08:00:53.299Z</time></trkpt><trkpt lat="45.1304737" lon="12.124376"><ele>-1.0</ele><time>2026-03-22T08:00:54.296Z</time></trkpt><trkpt lat="45.1306406" lon="12.1242368"><ele>-1.0</ele><time>2026-03-22T08:00:55.288Z</time></trkpt><trkpt lat="45.1307841" lon="12.1241104"><ele>-0.6666666666666666</ele><time>2026-03-22T08:00:56.298Z</time></trkpt><trkpt lat="45.1309251" lon="12.1239925"><ele>-0.3333333333333333</ele><time>2026-03-22T08:00:57.296Z</time></trkpt><trkpt lat="45.1310711" lon="12.123872"><ele>0.0</ele><time>2026-03-22T08:00:58.298Z</time></trkpt><trkpt lat="45.1312251" lon="12.1237418"><ele>0.0</ele><time>2026-03-22T08:00:59.299Z</time></trkpt><trkpt lat="45.1313818" lon="12.1236071"><ele>0.0</ele><time>2026-03-22T08:01:00.303Z</time></trkpt><trkpt lat="45.131533" lon="12.1234654"><ele>0.0</ele><time>2026-03-22T08:01:01.297Z</time></trkpt><trkpt lat="45.1316866" lon="12.1233109"><ele>-0.3333333333333333</ele><time>2026-03-22T08:01:02.314Z</time></trkpt><trkpt lat="45.1318362" lon="12.1231451"><ele>-0.6666666666666666</ele><time>2026-03-22T08:01:03.296Z</time></trkpt><trkpt lat="45.1319885" lon="12.1229732"><ele>-1.0</ele><time>2026-03-22T08:01:04.296Z</time></trkpt><trkpt lat="45.1321447" lon="12.1228028"><ele>-1.0</ele><time>2026-03-22T08:01:05.295Z</time></trkpt><trkpt lat="45.132297" lon="12.1226263"><ele>-1.0</ele><time>2026-03-22T08:01:06.299Z</time></trkpt><trkpt lat="45.1324569" lon="12.1224366"><ele>-1.0</ele><time>2026-03-22T08:01:07.299Z</time></trkpt><trkpt lat="45.1326098" lon="12.1222293"><ele>-1.0</ele><time>2026-03-22T08:01:08.301Z</time></trkpt><trkpt lat="45.1327424" lon="12.1220071"><ele>-1.0</ele><time>2026-03-22T08:01:09.299Z</time></trkpt><trkpt lat="45.1328559" lon="12.1217655"><ele>-1.0</ele><time>2026-03-22T08:01:10.304Z</time></trkpt><trkpt lat="45.1329488" lon="12.1214978"><ele>-1.0</ele><time>2026-03-22T08:01:11.291Z</time></trkpt><trkpt lat="45.1330364" lon="12.121207"><ele>-1.0</ele><time>2026-03-22T08:01:12.294Z</time></trkpt><trkpt lat="45.1331158" lon="12.120911"><ele>-1.0</ele><time>2026-03-22T08:01:13.301Z</time></trkpt><trkpt lat="45.1331992" lon="12.1206167"><ele>0.5</ele><time>2026-03-22T08:01:14.299Z</time></trkpt><trkpt lat="45.1332783" lon="12.1203149"><ele>2.0</ele><time>2026-03-22T08:01:15.311Z</time></trkpt><trkpt lat="45.1333493" lon="12.120015"><ele>1.6666666666666665</ele><time>2026-03-22T08:01:16.297Z</time></trkpt><trkpt lat="45.1334205" lon="12.1197215"><ele>1.3333333333333333</ele><time>2026-03-22T08:01:17.298Z</time></trkpt><trkpt lat="45.1334906" lon="12.119442"><ele>1.0</ele><time>2026-03-22T08:01:18.303Z</time></trkpt><trkpt lat="45.1335561" lon="12.1191825"><ele>0.3333333333333333</ele><time>2026-03-22T08:01:19.303Z</time></trkpt><trkpt lat="45.1336168" lon="12.1189332"><ele>-0.3333333333333333</ele><time>2026-03-22T08:01:20.299Z</time></trkpt><trkpt lat="45.1336788" lon="12.1186916"><ele>-1.0</ele><time>2026-03-22T08:01:21.298Z</time></trkpt><trkpt lat="45.1337372" lon="12.1184416"><ele>-1.3333333333333333</ele><time>2026-03-22T08:01:22.303Z</time></trkpt><trkpt lat="45.1338069" lon="12.1181959"><ele>-1.6666666666666665</ele><time>2026-03-22T08:01:23.298Z</time></trkpt><trkpt lat="45.1338814" lon="12.1179443"><ele>-2.0</ele><time>2026-03-22T08:01:24.302Z</time></trkpt><trkpt lat="45.1339633" lon="12.1176904"><ele>-2.0</ele><time>2026-03-22T08:01:25.299Z</time></trkpt><trkpt lat="45.1340482" lon="12.1174581"><ele>-2.0</ele><time>2026-03-22T08:01:26.303Z</time></trkpt><trkpt lat="45.1341355" lon="12.1172507"><ele>-2.0</ele><time>2026-03-22T08:01:27.306Z</time></trkpt><trkpt lat="45.1342298" lon="12.1170486"><ele>-1.3333333333333333</ele><time>2026-03-22T08:01:28.301Z</time></trkpt><trkpt lat="45.1343366" lon="12.1168521"><ele>-0.6666666666666666</ele><time>2026-03-22T08:01:29.298Z</time></trkpt><trkpt lat="45.1344586" lon="12.1166823"><ele>0.0</ele><time>2026-03-22T08:01:30.299Z</time></trkpt><trkpt lat="45.1345954" lon="12.1165344"><ele>0.0</ele><time>2026-03-22T08:01:31.297Z</time></trkpt><trkpt lat="45.13474" lon="12.116405"><ele>0.0</ele><time>2026-03-22T08:01:32.31Z</time></trkpt><trkpt lat="45.1348892" lon="12.1162985"><ele>0.0</ele><time>2026-03-22T08:01:33.301Z</time></trkpt><trkpt lat="45.1350446" lon="12.1161972"><ele>0.6666666666666666</ele><time>2026-03-22T08:01:34.301Z</time></trkpt><trkpt lat="45.1351927" lon="12.1161014"><ele>1.3333333333333333</ele><time>2026-03-22T08:01:35.306Z</time></trkpt><trkpt lat="45.1353435" lon="12.116001"><ele>2.0</ele><time>2026-03-22T08:01:36.303Z</time></trkpt><trkpt lat="45.1355056" lon="12.1158955"><ele>2.0</ele><time>2026-03-22T08:01:37.305Z</time></trkpt><trkpt lat="45.1356617" lon="12.1157729"><ele>2.0</ele><time>2026-03-22T08:01:38.298Z</time></trkpt><trkpt lat="45.1358057" lon="12.1156318"><ele>2.0</ele><time>2026-03-22T08:01:39.297Z</time></trkpt><trkpt lat="45.1359454" lon="12.115477"><ele>1.6666666666666665</ele><time>2026-03-22T08:01:40.304Z</time></trkpt><trkpt lat="45.1360714" lon="12.1153025"><ele>1.3333333333333333</ele><time>2026-03-22T08:01:41.298Z</time></trkpt><trkpt lat="45.1361924" lon="12.1151213"><ele>1.0</ele><time>2026-03-22T08:01:42.294Z</time></trkpt><trkpt lat="45.1363041" lon="12.1149223"><ele>1.0</ele><time>2026-03-22T08:01:43.301Z</time></trkpt><trkpt lat="45.1364098" lon="12.1147219"><ele>1.0</ele><time>2026-03-22T08:01:44.302Z</time></trkpt><trkpt lat="45.1365164" lon="12.1145024"><ele>1.0</ele><time>2026-03-22T08:01:45.298Z</time></trkpt><trkpt lat="45.1366055" lon="12.1142652"><ele>0.6666666666666666</ele><time>2026-03-22T08:01:46.295Z</time></trkpt><trkpt lat="45.1367029" lon="12.1140415"><ele>0.3333333333333333</ele><time>2026-03-22T08:01:47.295Z</time></trkpt><trkpt lat="45.1367903" lon="12.1138097"><ele>0.0</ele><time>2026-03-22T08:01:48.302Z</time></trkpt><trkpt lat="45.136867" lon="12.1135692"><ele>0.0</ele><time>2026-03-22T08:01:49.303Z</time></trkpt><trkpt lat="45.1369348" lon="12.1133171"><ele>0.0</ele><time>2026-03-22T08:01:50.295Z</time></trkpt><trkpt lat="45.1369833" lon="12.1130491"><ele>0.0</ele><time>2026-03-22T08:01:51.294Z</time></trkpt><trkpt lat="45.1370049" lon="12.1127568"><ele>0.0</ele><time>2026-03-22T08:01:52.293Z</time></trkpt><trkpt lat="45.1370163" lon="12.1124611"><ele>0.0</ele><time>2026-03-22T08:01:53.298Z</time></trkpt><trkpt lat="45.1370094" lon="12.1121486"><ele>0.0</ele><time>2026-03-22T08:01:54.294Z</time></trkpt><trkpt lat="45.1369744" lon="12.111823"><ele>1.0</ele><time>2026-03-22T08:01:55.302Z</time></trkpt><trkpt lat="45.1369101" lon="12.1115116"><ele>2.0</ele><time>2026-03-22T08:01:56.301Z</time></trkpt><trkpt lat="45.1368089" lon="12.1111988"><ele>2.0</ele><time>2026-03-22T08:01:57.303Z</time></trkpt><trkpt lat="45.1366911" lon="12.1109068"><ele>2.0</ele><time>2026-03-22T08:01:58.287Z</time></trkpt><trkpt lat="45.1365686" lon="12.1106481"><ele>1.0</ele><time>2026-03-22T08:01:59.299Z</time></trkpt><trkpt lat="45.1364502" lon="12.1104269"><ele>0.0</ele><time>2026-03-22T08:02:00.294Z</time></trkpt><trkpt lat="45.1363553" lon="12.1101864"><ele>-1.0</ele><time>2026-03-22T08:02:01.291Z</time></trkpt><trkpt lat="45.1362851" lon="12.109949"><ele>-0.6666666666666666</ele><time>2026-03-22T08:02:02.299Z</time></trkpt><trkpt lat="45.1362341" lon="12.1097168"><ele>-0.3333333333333333</ele><time>2026-03-22T08:02:03.295Z</time></trkpt><trkpt lat="45.1362037" lon="12.1094724"><ele>0.0</ele><time>2026-03-22T08:02:04.294Z</time></trkpt><trkpt lat="45.1361846" lon="12.1092257"><ele>0.3333333333333333</ele><time>2026-03-22T08:02:05.289Z</time></trkpt><trkpt lat="45.1361726" lon="12.1089791"><ele>0.6666666666666666</ele><time>2026-03-22T08:02:06.296Z</time></trkpt><trkpt lat="45.1361718" lon="12.1087246"><ele>1.0</ele><time>2026-03-22T08:02:07.3Z</time></trkpt><trkpt lat="45.136184" lon="12.1084725"><ele>1.3333333333333333</ele><time>2026-03-22T08:02:08.294Z</time></trkpt><trkpt lat="45.1362167" lon="12.1082303"><ele>1.6666666666666665</ele><time>2026-03-22T08:02:09.297Z</time></trkpt><trkpt lat="45.1362653" lon="12.1080063"><ele>2.0</ele><time>2026-03-22T08:02:10.297Z</time></trkpt><trkpt lat="45.1363331" lon="12.1077925"><ele>2.0</ele><time>2026-03-22T08:02:11.291Z</time></trkpt><trkpt lat="45.1364183" lon="12.1075835"><ele>2.0</ele><time>2026-03-22T08:02:12.292Z</time></trkpt><trkpt lat="45.1365175" lon="12.1073829"><ele>2.0</ele><time>2026-03-22T08:02:13.299Z</time></trkpt><trkpt lat="45.1366361" lon="12.1071866"><ele>2.333333333333333</ele><time>2026-03-22T08:02:14.298Z</time></trkpt><trkpt lat="45.1367706" lon="12.1070082"><ele>2.6666666666666665</ele><time>2026-03-22T08:02:15.302Z</time></trkpt><trkpt lat="45.136911" lon="12.1068327"><ele>3.0</ele><time>2026-03-22T08:02:16.303Z</time></trkpt><trkpt lat="45.1370555" lon="12.1066609"><ele>2.6666666666666665</ele><time>2026-03-22T08:02:17.31Z</time></trkpt><trkpt lat="45.1372002" lon="12.106492"><ele>2.333333333333333</ele><time>2026-03-22T08:02:18.305Z</time></trkpt><trkpt lat="45.1373565" lon="12.1063316"><ele>2.0</ele><time>2026-03-22T08:02:19.308Z</time></trkpt><trkpt lat="45.1375058" lon="12.1061822"><ele>2.0</ele><time>2026-03-22T08:02:20.303Z</time></trkpt><trkpt lat="45.1376567" lon="12.1060417"><ele>2.0</ele><time>2026-03-22T08:02:21.304Z</time></trkpt><trkpt lat="45.1378026" lon="12.1059117"><ele>2.0</ele><time>2026-03-22T08:02:22.303Z</time></trkpt><trkpt lat="45.1379437" lon="12.1057798"><ele>1.6666666666666665</ele><time>2026-03-22T08:02:23.299Z</time></trkpt><trkpt lat="45.1380951" lon="12.105649"><ele>1.3333333333333333</ele><time>2026-03-22T08:02:24.296Z</time></trkpt><trkpt lat="45.1382504" lon="12.1055288"><ele>1.0</ele><time>2026-03-22T08:02:25.307Z</time></trkpt><trkpt lat="45.1384115" lon="12.1054127"><ele>1.0</ele><time>2026-03-22T08:02:26.297Z</time></trkpt><trkpt lat="45.1385784" lon="12.1052889"><ele>1.0</ele><time>2026-03-22T08:02:27.3Z</time></trkpt><trkpt lat="45.1387438" lon="12.105152"><ele>1.0</ele><time>2026-03-22T08:02:28.3Z</time></trkpt><trkpt lat="45.1389035" lon="12.1050117"><ele>1.3333333333333333</ele><time>2026-03-22T08:02:29.304Z</time></trkpt><trkpt lat="45.139069" lon="12.104861"><ele>1.6666666666666665</ele><time>2026-03-22T08:02:30.303Z</time></trkpt><trkpt lat="45.1392281" lon="12.1046956"><ele>2.0</ele><time>2026-03-22T08:02:31.3Z</time></trkpt><trkpt lat="45.1393881" lon="12.1045189"><ele>2.0</ele><time>2026-03-22T08:02:32.311Z</time></trkpt><trkpt lat="45.1395388" lon="12.1043281"><ele>2.0</ele><time>2026-03-22T08:02:33.302Z</time></trkpt><trkpt lat="45.1396921" lon="12.104118"><ele>2.0</ele><time>2026-03-22T08:02:34.308Z</time></trkpt><trkpt lat="45.1398375" lon="12.103897"><ele>2.0</ele><time>2026-03-22T08:02:35.304Z</time></trkpt><trkpt lat="45.139981" lon="12.1036679"><ele>2.0</ele><time>2026-03-22T08:02:36.301Z</time></trkpt><trkpt lat="45.1401165" lon="12.1034278"><ele>2.0</ele><time>2026-03-22T08:02:37.298Z</time></trkpt><trkpt lat="45.1402336" lon="12.1031688"><ele>2.333333333333333</ele><time>2026-03-22T08:02:38.297Z</time></trkpt><trkpt lat="45.1403234" lon="12.1029095"><ele>2.6666666666666665</ele><time>2026-03-22T08:02:39.293Z</time></trkpt><trkpt lat="45.1403978" lon="12.1026568"><ele>3.0</ele><time>2026-03-22T08:02:40.3Z</time></trkpt><trkpt lat="45.140465" lon="12.1024154"><ele>2.3333333333333335</ele><time>2026-03-22T08:02:41.3Z</time></trkpt><trkpt lat="45.1405227" lon="12.1021682"><ele>1.6666666666666665</ele><time>2026-03-22T08:02:42.297Z</time></trkpt><trkpt lat="45.1405619" lon="12.101941"><ele>1.0</ele><time>2026-03-22T08:02:43.296Z</time></trkpt><trkpt lat="45.1405939" lon="12.1016986"><ele>0.3333333333333333</ele><time>2026-03-22T08:02:44.299Z</time></trkpt><trkpt lat="45.1406281" lon="12.1014451"><ele>-0.3333333333333333</ele><time>2026-03-22T08:02:45.305Z</time></trkpt><trkpt lat="45.1406555" lon="12.1011877"><ele>-1.0</ele><time>2026-03-22T08:02:46.303Z</time></trkpt><trkpt lat="45.140673" lon="12.1009174"><ele>-1.0</ele><time>2026-03-22T08:02:47.297Z</time></trkpt><trkpt lat="45.1406842" lon="12.1006421"><ele>-1.0</ele><time>2026-03-22T08:02:48.302Z</time></trkpt><trkpt lat="45.1406854" lon="12.1003592"><ele>-1.0</ele><time>2026-03-22T08:02:49.307Z</time></trkpt><trkpt lat="45.1406752" lon="12.1000696"><ele>-0.6666666666666666</ele><time>2026-03-22T08:02:50.298Z</time></trkpt><trkpt lat="45.1406531" lon="12.0997648"><ele>-0.3333333333333333</ele><time>2026-03-22T08:02:51.301Z</time></trkpt><trkpt lat="45.1406187" lon="12.0994568"><ele>0.0</ele><time>2026-03-22T08:02:52.293Z</time></trkpt><trkpt lat="45.1405791" lon="12.0991472"><ele>0.3333333333333333</ele><time>2026-03-22T08:02:53.303Z</time></trkpt><trkpt lat="45.1405283" lon="12.0988451"><ele>0.6666666666666666</ele><time>2026-03-22T08:02:54.298Z</time></trkpt><trkpt lat="45.140468" lon="12.0985309"><ele>1.0</ele><time>2026-03-22T08:02:55.308Z</time></trkpt><trkpt lat="45.1404157" lon="12.0982275"><ele>1.0</ele><time>2026-03-22T08:02:56.298Z</time></trkpt><trkpt lat="45.1403652" lon="12.0979259"><ele>1.0</ele><time>2026-03-22T08:02:57.301Z</time></trkpt><trkpt lat="45.1403195" lon="12.0976439"><ele>1.0</ele><time>2026-03-22T08:02:58.304Z</time></trkpt><trkpt lat="45.1402729" lon="12.0973717"><ele>1.0</ele><time>2026-03-22T08:02:59.304Z</time></trkpt><trkpt lat="45.140223" lon="12.0970904"><ele>1.0</ele><time>2026-03-22T08:03:00.306Z</time></trkpt><trkpt lat="45.1401719" lon="12.0968096"><ele>1.0</ele><time>2026-03-22T08:03:01.304Z</time></trkpt><trkpt lat="45.1401185" lon="12.0965373"><ele>1.3333333333333333</ele><time>2026-03-22T08:03:02.309Z</time></trkpt><trkpt lat="45.1400651" lon="12.0962832"><ele>1.6666666666666665</ele><time>2026-03-22T08:03:03.305Z</time></trkpt><trkpt lat="45.1400115" lon="12.0960418"><ele>2.0</ele><time>2026-03-22T08:03:04.31Z</time></trkpt><trkpt lat="45.1399592" lon="12.0957897"><ele>1.6666666666666665</ele><time>2026-03-22T08:03:05.303Z</time></trkpt><trkpt lat="45.1398953" lon="12.0955345"><ele>1.3333333333333333</ele><time>2026-03-22T08:03:06.298Z</time></trkpt><trkpt lat="45.139831" lon="12.0952863"><ele>1.0</ele><time>2026-03-22T08:03:07.301Z</time></trkpt><trkpt lat="45.1397573" lon="12.0950388"><ele>1.3333333333333333</ele><time>2026-03-22T08:03:08.303Z</time></trkpt><trkpt lat="45.1396755" lon="12.0947866"><ele>1.6666666666666665</ele><time>2026-03-22T08:03:09.302Z</time></trkpt><trkpt lat="45.139587" lon="12.0945392"><ele>2.0</ele><time>2026-03-22T08:03:10.301Z</time></trkpt><trkpt lat="45.1394862" lon="12.0942861"><ele>2.6666666666666665</ele><time>2026-03-22T08:03:11.308Z</time></trkpt><trkpt lat="45.1393868" lon="12.0940363"><ele>3.333333333333333</ele><time>2026-03-22T08:03:12.302Z</time></trkpt><trkpt lat="45.1392867" lon="12.0938012"><ele>4.0</ele><time>2026-03-22T08:03:13.303Z</time></trkpt><trkpt lat="45.1391798" lon="12.0935806"><ele>4.0</ele><time>2026-03-22T08:03:14.299Z</time></trkpt><trkpt lat="45.1390905" lon="12.093377"><ele>4.0</ele><time>2026-03-22T08:03:15.31Z</time></trkpt><trkpt lat="45.1389941" lon="12.093178"><ele>4.0</ele><time>2026-03-22T08:03:16.301Z</time></trkpt><trkpt lat="45.1389018" lon="12.0929832"><ele>4.25</ele><time>2026-03-22T08:03:17.303Z</time></trkpt><trkpt lat="45.1388086" lon="12.0928013"><ele>4.5</ele><time>2026-03-22T08:03:18.296Z</time></trkpt><trkpt lat="45.1387214" lon="12.0926274"><ele>4.75</ele><time>2026-03-22T08:03:19.309Z</time></trkpt><trkpt lat="45.1386454" lon="12.0924846"><ele>5.0</ele><time>2026-03-22T08:03:20.302Z</time></trkpt><trkpt lat="45.138583" lon="12.0923945"><ele>5.0</ele><time>2026-03-22T08:03:21.298Z</time></trkpt><trkpt lat="45.1385222" lon="12.0923151"><ele>5.0</ele><time>2026-03-22T08:03:22.298Z</time></trkpt><trkpt lat="45.138468" lon="12.092214"><ele>5.0</ele><time>2026-03-22T08:03:23.3Z</time></trkpt><trkpt lat="45.1384209" lon="12.0921034"><ele>5.0</ele><time>2026-03-22T08:03:24.304Z</time></trkpt><trkpt lat="45.13838" lon="12.0919866"><ele>5.0</ele><time>2026-03-22T08:03:25.308Z</time></trkpt><trkpt lat="45.1383473" lon="12.0918745"><ele>5.0</ele><time>2026-03-22T08:03:26.297Z</time></trkpt><trkpt lat="45.1383129" lon="12.0917695"><ele>5.0</ele><time>2026-03-22T08:03:27.299Z</time></trkpt><trkpt lat="45.1382753" lon="12.0916683"><ele>5.0</ele><time>2026-03-22T08:03:28.295Z</time></trkpt><trkpt lat="45.1382342" lon="12.0915601"><ele>5.0</ele><time>2026-03-22T08:03:29.3Z</time></trkpt><trkpt lat="45.1381892" lon="12.0914341"><ele>5.0</ele><time>2026-03-22T08:03:30.291Z</time></trkpt><trkpt lat="45.1381411" lon="12.0912936"><ele>5.0</ele><time>2026-03-22T08:03:31.286Z</time></trkpt><trkpt lat="45.1380887" lon="12.0911495"><ele>4.8</ele><time>2026-03-22T08:03:32.298Z</time></trkpt><trkpt lat="45.1380335" lon="12.0910116"><ele>4.6</ele><time>2026-03-22T08:03:33.291Z</time></trkpt><trkpt lat="45.1379828" lon="12.0908788"><ele>4.4</ele><time>2026-03-22T08:03:34.289Z</time></trkpt><trkpt lat="45.1379398" lon="12.0907583"><ele>4.2</ele><time>2026-03-22T08:03:35.293Z</time></trkpt><trkpt lat="45.1378985" lon="12.0906468"><ele>4.0</ele><time>2026-03-22T08:03:36.298Z</time></trkpt><trkpt lat="45.1378556" lon="12.0905376"><ele>3.9999999999999996</ele><time>2026-03-22T08:03:37.298Z</time></trkpt><trkpt lat="45.1378131" lon="12.0904278"><ele>4.0</ele><time>2026-03-22T08:03:38.294Z</time></trkpt><trkpt lat="45.137773" lon="12.0903123"><ele>4.0</ele><time>2026-03-22T08:03:39.295Z</time></trkpt><trkpt lat="45.137733" lon="12.090205"><ele>4.0</ele><time>2026-03-22T08:03:40.29Z</time></trkpt><trkpt lat="45.1376987" lon="12.0900939"><ele>3.9999999999999996</ele><time>2026-03-22T08:03:41.29Z</time></trkpt><trkpt lat="45.1376622" lon="12.0899779"><ele>4.0</ele><time>2026-03-22T08:03:42.29Z</time></trkpt><trkpt lat="45.1376245" lon="12.0898563"><ele>4.25</ele><time>2026-03-22T08:03:43.289Z</time></trkpt><trkpt lat="45.1375777" lon="12.08973"><ele>4.5</ele><time>2026-03-22T08:03:44.286Z</time></trkpt><trkpt lat="45.1375268" lon="12.0895871"><ele>4.75</ele><time>2026-03-22T08:03:45.292Z</time></trkpt><trkpt lat="45.1374694" lon="12.0894297"><ele>5.0</ele><time>2026-03-22T08:03:46.29Z</time></trkpt><trkpt lat="45.137402" lon="12.0892631"><ele>4.5</ele><time>2026-03-22T08:03:47.293Z</time></trkpt><trkpt lat="45.1373288" lon="12.0890775"><ele>4.0</ele><time>2026-03-22T08:03:48.282Z</time></trkpt><trkpt lat="45.1372589" lon="12.0888878"><ele>3.5</ele><time>2026-03-22T08:03:49.291Z</time></trkpt><trkpt lat="45.1371967" lon="12.0887232"><ele>3.0</ele><time>2026-03-22T08:03:50.28Z</time></trkpt><trkpt lat="45.1371466" lon="12.0885672"><ele>3.0</ele><time>2026-03-22T08:03:51.289Z</time></trkpt><trkpt lat="45.1370978" lon="12.0884263"><ele>3.0</ele><time>2026-03-22T08:03:52.293Z</time></trkpt><trkpt lat="45.1370525" lon="12.0882718"><ele>3.0</ele><time>2026-03-22T08:03:53.295Z</time></trkpt><trkpt lat="45.1370012" lon="12.0881225"><ele>3.0</ele><time>2026-03-22T08:03:54.288Z</time></trkpt><trkpt lat="45.1369476" lon="12.0879706"><ele>3.25</ele><time>2026-03-22T08:03:55.292Z</time></trkpt><trkpt lat="45.1368909" lon="12.0878158"><ele>3.5</ele><time>2026-03-22T08:03:56.291Z</time></trkpt><trkpt lat="45.1368324" lon="12.08766"><ele>3.75</ele><time>2026-03-22T08:03:57.287Z</time></trkpt><trkpt lat="45.1367862" lon="12.0874997"><ele>4.0</ele><time>2026-03-22T08:03:58.29Z</time></trkpt><trkpt lat="45.1367438" lon="12.0873386"><ele>4.5</ele><time>2026-03-22T08:03:59.288Z</time></trkpt><trkpt lat="45.1367047" lon="12.0871742"><ele>5.0</ele><time>2026-03-22T08:04:00.286Z</time></trkpt><trkpt lat="45.136675" lon="12.0870109"><ele>5.5</ele><time>2026-03-22T08:04:01.287Z</time></trkpt><trkpt lat="45.1366513" lon="12.086844"><ele>6.0</ele><time>2026-03-22T08:04:02.282Z</time></trkpt><trkpt lat="45.136632" lon="12.0866826"><ele>5.8</ele><time>2026-03-22T08:04:03.28Z</time></trkpt><trkpt lat="45.1366148" lon="12.0865275"><ele>5.6</ele><time>2026-03-22T08:04:04.282Z</time></trkpt><trkpt lat="45.1365979" lon="12.0863776"><ele>5.4</ele><time>2026-03-22T08:04:05.285Z</time></trkpt><trkpt lat="45.1365866" lon="12.0862423"><ele>5.2</ele><time>2026-03-22T08:04:06.284Z</time></trkpt><trkpt lat="45.1365826" lon="12.0861116"><ele>5.0</ele><time>2026-03-22T08:04:07.282Z</time></trkpt><trkpt lat="45.136581" lon="12.08599"><ele>5.0</ele><time>2026-03-22T08:04:08.285Z</time></trkpt><trkpt lat="45.1365802" lon="12.085868"><ele>5.0</ele><time>2026-03-22T08:04:09.289Z</time></trkpt><trkpt lat="45.1365768" lon="12.0857431"><ele>5.0</ele><time>2026-03-22T08:04:10.29Z</time></trkpt><trkpt lat="45.1365712" lon="12.0856015"><ele>5.0</ele><time>2026-03-22T08:04:11.301Z</time></trkpt><trkpt lat="45.136571" lon="12.0854635"><ele>5.0</ele><time>2026-03-22T08:04:12.291Z</time></trkpt><trkpt lat="45.1365775" lon="12.0853303"><ele>5.0</ele><time>2026-03-22T08:04:13.294Z</time></trkpt><trkpt lat="45.136587" lon="12.0852021"><ele>5.0</ele><time>2026-03-22T08:04:14.289Z</time></trkpt><trkpt lat="45.1365985" lon="12.0850876"><ele>5.0</ele><time>2026-03-22T08:04:15.298Z</time></trkpt><trkpt lat="45.1366123" lon="12.0849827"><ele>5.0</ele><time>2026-03-22T08:04:16.285Z</time></trkpt><trkpt lat="45.1366313" lon="12.0848872"><ele>5.0</ele><time>2026-03-22T08:04:17.296Z</time></trkpt><trkpt lat="45.1366467" lon="12.0847949"><ele>5.0</ele><time>2026-03-22T08:04:18.29Z</time></trkpt><trkpt lat="45.13666" lon="12.084697"><ele>5.4</ele><time>2026-03-22T08:04:19.294Z</time></trkpt><trkpt lat="45.1366769" lon="12.0845855"><ele>5.8</ele><time>2026-03-22T08:04:20.288Z</time></trkpt><trkpt lat="45.136694" lon="12.0844715"><ele>6.199999999999999</ele><time>2026-03-22T08:04:21.293Z</time></trkpt><trkpt lat="45.1367074" lon="12.0843448"><ele>6.6</ele><time>2026-03-22T08:04:22.284Z</time></trkpt><trkpt lat="45.136716" lon="12.0842073"><ele>7.0</ele><time>2026-03-22T08:04:23.285Z</time></trkpt><trkpt lat="45.1367378" lon="12.0840592"><ele>7.199999999999999</ele><time>2026-03-22T08:04:24.289Z</time></trkpt><trkpt lat="45.1367615" lon="12.0839199"><ele>7.3999999999999995</ele><time>2026-03-22T08:04:25.28Z</time></trkpt><trkpt lat="45.1367893" lon="12.083785"><ele>7.6000000000000005</ele><time>2026-03-22T08:04:26.286Z</time></trkpt><trkpt lat="45.1368245" lon="12.0836567"><ele>7.800000000000001</ele><time>2026-03-22T08:04:27.281Z</time></trkpt><trkpt lat="45.1368596" lon="12.0835285"><ele>8.0</ele><time>2026-03-22T08:04:28.292Z</time></trkpt><trkpt lat="45.1368986" lon="12.0833963"><ele>8.0</ele><time>2026-03-22T08:04:29.283Z</time></trkpt><trkpt lat="45.1369447" lon="12.0832524"><ele>8.0</ele><time>2026-03-22T08:04:30.286Z</time></trkpt><trkpt lat="45.136999" lon="12.0830965"><ele>8.0</ele><time>2026-03-22T08:04:31.279Z</time></trkpt><trkpt lat="45.1370621" lon="12.0829273"><ele>8.0</ele><time>2026-03-22T08:04:32.274Z</time></trkpt><trkpt lat="45.1371314" lon="12.0827419"><ele>8.0</ele><time>2026-03-22T08:04:33.278Z</time></trkpt><trkpt lat="45.1372176" lon="12.082527"><ele>8.0</ele><time>2026-03-22T08:04:34.282Z</time></trkpt><trkpt lat="45.1373002" lon="12.0823257"><ele>8.0</ele><time>2026-03-22T08:04:35.286Z</time></trkpt><trkpt lat="45.1373812" lon="12.0821421"><ele>7.25</ele><time>2026-03-22T08:04:36.292Z</time></trkpt><trkpt lat="45.1374621" lon="12.0819605"><ele>6.5</ele><time>2026-03-22T08:04:37.297Z</time></trkpt><trkpt lat="45.1375495" lon="12.0818142"><ele>5.75</ele><time>2026-03-22T08:04:38.291Z</time></trkpt><trkpt lat="45.1376194" lon="12.0816679"><ele>5.0</ele><time>2026-03-22T08:04:39.288Z</time></trkpt><trkpt lat="45.1376866" lon="12.0815671"><ele>5.0</ele><time>2026-03-22T08:04:40.283Z</time></trkpt><trkpt lat="45.1377561" lon="12.0814767"><ele>5.0</ele><time>2026-03-22T08:04:42.289Z</time></trkpt><trkpt lat="45.137815" lon="12.0814266"><ele>5.0</ele><time>2026-03-22T08:04:45.302Z</time></trkpt><trkpt lat="45.1378665" lon="12.0813345"><ele>5.0</ele><time>2026-03-22T08:04:54.297Z</time></trkpt><trkpt lat="45.1379457" lon="12.0811921"><ele>5.0</ele><time>2026-03-22T08:04:56.291Z</time></trkpt><trkpt lat="45.1379901" lon="12.0810902"><ele>5.0</ele><time>2026-03-22T08:04:57.299Z</time></trkpt><trkpt lat="45.1380403" lon="12.0809821"><ele>5.0</ele><time>2026-03-22T08:04:58.286Z</time></trkpt><trkpt lat="45.1381006" lon="12.0808613"><ele>5.0</ele><time>2026-03-22T08:04:59.298Z</time></trkpt><trkpt lat="45.1381714" lon="12.0807279"><ele>5.0</ele><time>2026-03-22T08:05:00.294Z</time></trkpt><trkpt lat="45.138237" lon="12.0805933"><ele>5.0</ele><time>2026-03-22T08:05:01.304Z</time></trkpt><trkpt lat="45.1383038" lon="12.080447"><ele>4.75</ele><time>2026-03-22T08:05:02.303Z</time></trkpt><trkpt lat="45.138375" lon="12.0802888"><ele>4.5</ele><time>2026-03-22T08:05:03.307Z</time></trkpt><trkpt lat="45.1384529" lon="12.0801239"><ele>4.25</ele><time>2026-03-22T08:05:04.293Z</time></trkpt><trkpt lat="45.1385311" lon="12.0799465"><ele>4.0</ele><time>2026-03-22T08:05:05.296Z</time></trkpt><trkpt lat="45.1386113" lon="12.079766"><ele>4.0</ele><time>2026-03-22T08:05:06.289Z</time></trkpt><trkpt lat="45.1386937" lon="12.079578"><ele>4.0</ele><time>2026-03-22T08:05:07.294Z</time></trkpt><trkpt lat="45.1387665" lon="12.0794086"><ele>4.0</ele><time>2026-03-22T08:05:08.291Z</time></trkpt><trkpt lat="45.1388315" lon="12.0792415"><ele>4.0</ele><time>2026-03-22T08:05:09.284Z</time></trkpt><trkpt lat="45.1389045" lon="12.0790743"><ele>4.0</ele><time>2026-03-22T08:05:10.287Z</time></trkpt><trkpt lat="45.1389759" lon="12.0789034"><ele>4.0</ele><time>2026-03-22T08:05:11.283Z</time></trkpt><trkpt lat="45.1390482" lon="12.0787381"><ele>4.0</ele><time>2026-03-22T08:05:12.284Z</time></trkpt><trkpt lat="45.139116" lon="12.0785478"><ele>4.0</ele><time>2026-03-22T08:05:13.28Z</time></trkpt><trkpt lat="45.139189" lon="12.0783814"><ele>4.0</ele><time>2026-03-22T08:05:14.288Z</time></trkpt><trkpt lat="45.1392555" lon="12.0782101"><ele>4.0</ele><time>2026-03-22T08:05:15.291Z</time></trkpt><trkpt lat="45.1393072" lon="12.0780465"><ele>4.0</ele><time>2026-03-22T08:05:16.293Z</time></trkpt><trkpt lat="45.1393591" lon="12.0778911"><ele>4.0</ele><time>2026-03-22T08:05:17.294Z</time></trkpt><trkpt lat="45.1394001" lon="12.077744"><ele>4.0</ele><time>2026-03-22T08:05:18.285Z</time></trkpt><trkpt lat="45.1394305" lon="12.0776238"><ele>4.0</ele><time>2026-03-22T08:05:19.293Z</time></trkpt><trkpt lat="45.1394586" lon="12.0774915"><ele>4.0</ele><time>2026-03-22T08:05:20.29Z</time></trkpt><trkpt lat="45.1394525" lon="12.0773767"><ele>4.0</ele><time>2026-03-22T08:05:21.281Z</time></trkpt><trkpt lat="45.1394426" lon="12.077282"><ele>4.0</ele><time>2026-03-22T08:05:22.284Z</time></trkpt><trkpt lat="45.1394464" lon="12.0771037"><ele>3.833333333333333</ele><time>2026-03-22T08:05:24.287Z</time></trkpt><trkpt lat="45.1394586" lon="12.0770022"><ele>3.6666666666666665</ele><time>2026-03-22T08:05:25.291Z</time></trkpt><trkpt lat="45.1394812" lon="12.0768944"><ele>3.5</ele><time>2026-03-22T08:05:26.289Z</time></trkpt><trkpt lat="45.1395087" lon="12.0767802"><ele>3.333333333333333</ele><time>2026-03-22T08:05:27.29Z</time></trkpt><trkpt lat="45.13954" lon="12.0766556"><ele>3.1666666666666665</ele><time>2026-03-22T08:05:28.295Z</time></trkpt><trkpt lat="45.1395764" lon="12.0765202"><ele>3.0</ele><time>2026-03-22T08:05:29.292Z</time></trkpt><trkpt lat="45.1396113" lon="12.0763877"><ele>3.0</ele><time>2026-03-22T08:05:30.305Z</time></trkpt><trkpt lat="45.1396403" lon="12.0762639"><ele>3.0</ele><time>2026-03-22T08:05:31.296Z</time></trkpt><trkpt lat="45.139669" lon="12.0761486"><ele>3.0</ele><time>2026-03-22T08:05:32.3Z</time></trkpt><trkpt lat="45.139694" lon="12.0760392"><ele>3.0</ele><time>2026-03-22T08:05:33.291Z</time></trkpt><trkpt lat="45.1397146" lon="12.0759266"><ele>3.0</ele><time>2026-03-22T08:05:34.292Z</time></trkpt><trkpt lat="45.139732" lon="12.0758146"><ele>3.0</ele><time>2026-03-22T08:05:35.297Z</time></trkpt><trkpt lat="45.1397485" lon="12.0756998"><ele>2.6666666666666665</ele><time>2026-03-22T08:05:36.293Z</time></trkpt><trkpt lat="45.13977" lon="12.0755769"><ele>2.3333333333333335</ele><time>2026-03-22T08:05:37.299Z</time></trkpt><trkpt lat="45.1397915" lon="12.0754569"><ele>2.0</ele><time>2026-03-22T08:05:38.291Z</time></trkpt><trkpt lat="45.139814" lon="12.0753435"><ele>1.6666666666666665</ele><time>2026-03-22T08:05:39.296Z</time></trkpt><trkpt lat="45.1398258" lon="12.075237"><ele>1.3333333333333333</ele><time>2026-03-22T08:05:40.289Z</time></trkpt><trkpt lat="45.1398195" lon="12.0751445"><ele>1.0</ele><time>2026-03-22T08:05:41.292Z</time></trkpt><trkpt lat="45.1397271" lon="12.0750471"><ele>1.0</ele><time>2026-03-22T08:05:43.287Z</time></trkpt><trkpt lat="45.1396615" lon="12.0750072"><ele>1.0</ele><time>2026-03-22T08:05:44.295Z</time></trkpt><trkpt lat="45.1395961" lon="12.0748696"><ele>1.0</ele><time>2026-03-22T08:05:46.293Z</time></trkpt><trkpt lat="45.1396012" lon="12.0747702"><ele>1.0</ele><time>2026-03-22T08:05:47.293Z</time></trkpt><trkpt lat="45.1396225" lon="12.0746482"><ele>1.0</ele><time>2026-03-22T08:05:48.29Z</time></trkpt><trkpt lat="45.1396438" lon="12.0744989"><ele>0.75</ele><time>2026-03-22T08:05:49.296Z</time></trkpt><trkpt lat="45.1396593" lon="12.0743267"><ele>0.5</ele><time>2026-03-22T08:05:50.292Z</time></trkpt><trkpt lat="45.1396825" lon="12.0741405"><ele>0.25</ele><time>2026-03-22T08:05:51.289Z</time></trkpt><trkpt lat="45.1397089" lon="12.0739512"><ele>0.0</ele><time>2026-03-22T08:05:52.294Z</time></trkpt><trkpt lat="45.1397442" lon="12.0737529"><ele>0.0</ele><time>2026-03-22T08:05:53.296Z</time></trkpt><trkpt lat="45.139769" lon="12.0735552"><ele>0.0</ele><time>2026-03-22T08:05:54.293Z</time></trkpt><trkpt lat="45.1397908" lon="12.0733623"><ele>0.0</ele><time>2026-03-22T08:05:55.294Z</time></trkpt><trkpt lat="45.1398055" lon="12.0731913"><ele>0.0</ele><time>2026-03-22T08:05:56.301Z</time></trkpt><trkpt lat="45.1398113" lon="12.0730446"><ele>-0.2</ele><time>2026-03-22T08:05:57.305Z</time></trkpt><trkpt lat="45.1398149" lon="12.0728991"><ele>-0.4</ele><time>2026-03-22T08:05:58.303Z</time></trkpt><trkpt lat="45.1398258" lon="12.0727521"><ele>-0.6000000000000001</ele><time>2026-03-22T08:05:59.311Z</time></trkpt><trkpt lat="45.1398146" lon="12.0726175"><ele>-0.8</ele><time>2026-03-22T08:06:00.301Z</time></trkpt><trkpt lat="45.1397732" lon="12.0724927"><ele>-1.0</ele><time>2026-03-22T08:06:01.302Z</time></trkpt><trkpt lat="45.1397151" lon="12.0723726"><ele>-0.6000000000000001</ele><time>2026-03-22T08:06:02.307Z</time></trkpt><trkpt lat="45.1396579" lon="12.0722509"><ele>-0.20000000000000007</ele><time>2026-03-22T08:06:03.308Z</time></trkpt><trkpt lat="45.139607" lon="12.072122"><ele>0.20000000000000007</ele><time>2026-03-22T08:06:04.306Z</time></trkpt><trkpt lat="45.1395663" lon="12.0719926"><ele>0.6000000000000001</ele><time>2026-03-22T08:06:05.306Z</time></trkpt><trkpt lat="45.1395351" lon="12.0718572"><ele>1.0</ele><time>2026-03-22T08:06:06.306Z</time></trkpt><trkpt lat="45.1395042" lon="12.0717262"><ele>0.9999999999999999</ele><time>2026-03-22T08:06:07.299Z</time></trkpt><trkpt lat="45.1394818" lon="12.0716045"><ele>1.0</ele><time>2026-03-22T08:06:08.299Z</time></trkpt><trkpt lat="45.1394648" lon="12.0715024"><ele>1.0</ele><time>2026-03-22T08:06:09.294Z</time></trkpt><trkpt lat="45.1394754" lon="12.0713667"><ele>1.0</ele><time>2026-03-22T08:06:11.288Z</time></trkpt><trkpt lat="45.139556" lon="12.0712854"><ele>0.9999999999999999</ele><time>2026-03-22T08:06:13.291Z</time></trkpt><trkpt lat="45.1396163" lon="12.0712512"><ele>1.0</ele><time>2026-03-22T08:06:14.291Z</time></trkpt><trkpt lat="45.1396806" lon="12.0712109"><ele>0.9999999999999999</ele><time>2026-03-22T08:06:15.296Z</time></trkpt><trkpt lat="45.1397417" lon="12.0711682"><ele>1.0</ele><time>2026-03-22T08:06:16.296Z</time></trkpt><trkpt lat="45.1398404" lon="12.0710798"><ele>1.0</ele><time>2026-03-22T08:06:18.298Z</time></trkpt><trkpt lat="45.1399192" lon="12.0710163"><ele>1.0</ele><time>2026-03-22T08:06:20.299Z</time></trkpt><trkpt lat="45.1399895" lon="12.0709905"><ele>0.9999999999999999</ele><time>2026-03-22T08:06:23.307Z</time></trkpt><trkpt lat="45.1400584" lon="12.0709723"><ele>1.0</ele><time>2026-03-22T08:06:26.3Z</time></trkpt><trkpt lat="45.1400521" lon="12.0708728"><ele>0.9999999999999999</ele><time>2026-03-22T08:06:48.306Z</time></trkpt><trkpt lat="45.1400143" lon="12.0707931"><ele>1.0</ele><time>2026-03-22T08:07:05.297Z</time></trkpt><trkpt lat="45.1399404" lon="12.0706714"><ele>1.0</ele><time>2026-03-22T08:07:16.291Z</time></trkpt><trkpt lat="45.1398966" lon="12.0706027"><ele>1.0</ele><time>2026-03-22T08:07:17.291Z</time></trkpt><trkpt lat="45.1398353" lon="12.0704663"><ele>0.9999999999999999</ele><time>2026-03-22T08:07:19.301Z</time></trkpt><trkpt lat="45.1398041" lon="12.0703779"><ele>1.0</ele><time>2026-03-22T08:07:21.29Z</time></trkpt><trkpt lat="45.1397495" lon="12.0702837"><ele>1.0</ele><time>2026-03-22T08:07:30.295Z</time></trkpt><trkpt lat="45.1397016" lon="12.0701984"><ele>1.0</ele><time>2026-03-22T08:07:31.301Z</time></trkpt><trkpt lat="45.1396437" lon="12.0701074"><ele>1.0</ele><time>2026-03-22T08:07:32.299Z</time></trkpt><trkpt lat="45.1395776" lon="12.0700062"><ele>1.0</ele><time>2026-03-22T08:07:33.295Z</time></trkpt><trkpt lat="45.1394972" lon="12.0699043"><ele>1.0</ele><time>2026-03-22T08:07:34.292Z</time></trkpt><trkpt lat="45.1394051" lon="12.069798"><ele>1.5</ele><time>2026-03-22T08:07:35.3Z</time></trkpt><trkpt lat="45.1393063" lon="12.0697121"><ele>2.0</ele><time>2026-03-22T08:07:36.304Z</time></trkpt><trkpt lat="45.1392031" lon="12.0696443"><ele>2.5</ele><time>2026-03-22T08:07:37.299Z</time></trkpt><trkpt lat="45.1390985" lon="12.0695844"><ele>3.0</ele><time>2026-03-22T08:07:38.302Z</time></trkpt><trkpt lat="45.1389902" lon="12.0695311"><ele>3.0</ele><time>2026-03-22T08:07:39.296Z</time></trkpt><trkpt lat="45.1388724" lon="12.0694804"><ele>3.0</ele><time>2026-03-22T08:07:40.306Z</time></trkpt><trkpt lat="45.1387513" lon="12.0694359"><ele>3.0</ele><time>2026-03-22T08:07:41.308Z</time></trkpt><trkpt lat="45.1386245" lon="12.0693948"><ele>3.0</ele><time>2026-03-22T08:07:42.307Z</time></trkpt><trkpt lat="45.1384923" lon="12.069365"><ele>3.0</ele><time>2026-03-22T08:07:43.298Z</time></trkpt><trkpt lat="45.1383612" lon="12.0693479"><ele>3.0</ele><time>2026-03-22T08:07:44.295Z</time></trkpt><trkpt lat="45.1382304" lon="12.0693399"><ele>3.0</ele><time>2026-03-22T08:07:45.303Z</time></trkpt><trkpt lat="45.1381013" lon="12.0693376"><ele>3.0</ele><time>2026-03-22T08:07:46.301Z</time></trkpt><trkpt lat="45.1379691" lon="12.0693414"><ele>3.25</ele><time>2026-03-22T08:07:47.299Z</time></trkpt><trkpt lat="45.1378337" lon="12.0693436"><ele>3.5</ele><time>2026-03-22T08:07:48.297Z</time></trkpt><trkpt lat="45.1376965" lon="12.0693489"><ele>3.75</ele><time>2026-03-22T08:07:49.313Z</time></trkpt><trkpt lat="45.1375574" lon="12.0693626"><ele>4.0</ele><time>2026-03-22T08:07:50.3Z</time></trkpt><trkpt lat="45.1374176" lon="12.0693834"><ele>3.5</ele><time>2026-03-22T08:07:51.297Z</time></trkpt><trkpt lat="45.1372797" lon="12.0694"><ele>3.0</ele><time>2026-03-22T08:07:52.302Z</time></trkpt><trkpt lat="45.1371405" lon="12.0694186"><ele>2.5</ele><time>2026-03-22T08:07:53.312Z</time></trkpt><trkpt lat="45.1369931" lon="12.0694334"><ele>2.0</ele><time>2026-03-22T08:07:54.31Z</time></trkpt><trkpt lat="45.1368486" lon="12.0694468"><ele>2.0</ele><time>2026-03-22T08:07:55.304Z</time></trkpt><trkpt lat="45.136703" lon="12.0694504"><ele>2.0</ele><time>2026-03-22T08:07:56.3Z</time></trkpt><trkpt lat="45.1365534" lon="12.0694564"><ele>2.0</ele><time>2026-03-22T08:07:57.31Z</time></trkpt><trkpt lat="45.1363985" lon="12.0694534"><ele>2.333333333333333</ele><time>2026-03-22T08:07:58.298Z</time></trkpt><trkpt lat="45.1362471" lon="12.0694528"><ele>2.6666666666666665</ele><time>2026-03-22T08:07:59.298Z</time></trkpt><trkpt lat="45.136095" lon="12.0694444"><ele>3.0</ele><time>2026-03-22T08:08:00.305Z</time></trkpt><trkpt lat="45.1359431" lon="12.0694249"><ele>3.0</ele><time>2026-03-22T08:08:01.303Z</time></trkpt><trkpt lat="45.1358024" lon="12.0694028"><ele>3.0</ele><time>2026-03-22T08:08:02.307Z</time></trkpt><trkpt lat="45.1356628" lon="12.0693738"><ele>3.0</ele><time>2026-03-22T08:08:03.299Z</time></trkpt><trkpt lat="45.1355321" lon="12.0693416"><ele>3.0</ele><time>2026-03-22T08:08:04.31Z</time></trkpt><trkpt lat="45.1354087" lon="12.0693038"><ele>3.2</ele><time>2026-03-22T08:08:05.302Z</time></trkpt><trkpt lat="45.1352955" lon="12.0692617"><ele>3.4</ele><time>2026-03-22T08:08:06.308Z</time></trkpt><trkpt lat="45.1351906" lon="12.0692291"><ele>3.6000000000000005</ele><time>2026-03-22T08:08:07.3Z</time></trkpt><trkpt lat="45.1350891" lon="12.0691841"><ele>3.8000000000000003</ele><time>2026-03-22T08:08:08.301Z</time></trkpt><trkpt lat="45.1349961" lon="12.0691308"><ele>4.0</ele><time>2026-03-22T08:08:09.302Z</time></trkpt><trkpt lat="45.1349062" lon="12.0690906"><ele>3.4000000000000004</ele><time>2026-03-22T08:08:10.306Z</time></trkpt><trkpt lat="45.1348202" lon="12.0690513"><ele>2.8000000000000003</ele><time>2026-03-22T08:08:11.305Z</time></trkpt><trkpt lat="45.1347351" lon="12.069014"><ele>2.2</ele><time>2026-03-22T08:08:12.302Z</time></trkpt><trkpt lat="45.1346514" lon="12.0689766"><ele>1.6</ele><time>2026-03-22T08:08:13.303Z</time></trkpt><trkpt lat="45.1345688" lon="12.06893"><ele>1.0</ele><time>2026-03-22T08:08:14.304Z</time></trkpt><trkpt lat="45.1344842" lon="12.0688715"><ele>1.0</ele><time>2026-03-22T08:08:15.306Z</time></trkpt><trkpt lat="45.1344018" lon="12.0688033"><ele>1.0</ele><time>2026-03-22T08:08:16.309Z</time></trkpt><trkpt lat="45.1343258" lon="12.0687254"><ele>1.0</ele><time>2026-03-22T08:08:17.301Z</time></trkpt><trkpt lat="45.1342577" lon="12.0686412"><ele>1.0</ele><time>2026-03-22T08:08:18.297Z</time></trkpt><trkpt lat="45.1341967" lon="12.0685502"><ele>1.0</ele><time>2026-03-22T08:08:19.303Z</time></trkpt><trkpt lat="45.1341427" lon="12.0684452"><ele>0.9999999999999999</ele><time>2026-03-22T08:08:20.299Z</time></trkpt><trkpt lat="45.1340969" lon="12.0683343"><ele>1.0</ele><time>2026-03-22T08:08:21.301Z</time></trkpt><trkpt lat="45.134055" lon="12.0682211"><ele>1.0</ele><time>2026-03-22T08:08:22.3Z</time></trkpt><trkpt lat="45.1340214" lon="12.0681051"><ele>1.0</ele><time>2026-03-22T08:08:23.301Z</time></trkpt><trkpt lat="45.1339912" lon="12.0679883"><ele>0.9999999999999999</ele><time>2026-03-22T08:08:24.308Z</time></trkpt><trkpt lat="45.1339601" lon="12.0678712"><ele>1.0</ele><time>2026-03-22T08:08:25.302Z</time></trkpt><trkpt lat="45.1339329" lon="12.0677446"><ele>1.0</ele><time>2026-03-22T08:08:26.305Z</time></trkpt><trkpt lat="45.1339109" lon="12.0676063"><ele>1.0</ele><time>2026-03-22T08:08:27.303Z</time></trkpt><trkpt lat="45.1338892" lon="12.0674682"><ele>1.0</ele><time>2026-03-22T08:08:28.306Z</time></trkpt><trkpt lat="45.1338693" lon="12.0673317"><ele>1.0</ele><time>2026-03-22T08:08:29.305Z</time></trkpt><trkpt lat="45.1338487" lon="12.0671975"><ele>1.0</ele><time>2026-03-22T08:08:30.308Z</time></trkpt><trkpt lat="45.1338255" lon="12.067065"><ele>1.2000000000000002</ele><time>2026-03-22T08:08:31.307Z</time></trkpt><trkpt lat="45.1338057" lon="12.0669356"><ele>1.4000000000000001</ele><time>2026-03-22T08:08:32.31Z</time></trkpt><trkpt lat="45.1337867" lon="12.0668037"><ele>1.6</ele><time>2026-03-22T08:08:33.303Z</time></trkpt><trkpt lat="45.1337661" lon="12.0666707"><ele>1.8</ele><time>2026-03-22T08:08:34.302Z</time></trkpt><trkpt lat="45.1337458" lon="12.0665365"><ele>2.0</ele><time>2026-03-22T08:08:35.307Z</time></trkpt><trkpt lat="45.1337195" lon="12.0664065"><ele>2.2</ele><time>2026-03-22T08:08:36.303Z</time></trkpt><trkpt lat="45.1336962" lon="12.0662819"><ele>2.4000000000000004</ele><time>2026-03-22T08:08:37.299Z</time></trkpt><trkpt lat="45.1336761" lon="12.0661492"><ele>2.5999999999999996</ele><time>2026-03-22T08:08:38.301Z</time></trkpt><trkpt lat="45.1336576" lon="12.0660202"><ele>2.8</ele><time>2026-03-22T08:08:39.3Z</time></trkpt><trkpt lat="45.1336403" lon="12.0658909"><ele>3.0</ele><time>2026-03-22T08:08:40.305Z</time></trkpt><trkpt lat="45.1336261" lon="12.0657579"><ele>2.6</ele><time>2026-03-22T08:08:41.297Z</time></trkpt><trkpt lat="45.1336127" lon="12.0656198"><ele>2.1999999999999997</ele><time>2026-03-22T08:08:42.306Z</time></trkpt><trkpt lat="45.1336042" lon="12.0654769"><ele>1.8</ele><time>2026-03-22T08:08:43.301Z</time></trkpt><trkpt lat="45.1335971" lon="12.0653325"><ele>1.4</ele><time>2026-03-22T08:08:44.308Z</time></trkpt><trkpt lat="45.133591" lon="12.0651874"><ele>1.0</ele><time>2026-03-22T08:08:45.302Z</time></trkpt><trkpt lat="45.1335896" lon="12.0650357"><ele>1.0</ele><time>2026-03-22T08:08:46.301Z</time></trkpt><trkpt lat="45.1335968" lon="12.0648743"><ele>1.0</ele><time>2026-03-22T08:08:47.303Z</time></trkpt><trkpt lat="45.1336026" lon="12.0647133"><ele>1.0</ele><time>2026-03-22T08:08:48.306Z</time></trkpt><trkpt lat="45.1336112" lon="12.0645561"><ele>1.0</ele><time>2026-03-22T08:08:49.304Z</time></trkpt><trkpt lat="45.1336245" lon="12.0643942"><ele>1.0</ele><time>2026-03-22T08:08:50.303Z</time></trkpt><trkpt lat="45.1336398" lon="12.0642408"><ele>1.0</ele><time>2026-03-22T08:08:51.3Z</time></trkpt><trkpt lat="45.1336659" lon="12.0640873"><ele>1.0</ele><time>2026-03-22T08:08:52.298Z</time></trkpt><trkpt lat="45.1336937" lon="12.0639302"><ele>1.0</ele><time>2026-03-22T08:08:53.301Z</time></trkpt><trkpt lat="45.1337193" lon="12.0637741"><ele>1.0</ele><time>2026-03-22T08:08:54.307Z</time></trkpt><trkpt lat="45.1337513" lon="12.0636224"><ele>1.0</ele><time>2026-03-22T08:08:55.308Z</time></trkpt><trkpt lat="45.1337855" lon="12.0634722"><ele>1.0</ele><time>2026-03-22T08:08:56.301Z</time></trkpt><trkpt lat="45.1338253" lon="12.0633215"><ele>1.0</ele><time>2026-03-22T08:08:57.301Z</time></trkpt><trkpt lat="45.1338644" lon="12.063169"><ele>1.0</ele><time>2026-03-22T08:08:58.304Z</time></trkpt><trkpt lat="45.1338988" lon="12.0630241"><ele>1.0</ele><time>2026-03-22T08:08:59.302Z</time></trkpt><trkpt lat="45.1339353" lon="12.0628927"><ele>0.8</ele><time>2026-03-22T08:09:00.302Z</time></trkpt><trkpt lat="45.1339723" lon="12.0627693"><ele>0.6000000000000001</ele><time>2026-03-22T08:09:01.301Z</time></trkpt><trkpt lat="45.1340079" lon="12.0626448"><ele>0.4</ele><time>2026-03-22T08:09:02.309Z</time></trkpt><trkpt lat="45.1340448" lon="12.0625259"><ele>0.2</ele><time>2026-03-22T08:09:03.309Z</time></trkpt><trkpt lat="45.1340843" lon="12.0624076"><ele>0.0</ele><time>2026-03-22T08:09:04.303Z</time></trkpt><trkpt lat="45.1341214" lon="12.0622881"><ele>0.6</ele><time>2026-03-22T08:09:05.306Z</time></trkpt><trkpt lat="45.1341592" lon="12.0621665"><ele>1.2</ele><time>2026-03-22T08:09:06.307Z</time></trkpt><trkpt lat="45.1341994" lon="12.0620587"><ele>1.7999999999999998</ele><time>2026-03-22T08:09:07.3Z</time></trkpt><trkpt lat="45.134241" lon="12.0619429"><ele>2.4</ele><time>2026-03-22T08:09:08.303Z</time></trkpt><trkpt lat="45.1342852" lon="12.0618363"><ele>3.0</ele><time>2026-03-22T08:09:09.306Z</time></trkpt><trkpt lat="45.1343302" lon="12.061719"><ele>2.4</ele><time>2026-03-22T08:09:10.306Z</time></trkpt><trkpt lat="45.1343775" lon="12.0616062"><ele>1.7999999999999998</ele><time>2026-03-22T08:09:11.306Z</time></trkpt><trkpt lat="45.1344268" lon="12.0614938"><ele>1.2</ele><time>2026-03-22T08:09:12.302Z</time></trkpt><trkpt lat="45.1344755" lon="12.0613812"><ele>0.6</ele><time>2026-03-22T08:09:13.305Z</time></trkpt><trkpt lat="45.1345271" lon="12.0612727"><ele>0.0</ele><time>2026-03-22T08:09:14.307Z</time></trkpt><trkpt lat="45.134578" lon="12.0611712"><ele>0.0</ele><time>2026-03-22T08:09:15.303Z</time></trkpt><trkpt lat="45.1346242" lon="12.0610778"><ele>0.0</ele><time>2026-03-22T08:09:16.303Z</time></trkpt><trkpt lat="45.1346724" lon="12.0609887"><ele>0.0</ele><time>2026-03-22T08:09:17.295Z</time></trkpt><trkpt lat="45.1347182" lon="12.0609029"><ele>0.0</ele><time>2026-03-22T08:09:18.302Z</time></trkpt><trkpt lat="45.1347602" lon="12.0608239"><ele>0.0</ele><time>2026-03-22T08:09:19.299Z</time></trkpt><trkpt lat="45.1348048" lon="12.0607454"><ele>0.0</ele><time>2026-03-22T08:09:20.3Z</time></trkpt><trkpt lat="45.1348549" lon="12.060664"><ele>0.5</ele><time>2026-03-22T08:09:21.298Z</time></trkpt><trkpt lat="45.1349047" lon="12.0605764"><ele>1.0</ele><time>2026-03-22T08:09:22.301Z</time></trkpt><trkpt lat="45.1349528" lon="12.0604951"><ele>1.5</ele><time>2026-03-22T08:09:23.306Z</time></trkpt><trkpt lat="45.1349936" lon="12.0604145"><ele>2.0</ele><time>2026-03-22T08:09:24.299Z</time></trkpt><trkpt lat="45.1350674" lon="12.0602968"><ele>2.5</ele><time>2026-03-22T08:09:26.306Z</time></trkpt><trkpt lat="45.1351196" lon="12.0602215"><ele>3.0</ele><time>2026-03-22T08:09:28.297Z</time></trkpt><trkpt lat="45.1351465" lon="12.0601379"><ele>3.0</ele><time>2026-03-22T08:13:46.312Z</time></trkpt><trkpt lat="45.1351848" lon="12.0600368"><ele>3.0</ele><time>2026-03-22T08:13:48.302Z</time></trkpt><trkpt lat="45.1352314" lon="12.0599579"><ele>3.0</ele><time>2026-03-22T08:13:50.306Z</time></trkpt><trkpt lat="45.1352922" lon="12.059891"><ele>3.0</ele><time>2026-03-22T08:13:52.308Z</time></trkpt><trkpt lat="45.1353695" lon="12.0598006"><ele>3.0</ele><time>2026-03-22T08:13:54.305Z</time></trkpt><trkpt lat="45.1354256" lon="12.0597076"><ele>3.0</ele><time>2026-03-22T08:13:56.307Z</time></trkpt><trkpt lat="45.1354953" lon="12.0596086"><ele>3.0</ele><time>2026-03-22T08:13:58.305Z</time></trkpt><trkpt lat="45.1355723" lon="12.059504"><ele>3.0</ele><time>2026-03-22T08:14:00.306Z</time></trkpt><trkpt lat="45.1356385" lon="12.0593988"><ele>3.0</ele><time>2026-03-22T08:14:02.311Z</time></trkpt><trkpt lat="45.1356907" lon="12.0593095"><ele>3.0</ele><time>2026-03-22T08:14:04.312Z</time></trkpt><trkpt lat="45.1357348" lon="12.059221"><ele>3.0</ele><time>2026-03-22T08:14:06.31Z</time></trkpt><trkpt lat="45.1357735" lon="12.0591359"><ele>3.0</ele><time>2026-03-22T08:14:08.31Z</time></trkpt><trkpt lat="45.1358316" lon="12.0590616"><ele>2.8</ele><time>2026-03-22T08:14:10.304Z</time></trkpt><trkpt lat="45.1359185" lon="12.0589538"><ele>2.5999999999999996</ele><time>2026-03-22T08:14:12.308Z</time></trkpt><trkpt lat="45.1359637" lon="12.0588905"><ele>2.4000000000000004</ele><time>2026-03-22T08:14:13.307Z</time></trkpt><trkpt lat="45.1360078" lon="12.0588238"><ele>2.2</ele><time>2026-03-22T08:14:14.313Z</time></trkpt><trkpt lat="45.136094" lon="12.0587021"><ele>2.0</ele><time>2026-03-22T08:14:16.31Z</time></trkpt><trkpt lat="45.1361729" lon="12.0585838"><ele>1.9999999999999998</ele><time>2026-03-22T08:14:18.306Z</time></trkpt><trkpt lat="45.1362148" lon="12.0585129"><ele>2.0</ele><time>2026-03-22T08:14:19.302Z</time></trkpt><trkpt lat="45.1362655" lon="12.058431"><ele>2.0</ele><time>2026-03-22T08:14:20.309Z</time></trkpt><trkpt lat="45.1363254" lon="12.0583305"><ele>2.0</ele><time>2026-03-22T08:14:21.306Z</time></trkpt><trkpt lat="45.1363924" lon="12.0582251"><ele>1.9999999999999998</ele><time>2026-03-22T08:14:22.316Z</time></trkpt><trkpt lat="45.1364545" lon="12.0581239"><ele>2.0</ele><time>2026-03-22T08:14:23.31Z</time></trkpt><trkpt lat="45.1365152" lon="12.0580347"><ele>2.1666666666666665</ele><time>2026-03-22T08:14:24.316Z</time></trkpt><trkpt lat="45.1365674" lon="12.0579518"><ele>2.333333333333333</ele><time>2026-03-22T08:14:25.308Z</time></trkpt><trkpt lat="45.1366164" lon="12.0578737"><ele>2.5</ele><time>2026-03-22T08:14:26.32Z</time></trkpt><trkpt lat="45.1366658" lon="12.0577899"><ele>2.6666666666666665</ele><time>2026-03-22T08:14:27.305Z</time></trkpt><trkpt lat="45.1367194" lon="12.0577009"><ele>2.8333333333333335</ele><time>2026-03-22T08:14:28.31Z</time></trkpt><trkpt lat="45.1367742" lon="12.057601"><ele>3.0</ele><time>2026-03-22T08:14:29.293Z</time></trkpt><trkpt lat="45.1368146" lon="12.0575089"><ele>3.0</ele><time>2026-03-22T08:14:30.288Z</time></trkpt><trkpt lat="45.1368589" lon="12.0574248"><ele>3.0</ele><time>2026-03-22T08:14:31.293Z</time></trkpt><trkpt lat="45.1369025" lon="12.05733"><ele>3.0</ele><time>2026-03-22T08:14:32.299Z</time></trkpt><trkpt lat="45.1369388" lon="12.0572273"><ele>3.0</ele><time>2026-03-22T08:14:33.301Z</time></trkpt><trkpt lat="45.1369706" lon="12.0571333"><ele>3.0</ele><time>2026-03-22T08:14:34.3Z</time></trkpt><trkpt lat="45.1370025" lon="12.0570414"><ele>3.0</ele><time>2026-03-22T08:14:35.298Z</time></trkpt><trkpt lat="45.1370349" lon="12.056944"><ele>3.0</ele><time>2026-03-22T08:14:36.302Z</time></trkpt><trkpt lat="45.1370577" lon="12.0568485"><ele>3.0</ele><time>2026-03-22T08:14:37.3Z</time></trkpt><trkpt lat="45.137078" lon="12.05675"><ele>3.0</ele><time>2026-03-22T08:14:38.299Z</time></trkpt><trkpt lat="45.1370982" lon="12.0566507"><ele>3.0</ele><time>2026-03-22T08:14:39.309Z</time></trkpt><trkpt lat="45.1371142" lon="12.0565473"><ele>3.0</ele><time>2026-03-22T08:14:40.306Z</time></trkpt><trkpt lat="45.1371315" lon="12.0564356"><ele>3.0</ele><time>2026-03-22T08:14:41.296Z</time></trkpt><trkpt lat="45.137146" lon="12.0563197"><ele>2.8333333333333335</ele><time>2026-03-22T08:14:42.301Z</time></trkpt><trkpt lat="45.1371604" lon="12.0562055"><ele>2.6666666666666665</ele><time>2026-03-22T08:14:43.303Z</time></trkpt><trkpt lat="45.1371724" lon="12.0560936"><ele>2.5</ele><time>2026-03-22T08:14:44.307Z</time></trkpt><trkpt lat="45.137179" lon="12.0559865"><ele>2.333333333333333</ele><time>2026-03-22T08:14:45.304Z</time></trkpt><trkpt lat="45.1371822" lon="12.0558765"><ele>2.1666666666666665</ele><time>2026-03-22T08:14:46.307Z</time></trkpt><trkpt lat="45.1371821" lon="12.0557553"><ele>2.0</ele><time>2026-03-22T08:14:47.303Z</time></trkpt><trkpt lat="45.137177" lon="12.0556314"><ele>1.9999999999999998</ele><time>2026-03-22T08:14:48.301Z</time></trkpt><trkpt lat="45.1371603" lon="12.0555098"><ele>2.0</ele><time>2026-03-22T08:14:49.303Z</time></trkpt><trkpt lat="45.1371399" lon="12.0553907"><ele>2.0</ele><time>2026-03-22T08:14:50.294Z</time></trkpt><trkpt lat="45.1371149" lon="12.0552713"><ele>2.0</ele><time>2026-03-22T08:14:51.306Z</time></trkpt><trkpt lat="45.1370885" lon="12.0551636"><ele>1.9999999999999998</ele><time>2026-03-22T08:14:52.299Z</time></trkpt><trkpt lat="45.1370579" lon="12.0550506"><ele>2.0</ele><time>2026-03-22T08:14:53.302Z</time></trkpt><trkpt lat="45.1370256" lon="12.054925"><ele>2.2</ele><time>2026-03-22T08:14:54.3Z</time></trkpt><trkpt lat="45.1369936" lon="12.0547952"><ele>2.4000000000000004</ele><time>2026-03-22T08:14:55.309Z</time></trkpt><trkpt lat="45.1369626" lon="12.0546701"><ele>2.5999999999999996</ele><time>2026-03-22T08:14:56.302Z</time></trkpt><trkpt lat="45.136934" lon="12.0545419"><ele>2.8</ele><time>2026-03-22T08:14:57.303Z</time></trkpt><trkpt lat="45.1369135" lon="12.0544159"><ele>3.0</ele><time>2026-03-22T08:14:58.306Z</time></trkpt><trkpt lat="45.1368895" lon="12.0542965"><ele>3.0</ele><time>2026-03-22T08:14:59.302Z</time></trkpt><trkpt lat="45.1368636" lon="12.0541748"><ele>3.0</ele><time>2026-03-22T08:15:00.302Z</time></trkpt><trkpt lat="45.1368362" lon="12.0540585"><ele>3.0</ele><time>2026-03-22T08:15:01.305Z</time></trkpt><trkpt lat="45.1368106" lon="12.0539398"><ele>3.0</ele><time>2026-03-22T08:15:02.303Z</time></trkpt><trkpt lat="45.1367844" lon="12.0538161"><ele>3.0</ele><time>2026-03-22T08:15:03.311Z</time></trkpt><trkpt lat="45.136759" lon="12.0536907"><ele>3.0</ele><time>2026-03-22T08:15:04.301Z</time></trkpt><trkpt lat="45.1367356" lon="12.0535667"><ele>3.1666666666666665</ele><time>2026-03-22T08:15:05.305Z</time></trkpt><trkpt lat="45.1367059" lon="12.0534434"><ele>3.333333333333333</ele><time>2026-03-22T08:15:06.303Z</time></trkpt><trkpt lat="45.1366785" lon="12.0533268"><ele>3.5</ele><time>2026-03-22T08:15:07.296Z</time></trkpt><trkpt lat="45.1366524" lon="12.0532128"><ele>3.6666666666666665</ele><time>2026-03-22T08:15:08.304Z</time></trkpt><trkpt lat="45.1366255" lon="12.0530929"><ele>3.833333333333333</ele><time>2026-03-22T08:15:09.302Z</time></trkpt><trkpt lat="45.1365985" lon="12.0529737"><ele>4.0</ele><time>2026-03-22T08:15:10.305Z</time></trkpt><trkpt lat="45.1365711" lon="12.0528552"><ele>4.0</ele><time>2026-03-22T08:15:11.304Z</time></trkpt><trkpt lat="45.136543" lon="12.0527384"><ele>4.0</ele><time>2026-03-22T08:15:12.307Z</time></trkpt><trkpt lat="45.1365082" lon="12.0526218"><ele>4.0</ele><time>2026-03-22T08:15:13.302Z</time></trkpt><trkpt lat="45.1364666" lon="12.0525031"><ele>4.0</ele><time>2026-03-22T08:15:14.303Z</time></trkpt><trkpt lat="45.1364193" lon="12.0523843"><ele>4.0</ele><time>2026-03-22T08:15:15.302Z</time></trkpt><trkpt lat="45.1363623" lon="12.0522708"><ele>4.0</ele><time>2026-03-22T08:15:16.304Z</time></trkpt><trkpt lat="45.1363029" lon="12.052155"><ele>4.0</ele><time>2026-03-22T08:15:17.307Z</time></trkpt><trkpt lat="45.1362434" lon="12.0520375"><ele>4.0</ele><time>2026-03-22T08:15:18.304Z</time></trkpt><trkpt lat="45.1361764" lon="12.0519192"><ele>4.0</ele><time>2026-03-22T08:15:19.309Z</time></trkpt><trkpt lat="45.1361041" lon="12.0517938"><ele>4.0</ele><time>2026-03-22T08:15:20.304Z</time></trkpt><trkpt lat="45.1360273" lon="12.0516698"><ele>4.0</ele><time>2026-03-22T08:15:21.303Z</time></trkpt><trkpt lat="45.1359448" lon="12.0515552"><ele>4.0</ele><time>2026-03-22T08:15:22.305Z</time></trkpt><trkpt lat="45.135858" lon="12.0514376"><ele>4.0</ele><time>2026-03-22T08:15:23.3Z</time></trkpt><trkpt lat="45.1357689" lon="12.051325"><ele>4.0</ele><time>2026-03-22T08:15:24.305Z</time></trkpt><trkpt lat="45.1356818" lon="12.0512254"><ele>4.0</ele><time>2026-03-22T08:15:25.306Z</time></trkpt><trkpt lat="45.1355969" lon="12.0511312"><ele>4.0</ele><time>2026-03-22T08:15:26.307Z</time></trkpt><trkpt lat="45.1355104" lon="12.0510338"><ele>4.0</ele><time>2026-03-22T08:15:27.303Z</time></trkpt><trkpt lat="45.1354259" lon="12.0509308"><ele>4.0</ele><time>2026-03-22T08:15:28.31Z</time></trkpt><trkpt lat="45.1353325" lon="12.0508253"><ele>4.0</ele><time>2026-03-22T08:15:29.312Z</time></trkpt><trkpt lat="45.1352408" lon="12.0507143"><ele>3.8000000000000003</ele><time>2026-03-22T08:15:30.31Z</time></trkpt><trkpt lat="45.135158" lon="12.0506111"><ele>3.6000000000000005</ele><time>2026-03-22T08:15:31.306Z</time></trkpt><trkpt lat="45.1350803" lon="12.05051"><ele>3.4</ele><time>2026-03-22T08:15:32.311Z</time></trkpt><trkpt lat="45.1350075" lon="12.0504103"><ele>3.2</ele><time>2026-03-22T08:15:33.305Z</time></trkpt><trkpt lat="45.1349288" lon="12.0503064"><ele>3.0</ele><time>2026-03-22T08:15:34.302Z</time></trkpt><trkpt lat="45.1348516" lon="12.0502044"><ele>3.0</ele><time>2026-03-22T08:15:35.302Z</time></trkpt><trkpt lat="45.1347773" lon="12.0501024"><ele>3.0</ele><time>2026-03-22T08:15:36.309Z</time></trkpt><trkpt lat="45.1347026" lon="12.0500004"><ele>3.0</ele><time>2026-03-22T08:15:37.309Z</time></trkpt><trkpt lat="45.1346286" lon="12.0498939"><ele>3.0</ele><time>2026-03-22T08:15:38.303Z</time></trkpt><trkpt lat="45.1345571" lon="12.0497952"><ele>3.0</ele><time>2026-03-22T08:15:39.305Z</time></trkpt><trkpt lat="45.1344833" lon="12.0496923"><ele>3.0</ele><time>2026-03-22T08:15:40.3Z</time></trkpt><trkpt lat="45.1344043" lon="12.0495915"><ele>3.0</ele><time>2026-03-22T08:15:41.307Z</time></trkpt><trkpt lat="45.1343172" lon="12.0494779"><ele>3.0</ele><time>2026-03-22T08:15:42.301Z</time></trkpt><trkpt lat="45.1342307" lon="12.049372"><ele>3.0</ele><time>2026-03-22T08:15:43.303Z</time></trkpt><trkpt lat="45.1341469" lon="12.049279"><ele>3.0</ele><time>2026-03-22T08:15:44.304Z</time></trkpt><trkpt lat="45.13407" lon="12.0491839"><ele>3.0</ele><time>2026-03-22T08:15:45.311Z</time></trkpt><trkpt lat="45.1339967" lon="12.0491038"><ele>3.0</ele><time>2026-03-22T08:15:46.306Z</time></trkpt><trkpt lat="45.1339259" lon="12.0490255"><ele>3.0</ele><time>2026-03-22T08:15:47.307Z</time></trkpt><trkpt lat="45.1338495" lon="12.0489497"><ele>3.0</ele><time>2026-03-22T08:15:48.303Z</time></trkpt><trkpt lat="45.1337703" lon="12.0488698"><ele>3.0</ele><time>2026-03-22T08:15:49.308Z</time></trkpt><trkpt lat="45.1336911" lon="12.048788"><ele>3.0</ele><time>2026-03-22T08:15:50.307Z</time></trkpt><trkpt lat="45.1336144" lon="12.0487016"><ele>3.0</ele><time>2026-03-22T08:15:51.304Z</time></trkpt><trkpt lat="45.1335416" lon="12.0486072"><ele>3.0</ele><time>2026-03-22T08:15:52.305Z</time></trkpt><trkpt lat="45.1334699" lon="12.0485086"><ele>3.0</ele><time>2026-03-22T08:15:53.307Z</time></trkpt><trkpt lat="45.1334072" lon="12.0483991"><ele>3.0</ele><time>2026-03-22T08:15:54.304Z</time></trkpt><trkpt lat="45.1333473" lon="12.0482869"><ele>2.8</ele><time>2026-03-22T08:15:55.322Z</time></trkpt><trkpt lat="45.1332945" lon="12.0481718"><ele>2.5999999999999996</ele><time>2026-03-22T08:15:56.306Z</time></trkpt><trkpt lat="45.1332411" lon="12.0480596"><ele>2.4000000000000004</ele><time>2026-03-22T08:15:57.309Z</time></trkpt><trkpt lat="45.1331908" lon="12.0479491"><ele>2.2</ele><time>2026-03-22T08:15:58.303Z</time></trkpt><trkpt lat="45.1331466" lon="12.0478426"><ele>2.0</ele><time>2026-03-22T08:15:59.305Z</time></trkpt><trkpt lat="45.1331016" lon="12.0477294"><ele>2.0</ele><time>2026-03-22T08:16:00.309Z</time></trkpt><trkpt lat="45.1330596" lon="12.0476139"><ele>2.0</ele><time>2026-03-22T08:16:01.306Z</time></trkpt><trkpt lat="45.1330055" lon="12.047495"><ele>2.0</ele><time>2026-03-22T08:16:02.318Z</time></trkpt><trkpt lat="45.1329526" lon="12.0473709"><ele>2.0</ele><time>2026-03-22T08:16:03.306Z</time></trkpt><trkpt lat="45.1328989" lon="12.0472408"><ele>2.0</ele><time>2026-03-22T08:16:04.305Z</time></trkpt><trkpt lat="45.1328449" lon="12.0471065"><ele>2.25</ele><time>2026-03-22T08:16:05.305Z</time></trkpt><trkpt lat="45.1327878" lon="12.0469651"><ele>2.5</ele><time>2026-03-22T08:16:06.306Z</time></trkpt><trkpt lat="45.1327236" lon="12.0468134"><ele>2.75</ele><time>2026-03-22T08:16:07.298Z</time></trkpt><trkpt lat="45.1326519" lon="12.0466465"><ele>3.0</ele><time>2026-03-22T08:16:08.322Z</time></trkpt><trkpt lat="45.1325845" lon="12.0464917"><ele>3.1666666666666665</ele><time>2026-03-22T08:16:09.308Z</time></trkpt><trkpt lat="45.1325253" lon="12.0463557"><ele>3.333333333333333</ele><time>2026-03-22T08:16:10.31Z</time></trkpt><trkpt lat="45.1324738" lon="12.0462398"><ele>3.5</ele><time>2026-03-22T08:16:11.308Z</time></trkpt><trkpt lat="45.1324317" lon="12.0461365"><ele>3.6666666666666665</ele><time>2026-03-22T08:16:12.319Z</time></trkpt><trkpt lat="45.1323981" lon="12.0460419"><ele>3.833333333333333</ele><time>2026-03-22T08:16:13.319Z</time></trkpt><trkpt lat="45.1323669" lon="12.0459382"><ele>4.0</ele><time>2026-03-22T08:16:14.318Z</time></trkpt><trkpt lat="45.1323354" lon="12.0458197"><ele>3.8000000000000003</ele><time>2026-03-22T08:16:15.321Z</time></trkpt><trkpt lat="45.1323003" lon="12.0456876"><ele>3.6000000000000005</ele><time>2026-03-22T08:16:16.318Z</time></trkpt><trkpt lat="45.1322727" lon="12.0455365"><ele>3.4</ele><time>2026-03-22T08:16:17.315Z</time></trkpt><trkpt lat="45.1322423" lon="12.0453827"><ele>3.2</ele><time>2026-03-22T08:16:18.31Z</time></trkpt><trkpt lat="45.1322215" lon="12.0452085"><ele>3.0</ele><time>2026-03-22T08:16:19.305Z</time></trkpt><trkpt lat="45.1322005" lon="12.0450186"><ele>3.0</ele><time>2026-03-22T08:16:20.311Z</time></trkpt><trkpt lat="45.1321822" lon="12.0448199"><ele>3.0</ele><time>2026-03-22T08:16:21.305Z</time></trkpt><trkpt lat="45.1321606" lon="12.0446059"><ele>3.0</ele><time>2026-03-22T08:16:22.304Z</time></trkpt><trkpt lat="45.1321446" lon="12.0443721"><ele>3.0</ele><time>2026-03-22T08:16:23.314Z</time></trkpt><trkpt lat="45.1321352" lon="12.0441231"><ele>3.0</ele><time>2026-03-22T08:16:24.316Z</time></trkpt><trkpt lat="45.1321357" lon="12.0438737"><ele>3.0</ele><time>2026-03-22T08:16:25.317Z</time></trkpt><trkpt lat="45.1321438" lon="12.0436292"><ele>3.0</ele><time>2026-03-22T08:16:26.32Z</time></trkpt><trkpt lat="45.1321486" lon="12.0433879"><ele>3.0</ele><time>2026-03-22T08:16:27.311Z</time></trkpt><trkpt lat="45.1321602" lon="12.0431498"><ele>3.0</ele><time>2026-03-22T08:16:28.315Z</time></trkpt><trkpt lat="45.1321743" lon="12.0429001"><ele>2.6666666666666665</ele><time>2026-03-22T08:16:29.309Z</time></trkpt><trkpt lat="45.1321857" lon="12.0426469"><ele>2.333333333333333</ele><time>2026-03-22T08:16:30.313Z</time></trkpt><trkpt lat="45.1322039" lon="12.0423922"><ele>2.0</ele><time>2026-03-22T08:16:31.313Z</time></trkpt><trkpt lat="45.1322371" lon="12.0421319"><ele>2.0</ele><time>2026-03-22T08:16:32.315Z</time></trkpt><trkpt lat="45.1322804" lon="12.0418697"><ele>2.0</ele><time>2026-03-22T08:16:33.312Z</time></trkpt><trkpt lat="45.1323399" lon="12.0416035"><ele>2.0</ele><time>2026-03-22T08:16:34.312Z</time></trkpt><trkpt lat="45.1323991" lon="12.0413447"><ele>2.6666666666666665</ele><time>2026-03-22T08:16:35.309Z</time></trkpt><trkpt lat="45.1324611" lon="12.0410914"><ele>3.333333333333333</ele><time>2026-03-22T08:16:36.308Z</time></trkpt><trkpt lat="45.1325257" lon="12.0408375"><ele>4.0</ele><time>2026-03-22T08:16:37.311Z</time></trkpt><trkpt lat="45.1325926" lon="12.0405911"><ele>4.0</ele><time>2026-03-22T08:16:38.316Z</time></trkpt><trkpt lat="45.1326657" lon="12.040355"><ele>4.0</ele><time>2026-03-22T08:16:39.31Z</time></trkpt><trkpt lat="45.1327292" lon="12.0401127"><ele>4.0</ele><time>2026-03-22T08:16:40.31Z</time></trkpt><trkpt lat="45.1327814" lon="12.0398763"><ele>3.333333333333333</ele><time>2026-03-22T08:16:41.312Z</time></trkpt><trkpt lat="45.1328196" lon="12.0396335"><ele>2.6666666666666665</ele><time>2026-03-22T08:16:42.303Z</time></trkpt><trkpt lat="45.132844" lon="12.0393819"><ele>2.0</ele><time>2026-03-22T08:16:43.302Z</time></trkpt><trkpt lat="45.132846" lon="12.0391204"><ele>2.0</ele><time>2026-03-22T08:16:44.304Z</time></trkpt><trkpt lat="45.1328321" lon="12.0388569"><ele>2.0</ele><time>2026-03-22T08:16:45.307Z</time></trkpt><trkpt lat="45.1328197" lon="12.0385919"><ele>2.0</ele><time>2026-03-22T08:16:46.315Z</time></trkpt><trkpt lat="45.1327974" lon="12.0383263"><ele>2.333333333333333</ele><time>2026-03-22T08:16:47.309Z</time></trkpt><trkpt lat="45.1327709" lon="12.03806"><ele>2.6666666666666665</ele><time>2026-03-22T08:16:48.316Z</time></trkpt><trkpt lat="45.1327414" lon="12.0377935"><ele>3.0</ele><time>2026-03-22T08:16:49.305Z</time></trkpt><trkpt lat="45.1327062" lon="12.037522"><ele>2.6666666666666665</ele><time>2026-03-22T08:16:50.311Z</time></trkpt><trkpt lat="45.1326695" lon="12.0372534"><ele>2.333333333333333</ele><time>2026-03-22T08:16:51.314Z</time></trkpt><trkpt lat="45.1326383" lon="12.0369899"><ele>2.0</ele><time>2026-03-22T08:16:52.305Z</time></trkpt><trkpt lat="45.1326039" lon="12.0367212"><ele>1.6666666666666665</ele><time>2026-03-22T08:16:53.311Z</time></trkpt><trkpt lat="45.1325679" lon="12.0364581"><ele>1.3333333333333333</ele><time>2026-03-22T08:16:54.312Z</time></trkpt><trkpt lat="45.1325351" lon="12.0361861"><ele>1.0</ele><time>2026-03-22T08:16:55.318Z</time></trkpt><trkpt lat="45.1325045" lon="12.0359194"><ele>1.3333333333333333</ele><time>2026-03-22T08:16:56.307Z</time></trkpt><trkpt lat="45.1324903" lon="12.0356522"><ele>1.6666666666666665</ele><time>2026-03-22T08:16:57.321Z</time></trkpt><trkpt lat="45.1324912" lon="12.0353937"><ele>2.0</ele><time>2026-03-22T08:16:58.312Z</time></trkpt><trkpt lat="45.1324982" lon="12.0351345"><ele>2.0</ele><time>2026-03-22T08:16:59.311Z</time></trkpt><trkpt lat="45.1325151" lon="12.0348813"><ele>2.0</ele><time>2026-03-22T08:17:00.308Z</time></trkpt><trkpt lat="45.132538" lon="12.0346348"><ele>2.0</ele><time>2026-03-22T08:17:01.314Z</time></trkpt><trkpt lat="45.1325699" lon="12.0344024"><ele>2.0</ele><time>2026-03-22T08:17:02.319Z</time></trkpt><trkpt lat="45.1326001" lon="12.0341827"><ele>2.0</ele><time>2026-03-22T08:17:03.311Z</time></trkpt><trkpt lat="45.1326358" lon="12.0339534"><ele>2.0</ele><time>2026-03-22T08:17:04.315Z</time></trkpt><trkpt lat="45.1326727" lon="12.0337332"><ele>2.0</ele><time>2026-03-22T08:17:05.306Z</time></trkpt><trkpt lat="45.1327061" lon="12.0335046"><ele>2.0</ele><time>2026-03-22T08:17:06.307Z</time></trkpt><trkpt lat="45.132743" lon="12.033275"><ele>2.0</ele><time>2026-03-22T08:17:07.308Z</time></trkpt><trkpt lat="45.1327829" lon="12.033055"><ele>2.0</ele><time>2026-03-22T08:17:08.313Z</time></trkpt><trkpt lat="45.1328256" lon="12.0328469"><ele>2.0</ele><time>2026-03-22T08:17:09.308Z</time></trkpt><trkpt lat="45.1328774" lon="12.0326409"><ele>2.0</ele><time>2026-03-22T08:17:10.303Z</time></trkpt><trkpt lat="45.1329397" lon="12.0324511"><ele>1.6666666666666665</ele><time>2026-03-22T08:17:11.309Z</time></trkpt><trkpt lat="45.1330085" lon="12.0322665"><ele>1.3333333333333333</ele><time>2026-03-22T08:17:12.309Z</time></trkpt><trkpt lat="45.1330757" lon="12.0320799"><ele>1.0</ele><time>2026-03-22T08:17:13.315Z</time></trkpt><trkpt lat="45.133164" lon="12.031899"><ele>1.5</ele><time>2026-03-22T08:17:14.311Z</time></trkpt><trkpt lat="45.1332363" lon="12.031726"><ele>2.0</ele><time>2026-03-22T08:17:15.312Z</time></trkpt><trkpt lat="45.1333186" lon="12.031579"><ele>2.5</ele><time>2026-03-22T08:17:16.307Z</time></trkpt><trkpt lat="45.1333962" lon="12.031435"><ele>3.0</ele><time>2026-03-22T08:17:17.306Z</time></trkpt><trkpt lat="45.1334785" lon="12.0313038"><ele>3.0</ele><time>2026-03-22T08:17:18.304Z</time></trkpt><trkpt lat="45.1335628" lon="12.0311898"><ele>3.0</ele><time>2026-03-22T08:17:19.311Z</time></trkpt><trkpt lat="45.1336497" lon="12.0310683"><ele>3.0</ele><time>2026-03-22T08:17:20.308Z</time></trkpt><trkpt lat="45.1337449" lon="12.0309564"><ele>3.0</ele><time>2026-03-22T08:17:21.316Z</time></trkpt><trkpt lat="45.133843" lon="12.0308459"><ele>2.75</ele><time>2026-03-22T08:17:22.313Z</time></trkpt><trkpt lat="45.1339489" lon="12.0307386"><ele>2.5</ele><time>2026-03-22T08:17:23.307Z</time></trkpt><trkpt lat="45.1340635" lon="12.0306378"><ele>2.25</ele><time>2026-03-22T08:17:24.312Z</time></trkpt><trkpt lat="45.1341799" lon="12.0305454"><ele>2.0</ele><time>2026-03-22T08:17:25.313Z</time></trkpt><trkpt lat="45.1343016" lon="12.0304538"><ele>2.0</ele><time>2026-03-22T08:17:26.309Z</time></trkpt><trkpt lat="45.1344277" lon="12.0303553"><ele>2.0</ele><time>2026-03-22T08:17:27.306Z</time></trkpt><trkpt lat="45.1345649" lon="12.0302859"><ele>2.0</ele><time>2026-03-22T08:17:28.311Z</time></trkpt><trkpt lat="45.1347076" lon="12.0302178"><ele>2.0</ele><time>2026-03-22T08:17:29.313Z</time></trkpt><trkpt lat="45.1348488" lon="12.0301535"><ele>2.6666666666666665</ele><time>2026-03-22T08:17:30.307Z</time></trkpt><trkpt lat="45.1349962" lon="12.0300839"><ele>3.333333333333333</ele><time>2026-03-22T08:17:31.317Z</time></trkpt><trkpt lat="45.1351389" lon="12.0300125"><ele>4.0</ele><time>2026-03-22T08:17:32.311Z</time></trkpt><trkpt lat="45.135276" lon="12.0299362"><ele>2.6666666666666665</ele><time>2026-03-22T08:17:33.308Z</time></trkpt><trkpt lat="45.1354126" lon="12.0298642"><ele>1.3333333333333333</ele><time>2026-03-22T08:17:34.305Z</time></trkpt><trkpt lat="45.1355588" lon="12.0297855"><ele>0.0</ele><time>2026-03-22T08:17:35.305Z</time></trkpt><trkpt lat="45.1357096" lon="12.0296964"><ele>0.3333333333333333</ele><time>2026-03-22T08:17:36.305Z</time></trkpt><trkpt lat="45.1358688" lon="12.0296152"><ele>0.6666666666666666</ele><time>2026-03-22T08:17:37.308Z</time></trkpt><trkpt lat="45.1360346" lon="12.0295476"><ele>1.0</ele><time>2026-03-22T08:17:38.307Z</time></trkpt><trkpt lat="45.1362055" lon="12.0294834"><ele>1.0</ele><time>2026-03-22T08:17:39.311Z</time></trkpt><trkpt lat="45.136379" lon="12.0294104"><ele>1.0</ele><time>2026-03-22T08:17:40.307Z</time></trkpt><trkpt lat="45.1365533" lon="12.0293385"><ele>1.0</ele><time>2026-03-22T08:17:41.305Z</time></trkpt><trkpt lat="45.1367162" lon="12.029261"><ele>0.6666666666666666</ele><time>2026-03-22T08:17:42.306Z</time></trkpt><trkpt lat="45.1368723" lon="12.029158"><ele>0.3333333333333333</ele><time>2026-03-22T08:17:43.302Z</time></trkpt><trkpt lat="45.1370348" lon="12.0290417"><ele>0.0</ele><time>2026-03-22T08:17:44.3Z</time></trkpt><trkpt lat="45.13719" lon="12.0289079"><ele>0.0</ele><time>2026-03-22T08:17:45.308Z</time></trkpt><trkpt lat="45.1373383" lon="12.0287587"><ele>0.0</ele><time>2026-03-22T08:17:46.305Z</time></trkpt><trkpt lat="45.137479" lon="12.0285924"><ele>0.0</ele><time>2026-03-22T08:17:47.307Z</time></trkpt><trkpt lat="45.1376027" lon="12.0284117"><ele>0.3333333333333333</ele><time>2026-03-22T08:17:48.3Z</time></trkpt><trkpt lat="45.1377226" lon="12.0282067"><ele>0.6666666666666666</ele><time>2026-03-22T08:17:49.301Z</time></trkpt><trkpt lat="45.1378296" lon="12.0280035"><ele>1.0</ele><time>2026-03-22T08:17:50.303Z</time></trkpt><trkpt lat="45.1379153" lon="12.0277816"><ele>1.0</ele><time>2026-03-22T08:17:51.297Z</time></trkpt><trkpt lat="45.1379864" lon="12.0275448"><ele>1.0</ele><time>2026-03-22T08:17:52.299Z</time></trkpt><trkpt lat="45.1380423" lon="12.0273031"><ele>1.0</ele><time>2026-03-22T08:17:53.298Z</time></trkpt><trkpt lat="45.1380874" lon="12.0270556"><ele>0.6666666666666666</ele><time>2026-03-22T08:17:54.303Z</time></trkpt><trkpt lat="45.1381198" lon="12.0268077"><ele>0.3333333333333333</ele><time>2026-03-22T08:17:55.307Z</time></trkpt><trkpt lat="45.1381427" lon="12.0265625"><ele>0.0</ele><time>2026-03-22T08:17:56.306Z</time></trkpt><trkpt lat="45.1381642" lon="12.0263147"><ele>0.0</ele><time>2026-03-22T08:17:57.308Z</time></trkpt><trkpt lat="45.1381799" lon="12.0260573"><ele>0.0</ele><time>2026-03-22T08:17:58.31Z</time></trkpt><trkpt lat="45.1381895" lon="12.0258025"><ele>0.0</ele><time>2026-03-22T08:17:59.313Z</time></trkpt><trkpt lat="45.1381945" lon="12.0255504"><ele>0.6666666666666666</ele><time>2026-03-22T08:18:00.308Z</time></trkpt><trkpt lat="45.138188" lon="12.02529"><ele>1.3333333333333333</ele><time>2026-03-22T08:18:01.311Z</time></trkpt><trkpt lat="45.1381743" lon="12.0250267"><ele>2.0</ele><time>2026-03-22T08:18:02.311Z</time></trkpt><trkpt lat="45.1381495" lon="12.0247715"><ele>2.0</ele><time>2026-03-22T08:18:03.31Z</time></trkpt><trkpt lat="45.1381172" lon="12.0245292"><ele>2.0</ele><time>2026-03-22T08:18:04.308Z</time></trkpt><trkpt lat="45.1380791" lon="12.0243031"><ele>2.0</ele><time>2026-03-22T08:18:05.305Z</time></trkpt><trkpt lat="45.1380252" lon="12.0240632"><ele>2.333333333333333</ele><time>2026-03-22T08:18:06.305Z</time></trkpt><trkpt lat="45.1379583" lon="12.023834"><ele>2.6666666666666665</ele><time>2026-03-22T08:18:07.306Z</time></trkpt><trkpt lat="45.1378815" lon="12.0236246"><ele>3.0</ele><time>2026-03-22T08:18:08.3Z</time></trkpt><trkpt lat="45.1377993" lon="12.0234204"><ele>3.333333333333333</ele><time>2026-03-22T08:18:09.299Z</time></trkpt><trkpt lat="45.1377122" lon="12.023217"><ele>3.6666666666666665</ele><time>2026-03-22T08:18:10.307Z</time></trkpt><trkpt lat="45.1376198" lon="12.0230107"><ele>4.0</ele><time>2026-03-22T08:18:11.311Z</time></trkpt><trkpt lat="45.1375329" lon="12.0228019"><ele>4.0</ele><time>2026-03-22T08:18:12.31Z</time></trkpt><trkpt lat="45.1374539" lon="12.0225943"><ele>4.0</ele><time>2026-03-22T08:18:13.308Z</time></trkpt><trkpt lat="45.1373887" lon="12.0223897"><ele>4.0</ele><time>2026-03-22T08:18:14.306Z</time></trkpt><trkpt lat="45.1373233" lon="12.0221847"><ele>3.25</ele><time>2026-03-22T08:18:15.303Z</time></trkpt><trkpt lat="45.1372722" lon="12.0219703"><ele>2.5</ele><time>2026-03-22T08:18:16.301Z</time></trkpt><trkpt lat="45.1372348" lon="12.0217593"><ele>1.75</ele><time>2026-03-22T08:18:17.302Z</time></trkpt><trkpt lat="45.137218" lon="12.0215692"><ele>1.0</ele><time>2026-03-22T08:18:18.297Z</time></trkpt><trkpt lat="45.1372228" lon="12.0213891"><ele>1.0</ele><time>2026-03-22T08:18:19.304Z</time></trkpt><trkpt lat="45.1372364" lon="12.0212178"><ele>1.0</ele><time>2026-03-22T08:18:20.301Z</time></trkpt><trkpt lat="45.1372502" lon="12.021062"><ele>1.0</ele><time>2026-03-22T08:18:21.303Z</time></trkpt><trkpt lat="45.1372629" lon="12.020903"><ele>1.0</ele><time>2026-03-22T08:18:22.307Z</time></trkpt><trkpt lat="45.1372747" lon="12.0207679"><ele>1.0</ele><time>2026-03-22T08:18:23.307Z</time></trkpt><trkpt lat="45.1372894" lon="12.0206312"><ele>0.8333333333333333</ele><time>2026-03-22T08:18:24.306Z</time></trkpt><trkpt lat="45.1373045" lon="12.0205083"><ele>0.6666666666666666</ele><time>2026-03-22T08:18:25.308Z</time></trkpt><trkpt lat="45.1373199" lon="12.0203909"><ele>0.5</ele><time>2026-03-22T08:18:26.305Z</time></trkpt><trkpt lat="45.1373391" lon="12.0202854"><ele>0.3333333333333333</ele><time>2026-03-22T08:18:27.308Z</time></trkpt><trkpt lat="45.1373583" lon="12.0201804"><ele>0.16666666666666666</ele><time>2026-03-22T08:18:28.308Z</time></trkpt><trkpt lat="45.1373816" lon="12.0200847"><ele>0.0</ele><time>2026-03-22T08:18:29.312Z</time></trkpt><trkpt lat="45.1374082" lon="12.0199937"><ele>0.3333333333333333</ele><time>2026-03-22T08:18:30.312Z</time></trkpt><trkpt lat="45.1374333" lon="12.0198959"><ele>0.6666666666666666</ele><time>2026-03-22T08:18:31.318Z</time></trkpt><trkpt lat="45.1374556" lon="12.0197924"><ele>1.0</ele><time>2026-03-22T08:18:32.31Z</time></trkpt><trkpt lat="45.1374776" lon="12.0196828"><ele>1.3333333333333333</ele><time>2026-03-22T08:18:33.31Z</time></trkpt><trkpt lat="45.1375048" lon="12.0195655"><ele>1.6666666666666665</ele><time>2026-03-22T08:18:34.303Z</time></trkpt><trkpt lat="45.1375292" lon="12.0194329"><ele>2.0</ele><time>2026-03-22T08:18:35.311Z</time></trkpt><trkpt lat="45.1375536" lon="12.0192717"><ele>2.25</ele><time>2026-03-22T08:18:36.311Z</time></trkpt><trkpt lat="45.1375743" lon="12.0190861"><ele>2.5</ele><time>2026-03-22T08:18:37.312Z</time></trkpt><trkpt lat="45.1375907" lon="12.018878"><ele>2.75</ele><time>2026-03-22T08:18:38.308Z</time></trkpt><trkpt lat="45.1376001" lon="12.0186466"><ele>3.0</ele><time>2026-03-22T08:18:39.312Z</time></trkpt><trkpt lat="45.1375993" lon="12.018413"><ele>3.333333333333333</ele><time>2026-03-22T08:18:40.31Z</time></trkpt><trkpt lat="45.1375994" lon="12.0181767"><ele>3.6666666666666665</ele><time>2026-03-22T08:18:41.314Z</time></trkpt><trkpt lat="45.1376028" lon="12.017934"><ele>4.0</ele><time>2026-03-22T08:18:42.312Z</time></trkpt><trkpt lat="45.137605" lon="12.0176735"><ele>4.0</ele><time>2026-03-22T08:18:43.313Z</time></trkpt><trkpt lat="45.137609" lon="12.0174105"><ele>4.0</ele><time>2026-03-22T08:18:44.312Z</time></trkpt><trkpt lat="45.1376107" lon="12.0171489"><ele>4.0</ele><time>2026-03-22T08:18:45.311Z</time></trkpt><trkpt lat="45.1376145" lon="12.0168733"><ele>4.333333333333333</ele><time>2026-03-22T08:18:46.308Z</time></trkpt><trkpt lat="45.1376198" lon="12.0165895"><ele>4.666666666666667</ele><time>2026-03-22T08:18:47.308Z</time></trkpt><trkpt lat="45.1376279" lon="12.0163102"><ele>5.0</ele><time>2026-03-22T08:18:48.312Z</time></trkpt><trkpt lat="45.1376327" lon="12.0160321"><ele>4.666666666666667</ele><time>2026-03-22T08:18:49.316Z</time></trkpt><trkpt lat="45.1376403" lon="12.0157507"><ele>4.333333333333333</ele><time>2026-03-22T08:18:50.311Z</time></trkpt><trkpt lat="45.1376462" lon="12.0154703"><ele>4.0</ele><time>2026-03-22T08:18:51.309Z</time></trkpt><trkpt lat="45.1376546" lon="12.0151937"><ele>4.333333333333333</ele><time>2026-03-22T08:18:52.311Z</time></trkpt><trkpt lat="45.1376695" lon="12.0149091"><ele>4.666666666666667</ele><time>2026-03-22T08:18:53.317Z</time></trkpt><trkpt lat="45.1376883" lon="12.0146349"><ele>5.0</ele><time>2026-03-22T08:18:54.313Z</time></trkpt><trkpt lat="45.1376956" lon="12.0143558"><ele>5.0</ele><time>2026-03-22T08:18:55.315Z</time></trkpt><trkpt lat="45.1377119" lon="12.01409"><ele>5.0</ele><time>2026-03-22T08:18:56.31Z</time></trkpt><trkpt lat="45.137722" lon="12.0138171"><ele>5.0</ele><time>2026-03-22T08:18:57.316Z</time></trkpt><trkpt lat="45.1377273" lon="12.0135554"><ele>4.666666666666667</ele><time>2026-03-22T08:18:58.312Z</time></trkpt><trkpt lat="45.1377249" lon="12.0133164"><ele>4.333333333333333</ele><time>2026-03-22T08:18:59.317Z</time></trkpt><trkpt lat="45.1377031" lon="12.0130785"><ele>4.0</ele><time>2026-03-22T08:19:00.307Z</time></trkpt><trkpt lat="45.1376525" lon="12.012852"><ele>4.0</ele><time>2026-03-22T08:19:01.307Z</time></trkpt><trkpt lat="45.1375752" lon="12.0126365"><ele>4.0</ele><time>2026-03-22T08:19:02.311Z</time></trkpt><trkpt lat="45.1374744" lon="12.0124316"><ele>4.0</ele><time>2026-03-22T08:19:03.305Z</time></trkpt><trkpt lat="45.1373703" lon="12.0122495"><ele>3.6666666666666665</ele><time>2026-03-22T08:19:04.312Z</time></trkpt><trkpt lat="45.1372665" lon="12.0120725"><ele>3.333333333333333</ele><time>2026-03-22T08:19:05.305Z</time></trkpt><trkpt lat="45.1371879" lon="12.0118947"><ele>3.0</ele><time>2026-03-22T08:19:06.297Z</time></trkpt><trkpt lat="45.13713" lon="12.0117107"><ele>2.75</ele><time>2026-03-22T08:19:07.306Z</time></trkpt><trkpt lat="45.1371121" lon="12.0115393"><ele>2.5</ele><time>2026-03-22T08:19:08.298Z</time></trkpt><trkpt lat="45.1371117" lon="12.0113526"><ele>2.25</ele><time>2026-03-22T08:19:09.301Z</time></trkpt><trkpt lat="45.1371226" lon="12.0111591"><ele>2.0</ele><time>2026-03-22T08:19:10.308Z</time></trkpt><trkpt lat="45.1371341" lon="12.010969"><ele>2.5</ele><time>2026-03-22T08:19:11.304Z</time></trkpt><trkpt lat="45.1371527" lon="12.0107795"><ele>3.0</ele><time>2026-03-22T08:19:12.306Z</time></trkpt><trkpt lat="45.1371814" lon="12.0105992"><ele>3.5</ele><time>2026-03-22T08:19:13.305Z</time></trkpt><trkpt lat="45.1372268" lon="12.0104148"><ele>4.0</ele><time>2026-03-22T08:19:14.296Z</time></trkpt><trkpt lat="45.1372876" lon="12.0102344"><ele>4.0</ele><time>2026-03-22T08:19:15.304Z</time></trkpt><trkpt lat="45.1373653" lon="12.0100542"><ele>4.0</ele><time>2026-03-22T08:19:16.307Z</time></trkpt><trkpt lat="45.1374453" lon="12.0098845"><ele>4.0</ele><time>2026-03-22T08:19:17.306Z</time></trkpt><trkpt lat="45.137529" lon="12.0097102"><ele>4.0</ele><time>2026-03-22T08:19:18.309Z</time></trkpt><trkpt lat="45.1376357" lon="12.0095462"><ele>4.0</ele><time>2026-03-22T08:19:19.298Z</time></trkpt><trkpt lat="45.1377507" lon="12.0094127"><ele>4.0</ele><time>2026-03-22T08:19:20.303Z</time></trkpt><trkpt lat="45.1378783" lon="12.0093113"><ele>4.0</ele><time>2026-03-22T08:19:21.305Z</time></trkpt><trkpt lat="45.1380234" lon="12.0092487"><ele>4.0</ele><time>2026-03-22T08:19:22.303Z</time></trkpt><trkpt lat="45.1381735" lon="12.0091731"><ele>4.0</ele><time>2026-03-22T08:19:23.307Z</time></trkpt><trkpt lat="45.1383251" lon="12.0090964"><ele>4.0</ele><time>2026-03-22T08:19:24.311Z</time></trkpt><trkpt lat="45.1384699" lon="12.0090101"><ele>4.0</ele><time>2026-03-22T08:19:25.31Z</time></trkpt><trkpt lat="45.1386115" lon="12.0089185"><ele>4.0</ele><time>2026-03-22T08:19:26.31Z</time></trkpt><trkpt lat="45.1387488" lon="12.008805"><ele>4.0</ele><time>2026-03-22T08:19:27.305Z</time></trkpt><trkpt lat="45.1388626" lon="12.0086634"><ele>4.0</ele><time>2026-03-22T08:19:28.311Z</time></trkpt><trkpt lat="45.1389636" lon="12.0084874"><ele>4.0</ele><time>2026-03-22T08:19:29.302Z</time></trkpt><trkpt lat="45.1390535" lon="12.0082956"><ele>4.0</ele><time>2026-03-22T08:19:30.312Z</time></trkpt><trkpt lat="45.1391407" lon="12.0081059"><ele>4.0</ele><time>2026-03-22T08:19:31.307Z</time></trkpt><trkpt lat="45.1392259" lon="12.0078989"><ele>4.0</ele><time>2026-03-22T08:19:32.319Z</time></trkpt><trkpt lat="45.1393062" lon="12.007694"><ele>4.0</ele><time>2026-03-22T08:19:33.302Z</time></trkpt><trkpt lat="45.1393859" lon="12.007487"><ele>4.0</ele><time>2026-03-22T08:19:34.315Z</time></trkpt><trkpt lat="45.1394575" lon="12.0072665"><ele>4.0</ele><time>2026-03-22T08:19:35.308Z</time></trkpt><trkpt lat="45.139507" lon="12.0070402"><ele>4.0</ele><time>2026-03-22T08:19:36.305Z</time></trkpt><trkpt lat="45.1395418" lon="12.0068006"><ele>4.0</ele><time>2026-03-22T08:19:37.302Z</time></trkpt><trkpt lat="45.1395763" lon="12.0065506"><ele>4.0</ele><time>2026-03-22T08:19:38.311Z</time></trkpt><trkpt lat="45.1396068" lon="12.0062928"><ele>4.0</ele><time>2026-03-22T08:19:39.308Z</time></trkpt><trkpt lat="45.1396299" lon="12.0060414"><ele>4.0</ele><time>2026-03-22T08:19:40.31Z</time></trkpt><trkpt lat="45.13965" lon="12.0057661"><ele>3.6666666666666665</ele><time>2026-03-22T08:19:41.314Z</time></trkpt><trkpt lat="45.1396651" lon="12.0054934"><ele>3.333333333333333</ele><time>2026-03-22T08:19:42.309Z</time></trkpt><trkpt lat="45.1396715" lon="12.0052155"><ele>3.0</ele><time>2026-03-22T08:19:43.322Z</time></trkpt><trkpt lat="45.1396734" lon="12.0049217"><ele>2.6666666666666665</ele><time>2026-03-22T08:19:44.314Z</time></trkpt><trkpt lat="45.1396649" lon="12.0046232"><ele>2.333333333333333</ele><time>2026-03-22T08:19:45.321Z</time></trkpt><trkpt lat="45.1396448" lon="12.0043178"><ele>2.0</ele><time>2026-03-22T08:19:46.311Z</time></trkpt><trkpt lat="45.1396154" lon="12.0040119"><ele>2.0</ele><time>2026-03-22T08:19:47.314Z</time></trkpt><trkpt lat="45.139577" lon="12.0037016"><ele>2.0</ele><time>2026-03-22T08:19:48.311Z</time></trkpt><trkpt lat="45.1395409" lon="12.0034014"><ele>2.0</ele><time>2026-03-22T08:19:49.312Z</time></trkpt><trkpt lat="45.1395046" lon="12.0031104"><ele>2.0</ele><time>2026-03-22T08:19:50.307Z</time></trkpt><trkpt lat="45.1394656" lon="12.0028361"><ele>2.0</ele><time>2026-03-22T08:19:51.312Z</time></trkpt><trkpt lat="45.1394278" lon="12.0025608"><ele>2.0</ele><time>2026-03-22T08:19:52.311Z</time></trkpt><trkpt lat="45.1393923" lon="12.0022988"><ele>2.0</ele><time>2026-03-22T08:19:53.311Z</time></trkpt><trkpt lat="45.1393581" lon="12.0020512"><ele>2.0</ele><time>2026-03-22T08:19:54.308Z</time></trkpt><trkpt lat="45.1393201" lon="12.0018108"><ele>2.0</ele><time>2026-03-22T08:19:55.309Z</time></trkpt><trkpt lat="45.1392862" lon="12.0015695"><ele>2.333333333333333</ele><time>2026-03-22T08:19:56.314Z</time></trkpt><trkpt lat="45.1392514" lon="12.0013465"><ele>2.6666666666666665</ele><time>2026-03-22T08:19:57.307Z</time></trkpt><trkpt lat="45.1392159" lon="12.0011426"><ele>3.0</ele><time>2026-03-22T08:19:58.303Z</time></trkpt><trkpt lat="45.1391653" lon="12.000943"><ele>3.333333333333333</ele><time>2026-03-22T08:19:59.303Z</time></trkpt><trkpt lat="45.1391001" lon="12.0007401"><ele>3.6666666666666665</ele><time>2026-03-22T08:20:00.307Z</time></trkpt><trkpt lat="45.1390252" lon="12.0005498"><ele>4.0</ele><time>2026-03-22T08:20:01.309Z</time></trkpt><trkpt lat="45.1389607" lon="12.0003696"><ele>3.5</ele><time>2026-03-22T08:20:02.321Z</time></trkpt><trkpt lat="45.138905" lon="12.0001916"><ele>3.0</ele><time>2026-03-22T08:20:03.309Z</time></trkpt><trkpt lat="45.1388669" lon="12.0000021"><ele>2.5</ele><time>2026-03-22T08:20:04.311Z</time></trkpt><trkpt lat="45.1388593" lon="11.9997991"><ele>2.0</ele><time>2026-03-22T08:20:05.299Z</time></trkpt><trkpt lat="45.1388749" lon="11.9995832"><ele>2.0</ele><time>2026-03-22T08:20:06.302Z</time></trkpt><trkpt lat="45.1389073" lon="11.999366"><ele>2.0</ele><time>2026-03-22T08:20:07.305Z</time></trkpt><trkpt lat="45.1389529" lon="11.9991536"><ele>2.0</ele><time>2026-03-22T08:20:08.309Z</time></trkpt><trkpt lat="45.1389902" lon="11.9989535"><ele>2.333333333333333</ele><time>2026-03-22T08:20:09.306Z</time></trkpt><trkpt lat="45.1390383" lon="11.9987533"><ele>2.6666666666666665</ele><time>2026-03-22T08:20:10.304Z</time></trkpt><trkpt lat="45.1390749" lon="11.9985416"><ele>3.0</ele><time>2026-03-22T08:20:11.309Z</time></trkpt><trkpt lat="45.139102" lon="11.9983268"><ele>3.333333333333333</ele><time>2026-03-22T08:20:12.308Z</time></trkpt><trkpt lat="45.1391136" lon="11.9981082"><ele>3.6666666666666665</ele><time>2026-03-22T08:20:13.301Z</time></trkpt><trkpt lat="45.1391227" lon="11.9978832"><ele>4.0</ele><time>2026-03-22T08:20:14.306Z</time></trkpt><trkpt lat="45.1391265" lon="11.9976569"><ele>4.333333333333333</ele><time>2026-03-22T08:20:15.307Z</time></trkpt><trkpt lat="45.139125" lon="11.997435"><ele>4.666666666666667</ele><time>2026-03-22T08:20:16.311Z</time></trkpt><trkpt lat="45.1391208" lon="11.9972072"><ele>5.0</ele><time>2026-03-22T08:20:17.312Z</time></trkpt><trkpt lat="45.1391129" lon="11.996993"><ele>5.0</ele><time>2026-03-22T08:20:18.313Z</time></trkpt><trkpt lat="45.1390983" lon="11.9967688"><ele>5.0</ele><time>2026-03-22T08:20:19.311Z</time></trkpt><trkpt lat="45.1390888" lon="11.9965457"><ele>5.0</ele><time>2026-03-22T08:20:20.313Z</time></trkpt><trkpt lat="45.139075" lon="11.9963143"><ele>5.333333333333334</ele><time>2026-03-22T08:20:21.313Z</time></trkpt><trkpt lat="45.1390679" lon="11.9960703"><ele>5.666666666666667</ele><time>2026-03-22T08:20:22.309Z</time></trkpt><trkpt lat="45.1390651" lon="11.99582"><ele>6.0</ele><time>2026-03-22T08:20:23.317Z</time></trkpt><trkpt lat="45.1390565" lon="11.995571"><ele>6.0</ele><time>2026-03-22T08:20:24.31Z</time></trkpt><trkpt lat="45.1390471" lon="11.9953077"><ele>6.0</ele><time>2026-03-22T08:20:25.313Z</time></trkpt><trkpt lat="45.1390448" lon="11.9950402"><ele>6.0</ele><time>2026-03-22T08:20:26.307Z</time></trkpt><trkpt lat="45.1390508" lon="11.9947706"><ele>6.0</ele><time>2026-03-22T08:20:27.307Z</time></trkpt><trkpt lat="45.1390626" lon="11.994487"><ele>6.0</ele><time>2026-03-22T08:20:28.31Z</time></trkpt><trkpt lat="45.1390787" lon="11.9941998"><ele>6.0</ele><time>2026-03-22T08:20:29.307Z</time></trkpt><trkpt lat="45.1390949" lon="11.9939222"><ele>6.333333333333334</ele><time>2026-03-22T08:20:30.317Z</time></trkpt><trkpt lat="45.1391014" lon="11.9936535"><ele>6.666666666666667</ele><time>2026-03-22T08:20:31.307Z</time></trkpt><trkpt lat="45.1390963" lon="11.9933814"><ele>7.0</ele><time>2026-03-22T08:20:32.314Z</time></trkpt><trkpt lat="45.1390723" lon="11.9931081"><ele>5.666666666666667</ele><time>2026-03-22T08:20:33.309Z</time></trkpt><trkpt lat="45.1390259" lon="11.9928335"><ele>4.333333333333334</ele><time>2026-03-22T08:20:34.303Z</time></trkpt><trkpt lat="45.1389768" lon="11.99256"><ele>3.0</ele><time>2026-03-22T08:20:35.311Z</time></trkpt><trkpt lat="45.1389228" lon="11.9922854"><ele>3.0</ele><time>2026-03-22T08:20:36.308Z</time></trkpt><trkpt lat="45.1388596" lon="11.9920292"><ele>3.0</ele><time>2026-03-22T08:20:37.31Z</time></trkpt><trkpt lat="45.1387871" lon="11.9917649"><ele>3.0</ele><time>2026-03-22T08:20:38.308Z</time></trkpt><trkpt lat="45.1387091" lon="11.9915027"><ele>3.0</ele><time>2026-03-22T08:20:39.309Z</time></trkpt><trkpt lat="45.1386323" lon="11.9912466"><ele>3.0</ele><time>2026-03-22T08:20:40.307Z</time></trkpt><trkpt lat="45.1385543" lon="11.9909911"><ele>3.0</ele><time>2026-03-22T08:20:41.308Z</time></trkpt><trkpt lat="45.1384818" lon="11.9907254"><ele>3.666666666666667</ele><time>2026-03-22T08:20:42.309Z</time></trkpt><trkpt lat="45.1384038" lon="11.9904721"><ele>4.333333333333334</ele><time>2026-03-22T08:20:43.305Z</time></trkpt><trkpt lat="45.1383295" lon="11.9902115"><ele>5.0</ele><time>2026-03-22T08:20:44.312Z</time></trkpt><trkpt lat="45.1382554" lon="11.9899456"><ele>5.333333333333334</ele><time>2026-03-22T08:20:45.306Z</time></trkpt><trkpt lat="45.1381773" lon="11.9896777"><ele>5.666666666666667</ele><time>2026-03-22T08:20:46.307Z</time></trkpt><trkpt lat="45.1380982" lon="11.9894169"><ele>6.0</ele><time>2026-03-22T08:20:47.303Z</time></trkpt><trkpt lat="45.1380214" lon="11.9891564"><ele>6.0</ele><time>2026-03-22T08:20:48.309Z</time></trkpt><trkpt lat="45.1379463" lon="11.9888892"><ele>6.0</ele><time>2026-03-22T08:20:49.308Z</time></trkpt><trkpt lat="45.1378789" lon="11.9886302"><ele>6.0</ele><time>2026-03-22T08:20:50.306Z</time></trkpt><trkpt lat="45.1378085" lon="11.9883737"><ele>6.0</ele><time>2026-03-22T08:20:51.307Z</time></trkpt><trkpt lat="45.1377356" lon="11.988118"><ele>6.0</ele><time>2026-03-22T08:20:52.306Z</time></trkpt><trkpt lat="45.1376619" lon="11.9878664"><ele>6.0</ele><time>2026-03-22T08:20:53.309Z</time></trkpt><trkpt lat="45.1375893" lon="11.9876106"><ele>6.333333333333334</ele><time>2026-03-22T08:20:54.307Z</time></trkpt><trkpt lat="45.1375163" lon="11.9873546"><ele>6.666666666666667</ele><time>2026-03-22T08:20:55.314Z</time></trkpt><trkpt lat="45.1374496" lon="11.9870918"><ele>7.0</ele><time>2026-03-22T08:20:56.308Z</time></trkpt><trkpt lat="45.1373798" lon="11.9868329"><ele>5.666666666666667</ele><time>2026-03-22T08:20:57.311Z</time></trkpt><trkpt lat="45.1373204" lon="11.9865891"><ele>4.333333333333334</ele><time>2026-03-22T08:20:58.305Z</time></trkpt><trkpt lat="45.1372622" lon="11.9863644"><ele>3.0</ele><time>2026-03-22T08:20:59.304Z</time></trkpt><trkpt lat="45.1372173" lon="11.9861467"><ele>3.0</ele><time>2026-03-22T08:21:00.302Z</time></trkpt><trkpt lat="45.1371658" lon="11.9859283"><ele>3.0</ele><time>2026-03-22T08:21:01.305Z</time></trkpt><trkpt lat="45.1371121" lon="11.9857164"><ele>3.0</ele><time>2026-03-22T08:21:02.314Z</time></trkpt><trkpt lat="45.1370617" lon="11.9855049"><ele>3.0</ele><time>2026-03-22T08:21:03.303Z</time></trkpt><trkpt lat="45.1370133" lon="11.9852927"><ele>3.0</ele><time>2026-03-22T08:21:04.311Z</time></trkpt><trkpt lat="45.1369654" lon="11.9850827"><ele>3.0</ele><time>2026-03-22T08:21:05.307Z</time></trkpt><trkpt lat="45.136918" lon="11.9848739"><ele>3.0</ele><time>2026-03-22T08:21:06.311Z</time></trkpt><trkpt lat="45.1368699" lon="11.9846604"><ele>3.0</ele><time>2026-03-22T08:21:07.308Z</time></trkpt><trkpt lat="45.1368171" lon="11.9844377"><ele>3.0</ele><time>2026-03-22T08:21:08.309Z</time></trkpt><trkpt lat="45.1367687" lon="11.9842142"><ele>3.666666666666667</ele><time>2026-03-22T08:21:09.31Z</time></trkpt><trkpt lat="45.136716" lon="11.9839912"><ele>4.333333333333334</ele><time>2026-03-22T08:21:10.307Z</time></trkpt><trkpt lat="45.1366602" lon="11.9837693"><ele>5.0</ele><time>2026-03-22T08:21:11.307Z</time></trkpt><trkpt lat="45.1366073" lon="11.9835426"><ele>3.0</ele><time>2026-03-22T08:21:12.31Z</time></trkpt><trkpt lat="45.1365506" lon="11.9833076"><ele>1.0</ele><time>2026-03-22T08:21:13.308Z</time></trkpt><trkpt lat="45.1364976" lon="11.9830707"><ele>-1.0</ele><time>2026-03-22T08:21:14.311Z</time></trkpt><trkpt lat="45.1364493" lon="11.9828345"><ele>-1.0</ele><time>2026-03-22T08:21:15.31Z</time></trkpt><trkpt lat="45.1364042" lon="11.9825978"><ele>-1.0</ele><time>2026-03-22T08:21:16.316Z</time></trkpt><trkpt lat="45.1363495" lon="11.9823598"><ele>-1.0</ele><time>2026-03-22T08:21:17.304Z</time></trkpt><trkpt lat="45.1362933" lon="11.9821257"><ele>-0.3333333333333333</ele><time>2026-03-22T08:21:18.307Z</time></trkpt><trkpt lat="45.1362415" lon="11.981905"><ele>0.3333333333333333</ele><time>2026-03-22T08:21:19.314Z</time></trkpt><trkpt lat="45.1361889" lon="11.9816763"><ele>1.0</ele><time>2026-03-22T08:21:20.311Z</time></trkpt><trkpt lat="45.1361383" lon="11.9814453"><ele>1.6666666666666665</ele><time>2026-03-22T08:21:21.312Z</time></trkpt><trkpt lat="45.1360896" lon="11.9812177"><ele>2.3333333333333335</ele><time>2026-03-22T08:21:22.309Z</time></trkpt><trkpt lat="45.1360338" lon="11.9809931"><ele>3.0</ele><time>2026-03-22T08:21:23.308Z</time></trkpt><trkpt lat="45.1359772" lon="11.9807601"><ele>3.333333333333333</ele><time>2026-03-22T08:21:24.31Z</time></trkpt><trkpt lat="45.1359195" lon="11.9805159"><ele>3.6666666666666665</ele><time>2026-03-22T08:21:25.318Z</time></trkpt><trkpt lat="45.1358593" lon="11.9802646"><ele>4.0</ele><time>2026-03-22T08:21:26.309Z</time></trkpt><trkpt lat="45.1357963" lon="11.9800073"><ele>4.0</ele><time>2026-03-22T08:21:27.315Z</time></trkpt><trkpt lat="45.1357337" lon="11.9797449"><ele>4.0</ele><time>2026-03-22T08:21:28.311Z</time></trkpt><trkpt lat="45.1356706" lon="11.9794748"><ele>4.0</ele><time>2026-03-22T08:21:29.316Z</time></trkpt><trkpt lat="45.1356084" lon="11.9791983"><ele>3.6666666666666665</ele><time>2026-03-22T08:21:30.309Z</time></trkpt><trkpt lat="45.1355446" lon="11.9789207"><ele>3.333333333333333</ele><time>2026-03-22T08:21:31.308Z</time></trkpt><trkpt lat="45.1354809" lon="11.9786332"><ele>3.0</ele><time>2026-03-22T08:21:32.316Z</time></trkpt><trkpt lat="45.1354162" lon="11.9783457"><ele>3.0</ele><time>2026-03-22T08:21:33.308Z</time></trkpt><trkpt lat="45.135346" lon="11.9780531"><ele>3.0</ele><time>2026-03-22T08:21:34.312Z</time></trkpt><trkpt lat="45.1352809" lon="11.9777655"><ele>3.0</ele><time>2026-03-22T08:21:35.312Z</time></trkpt><trkpt lat="45.13521" lon="11.9774735"><ele>3.333333333333333</ele><time>2026-03-22T08:21:36.312Z</time></trkpt><trkpt lat="45.1351385" lon="11.9771841"><ele>3.6666666666666665</ele><time>2026-03-22T08:21:37.312Z</time></trkpt><trkpt lat="45.1350743" lon="11.9768948"><ele>4.0</ele><time>2026-03-22T08:21:38.31Z</time></trkpt><trkpt lat="45.1350062" lon="11.9766028"><ele>4.0</ele><time>2026-03-22T08:21:39.306Z</time></trkpt><trkpt lat="45.1349394" lon="11.9763158"><ele>4.0</ele><time>2026-03-22T08:21:40.31Z</time></trkpt><trkpt lat="45.1348725" lon="11.9760203"><ele>4.0</ele><time>2026-03-22T08:21:41.314Z</time></trkpt><trkpt lat="45.134813" lon="11.975725"><ele>4.0</ele><time>2026-03-22T08:21:42.315Z</time></trkpt><trkpt lat="45.1347429" lon="11.9754274"><ele>4.0</ele><time>2026-03-22T08:21:43.307Z</time></trkpt><trkpt lat="45.1346692" lon="11.9751338"><ele>4.0</ele><time>2026-03-22T08:21:44.31Z</time></trkpt><trkpt lat="45.1345925" lon="11.9748509"><ele>4.333333333333333</ele><time>2026-03-22T08:21:45.315Z</time></trkpt><trkpt lat="45.1345206" lon="11.9745591"><ele>4.666666666666667</ele><time>2026-03-22T08:21:46.319Z</time></trkpt><trkpt lat="45.1344534" lon="11.9742636"><ele>5.0</ele><time>2026-03-22T08:21:47.313Z</time></trkpt><trkpt lat="45.1343889" lon="11.973974"><ele>5.333333333333334</ele><time>2026-03-22T08:21:48.311Z</time></trkpt><trkpt lat="45.1343127" lon="11.9736841"><ele>5.666666666666667</ele><time>2026-03-22T08:21:49.313Z</time></trkpt><trkpt lat="45.1342404" lon="11.9733951"><ele>6.0</ele><time>2026-03-22T08:21:50.314Z</time></trkpt><trkpt lat="45.1341674" lon="11.9731062"><ele>6.0</ele><time>2026-03-22T08:21:51.306Z</time></trkpt><trkpt lat="45.134095" lon="11.972815"><ele>6.0</ele><time>2026-03-22T08:21:52.311Z</time></trkpt><trkpt lat="45.1340285" lon="11.9725199"><ele>6.0</ele><time>2026-03-22T08:21:53.318Z</time></trkpt><trkpt lat="45.1339545" lon="11.9722267"><ele>5.0</ele><time>2026-03-22T08:21:54.307Z</time></trkpt><trkpt lat="45.1338909" lon="11.971937"><ele>4.0</ele><time>2026-03-22T08:21:55.318Z</time></trkpt><trkpt lat="45.1338239" lon="11.9716482"><ele>3.0</ele><time>2026-03-22T08:21:56.311Z</time></trkpt><trkpt lat="45.1337604" lon="11.9713611"><ele>3.0</ele><time>2026-03-22T08:21:57.311Z</time></trkpt><trkpt lat="45.1336956" lon="11.9710756"><ele>3.0</ele><time>2026-03-22T08:21:58.312Z</time></trkpt><trkpt lat="45.1336348" lon="11.9707948"><ele>3.0</ele><time>2026-03-22T08:21:59.309Z</time></trkpt><trkpt lat="45.1335732" lon="11.9705094"><ele>3.0</ele><time>2026-03-22T08:22:00.313Z</time></trkpt><trkpt lat="45.1335097" lon="11.9702258"><ele>3.0</ele><time>2026-03-22T08:22:01.31Z</time></trkpt><trkpt lat="45.133443" lon="11.9699442"><ele>3.0</ele><time>2026-03-22T08:22:02.316Z</time></trkpt><trkpt lat="45.1333731" lon="11.969665"><ele>3.333333333333333</ele><time>2026-03-22T08:22:03.307Z</time></trkpt><trkpt lat="45.1333082" lon="11.9693859"><ele>3.6666666666666665</ele><time>2026-03-22T08:22:04.304Z</time></trkpt><trkpt lat="45.1332433" lon="11.969101"><ele>4.0</ele><time>2026-03-22T08:22:05.308Z</time></trkpt><trkpt lat="45.1331861" lon="11.9688175"><ele>3.333333333333333</ele><time>2026-03-22T08:22:06.317Z</time></trkpt><trkpt lat="45.1331196" lon="11.9685277"><ele>2.6666666666666665</ele><time>2026-03-22T08:22:07.31Z</time></trkpt><trkpt lat="45.1330563" lon="11.9682426"><ele>2.0</ele><time>2026-03-22T08:22:08.315Z</time></trkpt><trkpt lat="45.132995" lon="11.9679514"><ele>2.0</ele><time>2026-03-22T08:22:09.307Z</time></trkpt><trkpt lat="45.1329292" lon="11.9676574"><ele>2.0</ele><time>2026-03-22T08:22:10.31Z</time></trkpt><trkpt lat="45.1328602" lon="11.9673738"><ele>2.0</ele><time>2026-03-22T08:22:11.313Z</time></trkpt><trkpt lat="45.1327958" lon="11.9670908"><ele>2.333333333333333</ele><time>2026-03-22T08:22:12.308Z</time></trkpt><trkpt lat="45.1327378" lon="11.9668097"><ele>2.6666666666666665</ele><time>2026-03-22T08:22:13.318Z</time></trkpt><trkpt lat="45.1326825" lon="11.9665311"><ele>3.0</ele><time>2026-03-22T08:22:14.307Z</time></trkpt><trkpt lat="45.1326335" lon="11.9662445"><ele>4.333333333333334</ele><time>2026-03-22T08:22:15.31Z</time></trkpt><trkpt lat="45.1326031" lon="11.9659634"><ele>5.666666666666667</ele><time>2026-03-22T08:22:16.304Z</time></trkpt><trkpt lat="45.1325826" lon="11.9656782"><ele>7.0</ele><time>2026-03-22T08:22:17.301Z</time></trkpt><trkpt lat="45.1325746" lon="11.9653877"><ele>7.0</ele><time>2026-03-22T08:22:18.308Z</time></trkpt><trkpt lat="45.1325745" lon="11.9651023"><ele>7.0</ele><time>2026-03-22T08:22:19.313Z</time></trkpt><trkpt lat="45.1325822" lon="11.9648208"><ele>7.0</ele><time>2026-03-22T08:22:20.303Z</time></trkpt><trkpt lat="45.1325847" lon="11.964554"><ele>7.0</ele><time>2026-03-22T08:22:21.308Z</time></trkpt><trkpt lat="45.1325874" lon="11.9643129"><ele>7.0</ele><time>2026-03-22T08:22:22.302Z</time></trkpt><trkpt lat="45.1325894" lon="11.9640813"><ele>7.0</ele><time>2026-03-22T08:22:23.312Z</time></trkpt><trkpt lat="45.1325793" lon="11.963879"><ele>6.75</ele><time>2026-03-22T08:22:24.303Z</time></trkpt><trkpt lat="45.1325668" lon="11.9636859"><ele>6.5</ele><time>2026-03-22T08:22:25.31Z</time></trkpt><trkpt lat="45.1325573" lon="11.9635025"><ele>6.25</ele><time>2026-03-22T08:22:26.307Z</time></trkpt><trkpt lat="45.132545" lon="11.9633282"><ele>6.0</ele><time>2026-03-22T08:22:27.308Z</time></trkpt><trkpt lat="45.1325413" lon="11.9631543"><ele>6.0</ele><time>2026-03-22T08:22:28.306Z</time></trkpt><trkpt lat="45.1325436" lon="11.9629815"><ele>6.0</ele><time>2026-03-22T08:22:29.304Z</time></trkpt><trkpt lat="45.1325506" lon="11.9628126"><ele>6.0</ele><time>2026-03-22T08:22:30.302Z</time></trkpt><trkpt lat="45.1325537" lon="11.9626537"><ele>6.0</ele><time>2026-03-22T08:22:31.302Z</time></trkpt><trkpt lat="45.1325528" lon="11.9625057"><ele>5.666666666666667</ele><time>2026-03-22T08:22:32.299Z</time></trkpt><trkpt lat="45.1325522" lon="11.9623689"><ele>5.333333333333333</ele><time>2026-03-22T08:22:33.291Z</time></trkpt><trkpt lat="45.1325423" lon="11.9622516"><ele>5.0</ele><time>2026-03-22T08:22:34.298Z</time></trkpt><trkpt lat="45.1324878" lon="11.9621087"><ele>4.666666666666666</ele><time>2026-03-22T08:22:36.293Z</time></trkpt><trkpt lat="45.132426" lon="11.9620664"><ele>4.333333333333333</ele><time>2026-03-22T08:22:37.29Z</time></trkpt><trkpt lat="45.1323622" lon="11.9620627"><ele>4.0</ele><time>2026-03-22T08:22:38.294Z</time></trkpt><trkpt lat="45.1322927" lon="11.9620885"><ele>3.8571428571428568</ele><time>2026-03-22T08:22:39.285Z</time></trkpt><trkpt lat="45.1322209" lon="11.9621187"><ele>3.714285714285714</ele><time>2026-03-22T08:22:40.284Z</time></trkpt><trkpt lat="45.1321475" lon="11.9621619"><ele>3.571428571428571</ele><time>2026-03-22T08:22:41.292Z</time></trkpt><trkpt lat="45.1320853" lon="11.9621987"><ele>3.4285714285714284</ele><time>2026-03-22T08:22:42.292Z</time></trkpt><trkpt lat="45.1320216" lon="11.9622317"><ele>3.2857142857142856</ele><time>2026-03-22T08:22:43.298Z</time></trkpt><trkpt lat="45.1319578" lon="11.962266"><ele>3.1428571428571423</ele><time>2026-03-22T08:22:44.283Z</time></trkpt><trkpt lat="45.1318799" lon="11.9623086"><ele>3.0</ele><time>2026-03-22T08:22:45.296Z</time></trkpt><trkpt lat="45.1317931" lon="11.9623554"><ele>3.0</ele><time>2026-03-22T08:22:46.293Z</time></trkpt><trkpt lat="45.1317032" lon="11.9623946"><ele>3.0</ele><time>2026-03-22T08:22:47.294Z</time></trkpt><trkpt lat="45.1316164" lon="11.9624377"><ele>3.0</ele><time>2026-03-22T08:22:48.3Z</time></trkpt><trkpt lat="45.1315386" lon="11.9624772"><ele>3.0</ele><time>2026-03-22T08:22:49.293Z</time></trkpt><trkpt lat="45.1314555" lon="11.962516"><ele>3.0</ele><time>2026-03-22T08:22:50.302Z</time></trkpt><trkpt lat="45.1313679" lon="11.9625579"><ele>3.0</ele><time>2026-03-22T08:22:51.298Z</time></trkpt><trkpt lat="45.1312848" lon="11.9625959"><ele>3.0</ele><time>2026-03-22T08:22:52.297Z</time></trkpt><trkpt lat="45.1312115" lon="11.9626272"><ele>3.0</ele><time>2026-03-22T08:22:53.291Z</time></trkpt><trkpt lat="45.1311102" lon="11.9626669"><ele>3.0</ele><time>2026-03-22T08:22:55.289Z</time></trkpt><trkpt lat="45.1310337" lon="11.9626274"><ele>3.0</ele><time>2026-03-22T08:22:57.296Z</time></trkpt><trkpt lat="45.1309845" lon="11.9624901"><ele>3.0</ele><time>2026-03-22T08:22:59.291Z</time></trkpt><trkpt lat="45.1309694" lon="11.9623894"><ele>3.0</ele><time>2026-03-22T08:23:00.292Z</time></trkpt><trkpt lat="45.1309543" lon="11.9622733"><ele>2.8</ele><time>2026-03-22T08:23:01.293Z</time></trkpt><trkpt lat="45.1309386" lon="11.9621479"><ele>2.5999999999999996</ele><time>2026-03-22T08:23:02.294Z</time></trkpt><trkpt lat="45.1309202" lon="11.9620192"><ele>2.4000000000000004</ele><time>2026-03-22T08:23:03.291Z</time></trkpt><trkpt lat="45.1309006" lon="11.9618833"><ele>2.2</ele><time>2026-03-22T08:23:04.291Z</time></trkpt><trkpt lat="45.1308748" lon="11.9617358"><ele>2.0</ele><time>2026-03-22T08:23:05.285Z</time></trkpt><trkpt lat="45.1308323" lon="11.9615841"><ele>2.0</ele><time>2026-03-22T08:23:06.292Z</time></trkpt><trkpt lat="45.1307587" lon="11.9614223"><ele>2.0</ele><time>2026-03-22T08:23:07.283Z</time></trkpt><trkpt lat="45.1306697" lon="11.9612614"><ele>2.0</ele><time>2026-03-22T08:23:08.285Z</time></trkpt><trkpt lat="45.1305812" lon="11.9610992"><ele>2.0</ele><time>2026-03-22T08:23:09.278Z</time></trkpt><trkpt lat="45.1305001" lon="11.9609348"><ele>1.75</ele><time>2026-03-22T08:23:10.29Z</time></trkpt><trkpt lat="45.1304266" lon="11.9607772"><ele>1.5</ele><time>2026-03-22T08:23:11.284Z</time></trkpt><trkpt lat="45.1303683" lon="11.9606231"><ele>1.25</ele><time>2026-03-22T08:23:12.282Z</time></trkpt><trkpt lat="45.1303286" lon="11.960459"><ele>1.0</ele><time>2026-03-22T08:23:13.279Z</time></trkpt><trkpt lat="45.1303117" lon="11.9602844"><ele>1.0</ele><time>2026-03-22T08:23:14.281Z</time></trkpt><trkpt lat="45.1303062" lon="11.9601036"><ele>1.0</ele><time>2026-03-22T08:23:15.285Z</time></trkpt><trkpt lat="45.1303032" lon="11.9599274"><ele>1.0</ele><time>2026-03-22T08:23:16.28Z</time></trkpt><trkpt lat="45.1302945" lon="11.9597627"><ele>1.0</ele><time>2026-03-22T08:23:17.281Z</time></trkpt><trkpt lat="45.1302786" lon="11.959615"><ele>0.8</ele><time>2026-03-22T08:23:18.29Z</time></trkpt><trkpt lat="45.130251" lon="11.9594881"><ele>0.6000000000000001</ele><time>2026-03-22T08:23:19.291Z</time></trkpt><trkpt lat="45.1302096" lon="11.9593983"><ele>0.4</ele><time>2026-03-22T08:23:20.292Z</time></trkpt><trkpt lat="45.1301604" lon="11.9593339"><ele>0.2</ele><time>2026-03-22T08:23:21.285Z</time></trkpt><trkpt lat="45.1300905" lon="11.9592151"><ele>0.0</ele><time>2026-03-22T08:23:23.295Z</time></trkpt><trkpt lat="45.1300548" lon="11.9590545"><ele>0.0</ele><time>2026-03-22T08:23:25.298Z</time></trkpt><trkpt lat="45.1300529" lon="11.9589577"><ele>0.0</ele><time>2026-03-22T08:23:26.289Z</time></trkpt><trkpt lat="45.1300669" lon="11.9588462"><ele>0.0</ele><time>2026-03-22T08:23:27.299Z</time></trkpt><trkpt lat="45.1300911" lon="11.9587116"><ele>0.0</ele><time>2026-03-22T08:23:28.295Z</time></trkpt><trkpt lat="45.1301277" lon="11.9585479"><ele>0.0</ele><time>2026-03-22T08:23:29.292Z</time></trkpt><trkpt lat="45.1301698" lon="11.958364"><ele>0.0</ele><time>2026-03-22T08:23:30.297Z</time></trkpt><trkpt lat="45.1302122" lon="11.9581633"><ele>0.0</ele><time>2026-03-22T08:23:31.297Z</time></trkpt><trkpt lat="45.1302599" lon="11.9579387"><ele>0.0</ele><time>2026-03-22T08:23:32.304Z</time></trkpt><trkpt lat="45.1303191" lon="11.9576793"><ele>0.0</ele><time>2026-03-22T08:23:33.293Z</time></trkpt><trkpt lat="45.1303723" lon="11.9574185"><ele>0.0</ele><time>2026-03-22T08:23:34.292Z</time></trkpt><trkpt lat="45.1304207" lon="11.9571652"><ele>0.0</ele><time>2026-03-22T08:23:35.293Z</time></trkpt><trkpt lat="45.1304781" lon="11.9569174"><ele>-0.6666666666666666</ele><time>2026-03-22T08:23:36.288Z</time></trkpt><trkpt lat="45.1305235" lon="11.9566781"><ele>-1.3333333333333333</ele><time>2026-03-22T08:23:37.295Z</time></trkpt><trkpt lat="45.130571" lon="11.9564453"><ele>-2.0</ele><time>2026-03-22T08:23:38.294Z</time></trkpt><trkpt lat="45.1306149" lon="11.9562134"><ele>-2.0</ele><time>2026-03-22T08:23:39.297Z</time></trkpt><trkpt lat="45.1306648" lon="11.9559766"><ele>-2.0</ele><time>2026-03-22T08:23:40.295Z</time></trkpt><trkpt lat="45.1307087" lon="11.9557421"><ele>-2.0</ele><time>2026-03-22T08:23:41.296Z</time></trkpt><trkpt lat="45.1307581" lon="11.9555074"><ele>-1.6666666666666665</ele><time>2026-03-22T08:23:42.297Z</time></trkpt><trkpt lat="45.1308072" lon="11.9552629"><ele>-1.3333333333333333</ele><time>2026-03-22T08:23:43.298Z</time></trkpt><trkpt lat="45.130858" lon="11.9550341"><ele>-1.0</ele><time>2026-03-22T08:23:44.299Z</time></trkpt><trkpt lat="45.1309053" lon="11.95481"><ele>-0.6666666666666666</ele><time>2026-03-22T08:23:45.298Z</time></trkpt><trkpt lat="45.1309456" lon="11.9545928"><ele>-0.3333333333333333</ele><time>2026-03-22T08:23:46.294Z</time></trkpt><trkpt lat="45.130995" lon="11.9543828"><ele>0.0</ele><time>2026-03-22T08:23:47.302Z</time></trkpt><trkpt lat="45.1310438" lon="11.9541676"><ele>0.0</ele><time>2026-03-22T08:23:48.3Z</time></trkpt><trkpt lat="45.1310866" lon="11.953947"><ele>0.0</ele><time>2026-03-22T08:23:49.301Z</time></trkpt><trkpt lat="45.1311343" lon="11.9537227"><ele>0.0</ele><time>2026-03-22T08:23:50.297Z</time></trkpt><trkpt lat="45.1311859" lon="11.9535042"><ele>-0.3333333333333333</ele><time>2026-03-22T08:23:51.3Z</time></trkpt><trkpt lat="45.1312418" lon="11.9532841"><ele>-0.6666666666666666</ele><time>2026-03-22T08:23:52.294Z</time></trkpt><trkpt lat="45.1312896" lon="11.9530784"><ele>-1.0</ele><time>2026-03-22T08:23:53.303Z</time></trkpt><trkpt lat="45.1313282" lon="11.9528689"><ele>-1.0</ele><time>2026-03-22T08:23:54.295Z</time></trkpt><trkpt lat="45.1313698" lon="11.9526568"><ele>-1.0</ele><time>2026-03-22T08:23:55.297Z</time></trkpt><trkpt lat="45.1314131" lon="11.9524416"><ele>-1.0</ele><time>2026-03-22T08:23:56.294Z</time></trkpt><trkpt lat="45.1314567" lon="11.9522316"><ele>-1.0</ele><time>2026-03-22T08:23:57.299Z</time></trkpt><trkpt lat="45.1315036" lon="11.952031"><ele>-1.0</ele><time>2026-03-22T08:23:58.295Z</time></trkpt><trkpt lat="45.1315505" lon="11.9518272"><ele>-1.0</ele><time>2026-03-22T08:23:59.294Z</time></trkpt><trkpt lat="45.131593" lon="11.951625"><ele>-1.0</ele><time>2026-03-22T08:24:00.29Z</time></trkpt><trkpt lat="45.1316429" lon="11.9514278"><ele>-0.75</ele><time>2026-03-22T08:24:01.294Z</time></trkpt><trkpt lat="45.1316777" lon="11.9512433"><ele>-0.5</ele><time>2026-03-22T08:24:02.299Z</time></trkpt><trkpt lat="45.1317212" lon="11.9510481"><ele>-0.25</ele><time>2026-03-22T08:24:03.297Z</time></trkpt><trkpt lat="45.1317566" lon="11.9508439"><ele>0.0</ele><time>2026-03-22T08:24:04.292Z</time></trkpt><trkpt lat="45.1317942" lon="11.9506422"><ele>0.0</ele><time>2026-03-22T08:24:05.292Z</time></trkpt><trkpt lat="45.1318358" lon="11.9504434"><ele>0.0</ele><time>2026-03-22T08:24:06.29Z</time></trkpt><trkpt lat="45.1318727" lon="11.9502463"><ele>0.0</ele><time>2026-03-22T08:24:07.285Z</time></trkpt><trkpt lat="45.1319084" lon="11.9500538"><ele>0.0</ele><time>2026-03-22T08:24:08.295Z</time></trkpt><trkpt lat="45.1319424" lon="11.9498624"><ele>0.0</ele><time>2026-03-22T08:24:09.291Z</time></trkpt><trkpt lat="45.1319813" lon="11.9496559"><ele>0.0</ele><time>2026-03-22T08:24:10.304Z</time></trkpt><trkpt lat="45.1320243" lon="11.9494491"><ele>0.0</ele><time>2026-03-22T08:24:11.29Z</time></trkpt><trkpt lat="45.1320745" lon="11.9492379"><ele>0.3333333333333333</ele><time>2026-03-22T08:24:12.288Z</time></trkpt><trkpt lat="45.1321253" lon="11.9490263"><ele>0.6666666666666666</ele><time>2026-03-22T08:24:13.288Z</time></trkpt><trkpt lat="45.1321681" lon="11.9488094"><ele>1.0</ele><time>2026-03-22T08:24:14.301Z</time></trkpt><trkpt lat="45.1321993" lon="11.9486071"><ele>1.0</ele><time>2026-03-22T08:24:15.289Z</time></trkpt><trkpt lat="45.1322361" lon="11.9484133"><ele>1.0</ele><time>2026-03-22T08:24:16.286Z</time></trkpt><trkpt lat="45.1322773" lon="11.9482223"><ele>1.0</ele><time>2026-03-22T08:24:17.287Z</time></trkpt><trkpt lat="45.1323169" lon="11.9480343"><ele>1.0</ele><time>2026-03-22T08:24:18.294Z</time></trkpt><trkpt lat="45.1323552" lon="11.9478423"><ele>0.75</ele><time>2026-03-22T08:24:19.292Z</time></trkpt><trkpt lat="45.1323977" lon="11.9476507"><ele>0.5</ele><time>2026-03-22T08:24:20.295Z</time></trkpt><trkpt lat="45.132442" lon="11.9474495"><ele>0.25</ele><time>2026-03-22T08:24:21.295Z</time></trkpt><trkpt lat="45.1324832" lon="11.9472562"><ele>0.0</ele><time>2026-03-22T08:24:22.295Z</time></trkpt><trkpt lat="45.1325162" lon="11.9470707"><ele>0.5</ele><time>2026-03-22T08:24:23.288Z</time></trkpt><trkpt lat="45.1325473" lon="11.9468832"><ele>1.0</ele><time>2026-03-22T08:24:24.287Z</time></trkpt><trkpt lat="45.1325833" lon="11.9467073"><ele>1.5</ele><time>2026-03-22T08:24:25.292Z</time></trkpt><trkpt lat="45.1326161" lon="11.9465447"><ele>2.0</ele><time>2026-03-22T08:24:26.29Z</time></trkpt><trkpt lat="45.1326471" lon="11.9464035"><ele>2.5</ele><time>2026-03-22T08:24:27.286Z</time></trkpt><trkpt lat="45.1326679" lon="11.946284"><ele>3.0</ele><time>2026-03-22T08:24:28.293Z</time></trkpt><trkpt lat="45.1326933" lon="11.9461873"><ele>3.5</ele><time>2026-03-22T08:24:29.288Z</time></trkpt><trkpt lat="45.1327133" lon="11.9460986"><ele>4.0</ele><time>2026-03-22T08:24:30.289Z</time></trkpt><trkpt lat="45.1327534" lon="11.9459497"><ele>4.5</ele><time>2026-03-22T08:24:32.295Z</time></trkpt><trkpt lat="45.1327812" lon="11.9458644"><ele>5.0</ele><time>2026-03-22T08:25:09.294Z</time></trkpt><trkpt lat="45.1327918" lon="11.9457129"><ele>5.0</ele><time>2026-03-22T08:25:12.278Z</time></trkpt><trkpt lat="45.1328083" lon="11.9456163"><ele>5.0</ele><time>2026-03-22T08:25:13.282Z</time></trkpt><trkpt lat="45.1328336" lon="11.9455031"><ele>5.0</ele><time>2026-03-22T08:25:14.279Z</time></trkpt><trkpt lat="45.1328677" lon="11.9453724"><ele>5.0</ele><time>2026-03-22T08:25:15.291Z</time></trkpt><trkpt lat="45.1329005" lon="11.945223"><ele>5.0</ele><time>2026-03-22T08:25:16.286Z</time></trkpt><trkpt lat="45.1329355" lon="11.9450779"><ele>4.75</ele><time>2026-03-22T08:25:17.286Z</time></trkpt><trkpt lat="45.1329661" lon="11.9449346"><ele>4.5</ele><time>2026-03-22T08:25:18.287Z</time></trkpt><trkpt lat="45.133003" lon="11.9447783"><ele>4.25</ele><time>2026-03-22T08:25:19.286Z</time></trkpt><trkpt lat="45.133037" lon="11.9446072"><ele>4.0</ele><time>2026-03-22T08:25:20.294Z</time></trkpt><trkpt lat="45.133068" lon="11.9444222"><ele>4.0</ele><time>2026-03-22T08:25:21.287Z</time></trkpt><trkpt lat="45.1331081" lon="11.9442297"><ele>4.0</ele><time>2026-03-22T08:25:22.286Z</time></trkpt><trkpt lat="45.1331411" lon="11.9440382"><ele>4.0</ele><time>2026-03-22T08:25:23.28Z</time></trkpt><trkpt lat="45.1331789" lon="11.9438519"><ele>4.0</ele><time>2026-03-22T08:25:24.287Z</time></trkpt><trkpt lat="45.1332186" lon="11.9436615"><ele>3.6666666666666665</ele><time>2026-03-22T08:25:25.289Z</time></trkpt><trkpt lat="45.1332631" lon="11.9434591"><ele>3.333333333333333</ele><time>2026-03-22T08:25:26.286Z</time></trkpt><trkpt lat="45.1333054" lon="11.943246"><ele>3.0</ele><time>2026-03-22T08:25:27.284Z</time></trkpt><trkpt lat="45.1333482" lon="11.9430132"><ele>3.0</ele><time>2026-03-22T08:25:28.287Z</time></trkpt><trkpt lat="45.1333948" lon="11.9427771"><ele>3.0</ele><time>2026-03-22T08:25:29.283Z</time></trkpt><trkpt lat="45.133444" lon="11.9425435"><ele>3.0</ele><time>2026-03-22T08:25:30.29Z</time></trkpt><trkpt lat="45.1334936" lon="11.9423073"><ele>3.0</ele><time>2026-03-22T08:25:31.286Z</time></trkpt><trkpt lat="45.1335421" lon="11.942064"><ele>3.0</ele><time>2026-03-22T08:25:32.296Z</time></trkpt><trkpt lat="45.1336003" lon="11.9418083"><ele>3.0</ele><time>2026-03-22T08:25:33.286Z</time></trkpt><trkpt lat="45.1336489" lon="11.9415552"><ele>2.3333333333333335</ele><time>2026-03-22T08:25:34.285Z</time></trkpt><trkpt lat="45.1336887" lon="11.941316"><ele>1.6666666666666665</ele><time>2026-03-22T08:25:35.286Z</time></trkpt><trkpt lat="45.133738" lon="11.9410765"><ele>1.0</ele><time>2026-03-22T08:25:36.286Z</time></trkpt><trkpt lat="45.1337911" lon="11.9408348"><ele>1.0</ele><time>2026-03-22T08:25:37.283Z</time></trkpt><trkpt lat="45.1338404" lon="11.9405995"><ele>1.0</ele><time>2026-03-22T08:25:38.295Z</time></trkpt><trkpt lat="45.1338877" lon="11.940362"><ele>1.0</ele><time>2026-03-22T08:25:39.29Z</time></trkpt><trkpt lat="45.1339362" lon="11.9401139"><ele>0.6666666666666666</ele><time>2026-03-22T08:25:40.291Z</time></trkpt><trkpt lat="45.1339816" lon="11.939878"><ele>0.3333333333333333</ele><time>2026-03-22T08:25:41.294Z</time></trkpt><trkpt lat="45.1340272" lon="11.9396476"><ele>0.0</ele><time>2026-03-22T08:25:42.292Z</time></trkpt><trkpt lat="45.1340741" lon="11.9394041"><ele>1.0</ele><time>2026-03-22T08:25:43.295Z</time></trkpt><trkpt lat="45.1341187" lon="11.9391709"><ele>2.0</ele><time>2026-03-22T08:25:44.292Z</time></trkpt><trkpt lat="45.1341584" lon="11.9389508"><ele>3.0</ele><time>2026-03-22T08:25:45.289Z</time></trkpt><trkpt lat="45.1341993" lon="11.9387428"><ele>3.0</ele><time>2026-03-22T08:25:46.299Z</time></trkpt><trkpt lat="45.1342402" lon="11.9385371"><ele>3.0</ele><time>2026-03-22T08:25:47.289Z</time></trkpt><trkpt lat="45.1342723" lon="11.9383291"><ele>3.0</ele><time>2026-03-22T08:25:48.3Z</time></trkpt><trkpt lat="45.1343016" lon="11.9381079"><ele>3.0</ele><time>2026-03-22T08:25:49.288Z</time></trkpt><trkpt lat="45.1343109" lon="11.9378806"><ele>3.0</ele><time>2026-03-22T08:25:50.292Z</time></trkpt><trkpt lat="45.1343092" lon="11.9376433"><ele>3.0</ele><time>2026-03-22T08:25:51.288Z</time></trkpt><trkpt lat="45.1343134" lon="11.937396"><ele>2.3333333333333335</ele><time>2026-03-22T08:25:52.295Z</time></trkpt><trkpt lat="45.1343096" lon="11.937152"><ele>1.6666666666666665</ele><time>2026-03-22T08:25:53.289Z</time></trkpt><trkpt lat="45.1342953" lon="11.9369028"><ele>1.0</ele><time>2026-03-22T08:25:54.288Z</time></trkpt><trkpt lat="45.1342758" lon="11.9366515"><ele>0.6666666666666666</ele><time>2026-03-22T08:25:55.297Z</time></trkpt><trkpt lat="45.134257" lon="11.9363969"><ele>0.3333333333333333</ele><time>2026-03-22T08:25:56.291Z</time></trkpt><trkpt lat="45.1342402" lon="11.9361305"><ele>0.0</ele><time>2026-03-22T08:25:57.297Z</time></trkpt><trkpt lat="45.1342272" lon="11.9358565"><ele>0.0</ele><time>2026-03-22T08:25:58.292Z</time></trkpt><trkpt lat="45.1342147" lon="11.935589"><ele>0.0</ele><time>2026-03-22T08:25:59.293Z</time></trkpt><trkpt lat="45.1342007" lon="11.9353213"><ele>0.0</ele><time>2026-03-22T08:26:00.298Z</time></trkpt><trkpt lat="45.1341922" lon="11.9350524"><ele>0.3333333333333333</ele><time>2026-03-22T08:26:01.295Z</time></trkpt><trkpt lat="45.134187" lon="11.9347947"><ele>0.6666666666666666</ele><time>2026-03-22T08:26:02.3Z</time></trkpt><trkpt lat="45.1341781" lon="11.9345467"><ele>1.0</ele><time>2026-03-22T08:26:03.292Z</time></trkpt><trkpt lat="45.1341699" lon="11.9343013"><ele>1.3333333333333333</ele><time>2026-03-22T08:26:04.29Z</time></trkpt><trkpt lat="45.1341558" lon="11.9340649"><ele>1.6666666666666665</ele><time>2026-03-22T08:26:05.29Z</time></trkpt><trkpt lat="45.1341473" lon="11.9338256"><ele>2.0</ele><time>2026-03-22T08:26:06.293Z</time></trkpt><trkpt lat="45.1341332" lon="11.9335851"><ele>1.6666666666666665</ele><time>2026-03-22T08:26:07.294Z</time></trkpt><trkpt lat="45.134115" lon="11.9333495"><ele>1.3333333333333333</ele><time>2026-03-22T08:26:08.29Z</time></trkpt><trkpt lat="45.1341004" lon="11.9331169"><ele>1.0</ele><time>2026-03-22T08:26:09.29Z</time></trkpt><trkpt lat="45.1340885" lon="11.9328894"><ele>1.0</ele><time>2026-03-22T08:26:10.293Z</time></trkpt><trkpt lat="45.1340811" lon="11.9326551"><ele>1.0</ele><time>2026-03-22T08:26:11.288Z</time></trkpt><trkpt lat="45.134068" lon="11.9324139"><ele>1.0</ele><time>2026-03-22T08:26:12.292Z</time></trkpt><trkpt lat="45.1340565" lon="11.9321754"><ele>0.3333333333333333</ele><time>2026-03-22T08:26:13.287Z</time></trkpt><trkpt lat="45.1340409" lon="11.9319225"><ele>-0.3333333333333333</ele><time>2026-03-22T08:26:14.298Z</time></trkpt><trkpt lat="45.13403" lon="11.9316686"><ele>-1.0</ele><time>2026-03-22T08:26:15.292Z</time></trkpt><trkpt lat="45.1340166" lon="11.9314091"><ele>-1.0</ele><time>2026-03-22T08:26:16.294Z</time></trkpt><trkpt lat="45.1340026" lon="11.9311415"><ele>-1.0</ele><time>2026-03-22T08:26:17.297Z</time></trkpt><trkpt lat="45.1339963" lon="11.9308677"><ele>-1.0</ele><time>2026-03-22T08:26:18.296Z</time></trkpt><trkpt lat="45.1339826" lon="11.9305925"><ele>-1.0</ele><time>2026-03-22T08:26:19.294Z</time></trkpt><trkpt lat="45.1339672" lon="11.9303071"><ele>-1.0</ele><time>2026-03-22T08:26:20.298Z</time></trkpt><trkpt lat="45.1339551" lon="11.9300254"><ele>-1.0</ele><time>2026-03-22T08:26:21.301Z</time></trkpt><trkpt lat="45.1339389" lon="11.9297412"><ele>-1.0</ele><time>2026-03-22T08:26:22.298Z</time></trkpt><trkpt lat="45.1339308" lon="11.9294597"><ele>-1.0</ele><time>2026-03-22T08:26:23.299Z</time></trkpt><trkpt lat="45.1339231" lon="11.929176"><ele>-1.0</ele><time>2026-03-22T08:26:24.296Z</time></trkpt><trkpt lat="45.1339131" lon="11.9288918"><ele>-0.6666666666666666</ele><time>2026-03-22T08:26:25.304Z</time></trkpt><trkpt lat="45.1338976" lon="11.9285986"><ele>-0.3333333333333333</ele><time>2026-03-22T08:26:26.298Z</time></trkpt><trkpt lat="45.1338883" lon="11.928299"><ele>0.0</ele><time>2026-03-22T08:26:27.298Z</time></trkpt><trkpt lat="45.1338779" lon="11.9279991"><ele>0.0</ele><time>2026-03-22T08:26:28.3Z</time></trkpt><trkpt lat="45.133862" lon="11.9276967"><ele>0.0</ele><time>2026-03-22T08:26:29.301Z</time></trkpt><trkpt lat="45.1338466" lon="11.9273949"><ele>0.0</ele><time>2026-03-22T08:26:30.3Z</time></trkpt><trkpt lat="45.1338357" lon="11.9270954"><ele>0.0</ele><time>2026-03-22T08:26:31.29Z</time></trkpt><trkpt lat="45.1338112" lon="11.9267933"><ele>0.0</ele><time>2026-03-22T08:26:32.305Z</time></trkpt><trkpt lat="45.1337906" lon="11.9264839"><ele>0.0</ele><time>2026-03-22T08:26:33.297Z</time></trkpt><trkpt lat="45.1337738" lon="11.9261834"><ele>-0.3333333333333333</ele><time>2026-03-22T08:26:34.297Z</time></trkpt><trkpt lat="45.1337625" lon="11.9258837"><ele>-0.6666666666666666</ele><time>2026-03-22T08:26:35.291Z</time></trkpt><trkpt lat="45.1337549" lon="11.925582"><ele>-1.0</ele><time>2026-03-22T08:26:36.299Z</time></trkpt><trkpt lat="45.1337435" lon="11.9252746"><ele>-1.0</ele><time>2026-03-22T08:26:37.295Z</time></trkpt><trkpt lat="45.1337262" lon="11.9249574"><ele>-1.0</ele><time>2026-03-22T08:26:38.305Z</time></trkpt><trkpt lat="45.1337076" lon="11.9246427"><ele>-1.0</ele><time>2026-03-22T08:26:39.293Z</time></trkpt><trkpt lat="45.1336979" lon="11.9243311"><ele>-1.0</ele><time>2026-03-22T08:26:40.302Z</time></trkpt><trkpt lat="45.1336852" lon="11.9240292"><ele>-1.0</ele><time>2026-03-22T08:26:41.299Z</time></trkpt><trkpt lat="45.1336713" lon="11.9237095"><ele>-1.0</ele><time>2026-03-22T08:26:42.297Z</time></trkpt><trkpt lat="45.1336577" lon="11.9233969"><ele>-0.5</ele><time>2026-03-22T08:26:43.297Z</time></trkpt><trkpt lat="45.1336424" lon="11.923077"><ele>0.0</ele><time>2026-03-22T08:26:44.299Z</time></trkpt><trkpt lat="45.1336272" lon="11.9227573"><ele>-1.0</ele><time>2026-03-22T08:26:45.295Z</time></trkpt><trkpt lat="45.1336145" lon="11.9224334"><ele>-2.0</ele><time>2026-03-22T08:26:46.307Z</time></trkpt><trkpt lat="45.1335948" lon="11.9221155"><ele>-2.0</ele><time>2026-03-22T08:26:47.293Z</time></trkpt><trkpt lat="45.1335768" lon="11.921786"><ele>-2.0</ele><time>2026-03-22T08:26:48.297Z</time></trkpt><trkpt lat="45.1335623" lon="11.9214607"><ele>-1.5</ele><time>2026-03-22T08:26:49.298Z</time></trkpt><trkpt lat="45.1335503" lon="11.921132"><ele>-1.0</ele><time>2026-03-22T08:26:50.295Z</time></trkpt><trkpt lat="45.1335303" lon="11.9208079"><ele>-1.0</ele><time>2026-03-22T08:26:51.297Z</time></trkpt><trkpt lat="45.1335115" lon="11.920487"><ele>-1.0</ele><time>2026-03-22T08:26:52.291Z</time></trkpt><trkpt lat="45.1334948" lon="11.920163"><ele>-1.0</ele><time>2026-03-22T08:26:53.304Z</time></trkpt><trkpt lat="45.1334816" lon="11.9198293"><ele>-1.0</ele><time>2026-03-22T08:26:54.294Z</time></trkpt><trkpt lat="45.1334672" lon="11.919501"><ele>0.0</ele><time>2026-03-22T08:26:55.298Z</time></trkpt><trkpt lat="45.1334527" lon="11.9191698"><ele>1.0</ele><time>2026-03-22T08:26:56.298Z</time></trkpt><trkpt lat="45.1334396" lon="11.9188365"><ele>1.0</ele><time>2026-03-22T08:26:57.3Z</time></trkpt><trkpt lat="45.1334269" lon="11.9184871"><ele>1.0</ele><time>2026-03-22T08:26:58.297Z</time></trkpt><trkpt lat="45.133413" lon="11.9181357"><ele>0.5</ele><time>2026-03-22T08:26:59.307Z</time></trkpt><trkpt lat="45.1333965" lon="11.9177905"><ele>0.0</ele><time>2026-03-22T08:27:00.305Z</time></trkpt><trkpt lat="45.1333737" lon="11.9174345"><ele>1.0</ele><time>2026-03-22T08:27:01.303Z</time></trkpt><trkpt lat="45.1333581" lon="11.9170863"><ele>2.0</ele><time>2026-03-22T08:27:02.308Z</time></trkpt><trkpt lat="45.1333447" lon="11.9167402"><ele>2.0</ele><time>2026-03-22T08:27:03.312Z</time></trkpt><trkpt lat="45.1333206" lon="11.9164011"><ele>2.0</ele><time>2026-03-22T08:27:04.298Z</time></trkpt><trkpt lat="45.1332994" lon="11.9160908"><ele>1.6666666666666665</ele><time>2026-03-22T08:27:05.299Z</time></trkpt><trkpt lat="45.133279" lon="11.915828"><ele>1.3333333333333333</ele><time>2026-03-22T08:27:06.293Z</time></trkpt><trkpt lat="45.1332633" lon="11.9155901"><ele>1.0</ele><time>2026-03-22T08:27:07.302Z</time></trkpt><trkpt lat="45.1332412" lon="11.9153644"><ele>1.0</ele><time>2026-03-22T08:27:08.301Z</time></trkpt><trkpt lat="45.1332192" lon="11.9151454"><ele>1.0</ele><time>2026-03-22T08:27:09.301Z</time></trkpt><trkpt lat="45.133191" lon="11.9149221"><ele>1.0</ele><time>2026-03-22T08:27:10.303Z</time></trkpt><trkpt lat="45.1331605" lon="11.914697"><ele>1.0</ele><time>2026-03-22T08:27:11.301Z</time></trkpt><trkpt lat="45.1331249" lon="11.9144752"><ele>1.0</ele><time>2026-03-22T08:27:12.298Z</time></trkpt><trkpt lat="45.133099" lon="11.9142669"><ele>1.0</ele><time>2026-03-22T08:27:13.3Z</time></trkpt><trkpt lat="45.1330727" lon="11.9140525"><ele>1.0</ele><time>2026-03-22T08:27:14.299Z</time></trkpt><trkpt lat="45.1330434" lon="11.9138276"><ele>1.0</ele><time>2026-03-22T08:27:15.307Z</time></trkpt><trkpt lat="45.1330098" lon="11.913593"><ele>1.0</ele><time>2026-03-22T08:27:16.3Z</time></trkpt><trkpt lat="45.1329726" lon="11.9133623"><ele>1.0</ele><time>2026-03-22T08:27:17.302Z</time></trkpt><trkpt lat="45.132935" lon="11.9131311"><ele>1.0</ele><time>2026-03-22T08:27:18.299Z</time></trkpt><trkpt lat="45.132899" lon="11.912896"><ele>1.0</ele><time>2026-03-22T08:27:19.302Z</time></trkpt><trkpt lat="45.1328611" lon="11.9126605"><ele>1.0</ele><time>2026-03-22T08:27:20.301Z</time></trkpt><trkpt lat="45.1328263" lon="11.9124122"><ele>1.0</ele><time>2026-03-22T08:27:21.304Z</time></trkpt><trkpt lat="45.1327911" lon="11.912173"><ele>1.0</ele><time>2026-03-22T08:27:22.299Z</time></trkpt><trkpt lat="45.1327456" lon="11.9119328"><ele>1.3333333333333333</ele><time>2026-03-22T08:27:23.304Z</time></trkpt><trkpt lat="45.132714" lon="11.9116974"><ele>1.6666666666666665</ele><time>2026-03-22T08:27:24.295Z</time></trkpt><trkpt lat="45.1326744" lon="11.9114577"><ele>2.0</ele><time>2026-03-22T08:27:25.3Z</time></trkpt><trkpt lat="45.132632" lon="11.9112085"><ele>2.0</ele><time>2026-03-22T08:27:26.3Z</time></trkpt><trkpt lat="45.1325921" lon="11.9109527"><ele>2.0</ele><time>2026-03-22T08:27:27.301Z</time></trkpt><trkpt lat="45.1325448" lon="11.9106932"><ele>2.0</ele><time>2026-03-22T08:27:28.304Z</time></trkpt><trkpt lat="45.1325078" lon="11.9104255"><ele>2.0</ele><time>2026-03-22T08:27:29.305Z</time></trkpt><trkpt lat="45.1324563" lon="11.9101643"><ele>2.0</ele><time>2026-03-22T08:27:30.307Z</time></trkpt><trkpt lat="45.1324153" lon="11.9098985"><ele>2.0</ele><time>2026-03-22T08:27:31.302Z</time></trkpt><trkpt lat="45.1323709" lon="11.909629"><ele>2.0</ele><time>2026-03-22T08:27:32.315Z</time></trkpt><trkpt lat="45.1323309" lon="11.9093646"><ele>2.0</ele><time>2026-03-22T08:27:33.303Z</time></trkpt><trkpt lat="45.1322913" lon="11.9091128"><ele>2.0</ele><time>2026-03-22T08:27:34.303Z</time></trkpt><trkpt lat="45.1322561" lon="11.9088607"><ele>2.0</ele><time>2026-03-22T08:27:35.3Z</time></trkpt><trkpt lat="45.1322183" lon="11.9086024"><ele>2.0</ele><time>2026-03-22T08:27:36.302Z</time></trkpt><trkpt lat="45.1321778" lon="11.908339"><ele>2.0</ele><time>2026-03-22T08:27:37.298Z</time></trkpt><trkpt lat="45.1321371" lon="11.9080622"><ele>2.0</ele><time>2026-03-22T08:27:38.305Z</time></trkpt><trkpt lat="45.1320889" lon="11.9077831"><ele>2.0</ele><time>2026-03-22T08:27:39.3Z</time></trkpt><trkpt lat="45.1320375" lon="11.907499"><ele>2.0</ele><time>2026-03-22T08:27:40.301Z</time></trkpt><trkpt lat="45.1319893" lon="11.9072072"><ele>2.0</ele><time>2026-03-22T08:27:41.307Z</time></trkpt><trkpt lat="45.1319346" lon="11.9069047"><ele>2.0</ele><time>2026-03-22T08:27:42.302Z</time></trkpt><trkpt lat="45.131883" lon="11.9065811"><ele>2.0</ele><time>2026-03-22T08:27:43.3Z</time></trkpt><trkpt lat="45.1318357" lon="11.9062679"><ele>2.0</ele><time>2026-03-22T08:27:44.305Z</time></trkpt><trkpt lat="45.1317842" lon="11.9059526"><ele>1.5</ele><time>2026-03-22T08:27:45.304Z</time></trkpt><trkpt lat="45.1317303" lon="11.9056374"><ele>1.0</ele><time>2026-03-22T08:27:46.313Z</time></trkpt><trkpt lat="45.1316855" lon="11.9053242"><ele>1.5</ele><time>2026-03-22T08:27:47.312Z</time></trkpt><trkpt lat="45.1316317" lon="11.9049987"><ele>2.0</ele><time>2026-03-22T08:27:48.305Z</time></trkpt><trkpt lat="45.1315801" lon="11.9046764"><ele>1.6666666666666665</ele><time>2026-03-22T08:27:49.308Z</time></trkpt><trkpt lat="45.1315245" lon="11.9043742"><ele>1.3333333333333333</ele><time>2026-03-22T08:27:50.302Z</time></trkpt><trkpt lat="45.1314826" lon="11.9041265"><ele>1.0</ele><time>2026-03-22T08:27:51.303Z</time></trkpt><trkpt lat="45.1314587" lon="11.9039262"><ele>1.5</ele><time>2026-03-22T08:27:52.304Z</time></trkpt><trkpt lat="45.1314277" lon="11.9037427"><ele>2.0</ele><time>2026-03-22T08:27:53.298Z</time></trkpt><trkpt lat="45.1313915" lon="11.903547"><ele>2.5</ele><time>2026-03-22T08:27:54.301Z</time></trkpt><trkpt lat="45.1313667" lon="11.9033457"><ele>3.0</ele><time>2026-03-22T08:27:55.299Z</time></trkpt><trkpt lat="45.1313328" lon="11.9031261"><ele>3.0</ele><time>2026-03-22T08:27:56.307Z</time></trkpt><trkpt lat="45.131304" lon="11.9029042"><ele>3.0</ele><time>2026-03-22T08:27:57.295Z</time></trkpt><trkpt lat="45.1312719" lon="11.9026771"><ele>3.0</ele><time>2026-03-22T08:27:58.311Z</time></trkpt><trkpt lat="45.1312291" lon="11.9024524"><ele>3.333333333333333</ele><time>2026-03-22T08:27:59.306Z</time></trkpt><trkpt lat="45.1311942" lon="11.9022269"><ele>3.6666666666666665</ele><time>2026-03-22T08:28:00.304Z</time></trkpt><trkpt lat="45.1311596" lon="11.9019996"><ele>4.0</ele><time>2026-03-22T08:28:01.297Z</time></trkpt><trkpt lat="45.1311263" lon="11.9017868"><ele>4.0</ele><time>2026-03-22T08:28:02.302Z</time></trkpt><trkpt lat="45.1310876" lon="11.9015787"><ele>4.0</ele><time>2026-03-22T08:28:03.301Z</time></trkpt><trkpt lat="45.131048" lon="11.9013703"><ele>4.0</ele><time>2026-03-22T08:28:04.302Z</time></trkpt><trkpt lat="45.1310049" lon="11.9011539"><ele>4.0</ele><time>2026-03-22T08:28:05.296Z</time></trkpt><trkpt lat="45.1309799" lon="11.9009357"><ele>4.0</ele><time>2026-03-22T08:28:06.294Z</time></trkpt><trkpt lat="45.1309561" lon="11.9007156"><ele>4.0</ele><time>2026-03-22T08:28:07.301Z</time></trkpt><trkpt lat="45.1309365" lon="11.9004938"><ele>3.6666666666666665</ele><time>2026-03-22T08:28:08.299Z</time></trkpt><trkpt lat="45.130932" lon="11.900267"><ele>3.333333333333333</ele><time>2026-03-22T08:28:09.306Z</time></trkpt><trkpt lat="45.1309406" lon="11.9000372"><ele>3.0</ele><time>2026-03-22T08:28:10.304Z</time></trkpt><trkpt lat="45.1309511" lon="11.8997948"><ele>3.0</ele><time>2026-03-22T08:28:11.3Z</time></trkpt><trkpt lat="45.1309594" lon="11.8995594"><ele>3.0</ele><time>2026-03-22T08:28:12.299Z</time></trkpt><trkpt lat="45.1309736" lon="11.8993109"><ele>3.0</ele><time>2026-03-22T08:28:13.293Z</time></trkpt><trkpt lat="45.1309926" lon="11.8990662"><ele>3.0</ele><time>2026-03-22T08:28:14.295Z</time></trkpt><trkpt lat="45.1310145" lon="11.8988252"><ele>3.0</ele><time>2026-03-22T08:28:15.299Z</time></trkpt><trkpt lat="45.1310381" lon="11.8985853"><ele>3.0</ele><time>2026-03-22T08:28:16.298Z</time></trkpt><trkpt lat="45.1310521" lon="11.8983485"><ele>3.0</ele><time>2026-03-22T08:28:17.303Z</time></trkpt><trkpt lat="45.1310644" lon="11.8981027"><ele>3.0</ele><time>2026-03-22T08:28:18.293Z</time></trkpt><trkpt lat="45.1310692" lon="11.8978709"><ele>3.0</ele><time>2026-03-22T08:28:19.306Z</time></trkpt><trkpt lat="45.1310775" lon="11.8976509"><ele>3.0</ele><time>2026-03-22T08:28:20.289Z</time></trkpt><trkpt lat="45.1310878" lon="11.897443"><ele>3.0</ele><time>2026-03-22T08:28:21.303Z</time></trkpt><trkpt lat="45.1310997" lon="11.8972398"><ele>3.0</ele><time>2026-03-22T08:28:22.296Z</time></trkpt><trkpt lat="45.1311055" lon="11.8970534"><ele>3.0</ele><time>2026-03-22T08:28:23.303Z</time></trkpt><trkpt lat="45.1311144" lon="11.896874"><ele>2.75</ele><time>2026-03-22T08:28:24.298Z</time></trkpt><trkpt lat="45.1311197" lon="11.8966947"><ele>2.5</ele><time>2026-03-22T08:28:25.3Z</time></trkpt><trkpt lat="45.1311284" lon="11.8965226"><ele>2.25</ele><time>2026-03-22T08:28:26.298Z</time></trkpt><trkpt lat="45.131137" lon="11.8963413"><ele>2.0</ele><time>2026-03-22T08:28:27.294Z</time></trkpt><trkpt lat="45.1311392" lon="11.8961384"><ele>2.0</ele><time>2026-03-22T08:28:28.3Z</time></trkpt><trkpt lat="45.1311407" lon="11.8959267"><ele>2.0</ele><time>2026-03-22T08:28:29.296Z</time></trkpt><trkpt lat="45.1311398" lon="11.8956954"><ele>2.0</ele><time>2026-03-22T08:28:30.301Z</time></trkpt><trkpt lat="45.131143" lon="11.8954612"><ele>2.0</ele><time>2026-03-22T08:28:31.297Z</time></trkpt><trkpt lat="45.1311507" lon="11.8952184"><ele>2.0</ele><time>2026-03-22T08:28:32.307Z</time></trkpt><trkpt lat="45.1311589" lon="11.8949698"><ele>2.0</ele><time>2026-03-22T08:28:33.297Z</time></trkpt><trkpt lat="45.1311765" lon="11.8947193"><ele>2.0</ele><time>2026-03-22T08:28:34.298Z</time></trkpt><trkpt lat="45.1311849" lon="11.8944542"><ele>2.0</ele><time>2026-03-22T08:28:35.297Z</time></trkpt><trkpt lat="45.1311879" lon="11.8941969"><ele>2.0</ele><time>2026-03-22T08:28:36.291Z</time></trkpt><trkpt lat="45.1311932" lon="11.8939276"><ele>2.0</ele><time>2026-03-22T08:28:37.292Z</time></trkpt><trkpt lat="45.131195" lon="11.8936496"><ele>2.0</ele><time>2026-03-22T08:28:38.306Z</time></trkpt><trkpt lat="45.1311904" lon="11.8933827"><ele>2.0</ele><time>2026-03-22T08:28:39.298Z</time></trkpt><trkpt lat="45.1311695" lon="11.8931012"><ele>2.0</ele><time>2026-03-22T08:28:40.299Z</time></trkpt><trkpt lat="45.1311541" lon="11.8928201"><ele>2.0</ele><time>2026-03-22T08:28:41.296Z</time></trkpt><trkpt lat="45.1311352" lon="11.8925306"><ele>2.0</ele><time>2026-03-22T08:28:42.299Z</time></trkpt><trkpt lat="45.1311215" lon="11.8922487"><ele>2.0</ele><time>2026-03-22T08:28:43.298Z</time></trkpt><trkpt lat="45.1311057" lon="11.8919706"><ele>2.0</ele><time>2026-03-22T08:28:44.303Z</time></trkpt><trkpt lat="45.1310842" lon="11.891683"><ele>2.0</ele><time>2026-03-22T08:28:45.299Z</time></trkpt><trkpt lat="45.1310662" lon="11.8914057"><ele>1.6666666666666665</ele><time>2026-03-22T08:28:46.296Z</time></trkpt><trkpt lat="45.1310437" lon="11.8911247"><ele>1.3333333333333333</ele><time>2026-03-22T08:28:47.298Z</time></trkpt><trkpt lat="45.1310183" lon="11.8908468"><ele>1.0</ele><time>2026-03-22T08:28:48.303Z</time></trkpt><trkpt lat="45.1309965" lon="11.8905666"><ele>1.0</ele><time>2026-03-22T08:28:49.301Z</time></trkpt><trkpt lat="45.1309797" lon="11.8902847"><ele>1.0</ele><time>2026-03-22T08:28:50.302Z</time></trkpt><trkpt lat="45.1309664" lon="11.8899943"><ele>1.0</ele><time>2026-03-22T08:28:51.301Z</time></trkpt><trkpt lat="45.1309411" lon="11.8897074"><ele>1.0</ele><time>2026-03-22T08:28:52.297Z</time></trkpt><trkpt lat="45.1309214" lon="11.8894168"><ele>1.0</ele><time>2026-03-22T08:28:53.302Z</time></trkpt><trkpt lat="45.1309043" lon="11.8891269"><ele>1.0</ele><time>2026-03-22T08:28:54.299Z</time></trkpt><trkpt lat="45.1308831" lon="11.888835"><ele>1.3333333333333333</ele><time>2026-03-22T08:28:55.301Z</time></trkpt><trkpt lat="45.1308662" lon="11.8885436"><ele>1.6666666666666665</ele><time>2026-03-22T08:28:56.299Z</time></trkpt><trkpt lat="45.1308508" lon="11.8882508"><ele>2.0</ele><time>2026-03-22T08:28:57.299Z</time></trkpt><trkpt lat="45.1308345" lon="11.8879707"><ele>2.333333333333333</ele><time>2026-03-22T08:28:58.3Z</time></trkpt><trkpt lat="45.1308214" lon="11.887699"><ele>2.6666666666666665</ele><time>2026-03-22T08:28:59.292Z</time></trkpt><trkpt lat="45.1308197" lon="11.8874285"><ele>3.0</ele><time>2026-03-22T08:29:00.293Z</time></trkpt><trkpt lat="45.1308344" lon="11.8871701"><ele>3.0</ele><time>2026-03-22T08:29:01.297Z</time></trkpt><trkpt lat="45.1308699" lon="11.8869121"><ele>3.0</ele><time>2026-03-22T08:29:02.295Z</time></trkpt><trkpt lat="45.1309258" lon="11.8866762"><ele>3.0</ele><time>2026-03-22T08:29:03.291Z</time></trkpt><trkpt lat="45.1310047" lon="11.886442"><ele>3.0</ele><time>2026-03-22T08:29:04.289Z</time></trkpt><trkpt lat="45.1310993" lon="11.8862131"><ele>3.0</ele><time>2026-03-22T08:29:05.296Z</time></trkpt><trkpt lat="45.1311987" lon="11.8859925"><ele>3.0</ele><time>2026-03-22T08:29:06.298Z</time></trkpt><trkpt lat="45.1312986" lon="11.8857718"><ele>3.0</ele><time>2026-03-22T08:29:07.295Z</time></trkpt><trkpt lat="45.1313989" lon="11.8855734"><ele>3.0</ele><time>2026-03-22T08:29:08.297Z</time></trkpt><trkpt lat="45.1314874" lon="11.8853849"><ele>3.0</ele><time>2026-03-22T08:29:09.294Z</time></trkpt><trkpt lat="45.1315567" lon="11.8852024"><ele>3.0</ele><time>2026-03-22T08:29:10.297Z</time></trkpt><trkpt lat="45.1316261" lon="11.885035"><ele>3.0</ele><time>2026-03-22T08:29:11.298Z</time></trkpt><trkpt lat="45.1316978" lon="11.884875"><ele>3.0</ele><time>2026-03-22T08:29:12.3Z</time></trkpt><trkpt lat="45.1317698" lon="11.8847118"><ele>3.0</ele><time>2026-03-22T08:29:13.298Z</time></trkpt><trkpt lat="45.1318352" lon="11.8845583"><ele>3.0</ele><time>2026-03-22T08:29:14.293Z</time></trkpt><trkpt lat="45.1318982" lon="11.8844216"><ele>3.0</ele><time>2026-03-22T08:29:15.293Z</time></trkpt><trkpt lat="45.1319516" lon="11.8843143"><ele>3.0</ele><time>2026-03-22T08:29:16.288Z</time></trkpt><trkpt lat="45.1319912" lon="11.8842084"><ele>3.0</ele><time>2026-03-22T08:29:17.293Z</time></trkpt><trkpt lat="45.1320305" lon="11.884116"><ele>3.0</ele><time>2026-03-22T08:29:18.29Z</time></trkpt><trkpt lat="45.1320719" lon="11.8840371"><ele>3.0</ele><time>2026-03-22T08:29:19.308Z</time></trkpt><trkpt lat="45.1321629" lon="11.8839213"><ele>3.0</ele><time>2026-03-22T08:29:21.289Z</time></trkpt><trkpt lat="45.1322143" lon="11.8838662"><ele>3.0</ele><time>2026-03-22T08:29:22.286Z</time></trkpt><trkpt lat="45.1322731" lon="11.8838015"><ele>3.0</ele><time>2026-03-22T08:29:23.289Z</time></trkpt><trkpt lat="45.1323396" lon="11.8837431"><ele>3.0</ele><time>2026-03-22T08:29:24.301Z</time></trkpt><trkpt lat="45.1324249" lon="11.8837128"><ele>3.0</ele><time>2026-03-22T08:29:25.289Z</time></trkpt><trkpt lat="45.1325245" lon="11.8837154"><ele>3.0</ele><time>2026-03-22T08:29:26.292Z</time></trkpt><trkpt lat="45.1326385" lon="11.8837544"><ele>3.666666666666667</ele><time>2026-03-22T08:29:27.284Z</time></trkpt><trkpt lat="45.1327706" lon="11.8838156"><ele>4.333333333333334</ele><time>2026-03-22T08:29:28.293Z</time></trkpt><trkpt lat="45.1329165" lon="11.8838837"><ele>5.0</ele><time>2026-03-22T08:29:29.291Z</time></trkpt><trkpt lat="45.1330678" lon="11.8839544"><ele>4.333333333333334</ele><time>2026-03-22T08:29:30.288Z</time></trkpt><trkpt lat="45.1332258" lon="11.8840353"><ele>3.666666666666667</ele><time>2026-03-22T08:29:31.286Z</time></trkpt><trkpt lat="45.1333957" lon="11.8841108"><ele>3.0</ele><time>2026-03-22T08:29:32.304Z</time></trkpt><trkpt lat="45.1335755" lon="11.8841799"><ele>3.0</ele><time>2026-03-22T08:29:33.291Z</time></trkpt><trkpt lat="45.1337435" lon="11.8842335"><ele>3.0</ele><time>2026-03-22T08:29:34.296Z</time></trkpt><trkpt lat="45.1338917" lon="11.8842888"><ele>3.0</ele><time>2026-03-22T08:29:35.293Z</time></trkpt><trkpt lat="45.1340362" lon="11.8843467"><ele>2.6666666666666665</ele><time>2026-03-22T08:29:36.302Z</time></trkpt><trkpt lat="45.1341867" lon="11.8843899"><ele>2.333333333333333</ele><time>2026-03-22T08:29:37.291Z</time></trkpt><trkpt lat="45.1343375" lon="11.8844318"><ele>2.0</ele><time>2026-03-22T08:29:38.293Z</time></trkpt><trkpt lat="45.1344919" lon="11.8844903"><ele>2.0</ele><time>2026-03-22T08:29:39.301Z</time></trkpt><trkpt lat="45.134645" lon="11.8845299"><ele>2.0</ele><time>2026-03-22T08:29:40.295Z</time></trkpt><trkpt lat="45.1347898" lon="11.8845588"><ele>2.0</ele><time>2026-03-22T08:29:41.303Z</time></trkpt><trkpt lat="45.134937" lon="11.884556"><ele>2.0</ele><time>2026-03-22T08:29:42.289Z</time></trkpt><trkpt lat="45.1350873" lon="11.884532"><ele>2.25</ele><time>2026-03-22T08:29:43.303Z</time></trkpt><trkpt lat="45.1352252" lon="11.8844872"><ele>2.5</ele><time>2026-03-22T08:29:44.293Z</time></trkpt><trkpt lat="45.1353566" lon="11.8844335"><ele>2.75</ele><time>2026-03-22T08:29:45.291Z</time></trkpt><trkpt lat="45.1354812" lon="11.8843752"><ele>3.0</ele><time>2026-03-22T08:29:46.293Z</time></trkpt><trkpt lat="45.1355862" lon="11.8843146"><ele>2.8</ele><time>2026-03-22T08:29:47.29Z</time></trkpt><trkpt lat="45.1356854" lon="11.8842535"><ele>2.5999999999999996</ele><time>2026-03-22T08:29:48.294Z</time></trkpt><trkpt lat="45.1357707" lon="11.8842043"><ele>2.4000000000000004</ele><time>2026-03-22T08:29:49.284Z</time></trkpt><trkpt lat="45.1358425" lon="11.8841681"><ele>2.2</ele><time>2026-03-22T08:29:50.298Z</time></trkpt><trkpt lat="45.1359308" lon="11.8841376"><ele>2.0</ele><time>2026-03-22T08:29:52.291Z</time></trkpt><trkpt lat="45.1360165" lon="11.8840743"><ele>2.6666666666666665</ele><time>2026-03-22T08:29:55.297Z</time></trkpt><trkpt lat="45.1361064" lon="11.883996"><ele>3.333333333333333</ele><time>2026-03-22T08:29:57.289Z</time></trkpt><trkpt lat="45.1361688" lon="11.8839525"><ele>4.0</ele><time>2026-03-22T08:29:58.29Z</time></trkpt><trkpt lat="45.1362346" lon="11.8839098"><ele>4.666666666666667</ele><time>2026-03-22T08:29:59.298Z</time></trkpt><trkpt lat="45.1363129" lon="11.8838621"><ele>5.333333333333333</ele><time>2026-03-22T08:30:00.294Z</time></trkpt><trkpt lat="45.1364069" lon="11.8838046"><ele>6.0</ele><time>2026-03-22T08:30:01.288Z</time></trkpt><trkpt lat="45.1365124" lon="11.8837506"><ele>5.0</ele><time>2026-03-22T08:30:02.298Z</time></trkpt><trkpt lat="45.1366096" lon="11.8836984"><ele>3.9999999999999996</ele><time>2026-03-22T08:30:03.302Z</time></trkpt><trkpt lat="45.1366979" lon="11.8836518"><ele>3.0</ele><time>2026-03-22T08:30:04.298Z</time></trkpt><trkpt lat="45.1367779" lon="11.8836068"><ele>2.0</ele><time>2026-03-22T08:30:05.298Z</time></trkpt><trkpt lat="45.1368651" lon="11.8835604"><ele>1.0</ele><time>2026-03-22T08:30:06.29Z</time></trkpt><trkpt lat="45.1369567" lon="11.8835128"><ele>0.9999999999999999</ele><time>2026-03-22T08:30:07.287Z</time></trkpt><trkpt lat="45.137048" lon="11.8834628"><ele>1.0</ele><time>2026-03-22T08:30:08.291Z</time></trkpt><trkpt lat="45.1371405" lon="11.8834141"><ele>1.0</ele><time>2026-03-22T08:30:09.292Z</time></trkpt><trkpt lat="45.1372201" lon="11.8833701"><ele>1.0</ele><time>2026-03-22T08:30:10.304Z</time></trkpt><trkpt lat="45.1372911" lon="11.8833363"><ele>0.9999999999999999</ele><time>2026-03-22T08:30:11.289Z</time></trkpt><trkpt lat="45.137353" lon="11.8833032"><ele>1.0</ele><time>2026-03-22T08:30:12.292Z</time></trkpt><trkpt lat="45.137449" lon="11.8832672"><ele>1.1666666666666665</ele><time>2026-03-22T08:30:14.29Z</time></trkpt><trkpt lat="45.1375197" lon="11.8832824"><ele>1.3333333333333333</ele><time>2026-03-22T08:30:16.293Z</time></trkpt><trkpt lat="45.1376017" lon="11.8833254"><ele>1.5</ele><time>2026-03-22T08:30:19.298Z</time></trkpt><trkpt lat="45.137666" lon="11.8833593"><ele>1.6666666666666665</ele><time>2026-03-22T08:30:21.299Z</time></trkpt><trkpt lat="45.1377305" lon="11.8833348"><ele>1.8333333333333333</ele><time>2026-03-22T08:30:23.294Z</time></trkpt><trkpt lat="45.1377928" lon="11.8832786"><ele>2.0</ele><time>2026-03-22T08:30:26.297Z</time></trkpt><trkpt lat="45.1378203" lon="11.8831558"><ele>2.0</ele><time>2026-03-22T08:31:03.296Z</time></trkpt><trkpt lat="45.1378734" lon="11.883068"><ele>2.0</ele><time>2026-03-22T08:31:04.294Z</time></trkpt><trkpt lat="45.1379453" lon="11.8829898"><ele>2.0</ele><time>2026-03-22T08:31:05.291Z</time></trkpt><trkpt lat="45.1380291" lon="11.8829131"><ele>2.0</ele><time>2026-03-22T08:31:06.3Z</time></trkpt><trkpt lat="45.1381358" lon="11.8828333"><ele>2.0</ele><time>2026-03-22T08:31:07.291Z</time></trkpt><trkpt lat="45.1382537" lon="11.8827572"><ele>2.5</ele><time>2026-03-22T08:31:08.298Z</time></trkpt><trkpt lat="45.1383751" lon="11.8826689"><ele>3.0</ele><time>2026-03-22T08:31:09.292Z</time></trkpt><trkpt lat="45.1385029" lon="11.8825623"><ele>3.5</ele><time>2026-03-22T08:31:10.3Z</time></trkpt><trkpt lat="45.1386273" lon="11.8824431"><ele>4.0</ele><time>2026-03-22T08:31:11.294Z</time></trkpt><trkpt lat="45.1387465" lon="11.8823095"><ele>4.0</ele><time>2026-03-22T08:31:12.3Z</time></trkpt><trkpt lat="45.1388755" lon="11.8821757"><ele>4.0</ele><time>2026-03-22T08:31:13.295Z</time></trkpt><trkpt lat="45.1390005" lon="11.8820457"><ele>4.0</ele><time>2026-03-22T08:31:14.301Z</time></trkpt><trkpt lat="45.1391354" lon="11.8818988"><ele>3.6666666666666665</ele><time>2026-03-22T08:31:15.291Z</time></trkpt><trkpt lat="45.1392698" lon="11.8817477"><ele>3.333333333333333</ele><time>2026-03-22T08:31:16.296Z</time></trkpt><trkpt lat="45.1394078" lon="11.8816023"><ele>3.0</ele><time>2026-03-22T08:31:17.291Z</time></trkpt><trkpt lat="45.1395429" lon="11.8814602"><ele>3.0</ele><time>2026-03-22T08:31:18.298Z</time></trkpt><trkpt lat="45.1396805" lon="11.8813107"><ele>3.0</ele><time>2026-03-22T08:31:19.307Z</time></trkpt><trkpt lat="45.139816" lon="11.8811752"><ele>3.0</ele><time>2026-03-22T08:31:20.302Z</time></trkpt><trkpt lat="45.1399396" lon="11.8810437"><ele>3.333333333333333</ele><time>2026-03-22T08:31:21.293Z</time></trkpt><trkpt lat="45.1400659" lon="11.8809161"><ele>3.6666666666666665</ele><time>2026-03-22T08:31:22.303Z</time></trkpt><trkpt lat="45.140204" lon="11.8807869"><ele>4.0</ele><time>2026-03-22T08:31:23.294Z</time></trkpt><trkpt lat="45.1403358" lon="11.8806511"><ele>4.0</ele><time>2026-03-22T08:31:24.295Z</time></trkpt><trkpt lat="45.1404719" lon="11.8805168"><ele>4.0</ele><time>2026-03-22T08:31:25.306Z</time></trkpt><trkpt lat="45.1406018" lon="11.8803741"><ele>4.0</ele><time>2026-03-22T08:31:26.302Z</time></trkpt><trkpt lat="45.1407357" lon="11.8802312"><ele>4.0</ele><time>2026-03-22T08:31:27.308Z</time></trkpt><trkpt lat="45.1408612" lon="11.8800963"><ele>4.0</ele><time>2026-03-22T08:31:28.293Z</time></trkpt><trkpt lat="45.1409807" lon="11.8799617"><ele>4.0</ele><time>2026-03-22T08:31:29.301Z</time></trkpt><trkpt lat="45.1411" lon="11.8798413"><ele>4.0</ele><time>2026-03-22T08:31:30.303Z</time></trkpt><trkpt lat="45.1412162" lon="11.8797116"><ele>4.0</ele><time>2026-03-22T08:31:31.298Z</time></trkpt><trkpt lat="45.1413237" lon="11.8795902"><ele>4.0</ele><time>2026-03-22T08:31:32.296Z</time></trkpt><trkpt lat="45.1414452" lon="11.8794737"><ele>4.0</ele><time>2026-03-22T08:31:33.298Z</time></trkpt><trkpt lat="45.1415658" lon="11.8793531"><ele>4.0</ele><time>2026-03-22T08:31:34.298Z</time></trkpt><trkpt lat="45.1416923" lon="11.879236"><ele>4.0</ele><time>2026-03-22T08:31:35.299Z</time></trkpt><trkpt lat="45.1418007" lon="11.8791279"><ele>4.0</ele><time>2026-03-22T08:31:36.289Z</time></trkpt><trkpt lat="45.1418885" lon="11.8790391"><ele>4.0</ele><time>2026-03-22T08:31:37.297Z</time></trkpt><trkpt lat="45.1419646" lon="11.8789892"><ele>3.9999999999999996</ele><time>2026-03-22T08:31:38.286Z</time></trkpt><trkpt lat="45.1420362" lon="11.8789704"><ele>4.0</ele><time>2026-03-22T08:31:39.279Z</time></trkpt><trkpt lat="45.142119" lon="11.8789887"><ele>4.0</ele><time>2026-03-22T08:31:40.284Z</time></trkpt><trkpt lat="45.1421915" lon="11.8790344"><ele>4.0</ele><time>2026-03-22T08:31:41.291Z</time></trkpt><trkpt lat="45.1422519" lon="11.8790785"><ele>3.9999999999999996</ele><time>2026-03-22T08:31:42.3Z</time></trkpt><trkpt lat="45.1423189" lon="11.8790992"><ele>4.0</ele><time>2026-03-22T08:31:43.29Z</time></trkpt><trkpt lat="45.1424206" lon="11.8790277"><ele>3.5</ele><time>2026-03-22T08:31:45.292Z</time></trkpt><trkpt lat="45.1424683" lon="11.8788736"><ele>3.0</ele><time>2026-03-22T08:31:47.292Z</time></trkpt><trkpt lat="45.1425008" lon="11.8787053"><ele>2.5</ele><time>2026-03-22T08:31:49.291Z</time></trkpt><trkpt lat="45.1425635" lon="11.878561"><ele>2.0</ele><time>2026-03-22T08:31:51.292Z</time></trkpt><trkpt lat="45.1426611" lon="11.8784457"><ele>2.0</ele><time>2026-03-22T08:31:53.298Z</time></trkpt><trkpt lat="45.1427232" lon="11.878383"><ele>2.0</ele><time>2026-03-22T08:31:54.293Z</time></trkpt><trkpt lat="45.1428154" lon="11.8783139"><ele>2.0</ele><time>2026-03-22T08:31:55.286Z</time></trkpt><trkpt lat="45.1429207" lon="11.8782456"><ele>2.0</ele><time>2026-03-22T08:31:56.285Z</time></trkpt><trkpt lat="45.1430429" lon="11.878188"><ele>2.0</ele><time>2026-03-22T08:31:57.285Z</time></trkpt><trkpt lat="45.143179" lon="11.8781313"><ele>2.0</ele><time>2026-03-22T08:31:58.288Z</time></trkpt><trkpt lat="45.1433311" lon="11.8780807"><ele>2.0</ele><time>2026-03-22T08:31:59.292Z</time></trkpt><trkpt lat="45.1434967" lon="11.878034"><ele>2.0</ele><time>2026-03-22T08:32:00.295Z</time></trkpt><trkpt lat="45.1436651" lon="11.8779805"><ele>2.0</ele><time>2026-03-22T08:32:01.294Z</time></trkpt><trkpt lat="45.1438403" lon="11.8779262"><ele>2.0</ele><time>2026-03-22T08:32:02.295Z</time></trkpt><trkpt lat="45.1440208" lon="11.8778688"><ele>2.0</ele><time>2026-03-22T08:32:03.297Z</time></trkpt><trkpt lat="45.1441831" lon="11.8778179"><ele>2.333333333333333</ele><time>2026-03-22T08:32:04.293Z</time></trkpt><trkpt lat="45.1443431" lon="11.8777555"><ele>2.6666666666666665</ele><time>2026-03-22T08:32:05.291Z</time></trkpt><trkpt lat="45.1445088" lon="11.8776917"><ele>3.0</ele><time>2026-03-22T08:32:06.29Z</time></trkpt><trkpt lat="45.1446838" lon="11.8776368"><ele>3.0</ele><time>2026-03-22T08:32:07.286Z</time></trkpt><trkpt lat="45.1448495" lon="11.8775739"><ele>3.0</ele><time>2026-03-22T08:32:08.292Z</time></trkpt><trkpt lat="45.1450246" lon="11.8775215"><ele>3.0</ele><time>2026-03-22T08:32:09.29Z</time></trkpt><trkpt lat="45.1451852" lon="11.8774599"><ele>3.0</ele><time>2026-03-22T08:32:10.29Z</time></trkpt><trkpt lat="45.1453673" lon="11.8773999"><ele>3.0</ele><time>2026-03-22T08:32:11.285Z</time></trkpt><trkpt lat="45.1455519" lon="11.8773339"><ele>3.0</ele><time>2026-03-22T08:32:12.286Z</time></trkpt><trkpt lat="45.145735" lon="11.8772664"><ele>3.0</ele><time>2026-03-22T08:32:13.287Z</time></trkpt><trkpt lat="45.1459086" lon="11.8772035"><ele>3.0</ele><time>2026-03-22T08:32:14.291Z</time></trkpt><trkpt lat="45.1460684" lon="11.877139"><ele>3.0</ele><time>2026-03-22T08:32:15.29Z</time></trkpt><trkpt lat="45.1462305" lon="11.8770799"><ele>3.0</ele><time>2026-03-22T08:32:16.297Z</time></trkpt><trkpt lat="45.1463892" lon="11.8770167"><ele>3.0</ele><time>2026-03-22T08:32:17.29Z</time></trkpt><trkpt lat="45.1465573" lon="11.8769563"><ele>3.0</ele><time>2026-03-22T08:32:18.295Z</time></trkpt><trkpt lat="45.1467194" lon="11.8768927"><ele>3.333333333333333</ele><time>2026-03-22T08:32:19.296Z</time></trkpt><trkpt lat="45.1468902" lon="11.8768292"><ele>3.6666666666666665</ele><time>2026-03-22T08:32:20.292Z</time></trkpt><trkpt lat="45.1470641" lon="11.8767696"><ele>4.0</ele><time>2026-03-22T08:32:21.299Z</time></trkpt><trkpt lat="45.1472392" lon="11.8767046"><ele>4.333333333333333</ele><time>2026-03-22T08:32:22.292Z</time></trkpt><trkpt lat="45.1474227" lon="11.8766475"><ele>4.666666666666667</ele><time>2026-03-22T08:32:23.295Z</time></trkpt><trkpt lat="45.1475984" lon="11.8765783"><ele>5.0</ele><time>2026-03-22T08:32:24.294Z</time></trkpt><trkpt lat="45.1477819" lon="11.8765171"><ele>5.0</ele><time>2026-03-22T08:32:25.294Z</time></trkpt><trkpt lat="45.1479654" lon="11.8764599"><ele>5.0</ele><time>2026-03-22T08:32:26.294Z</time></trkpt><trkpt lat="45.1481582" lon="11.8763917"><ele>5.0</ele><time>2026-03-22T08:32:27.285Z</time></trkpt><trkpt lat="45.1483493" lon="11.8763219"><ele>4.666666666666667</ele><time>2026-03-22T08:32:28.289Z</time></trkpt><trkpt lat="45.1485314" lon="11.8762507"><ele>4.333333333333333</ele><time>2026-03-22T08:32:29.285Z</time></trkpt><trkpt lat="45.1487199" lon="11.8761878"><ele>4.0</ele><time>2026-03-22T08:32:30.288Z</time></trkpt><trkpt lat="45.1488958" lon="11.8761128"><ele>3.6666666666666665</ele><time>2026-03-22T08:32:31.288Z</time></trkpt><trkpt lat="45.149078" lon="11.8760497"><ele>3.333333333333333</ele><time>2026-03-22T08:32:32.29Z</time></trkpt><trkpt lat="45.1492679" lon="11.8759936"><ele>3.0</ele><time>2026-03-22T08:32:33.288Z</time></trkpt><trkpt lat="45.1494587" lon="11.8759384"><ele>3.0</ele><time>2026-03-22T08:32:34.284Z</time></trkpt><trkpt lat="45.1496553" lon="11.8758951"><ele>3.0</ele><time>2026-03-22T08:32:35.283Z</time></trkpt><trkpt lat="45.1498398" lon="11.8758583"><ele>3.0</ele><time>2026-03-22T08:32:36.288Z</time></trkpt><trkpt lat="45.150031" lon="11.8758366"><ele>2.3333333333333335</ele><time>2026-03-22T08:32:37.286Z</time></trkpt><trkpt lat="45.1502202" lon="11.8758511"><ele>1.6666666666666665</ele><time>2026-03-22T08:32:38.287Z</time></trkpt><trkpt lat="45.1504103" lon="11.8759103"><ele>1.0</ele><time>2026-03-22T08:32:39.282Z</time></trkpt><trkpt lat="45.1506107" lon="11.875977"><ele>0.6666666666666666</ele><time>2026-03-22T08:32:40.287Z</time></trkpt><trkpt lat="45.1508042" lon="11.8760362"><ele>0.3333333333333333</ele><time>2026-03-22T08:32:41.283Z</time></trkpt><trkpt lat="45.1509932" lon="11.8760849"><ele>0.0</ele><time>2026-03-22T08:32:42.292Z</time></trkpt><trkpt lat="45.1511843" lon="11.8761263"><ele>0.0</ele><time>2026-03-22T08:32:43.284Z</time></trkpt><trkpt lat="45.1513813" lon="11.8761754"><ele>0.0</ele><time>2026-03-22T08:32:44.289Z</time></trkpt><trkpt lat="45.1515781" lon="11.8762246"><ele>0.0</ele><time>2026-03-22T08:32:45.284Z</time></trkpt><trkpt lat="45.1517659" lon="11.8762804"><ele>0.6666666666666666</ele><time>2026-03-22T08:32:46.281Z</time></trkpt><trkpt lat="45.1519431" lon="11.8763308"><ele>1.3333333333333333</ele><time>2026-03-22T08:32:47.287Z</time></trkpt><trkpt lat="45.1521372" lon="11.8763764"><ele>2.0</ele><time>2026-03-22T08:32:48.282Z</time></trkpt><trkpt lat="45.1523415" lon="11.8764227"><ele>1.6666666666666665</ele><time>2026-03-22T08:32:49.288Z</time></trkpt><trkpt lat="45.1525412" lon="11.8764759"><ele>1.3333333333333333</ele><time>2026-03-22T08:32:50.285Z</time></trkpt><trkpt lat="45.1527381" lon="11.8765245"><ele>1.0</ele><time>2026-03-22T08:32:51.287Z</time></trkpt><trkpt lat="45.1529368" lon="11.876578"><ele>1.0</ele><time>2026-03-22T08:32:52.284Z</time></trkpt><trkpt lat="45.1531329" lon="11.8766372"><ele>1.0</ele><time>2026-03-22T08:32:53.286Z</time></trkpt><trkpt lat="45.1533308" lon="11.8766871"><ele>1.0</ele><time>2026-03-22T08:32:54.289Z</time></trkpt><trkpt lat="45.153528" lon="11.8767236"><ele>0.6666666666666666</ele><time>2026-03-22T08:32:55.292Z</time></trkpt><trkpt lat="45.1537145" lon="11.8767328"><ele>0.3333333333333333</ele><time>2026-03-22T08:32:56.302Z</time></trkpt><trkpt lat="45.1539107" lon="11.8767322"><ele>0.0</ele><time>2026-03-22T08:32:57.28Z</time></trkpt><trkpt lat="45.1541024" lon="11.8767286"><ele>-0.3333333333333333</ele><time>2026-03-22T08:32:58.296Z</time></trkpt><trkpt lat="45.1542891" lon="11.8767261"><ele>-0.6666666666666666</ele><time>2026-03-22T08:32:59.291Z</time></trkpt><trkpt lat="45.1544775" lon="11.8767281"><ele>-1.0</ele><time>2026-03-22T08:33:00.293Z</time></trkpt><trkpt lat="45.154663" lon="11.8767226"><ele>-1.0</ele><time>2026-03-22T08:33:01.294Z</time></trkpt><trkpt lat="45.1548474" lon="11.8767132"><ele>-1.0</ele><time>2026-03-22T08:33:02.296Z</time></trkpt><trkpt lat="45.1550173" lon="11.8767123"><ele>-1.0</ele><time>2026-03-22T08:33:03.29Z</time></trkpt><trkpt lat="45.1551793" lon="11.8767067"><ele>-1.3333333333333333</ele><time>2026-03-22T08:33:04.293Z</time></trkpt><trkpt lat="45.1553662" lon="11.8767093"><ele>-1.6666666666666665</ele><time>2026-03-22T08:33:05.292Z</time></trkpt><trkpt lat="45.1555358" lon="11.8767087"><ele>-2.0</ele><time>2026-03-22T08:33:06.292Z</time></trkpt><trkpt lat="45.1556888" lon="11.8767057"><ele>-1.25</ele><time>2026-03-22T08:33:07.291Z</time></trkpt><trkpt lat="45.1558289" lon="11.8767091"><ele>-0.5</ele><time>2026-03-22T08:33:08.296Z</time></trkpt><trkpt lat="45.1559658" lon="11.8767152"><ele>0.25</ele><time>2026-03-22T08:33:09.293Z</time></trkpt><trkpt lat="45.1560981" lon="11.8767199"><ele>1.0</ele><time>2026-03-22T08:33:10.288Z</time></trkpt><trkpt lat="45.1562179" lon="11.8767205"><ele>0.9999999999999999</ele><time>2026-03-22T08:33:11.286Z</time></trkpt><trkpt lat="45.1563182" lon="11.8767112"><ele>1.0</ele><time>2026-03-22T08:33:12.286Z</time></trkpt><trkpt lat="45.156392" lon="11.8767139"><ele>1.0</ele><time>2026-03-22T08:33:13.286Z</time></trkpt><trkpt lat="45.1564719" lon="11.8767538"><ele>1.0</ele><time>2026-03-22T08:33:15.289Z</time></trkpt><trkpt lat="45.1565316" lon="11.8768365"><ele>0.9999999999999999</ele><time>2026-03-22T08:33:17.289Z</time></trkpt><trkpt lat="45.1565694" lon="11.8769154"><ele>1.0</ele><time>2026-03-22T08:33:19.284Z</time></trkpt><trkpt lat="45.1566341" lon="11.8769749"><ele>0.8333333333333333</ele><time>2026-03-22T08:33:22.291Z</time></trkpt><trkpt lat="45.1567019" lon="11.8769812"><ele>0.6666666666666666</ele><time>2026-03-22T08:33:26.291Z</time></trkpt><trkpt lat="45.1567689" lon="11.8769571"><ele>0.5</ele><time>2026-03-22T08:37:01.278Z</time></trkpt><trkpt lat="45.156849" lon="11.876923"><ele>0.3333333333333333</ele><time>2026-03-22T08:37:03.279Z</time></trkpt><trkpt lat="45.1569249" lon="11.876881"><ele>0.16666666666666666</ele><time>2026-03-22T08:43:19.281Z</time></trkpt><trkpt lat="45.1569487" lon="11.8767882"><ele>0.0</ele><time>2026-03-22T08:43:22.284Z</time></trkpt><trkpt lat="45.1568881" lon="11.8766995"><ele>0.0</ele><time>2026-03-22T08:43:51.281Z</time></trkpt><trkpt lat="45.156794" lon="11.8766976"><ele>0.0</ele><time>2026-03-22T08:43:53.283Z</time></trkpt><trkpt lat="45.1566921" lon="11.8767054"><ele>0.0</ele><time>2026-03-22T08:43:55.285Z</time></trkpt><trkpt lat="45.1565791" lon="11.8767007"><ele>0.0</ele><time>2026-03-22T08:43:57.282Z</time></trkpt><trkpt lat="45.1564584" lon="11.876688"><ele>0.0</ele><time>2026-03-22T08:43:59.287Z</time></trkpt><trkpt lat="45.1563408" lon="11.8766809"><ele>0.25</ele><time>2026-03-22T08:44:01.284Z</time></trkpt><trkpt lat="45.1562199" lon="11.8766778"><ele>0.5</ele><time>2026-03-22T08:44:03.288Z</time></trkpt><trkpt lat="45.1561004" lon="11.8766819"><ele>0.75</ele><time>2026-03-22T08:44:05.288Z</time></trkpt><trkpt lat="45.155984" lon="11.8766869"><ele>1.0</ele><time>2026-03-22T08:44:07.285Z</time></trkpt><trkpt lat="45.1558569" lon="11.8766812"><ele>0.9999999999999999</ele><time>2026-03-22T08:44:09.288Z</time></trkpt><trkpt lat="45.1557853" lon="11.876685"><ele>1.0</ele><time>2026-03-22T08:44:10.283Z</time></trkpt><trkpt lat="45.1557033" lon="11.8766865"><ele>1.0</ele><time>2026-03-22T08:44:11.286Z</time></trkpt><trkpt lat="45.1556159" lon="11.8766833"><ele>1.0</ele><time>2026-03-22T08:44:12.289Z</time></trkpt><trkpt lat="45.1555181" lon="11.8766845"><ele>0.9999999999999999</ele><time>2026-03-22T08:44:13.287Z</time></trkpt><trkpt lat="45.1554208" lon="11.8766799"><ele>1.0</ele><time>2026-03-22T08:44:14.291Z</time></trkpt><trkpt lat="45.155316" lon="11.8766778"><ele>0.6000000000000001</ele><time>2026-03-22T08:44:15.289Z</time></trkpt><trkpt lat="45.1552055" lon="11.8766739"><ele>0.20000000000000007</ele><time>2026-03-22T08:44:16.29Z</time></trkpt><trkpt lat="45.1550901" lon="11.8766694"><ele>-0.20000000000000007</ele><time>2026-03-22T08:44:17.289Z</time></trkpt><trkpt lat="45.1549804" lon="11.8766663"><ele>-0.6000000000000001</ele><time>2026-03-22T08:44:18.298Z</time></trkpt><trkpt lat="45.1548702" lon="11.8766663"><ele>-1.0</ele><time>2026-03-22T08:44:19.289Z</time></trkpt><trkpt lat="45.1547663" lon="11.8766641"><ele>-1.0</ele><time>2026-03-22T08:44:20.29Z</time></trkpt><trkpt lat="45.154661" lon="11.8766682"><ele>-1.0</ele><time>2026-03-22T08:44:21.287Z</time></trkpt><trkpt lat="45.1545595" lon="11.8766705"><ele>-1.0</ele><time>2026-03-22T08:44:22.289Z</time></trkpt><trkpt lat="45.1544578" lon="11.8766685"><ele>-1.0</ele><time>2026-03-22T08:44:23.291Z</time></trkpt><trkpt lat="45.1543609" lon="11.8766691"><ele>-1.0</ele><time>2026-03-22T08:44:24.289Z</time></trkpt><trkpt lat="45.1542702" lon="11.8766678"><ele>-1.0</ele><time>2026-03-22T08:44:25.29Z</time></trkpt><trkpt lat="45.1541782" lon="11.8766698"><ele>-1.0</ele><time>2026-03-22T08:44:26.29Z</time></trkpt><trkpt lat="45.1540892" lon="11.8766732"><ele>-1.0</ele><time>2026-03-22T08:44:27.285Z</time></trkpt><trkpt lat="45.1539981" lon="11.8766762"><ele>-1.0</ele><time>2026-03-22T08:44:28.291Z</time></trkpt><trkpt lat="45.1539053" lon="11.876679"><ele>-1.0</ele><time>2026-03-22T08:44:29.289Z</time></trkpt><trkpt lat="45.1538142" lon="11.8766821"><ele>-0.8</ele><time>2026-03-22T08:44:30.297Z</time></trkpt><trkpt lat="45.1537251" lon="11.8766839"><ele>-0.6000000000000001</ele><time>2026-03-22T08:44:31.289Z</time></trkpt><trkpt lat="45.1536345" lon="11.8766836"><ele>-0.4</ele><time>2026-03-22T08:44:32.293Z</time></trkpt><trkpt lat="45.1535416" lon="11.8766822"><ele>-0.2</ele><time>2026-03-22T08:44:33.289Z</time></trkpt><trkpt lat="45.1534492" lon="11.8766765"><ele>0.0</ele><time>2026-03-22T08:44:34.29Z</time></trkpt><trkpt lat="45.1533508" lon="11.8766658"><ele>0.0</ele><time>2026-03-22T08:44:35.289Z</time></trkpt><trkpt lat="45.1532538" lon="11.8766513"><ele>0.0</ele><time>2026-03-22T08:44:36.291Z</time></trkpt><trkpt lat="45.1531553" lon="11.8766318"><ele>0.0</ele><time>2026-03-22T08:44:37.291Z</time></trkpt><trkpt lat="45.1530597" lon="11.8766072"><ele>0.0</ele><time>2026-03-22T08:44:38.285Z</time></trkpt><trkpt lat="45.1529626" lon="11.8765826"><ele>0.0</ele><time>2026-03-22T08:44:39.288Z</time></trkpt><trkpt lat="45.1528638" lon="11.8765517"><ele>0.2</ele><time>2026-03-22T08:44:40.29Z</time></trkpt><trkpt lat="45.1527654" lon="11.8765236"><ele>0.4</ele><time>2026-03-22T08:44:41.285Z</time></trkpt><trkpt lat="45.1526611" lon="11.8764971"><ele>0.6000000000000001</ele><time>2026-03-22T08:44:42.294Z</time></trkpt><trkpt lat="45.1525603" lon="11.8764687"><ele>0.8</ele><time>2026-03-22T08:44:43.288Z</time></trkpt><trkpt lat="45.152463" lon="11.8764366"><ele>1.0</ele><time>2026-03-22T08:44:44.288Z</time></trkpt><trkpt lat="45.1523595" lon="11.8764091"><ele>1.2000000000000002</ele><time>2026-03-22T08:44:45.288Z</time></trkpt><trkpt lat="45.1522577" lon="11.8763876"><ele>1.4000000000000001</ele><time>2026-03-22T08:44:46.289Z</time></trkpt><trkpt lat="45.1521565" lon="11.8763665"><ele>1.6</ele><time>2026-03-22T08:44:47.292Z</time></trkpt><trkpt lat="45.1520618" lon="11.8763402"><ele>1.8</ele><time>2026-03-22T08:44:48.29Z</time></trkpt><trkpt lat="45.151962" lon="11.8763148"><ele>2.0</ele><time>2026-03-22T08:44:49.288Z</time></trkpt><trkpt lat="45.151867" lon="11.876288"><ele>2.0</ele><time>2026-03-22T08:44:50.283Z</time></trkpt><trkpt lat="45.151774" lon="11.8762603"><ele>2.0</ele><time>2026-03-22T08:44:51.291Z</time></trkpt><trkpt lat="45.1516751" lon="11.8762354"><ele>2.0</ele><time>2026-03-22T08:44:52.286Z</time></trkpt><trkpt lat="45.1515787" lon="11.8762161"><ele>2.0</ele><time>2026-03-22T08:44:53.294Z</time></trkpt><trkpt lat="45.1514835" lon="11.876196"><ele>2.0</ele><time>2026-03-22T08:44:54.283Z</time></trkpt><trkpt lat="45.1513875" lon="11.8761715"><ele>1.6</ele><time>2026-03-22T08:44:55.287Z</time></trkpt><trkpt lat="45.1512912" lon="11.8761501"><ele>1.2000000000000002</ele><time>2026-03-22T08:44:56.286Z</time></trkpt><trkpt lat="45.1511945" lon="11.8761263"><ele>0.8</ele><time>2026-03-22T08:44:57.287Z</time></trkpt><trkpt lat="45.1510991" lon="11.8761029"><ele>0.4</ele><time>2026-03-22T08:44:58.289Z</time></trkpt><trkpt lat="45.1510029" lon="11.8760759"><ele>0.0</ele><time>2026-03-22T08:44:59.289Z</time></trkpt><trkpt lat="45.1509047" lon="11.8760469"><ele>0.0</ele><time>2026-03-22T08:45:00.286Z</time></trkpt><trkpt lat="45.1508073" lon="11.8760202"><ele>0.0</ele><time>2026-03-22T08:45:01.289Z</time></trkpt><trkpt lat="45.1507079" lon="11.8759948"><ele>0.0</ele><time>2026-03-22T08:45:02.29Z</time></trkpt><trkpt lat="45.1506113" lon="11.8759709"><ele>0.0</ele><time>2026-03-22T08:45:03.284Z</time></trkpt><trkpt lat="45.1505134" lon="11.875945"><ele>0.0</ele><time>2026-03-22T08:45:04.281Z</time></trkpt><trkpt lat="45.1504148" lon="11.8759189"><ele>0.2</ele><time>2026-03-22T08:45:05.288Z</time></trkpt><trkpt lat="45.150313" lon="11.8758946"><ele>0.4</ele><time>2026-03-22T08:45:06.284Z</time></trkpt><trkpt lat="45.1502174" lon="11.8758726"><ele>0.6000000000000001</ele><time>2026-03-22T08:45:07.283Z</time></trkpt><trkpt lat="45.1501234" lon="11.8758532"><ele>0.8</ele><time>2026-03-22T08:45:08.288Z</time></trkpt><trkpt lat="45.1500294" lon="11.875837"><ele>1.0</ele><time>2026-03-22T08:45:09.287Z</time></trkpt><trkpt lat="45.1499408" lon="11.8758247"><ele>1.4</ele><time>2026-03-22T08:45:10.285Z</time></trkpt><trkpt lat="45.1498451" lon="11.8758241"><ele>1.8</ele><time>2026-03-22T08:45:11.278Z</time></trkpt><trkpt lat="45.1497493" lon="11.8758474"><ele>2.1999999999999997</ele><time>2026-03-22T08:45:12.285Z</time></trkpt><trkpt lat="45.1496538" lon="11.8758767"><ele>2.6</ele><time>2026-03-22T08:45:13.29Z</time></trkpt><trkpt lat="45.1495554" lon="11.8759041"><ele>3.0</ele><time>2026-03-22T08:45:14.283Z</time></trkpt><trkpt lat="45.1494577" lon="11.8759289"><ele>3.0</ele><time>2026-03-22T08:45:15.286Z</time></trkpt><trkpt lat="45.1493647" lon="11.8759499"><ele>3.0</ele><time>2026-03-22T08:45:16.285Z</time></trkpt><trkpt lat="45.1492704" lon="11.8759739"><ele>3.0</ele><time>2026-03-22T08:45:17.28Z</time></trkpt><trkpt lat="45.149171" lon="11.8759985"><ele>3.0</ele><time>2026-03-22T08:45:18.291Z</time></trkpt><trkpt lat="45.1490764" lon="11.8760249"><ele>3.0</ele><time>2026-03-22T08:45:19.292Z</time></trkpt><trkpt lat="45.1489871" lon="11.8760532"><ele>3.1666666666666665</ele><time>2026-03-22T08:45:20.292Z</time></trkpt><trkpt lat="45.1489016" lon="11.876085"><ele>3.333333333333333</ele><time>2026-03-22T08:45:21.288Z</time></trkpt><trkpt lat="45.148816" lon="11.8761133"><ele>3.5</ele><time>2026-03-22T08:45:22.291Z</time></trkpt><trkpt lat="45.1487319" lon="11.8761472"><ele>3.6666666666666665</ele><time>2026-03-22T08:45:23.283Z</time></trkpt><trkpt lat="45.1486505" lon="11.8761808"><ele>3.833333333333333</ele><time>2026-03-22T08:45:24.278Z</time></trkpt><trkpt lat="45.1485705" lon="11.876215"><ele>4.0</ele><time>2026-03-22T08:45:25.279Z</time></trkpt><trkpt lat="45.1484894" lon="11.8762414"><ele>3.9999999999999996</ele><time>2026-03-22T08:45:26.272Z</time></trkpt><trkpt lat="45.1484075" lon="11.8762688"><ele>4.0</ele><time>2026-03-22T08:45:27.283Z</time></trkpt><trkpt lat="45.1483303" lon="11.8762978"><ele>4.0</ele><time>2026-03-22T08:45:28.28Z</time></trkpt><trkpt lat="45.1482496" lon="11.8763308"><ele>4.0</ele><time>2026-03-22T08:45:29.286Z</time></trkpt><trkpt lat="45.148166" lon="11.8763618"><ele>3.9999999999999996</ele><time>2026-03-22T08:45:30.288Z</time></trkpt><trkpt lat="45.1480777" lon="11.8763916"><ele>4.0</ele><time>2026-03-22T08:45:31.28Z</time></trkpt><trkpt lat="45.1479859" lon="11.876426"><ele>4.25</ele><time>2026-03-22T08:45:32.286Z</time></trkpt><trkpt lat="45.1478906" lon="11.8764683"><ele>4.5</ele><time>2026-03-22T08:45:33.281Z</time></trkpt><trkpt lat="45.1477818" lon="11.8765081"><ele>4.75</ele><time>2026-03-22T08:45:34.28Z</time></trkpt><trkpt lat="45.1476528" lon="11.8765561"><ele>5.0</ele><time>2026-03-22T08:45:35.277Z</time></trkpt><trkpt lat="45.1475149" lon="11.8766111"><ele>4.666666666666667</ele><time>2026-03-22T08:45:36.282Z</time></trkpt><trkpt lat="45.1473632" lon="11.8766733"><ele>4.333333333333333</ele><time>2026-03-22T08:45:37.277Z</time></trkpt><trkpt lat="45.1471854" lon="11.8767412"><ele>4.0</ele><time>2026-03-22T08:45:38.287Z</time></trkpt><trkpt lat="45.1469897" lon="11.8768005"><ele>4.0</ele><time>2026-03-22T08:45:39.286Z</time></trkpt><trkpt lat="45.146826" lon="11.8768651"><ele>4.0</ele><time>2026-03-22T08:45:40.285Z</time></trkpt><trkpt lat="45.1466839" lon="11.8769162"><ele>4.0</ele><time>2026-03-22T08:45:41.291Z</time></trkpt><trkpt lat="45.1465433" lon="11.8769716"><ele>3.75</ele><time>2026-03-22T08:45:42.283Z</time></trkpt><trkpt lat="45.1464078" lon="11.8770312"><ele>3.5</ele><time>2026-03-22T08:45:43.285Z</time></trkpt><trkpt lat="45.1462839" lon="11.8770706"><ele>3.25</ele><time>2026-03-22T08:45:44.284Z</time></trkpt><trkpt lat="45.146161" lon="11.8771197"><ele>3.0</ele><time>2026-03-22T08:45:45.285Z</time></trkpt><trkpt lat="45.1460389" lon="11.8771513"><ele>3.0</ele><time>2026-03-22T08:45:46.28Z</time></trkpt><trkpt lat="45.1459039" lon="11.8772013"><ele>3.0</ele><time>2026-03-22T08:45:47.278Z</time></trkpt><trkpt lat="45.1457631" lon="11.8772567"><ele>3.0</ele><time>2026-03-22T08:45:48.28Z</time></trkpt><trkpt lat="45.145609" lon="11.8773123"><ele>3.0</ele><time>2026-03-22T08:45:49.297Z</time></trkpt><trkpt lat="45.1454448" lon="11.8773712"><ele>3.333333333333333</ele><time>2026-03-22T08:45:50.284Z</time></trkpt><trkpt lat="45.1452661" lon="11.877428"><ele>3.6666666666666665</ele><time>2026-03-22T08:45:51.282Z</time></trkpt><trkpt lat="45.1450804" lon="11.8774964"><ele>4.0</ele><time>2026-03-22T08:45:52.283Z</time></trkpt><trkpt lat="45.1448919" lon="11.8775541"><ele>3.6666666666666665</ele><time>2026-03-22T08:45:53.29Z</time></trkpt><trkpt lat="45.144718" lon="11.8776086"><ele>3.333333333333333</ele><time>2026-03-22T08:45:54.287Z</time></trkpt><trkpt lat="45.1445481" lon="11.8776629"><ele>3.0</ele><time>2026-03-22T08:45:55.287Z</time></trkpt><trkpt lat="45.1443995" lon="11.8777119"><ele>3.0</ele><time>2026-03-22T08:45:56.284Z</time></trkpt><trkpt lat="45.1442548" lon="11.8777597"><ele>3.0</ele><time>2026-03-22T08:45:57.278Z</time></trkpt><trkpt lat="45.1441245" lon="11.8778051"><ele>3.0</ele><time>2026-03-22T08:45:58.287Z</time></trkpt><trkpt lat="45.1440016" lon="11.8778498"><ele>3.0</ele><time>2026-03-22T08:45:59.286Z</time></trkpt><trkpt lat="45.1438885" lon="11.8778864"><ele>2.8</ele><time>2026-03-22T08:46:00.291Z</time></trkpt><trkpt lat="45.1437733" lon="11.877925"><ele>2.5999999999999996</ele><time>2026-03-22T08:46:01.286Z</time></trkpt><trkpt lat="45.1436696" lon="11.8779637"><ele>2.4000000000000004</ele><time>2026-03-22T08:46:02.292Z</time></trkpt><trkpt lat="45.1435666" lon="11.8780023"><ele>2.2</ele><time>2026-03-22T08:46:03.287Z</time></trkpt><trkpt lat="45.1434555" lon="11.8780345"><ele>2.0</ele><time>2026-03-22T08:46:04.291Z</time></trkpt><trkpt lat="45.1433383" lon="11.8780676"><ele>2.0</ele><time>2026-03-22T08:46:05.282Z</time></trkpt><trkpt lat="45.1432229" lon="11.8781072"><ele>2.0</ele><time>2026-03-22T08:46:06.293Z</time></trkpt><trkpt lat="45.1431054" lon="11.8781466"><ele>2.0</ele><time>2026-03-22T08:46:07.29Z</time></trkpt><trkpt lat="45.1429909" lon="11.8781915"><ele>2.0</ele><time>2026-03-22T08:46:08.286Z</time></trkpt><trkpt lat="45.1428809" lon="11.8782366"><ele>2.0</ele><time>2026-03-22T08:46:09.287Z</time></trkpt><trkpt lat="45.1427689" lon="11.8782876"><ele>2.0</ele><time>2026-03-22T08:46:10.287Z</time></trkpt><trkpt lat="45.142669" lon="11.878345"><ele>2.0</ele><time>2026-03-22T08:46:11.282Z</time></trkpt><trkpt lat="45.1425783" lon="11.8784148"><ele>2.0</ele><time>2026-03-22T08:46:12.283Z</time></trkpt><trkpt lat="45.142496" lon="11.8784867"><ele>2.0</ele><time>2026-03-22T08:46:13.284Z</time></trkpt><trkpt lat="45.1424284" lon="11.8785566"><ele>2.333333333333333</ele><time>2026-03-22T08:46:14.289Z</time></trkpt><trkpt lat="45.1423707" lon="11.8786312"><ele>2.6666666666666665</ele><time>2026-03-22T08:46:15.287Z</time></trkpt><trkpt lat="45.1423169" lon="11.8787016"><ele>3.0</ele><time>2026-03-22T08:46:16.282Z</time></trkpt><trkpt lat="45.1422548" lon="11.878762"><ele>3.333333333333333</ele><time>2026-03-22T08:46:17.282Z</time></trkpt><trkpt lat="45.142173" lon="11.8788114"><ele>3.6666666666666665</ele><time>2026-03-22T08:46:18.282Z</time></trkpt><trkpt lat="45.1420849" lon="11.87888"><ele>4.0</ele><time>2026-03-22T08:46:19.287Z</time></trkpt><trkpt lat="45.1419831" lon="11.8789735"><ele>4.0</ele><time>2026-03-22T08:46:20.286Z</time></trkpt><trkpt lat="45.1418699" lon="11.8790759"><ele>4.0</ele><time>2026-03-22T08:46:21.287Z</time></trkpt><trkpt lat="45.141747" lon="11.879188"><ele>4.0</ele><time>2026-03-22T08:46:22.29Z</time></trkpt><trkpt lat="45.1416224" lon="11.8793121"><ele>4.0</ele><time>2026-03-22T08:46:23.287Z</time></trkpt><trkpt lat="45.1415055" lon="11.8794289"><ele>4.0</ele><time>2026-03-22T08:46:24.284Z</time></trkpt><trkpt lat="45.1413936" lon="11.8795402"><ele>4.0</ele><time>2026-03-22T08:46:25.283Z</time></trkpt><trkpt lat="45.1412749" lon="11.8796711"><ele>4.0</ele><time>2026-03-22T08:46:26.283Z</time></trkpt><trkpt lat="45.1411464" lon="11.8798024"><ele>4.0</ele><time>2026-03-22T08:46:27.283Z</time></trkpt><trkpt lat="45.1410207" lon="11.8799306"><ele>4.0</ele><time>2026-03-22T08:46:28.287Z</time></trkpt><trkpt lat="45.1409003" lon="11.8800532"><ele>4.0</ele><time>2026-03-22T08:46:29.281Z</time></trkpt><trkpt lat="45.1407913" lon="11.8801507"><ele>4.0</ele><time>2026-03-22T08:46:30.277Z</time></trkpt><trkpt lat="45.1407108" lon="11.8802366"><ele>4.0</ele><time>2026-03-22T08:46:31.276Z</time></trkpt><trkpt lat="45.1406418" lon="11.8803051"><ele>3.9999999999999996</ele><time>2026-03-22T08:46:32.289Z</time></trkpt><trkpt lat="45.1405853" lon="11.8803709"><ele>4.0</ele><time>2026-03-22T08:46:33.286Z</time></trkpt><trkpt lat="45.1405232" lon="11.8804508"><ele>4.0</ele><time>2026-03-22T08:46:34.281Z</time></trkpt><trkpt lat="45.1404649" lon="11.8805326"><ele>4.0</ele><time>2026-03-22T08:46:35.282Z</time></trkpt><trkpt lat="45.1403941" lon="11.8806201"><ele>3.9999999999999996</ele><time>2026-03-22T08:46:36.275Z</time></trkpt><trkpt lat="45.1403127" lon="11.8807259"><ele>4.0</ele><time>2026-03-22T08:46:37.279Z</time></trkpt><trkpt lat="45.1402156" lon="11.8808206"><ele>4.0</ele><time>2026-03-22T08:46:38.277Z</time></trkpt><trkpt lat="45.1401106" lon="11.8809328"><ele>4.0</ele><time>2026-03-22T08:46:39.275Z</time></trkpt><trkpt lat="45.1399941" lon="11.8810562"><ele>4.0</ele><time>2026-03-22T08:46:40.28Z</time></trkpt><trkpt lat="45.1398755" lon="11.8811793"><ele>4.0</ele><time>2026-03-22T08:46:41.28Z</time></trkpt><trkpt lat="45.1397438" lon="11.881302"><ele>4.0</ele><time>2026-03-22T08:46:42.278Z</time></trkpt><trkpt lat="45.1396136" lon="11.8814213"><ele>4.0</ele><time>2026-03-22T08:46:43.285Z</time></trkpt><trkpt lat="45.139482" lon="11.8815341"><ele>4.0</ele><time>2026-03-22T08:46:44.294Z</time></trkpt><trkpt lat="45.1393691" lon="11.8816528"><ele>4.0</ele><time>2026-03-22T08:46:45.295Z</time></trkpt><trkpt lat="45.1392521" lon="11.8817654"><ele>4.0</ele><time>2026-03-22T08:46:46.289Z</time></trkpt><trkpt lat="45.1391421" lon="11.8818885"><ele>4.0</ele><time>2026-03-22T08:46:47.294Z</time></trkpt><trkpt lat="45.1390243" lon="11.8820076"><ele>4.0</ele><time>2026-03-22T08:46:48.292Z</time></trkpt><trkpt lat="45.1389067" lon="11.8821255"><ele>4.0</ele><time>2026-03-22T08:46:49.3Z</time></trkpt><trkpt lat="45.1388069" lon="11.8822428"><ele>4.0</ele><time>2026-03-22T08:46:50.302Z</time></trkpt><trkpt lat="45.1387089" lon="11.8823608"><ele>4.0</ele><time>2026-03-22T08:46:51.297Z</time></trkpt><trkpt lat="45.1386061" lon="11.8824601"><ele>4.0</ele><time>2026-03-22T08:46:52.299Z</time></trkpt><trkpt lat="45.1385055" lon="11.8825582"><ele>4.0</ele><time>2026-03-22T08:46:53.288Z</time></trkpt><trkpt lat="45.138403" lon="11.882655"><ele>4.166666666666666</ele><time>2026-03-22T08:46:54.296Z</time></trkpt><trkpt lat="45.1383133" lon="11.882735"><ele>4.333333333333333</ele><time>2026-03-22T08:46:55.278Z</time></trkpt><trkpt lat="45.1382487" lon="11.8827813"><ele>4.5</ele><time>2026-03-22T08:46:56.278Z</time></trkpt><trkpt lat="45.1381922" lon="11.8828284"><ele>4.666666666666667</ele><time>2026-03-22T08:46:57.282Z</time></trkpt><trkpt lat="45.1380883" lon="11.8828923"><ele>4.833333333333334</ele><time>2026-03-22T08:46:59.285Z</time></trkpt><trkpt lat="45.1380102" lon="11.8829388"><ele>5.0</ele><time>2026-03-22T08:47:01.294Z</time></trkpt><trkpt lat="45.1379377" lon="11.8829668"><ele>4.5</ele><time>2026-03-22T08:47:03.299Z</time></trkpt><trkpt lat="45.1378585" lon="11.8829876"><ele>4.0</ele><time>2026-03-22T08:47:05.299Z</time></trkpt><trkpt lat="45.1377893" lon="11.8829983"><ele>3.5</ele><time>2026-03-22T08:47:07.289Z</time></trkpt><trkpt lat="45.1377179" lon="11.8829792"><ele>3.0</ele><time>2026-03-22T08:47:09.292Z</time></trkpt><trkpt lat="45.1376167" lon="11.8829425"><ele>2.5</ele><time>2026-03-22T08:47:11.288Z</time></trkpt><trkpt lat="45.1375505" lon="11.8829166"><ele>2.0</ele><time>2026-03-22T08:47:12.294Z</time></trkpt><trkpt lat="45.1374732" lon="11.8828778"><ele>2.0</ele><time>2026-03-22T08:47:13.293Z</time></trkpt><trkpt lat="45.1373926" lon="11.8828045"><ele>2.0</ele><time>2026-03-22T08:47:14.296Z</time></trkpt><trkpt lat="45.1373135" lon="11.8826765"><ele>2.0</ele><time>2026-03-22T08:47:15.301Z</time></trkpt><trkpt lat="45.1372405" lon="11.8825155"><ele>2.0</ele><time>2026-03-22T08:47:16.294Z</time></trkpt><trkpt lat="45.1371701" lon="11.8823296"><ele>2.0</ele><time>2026-03-22T08:47:17.288Z</time></trkpt><trkpt lat="45.1370961" lon="11.8821222"><ele>2.0</ele><time>2026-03-22T08:47:18.296Z</time></trkpt><trkpt lat="45.1370186" lon="11.8819099"><ele>2.0</ele><time>2026-03-22T08:47:19.291Z</time></trkpt><trkpt lat="45.1369255" lon="11.8817128"><ele>3.0</ele><time>2026-03-22T08:47:20.295Z</time></trkpt><trkpt lat="45.1368266" lon="11.8815267"><ele>4.0</ele><time>2026-03-22T08:47:21.292Z</time></trkpt><trkpt lat="45.1367139" lon="11.8813468"><ele>5.0</ele><time>2026-03-22T08:47:22.304Z</time></trkpt><trkpt lat="45.1365929" lon="11.8811706"><ele>5.0</ele><time>2026-03-22T08:47:23.298Z</time></trkpt><trkpt lat="45.1364642" lon="11.88099"><ele>5.0</ele><time>2026-03-22T08:47:24.301Z</time></trkpt><trkpt lat="45.1363382" lon="11.8808288"><ele>5.0</ele><time>2026-03-22T08:47:25.299Z</time></trkpt><trkpt lat="45.1362194" lon="11.8806689"><ele>5.0</ele><time>2026-03-22T08:47:26.295Z</time></trkpt><trkpt lat="45.136094" lon="11.8805111"><ele>5.0</ele><time>2026-03-22T08:47:27.308Z</time></trkpt><trkpt lat="45.135973" lon="11.8803473"><ele>5.0</ele><time>2026-03-22T08:47:28.296Z</time></trkpt><trkpt lat="45.1358541" lon="11.8801828"><ele>4.5</ele><time>2026-03-22T08:47:29.303Z</time></trkpt><trkpt lat="45.1357491" lon="11.8800264"><ele>4.0</ele><time>2026-03-22T08:47:30.296Z</time></trkpt><trkpt lat="45.1356567" lon="11.8798797"><ele>3.5</ele><time>2026-03-22T08:47:31.296Z</time></trkpt><trkpt lat="45.1355666" lon="11.8797258"><ele>3.0</ele><time>2026-03-22T08:47:32.301Z</time></trkpt><trkpt lat="45.1354843" lon="11.8795577"><ele>3.0</ele><time>2026-03-22T08:47:33.298Z</time></trkpt><trkpt lat="45.1354084" lon="11.8793789"><ele>3.0</ele><time>2026-03-22T08:47:34.298Z</time></trkpt><trkpt lat="45.1353247" lon="11.8791844"><ele>3.0</ele><time>2026-03-22T08:47:35.291Z</time></trkpt><trkpt lat="45.135245" lon="11.8789707"><ele>3.333333333333333</ele><time>2026-03-22T08:47:36.297Z</time></trkpt><trkpt lat="45.1351725" lon="11.8787369"><ele>3.6666666666666665</ele><time>2026-03-22T08:47:37.295Z</time></trkpt><trkpt lat="45.1351065" lon="11.878498"><ele>4.0</ele><time>2026-03-22T08:47:38.299Z</time></trkpt><trkpt lat="45.1350622" lon="11.8782648"><ele>4.0</ele><time>2026-03-22T08:47:39.297Z</time></trkpt><trkpt lat="45.1350189" lon="11.8780385"><ele>4.0</ele><time>2026-03-22T08:47:40.295Z</time></trkpt><trkpt lat="45.1349817" lon="11.8778017"><ele>4.0</ele><time>2026-03-22T08:47:41.298Z</time></trkpt><trkpt lat="45.1349465" lon="11.8775558"><ele>4.0</ele><time>2026-03-22T08:47:42.296Z</time></trkpt><trkpt lat="45.1349004" lon="11.8772932"><ele>4.0</ele><time>2026-03-22T08:47:43.295Z</time></trkpt><trkpt lat="45.1348677" lon="11.8770055"><ele>4.0</ele><time>2026-03-22T08:47:44.291Z</time></trkpt><trkpt lat="45.1348416" lon="11.876709"><ele>4.0</ele><time>2026-03-22T08:47:45.296Z</time></trkpt><trkpt lat="45.1348262" lon="11.8764078"><ele>4.0</ele><time>2026-03-22T08:47:46.295Z</time></trkpt><trkpt lat="45.1348224" lon="11.8761177"><ele>4.0</ele><time>2026-03-22T08:47:47.293Z</time></trkpt><trkpt lat="45.134838" lon="11.8758431"><ele>4.666666666666666</ele><time>2026-03-22T08:47:48.291Z</time></trkpt><trkpt lat="45.13486" lon="11.8755848"><ele>5.333333333333333</ele><time>2026-03-22T08:47:49.292Z</time></trkpt><trkpt lat="45.1348863" lon="11.8753492"><ele>6.0</ele><time>2026-03-22T08:47:50.298Z</time></trkpt><trkpt lat="45.1349145" lon="11.8751191"><ele>6.0</ele><time>2026-03-22T08:47:51.297Z</time></trkpt><trkpt lat="45.134919" lon="11.8748888"><ele>6.0</ele><time>2026-03-22T08:47:52.298Z</time></trkpt><trkpt lat="45.1348899" lon="11.8746492"><ele>6.0</ele><time>2026-03-22T08:47:53.302Z</time></trkpt><trkpt lat="45.1348322" lon="11.8744229"><ele>6.333333333333334</ele><time>2026-03-22T08:47:54.3Z</time></trkpt><trkpt lat="45.1347377" lon="11.874225"><ele>6.666666666666667</ele><time>2026-03-22T08:47:55.298Z</time></trkpt><trkpt lat="45.1346129" lon="11.8740585"><ele>7.0</ele><time>2026-03-22T08:47:56.297Z</time></trkpt><trkpt lat="45.1344768" lon="11.8739292"><ele>7.0</ele><time>2026-03-22T08:47:57.293Z</time></trkpt><trkpt lat="45.1343327" lon="11.8738003"><ele>7.0</ele><time>2026-03-22T08:47:58.297Z</time></trkpt><trkpt lat="45.1341797" lon="11.8736628"><ele>7.0</ele><time>2026-03-22T08:47:59.298Z</time></trkpt><trkpt lat="45.1340162" lon="11.8734989"><ele>7.0</ele><time>2026-03-22T08:48:00.293Z</time></trkpt><trkpt lat="45.1338614" lon="11.8733187"><ele>7.0</ele><time>2026-03-22T08:48:01.295Z</time></trkpt><trkpt lat="45.1337282" lon="11.873113"><ele>7.0</ele><time>2026-03-22T08:48:02.305Z</time></trkpt><trkpt lat="45.1336165" lon="11.8728785"><ele>7.0</ele><time>2026-03-22T08:48:03.298Z</time></trkpt><trkpt lat="45.1335338" lon="11.8726212"><ele>7.0</ele><time>2026-03-22T08:48:04.293Z</time></trkpt><trkpt lat="45.13347" lon="11.8723355"><ele>7.0</ele><time>2026-03-22T08:48:05.295Z</time></trkpt><trkpt lat="45.1334203" lon="11.8720501"><ele>5.666666666666667</ele><time>2026-03-22T08:48:06.295Z</time></trkpt><trkpt lat="45.1333831" lon="11.871763"><ele>4.333333333333334</ele><time>2026-03-22T08:48:07.294Z</time></trkpt><trkpt lat="45.1333662" lon="11.8714748"><ele>3.0</ele><time>2026-03-22T08:48:08.291Z</time></trkpt><trkpt lat="45.1333727" lon="11.8711924"><ele>3.333333333333333</ele><time>2026-03-22T08:48:09.295Z</time></trkpt><trkpt lat="45.1333947" lon="11.8708966"><ele>3.6666666666666665</ele><time>2026-03-22T08:48:10.294Z</time></trkpt><trkpt lat="45.1334289" lon="11.8705902"><ele>4.0</ele><time>2026-03-22T08:48:11.292Z</time></trkpt><trkpt lat="45.1334696" lon="11.8702785"><ele>6.0</ele><time>2026-03-22T08:48:12.291Z</time></trkpt><trkpt lat="45.1335147" lon="11.8699615"><ele>8.0</ele><time>2026-03-22T08:48:13.296Z</time></trkpt><trkpt lat="45.1335662" lon="11.869652"><ele>8.0</ele><time>2026-03-22T08:48:14.3Z</time></trkpt><trkpt lat="45.1336331" lon="11.869342"><ele>8.0</ele><time>2026-03-22T08:48:15.297Z</time></trkpt><trkpt lat="45.1336984" lon="11.869029"><ele>7.666666666666666</ele><time>2026-03-22T08:48:16.303Z</time></trkpt><trkpt lat="45.1337612" lon="11.8687252"><ele>7.333333333333334</ele><time>2026-03-22T08:48:17.295Z</time></trkpt><trkpt lat="45.1338194" lon="11.8684264"><ele>7.0</ele><time>2026-03-22T08:48:18.297Z</time></trkpt><trkpt lat="45.133886" lon="11.8681283"><ele>7.0</ele><time>2026-03-22T08:48:19.299Z</time></trkpt><trkpt lat="45.1339494" lon="11.8678298"><ele>7.0</ele><time>2026-03-22T08:48:20.299Z</time></trkpt><trkpt lat="45.1340097" lon="11.867524"><ele>7.0</ele><time>2026-03-22T08:48:21.296Z</time></trkpt><trkpt lat="45.1340818" lon="11.8672143"><ele>6.5</ele><time>2026-03-22T08:48:22.299Z</time></trkpt><trkpt lat="45.1341487" lon="11.8669034"><ele>6.0</ele><time>2026-03-22T08:48:23.303Z</time></trkpt><trkpt lat="45.1342099" lon="11.8665878"><ele>6.0</ele><time>2026-03-22T08:48:24.315Z</time></trkpt><trkpt lat="45.1342716" lon="11.8662816"><ele>6.0</ele><time>2026-03-22T08:48:25.309Z</time></trkpt><trkpt lat="45.1343197" lon="11.8659903"><ele>6.0</ele><time>2026-03-22T08:48:26.304Z</time></trkpt><trkpt lat="45.1343483" lon="11.8657093"><ele>5.333333333333333</ele><time>2026-03-22T08:48:27.303Z</time></trkpt><trkpt lat="45.1343495" lon="11.8654431"><ele>4.666666666666666</ele><time>2026-03-22T08:48:28.299Z</time></trkpt><trkpt lat="45.1343165" lon="11.8651856"><ele>4.0</ele><time>2026-03-22T08:48:29.303Z</time></trkpt><trkpt lat="45.1342523" lon="11.8649257"><ele>4.0</ele><time>2026-03-22T08:48:30.301Z</time></trkpt><trkpt lat="45.1341648" lon="11.864664"><ele>4.0</ele><time>2026-03-22T08:48:31.302Z</time></trkpt><trkpt lat="45.1340684" lon="11.8644068"><ele>4.0</ele><time>2026-03-22T08:48:32.314Z</time></trkpt><trkpt lat="45.1339636" lon="11.8641415"><ele>4.0</ele><time>2026-03-22T08:48:33.298Z</time></trkpt><trkpt lat="45.1338617" lon="11.8638553"><ele>4.0</ele><time>2026-03-22T08:48:34.299Z</time></trkpt><trkpt lat="45.1337665" lon="11.8635525"><ele>4.0</ele><time>2026-03-22T08:48:35.303Z</time></trkpt><trkpt lat="45.1336758" lon="11.8632422"><ele>4.0</ele><time>2026-03-22T08:48:36.309Z</time></trkpt><trkpt lat="45.1335888" lon="11.8629293"><ele>5.5</ele><time>2026-03-22T08:48:37.305Z</time></trkpt><trkpt lat="45.1334983" lon="11.8626123"><ele>7.0</ele><time>2026-03-22T08:48:38.302Z</time></trkpt><trkpt lat="45.1334097" lon="11.8623057"><ele>7.0</ele><time>2026-03-22T08:48:39.297Z</time></trkpt><trkpt lat="45.1333332" lon="11.8620159"><ele>7.0</ele><time>2026-03-22T08:48:40.304Z</time></trkpt><trkpt lat="45.1332704" lon="11.8617208"><ele>7.0</ele><time>2026-03-22T08:48:41.301Z</time></trkpt><trkpt lat="45.1332093" lon="11.8614147"><ele>7.0</ele><time>2026-03-22T08:48:42.298Z</time></trkpt><trkpt lat="45.1331583" lon="11.861099"><ele>7.0</ele><time>2026-03-22T08:48:43.301Z</time></trkpt><trkpt lat="45.133102" lon="11.8607797"><ele>7.0</ele><time>2026-03-22T08:48:44.303Z</time></trkpt><trkpt lat="45.133042" lon="11.8604473"><ele>7.0</ele><time>2026-03-22T08:48:45.303Z</time></trkpt><trkpt lat="45.1329906" lon="11.8601014"><ele>7.0</ele><time>2026-03-22T08:48:46.302Z</time></trkpt><trkpt lat="45.132934" lon="11.8597405"><ele>7.0</ele><time>2026-03-22T08:48:47.307Z</time></trkpt><trkpt lat="45.1328659" lon="11.8593825"><ele>6.666666666666667</ele><time>2026-03-22T08:48:48.296Z</time></trkpt><trkpt lat="45.132807" lon="11.8590592"><ele>6.333333333333334</ele><time>2026-03-22T08:48:49.303Z</time></trkpt><trkpt lat="45.1327707" lon="11.8587917"><ele>6.0</ele><time>2026-03-22T08:48:50.298Z</time></trkpt><trkpt lat="45.1327359" lon="11.8585711"><ele>5.666666666666667</ele><time>2026-03-22T08:48:51.299Z</time></trkpt><trkpt lat="45.1326984" lon="11.8583532"><ele>5.333333333333334</ele><time>2026-03-22T08:48:52.3Z</time></trkpt><trkpt lat="45.1326556" lon="11.8581201"><ele>5.0</ele><time>2026-03-22T08:48:53.302Z</time></trkpt><trkpt lat="45.1325996" lon="11.8578775"><ele>5.0</ele><time>2026-03-22T08:48:54.306Z</time></trkpt><trkpt lat="45.1325306" lon="11.8576308"><ele>5.0</ele><time>2026-03-22T08:48:55.308Z</time></trkpt><trkpt lat="45.132466" lon="11.8573841"><ele>5.0</ele><time>2026-03-22T08:48:56.299Z</time></trkpt><trkpt lat="45.1323898" lon="11.857137"><ele>5.333333333333334</ele><time>2026-03-22T08:48:57.301Z</time></trkpt><trkpt lat="45.1323128" lon="11.8568804"><ele>5.666666666666667</ele><time>2026-03-22T08:48:58.303Z</time></trkpt><trkpt lat="45.1322386" lon="11.8566135"><ele>6.0</ele><time>2026-03-22T08:48:59.295Z</time></trkpt><trkpt lat="45.1321566" lon="11.8563248"><ele>6.0</ele><time>2026-03-22T08:49:00.301Z</time></trkpt><trkpt lat="45.1320657" lon="11.8560228"><ele>6.0</ele><time>2026-03-22T08:49:01.3Z</time></trkpt><trkpt lat="45.131959" lon="11.855731"><ele>6.5</ele><time>2026-03-22T08:49:02.306Z</time></trkpt><trkpt lat="45.1318427" lon="11.8554402"><ele>7.0</ele><time>2026-03-22T08:49:03.298Z</time></trkpt><trkpt lat="45.1317125" lon="11.8551576"><ele>6.666666666666667</ele><time>2026-03-22T08:49:04.298Z</time></trkpt><trkpt lat="45.1315911" lon="11.8548968"><ele>6.333333333333334</ele><time>2026-03-22T08:49:05.295Z</time></trkpt><trkpt lat="45.1314553" lon="11.8546584"><ele>6.0</ele><time>2026-03-22T08:49:06.299Z</time></trkpt><trkpt lat="45.1313205" lon="11.8544299"><ele>7.0</ele><time>2026-03-22T08:49:07.303Z</time></trkpt><trkpt lat="45.1311781" lon="11.8541916"><ele>8.0</ele><time>2026-03-22T08:49:08.297Z</time></trkpt><trkpt lat="45.1310417" lon="11.8539672"><ele>9.0</ele><time>2026-03-22T08:49:09.303Z</time></trkpt><trkpt lat="45.1309147" lon="11.8537382"><ele>9.0</ele><time>2026-03-22T08:49:10.294Z</time></trkpt><trkpt lat="45.1308002" lon="11.8534839"><ele>9.0</ele><time>2026-03-22T08:49:11.304Z</time></trkpt><trkpt lat="45.1307111" lon="11.8531887"><ele>9.0</ele><time>2026-03-22T08:49:12.296Z</time></trkpt><trkpt lat="45.1306544" lon="11.852863"><ele>8.0</ele><time>2026-03-22T08:49:13.3Z</time></trkpt><trkpt lat="45.1306146" lon="11.8525037"><ele>7.0</ele><time>2026-03-22T08:49:14.298Z</time></trkpt><trkpt lat="45.1305624" lon="11.8521199"><ele>6.0</ele><time>2026-03-22T08:49:15.296Z</time></trkpt><trkpt lat="45.1304947" lon="11.8517302"><ele>5.0</ele><time>2026-03-22T08:49:16.293Z</time></trkpt><trkpt lat="45.1304297" lon="11.8513725"><ele>5.0</ele><time>2026-03-22T08:49:17.297Z</time></trkpt><trkpt lat="45.1303592" lon="11.8510296"><ele>5.0</ele><time>2026-03-22T08:49:18.302Z</time></trkpt><trkpt lat="45.1302927" lon="11.8507114"><ele>4.666666666666667</ele><time>2026-03-22T08:49:19.293Z</time></trkpt><trkpt lat="45.130241" lon="11.8504142"><ele>4.333333333333333</ele><time>2026-03-22T08:49:20.294Z</time></trkpt><trkpt lat="45.1301959" lon="11.8501267"><ele>4.0</ele><time>2026-03-22T08:49:21.299Z</time></trkpt><trkpt lat="45.1301491" lon="11.8498501"><ele>4.0</ele><time>2026-03-22T08:49:22.305Z</time></trkpt><trkpt lat="45.130108" lon="11.8495714"><ele>4.0</ele><time>2026-03-22T08:49:23.301Z</time></trkpt><trkpt lat="45.1300674" lon="11.8493025"><ele>4.0</ele><time>2026-03-22T08:49:24.308Z</time></trkpt><trkpt lat="45.1300288" lon="11.8490485"><ele>4.0</ele><time>2026-03-22T08:49:25.302Z</time></trkpt><trkpt lat="45.1299913" lon="11.8487925"><ele>4.0</ele><time>2026-03-22T08:49:26.31Z</time></trkpt><trkpt lat="45.1299465" lon="11.8485314"><ele>4.0</ele><time>2026-03-22T08:49:27.301Z</time></trkpt><trkpt lat="45.1298977" lon="11.8482704"><ele>4.666666666666666</ele><time>2026-03-22T08:49:28.311Z</time></trkpt><trkpt lat="45.1298507" lon="11.8480022"><ele>5.333333333333333</ele><time>2026-03-22T08:49:29.302Z</time></trkpt><trkpt lat="45.1298001" lon="11.8477286"><ele>6.0</ele><time>2026-03-22T08:49:30.31Z</time></trkpt><trkpt lat="45.1297509" lon="11.8474585"><ele>6.0</ele><time>2026-03-22T08:49:31.305Z</time></trkpt><trkpt lat="45.1297004" lon="11.8471834"><ele>6.0</ele><time>2026-03-22T08:49:32.316Z</time></trkpt><trkpt lat="45.1296486" lon="11.8468965"><ele>6.0</ele><time>2026-03-22T08:49:33.301Z</time></trkpt><trkpt lat="45.1295892" lon="11.8466143"><ele>6.0</ele><time>2026-03-22T08:49:34.302Z</time></trkpt><trkpt lat="45.1295335" lon="11.8463099"><ele>6.0</ele><time>2026-03-22T08:49:35.304Z</time></trkpt><trkpt lat="45.1294803" lon="11.8460052"><ele>6.0</ele><time>2026-03-22T08:49:36.302Z</time></trkpt><trkpt lat="45.1294362" lon="11.8456939"><ele>6.5</ele><time>2026-03-22T08:49:37.302Z</time></trkpt><trkpt lat="45.1293929" lon="11.8453741"><ele>7.0</ele><time>2026-03-22T08:49:38.303Z</time></trkpt><trkpt lat="45.1293544" lon="11.8450546"><ele>5.5</ele><time>2026-03-22T08:49:39.307Z</time></trkpt><trkpt lat="45.1293301" lon="11.8447404"><ele>4.0</ele><time>2026-03-22T08:49:40.301Z</time></trkpt><trkpt lat="45.1293118" lon="11.8444138"><ele>3.6666666666666665</ele><time>2026-03-22T08:49:41.299Z</time></trkpt><trkpt lat="45.1292847" lon="11.8440967"><ele>3.333333333333333</ele><time>2026-03-22T08:49:42.303Z</time></trkpt><trkpt lat="45.1292719" lon="11.8437977"><ele>3.0</ele><time>2026-03-22T08:49:43.3Z</time></trkpt><trkpt lat="45.1292557" lon="11.8435085"><ele>2.6666666666666665</ele><time>2026-03-22T08:49:44.304Z</time></trkpt><trkpt lat="45.1292395" lon="11.8432194"><ele>2.333333333333333</ele><time>2026-03-22T08:49:45.302Z</time></trkpt><trkpt lat="45.1292243" lon="11.8429255"><ele>2.0</ele><time>2026-03-22T08:49:46.302Z</time></trkpt><trkpt lat="45.1292035" lon="11.8426321"><ele>2.333333333333333</ele><time>2026-03-22T08:49:47.299Z</time></trkpt><trkpt lat="45.1291782" lon="11.8423414"><ele>2.6666666666666665</ele><time>2026-03-22T08:49:48.307Z</time></trkpt><trkpt lat="45.1291493" lon="11.8420457"><ele>3.0</ele><time>2026-03-22T08:49:49.304Z</time></trkpt><trkpt lat="45.129122" lon="11.8417502"><ele>3.0</ele><time>2026-03-22T08:49:50.302Z</time></trkpt><trkpt lat="45.1290913" lon="11.8414659"><ele>3.0</ele><time>2026-03-22T08:49:51.293Z</time></trkpt><trkpt lat="45.1290617" lon="11.8411959"><ele>3.0</ele><time>2026-03-22T08:49:52.301Z</time></trkpt><trkpt lat="45.1290311" lon="11.8409392"><ele>5.0</ele><time>2026-03-22T08:49:53.303Z</time></trkpt><trkpt lat="45.1289998" lon="11.8406829"><ele>7.0</ele><time>2026-03-22T08:49:54.299Z</time></trkpt><trkpt lat="45.1289782" lon="11.8404195"><ele>9.0</ele><time>2026-03-22T08:49:55.303Z</time></trkpt><trkpt lat="45.1289502" lon="11.8401384"><ele>8.666666666666666</ele><time>2026-03-22T08:49:56.306Z</time></trkpt><trkpt lat="45.128925" lon="11.8398522"><ele>8.333333333333332</ele><time>2026-03-22T08:49:57.302Z</time></trkpt><trkpt lat="45.1289048" lon="11.8395561"><ele>8.0</ele><time>2026-03-22T08:49:58.308Z</time></trkpt><trkpt lat="45.128881" lon="11.8392594"><ele>8.0</ele><time>2026-03-22T08:49:59.3Z</time></trkpt><trkpt lat="45.1288448" lon="11.838966"><ele>8.0</ele><time>2026-03-22T08:50:00.307Z</time></trkpt><trkpt lat="45.1288086" lon="11.8386959"><ele>8.0</ele><time>2026-03-22T08:50:01.298Z</time></trkpt><trkpt lat="45.1287662" lon="11.8384406"><ele>7.0</ele><time>2026-03-22T08:50:02.304Z</time></trkpt><trkpt lat="45.1287127" lon="11.8382067"><ele>6.0</ele><time>2026-03-22T08:50:03.295Z</time></trkpt><trkpt lat="45.1286481" lon="11.8379886"><ele>5.0</ele><time>2026-03-22T08:50:04.305Z</time></trkpt><trkpt lat="45.1285448" lon="11.8377842"><ele>5.333333333333334</ele><time>2026-03-22T08:50:05.295Z</time></trkpt><trkpt lat="45.1284288" lon="11.8375871"><ele>5.666666666666667</ele><time>2026-03-22T08:50:06.295Z</time></trkpt><trkpt lat="45.1283051" lon="11.8373924"><ele>6.0</ele><time>2026-03-22T08:50:07.295Z</time></trkpt><trkpt lat="45.128176" lon="11.8371995"><ele>6.0</ele><time>2026-03-22T08:50:08.299Z</time></trkpt><trkpt lat="45.1280242" lon="11.837001"><ele>6.0</ele><time>2026-03-22T08:50:09.304Z</time></trkpt><trkpt lat="45.1278701" lon="11.8368186"><ele>6.0</ele><time>2026-03-22T08:50:10.299Z</time></trkpt><trkpt lat="45.1277095" lon="11.8366496"><ele>6.0</ele><time>2026-03-22T08:50:11.298Z</time></trkpt><trkpt lat="45.1275388" lon="11.8365023"><ele>6.0</ele><time>2026-03-22T08:50:12.296Z</time></trkpt><trkpt lat="45.1273608" lon="11.8363593"><ele>6.0</ele><time>2026-03-22T08:50:13.298Z</time></trkpt><trkpt lat="45.127192" lon="11.836235"><ele>6.0</ele><time>2026-03-22T08:50:14.297Z</time></trkpt><trkpt lat="45.1270361" lon="11.8361173"><ele>6.0</ele><time>2026-03-22T08:50:15.297Z</time></trkpt><trkpt lat="45.1268805" lon="11.8360248"><ele>6.0</ele><time>2026-03-22T08:50:16.302Z</time></trkpt><trkpt lat="45.126706" lon="11.8359661"><ele>6.333333333333334</ele><time>2026-03-22T08:50:17.295Z</time></trkpt><trkpt lat="45.1265387" lon="11.8359167"><ele>6.666666666666667</ele><time>2026-03-22T08:50:18.3Z</time></trkpt><trkpt lat="45.1263576" lon="11.835853"><ele>7.0</ele><time>2026-03-22T08:50:19.298Z</time></trkpt><trkpt lat="45.1261614" lon="11.8358174"><ele>7.0</ele><time>2026-03-22T08:50:20.297Z</time></trkpt><trkpt lat="45.1259659" lon="11.8357801"><ele>7.0</ele><time>2026-03-22T08:50:21.311Z</time></trkpt><trkpt lat="45.1257777" lon="11.8357314"><ele>7.0</ele><time>2026-03-22T08:50:22.306Z</time></trkpt><trkpt lat="45.1256029" lon="11.835637"><ele>6.666666666666667</ele><time>2026-03-22T08:50:23.303Z</time></trkpt><trkpt lat="45.1254391" lon="11.8354862"><ele>6.333333333333334</ele><time>2026-03-22T08:50:24.302Z</time></trkpt><trkpt lat="45.1252704" lon="11.8353024"><ele>6.0</ele><time>2026-03-22T08:50:25.302Z</time></trkpt><trkpt lat="45.1251173" lon="11.8351039"><ele>6.0</ele><time>2026-03-22T08:50:26.294Z</time></trkpt><trkpt lat="45.1249681" lon="11.8348817"><ele>6.0</ele><time>2026-03-22T08:50:27.299Z</time></trkpt><trkpt lat="45.1248236" lon="11.8346375"><ele>6.0</ele><time>2026-03-22T08:50:28.294Z</time></trkpt><trkpt lat="45.1246839" lon="11.834376"><ele>8.5</ele><time>2026-03-22T08:50:29.302Z</time></trkpt><trkpt lat="45.1245534" lon="11.8341095"><ele>11.0</ele><time>2026-03-22T08:50:30.303Z</time></trkpt><trkpt lat="45.1244153" lon="11.8338428"><ele>11.0</ele><time>2026-03-22T08:50:31.302Z</time></trkpt><trkpt lat="45.1242697" lon="11.8335754"><ele>11.0</ele><time>2026-03-22T08:50:32.31Z</time></trkpt><trkpt lat="45.1241225" lon="11.8333155"><ele>11.0</ele><time>2026-03-22T08:50:33.302Z</time></trkpt><trkpt lat="45.1239617" lon="11.8330642"><ele>11.0</ele><time>2026-03-22T08:50:34.301Z</time></trkpt><trkpt lat="45.1238031" lon="11.83283"><ele>10.0</ele><time>2026-03-22T08:50:35.301Z</time></trkpt><trkpt lat="45.1236335" lon="11.8326156"><ele>9.0</ele><time>2026-03-22T08:50:36.304Z</time></trkpt><trkpt lat="45.1234874" lon="11.8324001"><ele>8.0</ele><time>2026-03-22T08:50:37.299Z</time></trkpt><trkpt lat="45.1233473" lon="11.8321819"><ele>8.0</ele><time>2026-03-22T08:50:38.295Z</time></trkpt><trkpt lat="45.1232284" lon="11.8319793"><ele>8.0</ele><time>2026-03-22T08:50:39.298Z</time></trkpt><trkpt lat="45.1231293" lon="11.8317865"><ele>8.0</ele><time>2026-03-22T08:50:40.31Z</time></trkpt><trkpt lat="45.1230373" lon="11.8315745"><ele>8.0</ele><time>2026-03-22T08:50:41.294Z</time></trkpt><trkpt lat="45.1229566" lon="11.8313551"><ele>8.0</ele><time>2026-03-22T08:50:42.305Z</time></trkpt><trkpt lat="45.1228888" lon="11.8311196"><ele>8.0</ele><time>2026-03-22T08:50:43.299Z</time></trkpt><trkpt lat="45.1228138" lon="11.8308651"><ele>7.666666666666666</ele><time>2026-03-22T08:50:44.302Z</time></trkpt><trkpt lat="45.122752" lon="11.8305844"><ele>7.333333333333334</ele><time>2026-03-22T08:50:45.301Z</time></trkpt><trkpt lat="45.1227059" lon="11.8303015"><ele>7.0</ele><time>2026-03-22T08:50:46.3Z</time></trkpt><trkpt lat="45.1226643" lon="11.8300083"><ele>6.666666666666667</ele><time>2026-03-22T08:50:47.298Z</time></trkpt><trkpt lat="45.1226329" lon="11.8296973"><ele>6.333333333333334</ele><time>2026-03-22T08:50:48.303Z</time></trkpt><trkpt lat="45.1226102" lon="11.8293777"><ele>6.0</ele><time>2026-03-22T08:50:49.301Z</time></trkpt><trkpt lat="45.1225874" lon="11.8290655"><ele>6.0</ele><time>2026-03-22T08:50:50.307Z</time></trkpt><trkpt lat="45.1225649" lon="11.8287393"><ele>6.0</ele><time>2026-03-22T08:50:51.305Z</time></trkpt><trkpt lat="45.1225409" lon="11.8284054"><ele>6.0</ele><time>2026-03-22T08:50:52.299Z</time></trkpt><trkpt lat="45.1225114" lon="11.8280674"><ele>6.0</ele><time>2026-03-22T08:50:53.299Z</time></trkpt><trkpt lat="45.122476" lon="11.8277314"><ele>5.0</ele><time>2026-03-22T08:50:54.295Z</time></trkpt><trkpt lat="45.1224406" lon="11.8273924"><ele>4.0</ele><time>2026-03-22T08:50:55.309Z</time></trkpt><trkpt lat="45.1224057" lon="11.8270478"><ele>4.5</ele><time>2026-03-22T08:50:56.3Z</time></trkpt><trkpt lat="45.122374" lon="11.826696"><ele>5.0</ele><time>2026-03-22T08:50:57.296Z</time></trkpt><trkpt lat="45.122337" lon="11.8263591"><ele>5.0</ele><time>2026-03-22T08:50:58.302Z</time></trkpt><trkpt lat="45.1223045" lon="11.8260467"><ele>5.0</ele><time>2026-03-22T08:50:59.295Z</time></trkpt><trkpt lat="45.1222573" lon="11.8257475"><ele>5.0</ele><time>2026-03-22T08:51:00.296Z</time></trkpt><trkpt lat="45.1222066" lon="11.8254734"><ele>5.333333333333334</ele><time>2026-03-22T08:51:01.295Z</time></trkpt><trkpt lat="45.1221644" lon="11.8252055"><ele>5.666666666666667</ele><time>2026-03-22T08:51:02.308Z</time></trkpt><trkpt lat="45.1221228" lon="11.8249526"><ele>6.0</ele><time>2026-03-22T08:51:03.302Z</time></trkpt><trkpt lat="45.1220868" lon="11.8246848"><ele>6.333333333333334</ele><time>2026-03-22T08:51:04.297Z</time></trkpt><trkpt lat="45.1220643" lon="11.8244153"><ele>6.666666666666667</ele><time>2026-03-22T08:51:05.299Z</time></trkpt><trkpt lat="45.1220516" lon="11.8241306"><ele>7.0</ele><time>2026-03-22T08:51:06.298Z</time></trkpt><trkpt lat="45.1220521" lon="11.8238507"><ele>7.333333333333334</ele><time>2026-03-22T08:51:07.297Z</time></trkpt><trkpt lat="45.1220701" lon="11.8235709"><ele>7.666666666666666</ele><time>2026-03-22T08:51:08.297Z</time></trkpt><trkpt lat="45.1220985" lon="11.8232929"><ele>8.0</ele><time>2026-03-22T08:51:09.306Z</time></trkpt><trkpt lat="45.1221351" lon="11.8230164"><ele>8.666666666666666</ele><time>2026-03-22T08:51:10.294Z</time></trkpt><trkpt lat="45.1221923" lon="11.8227483"><ele>9.333333333333334</ele><time>2026-03-22T08:51:11.305Z</time></trkpt><trkpt lat="45.122265" lon="11.8224818"><ele>10.0</ele><time>2026-03-22T08:51:12.293Z</time></trkpt><trkpt lat="45.12234" lon="11.8222042"><ele>9.0</ele><time>2026-03-22T08:51:13.298Z</time></trkpt><trkpt lat="45.1224292" lon="11.8219416"><ele>8.0</ele><time>2026-03-22T08:51:14.299Z</time></trkpt><trkpt lat="45.1225325" lon="11.8216841"><ele>7.0</ele><time>2026-03-22T08:51:15.303Z</time></trkpt><trkpt lat="45.1226352" lon="11.8214227"><ele>7.0</ele><time>2026-03-22T08:51:16.304Z</time></trkpt><trkpt lat="45.1227386" lon="11.8211628"><ele>7.0</ele><time>2026-03-22T08:51:17.296Z</time></trkpt><trkpt lat="45.1228442" lon="11.8209026"><ele>7.0</ele><time>2026-03-22T08:51:18.3Z</time></trkpt><trkpt lat="45.122949" lon="11.8206369"><ele>7.0</ele><time>2026-03-22T08:51:19.298Z</time></trkpt><trkpt lat="45.1230549" lon="11.8203705"><ele>7.0</ele><time>2026-03-22T08:51:20.302Z</time></trkpt><trkpt lat="45.1231641" lon="11.8201048"><ele>7.0</ele><time>2026-03-22T08:51:21.299Z</time></trkpt><trkpt lat="45.1232768" lon="11.8198415"><ele>6.333333333333334</ele><time>2026-03-22T08:51:22.3Z</time></trkpt><trkpt lat="45.1233867" lon="11.8195738"><ele>5.666666666666667</ele><time>2026-03-22T08:51:23.295Z</time></trkpt><trkpt lat="45.1235002" lon="11.8193093"><ele>5.0</ele><time>2026-03-22T08:51:24.301Z</time></trkpt><trkpt lat="45.1236043" lon="11.8190478"><ele>5.0</ele><time>2026-03-22T08:51:25.298Z</time></trkpt><trkpt lat="45.123699" lon="11.8187843"><ele>5.0</ele><time>2026-03-22T08:51:26.298Z</time></trkpt><trkpt lat="45.1237929" lon="11.8185122"><ele>5.0</ele><time>2026-03-22T08:51:27.297Z</time></trkpt><trkpt lat="45.1238801" lon="11.8182299"><ele>5.0</ele><time>2026-03-22T08:51:28.301Z</time></trkpt><trkpt lat="45.1239557" lon="11.8179492"><ele>5.0</ele><time>2026-03-22T08:51:29.305Z</time></trkpt><trkpt lat="45.124024" lon="11.8176642"><ele>5.0</ele><time>2026-03-22T08:51:30.298Z</time></trkpt><trkpt lat="45.1240799" lon="11.8173739"><ele>5.0</ele><time>2026-03-22T08:51:31.299Z</time></trkpt><trkpt lat="45.1241298" lon="11.8170749"><ele>5.0</ele><time>2026-03-22T08:51:32.307Z</time></trkpt><trkpt lat="45.1241736" lon="11.8167665"><ele>5.0</ele><time>2026-03-22T08:51:33.295Z</time></trkpt><trkpt lat="45.1242052" lon="11.8164632"><ele>5.0</ele><time>2026-03-22T08:51:34.295Z</time></trkpt><trkpt lat="45.1242257" lon="11.8161597"><ele>5.0</ele><time>2026-03-22T08:51:35.296Z</time></trkpt><trkpt lat="45.1242397" lon="11.8158481"><ele>5.0</ele><time>2026-03-22T08:51:36.295Z</time></trkpt><trkpt lat="45.1242401" lon="11.8155383"><ele>5.0</ele><time>2026-03-22T08:51:37.304Z</time></trkpt><trkpt lat="45.1242411" lon="11.8152322"><ele>5.0</ele><time>2026-03-22T08:51:38.299Z</time></trkpt><trkpt lat="45.1242367" lon="11.8149266"><ele>5.0</ele><time>2026-03-22T08:51:39.295Z</time></trkpt><trkpt lat="45.1242309" lon="11.8146203"><ele>5.0</ele><time>2026-03-22T08:51:40.291Z</time></trkpt><trkpt lat="45.1242088" lon="11.8143205"><ele>5.0</ele><time>2026-03-22T08:51:41.295Z</time></trkpt><trkpt lat="45.1241629" lon="11.8140343"><ele>5.0</ele><time>2026-03-22T08:51:42.296Z</time></trkpt><trkpt lat="45.1240965" lon="11.8137444"><ele>5.0</ele><time>2026-03-22T08:51:43.293Z</time></trkpt><trkpt lat="45.1240131" lon="11.8134549"><ele>5.0</ele><time>2026-03-22T08:51:44.303Z</time></trkpt><trkpt lat="45.1239325" lon="11.8131688"><ele>5.0</ele><time>2026-03-22T08:51:45.299Z</time></trkpt><trkpt lat="45.1238553" lon="11.8128821"><ele>5.0</ele><time>2026-03-22T08:51:46.295Z</time></trkpt><trkpt lat="45.1237684" lon="11.8125923"><ele>5.0</ele><time>2026-03-22T08:51:47.294Z</time></trkpt><trkpt lat="45.1236834" lon="11.8122939"><ele>5.0</ele><time>2026-03-22T08:51:48.301Z</time></trkpt><trkpt lat="45.1236002" lon="11.8119975"><ele>5.333333333333334</ele><time>2026-03-22T08:51:49.296Z</time></trkpt><trkpt lat="45.1235211" lon="11.8117068"><ele>5.666666666666667</ele><time>2026-03-22T08:51:50.297Z</time></trkpt><trkpt lat="45.1234304" lon="11.811415"><ele>6.0</ele><time>2026-03-22T08:51:51.295Z</time></trkpt><trkpt lat="45.1233439" lon="11.8111251"><ele>6.0</ele><time>2026-03-22T08:51:52.296Z</time></trkpt><trkpt lat="45.1232616" lon="11.8108332"><ele>6.0</ele><time>2026-03-22T08:51:53.3Z</time></trkpt><trkpt lat="45.1231737" lon="11.8105407"><ele>6.0</ele><time>2026-03-22T08:51:54.299Z</time></trkpt><trkpt lat="45.123089" lon="11.8102434"><ele>5.5</ele><time>2026-03-22T08:51:55.3Z</time></trkpt><trkpt lat="45.1230017" lon="11.8099512"><ele>5.0</ele><time>2026-03-22T08:51:56.296Z</time></trkpt><trkpt lat="45.1229159" lon="11.8096541"><ele>5.0</ele><time>2026-03-22T08:51:57.294Z</time></trkpt><trkpt lat="45.1228308" lon="11.809347"><ele>5.0</ele><time>2026-03-22T08:51:58.295Z</time></trkpt><trkpt lat="45.1227392" lon="11.8090444"><ele>5.0</ele><time>2026-03-22T08:51:59.295Z</time></trkpt><trkpt lat="45.1226455" lon="11.8087402"><ele>5.0</ele><time>2026-03-22T08:52:00.3Z</time></trkpt><trkpt lat="45.1225608" lon="11.8084358"><ele>5.0</ele><time>2026-03-22T08:52:01.295Z</time></trkpt><trkpt lat="45.1224739" lon="11.8081313"><ele>5.0</ele><time>2026-03-22T08:52:02.305Z</time></trkpt><trkpt lat="45.1223859" lon="11.8078348"><ele>7.0</ele><time>2026-03-22T08:52:03.297Z</time></trkpt><trkpt lat="45.1222976" lon="11.8075335"><ele>9.0</ele><time>2026-03-22T08:52:04.295Z</time></trkpt><trkpt lat="45.1222061" lon="11.8072424"><ele>9.0</ele><time>2026-03-22T08:52:05.298Z</time></trkpt><trkpt lat="45.1221256" lon="11.8069592"><ele>9.0</ele><time>2026-03-22T08:52:06.295Z</time></trkpt><trkpt lat="45.1220464" lon="11.8066729"><ele>9.0</ele><time>2026-03-22T08:52:07.3Z</time></trkpt><trkpt lat="45.1219646" lon="11.8064033"><ele>8.666666666666666</ele><time>2026-03-22T08:52:08.294Z</time></trkpt><trkpt lat="45.1218904" lon="11.8061466"><ele>8.333333333333332</ele><time>2026-03-22T08:52:09.298Z</time></trkpt><trkpt lat="45.1218061" lon="11.8058946"><ele>8.0</ele><time>2026-03-22T08:52:10.292Z</time></trkpt><trkpt lat="45.1217096" lon="11.8056638"><ele>8.0</ele><time>2026-03-22T08:52:11.297Z</time></trkpt><trkpt lat="45.1215831" lon="11.8054684"><ele>8.0</ele><time>2026-03-22T08:52:12.297Z</time></trkpt><trkpt lat="45.1214297" lon="11.8052878"><ele>8.0</ele><time>2026-03-22T08:52:13.301Z</time></trkpt><trkpt lat="45.1212614" lon="11.8051305"><ele>7.333333333333333</ele><time>2026-03-22T08:52:14.293Z</time></trkpt><trkpt lat="45.1210869" lon="11.8049683"><ele>6.666666666666666</ele><time>2026-03-22T08:52:15.299Z</time></trkpt><trkpt lat="45.1209139" lon="11.8048157"><ele>6.0</ele><time>2026-03-22T08:52:16.296Z</time></trkpt><trkpt lat="45.1207247" lon="11.804681"><ele>6.0</ele><time>2026-03-22T08:52:17.302Z</time></trkpt><trkpt lat="45.120529" lon="11.8045656"><ele>6.0</ele><time>2026-03-22T08:52:18.297Z</time></trkpt><trkpt lat="45.1203186" lon="11.8044684"><ele>6.0</ele><time>2026-03-22T08:52:19.298Z</time></trkpt><trkpt lat="45.1201121" lon="11.8043792"><ele>6.0</ele><time>2026-03-22T08:52:20.299Z</time></trkpt><trkpt lat="45.1199072" lon="11.8042899"><ele>6.0</ele><time>2026-03-22T08:52:21.297Z</time></trkpt><trkpt lat="45.1197093" lon="11.8041906"><ele>6.0</ele><time>2026-03-22T08:52:22.293Z</time></trkpt><trkpt lat="45.1195082" lon="11.8040651"><ele>6.0</ele><time>2026-03-22T08:52:23.29Z</time></trkpt><trkpt lat="45.1193163" lon="11.8039073"><ele>6.0</ele><time>2026-03-22T08:52:24.29Z</time></trkpt><trkpt lat="45.1191367" lon="11.8037228"><ele>6.0</ele><time>2026-03-22T08:52:25.29Z</time></trkpt><trkpt lat="45.1189795" lon="11.8035238"><ele>6.0</ele><time>2026-03-22T08:52:26.291Z</time></trkpt><trkpt lat="45.1188299" lon="11.8033194"><ele>6.0</ele><time>2026-03-22T08:52:27.297Z</time></trkpt><trkpt lat="45.1186782" lon="11.803097"><ele>6.0</ele><time>2026-03-22T08:52:28.289Z</time></trkpt><trkpt lat="45.118542" lon="11.8028549"><ele>5.666666666666667</ele><time>2026-03-22T08:52:29.296Z</time></trkpt><trkpt lat="45.118419" lon="11.8026067"><ele>5.333333333333334</ele><time>2026-03-22T08:52:30.297Z</time></trkpt><trkpt lat="45.1183087" lon="11.8023409"><ele>5.0</ele><time>2026-03-22T08:52:31.295Z</time></trkpt><trkpt lat="45.1182173" lon="11.8020628"><ele>6.333333333333334</ele><time>2026-03-22T08:52:32.297Z</time></trkpt><trkpt lat="45.1181418" lon="11.8017688"><ele>7.666666666666667</ele><time>2026-03-22T08:52:33.292Z</time></trkpt><trkpt lat="45.1180945" lon="11.8014767"><ele>9.0</ele><time>2026-03-22T08:52:34.3Z</time></trkpt><trkpt lat="45.1180567" lon="11.8011911"><ele>8.333333333333334</ele><time>2026-03-22T08:52:35.296Z</time></trkpt><trkpt lat="45.1180093" lon="11.8008999"><ele>7.666666666666667</ele><time>2026-03-22T08:52:36.299Z</time></trkpt><trkpt lat="45.1179617" lon="11.8006199"><ele>7.0</ele><time>2026-03-22T08:52:37.292Z</time></trkpt><trkpt lat="45.1179051" lon="11.8003255"><ele>7.0</ele><time>2026-03-22T08:52:38.297Z</time></trkpt><trkpt lat="45.117844" lon="11.8000422"><ele>7.0</ele><time>2026-03-22T08:52:39.295Z</time></trkpt><trkpt lat="45.117789" lon="11.7997828"><ele>7.0</ele><time>2026-03-22T08:52:40.291Z</time></trkpt><trkpt lat="45.1177053" lon="11.7995473"><ele>7.0</ele><time>2026-03-22T08:52:41.292Z</time></trkpt><trkpt lat="45.1176054" lon="11.7993435"><ele>7.0</ele><time>2026-03-22T08:52:42.29Z</time></trkpt><trkpt lat="45.1174989" lon="11.799145"><ele>7.0</ele><time>2026-03-22T08:52:43.294Z</time></trkpt><trkpt lat="45.1173925" lon="11.7989675"><ele>7.0</ele><time>2026-03-22T08:52:44.291Z</time></trkpt><trkpt lat="45.1172605" lon="11.7988102"><ele>7.0</ele><time>2026-03-22T08:52:45.291Z</time></trkpt><trkpt lat="45.1171101" lon="11.7986715"><ele>7.0</ele><time>2026-03-22T08:52:46.292Z</time></trkpt><trkpt lat="45.1169564" lon="11.798541"><ele>7.333333333333334</ele><time>2026-03-22T08:52:47.291Z</time></trkpt><trkpt lat="45.1167804" lon="11.7984126"><ele>7.666666666666666</ele><time>2026-03-22T08:52:48.295Z</time></trkpt><trkpt lat="45.1165987" lon="11.7983095"><ele>8.0</ele><time>2026-03-22T08:52:49.301Z</time></trkpt><trkpt lat="45.1164107" lon="11.7982169"><ele>8.333333333333332</ele><time>2026-03-22T08:52:50.297Z</time></trkpt><trkpt lat="45.1162155" lon="11.7981418"><ele>8.666666666666666</ele><time>2026-03-22T08:52:51.3Z</time></trkpt><trkpt lat="45.1160132" lon="11.7980811"><ele>9.0</ele><time>2026-03-22T08:52:52.288Z</time></trkpt><trkpt lat="45.1158131" lon="11.7980353"><ele>9.0</ele><time>2026-03-22T08:52:53.295Z</time></trkpt><trkpt lat="45.1156243" lon="11.7980002"><ele>9.0</ele><time>2026-03-22T08:52:54.297Z</time></trkpt><trkpt lat="45.1154336" lon="11.7979905"><ele>9.0</ele><time>2026-03-22T08:52:55.298Z</time></trkpt><trkpt lat="45.1152497" lon="11.7979841"><ele>9.0</ele><time>2026-03-22T08:52:56.296Z</time></trkpt><trkpt lat="45.1150781" lon="11.7979805"><ele>9.0</ele><time>2026-03-22T08:52:57.31Z</time></trkpt><trkpt lat="45.1149117" lon="11.797974"><ele>9.0</ele><time>2026-03-22T08:52:58.295Z</time></trkpt><trkpt lat="45.1147416" lon="11.7979574"><ele>8.333333333333334</ele><time>2026-03-22T08:52:59.303Z</time></trkpt><trkpt lat="45.1145658" lon="11.7979368"><ele>7.666666666666667</ele><time>2026-03-22T08:53:00.301Z</time></trkpt><trkpt lat="45.1143971" lon="11.7979059"><ele>7.0</ele><time>2026-03-22T08:53:01.295Z</time></trkpt><trkpt lat="45.1142343" lon="11.7978514"><ele>7.666666666666667</ele><time>2026-03-22T08:53:02.3Z</time></trkpt><trkpt lat="45.1140593" lon="11.7977764"><ele>8.333333333333334</ele><time>2026-03-22T08:53:03.294Z</time></trkpt><trkpt lat="45.1138931" lon="11.7976758"><ele>9.0</ele><time>2026-03-22T08:53:04.292Z</time></trkpt><trkpt lat="45.1137243" lon="11.7975503"><ele>9.0</ele><time>2026-03-22T08:53:05.294Z</time></trkpt><trkpt lat="45.1135588" lon="11.797404"><ele>9.0</ele><time>2026-03-22T08:53:06.286Z</time></trkpt><trkpt lat="45.1133884" lon="11.797238"><ele>9.0</ele><time>2026-03-22T08:53:07.297Z</time></trkpt><trkpt lat="45.1132291" lon="11.7970553"><ele>9.0</ele><time>2026-03-22T08:53:08.29Z</time></trkpt><trkpt lat="45.11308" lon="11.7968466"><ele>9.0</ele><time>2026-03-22T08:53:09.291Z</time></trkpt><trkpt lat="45.1129323" lon="11.7966272"><ele>9.0</ele><time>2026-03-22T08:53:10.296Z</time></trkpt><trkpt lat="45.1127836" lon="11.7964046"><ele>9.0</ele><time>2026-03-22T08:53:11.297Z</time></trkpt><trkpt lat="45.1126452" lon="11.7961765"><ele>9.0</ele><time>2026-03-22T08:53:12.297Z</time></trkpt><trkpt lat="45.1124964" lon="11.795941"><ele>9.0</ele><time>2026-03-22T08:53:13.298Z</time></trkpt><trkpt lat="45.1123508" lon="11.7957084"><ele>8.666666666666666</ele><time>2026-03-22T08:53:14.304Z</time></trkpt><trkpt lat="45.1122115" lon="11.7954743"><ele>8.333333333333332</ele><time>2026-03-22T08:53:15.304Z</time></trkpt><trkpt lat="45.1120777" lon="11.7952324"><ele>8.0</ele><time>2026-03-22T08:53:16.296Z</time></trkpt><trkpt lat="45.1119549" lon="11.7950065"><ele>7.666666666666666</ele><time>2026-03-22T08:53:17.295Z</time></trkpt><trkpt lat="45.1118285" lon="11.7947924"><ele>7.333333333333334</ele><time>2026-03-22T08:53:18.295Z</time></trkpt><trkpt lat="45.1117116" lon="11.7945783"><ele>7.0</ele><time>2026-03-22T08:53:19.296Z</time></trkpt><trkpt lat="45.1115977" lon="11.7943541"><ele>6.666666666666667</ele><time>2026-03-22T08:53:20.298Z</time></trkpt><trkpt lat="45.1114805" lon="11.794128"><ele>6.333333333333334</ele><time>2026-03-22T08:53:21.297Z</time></trkpt><trkpt lat="45.1113557" lon="11.7938935"><ele>6.0</ele><time>2026-03-22T08:53:22.303Z</time></trkpt><trkpt lat="45.1112355" lon="11.7936562"><ele>5.666666666666667</ele><time>2026-03-22T08:53:23.298Z</time></trkpt><trkpt lat="45.1111114" lon="11.7934193"><ele>5.333333333333334</ele><time>2026-03-22T08:53:24.297Z</time></trkpt><trkpt lat="45.1109852" lon="11.7931801"><ele>5.0</ele><time>2026-03-22T08:53:25.296Z</time></trkpt><trkpt lat="45.1108663" lon="11.792932"><ele>5.333333333333334</ele><time>2026-03-22T08:53:26.302Z</time></trkpt><trkpt lat="45.110739" lon="11.7926841"><ele>5.666666666666667</ele><time>2026-03-22T08:53:27.295Z</time></trkpt><trkpt lat="45.1106117" lon="11.7924372"><ele>6.0</ele><time>2026-03-22T08:53:28.298Z</time></trkpt><trkpt lat="45.1104906" lon="11.7922"><ele>6.0</ele><time>2026-03-22T08:53:29.299Z</time></trkpt><trkpt lat="45.1103643" lon="11.7919721"><ele>6.0</ele><time>2026-03-22T08:53:30.3Z</time></trkpt><trkpt lat="45.1102518" lon="11.7917497"><ele>6.0</ele><time>2026-03-22T08:53:31.3Z</time></trkpt><trkpt lat="45.1101407" lon="11.791537"><ele>6.0</ele><time>2026-03-22T08:53:32.313Z</time></trkpt><trkpt lat="45.1100383" lon="11.7913152"><ele>6.0</ele><time>2026-03-22T08:53:33.302Z</time></trkpt><trkpt lat="45.109933" lon="11.7910877"><ele>6.0</ele><time>2026-03-22T08:53:34.298Z</time></trkpt><trkpt lat="45.1098377" lon="11.7908632"><ele>6.0</ele><time>2026-03-22T08:53:35.299Z</time></trkpt><trkpt lat="45.1097402" lon="11.7906231"><ele>6.0</ele><time>2026-03-22T08:53:36.303Z</time></trkpt><trkpt lat="45.1096477" lon="11.7903769"><ele>6.0</ele><time>2026-03-22T08:53:37.299Z</time></trkpt><trkpt lat="45.1095527" lon="11.7901287"><ele>7.0</ele><time>2026-03-22T08:53:38.305Z</time></trkpt><trkpt lat="45.109461" lon="11.7898741"><ele>8.0</ele><time>2026-03-22T08:53:39.302Z</time></trkpt><trkpt lat="45.1093694" lon="11.7896167"><ele>9.0</ele><time>2026-03-22T08:53:40.306Z</time></trkpt><trkpt lat="45.1092826" lon="11.7893487"><ele>9.666666666666666</ele><time>2026-03-22T08:53:41.303Z</time></trkpt><trkpt lat="45.109209" lon="11.7890647"><ele>10.333333333333332</ele><time>2026-03-22T08:53:42.3Z</time></trkpt><trkpt lat="45.1091397" lon="11.7887757"><ele>11.0</ele><time>2026-03-22T08:53:43.3Z</time></trkpt><trkpt lat="45.1090767" lon="11.78848"><ele>10.333333333333332</ele><time>2026-03-22T08:53:44.303Z</time></trkpt><trkpt lat="45.1090172" lon="11.7881842"><ele>9.666666666666666</ele><time>2026-03-22T08:53:45.314Z</time></trkpt><trkpt lat="45.1089616" lon="11.7878868"><ele>9.0</ele><time>2026-03-22T08:53:46.304Z</time></trkpt><trkpt lat="45.1089035" lon="11.7876014"><ele>8.333333333333334</ele><time>2026-03-22T08:53:47.305Z</time></trkpt><trkpt lat="45.1088425" lon="11.7873335"><ele>7.666666666666667</ele><time>2026-03-22T08:53:48.303Z</time></trkpt><trkpt lat="45.1087719" lon="11.7870822"><ele>7.0</ele><time>2026-03-22T08:53:49.302Z</time></trkpt><trkpt lat="45.1086825" lon="11.7868331"><ele>6.666666666666667</ele><time>2026-03-22T08:53:50.299Z</time></trkpt><trkpt lat="45.1085819" lon="11.7865868"><ele>6.333333333333334</ele><time>2026-03-22T08:53:51.301Z</time></trkpt><trkpt lat="45.1084611" lon="11.7863479"><ele>6.0</ele><time>2026-03-22T08:53:52.301Z</time></trkpt><trkpt lat="45.1083313" lon="11.7861336"><ele>5.333333333333333</ele><time>2026-03-22T08:53:53.308Z</time></trkpt><trkpt lat="45.1081899" lon="11.7859539"><ele>4.666666666666666</ele><time>2026-03-22T08:53:54.308Z</time></trkpt><trkpt lat="45.108028" lon="11.7857918"><ele>4.0</ele><time>2026-03-22T08:53:55.304Z</time></trkpt><trkpt lat="45.1078751" lon="11.7856528"><ele>4.0</ele><time>2026-03-22T08:53:56.295Z</time></trkpt><trkpt lat="45.1077274" lon="11.7855244"><ele>4.0</ele><time>2026-03-22T08:53:57.295Z</time></trkpt><trkpt lat="45.1075872" lon="11.7854083"><ele>4.0</ele><time>2026-03-22T08:53:58.295Z</time></trkpt><trkpt lat="45.1074536" lon="11.7852933"><ele>5.0</ele><time>2026-03-22T08:53:59.305Z</time></trkpt><trkpt lat="45.1073264" lon="11.7851894"><ele>6.0</ele><time>2026-03-22T08:54:00.299Z</time></trkpt><trkpt lat="45.1072102" lon="11.7850905"><ele>7.0</ele><time>2026-03-22T08:54:01.3Z</time></trkpt><trkpt lat="45.1070949" lon="11.7849898"><ele>8.0</ele><time>2026-03-22T08:54:02.309Z</time></trkpt><trkpt lat="45.1069844" lon="11.7848968"><ele>8.25</ele><time>2026-03-22T08:54:03.295Z</time></trkpt><trkpt lat="45.1068776" lon="11.7847991"><ele>8.5</ele><time>2026-03-22T08:54:04.302Z</time></trkpt><trkpt lat="45.1067761" lon="11.7846954"><ele>8.75</ele><time>2026-03-22T08:54:05.298Z</time></trkpt><trkpt lat="45.1066895" lon="11.7845971"><ele>9.0</ele><time>2026-03-22T08:54:06.314Z</time></trkpt><trkpt lat="45.1066114" lon="11.7844869"><ele>8.833333333333334</ele><time>2026-03-22T08:54:07.297Z</time></trkpt><trkpt lat="45.106526" lon="11.7843828"><ele>8.666666666666666</ele><time>2026-03-22T08:54:08.297Z</time></trkpt><trkpt lat="45.1064498" lon="11.7842754"><ele>8.5</ele><time>2026-03-22T08:54:09.296Z</time></trkpt><trkpt lat="45.1063918" lon="11.7841899"><ele>8.333333333333332</ele><time>2026-03-22T08:54:10.294Z</time></trkpt><trkpt lat="45.1063405" lon="11.7841182"><ele>8.166666666666666</ele><time>2026-03-22T08:54:11.293Z</time></trkpt><trkpt lat="45.1062925" lon="11.7840541"><ele>8.0</ele><time>2026-03-22T08:54:12.301Z</time></trkpt><trkpt lat="45.1062115" lon="11.7839557"><ele>7.999999999999999</ele><time>2026-03-22T08:54:14.302Z</time></trkpt><trkpt lat="45.1061614" lon="11.7838923"><ele>8.0</ele><time>2026-03-22T08:54:16.296Z</time></trkpt><trkpt lat="45.1061118" lon="11.7838192"><ele>8.0</ele><time>2026-03-22T08:54:20.301Z</time></trkpt><trkpt lat="45.1060706" lon="11.7837405"><ele>8.0</ele><time>2026-03-22T08:54:33.294Z</time></trkpt><trkpt lat="45.1060101" lon="11.7836266"><ele>7.999999999999999</ele><time>2026-03-22T08:54:36.291Z</time></trkpt><trkpt lat="45.1059253" lon="11.783481"><ele>8.0</ele><time>2026-03-22T08:54:38.287Z</time></trkpt><trkpt lat="45.1058658" lon="11.7833759"><ele>8.0</ele><time>2026-03-22T08:54:39.296Z</time></trkpt><trkpt lat="45.105785" lon="11.7832384"><ele>8.0</ele><time>2026-03-22T08:54:40.297Z</time></trkpt><trkpt lat="45.1056937" lon="11.7830759"><ele>8.0</ele><time>2026-03-22T08:54:41.289Z</time></trkpt><trkpt lat="45.1056106" lon="11.7828995"><ele>8.0</ele><time>2026-03-22T08:54:42.288Z</time></trkpt><trkpt lat="45.1055277" lon="11.7827186"><ele>8.333333333333332</ele><time>2026-03-22T08:54:43.288Z</time></trkpt><trkpt lat="45.1054311" lon="11.7825261"><ele>8.666666666666666</ele><time>2026-03-22T08:54:44.297Z</time></trkpt><trkpt lat="45.105338" lon="11.7823351"><ele>9.0</ele><time>2026-03-22T08:54:45.298Z</time></trkpt><trkpt lat="45.1052376" lon="11.7821425"><ele>9.0</ele><time>2026-03-22T08:54:46.294Z</time></trkpt><trkpt lat="45.1051324" lon="11.7819353"><ele>9.0</ele><time>2026-03-22T08:54:47.295Z</time></trkpt><trkpt lat="45.1050271" lon="11.7817179"><ele>9.0</ele><time>2026-03-22T08:54:48.293Z</time></trkpt><trkpt lat="45.104924" lon="11.7815096"><ele>8.666666666666666</ele><time>2026-03-22T08:54:49.305Z</time></trkpt><trkpt lat="45.1048176" lon="11.7813003"><ele>8.333333333333332</ele><time>2026-03-22T08:54:50.295Z</time></trkpt><trkpt lat="45.1047205" lon="11.7811048"><ele>8.0</ele><time>2026-03-22T08:54:51.295Z</time></trkpt><trkpt lat="45.1046244" lon="11.7809225"><ele>7.333333333333333</ele><time>2026-03-22T08:54:52.294Z</time></trkpt><trkpt lat="45.1045286" lon="11.7807289"><ele>6.666666666666666</ele><time>2026-03-22T08:54:53.297Z</time></trkpt><trkpt lat="45.1044236" lon="11.7805241"><ele>6.0</ele><time>2026-03-22T08:54:54.303Z</time></trkpt><trkpt lat="45.1043098" lon="11.7803071"><ele>6.333333333333334</ele><time>2026-03-22T08:54:55.307Z</time></trkpt><trkpt lat="45.104181" lon="11.780096"><ele>6.666666666666667</ele><time>2026-03-22T08:54:56.3Z</time></trkpt><trkpt lat="45.1040409" lon="11.7798864"><ele>7.0</ele><time>2026-03-22T08:54:57.299Z</time></trkpt><trkpt lat="45.1038914" lon="11.7796852"><ele>6.333333333333334</ele><time>2026-03-22T08:54:58.292Z</time></trkpt><trkpt lat="45.1037457" lon="11.7794914"><ele>5.666666666666667</ele><time>2026-03-22T08:54:59.3Z</time></trkpt><trkpt lat="45.1035977" lon="11.7793044"><ele>5.0</ele><time>2026-03-22T08:55:00.299Z</time></trkpt><trkpt lat="45.1034506" lon="11.7791107"><ele>4.666666666666667</ele><time>2026-03-22T08:55:01.299Z</time></trkpt><trkpt lat="45.1033021" lon="11.77894"><ele>4.333333333333333</ele><time>2026-03-22T08:55:02.303Z</time></trkpt><trkpt lat="45.1031365" lon="11.7787716"><ele>4.0</ele><time>2026-03-22T08:55:03.295Z</time></trkpt><trkpt lat="45.1029599" lon="11.7786033"><ele>4.666666666666666</ele><time>2026-03-22T08:55:04.297Z</time></trkpt><trkpt lat="45.1027884" lon="11.7784443"><ele>5.333333333333333</ele><time>2026-03-22T08:55:05.298Z</time></trkpt><trkpt lat="45.1026192" lon="11.7782865"><ele>6.0</ele><time>2026-03-22T08:55:06.301Z</time></trkpt><trkpt lat="45.1024528" lon="11.7781319"><ele>6.0</ele><time>2026-03-22T08:55:07.299Z</time></trkpt><trkpt lat="45.102273" lon="11.7779765"><ele>6.0</ele><time>2026-03-22T08:55:08.296Z</time></trkpt><trkpt lat="45.1020933" lon="11.7778143"><ele>6.0</ele><time>2026-03-22T08:55:09.302Z</time></trkpt><trkpt lat="45.1019181" lon="11.7776546"><ele>6.333333333333334</ele><time>2026-03-22T08:55:10.294Z</time></trkpt><trkpt lat="45.1017433" lon="11.7775017"><ele>6.666666666666667</ele><time>2026-03-22T08:55:11.299Z</time></trkpt><trkpt lat="45.1015665" lon="11.7773413"><ele>7.0</ele><time>2026-03-22T08:55:12.296Z</time></trkpt><trkpt lat="45.1013842" lon="11.7771866"><ele>7.0</ele><time>2026-03-22T08:55:13.302Z</time></trkpt><trkpt lat="45.1012078" lon="11.7770272"><ele>7.0</ele><time>2026-03-22T08:55:14.298Z</time></trkpt><trkpt lat="45.1010355" lon="11.7768708"><ele>7.0</ele><time>2026-03-22T08:55:15.302Z</time></trkpt><trkpt lat="45.1008718" lon="11.7767008"><ele>7.666666666666667</ele><time>2026-03-22T08:55:16.299Z</time></trkpt><trkpt lat="45.1007119" lon="11.7765272"><ele>8.333333333333334</ele><time>2026-03-22T08:55:17.291Z</time></trkpt><trkpt lat="45.100561" lon="11.7763363"><ele>9.0</ele><time>2026-03-22T08:55:18.301Z</time></trkpt><trkpt lat="45.100444" lon="11.7761224"><ele>8.0</ele><time>2026-03-22T08:55:19.298Z</time></trkpt><trkpt lat="45.1003409" lon="11.775876"><ele>7.0</ele><time>2026-03-22T08:55:20.299Z</time></trkpt><trkpt lat="45.1002418" lon="11.7756298"><ele>6.0</ele><time>2026-03-22T08:55:21.296Z</time></trkpt><trkpt lat="45.1001485" lon="11.7753884"><ele>6.0</ele><time>2026-03-22T08:55:22.295Z</time></trkpt><trkpt lat="45.1000666" lon="11.7751499"><ele>6.0</ele><time>2026-03-22T08:55:23.298Z</time></trkpt><trkpt lat="45.099989" lon="11.7749158"><ele>6.0</ele><time>2026-03-22T08:55:24.302Z</time></trkpt><trkpt lat="45.0999175" lon="11.774699"><ele>6.0</ele><time>2026-03-22T08:55:25.306Z</time></trkpt><trkpt lat="45.0998506" lon="11.7745002"><ele>6.0</ele><time>2026-03-22T08:55:26.298Z</time></trkpt><trkpt lat="45.0997861" lon="11.7743125"><ele>6.0</ele><time>2026-03-22T08:55:27.294Z</time></trkpt><trkpt lat="45.0997234" lon="11.7741593"><ele>6.0</ele><time>2026-03-22T08:55:28.294Z</time></trkpt><trkpt lat="45.0996689" lon="11.7740191"><ele>6.0</ele><time>2026-03-22T08:55:29.296Z</time></trkpt><trkpt lat="45.0996173" lon="11.7738868"><ele>6.0</ele><time>2026-03-22T08:55:30.292Z</time></trkpt><trkpt lat="45.099571" lon="11.7737754"><ele>6.0</ele><time>2026-03-22T08:55:31.286Z</time></trkpt><trkpt lat="45.0995306" lon="11.7736598"><ele>6.0</ele><time>2026-03-22T08:55:32.302Z</time></trkpt><trkpt lat="45.0994801" lon="11.7735409"><ele>6.0</ele><time>2026-03-22T08:55:33.284Z</time></trkpt><trkpt lat="45.0994252" lon="11.773393"><ele>6.0</ele><time>2026-03-22T08:55:34.277Z</time></trkpt><trkpt lat="45.099379" lon="11.7732261"><ele>6.0</ele><time>2026-03-22T08:55:35.286Z</time></trkpt><trkpt lat="45.0993289" lon="11.7730456"><ele>6.0</ele><time>2026-03-22T08:55:36.289Z</time></trkpt><trkpt lat="45.0992726" lon="11.7728378"><ele>6.0</ele><time>2026-03-22T08:55:37.29Z</time></trkpt><trkpt lat="45.0992074" lon="11.7725932"><ele>5.333333333333333</ele><time>2026-03-22T08:55:38.288Z</time></trkpt><trkpt lat="45.0991332" lon="11.7723377"><ele>4.666666666666666</ele><time>2026-03-22T08:55:39.3Z</time></trkpt><trkpt lat="45.0990569" lon="11.7720856"><ele>4.0</ele><time>2026-03-22T08:55:40.296Z</time></trkpt><trkpt lat="45.0989784" lon="11.7718493"><ele>5.666666666666666</ele><time>2026-03-22T08:55:41.292Z</time></trkpt><trkpt lat="45.0988957" lon="11.7716401"><ele>7.333333333333333</ele><time>2026-03-22T08:55:42.295Z</time></trkpt><trkpt lat="45.0988225" lon="11.771435"><ele>9.0</ele><time>2026-03-22T08:55:43.295Z</time></trkpt><trkpt lat="45.0987501" lon="11.7712105"><ele>8.666666666666666</ele><time>2026-03-22T08:55:44.295Z</time></trkpt><trkpt lat="45.0986864" lon="11.7709742"><ele>8.333333333333332</ele><time>2026-03-22T08:55:45.295Z</time></trkpt><trkpt lat="45.0986282" lon="11.7707186"><ele>8.0</ele><time>2026-03-22T08:55:46.292Z</time></trkpt><trkpt lat="45.0985744" lon="11.7704374"><ele>7.333333333333333</ele><time>2026-03-22T08:55:47.298Z</time></trkpt><trkpt lat="45.0985213" lon="11.770146"><ele>6.666666666666666</ele><time>2026-03-22T08:55:48.293Z</time></trkpt><trkpt lat="45.0984667" lon="11.7698428"><ele>6.0</ele><time>2026-03-22T08:55:49.303Z</time></trkpt><trkpt lat="45.0983987" lon="11.7695263"><ele>5.5</ele><time>2026-03-22T08:55:50.299Z</time></trkpt><trkpt lat="45.0983266" lon="11.7691991"><ele>5.0</ele><time>2026-03-22T08:55:51.299Z</time></trkpt><trkpt lat="45.0982604" lon="11.768872"><ele>5.0</ele><time>2026-03-22T08:55:52.299Z</time></trkpt><trkpt lat="45.0981869" lon="11.7685446"><ele>5.0</ele><time>2026-03-22T08:55:53.3Z</time></trkpt><trkpt lat="45.0981239" lon="11.7682161"><ele>5.0</ele><time>2026-03-22T08:55:54.305Z</time></trkpt><trkpt lat="45.0980567" lon="11.7678883"><ele>5.0</ele><time>2026-03-22T08:55:55.299Z</time></trkpt><trkpt lat="45.0979877" lon="11.7675529"><ele>5.5</ele><time>2026-03-22T08:55:56.307Z</time></trkpt><trkpt lat="45.0979108" lon="11.7672145"><ele>6.0</ele><time>2026-03-22T08:55:57.302Z</time></trkpt><trkpt lat="45.0978349" lon="11.7668785"><ele>5.0</ele><time>2026-03-22T08:55:58.304Z</time></trkpt><trkpt lat="45.0977555" lon="11.7665428"><ele>4.0</ele><time>2026-03-22T08:55:59.301Z</time></trkpt><trkpt lat="45.0976737" lon="11.7662016"><ele>4.5</ele><time>2026-03-22T08:56:00.307Z</time></trkpt><trkpt lat="45.0975918" lon="11.7658629"><ele>5.0</ele><time>2026-03-22T08:56:01.305Z</time></trkpt><trkpt lat="45.0975139" lon="11.7655309"><ele>5.0</ele><time>2026-03-22T08:56:02.312Z</time></trkpt><trkpt lat="45.097437" lon="11.765201"><ele>5.0</ele><time>2026-03-22T08:56:03.304Z</time></trkpt><trkpt lat="45.097361" lon="11.7648759"><ele>6.5</ele><time>2026-03-22T08:56:04.3Z</time></trkpt><trkpt lat="45.0972868" lon="11.7645578"><ele>8.0</ele><time>2026-03-22T08:56:05.302Z</time></trkpt><trkpt lat="45.0972131" lon="11.7642383"><ele>8.5</ele><time>2026-03-22T08:56:06.301Z</time></trkpt><trkpt lat="45.0971398" lon="11.763917"><ele>9.0</ele><time>2026-03-22T08:56:07.304Z</time></trkpt><trkpt lat="45.0970693" lon="11.7635977"><ele>9.0</ele><time>2026-03-22T08:56:08.303Z</time></trkpt><trkpt lat="45.0969965" lon="11.7632817"><ele>9.0</ele><time>2026-03-22T08:56:09.304Z</time></trkpt><trkpt lat="45.0969262" lon="11.7629588"><ele>8.0</ele><time>2026-03-22T08:56:10.299Z</time></trkpt><trkpt lat="45.0968612" lon="11.7626308"><ele>7.0</ele><time>2026-03-22T08:56:11.303Z</time></trkpt><trkpt lat="45.0967978" lon="11.7623066"><ele>7.0</ele><time>2026-03-22T08:56:12.3Z</time></trkpt><trkpt lat="45.0967349" lon="11.7619846"><ele>7.0</ele><time>2026-03-22T08:56:13.306Z</time></trkpt><trkpt lat="45.0966724" lon="11.7616566"><ele>6.0</ele><time>2026-03-22T08:56:14.3Z</time></trkpt><trkpt lat="45.096614" lon="11.7613347"><ele>5.0</ele><time>2026-03-22T08:56:15.303Z</time></trkpt><trkpt lat="45.0965587" lon="11.7610126"><ele>7.0</ele><time>2026-03-22T08:56:16.303Z</time></trkpt><trkpt lat="45.0965072" lon="11.7606901"><ele>9.0</ele><time>2026-03-22T08:56:17.305Z</time></trkpt><trkpt lat="45.0964582" lon="11.7603745"><ele>9.666666666666666</ele><time>2026-03-22T08:56:18.32Z</time></trkpt><trkpt lat="45.0964113" lon="11.760063"><ele>10.333333333333332</ele><time>2026-03-22T08:56:19.307Z</time></trkpt><trkpt lat="45.096372" lon="11.7597609"><ele>11.0</ele><time>2026-03-22T08:56:20.305Z</time></trkpt><trkpt lat="45.0963394" lon="11.7594586"><ele>9.333333333333332</ele><time>2026-03-22T08:56:21.299Z</time></trkpt><trkpt lat="45.0963162" lon="11.7591456"><ele>7.666666666666666</ele><time>2026-03-22T08:56:22.309Z</time></trkpt><trkpt lat="45.0963011" lon="11.7588371"><ele>6.0</ele><time>2026-03-22T08:56:23.303Z</time></trkpt><trkpt lat="45.0962881" lon="11.758525"><ele>6.0</ele><time>2026-03-22T08:56:24.303Z</time></trkpt><trkpt lat="45.0962843" lon="11.7582126"><ele>6.0</ele><time>2026-03-22T08:56:25.296Z</time></trkpt><trkpt lat="45.0962861" lon="11.7578957"><ele>6.0</ele><time>2026-03-22T08:56:26.303Z</time></trkpt><trkpt lat="45.0962855" lon="11.7575741"><ele>8.5</ele><time>2026-03-22T08:56:27.298Z</time></trkpt><trkpt lat="45.0962908" lon="11.7572544"><ele>11.0</ele><time>2026-03-22T08:56:28.305Z</time></trkpt><trkpt lat="45.0963037" lon="11.7569379"><ele>10.333333333333332</ele><time>2026-03-22T08:56:29.3Z</time></trkpt><trkpt lat="45.0963276" lon="11.7566348"><ele>9.666666666666666</ele><time>2026-03-22T08:56:30.294Z</time></trkpt><trkpt lat="45.0963616" lon="11.7563438"><ele>9.0</ele><time>2026-03-22T08:56:31.299Z</time></trkpt><trkpt lat="45.0964148" lon="11.7560583"><ele>9.333333333333334</ele><time>2026-03-22T08:56:32.316Z</time></trkpt><trkpt lat="45.0964762" lon="11.7557884"><ele>9.666666666666668</ele><time>2026-03-22T08:56:33.299Z</time></trkpt><trkpt lat="45.0965416" lon="11.7555209"><ele>10.0</ele><time>2026-03-22T08:56:34.298Z</time></trkpt><trkpt lat="45.0966124" lon="11.7552723"><ele>8.333333333333334</ele><time>2026-03-22T08:56:35.293Z</time></trkpt><trkpt lat="45.0966798" lon="11.7550296"><ele>6.666666666666667</ele><time>2026-03-22T08:56:36.301Z</time></trkpt><trkpt lat="45.0967419" lon="11.7547938"><ele>5.0</ele><time>2026-03-22T08:56:37.296Z</time></trkpt><trkpt lat="45.0967941" lon="11.7545752"><ele>5.0</ele><time>2026-03-22T08:56:38.307Z</time></trkpt><trkpt lat="45.0968532" lon="11.7543812"><ele>5.0</ele><time>2026-03-22T08:56:39.304Z</time></trkpt><trkpt lat="45.096911" lon="11.7542012"><ele>5.0</ele><time>2026-03-22T08:56:40.319Z</time></trkpt><trkpt lat="45.0969653" lon="11.7540267"><ele>5.0</ele><time>2026-03-22T08:56:41.302Z</time></trkpt><trkpt lat="45.0970233" lon="11.7538622"><ele>5.333333333333334</ele><time>2026-03-22T08:56:42.306Z</time></trkpt><trkpt lat="45.0970927" lon="11.7536924"><ele>5.666666666666667</ele><time>2026-03-22T08:56:43.302Z</time></trkpt><trkpt lat="45.0971825" lon="11.7535196"><ele>6.0</ele><time>2026-03-22T08:56:44.302Z</time></trkpt><trkpt lat="45.0972869" lon="11.7533476"><ele>6.333333333333334</ele><time>2026-03-22T08:56:45.303Z</time></trkpt><trkpt lat="45.0974002" lon="11.7531651"><ele>6.666666666666667</ele><time>2026-03-22T08:56:46.302Z</time></trkpt><trkpt lat="45.0975225" lon="11.7529639"><ele>7.0</ele><time>2026-03-22T08:56:47.301Z</time></trkpt><trkpt lat="45.0976393" lon="11.7527405"><ele>6.666666666666667</ele><time>2026-03-22T08:56:48.301Z</time></trkpt><trkpt lat="45.0977359" lon="11.7524962"><ele>6.333333333333334</ele><time>2026-03-22T08:56:49.299Z</time></trkpt><trkpt lat="45.0978024" lon="11.752223"><ele>6.0</ele><time>2026-03-22T08:56:50.298Z</time></trkpt><trkpt lat="45.0978646" lon="11.7519467"><ele>5.666666666666667</ele><time>2026-03-22T08:56:51.305Z</time></trkpt><trkpt lat="45.0979347" lon="11.7516596"><ele>5.333333333333334</ele><time>2026-03-22T08:56:52.295Z</time></trkpt><trkpt lat="45.097997" lon="11.7513667"><ele>5.0</ele><time>2026-03-22T08:56:53.301Z</time></trkpt><trkpt lat="45.0980291" lon="11.7510879"><ele>5.333333333333334</ele><time>2026-03-22T08:56:54.296Z</time></trkpt><trkpt lat="45.0980355" lon="11.7508371"><ele>5.666666666666667</ele><time>2026-03-22T08:56:55.3Z</time></trkpt><trkpt lat="45.0980268" lon="11.7505754"><ele>6.0</ele><time>2026-03-22T08:56:56.308Z</time></trkpt><trkpt lat="45.098008" lon="11.7503007"><ele>7.0</ele><time>2026-03-22T08:56:57.31Z</time></trkpt><trkpt lat="45.0979946" lon="11.7500197"><ele>8.0</ele><time>2026-03-22T08:56:58.318Z</time></trkpt><trkpt lat="45.0979755" lon="11.7497378"><ele>9.0</ele><time>2026-03-22T08:56:59.33Z</time></trkpt><trkpt lat="45.0979822" lon="11.749457"><ele>9.0</ele><time>2026-03-22T08:57:00.313Z</time></trkpt><trkpt lat="45.0980028" lon="11.7491705"><ele>9.0</ele><time>2026-03-22T08:57:01.312Z</time></trkpt><trkpt lat="45.0980284" lon="11.7488849"><ele>9.0</ele><time>2026-03-22T08:57:02.325Z</time></trkpt><trkpt lat="45.0980481" lon="11.7485915"><ele>9.0</ele><time>2026-03-22T08:57:03.319Z</time></trkpt><trkpt lat="45.0980672" lon="11.748291"><ele>9.0</ele><time>2026-03-22T08:57:04.313Z</time></trkpt><trkpt lat="45.0980747" lon="11.7479949"><ele>9.0</ele><time>2026-03-22T08:57:05.313Z</time></trkpt><trkpt lat="45.0980609" lon="11.747695"><ele>8.666666666666666</ele><time>2026-03-22T08:57:06.332Z</time></trkpt><trkpt lat="45.0980309" lon="11.7473868"><ele>8.333333333333332</ele><time>2026-03-22T08:57:07.307Z</time></trkpt><trkpt lat="45.0979871" lon="11.7470723"><ele>8.0</ele><time>2026-03-22T08:57:08.309Z</time></trkpt><trkpt lat="45.0979358" lon="11.746752"><ele>7.5</ele><time>2026-03-22T08:57:09.311Z</time></trkpt><trkpt lat="45.0978881" lon="11.746424"><ele>7.0</ele><time>2026-03-22T08:57:10.316Z</time></trkpt><trkpt lat="45.0978372" lon="11.7460881"><ele>7.5</ele><time>2026-03-22T08:57:11.311Z</time></trkpt><trkpt lat="45.0977863" lon="11.7457438"><ele>8.0</ele><time>2026-03-22T08:57:12.312Z</time></trkpt><trkpt lat="45.0977418" lon="11.7454027"><ele>7.0</ele><time>2026-03-22T08:57:13.31Z</time></trkpt><trkpt lat="45.0976991" lon="11.7450645"><ele>6.0</ele><time>2026-03-22T08:57:14.314Z</time></trkpt><trkpt lat="45.0976572" lon="11.7447291"><ele>6.0</ele><time>2026-03-22T08:57:15.317Z</time></trkpt><trkpt lat="45.097612" lon="11.744387"><ele>6.0</ele><time>2026-03-22T08:57:16.316Z</time></trkpt><trkpt lat="45.0975649" lon="11.7440494"><ele>5.5</ele><time>2026-03-22T08:57:17.324Z</time></trkpt><trkpt lat="45.0975213" lon="11.7437192"><ele>5.0</ele><time>2026-03-22T08:57:18.313Z</time></trkpt><trkpt lat="45.0974811" lon="11.7434019"><ele>5.0</ele><time>2026-03-22T08:57:19.315Z</time></trkpt><trkpt lat="45.097449" lon="11.743097"><ele>5.0</ele><time>2026-03-22T08:57:20.306Z</time></trkpt><trkpt lat="45.0974342" lon="11.7428085"><ele>5.0</ele><time>2026-03-22T08:57:21.309Z</time></trkpt><trkpt lat="45.0974313" lon="11.7425102"><ele>5.0</ele><time>2026-03-22T08:57:22.314Z</time></trkpt><trkpt lat="45.0974496" lon="11.742218"><ele>5.0</ele><time>2026-03-22T08:57:23.309Z</time></trkpt><trkpt lat="45.0974905" lon="11.7419178"><ele>5.0</ele><time>2026-03-22T08:57:24.316Z</time></trkpt><trkpt lat="45.0975439" lon="11.7416084"><ele>5.333333333333334</ele><time>2026-03-22T08:57:25.31Z</time></trkpt><trkpt lat="45.0976241" lon="11.7413176"><ele>5.666666666666667</ele><time>2026-03-22T08:57:26.312Z</time></trkpt><trkpt lat="45.0977004" lon="11.741022"><ele>6.0</ele><time>2026-03-22T08:57:27.308Z</time></trkpt><trkpt lat="45.0977778" lon="11.7407228"><ele>7.5</ele><time>2026-03-22T08:57:28.313Z</time></trkpt><trkpt lat="45.0978589" lon="11.7404205"><ele>9.0</ele><time>2026-03-22T08:57:29.315Z</time></trkpt><trkpt lat="45.0979408" lon="11.7401171"><ele>9.0</ele><time>2026-03-22T08:57:30.318Z</time></trkpt><trkpt lat="45.0980206" lon="11.7398158"><ele>9.0</ele><time>2026-03-22T08:57:31.312Z</time></trkpt><trkpt lat="45.0980854" lon="11.7395175"><ele>9.0</ele><time>2026-03-22T08:57:32.309Z</time></trkpt><trkpt lat="45.0981634" lon="11.7392145"><ele>9.333333333333334</ele><time>2026-03-22T08:57:33.313Z</time></trkpt><trkpt lat="45.0982295" lon="11.7389098"><ele>9.666666666666668</ele><time>2026-03-22T08:57:34.314Z</time></trkpt><trkpt lat="45.0982905" lon="11.7386049"><ele>10.0</ele><time>2026-03-22T08:57:35.317Z</time></trkpt><trkpt lat="45.0983511" lon="11.7383149"><ele>8.666666666666668</ele><time>2026-03-22T08:57:36.308Z</time></trkpt><trkpt lat="45.0984" lon="11.7380393"><ele>7.333333333333334</ele><time>2026-03-22T08:57:37.306Z</time></trkpt><trkpt lat="45.0984377" lon="11.7377734"><ele>6.0</ele><time>2026-03-22T08:57:38.306Z</time></trkpt><trkpt lat="45.0984751" lon="11.7374962"><ele>5.666666666666667</ele><time>2026-03-22T08:57:39.317Z</time></trkpt><trkpt lat="45.0985058" lon="11.7372239"><ele>5.333333333333334</ele><time>2026-03-22T08:57:40.305Z</time></trkpt><trkpt lat="45.0985468" lon="11.7369474"><ele>5.0</ele><time>2026-03-22T08:57:41.31Z</time></trkpt><trkpt lat="45.0986004" lon="11.7366654"><ele>5.0</ele><time>2026-03-22T08:57:42.304Z</time></trkpt><trkpt lat="45.0986743" lon="11.7363889"><ele>5.0</ele><time>2026-03-22T08:57:43.304Z</time></trkpt><trkpt lat="45.0987692" lon="11.7361178"><ele>5.0</ele><time>2026-03-22T08:57:44.304Z</time></trkpt><trkpt lat="45.0988628" lon="11.7358467"><ele>5.333333333333334</ele><time>2026-03-22T08:57:45.307Z</time></trkpt><trkpt lat="45.0989584" lon="11.735581"><ele>5.666666666666667</ele><time>2026-03-22T08:57:46.313Z</time></trkpt><trkpt lat="45.0990551" lon="11.7353126"><ele>6.0</ele><time>2026-03-22T08:57:47.309Z</time></trkpt><trkpt lat="45.0991484" lon="11.7350379"><ele>6.0</ele><time>2026-03-22T08:57:48.311Z</time></trkpt><trkpt lat="45.099237" lon="11.7347659"><ele>6.0</ele><time>2026-03-22T08:57:49.309Z</time></trkpt><trkpt lat="45.0993175" lon="11.7344876"><ele>6.0</ele><time>2026-03-22T08:57:50.299Z</time></trkpt><trkpt lat="45.0993836" lon="11.734191"><ele>6.5</ele><time>2026-03-22T08:57:51.305Z</time></trkpt><trkpt lat="45.0994459" lon="11.7338816"><ele>7.0</ele><time>2026-03-22T08:57:52.303Z</time></trkpt><trkpt lat="45.099495" lon="11.7335696"><ele>7.0</ele><time>2026-03-22T08:57:53.321Z</time></trkpt><trkpt lat="45.0995341" lon="11.7332539"><ele>7.0</ele><time>2026-03-22T08:57:54.312Z</time></trkpt><trkpt lat="45.0995548" lon="11.7329282"><ele>7.0</ele><time>2026-03-22T08:57:55.308Z</time></trkpt><trkpt lat="45.0995652" lon="11.732611"><ele>7.0</ele><time>2026-03-22T08:57:56.309Z</time></trkpt><trkpt lat="45.0995532" lon="11.7322839"><ele>7.0</ele><time>2026-03-22T08:57:57.311Z</time></trkpt><trkpt lat="45.0995389" lon="11.7319558"><ele>7.0</ele><time>2026-03-22T08:57:58.307Z</time></trkpt><trkpt lat="45.0995123" lon="11.7316239"><ele>7.5</ele><time>2026-03-22T08:57:59.311Z</time></trkpt><trkpt lat="45.0994782" lon="11.7312865"><ele>8.0</ele><time>2026-03-22T08:58:00.311Z</time></trkpt><trkpt lat="45.0994475" lon="11.7309476"><ele>8.5</ele><time>2026-03-22T08:58:01.309Z</time></trkpt><trkpt lat="45.0994169" lon="11.7306178"><ele>9.0</ele><time>2026-03-22T08:58:02.315Z</time></trkpt><trkpt lat="45.0993739" lon="11.7302816"><ele>9.5</ele><time>2026-03-22T08:58:03.305Z</time></trkpt><trkpt lat="45.0993188" lon="11.7299581"><ele>10.0</ele><time>2026-03-22T08:58:04.315Z</time></trkpt><trkpt lat="45.0992305" lon="11.7296438"><ele>10.0</ele><time>2026-03-22T08:58:05.301Z</time></trkpt><trkpt lat="45.099127" lon="11.7293399"><ele>10.0</ele><time>2026-03-22T08:58:06.314Z</time></trkpt><trkpt lat="45.0990186" lon="11.7290274"><ele>10.0</ele><time>2026-03-22T08:58:07.309Z</time></trkpt><trkpt lat="45.0988983" lon="11.7287139"><ele>10.0</ele><time>2026-03-22T08:58:08.312Z</time></trkpt><trkpt lat="45.0987809" lon="11.728405"><ele>10.0</ele><time>2026-03-22T08:58:09.313Z</time></trkpt><trkpt lat="45.0986684" lon="11.7280936"><ele>10.0</ele><time>2026-03-22T08:58:10.316Z</time></trkpt><trkpt lat="45.0985589" lon="11.7277848"><ele>10.0</ele><time>2026-03-22T08:58:11.327Z</time></trkpt><trkpt lat="45.0984641" lon="11.7274685"><ele>10.0</ele><time>2026-03-22T08:58:12.317Z</time></trkpt><trkpt lat="45.0983708" lon="11.7271493"><ele>9.0</ele><time>2026-03-22T08:58:13.312Z</time></trkpt><trkpt lat="45.0982916" lon="11.7268227"><ele>8.0</ele><time>2026-03-22T08:58:14.306Z</time></trkpt><trkpt lat="45.0982224" lon="11.7264954"><ele>8.5</ele><time>2026-03-22T08:58:15.31Z</time></trkpt><trkpt lat="45.098178" lon="11.7261611"><ele>9.0</ele><time>2026-03-22T08:58:16.306Z</time></trkpt><trkpt lat="45.0981552" lon="11.7258243"><ele>9.0</ele><time>2026-03-22T08:58:17.307Z</time></trkpt><trkpt lat="45.0981399" lon="11.7254893"><ele>9.0</ele><time>2026-03-22T08:58:18.304Z</time></trkpt><trkpt lat="45.0981314" lon="11.7251455"><ele>9.5</ele><time>2026-03-22T08:58:19.309Z</time></trkpt><trkpt lat="45.0981357" lon="11.7247967"><ele>10.0</ele><time>2026-03-22T08:58:20.308Z</time></trkpt><trkpt lat="45.0981529" lon="11.7244527"><ele>10.0</ele><time>2026-03-22T08:58:21.309Z</time></trkpt><trkpt lat="45.0981783" lon="11.7241095"><ele>10.0</ele><time>2026-03-22T08:58:22.311Z</time></trkpt><trkpt lat="45.0982079" lon="11.7237642"><ele>9.0</ele><time>2026-03-22T08:58:23.311Z</time></trkpt><trkpt lat="45.0982397" lon="11.7234235"><ele>8.0</ele><time>2026-03-22T08:58:24.324Z</time></trkpt><trkpt lat="45.0982801" lon="11.7230934"><ele>7.0</ele><time>2026-03-22T08:58:25.31Z</time></trkpt><trkpt lat="45.0983316" lon="11.7227757"><ele>6.0</ele><time>2026-03-22T08:58:26.306Z</time></trkpt><trkpt lat="45.0984044" lon="11.7224668"><ele>6.0</ele><time>2026-03-22T08:58:27.306Z</time></trkpt><trkpt lat="45.0985061" lon="11.7221804"><ele>6.0</ele><time>2026-03-22T08:58:28.312Z</time></trkpt><trkpt lat="45.0986213" lon="11.7219065"><ele>6.0</ele><time>2026-03-22T08:58:29.318Z</time></trkpt><trkpt lat="45.0987531" lon="11.7216514"><ele>6.0</ele><time>2026-03-22T08:58:30.313Z</time></trkpt><trkpt lat="45.0988735" lon="11.7214055"><ele>6.0</ele><time>2026-03-22T08:58:31.306Z</time></trkpt><trkpt lat="45.0990051" lon="11.72116"><ele>7.0</ele><time>2026-03-22T08:58:32.316Z</time></trkpt><trkpt lat="45.0991392" lon="11.7209184"><ele>8.0</ele><time>2026-03-22T08:58:33.301Z</time></trkpt><trkpt lat="45.0992772" lon="11.7206967"><ele>9.0</ele><time>2026-03-22T08:58:34.303Z</time></trkpt><trkpt lat="45.0994323" lon="11.7204872"><ele>9.0</ele><time>2026-03-22T08:58:35.305Z</time></trkpt><trkpt lat="45.0995983" lon="11.7202887"><ele>9.0</ele><time>2026-03-22T08:58:36.306Z</time></trkpt><trkpt lat="45.0997681" lon="11.7200956"><ele>9.0</ele><time>2026-03-22T08:58:37.311Z</time></trkpt><trkpt lat="45.0999467" lon="11.7199243"><ele>8.333333333333334</ele><time>2026-03-22T08:58:38.308Z</time></trkpt><trkpt lat="45.1001248" lon="11.7197577"><ele>7.666666666666667</ele><time>2026-03-22T08:58:39.31Z</time></trkpt><trkpt lat="45.1003103" lon="11.7195895"><ele>7.0</ele><time>2026-03-22T08:58:40.307Z</time></trkpt><trkpt lat="45.1004906" lon="11.7194137"><ele>7.333333333333334</ele><time>2026-03-22T08:58:41.314Z</time></trkpt><trkpt lat="45.1006679" lon="11.7192295"><ele>7.666666666666666</ele><time>2026-03-22T08:58:42.309Z</time></trkpt><trkpt lat="45.1008418" lon="11.7190488"><ele>8.0</ele><time>2026-03-22T08:58:43.311Z</time></trkpt><trkpt lat="45.1009945" lon="11.7188448"><ele>8.0</ele><time>2026-03-22T08:58:44.308Z</time></trkpt><trkpt lat="45.101144" lon="11.718633"><ele>8.0</ele><time>2026-03-22T08:58:45.312Z</time></trkpt><trkpt lat="45.101286" lon="11.718407"><ele>8.0</ele><time>2026-03-22T08:58:46.314Z</time></trkpt><trkpt lat="45.1014196" lon="11.7181741"><ele>7.0</ele><time>2026-03-22T08:58:47.315Z</time></trkpt><trkpt lat="45.1015516" lon="11.7179216"><ele>6.0</ele><time>2026-03-22T08:58:48.308Z</time></trkpt><trkpt lat="45.1016705" lon="11.717665"><ele>5.0</ele><time>2026-03-22T08:58:49.304Z</time></trkpt><trkpt lat="45.1017815" lon="11.7173964"><ele>5.0</ele><time>2026-03-22T08:58:50.309Z</time></trkpt><trkpt lat="45.1018832" lon="11.717124"><ele>5.0</ele><time>2026-03-22T08:58:51.313Z</time></trkpt><trkpt lat="45.1019786" lon="11.7168497"><ele>5.0</ele><time>2026-03-22T08:58:52.315Z</time></trkpt><trkpt lat="45.1020797" lon="11.7165692"><ele>5.333333333333334</ele><time>2026-03-22T08:58:53.311Z</time></trkpt><trkpt lat="45.1021784" lon="11.716286"><ele>5.666666666666667</ele><time>2026-03-22T08:58:54.313Z</time></trkpt><trkpt lat="45.1022682" lon="11.7159939"><ele>6.0</ele><time>2026-03-22T08:58:55.307Z</time></trkpt><trkpt lat="45.1023431" lon="11.715692"><ele>7.0</ele><time>2026-03-22T08:58:56.302Z</time></trkpt><trkpt lat="45.1024105" lon="11.7153794"><ele>8.0</ele><time>2026-03-22T08:58:57.313Z</time></trkpt><trkpt lat="45.1024678" lon="11.715063"><ele>8.0</ele><time>2026-03-22T08:58:58.312Z</time></trkpt><trkpt lat="45.1025221" lon="11.7147444"><ele>8.0</ele><time>2026-03-22T08:58:59.32Z</time></trkpt><trkpt lat="45.1025811" lon="11.714422"><ele>8.0</ele><time>2026-03-22T08:59:00.315Z</time></trkpt><trkpt lat="45.1026402" lon="11.7140976"><ele>8.0</ele><time>2026-03-22T08:59:01.31Z</time></trkpt><trkpt lat="45.1027008" lon="11.713779"><ele>7.5</ele><time>2026-03-22T08:59:02.312Z</time></trkpt><trkpt lat="45.1027602" lon="11.713461"><ele>7.0</ele><time>2026-03-22T08:59:03.315Z</time></trkpt><trkpt lat="45.1028181" lon="11.7131437"><ele>7.0</ele><time>2026-03-22T08:59:04.315Z</time></trkpt><trkpt lat="45.1028791" lon="11.7128336"><ele>7.0</ele><time>2026-03-22T08:59:05.318Z</time></trkpt><trkpt lat="45.1029478" lon="11.7125237"><ele>7.5</ele><time>2026-03-22T08:59:06.312Z</time></trkpt><trkpt lat="45.1030118" lon="11.7122117"><ele>8.0</ele><time>2026-03-22T08:59:07.315Z</time></trkpt><trkpt lat="45.1030744" lon="11.7119006"><ele>8.0</ele><time>2026-03-22T08:59:08.311Z</time></trkpt><trkpt lat="45.1031381" lon="11.7115839"><ele>8.0</ele><time>2026-03-22T08:59:09.315Z</time></trkpt><trkpt lat="45.1032003" lon="11.7112784"><ele>7.0</ele><time>2026-03-22T08:59:10.307Z</time></trkpt><trkpt lat="45.1032511" lon="11.7109835"><ele>6.0</ele><time>2026-03-22T08:59:11.305Z</time></trkpt><trkpt lat="45.1032863" lon="11.7107065"><ele>5.0</ele><time>2026-03-22T08:59:12.303Z</time></trkpt><trkpt lat="45.1032947" lon="11.7104278"><ele>5.0</ele><time>2026-03-22T08:59:13.319Z</time></trkpt><trkpt lat="45.1033007" lon="11.7101404"><ele>5.0</ele><time>2026-03-22T08:59:14.31Z</time></trkpt><trkpt lat="45.1032898" lon="11.7098533"><ele>5.0</ele><time>2026-03-22T08:59:15.314Z</time></trkpt><trkpt lat="45.1032704" lon="11.7095598"><ele>6.333333333333334</ele><time>2026-03-22T08:59:16.311Z</time></trkpt><trkpt lat="45.1032408" lon="11.7092589"><ele>7.666666666666667</ele><time>2026-03-22T08:59:17.311Z</time></trkpt><trkpt lat="45.1032084" lon="11.7089648"><ele>9.0</ele><time>2026-03-22T08:59:18.309Z</time></trkpt><trkpt lat="45.1031633" lon="11.7086806"><ele>9.333333333333334</ele><time>2026-03-22T08:59:19.311Z</time></trkpt><trkpt lat="45.1031062" lon="11.7083902"><ele>9.666666666666668</ele><time>2026-03-22T08:59:20.311Z</time></trkpt><trkpt lat="45.1030341" lon="11.7081061"><ele>10.0</ele><time>2026-03-22T08:59:21.315Z</time></trkpt><trkpt lat="45.1029608" lon="11.7078148"><ele>9.5</ele><time>2026-03-22T08:59:22.314Z</time></trkpt><trkpt lat="45.1028828" lon="11.7075128"><ele>9.0</ele><time>2026-03-22T08:59:23.316Z</time></trkpt><trkpt lat="45.1028034" lon="11.7072044"><ele>8.333333333333334</ele><time>2026-03-22T08:59:24.308Z</time></trkpt><trkpt lat="45.1027268" lon="11.7069073"><ele>7.666666666666667</ele><time>2026-03-22T08:59:25.313Z</time></trkpt><trkpt lat="45.1026484" lon="11.7066133"><ele>7.0</ele><time>2026-03-22T08:59:26.313Z</time></trkpt><trkpt lat="45.1025629" lon="11.7063358"><ele>7.0</ele><time>2026-03-22T08:59:27.31Z</time></trkpt><trkpt lat="45.1024915" lon="11.7060708"><ele>7.0</ele><time>2026-03-22T08:59:28.311Z</time></trkpt><trkpt lat="45.102418" lon="11.7058173"><ele>7.0</ele><time>2026-03-22T08:59:29.316Z</time></trkpt><trkpt lat="45.1023279" lon="11.7055675"><ele>7.333333333333334</ele><time>2026-03-22T08:59:30.316Z</time></trkpt><trkpt lat="45.1022248" lon="11.7053231"><ele>7.666666666666666</ele><time>2026-03-22T08:59:31.314Z</time></trkpt><trkpt lat="45.1021227" lon="11.7050907"><ele>8.0</ele><time>2026-03-22T08:59:32.32Z</time></trkpt><trkpt lat="45.1020207" lon="11.7048654"><ele>8.0</ele><time>2026-03-22T08:59:33.313Z</time></trkpt><trkpt lat="45.1019168" lon="11.7046464"><ele>8.0</ele><time>2026-03-22T08:59:34.307Z</time></trkpt><trkpt lat="45.1018043" lon="11.7044188"><ele>8.0</ele><time>2026-03-22T08:59:35.31Z</time></trkpt><trkpt lat="45.1016934" lon="11.7041794"><ele>8.0</ele><time>2026-03-22T08:59:36.312Z</time></trkpt><trkpt lat="45.1015901" lon="11.7039263"><ele>8.0</ele><time>2026-03-22T08:59:37.308Z</time></trkpt><trkpt lat="45.1014969" lon="11.7036452"><ele>8.0</ele><time>2026-03-22T08:59:38.303Z</time></trkpt><trkpt lat="45.1014165" lon="11.7033534"><ele>7.666666666666666</ele><time>2026-03-22T08:59:39.308Z</time></trkpt><trkpt lat="45.1013379" lon="11.7030538"><ele>7.333333333333334</ele><time>2026-03-22T08:59:40.319Z</time></trkpt><trkpt lat="45.1012639" lon="11.7027604"><ele>7.0</ele><time>2026-03-22T08:59:41.322Z</time></trkpt><trkpt lat="45.1011896" lon="11.702453"><ele>7.0</ele><time>2026-03-22T08:59:42.311Z</time></trkpt><trkpt lat="45.1011282" lon="11.7021389"><ele>7.0</ele><time>2026-03-22T08:59:43.317Z</time></trkpt><trkpt lat="45.1010705" lon="11.7018207"><ele>7.0</ele><time>2026-03-22T08:59:44.318Z</time></trkpt><trkpt lat="45.101021" lon="11.7014938"><ele>7.0</ele><time>2026-03-22T08:59:45.315Z</time></trkpt><trkpt lat="45.1009611" lon="11.7011655"><ele>7.0</ele><time>2026-03-22T08:59:46.318Z</time></trkpt><trkpt lat="45.1009022" lon="11.7008377"><ele>7.0</ele><time>2026-03-22T08:59:47.316Z</time></trkpt><trkpt lat="45.1008375" lon="11.7005047"><ele>7.5</ele><time>2026-03-22T08:59:48.321Z</time></trkpt><trkpt lat="45.1007562" lon="11.700174"><ele>8.0</ele><time>2026-03-22T08:59:49.319Z</time></trkpt><trkpt lat="45.1006714" lon="11.699848"><ele>9.0</ele><time>2026-03-22T08:59:50.318Z</time></trkpt><trkpt lat="45.1005762" lon="11.6995254"><ele>10.0</ele><time>2026-03-22T08:59:51.319Z</time></trkpt><trkpt lat="45.1004791" lon="11.6992084"><ele>10.0</ele><time>2026-03-22T08:59:52.317Z</time></trkpt><trkpt lat="45.1003756" lon="11.698887"><ele>10.0</ele><time>2026-03-22T08:59:53.324Z</time></trkpt><trkpt lat="45.1002639" lon="11.6985729"><ele>10.0</ele><time>2026-03-22T08:59:54.317Z</time></trkpt><trkpt lat="45.1001541" lon="11.698264"><ele>10.0</ele><time>2026-03-22T08:59:55.325Z</time></trkpt><trkpt lat="45.1000357" lon="11.6979642"><ele>9.5</ele><time>2026-03-22T08:59:56.314Z</time></trkpt><trkpt lat="45.099911" lon="11.6976726"><ele>9.0</ele><time>2026-03-22T08:59:57.305Z</time></trkpt><trkpt lat="45.0997901" lon="11.6973779"><ele>9.0</ele><time>2026-03-22T08:59:58.295Z</time></trkpt><trkpt lat="45.0996651" lon="11.6970772"><ele>9.0</ele><time>2026-03-22T08:59:59.328Z</time></trkpt><trkpt lat="45.0995572" lon="11.6967706"><ele>8.5</ele><time>2026-03-22T09:00:00.3Z</time></trkpt><trkpt lat="45.0994785" lon="11.6964545"><ele>8.0</ele><time>2026-03-22T09:00:01.298Z</time></trkpt><trkpt lat="45.0994328" lon="11.6961304"><ele>8.0</ele><time>2026-03-22T09:00:02.299Z</time></trkpt><trkpt lat="45.0993996" lon="11.695796"><ele>8.0</ele><time>2026-03-22T09:00:03.308Z</time></trkpt><trkpt lat="45.0993769" lon="11.6954684"><ele>8.0</ele><time>2026-03-22T09:00:04.294Z</time></trkpt><trkpt lat="45.0993711" lon="11.6951369"><ele>8.0</ele><time>2026-03-22T09:00:05.302Z</time></trkpt><trkpt lat="45.099379" lon="11.6948164"><ele>8.0</ele><time>2026-03-22T09:00:06.297Z</time></trkpt><trkpt lat="45.0994012" lon="11.6944941"><ele>8.0</ele><time>2026-03-22T09:00:07.295Z</time></trkpt><trkpt lat="45.0994295" lon="11.6941676"><ele>8.5</ele><time>2026-03-22T09:00:08.302Z</time></trkpt><trkpt lat="45.0994814" lon="11.6938519"><ele>9.0</ele><time>2026-03-22T09:00:09.314Z</time></trkpt><trkpt lat="45.0995461" lon="11.6935329"><ele>10.0</ele><time>2026-03-22T09:00:10.31Z</time></trkpt><trkpt lat="45.0996533" lon="11.6932381"><ele>11.0</ele><time>2026-03-22T09:00:11.298Z</time></trkpt><trkpt lat="45.0997615" lon="11.6929395"><ele>10.5</ele><time>2026-03-22T09:00:12.3Z</time></trkpt><trkpt lat="45.0998876" lon="11.6926667"><ele>10.0</ele><time>2026-03-22T09:00:13.298Z</time></trkpt><trkpt lat="45.1000173" lon="11.6924025"><ele>9.0</ele><time>2026-03-22T09:00:14.3Z</time></trkpt><trkpt lat="45.1001588" lon="11.6921551"><ele>8.0</ele><time>2026-03-22T09:00:15.297Z</time></trkpt><trkpt lat="45.1003091" lon="11.6919121"><ele>8.0</ele><time>2026-03-22T09:00:16.297Z</time></trkpt><trkpt lat="45.1004552" lon="11.6916624"><ele>8.0</ele><time>2026-03-22T09:00:17.302Z</time></trkpt><trkpt lat="45.1005954" lon="11.6914116"><ele>8.0</ele><time>2026-03-22T09:00:18.305Z</time></trkpt><trkpt lat="45.1007222" lon="11.6911593"><ele>8.0</ele><time>2026-03-22T09:00:19.314Z</time></trkpt><trkpt lat="45.1008457" lon="11.6909029"><ele>8.0</ele><time>2026-03-22T09:00:20.298Z</time></trkpt><trkpt lat="45.1009419" lon="11.6906293"><ele>8.0</ele><time>2026-03-22T09:00:21.31Z</time></trkpt><trkpt lat="45.1010375" lon="11.690357"><ele>8.0</ele><time>2026-03-22T09:00:22.305Z</time></trkpt><trkpt lat="45.1011193" lon="11.6900777"><ele>8.0</ele><time>2026-03-22T09:00:23.311Z</time></trkpt><trkpt lat="45.1011868" lon="11.6897898"><ele>8.0</ele><time>2026-03-22T09:00:24.3Z</time></trkpt><trkpt lat="45.1012559" lon="11.6895006"><ele>8.0</ele><time>2026-03-22T09:00:25.312Z</time></trkpt><trkpt lat="45.1013194" lon="11.6892059"><ele>8.0</ele><time>2026-03-22T09:00:26.309Z</time></trkpt><trkpt lat="45.101384" lon="11.6889096"><ele>8.0</ele><time>2026-03-22T09:00:27.311Z</time></trkpt><trkpt lat="45.1014565" lon="11.6886134"><ele>8.0</ele><time>2026-03-22T09:00:28.306Z</time></trkpt><trkpt lat="45.1015373" lon="11.6883266"><ele>8.0</ele><time>2026-03-22T09:00:29.307Z</time></trkpt><trkpt lat="45.1016327" lon="11.6880524"><ele>7.666666666666666</ele><time>2026-03-22T09:00:30.306Z</time></trkpt><trkpt lat="45.101738" lon="11.6877891"><ele>7.333333333333334</ele><time>2026-03-22T09:00:31.305Z</time></trkpt><trkpt lat="45.1018651" lon="11.6875446"><ele>7.0</ele><time>2026-03-22T09:00:32.311Z</time></trkpt><trkpt lat="45.1019989" lon="11.6873024"><ele>7.0</ele><time>2026-03-22T09:00:33.306Z</time></trkpt><trkpt lat="45.1021392" lon="11.6870626"><ele>7.0</ele><time>2026-03-22T09:00:34.304Z</time></trkpt><trkpt lat="45.1022824" lon="11.6868181"><ele>7.0</ele><time>2026-03-22T09:00:35.303Z</time></trkpt><trkpt lat="45.1024341" lon="11.6865886"><ele>7.0</ele><time>2026-03-22T09:00:36.311Z</time></trkpt><trkpt lat="45.1025995" lon="11.6863695"><ele>7.0</ele><time>2026-03-22T09:00:37.301Z</time></trkpt><trkpt lat="45.1027636" lon="11.6861575"><ele>7.0</ele><time>2026-03-22T09:00:38.312Z</time></trkpt><trkpt lat="45.1029248" lon="11.6859455"><ele>6.5</ele><time>2026-03-22T09:00:39.303Z</time></trkpt><trkpt lat="45.1030942" lon="11.6857321"><ele>6.0</ele><time>2026-03-22T09:00:40.322Z</time></trkpt><trkpt lat="45.1032563" lon="11.685511"><ele>6.0</ele><time>2026-03-22T09:00:41.307Z</time></trkpt><trkpt lat="45.1034165" lon="11.6852795"><ele>6.0</ele><time>2026-03-22T09:00:42.306Z</time></trkpt><trkpt lat="45.1035496" lon="11.6850236"><ele>6.0</ele><time>2026-03-22T09:00:43.305Z</time></trkpt><trkpt lat="45.1036713" lon="11.6847615"><ele>6.0</ele><time>2026-03-22T09:00:44.309Z</time></trkpt><trkpt lat="45.1037843" lon="11.6844988"><ele>6.0</ele><time>2026-03-22T09:00:45.309Z</time></trkpt><trkpt lat="45.1039014" lon="11.6842308"><ele>6.666666666666666</ele><time>2026-03-22T09:00:46.305Z</time></trkpt><trkpt lat="45.1040135" lon="11.6839626"><ele>7.333333333333333</ele><time>2026-03-22T09:00:47.312Z</time></trkpt><trkpt lat="45.1041208" lon="11.6836797"><ele>8.0</ele><time>2026-03-22T09:00:48.314Z</time></trkpt><trkpt lat="45.1042285" lon="11.6833959"><ele>8.333333333333332</ele><time>2026-03-22T09:00:49.31Z</time></trkpt><trkpt lat="45.104313" lon="11.6831031"><ele>8.666666666666666</ele><time>2026-03-22T09:00:50.306Z</time></trkpt><trkpt lat="45.1043805" lon="11.6828035"><ele>9.0</ele><time>2026-03-22T09:00:51.304Z</time></trkpt><trkpt lat="45.1044257" lon="11.6824986"><ele>8.333333333333334</ele><time>2026-03-22T09:00:52.315Z</time></trkpt><trkpt lat="45.1044285" lon="11.6821842"><ele>7.666666666666667</ele><time>2026-03-22T09:00:53.304Z</time></trkpt><trkpt lat="45.1044167" lon="11.6818729"><ele>7.0</ele><time>2026-03-22T09:00:54.302Z</time></trkpt><trkpt lat="45.104392" lon="11.6815562"><ele>7.0</ele><time>2026-03-22T09:00:55.311Z</time></trkpt><trkpt lat="45.1043632" lon="11.6812282"><ele>7.0</ele><time>2026-03-22T09:00:56.313Z</time></trkpt><trkpt lat="45.1043504" lon="11.6809004"><ele>7.0</ele><time>2026-03-22T09:00:57.312Z</time></trkpt><trkpt lat="45.1043459" lon="11.6805737"><ele>7.0</ele><time>2026-03-22T09:00:58.313Z</time></trkpt><trkpt lat="45.1043493" lon="11.6802521"><ele>8.0</ele><time>2026-03-22T09:00:59.319Z</time></trkpt><trkpt lat="45.1043559" lon="11.6799255"><ele>9.0</ele><time>2026-03-22T09:01:00.31Z</time></trkpt><trkpt lat="45.1043662" lon="11.6796011"><ele>9.0</ele><time>2026-03-22T09:01:01.319Z</time></trkpt><trkpt lat="45.1043812" lon="11.6792759"><ele>9.0</ele><time>2026-03-22T09:01:02.31Z</time></trkpt><trkpt lat="45.1043888" lon="11.6789541"><ele>9.0</ele><time>2026-03-22T09:01:03.309Z</time></trkpt><trkpt lat="45.1043921" lon="11.6786249"><ele>9.0</ele><time>2026-03-22T09:01:04.309Z</time></trkpt><trkpt lat="45.1043996" lon="11.6783002"><ele>9.0</ele><time>2026-03-22T09:01:05.311Z</time></trkpt><trkpt lat="45.1044017" lon="11.6779735"><ele>9.0</ele><time>2026-03-22T09:01:06.31Z</time></trkpt><trkpt lat="45.1044029" lon="11.6776312"><ele>8.5</ele><time>2026-03-22T09:01:07.31Z</time></trkpt><trkpt lat="45.1044073" lon="11.6772966"><ele>8.0</ele><time>2026-03-22T09:01:08.311Z</time></trkpt><trkpt lat="45.1044165" lon="11.6769589"><ele>8.0</ele><time>2026-03-22T09:01:09.308Z</time></trkpt><trkpt lat="45.1044284" lon="11.6766266"><ele>8.0</ele><time>2026-03-22T09:01:10.318Z</time></trkpt><trkpt lat="45.1044582" lon="11.6762953"><ele>8.0</ele><time>2026-03-22T09:01:11.3Z</time></trkpt><trkpt lat="45.1045026" lon="11.6759768"><ele>8.0</ele><time>2026-03-22T09:01:12.305Z</time></trkpt><trkpt lat="45.1045673" lon="11.6756674"><ele>8.0</ele><time>2026-03-22T09:01:13.309Z</time></trkpt><trkpt lat="45.1046388" lon="11.6753646"><ele>8.0</ele><time>2026-03-22T09:01:14.31Z</time></trkpt><trkpt lat="45.1047162" lon="11.6750678"><ele>8.0</ele><time>2026-03-22T09:01:15.312Z</time></trkpt><trkpt lat="45.1047938" lon="11.6747775"><ele>8.333333333333332</ele><time>2026-03-22T09:01:16.306Z</time></trkpt><trkpt lat="45.1048831" lon="11.6744836"><ele>8.666666666666666</ele><time>2026-03-22T09:01:17.307Z</time></trkpt><trkpt lat="45.1049737" lon="11.6741995"><ele>9.0</ele><time>2026-03-22T09:01:18.305Z</time></trkpt><trkpt lat="45.1050746" lon="11.6739215"><ele>9.0</ele><time>2026-03-22T09:01:19.307Z</time></trkpt><trkpt lat="45.1051893" lon="11.6736492"><ele>9.0</ele><time>2026-03-22T09:01:20.304Z</time></trkpt><trkpt lat="45.1053058" lon="11.6733816"><ele>9.0</ele><time>2026-03-22T09:01:21.312Z</time></trkpt><trkpt lat="45.105427" lon="11.6731132"><ele>9.0</ele><time>2026-03-22T09:01:22.308Z</time></trkpt><trkpt lat="45.1055554" lon="11.6728496"><ele>9.0</ele><time>2026-03-22T09:01:23.315Z</time></trkpt><trkpt lat="45.1056781" lon="11.6725814"><ele>8.333333333333334</ele><time>2026-03-22T09:01:24.312Z</time></trkpt><trkpt lat="45.1058045" lon="11.6723192"><ele>7.666666666666667</ele><time>2026-03-22T09:01:25.311Z</time></trkpt><trkpt lat="45.105929" lon="11.6720577"><ele>7.0</ele><time>2026-03-22T09:01:26.309Z</time></trkpt><trkpt lat="45.1060604" lon="11.671798"><ele>7.0</ele><time>2026-03-22T09:01:27.312Z</time></trkpt><trkpt lat="45.1061868" lon="11.6715304"><ele>7.0</ele><time>2026-03-22T09:01:28.307Z</time></trkpt><trkpt lat="45.1063084" lon="11.6712571"><ele>7.5</ele><time>2026-03-22T09:01:29.316Z</time></trkpt><trkpt lat="45.1064392" lon="11.6709981"><ele>8.0</ele><time>2026-03-22T09:01:30.309Z</time></trkpt><trkpt lat="45.1065662" lon="11.6707345"><ele>7.0</ele><time>2026-03-22T09:01:31.314Z</time></trkpt><trkpt lat="45.1066917" lon="11.6704677"><ele>6.0</ele><time>2026-03-22T09:01:32.314Z</time></trkpt><trkpt lat="45.1068122" lon="11.6701921"><ele>5.5</ele><time>2026-03-22T09:01:33.306Z</time></trkpt><trkpt lat="45.1069136" lon="11.6699004"><ele>5.0</ele><time>2026-03-22T09:01:34.299Z</time></trkpt><trkpt lat="45.1069967" lon="11.6695909"><ele>6.5</ele><time>2026-03-22T09:01:35.303Z</time></trkpt><trkpt lat="45.107063" lon="11.6692756"><ele>8.0</ele><time>2026-03-22T09:01:36.303Z</time></trkpt><trkpt lat="45.1071179" lon="11.6689609"><ele>8.0</ele><time>2026-03-22T09:01:37.305Z</time></trkpt><trkpt lat="45.107158" lon="11.6686517"><ele>8.0</ele><time>2026-03-22T09:01:38.302Z</time></trkpt><trkpt lat="45.1071691" lon="11.6683354"><ele>8.0</ele><time>2026-03-22T09:01:39.303Z</time></trkpt><trkpt lat="45.1071596" lon="11.6680131"><ele>8.5</ele><time>2026-03-22T09:01:40.306Z</time></trkpt><trkpt lat="45.107127" lon="11.6677002"><ele>9.0</ele><time>2026-03-22T09:01:41.307Z</time></trkpt><trkpt lat="45.1070701" lon="11.667384"><ele>9.0</ele><time>2026-03-22T09:01:42.307Z</time></trkpt><trkpt lat="45.1070148" lon="11.6670701"><ele>9.0</ele><time>2026-03-22T09:01:43.307Z</time></trkpt><trkpt lat="45.1069606" lon="11.6667734"><ele>9.0</ele><time>2026-03-22T09:01:44.305Z</time></trkpt><trkpt lat="45.1069112" lon="11.6665033"><ele>9.0</ele><time>2026-03-22T09:01:45.304Z</time></trkpt><trkpt lat="45.1068527" lon="11.666259"><ele>9.0</ele><time>2026-03-22T09:01:46.31Z</time></trkpt><trkpt lat="45.1067787" lon="11.6660711"><ele>9.0</ele><time>2026-03-22T09:01:47.307Z</time></trkpt><trkpt lat="45.1066924" lon="11.6659074"><ele>9.333333333333334</ele><time>2026-03-22T09:01:48.317Z</time></trkpt><trkpt lat="45.1065944" lon="11.6657488"><ele>9.666666666666668</ele><time>2026-03-22T09:01:49.303Z</time></trkpt><trkpt lat="45.1064933" lon="11.6655906"><ele>10.0</ele><time>2026-03-22T09:01:50.314Z</time></trkpt><trkpt lat="45.1063815" lon="11.6654344"><ele>10.333333333333334</ele><time>2026-03-22T09:01:51.309Z</time></trkpt><trkpt lat="45.1062647" lon="11.6652811"><ele>10.666666666666666</ele><time>2026-03-22T09:01:52.315Z</time></trkpt><trkpt lat="45.1061426" lon="11.6651289"><ele>11.0</ele><time>2026-03-22T09:01:53.307Z</time></trkpt><trkpt lat="45.1060045" lon="11.664989"><ele>11.0</ele><time>2026-03-22T09:01:54.308Z</time></trkpt><trkpt lat="45.1058505" lon="11.6648567"><ele>11.0</ele><time>2026-03-22T09:01:55.308Z</time></trkpt><trkpt lat="45.1056895" lon="11.6647425"><ele>11.0</ele><time>2026-03-22T09:01:56.311Z</time></trkpt><trkpt lat="45.1055161" lon="11.6646263"><ele>11.0</ele><time>2026-03-22T09:01:57.312Z</time></trkpt><trkpt lat="45.1053441" lon="11.6645087"><ele>11.0</ele><time>2026-03-22T09:01:58.308Z</time></trkpt><trkpt lat="45.1051673" lon="11.6643734"><ele>11.0</ele><time>2026-03-22T09:01:59.319Z</time></trkpt><trkpt lat="45.1050066" lon="11.664249"><ele>11.0</ele><time>2026-03-22T09:02:00.307Z</time></trkpt><trkpt lat="45.1048578" lon="11.6641057"><ele>11.0</ele><time>2026-03-22T09:02:01.301Z</time></trkpt><trkpt lat="45.1047323" lon="11.6639208"><ele>11.0</ele><time>2026-03-22T09:02:02.312Z</time></trkpt><trkpt lat="45.1046609" lon="11.6636921"><ele>10.0</ele><time>2026-03-22T09:02:03.303Z</time></trkpt><trkpt lat="45.1046064" lon="11.6634618"><ele>9.0</ele><time>2026-03-22T09:02:04.305Z</time></trkpt><trkpt lat="45.1045759" lon="11.6632111"><ele>8.0</ele><time>2026-03-22T09:02:05.305Z</time></trkpt><trkpt lat="45.1045821" lon="11.6629665"><ele>8.0</ele><time>2026-03-22T09:02:06.304Z</time></trkpt><trkpt lat="45.1046095" lon="11.6627085"><ele>8.0</ele><time>2026-03-22T09:02:07.287Z</time></trkpt><trkpt lat="45.1046676" lon="11.6624685"><ele>8.0</ele><time>2026-03-22T09:02:08.306Z</time></trkpt><trkpt lat="45.1047484" lon="11.662238"><ele>8.0</ele><time>2026-03-22T09:02:09.296Z</time></trkpt><trkpt lat="45.1048525" lon="11.6620152"><ele>8.0</ele><time>2026-03-22T09:02:10.306Z</time></trkpt><trkpt lat="45.1049542" lon="11.661786"><ele>8.0</ele><time>2026-03-22T09:02:11.302Z</time></trkpt><trkpt lat="45.1050586" lon="11.6615542"><ele>8.0</ele><time>2026-03-22T09:02:12.304Z</time></trkpt><trkpt lat="45.10516" lon="11.6613214"><ele>8.0</ele><time>2026-03-22T09:02:13.308Z</time></trkpt><trkpt lat="45.1052517" lon="11.6610881"><ele>8.0</ele><time>2026-03-22T09:02:14.304Z</time></trkpt><trkpt lat="45.1053352" lon="11.6608761"><ele>8.0</ele><time>2026-03-22T09:02:15.311Z</time></trkpt><trkpt lat="45.1054098" lon="11.6606875"><ele>8.0</ele><time>2026-03-22T09:02:16.31Z</time></trkpt><trkpt lat="45.1054861" lon="11.6605029"><ele>8.0</ele><time>2026-03-22T09:02:17.306Z</time></trkpt><trkpt lat="45.1055595" lon="11.6603013"><ele>8.0</ele><time>2026-03-22T09:02:18.318Z</time></trkpt><trkpt lat="45.1056448" lon="11.6600998"><ele>8.0</ele><time>2026-03-22T09:02:19.307Z</time></trkpt><trkpt lat="45.1057329" lon="11.6598833"><ele>8.0</ele><time>2026-03-22T09:02:20.31Z</time></trkpt><trkpt lat="45.1058189" lon="11.6596484"><ele>7.666666666666666</ele><time>2026-03-22T09:02:21.307Z</time></trkpt><trkpt lat="45.1058973" lon="11.6593854"><ele>7.333333333333334</ele><time>2026-03-22T09:02:22.304Z</time></trkpt><trkpt lat="45.105966" lon="11.6591216"><ele>7.0</ele><time>2026-03-22T09:02:23.314Z</time></trkpt><trkpt lat="45.1060384" lon="11.6588625"><ele>7.0</ele><time>2026-03-22T09:02:24.312Z</time></trkpt><trkpt lat="45.1061072" lon="11.6586222"><ele>7.0</ele><time>2026-03-22T09:02:25.314Z</time></trkpt><trkpt lat="45.1061734" lon="11.6583647"><ele>7.0</ele><time>2026-03-22T09:02:26.309Z</time></trkpt><trkpt lat="45.1062288" lon="11.6580998"><ele>7.666666666666667</ele><time>2026-03-22T09:02:27.304Z</time></trkpt><trkpt lat="45.1062622" lon="11.6578244"><ele>8.333333333333334</ele><time>2026-03-22T09:02:28.305Z</time></trkpt><trkpt lat="45.1062819" lon="11.6575338"><ele>9.0</ele><time>2026-03-22T09:02:29.312Z</time></trkpt><trkpt lat="45.1062882" lon="11.6572422"><ele>9.0</ele><time>2026-03-22T09:02:30.306Z</time></trkpt><trkpt lat="45.1062779" lon="11.656953"><ele>9.0</ele><time>2026-03-22T09:02:31.304Z</time></trkpt><trkpt lat="45.1062541" lon="11.6566751"><ele>9.0</ele><time>2026-03-22T09:02:32.315Z</time></trkpt><trkpt lat="45.1062286" lon="11.6564083"><ele>9.0</ele><time>2026-03-22T09:02:33.304Z</time></trkpt><trkpt lat="45.1062274" lon="11.6561619"><ele>9.0</ele><time>2026-03-22T09:02:34.314Z</time></trkpt><trkpt lat="45.1062551" lon="11.6559252"><ele>9.0</ele><time>2026-03-22T09:02:35.304Z</time></trkpt><trkpt lat="45.1063123" lon="11.6556978"><ele>9.0</ele><time>2026-03-22T09:02:36.31Z</time></trkpt><trkpt lat="45.106416" lon="11.6554884"><ele>9.0</ele><time>2026-03-22T09:02:37.31Z</time></trkpt><trkpt lat="45.1065486" lon="11.6552956"><ele>9.0</ele><time>2026-03-22T09:02:38.303Z</time></trkpt><trkpt lat="45.1067033" lon="11.6550919"><ele>8.333333333333334</ele><time>2026-03-22T09:02:39.307Z</time></trkpt><trkpt lat="45.1068586" lon="11.6548979"><ele>7.666666666666667</ele><time>2026-03-22T09:02:40.311Z</time></trkpt><trkpt lat="45.1070229" lon="11.6547004"><ele>7.0</ele><time>2026-03-22T09:02:41.316Z</time></trkpt><trkpt lat="45.1071871" lon="11.6545055"><ele>7.333333333333334</ele><time>2026-03-22T09:02:42.308Z</time></trkpt><trkpt lat="45.1073547" lon="11.6543199"><ele>7.666666666666666</ele><time>2026-03-22T09:02:43.312Z</time></trkpt><trkpt lat="45.1075267" lon="11.6541361"><ele>8.0</ele><time>2026-03-22T09:02:44.312Z</time></trkpt><trkpt lat="45.1076989" lon="11.6539441"><ele>8.333333333333332</ele><time>2026-03-22T09:02:45.312Z</time></trkpt><trkpt lat="45.107868" lon="11.653759"><ele>8.666666666666666</ele><time>2026-03-22T09:02:46.313Z</time></trkpt><trkpt lat="45.1080398" lon="11.6535677"><ele>9.0</ele><time>2026-03-22T09:02:47.313Z</time></trkpt><trkpt lat="45.1082043" lon="11.6533666"><ele>9.0</ele><time>2026-03-22T09:02:48.312Z</time></trkpt><trkpt lat="45.1083697" lon="11.653162"><ele>9.0</ele><time>2026-03-22T09:02:49.307Z</time></trkpt><trkpt lat="45.1085145" lon="11.6529409"><ele>9.0</ele><time>2026-03-22T09:02:50.305Z</time></trkpt><trkpt lat="45.1086542" lon="11.6526939"><ele>8.666666666666666</ele><time>2026-03-22T09:02:51.306Z</time></trkpt><trkpt lat="45.1087667" lon="11.652427"><ele>8.333333333333332</ele><time>2026-03-22T09:02:52.31Z</time></trkpt><trkpt lat="45.108858" lon="11.6521528"><ele>8.0</ele><time>2026-03-22T09:02:53.309Z</time></trkpt><trkpt lat="45.108936" lon="11.6518564"><ele>8.0</ele><time>2026-03-22T09:02:54.303Z</time></trkpt><trkpt lat="45.1090067" lon="11.6515592"><ele>8.0</ele><time>2026-03-22T09:02:55.307Z</time></trkpt><trkpt lat="45.1090707" lon="11.6512556"><ele>8.0</ele><time>2026-03-22T09:02:56.315Z</time></trkpt><trkpt lat="45.1091336" lon="11.650957"><ele>8.0</ele><time>2026-03-22T09:02:57.308Z</time></trkpt><trkpt lat="45.1091958" lon="11.6506538"><ele>8.0</ele><time>2026-03-22T09:02:58.313Z</time></trkpt><trkpt lat="45.109257" lon="11.6503503"><ele>8.0</ele><time>2026-03-22T09:02:59.319Z</time></trkpt><trkpt lat="45.109324" lon="11.6500383"><ele>8.5</ele><time>2026-03-22T09:03:00.314Z</time></trkpt><trkpt lat="45.1093908" lon="11.6497196"><ele>9.0</ele><time>2026-03-22T09:03:01.312Z</time></trkpt><trkpt lat="45.1094611" lon="11.6494001"><ele>9.0</ele><time>2026-03-22T09:03:02.312Z</time></trkpt><trkpt lat="45.1095257" lon="11.6490813"><ele>9.0</ele><time>2026-03-22T09:03:03.319Z</time></trkpt><trkpt lat="45.1095942" lon="11.6487678"><ele>7.5</ele><time>2026-03-22T09:03:04.307Z</time></trkpt><trkpt lat="45.1096674" lon="11.6484527"><ele>6.0</ele><time>2026-03-22T09:03:05.321Z</time></trkpt><trkpt lat="45.1097394" lon="11.6481324"><ele>6.0</ele><time>2026-03-22T09:03:06.311Z</time></trkpt><trkpt lat="45.1098127" lon="11.6478098"><ele>6.0</ele><time>2026-03-22T09:03:07.318Z</time></trkpt><trkpt lat="45.1098924" lon="11.6474908"><ele>7.0</ele><time>2026-03-22T09:03:08.315Z</time></trkpt><trkpt lat="45.1099649" lon="11.6471785"><ele>8.0</ele><time>2026-03-22T09:03:09.309Z</time></trkpt><trkpt lat="45.1100327" lon="11.6468703"><ele>8.666666666666666</ele><time>2026-03-22T09:03:10.307Z</time></trkpt><trkpt lat="45.1100735" lon="11.6465758"><ele>9.333333333333334</ele><time>2026-03-22T09:03:11.304Z</time></trkpt><trkpt lat="45.1100862" lon="11.6462738"><ele>10.0</ele><time>2026-03-22T09:03:12.3Z</time></trkpt><trkpt lat="45.1100622" lon="11.645967"><ele>10.0</ele><time>2026-03-22T09:03:13.317Z</time></trkpt><trkpt lat="45.1099966" lon="11.6456616"><ele>10.0</ele><time>2026-03-22T09:03:14.296Z</time></trkpt><trkpt lat="45.1099178" lon="11.6453592"><ele>9.5</ele><time>2026-03-22T09:03:15.302Z</time></trkpt><trkpt lat="45.1098222" lon="11.6450604"><ele>9.0</ele><time>2026-03-22T09:03:16.304Z</time></trkpt><trkpt lat="45.1097148" lon="11.6447543"><ele>9.0</ele><time>2026-03-22T09:03:17.31Z</time></trkpt><trkpt lat="45.1096148" lon="11.6444453"><ele>9.0</ele><time>2026-03-22T09:03:18.308Z</time></trkpt><trkpt lat="45.1095053" lon="11.6441407"><ele>9.0</ele><time>2026-03-22T09:03:19.304Z</time></trkpt><trkpt lat="45.1094008" lon="11.6438219"><ele>9.0</ele><time>2026-03-22T09:03:20.305Z</time></trkpt><trkpt lat="45.1093185" lon="11.6434924"><ele>9.0</ele><time>2026-03-22T09:03:21.303Z</time></trkpt><trkpt lat="45.1092638" lon="11.6431579"><ele>9.0</ele><time>2026-03-22T09:03:22.31Z</time></trkpt><trkpt lat="45.1092509" lon="11.6428112"><ele>8.5</ele><time>2026-03-22T09:03:23.303Z</time></trkpt><trkpt lat="45.109249" lon="11.6424706"><ele>8.0</ele><time>2026-03-22T09:03:24.302Z</time></trkpt><trkpt lat="45.1092625" lon="11.6421353"><ele>8.5</ele><time>2026-03-22T09:03:25.302Z</time></trkpt><trkpt lat="45.109285" lon="11.6417992"><ele>9.0</ele><time>2026-03-22T09:03:26.307Z</time></trkpt><trkpt lat="45.1093191" lon="11.6414626"><ele>8.5</ele><time>2026-03-22T09:03:27.319Z</time></trkpt><trkpt lat="45.1093494" lon="11.6411237"><ele>8.0</ele><time>2026-03-22T09:03:28.31Z</time></trkpt><trkpt lat="45.1093703" lon="11.6407784"><ele>8.0</ele><time>2026-03-22T09:03:29.316Z</time></trkpt><trkpt lat="45.1093916" lon="11.6404379"><ele>8.0</ele><time>2026-03-22T09:03:30.316Z</time></trkpt><trkpt lat="45.1094108" lon="11.6400983"><ele>8.5</ele><time>2026-03-22T09:03:31.309Z</time></trkpt><trkpt lat="45.1094353" lon="11.6397728"><ele>9.0</ele><time>2026-03-22T09:03:32.318Z</time></trkpt><trkpt lat="45.1094621" lon="11.6394499"><ele>9.0</ele><time>2026-03-22T09:03:33.307Z</time></trkpt><trkpt lat="45.1094819" lon="11.6391351"><ele>9.0</ele><time>2026-03-22T09:03:34.31Z</time></trkpt><trkpt lat="45.1094952" lon="11.6388237"><ele>9.0</ele><time>2026-03-22T09:03:35.314Z</time></trkpt><trkpt lat="45.1095165" lon="11.6385251"><ele>9.0</ele><time>2026-03-22T09:03:36.305Z</time></trkpt><trkpt lat="45.1095372" lon="11.6382242"><ele>9.0</ele><time>2026-03-22T09:03:37.315Z</time></trkpt><trkpt lat="45.1095603" lon="11.6379234"><ele>9.0</ele><time>2026-03-22T09:03:38.312Z</time></trkpt><trkpt lat="45.1095733" lon="11.6376144"><ele>10.0</ele><time>2026-03-22T09:03:39.305Z</time></trkpt><trkpt lat="45.109564" lon="11.6372947"><ele>11.0</ele><time>2026-03-22T09:03:40.305Z</time></trkpt><trkpt lat="45.1095389" lon="11.6369769"><ele>11.0</ele><time>2026-03-22T09:03:41.309Z</time></trkpt><trkpt lat="45.1095138" lon="11.6366649"><ele>11.0</ele><time>2026-03-22T09:03:42.305Z</time></trkpt><trkpt lat="45.1094769" lon="11.6363536"><ele>11.0</ele><time>2026-03-22T09:03:43.305Z</time></trkpt><trkpt lat="45.1094301" lon="11.6360445"><ele>11.0</ele><time>2026-03-22T09:03:44.307Z</time></trkpt><trkpt lat="45.1093803" lon="11.6357407"><ele>11.0</ele><time>2026-03-22T09:03:45.315Z</time></trkpt><trkpt lat="45.1093132" lon="11.6354367"><ele>11.0</ele><time>2026-03-22T09:03:46.313Z</time></trkpt><trkpt lat="45.1092477" lon="11.6351522"><ele>11.0</ele><time>2026-03-22T09:03:47.304Z</time></trkpt><trkpt lat="45.1091777" lon="11.6348779"><ele>11.0</ele><time>2026-03-22T09:03:48.311Z</time></trkpt><trkpt lat="45.1091057" lon="11.6346027"><ele>11.0</ele><time>2026-03-22T09:03:49.312Z</time></trkpt><trkpt lat="45.1090389" lon="11.6343175"><ele>10.666666666666666</ele><time>2026-03-22T09:03:50.313Z</time></trkpt><trkpt lat="45.108989" lon="11.6340375"><ele>10.333333333333334</ele><time>2026-03-22T09:03:51.312Z</time></trkpt><trkpt lat="45.1089559" lon="11.6337483"><ele>10.0</ele><time>2026-03-22T09:03:52.306Z</time></trkpt><trkpt lat="45.1089512" lon="11.6334519"><ele>10.0</ele><time>2026-03-22T09:03:53.309Z</time></trkpt><trkpt lat="45.1089666" lon="11.633147"><ele>10.0</ele><time>2026-03-22T09:03:54.304Z</time></trkpt><trkpt lat="45.1089978" lon="11.6328539"><ele>10.0</ele><time>2026-03-22T09:03:55.311Z</time></trkpt><trkpt lat="45.1090456" lon="11.6325672"><ele>9.666666666666668</ele><time>2026-03-22T09:03:56.311Z</time></trkpt><trkpt lat="45.1091272" lon="11.6322918"><ele>9.333333333333334</ele><time>2026-03-22T09:03:57.308Z</time></trkpt><trkpt lat="45.1092356" lon="11.6320291"><ele>9.0</ele><time>2026-03-22T09:03:58.309Z</time></trkpt><trkpt lat="45.1093795" lon="11.6317947"><ele>8.5</ele><time>2026-03-22T09:03:59.32Z</time></trkpt><trkpt lat="45.1095329" lon="11.6315657"><ele>8.0</ele><time>2026-03-22T09:04:00.324Z</time></trkpt><trkpt lat="45.1096929" lon="11.6313331"><ele>8.0</ele><time>2026-03-22T09:04:01.31Z</time></trkpt><trkpt lat="45.1098423" lon="11.6310853"><ele>8.0</ele><time>2026-03-22T09:04:02.31Z</time></trkpt><trkpt lat="45.1099774" lon="11.6308219"><ele>8.0</ele><time>2026-03-22T09:04:03.304Z</time></trkpt><trkpt lat="45.1101008" lon="11.6305434"><ele>8.0</ele><time>2026-03-22T09:04:04.303Z</time></trkpt><trkpt lat="45.1102074" lon="11.6302498"><ele>7.5</ele><time>2026-03-22T09:04:05.3Z</time></trkpt><trkpt lat="45.110299" lon="11.6299467"><ele>7.0</ele><time>2026-03-22T09:04:06.306Z</time></trkpt><trkpt lat="45.1103689" lon="11.6296278"><ele>7.0</ele><time>2026-03-22T09:04:07.307Z</time></trkpt><trkpt lat="45.1104326" lon="11.6292974"><ele>7.0</ele><time>2026-03-22T09:04:08.304Z</time></trkpt><trkpt lat="45.1104824" lon="11.6289699"><ele>8.5</ele><time>2026-03-22T09:04:09.315Z</time></trkpt><trkpt lat="45.110508" lon="11.6286281"><ele>10.0</ele><time>2026-03-22T09:04:10.307Z</time></trkpt><trkpt lat="45.1105356" lon="11.6282867"><ele>10.0</ele><time>2026-03-22T09:04:11.314Z</time></trkpt><trkpt lat="45.1105612" lon="11.6279474"><ele>10.0</ele><time>2026-03-22T09:04:12.312Z</time></trkpt><trkpt lat="45.1105885" lon="11.6276028"><ele>9.5</ele><time>2026-03-22T09:04:13.31Z</time></trkpt><trkpt lat="45.1106163" lon="11.6272611"><ele>9.0</ele><time>2026-03-22T09:04:14.313Z</time></trkpt><trkpt lat="45.1106364" lon="11.6269265"><ele>9.0</ele><time>2026-03-22T09:04:15.31Z</time></trkpt><trkpt lat="45.1106454" lon="11.6265916"><ele>9.0</ele><time>2026-03-22T09:04:16.307Z</time></trkpt><trkpt lat="45.1106493" lon="11.6262568"><ele>8.5</ele><time>2026-03-22T09:04:17.312Z</time></trkpt><trkpt lat="45.1106437" lon="11.6259183"><ele>8.0</ele><time>2026-03-22T09:04:18.313Z</time></trkpt><trkpt lat="45.1106283" lon="11.6255802"><ele>8.0</ele><time>2026-03-22T09:04:19.312Z</time></trkpt><trkpt lat="45.1105913" lon="11.6252473"><ele>8.0</ele><time>2026-03-22T09:04:20.31Z</time></trkpt><trkpt lat="45.1105408" lon="11.6249148"><ele>8.0</ele><time>2026-03-22T09:04:21.315Z</time></trkpt><trkpt lat="45.1104822" lon="11.6245748"><ele>8.0</ele><time>2026-03-22T09:04:22.313Z</time></trkpt><trkpt lat="45.1104151" lon="11.6242218"><ele>8.0</ele><time>2026-03-22T09:04:23.321Z</time></trkpt><trkpt lat="45.1103532" lon="11.6238698"><ele>8.0</ele><time>2026-03-22T09:04:24.315Z</time></trkpt><trkpt lat="45.1102866" lon="11.6235172"><ele>8.0</ele><time>2026-03-22T09:04:25.314Z</time></trkpt><trkpt lat="45.11022" lon="11.6231673"><ele>8.0</ele><time>2026-03-22T09:04:26.312Z</time></trkpt><trkpt lat="45.1101685" lon="11.6228144"><ele>7.5</ele><time>2026-03-22T09:04:27.321Z</time></trkpt><trkpt lat="45.1101246" lon="11.6224619"><ele>7.0</ele><time>2026-03-22T09:04:28.319Z</time></trkpt><trkpt lat="45.1100707" lon="11.622111"><ele>7.0</ele><time>2026-03-22T09:04:29.323Z</time></trkpt><trkpt lat="45.1100211" lon="11.6217599"><ele>7.0</ele><time>2026-03-22T09:04:30.319Z</time></trkpt><trkpt lat="45.1099763" lon="11.6214015"><ele>6.5</ele><time>2026-03-22T09:04:31.314Z</time></trkpt><trkpt lat="45.10994" lon="11.6210442"><ele>6.0</ele><time>2026-03-22T09:04:32.314Z</time></trkpt><trkpt lat="45.1099102" lon="11.6206989"><ele>7.5</ele><time>2026-03-22T09:04:33.312Z</time></trkpt><trkpt lat="45.1098883" lon="11.6203523"><ele>9.0</ele><time>2026-03-22T09:04:34.31Z</time></trkpt><trkpt lat="45.1098733" lon="11.6200296"><ele>9.333333333333334</ele><time>2026-03-22T09:04:35.308Z</time></trkpt><trkpt lat="45.1098551" lon="11.6197237"><ele>9.666666666666668</ele><time>2026-03-22T09:04:36.306Z</time></trkpt><trkpt lat="45.1098485" lon="11.6194494"><ele>10.0</ele><time>2026-03-22T09:04:37.325Z</time></trkpt><trkpt lat="45.109838" lon="11.6192052"><ele>9.6</ele><time>2026-03-22T09:04:38.309Z</time></trkpt><trkpt lat="45.1098385" lon="11.6190116"><ele>9.2</ele><time>2026-03-22T09:04:39.321Z</time></trkpt><trkpt lat="45.1098338" lon="11.6188674"><ele>8.8</ele><time>2026-03-22T09:04:40.308Z</time></trkpt><trkpt lat="45.1098309" lon="11.6187688"><ele>8.4</ele><time>2026-03-22T09:04:41.31Z</time></trkpt><trkpt lat="45.1098552" lon="11.6186406"><ele>8.0</ele><time>2026-03-22T09:04:43.309Z</time></trkpt><trkpt lat="45.1098671" lon="11.618548"><ele>7.6000000000000005</ele><time>2026-03-22T09:04:45.304Z</time></trkpt><trkpt lat="45.1098573" lon="11.6183754"><ele>7.200000000000001</ele><time>2026-03-22T09:04:47.306Z</time></trkpt><trkpt lat="45.1098529" lon="11.6182466"><ele>6.8</ele><time>2026-03-22T09:04:48.298Z</time></trkpt><trkpt lat="45.1098449" lon="11.6181189"><ele>6.4</ele><time>2026-03-22T09:04:49.3Z</time></trkpt><trkpt lat="45.1098413" lon="11.6179787"><ele>6.0</ele><time>2026-03-22T09:04:50.296Z</time></trkpt><trkpt lat="45.109841" lon="11.6178215"><ele>6.75</ele><time>2026-03-22T09:04:51.301Z</time></trkpt><trkpt lat="45.1098345" lon="11.6176613"><ele>7.5</ele><time>2026-03-22T09:04:52.303Z</time></trkpt><trkpt lat="45.1098253" lon="11.6175085"><ele>8.25</ele><time>2026-03-22T09:04:53.303Z</time></trkpt><trkpt lat="45.1098165" lon="11.617357"><ele>9.0</ele><time>2026-03-22T09:04:54.3Z</time></trkpt><trkpt lat="45.1098017" lon="11.6171848"><ele>9.0</ele><time>2026-03-22T09:04:55.295Z</time></trkpt><trkpt lat="45.1097872" lon="11.6169949"><ele>9.0</ele><time>2026-03-22T09:04:56.294Z</time></trkpt><trkpt lat="45.1097748" lon="11.6167826"><ele>9.0</ele><time>2026-03-22T09:04:57.298Z</time></trkpt><trkpt lat="45.1097658" lon="11.6165431"><ele>9.0</ele><time>2026-03-22T09:04:58.301Z</time></trkpt><trkpt lat="45.1097508" lon="11.6163043"><ele>9.0</ele><time>2026-03-22T09:04:59.306Z</time></trkpt><trkpt lat="45.1097339" lon="11.6160579"><ele>9.0</ele><time>2026-03-22T09:05:00.309Z</time></trkpt><trkpt lat="45.1097077" lon="11.6158028"><ele>9.0</ele><time>2026-03-22T09:05:01.299Z</time></trkpt><trkpt lat="45.1096747" lon="11.6155483"><ele>9.0</ele><time>2026-03-22T09:05:02.302Z</time></trkpt><trkpt lat="45.1096357" lon="11.6153091"><ele>9.0</ele><time>2026-03-22T09:05:03.294Z</time></trkpt><trkpt lat="45.1095979" lon="11.6150948"><ele>8.333333333333334</ele><time>2026-03-22T09:05:04.295Z</time></trkpt><trkpt lat="45.1095526" lon="11.6148855"><ele>7.666666666666667</ele><time>2026-03-22T09:05:05.299Z</time></trkpt><trkpt lat="45.1095088" lon="11.6146828"><ele>7.0</ele><time>2026-03-22T09:05:06.299Z</time></trkpt><trkpt lat="45.1094745" lon="11.6144569"><ele>7.0</ele><time>2026-03-22T09:05:07.299Z</time></trkpt><trkpt lat="45.1094616" lon="11.6142215"><ele>7.0</ele><time>2026-03-22T09:05:08.299Z</time></trkpt><trkpt lat="45.1094541" lon="11.6139679"><ele>7.0</ele><time>2026-03-22T09:05:09.295Z</time></trkpt><trkpt lat="45.1094512" lon="11.6137096"><ele>6.666666666666667</ele><time>2026-03-22T09:05:10.303Z</time></trkpt><trkpt lat="45.1094516" lon="11.6134441"><ele>6.333333333333334</ele><time>2026-03-22T09:05:11.299Z</time></trkpt><trkpt lat="45.1094678" lon="11.6131852"><ele>6.0</ele><time>2026-03-22T09:05:12.299Z</time></trkpt><trkpt lat="45.1094918" lon="11.6129421"><ele>6.333333333333334</ele><time>2026-03-22T09:05:13.292Z</time></trkpt><trkpt lat="45.1095404" lon="11.6127013"><ele>6.666666666666667</ele><time>2026-03-22T09:05:14.294Z</time></trkpt><trkpt lat="45.1096044" lon="11.6124882"><ele>7.0</ele><time>2026-03-22T09:05:15.289Z</time></trkpt><trkpt lat="45.1097124" lon="11.6122888"><ele>7.0</ele><time>2026-03-22T09:05:16.292Z</time></trkpt><trkpt lat="45.1098385" lon="11.6121106"><ele>7.0</ele><time>2026-03-22T09:05:17.292Z</time></trkpt><trkpt lat="45.1099898" lon="11.6119699"><ele>7.0</ele><time>2026-03-22T09:05:18.299Z</time></trkpt><trkpt lat="45.1101374" lon="11.6118368"><ele>7.333333333333334</ele><time>2026-03-22T09:05:19.296Z</time></trkpt><trkpt lat="45.1102954" lon="11.6117314"><ele>7.666666666666666</ele><time>2026-03-22T09:05:20.295Z</time></trkpt><trkpt lat="45.1104677" lon="11.6116552"><ele>8.0</ele><time>2026-03-22T09:05:21.297Z</time></trkpt><trkpt lat="45.1106489" lon="11.6115924"><ele>7.666666666666666</ele><time>2026-03-22T09:05:22.301Z</time></trkpt><trkpt lat="45.1108329" lon="11.6115143"><ele>7.333333333333334</ele><time>2026-03-22T09:05:23.305Z</time></trkpt><trkpt lat="45.1110282" lon="11.6114348"><ele>7.0</ele><time>2026-03-22T09:05:24.299Z</time></trkpt><trkpt lat="45.111229" lon="11.6113587"><ele>7.0</ele><time>2026-03-22T09:05:25.302Z</time></trkpt><trkpt lat="45.1114349" lon="11.6112794"><ele>7.0</ele><time>2026-03-22T09:05:26.302Z</time></trkpt><trkpt lat="45.1116484" lon="11.6111988"><ele>7.0</ele><time>2026-03-22T09:05:27.304Z</time></trkpt><trkpt lat="45.1118551" lon="11.6111135"><ele>6.666666666666667</ele><time>2026-03-22T09:05:28.303Z</time></trkpt><trkpt lat="45.112057" lon="11.6110285"><ele>6.333333333333334</ele><time>2026-03-22T09:05:29.308Z</time></trkpt><trkpt lat="45.1122684" lon="11.6109482"><ele>6.0</ele><time>2026-03-22T09:05:30.303Z</time></trkpt><trkpt lat="45.112472" lon="11.6108388"><ele>6.0</ele><time>2026-03-22T09:05:31.298Z</time></trkpt><trkpt lat="45.1126689" lon="11.6107053"><ele>6.0</ele><time>2026-03-22T09:05:32.298Z</time></trkpt><trkpt lat="45.1128601" lon="11.6105429"><ele>6.0</ele><time>2026-03-22T09:05:33.301Z</time></trkpt><trkpt lat="45.1130454" lon="11.610355"><ele>6.333333333333334</ele><time>2026-03-22T09:05:34.294Z</time></trkpt><trkpt lat="45.1132251" lon="11.6101684"><ele>6.666666666666667</ele><time>2026-03-22T09:05:35.296Z</time></trkpt><trkpt lat="45.1133948" lon="11.6099665"><ele>7.0</ele><time>2026-03-22T09:05:36.294Z</time></trkpt><trkpt lat="45.1135571" lon="11.6097582"><ele>7.666666666666667</ele><time>2026-03-22T09:05:37.292Z</time></trkpt><trkpt lat="45.1137034" lon="11.6095232"><ele>8.333333333333334</ele><time>2026-03-22T09:05:38.295Z</time></trkpt><trkpt lat="45.1138382" lon="11.609266"><ele>9.0</ele><time>2026-03-22T09:05:39.295Z</time></trkpt><trkpt lat="45.1139663" lon="11.6089957"><ele>9.0</ele><time>2026-03-22T09:05:40.294Z</time></trkpt><trkpt lat="45.1140878" lon="11.6087171"><ele>9.0</ele><time>2026-03-22T09:05:41.3Z</time></trkpt><trkpt lat="45.1141978" lon="11.6084418"><ele>9.0</ele><time>2026-03-22T09:05:42.3Z</time></trkpt><trkpt lat="45.114301" lon="11.6081547"><ele>9.0</ele><time>2026-03-22T09:05:43.304Z</time></trkpt><trkpt lat="45.1143994" lon="11.6078708"><ele>9.0</ele><time>2026-03-22T09:05:44.295Z</time></trkpt><trkpt lat="45.1144833" lon="11.6075966"><ele>9.0</ele><time>2026-03-22T09:05:45.296Z</time></trkpt><trkpt lat="45.1145514" lon="11.6073197"><ele>9.0</ele><time>2026-03-22T09:05:46.291Z</time></trkpt><trkpt lat="45.1145964" lon="11.6070228"><ele>9.333333333333334</ele><time>2026-03-22T09:05:47.295Z</time></trkpt><trkpt lat="45.1146234" lon="11.6067225"><ele>9.666666666666668</ele><time>2026-03-22T09:05:48.296Z</time></trkpt><trkpt lat="45.1146488" lon="11.6064101"><ele>10.0</ele><time>2026-03-22T09:05:49.301Z</time></trkpt><trkpt lat="45.1146521" lon="11.606092"><ele>10.0</ele><time>2026-03-22T09:05:50.295Z</time></trkpt><trkpt lat="45.1146372" lon="11.6057731"><ele>10.0</ele><time>2026-03-22T09:05:51.303Z</time></trkpt><trkpt lat="45.1146179" lon="11.6054606"><ele>10.0</ele><time>2026-03-22T09:05:52.301Z</time></trkpt><trkpt lat="45.114617" lon="11.6051657"><ele>9.666666666666668</ele><time>2026-03-22T09:05:53.303Z</time></trkpt><trkpt lat="45.1146578" lon="11.6049002"><ele>9.333333333333334</ele><time>2026-03-22T09:05:54.292Z</time></trkpt><trkpt lat="45.1147554" lon="11.604677"><ele>9.0</ele><time>2026-03-22T09:05:55.291Z</time></trkpt><trkpt lat="45.114868" lon="11.6044505"><ele>9.0</ele><time>2026-03-22T09:05:56.295Z</time></trkpt><trkpt lat="45.1149917" lon="11.6042138"><ele>9.0</ele><time>2026-03-22T09:05:57.297Z</time></trkpt><trkpt lat="45.1151291" lon="11.6039793"><ele>9.0</ele><time>2026-03-22T09:05:58.291Z</time></trkpt><trkpt lat="45.1152778" lon="11.603741"><ele>8.666666666666666</ele><time>2026-03-22T09:05:59.306Z</time></trkpt><trkpt lat="45.115431" lon="11.6035194"><ele>8.333333333333332</ele><time>2026-03-22T09:06:00.292Z</time></trkpt><trkpt lat="45.1155955" lon="11.6033192"><ele>8.0</ele><time>2026-03-22T09:06:01.298Z</time></trkpt><trkpt lat="45.1157863" lon="11.6031469"><ele>8.0</ele><time>2026-03-22T09:06:02.3Z</time></trkpt><trkpt lat="45.1159918" lon="11.6029918"><ele>8.0</ele><time>2026-03-22T09:06:03.295Z</time></trkpt><trkpt lat="45.1162008" lon="11.6028333"><ele>7.5</ele><time>2026-03-22T09:06:04.3Z</time></trkpt><trkpt lat="45.1164157" lon="11.6026806"><ele>7.0</ele><time>2026-03-22T09:06:05.304Z</time></trkpt><trkpt lat="45.1166238" lon="11.6025266"><ele>8.0</ele><time>2026-03-22T09:06:06.301Z</time></trkpt><trkpt lat="45.1168259" lon="11.6023793"><ele>9.0</ele><time>2026-03-22T09:06:07.301Z</time></trkpt><trkpt lat="45.1170212" lon="11.6022336"><ele>10.0</ele><time>2026-03-22T09:06:08.3Z</time></trkpt><trkpt lat="45.1172142" lon="11.6020873"><ele>10.0</ele><time>2026-03-22T09:06:09.3Z</time></trkpt><trkpt lat="45.1174" lon="11.6019449"><ele>10.0</ele><time>2026-03-22T09:06:10.311Z</time></trkpt><trkpt lat="45.1175755" lon="11.6017906"><ele>10.0</ele><time>2026-03-22T09:06:11.303Z</time></trkpt><trkpt lat="45.1177541" lon="11.6016385"><ele>10.0</ele><time>2026-03-22T09:06:12.304Z</time></trkpt><trkpt lat="45.1179191" lon="11.6014625"><ele>10.0</ele><time>2026-03-22T09:06:13.291Z</time></trkpt><trkpt lat="45.1180684" lon="11.6012571"><ele>10.0</ele><time>2026-03-22T09:06:14.294Z</time></trkpt><trkpt lat="45.1181903" lon="11.6010228"><ele>9.666666666666668</ele><time>2026-03-22T09:06:15.298Z</time></trkpt><trkpt lat="45.1182923" lon="11.6007675"><ele>9.333333333333334</ele><time>2026-03-22T09:06:16.305Z</time></trkpt><trkpt lat="45.1184012" lon="11.6005135"><ele>9.0</ele><time>2026-03-22T09:06:17.298Z</time></trkpt><trkpt lat="45.1185048" lon="11.6002489"><ele>9.0</ele><time>2026-03-22T09:06:18.299Z</time></trkpt><trkpt lat="45.1185957" lon="11.5999656"><ele>9.0</ele><time>2026-03-22T09:06:19.301Z</time></trkpt><trkpt lat="45.1186802" lon="11.5996724"><ele>9.0</ele><time>2026-03-22T09:06:20.3Z</time></trkpt><trkpt lat="45.1187529" lon="11.5993683"><ele>9.0</ele><time>2026-03-22T09:06:21.301Z</time></trkpt><trkpt lat="45.118819" lon="11.5990619"><ele>9.0</ele><time>2026-03-22T09:06:22.302Z</time></trkpt><trkpt lat="45.1188844" lon="11.5987489"><ele>8.5</ele><time>2026-03-22T09:06:23.308Z</time></trkpt><trkpt lat="45.1189332" lon="11.5984328"><ele>8.0</ele><time>2026-03-22T09:06:24.303Z</time></trkpt><trkpt lat="45.1189787" lon="11.5981187"><ele>8.5</ele><time>2026-03-22T09:06:25.31Z</time></trkpt><trkpt lat="45.119033" lon="11.5977935"><ele>9.0</ele><time>2026-03-22T09:06:26.31Z</time></trkpt><trkpt lat="45.1190843" lon="11.5974638"><ele>9.0</ele><time>2026-03-22T09:06:27.309Z</time></trkpt><trkpt lat="45.1191292" lon="11.597133"><ele>9.0</ele><time>2026-03-22T09:06:28.308Z</time></trkpt><trkpt lat="45.1191688" lon="11.5968018"><ele>9.5</ele><time>2026-03-22T09:06:29.316Z</time></trkpt><trkpt lat="45.1191934" lon="11.596463"><ele>10.0</ele><time>2026-03-22T09:06:30.307Z</time></trkpt><trkpt lat="45.1192099" lon="11.5961168"><ele>10.0</ele><time>2026-03-22T09:06:31.297Z</time></trkpt><trkpt lat="45.1192055" lon="11.5957689"><ele>10.0</ele><time>2026-03-22T09:06:32.305Z</time></trkpt><trkpt lat="45.1191887" lon="11.595422"><ele>9.0</ele><time>2026-03-22T09:06:33.299Z</time></trkpt><trkpt lat="45.1191476" lon="11.595067"><ele>8.0</ele><time>2026-03-22T09:06:34.303Z</time></trkpt><trkpt lat="45.1190944" lon="11.5947184"><ele>9.0</ele><time>2026-03-22T09:06:35.305Z</time></trkpt><trkpt lat="45.1190409" lon="11.5943698"><ele>10.0</ele><time>2026-03-22T09:06:36.306Z</time></trkpt><trkpt lat="45.1189834" lon="11.5940167"><ele>10.5</ele><time>2026-03-22T09:06:37.308Z</time></trkpt><trkpt lat="45.1189224" lon="11.5936688"><ele>11.0</ele><time>2026-03-22T09:06:38.314Z</time></trkpt><trkpt lat="45.1188603" lon="11.5933238"><ele>11.0</ele><time>2026-03-22T09:06:39.307Z</time></trkpt><trkpt lat="45.1188037" lon="11.592984"><ele>11.0</ele><time>2026-03-22T09:06:40.311Z</time></trkpt><trkpt lat="45.1187483" lon="11.5926462"><ele>10.0</ele><time>2026-03-22T09:06:41.313Z</time></trkpt><trkpt lat="45.1186883" lon="11.5923042"><ele>9.0</ele><time>2026-03-22T09:06:42.308Z</time></trkpt><trkpt lat="45.1186215" lon="11.5919634"><ele>9.0</ele><time>2026-03-22T09:06:43.31Z</time></trkpt><trkpt lat="45.1185501" lon="11.5916253"><ele>9.0</ele><time>2026-03-22T09:06:44.307Z</time></trkpt><trkpt lat="45.1184865" lon="11.5912925"><ele>9.0</ele><time>2026-03-22T09:06:45.306Z</time></trkpt><trkpt lat="45.1184275" lon="11.5909568"><ele>9.0</ele><time>2026-03-22T09:06:46.31Z</time></trkpt><trkpt lat="45.1183678" lon="11.5906214"><ele>9.0</ele><time>2026-03-22T09:06:47.309Z</time></trkpt><trkpt lat="45.1183242" lon="11.590275"><ele>9.0</ele><time>2026-03-22T09:06:48.303Z</time></trkpt><trkpt lat="45.1183054" lon="11.5899284"><ele>9.0</ele><time>2026-03-22T09:06:49.302Z</time></trkpt><trkpt lat="45.1182986" lon="11.5895858"><ele>9.0</ele><time>2026-03-22T09:06:50.307Z</time></trkpt><trkpt lat="45.1183002" lon="11.5892418"><ele>9.0</ele><time>2026-03-22T09:06:51.308Z</time></trkpt><trkpt lat="45.1183063" lon="11.5889156"><ele>9.0</ele><time>2026-03-22T09:06:52.307Z</time></trkpt><trkpt lat="45.1183165" lon="11.5886097"><ele>9.0</ele><time>2026-03-22T09:06:53.307Z</time></trkpt><trkpt lat="45.118318" lon="11.5883129"><ele>9.333333333333334</ele><time>2026-03-22T09:06:54.302Z</time></trkpt><trkpt lat="45.1183079" lon="11.588032"><ele>9.666666666666668</ele><time>2026-03-22T09:06:55.31Z</time></trkpt><trkpt lat="45.1182952" lon="11.587765"><ele>10.0</ele><time>2026-03-22T09:06:56.313Z</time></trkpt><trkpt lat="45.1182756" lon="11.5874838"><ele>10.0</ele><time>2026-03-22T09:06:57.312Z</time></trkpt><trkpt lat="45.1182523" lon="11.5871972"><ele>10.0</ele><time>2026-03-22T09:06:58.309Z</time></trkpt><trkpt lat="45.1182233" lon="11.5869045"><ele>10.0</ele><time>2026-03-22T09:06:59.316Z</time></trkpt><trkpt lat="45.1181988" lon="11.5866011"><ele>10.0</ele><time>2026-03-22T09:07:00.314Z</time></trkpt><trkpt lat="45.118177" lon="11.5863023"><ele>10.0</ele><time>2026-03-22T09:07:01.31Z</time></trkpt><trkpt lat="45.1181501" lon="11.5859922"><ele>10.0</ele><time>2026-03-22T09:07:02.313Z</time></trkpt><trkpt lat="45.1181253" lon="11.5856826"><ele>10.0</ele><time>2026-03-22T09:07:03.312Z</time></trkpt><trkpt lat="45.1181073" lon="11.5853815"><ele>10.0</ele><time>2026-03-22T09:07:04.303Z</time></trkpt><trkpt lat="45.1181111" lon="11.5850777"><ele>10.0</ele><time>2026-03-22T09:07:05.308Z</time></trkpt><trkpt lat="45.1181262" lon="11.5847818"><ele>10.0</ele><time>2026-03-22T09:07:06.302Z</time></trkpt><trkpt lat="45.1181631" lon="11.5845157"><ele>10.0</ele><time>2026-03-22T09:07:07.303Z</time></trkpt><trkpt lat="45.1182269" lon="11.584278"><ele>10.0</ele><time>2026-03-22T09:07:08.318Z</time></trkpt><trkpt lat="45.1183353" lon="11.5840871"><ele>10.0</ele><time>2026-03-22T09:07:09.315Z</time></trkpt><trkpt lat="45.1184905" lon="11.58395"><ele>10.0</ele><time>2026-03-22T09:07:10.307Z</time></trkpt><trkpt lat="45.118651" lon="11.583807"><ele>10.0</ele><time>2026-03-22T09:07:11.319Z</time></trkpt><trkpt lat="45.1188108" lon="11.5836457"><ele>10.333333333333334</ele><time>2026-03-22T09:07:12.315Z</time></trkpt><trkpt lat="45.1189574" lon="11.5834625"><ele>10.666666666666666</ele><time>2026-03-22T09:07:13.316Z</time></trkpt><trkpt lat="45.1191128" lon="11.5832571"><ele>11.0</ele><time>2026-03-22T09:07:14.322Z</time></trkpt><trkpt lat="45.1192762" lon="11.5830599"><ele>10.0</ele><time>2026-03-22T09:07:15.325Z</time></trkpt><trkpt lat="45.1194414" lon="11.5828738"><ele>9.0</ele><time>2026-03-22T09:07:16.313Z</time></trkpt><trkpt lat="45.1196237" lon="11.5827083"><ele>8.0</ele><time>2026-03-22T09:07:17.311Z</time></trkpt><trkpt lat="45.1198173" lon="11.5825768"><ele>8.333333333333332</ele><time>2026-03-22T09:07:18.308Z</time></trkpt><trkpt lat="45.1200207" lon="11.5824625"><ele>8.666666666666666</ele><time>2026-03-22T09:07:19.302Z</time></trkpt><trkpt lat="45.1202356" lon="11.5823584"><ele>9.0</ele><time>2026-03-22T09:07:20.307Z</time></trkpt><trkpt lat="45.1204496" lon="11.5822616"><ele>9.0</ele><time>2026-03-22T09:07:21.304Z</time></trkpt><trkpt lat="45.1206716" lon="11.5821785"><ele>9.0</ele><time>2026-03-22T09:07:22.308Z</time></trkpt><trkpt lat="45.1209007" lon="11.5820934"><ele>9.5</ele><time>2026-03-22T09:07:23.312Z</time></trkpt><trkpt lat="45.1211394" lon="11.5820166"><ele>10.0</ele><time>2026-03-22T09:07:24.31Z</time></trkpt><trkpt lat="45.1213753" lon="11.5819392"><ele>11.0</ele><time>2026-03-22T09:07:25.316Z</time></trkpt><trkpt lat="45.1216065" lon="11.5818627"><ele>12.0</ele><time>2026-03-22T09:07:26.311Z</time></trkpt><trkpt lat="45.1218425" lon="11.5817868"><ele>12.0</ele><time>2026-03-22T09:07:27.31Z</time></trkpt><trkpt lat="45.1220745" lon="11.5817035"><ele>12.0</ele><time>2026-03-22T09:07:28.312Z</time></trkpt><trkpt lat="45.1223049" lon="11.5816047"><ele>11.5</ele><time>2026-03-22T09:07:29.317Z</time></trkpt><trkpt lat="45.122521" lon="11.5814898"><ele>11.0</ele><time>2026-03-22T09:07:30.302Z</time></trkpt><trkpt lat="45.1227307" lon="11.5813631"><ele>11.0</ele><time>2026-03-22T09:07:31.298Z</time></trkpt><trkpt lat="45.1229168" lon="11.5811964"><ele>11.0</ele><time>2026-03-22T09:07:32.303Z</time></trkpt><trkpt lat="45.1230875" lon="11.5810154"><ele>11.0</ele><time>2026-03-22T09:07:33.299Z</time></trkpt><trkpt lat="45.1232397" lon="11.5808103"><ele>11.0</ele><time>2026-03-22T09:07:34.315Z</time></trkpt><trkpt lat="45.1233881" lon="11.5805812"><ele>11.0</ele><time>2026-03-22T09:07:35.304Z</time></trkpt><trkpt lat="45.1235372" lon="11.5803477"><ele>11.0</ele><time>2026-03-22T09:07:36.315Z</time></trkpt><trkpt lat="45.1236798" lon="11.5801269"><ele>10.666666666666666</ele><time>2026-03-22T09:07:37.304Z</time></trkpt><trkpt lat="45.1238213" lon="11.579905"><ele>10.333333333333334</ele><time>2026-03-22T09:07:38.312Z</time></trkpt><trkpt lat="45.1239631" lon="11.5796874"><ele>10.0</ele><time>2026-03-22T09:07:39.317Z</time></trkpt><trkpt lat="45.1241078" lon="11.5794646"><ele>9.666666666666668</ele><time>2026-03-22T09:07:40.312Z</time></trkpt><trkpt lat="45.1242488" lon="11.5792382"><ele>9.333333333333334</ele><time>2026-03-22T09:07:41.32Z</time></trkpt><trkpt lat="45.1243916" lon="11.5790107"><ele>9.0</ele><time>2026-03-22T09:07:42.309Z</time></trkpt><trkpt lat="45.1245153" lon="11.5787842"><ele>8.666666666666666</ele><time>2026-03-22T09:07:43.315Z</time></trkpt><trkpt lat="45.1246324" lon="11.5785473"><ele>8.333333333333332</ele><time>2026-03-22T09:07:44.315Z</time></trkpt><trkpt lat="45.1247409" lon="11.5783001"><ele>8.0</ele><time>2026-03-22T09:07:45.313Z</time></trkpt><trkpt lat="45.1248465" lon="11.5780463"><ele>9.0</ele><time>2026-03-22T09:07:46.304Z</time></trkpt><trkpt lat="45.1249382" lon="11.5777776"><ele>10.0</ele><time>2026-03-22T09:07:47.307Z</time></trkpt><trkpt lat="45.1250077" lon="11.5775152"><ele>11.0</ele><time>2026-03-22T09:07:48.301Z</time></trkpt><trkpt lat="45.1250719" lon="11.5772608"><ele>11.0</ele><time>2026-03-22T09:07:49.302Z</time></trkpt><trkpt lat="45.125127" lon="11.5770219"><ele>11.0</ele><time>2026-03-22T09:07:50.302Z</time></trkpt><trkpt lat="45.1251708" lon="11.5768001"><ele>11.0</ele><time>2026-03-22T09:07:51.305Z</time></trkpt><trkpt lat="45.1252019" lon="11.5765866"><ele>11.0</ele><time>2026-03-22T09:07:52.313Z</time></trkpt><trkpt lat="45.1252271" lon="11.5763724"><ele>11.0</ele><time>2026-03-22T09:07:53.317Z</time></trkpt><trkpt lat="45.1252616" lon="11.5761613"><ele>11.0</ele><time>2026-03-22T09:07:54.308Z</time></trkpt><trkpt lat="45.1253055" lon="11.5759526"><ele>11.0</ele><time>2026-03-22T09:07:55.308Z</time></trkpt><trkpt lat="45.125336" lon="11.5757502"><ele>11.0</ele><time>2026-03-22T09:07:56.306Z</time></trkpt><trkpt lat="45.1253543" lon="11.5755347"><ele>11.0</ele><time>2026-03-22T09:07:57.306Z</time></trkpt><trkpt lat="45.1253705" lon="11.5753129"><ele>11.0</ele><time>2026-03-22T09:07:58.304Z</time></trkpt><trkpt lat="45.125373" lon="11.5750771"><ele>11.0</ele><time>2026-03-22T09:07:59.311Z</time></trkpt><trkpt lat="45.1253634" lon="11.5748544"><ele>11.0</ele><time>2026-03-22T09:08:00.319Z</time></trkpt><trkpt lat="45.1253527" lon="11.5746422"><ele>10.666666666666666</ele><time>2026-03-22T09:08:01.309Z</time></trkpt><trkpt lat="45.1253465" lon="11.5744361"><ele>10.333333333333334</ele><time>2026-03-22T09:08:02.316Z</time></trkpt><trkpt lat="45.1253461" lon="11.5742228"><ele>10.0</ele><time>2026-03-22T09:08:03.312Z</time></trkpt><trkpt lat="45.1253565" lon="11.5739953"><ele>10.0</ele><time>2026-03-22T09:08:04.307Z</time></trkpt><trkpt lat="45.1253673" lon="11.573752"><ele>10.0</ele><time>2026-03-22T09:08:05.304Z</time></trkpt><trkpt lat="45.1253845" lon="11.5734964"><ele>10.0</ele><time>2026-03-22T09:08:06.309Z</time></trkpt><trkpt lat="45.1254131" lon="11.5732271"><ele>10.0</ele><time>2026-03-22T09:08:07.306Z</time></trkpt><trkpt lat="45.1254539" lon="11.5729531"><ele>10.0</ele><time>2026-03-22T09:08:08.299Z</time></trkpt><trkpt lat="45.1254995" lon="11.572689"><ele>10.0</ele><time>2026-03-22T09:08:09.31Z</time></trkpt><trkpt lat="45.1255307" lon="11.5724259"><ele>10.333333333333334</ele><time>2026-03-22T09:08:10.299Z</time></trkpt><trkpt lat="45.1255366" lon="11.5721708"><ele>10.666666666666666</ele><time>2026-03-22T09:08:11.299Z</time></trkpt><trkpt lat="45.1255208" lon="11.5719339"><ele>11.0</ele><time>2026-03-22T09:08:12.308Z</time></trkpt><trkpt lat="45.125463" lon="11.5717096"><ele>11.333333333333332</ele><time>2026-03-22T09:08:13.307Z</time></trkpt><trkpt lat="45.1253763" lon="11.5714916"><ele>11.666666666666666</ele><time>2026-03-22T09:08:14.301Z</time></trkpt><trkpt lat="45.1252646" lon="11.5712735"><ele>12.0</ele><time>2026-03-22T09:08:15.309Z</time></trkpt><trkpt lat="45.1251565" lon="11.5710419"><ele>10.666666666666666</ele><time>2026-03-22T09:08:16.306Z</time></trkpt><trkpt lat="45.1250842" lon="11.5707898"><ele>9.333333333333332</ele><time>2026-03-22T09:08:17.303Z</time></trkpt><trkpt lat="45.1250565" lon="11.5704995"><ele>8.0</ele><time>2026-03-22T09:08:18.306Z</time></trkpt><trkpt lat="45.1250742" lon="11.5702161"><ele>7.333333333333333</ele><time>2026-03-22T09:08:19.302Z</time></trkpt><trkpt lat="45.1250847" lon="11.5699131"><ele>6.666666666666666</ele><time>2026-03-22T09:08:20.314Z</time></trkpt><trkpt lat="45.1250892" lon="11.5695984"><ele>6.0</ele><time>2026-03-22T09:08:21.305Z</time></trkpt><trkpt lat="45.1250909" lon="11.5692825"><ele>6.0</ele><time>2026-03-22T09:08:22.31Z</time></trkpt><trkpt lat="45.1251001" lon="11.5689629"><ele>6.0</ele><time>2026-03-22T09:08:23.315Z</time></trkpt><trkpt lat="45.1251091" lon="11.5686499"><ele>6.0</ele><time>2026-03-22T09:08:24.317Z</time></trkpt><trkpt lat="45.1251159" lon="11.5683338"><ele>6.0</ele><time>2026-03-22T09:08:25.311Z</time></trkpt><trkpt lat="45.1251216" lon="11.5680294"><ele>6.0</ele><time>2026-03-22T09:08:26.313Z</time></trkpt><trkpt lat="45.125127" lon="11.567742"><ele>6.0</ele><time>2026-03-22T09:08:27.309Z</time></trkpt><trkpt lat="45.1251326" lon="11.567462"><ele>5.666666666666667</ele><time>2026-03-22T09:08:28.315Z</time></trkpt><trkpt lat="45.1251355" lon="11.5671834"><ele>5.333333333333334</ele><time>2026-03-22T09:08:29.32Z</time></trkpt><trkpt lat="45.1251419" lon="11.5669103"><ele>5.0</ele><time>2026-03-22T09:08:30.313Z</time></trkpt><trkpt lat="45.1251472" lon="11.5666373"><ele>5.666666666666667</ele><time>2026-03-22T09:08:31.318Z</time></trkpt><trkpt lat="45.1251523" lon="11.5663688"><ele>6.333333333333334</ele><time>2026-03-22T09:08:32.321Z</time></trkpt><trkpt lat="45.1251549" lon="11.5660855"><ele>7.0</ele><time>2026-03-22T09:08:33.314Z</time></trkpt><trkpt lat="45.125159" lon="11.5658073"><ele>7.0</ele><time>2026-03-22T09:08:34.315Z</time></trkpt><trkpt lat="45.1251663" lon="11.5655344"><ele>7.0</ele><time>2026-03-22T09:08:35.314Z</time></trkpt><trkpt lat="45.1251768" lon="11.5652604"><ele>7.0</ele><time>2026-03-22T09:08:36.326Z</time></trkpt><trkpt lat="45.12519" lon="11.5649807"><ele>7.0</ele><time>2026-03-22T09:08:37.315Z</time></trkpt><trkpt lat="45.1251958" lon="11.5646923"><ele>7.0</ele><time>2026-03-22T09:08:38.318Z</time></trkpt><trkpt lat="45.1252049" lon="11.5643989"><ele>7.0</ele><time>2026-03-22T09:08:39.315Z</time></trkpt><trkpt lat="45.1252182" lon="11.5641014"><ele>6.666666666666667</ele><time>2026-03-22T09:08:40.313Z</time></trkpt><trkpt lat="45.1252318" lon="11.5638037"><ele>6.333333333333334</ele><time>2026-03-22T09:08:41.31Z</time></trkpt><trkpt lat="45.125246" lon="11.5635025"><ele>6.0</ele><time>2026-03-22T09:08:42.312Z</time></trkpt><trkpt lat="45.1252637" lon="11.5632034"><ele>6.0</ele><time>2026-03-22T09:08:43.316Z</time></trkpt><trkpt lat="45.1252865" lon="11.5629052"><ele>6.0</ele><time>2026-03-22T09:08:44.313Z</time></trkpt><trkpt lat="45.125302" lon="11.5626025"><ele>6.0</ele><time>2026-03-22T09:08:45.319Z</time></trkpt><trkpt lat="45.1253112" lon="11.5623039"><ele>5.666666666666667</ele><time>2026-03-22T09:08:46.311Z</time></trkpt><trkpt lat="45.1253197" lon="11.5620155"><ele>5.333333333333334</ele><time>2026-03-22T09:08:47.32Z</time></trkpt><trkpt lat="45.1253287" lon="11.5617322"><ele>5.0</ele><time>2026-03-22T09:08:48.317Z</time></trkpt><trkpt lat="45.1253423" lon="11.5614519"><ele>5.0</ele><time>2026-03-22T09:08:49.327Z</time></trkpt><trkpt lat="45.1253559" lon="11.5611857"><ele>5.0</ele><time>2026-03-22T09:08:50.311Z</time></trkpt><trkpt lat="45.1253722" lon="11.5609343"><ele>5.0</ele><time>2026-03-22T09:08:51.315Z</time></trkpt><trkpt lat="45.1253829" lon="11.5606804"><ele>5.0</ele><time>2026-03-22T09:08:52.316Z</time></trkpt><trkpt lat="45.1253985" lon="11.5604437"><ele>5.0</ele><time>2026-03-22T09:08:53.318Z</time></trkpt><trkpt lat="45.1254161" lon="11.5602322"><ele>5.0</ele><time>2026-03-22T09:08:54.309Z</time></trkpt><trkpt lat="45.125423" lon="11.560042"><ele>5.2</ele><time>2026-03-22T09:08:55.31Z</time></trkpt><trkpt lat="45.125427" lon="11.5598655"><ele>5.4</ele><time>2026-03-22T09:08:56.316Z</time></trkpt><trkpt lat="45.1254444" lon="11.5597038"><ele>5.6</ele><time>2026-03-22T09:08:57.308Z</time></trkpt><trkpt lat="45.1254568" lon="11.5595542"><ele>5.8</ele><time>2026-03-22T09:08:58.306Z</time></trkpt><trkpt lat="45.1254672" lon="11.5594308"><ele>6.0</ele><time>2026-03-22T09:08:59.316Z</time></trkpt><trkpt lat="45.125478" lon="11.5593149"><ele>6.0</ele><time>2026-03-22T09:09:00.315Z</time></trkpt><trkpt lat="45.1254926" lon="11.5592055"><ele>6.0</ele><time>2026-03-22T09:09:01.314Z</time></trkpt><trkpt lat="45.1255134" lon="11.5591043"><ele>6.0</ele><time>2026-03-22T09:09:02.309Z</time></trkpt><trkpt lat="45.1255427" lon="11.5590042"><ele>6.0</ele><time>2026-03-22T09:09:03.31Z</time></trkpt><trkpt lat="45.1255712" lon="11.5588979"><ele>6.0</ele><time>2026-03-22T09:09:04.306Z</time></trkpt><trkpt lat="45.1255903" lon="11.5587793"><ele>6.0</ele><time>2026-03-22T09:09:05.309Z</time></trkpt><trkpt lat="45.1255899" lon="11.5586417"><ele>6.25</ele><time>2026-03-22T09:09:06.31Z</time></trkpt><trkpt lat="45.1255809" lon="11.5584681"><ele>6.5</ele><time>2026-03-22T09:09:07.311Z</time></trkpt><trkpt lat="45.1255762" lon="11.5582654"><ele>6.75</ele><time>2026-03-22T09:09:08.305Z</time></trkpt><trkpt lat="45.1255825" lon="11.5580526"><ele>7.0</ele><time>2026-03-22T09:09:09.314Z</time></trkpt><trkpt lat="45.1255945" lon="11.5578287"><ele>7.0</ele><time>2026-03-22T09:09:10.314Z</time></trkpt><trkpt lat="45.1256152" lon="11.5576089"><ele>7.0</ele><time>2026-03-22T09:09:11.315Z</time></trkpt><trkpt lat="45.1256331" lon="11.5573928"><ele>7.0</ele><time>2026-03-22T09:09:12.306Z</time></trkpt><trkpt lat="45.1256575" lon="11.5571751"><ele>7.0</ele><time>2026-03-22T09:09:13.313Z</time></trkpt><trkpt lat="45.1256775" lon="11.5569519"><ele>7.0</ele><time>2026-03-22T09:09:14.312Z</time></trkpt><trkpt lat="45.1256926" lon="11.5567368"><ele>7.0</ele><time>2026-03-22T09:09:15.316Z</time></trkpt><trkpt lat="45.1257007" lon="11.5565463"><ele>7.0</ele><time>2026-03-22T09:09:16.31Z</time></trkpt><trkpt lat="45.1257142" lon="11.5563585"><ele>7.0</ele><time>2026-03-22T09:09:17.314Z</time></trkpt><trkpt lat="45.1257283" lon="11.5561563"><ele>7.0</ele><time>2026-03-22T09:09:18.31Z</time></trkpt><trkpt lat="45.1257464" lon="11.5559439"><ele>7.0</ele><time>2026-03-22T09:09:19.315Z</time></trkpt><trkpt lat="45.1257662" lon="11.5557195"><ele>7.0</ele><time>2026-03-22T09:09:20.307Z</time></trkpt><trkpt lat="45.1257813" lon="11.55548"><ele>7.0</ele><time>2026-03-22T09:09:21.305Z</time></trkpt><trkpt lat="45.1257933" lon="11.5552227"><ele>7.0</ele><time>2026-03-22T09:09:22.312Z</time></trkpt><trkpt lat="45.1258143" lon="11.5549511"><ele>7.0</ele><time>2026-03-22T09:09:23.321Z</time></trkpt><trkpt lat="45.1258316" lon="11.5546729"><ele>7.0</ele><time>2026-03-22T09:09:24.315Z</time></trkpt><trkpt lat="45.1258511" lon="11.5543867"><ele>7.0</ele><time>2026-03-22T09:09:25.314Z</time></trkpt><trkpt lat="45.1258678" lon="11.5540969"><ele>7.0</ele><time>2026-03-22T09:09:26.31Z</time></trkpt><trkpt lat="45.1258956" lon="11.5538014"><ele>7.0</ele><time>2026-03-22T09:09:27.315Z</time></trkpt><trkpt lat="45.1259218" lon="11.5535045"><ele>7.0</ele><time>2026-03-22T09:09:28.315Z</time></trkpt><trkpt lat="45.1259453" lon="11.5532117"><ele>7.0</ele><time>2026-03-22T09:09:29.322Z</time></trkpt><trkpt lat="45.125976" lon="11.5529153"><ele>7.0</ele><time>2026-03-22T09:09:30.312Z</time></trkpt><trkpt lat="45.1260098" lon="11.5526364"><ele>7.0</ele><time>2026-03-22T09:09:31.321Z</time></trkpt><trkpt lat="45.1260527" lon="11.5523818"><ele>7.333333333333334</ele><time>2026-03-22T09:09:32.32Z</time></trkpt><trkpt lat="45.1260839" lon="11.5521403"><ele>7.666666666666666</ele><time>2026-03-22T09:09:33.311Z</time></trkpt><trkpt lat="45.1261114" lon="11.5519143"><ele>8.0</ele><time>2026-03-22T09:09:34.309Z</time></trkpt><trkpt lat="45.1261374" lon="11.5516928"><ele>8.0</ele><time>2026-03-22T09:09:35.314Z</time></trkpt><trkpt lat="45.1261614" lon="11.5514739"><ele>8.0</ele><time>2026-03-22T09:09:36.309Z</time></trkpt><trkpt lat="45.1261855" lon="11.55125"><ele>8.0</ele><time>2026-03-22T09:09:37.311Z</time></trkpt><trkpt lat="45.1262099" lon="11.5510147"><ele>8.666666666666666</ele><time>2026-03-22T09:09:38.313Z</time></trkpt><trkpt lat="45.1262268" lon="11.5507769"><ele>9.333333333333334</ele><time>2026-03-22T09:09:39.306Z</time></trkpt><trkpt lat="45.1262424" lon="11.5505413"><ele>10.0</ele><time>2026-03-22T09:09:40.312Z</time></trkpt><trkpt lat="45.1262645" lon="11.5503044"><ele>10.333333333333334</ele><time>2026-03-22T09:09:41.31Z</time></trkpt><trkpt lat="45.1262826" lon="11.5500646"><ele>10.666666666666666</ele><time>2026-03-22T09:09:42.308Z</time></trkpt><trkpt lat="45.1263006" lon="11.5498274"><ele>11.0</ele><time>2026-03-22T09:09:43.297Z</time></trkpt><trkpt lat="45.1263264" lon="11.5495995"><ele>11.0</ele><time>2026-03-22T09:09:44.302Z</time></trkpt><trkpt lat="45.1263519" lon="11.5493623"><ele>11.0</ele><time>2026-03-22T09:09:45.3Z</time></trkpt><trkpt lat="45.126378" lon="11.5491243"><ele>11.0</ele><time>2026-03-22T09:09:46.296Z</time></trkpt><trkpt lat="45.1264002" lon="11.5488851"><ele>11.0</ele><time>2026-03-22T09:09:47.303Z</time></trkpt><trkpt lat="45.1264155" lon="11.5486554"><ele>11.0</ele><time>2026-03-22T09:09:48.294Z</time></trkpt><trkpt lat="45.1264355" lon="11.5484416"><ele>11.0</ele><time>2026-03-22T09:09:49.302Z</time></trkpt><trkpt lat="45.1264544" lon="11.5482391"><ele>11.0</ele><time>2026-03-22T09:09:50.296Z</time></trkpt><trkpt lat="45.1264701" lon="11.5480797"><ele>11.0</ele><time>2026-03-22T09:09:51.286Z</time></trkpt><trkpt lat="45.1264992" lon="11.5479469"><ele>11.0</ele><time>2026-03-22T09:09:52.286Z</time></trkpt><trkpt lat="45.1265176" lon="11.5478418"><ele>11.0</ele><time>2026-03-22T09:09:53.287Z</time></trkpt><trkpt lat="45.1265348" lon="11.5477525"><ele>11.0</ele><time>2026-03-22T09:09:54.287Z</time></trkpt><trkpt lat="45.1265594" lon="11.5476681"><ele>11.0</ele><time>2026-03-22T09:09:55.292Z</time></trkpt><trkpt lat="45.1266112" lon="11.5476092"><ele>11.0</ele><time>2026-03-22T09:09:56.289Z</time></trkpt><trkpt lat="45.1266866" lon="11.5475747"><ele>11.0</ele><time>2026-03-22T09:09:57.295Z</time></trkpt><trkpt lat="45.1267628" lon="11.5475654"><ele>11.0</ele><time>2026-03-22T09:09:58.286Z</time></trkpt><trkpt lat="45.1268323" lon="11.5475703"><ele>11.0</ele><time>2026-03-22T09:09:59.284Z</time></trkpt><trkpt lat="45.1269175" lon="11.5475714"><ele>11.0</ele><time>2026-03-22T09:10:01.292Z</time></trkpt><trkpt lat="45.1269828" lon="11.5475891"><ele>11.0</ele><time>2026-03-22T09:10:03.295Z</time></trkpt><trkpt lat="45.1270692" lon="11.5476174"><ele>11.0</ele><time>2026-03-22T09:10:06.288Z</time></trkpt><trkpt lat="45.1271448" lon="11.5476976"><ele>11.0</ele><time>2026-03-22T09:10:08.292Z</time></trkpt><trkpt lat="45.1272318" lon="11.5478405"><ele>11.0</ele><time>2026-03-22T09:10:10.295Z</time></trkpt><trkpt lat="45.1272755" lon="11.5479211"><ele>11.0</ele><time>2026-03-22T09:10:11.298Z</time></trkpt><trkpt lat="45.1273251" lon="11.5479961"><ele>11.0</ele><time>2026-03-22T09:10:12.297Z</time></trkpt><trkpt lat="45.1273784" lon="11.5480734"><ele>11.0</ele><time>2026-03-22T09:10:13.292Z</time></trkpt><trkpt lat="45.1274339" lon="11.54816"><ele>10.5</ele><time>2026-03-22T09:10:14.296Z</time></trkpt><trkpt lat="45.1274891" lon="11.5482406"><ele>10.0</ele><time>2026-03-22T09:10:15.299Z</time></trkpt><trkpt lat="45.1275468" lon="11.5483103"><ele>9.5</ele><time>2026-03-22T09:10:16.296Z</time></trkpt><trkpt lat="45.1275994" lon="11.5483749"><ele>9.0</ele><time>2026-03-22T09:10:17.289Z</time></trkpt><trkpt lat="45.1276874" lon="11.5484545"><ele>8.5</ele><time>2026-03-22T09:10:19.291Z</time></trkpt><trkpt lat="45.1277499" lon="11.5484958"><ele>8.0</ele><time>2026-03-22T09:10:22.286Z</time></trkpt><trkpt lat="45.1278136" lon="11.5484521"><ele>7.999999999999999</ele><time>2026-03-22T09:10:27.291Z</time></trkpt><trkpt lat="45.1278435" lon="11.5483501"><ele>8.0</ele><time>2026-03-22T09:10:32.304Z</time></trkpt><trkpt lat="45.1277793" lon="11.5484129"><ele>8.0</ele><time>2026-03-22T09:32:12.28Z</time></trkpt><trkpt lat="45.127709" lon="11.548438"><ele>8.0</ele><time>2026-03-22T09:32:15.281Z</time></trkpt><trkpt lat="45.1276428" lon="11.5483977"><ele>7.999999999999999</ele><time>2026-03-22T09:32:17.278Z</time></trkpt><trkpt lat="45.12755" lon="11.5482988"><ele>8.0</ele><time>2026-03-22T09:32:19.287Z</time></trkpt><trkpt lat="45.1275013" lon="11.5482345"><ele>8.0</ele><time>2026-03-22T09:32:20.287Z</time></trkpt><trkpt lat="45.127455" lon="11.5481611"><ele>7.999999999999999</ele><time>2026-03-22T09:32:21.298Z</time></trkpt><trkpt lat="45.1274111" lon="11.5480853"><ele>8.0</ele><time>2026-03-22T09:32:22.289Z</time></trkpt><trkpt lat="45.1273707" lon="11.5480084"><ele>8.0</ele><time>2026-03-22T09:32:23.29Z</time></trkpt><trkpt lat="45.1273293" lon="11.5479325"><ele>7.999999999999999</ele><time>2026-03-22T09:32:24.286Z</time></trkpt><trkpt lat="45.1272894" lon="11.5478528"><ele>8.0</ele><time>2026-03-22T09:32:25.287Z</time></trkpt><trkpt lat="45.1272547" lon="11.5477704"><ele>8.0</ele><time>2026-03-22T09:32:26.285Z</time></trkpt><trkpt lat="45.1272179" lon="11.5476831"><ele>8.600000000000001</ele><time>2026-03-22T09:32:27.285Z</time></trkpt><trkpt lat="45.127181" lon="11.5475866"><ele>9.200000000000001</ele><time>2026-03-22T09:32:28.29Z</time></trkpt><trkpt lat="45.1271417" lon="11.5474796"><ele>9.8</ele><time>2026-03-22T09:32:29.295Z</time></trkpt><trkpt lat="45.1271062" lon="11.5473512"><ele>10.4</ele><time>2026-03-22T09:32:30.285Z</time></trkpt><trkpt lat="45.1270731" lon="11.5472091"><ele>11.0</ele><time>2026-03-22T09:32:31.289Z</time></trkpt><trkpt lat="45.1270435" lon="11.5470672"><ele>11.0</ele><time>2026-03-22T09:32:32.29Z</time></trkpt><trkpt lat="45.1270177" lon="11.5469181"><ele>11.0</ele><time>2026-03-22T09:32:33.285Z</time></trkpt><trkpt lat="45.126993" lon="11.5467658"><ele>11.0</ele><time>2026-03-22T09:32:34.289Z</time></trkpt><trkpt lat="45.1269616" lon="11.5466198"><ele>11.0</ele><time>2026-03-22T09:32:35.286Z</time></trkpt><trkpt lat="45.1269318" lon="11.546476"><ele>11.0</ele><time>2026-03-22T09:32:36.286Z</time></trkpt><trkpt lat="45.1268979" lon="11.5463311"><ele>10.75</ele><time>2026-03-22T09:32:37.297Z</time></trkpt><trkpt lat="45.1268643" lon="11.5461776"><ele>10.5</ele><time>2026-03-22T09:32:38.289Z</time></trkpt><trkpt lat="45.1268306" lon="11.5460118"><ele>10.25</ele><time>2026-03-22T09:32:39.289Z</time></trkpt><trkpt lat="45.1267981" lon="11.5458317"><ele>10.0</ele><time>2026-03-22T09:32:40.289Z</time></trkpt><trkpt lat="45.1267709" lon="11.5456524"><ele>10.0</ele><time>2026-03-22T09:32:41.289Z</time></trkpt><trkpt lat="45.1267488" lon="11.5454638"><ele>10.0</ele><time>2026-03-22T09:32:42.286Z</time></trkpt><trkpt lat="45.1267339" lon="11.545269"><ele>10.0</ele><time>2026-03-22T09:32:43.291Z</time></trkpt><trkpt lat="45.126725" lon="11.5450626"><ele>10.0</ele><time>2026-03-22T09:32:44.289Z</time></trkpt><trkpt lat="45.1267151" lon="11.5448306"><ele>9.666666666666668</ele><time>2026-03-22T09:32:45.297Z</time></trkpt><trkpt lat="45.1267054" lon="11.5445998"><ele>9.333333333333334</ele><time>2026-03-22T09:32:46.293Z</time></trkpt><trkpt lat="45.1266848" lon="11.5443625"><ele>9.0</ele><time>2026-03-22T09:32:47.287Z</time></trkpt><trkpt lat="45.1266573" lon="11.544133"><ele>9.0</ele><time>2026-03-22T09:32:48.292Z</time></trkpt><trkpt lat="45.1266273" lon="11.5439081"><ele>9.0</ele><time>2026-03-22T09:32:49.297Z</time></trkpt><trkpt lat="45.1265939" lon="11.5436808"><ele>9.0</ele><time>2026-03-22T09:32:50.295Z</time></trkpt><trkpt lat="45.1265673" lon="11.5434634"><ele>8.666666666666666</ele><time>2026-03-22T09:32:51.29Z</time></trkpt><trkpt lat="45.1265413" lon="11.5432441"><ele>8.333333333333332</ele><time>2026-03-22T09:32:52.291Z</time></trkpt><trkpt lat="45.1265204" lon="11.5430222"><ele>8.0</ele><time>2026-03-22T09:32:53.294Z</time></trkpt><trkpt lat="45.1265003" lon="11.54279"><ele>8.0</ele><time>2026-03-22T09:32:54.295Z</time></trkpt><trkpt lat="45.1264876" lon="11.5425585"><ele>8.0</ele><time>2026-03-22T09:32:55.296Z</time></trkpt><trkpt lat="45.1264832" lon="11.5423344"><ele>8.0</ele><time>2026-03-22T09:32:56.298Z</time></trkpt><trkpt lat="45.1264863" lon="11.5420926"><ele>7.666666666666666</ele><time>2026-03-22T09:32:57.291Z</time></trkpt><trkpt lat="45.1265041" lon="11.5418539"><ele>7.333333333333334</ele><time>2026-03-22T09:32:58.292Z</time></trkpt><trkpt lat="45.126525" lon="11.5416253"><ele>7.0</ele><time>2026-03-22T09:32:59.302Z</time></trkpt><trkpt lat="45.1265428" lon="11.5414034"><ele>7.333333333333334</ele><time>2026-03-22T09:33:00.3Z</time></trkpt><trkpt lat="45.126559" lon="11.5411837"><ele>7.666666666666666</ele><time>2026-03-22T09:33:01.289Z</time></trkpt><trkpt lat="45.1265707" lon="11.5409473"><ele>8.0</ele><time>2026-03-22T09:33:02.299Z</time></trkpt><trkpt lat="45.126586" lon="11.5407145"><ele>8.0</ele><time>2026-03-22T09:33:03.295Z</time></trkpt><trkpt lat="45.1265974" lon="11.540486"><ele>8.0</ele><time>2026-03-22T09:33:04.3Z</time></trkpt><trkpt lat="45.1266075" lon="11.5402523"><ele>8.0</ele><time>2026-03-22T09:33:05.291Z</time></trkpt><trkpt lat="45.1266231" lon="11.5400292"><ele>8.0</ele><time>2026-03-22T09:33:06.293Z</time></trkpt><trkpt lat="45.1266385" lon="11.5398122"><ele>8.0</ele><time>2026-03-22T09:33:07.29Z</time></trkpt><trkpt lat="45.126653" lon="11.5395922"><ele>8.0</ele><time>2026-03-22T09:33:08.298Z</time></trkpt><trkpt lat="45.1266654" lon="11.5393756"><ele>8.0</ele><time>2026-03-22T09:33:09.293Z</time></trkpt><trkpt lat="45.1266739" lon="11.5391594"><ele>8.0</ele><time>2026-03-22T09:33:10.291Z</time></trkpt><trkpt lat="45.1266768" lon="11.5389415"><ele>8.0</ele><time>2026-03-22T09:33:11.289Z</time></trkpt><trkpt lat="45.1266714" lon="11.538709"><ele>8.0</ele><time>2026-03-22T09:33:12.295Z</time></trkpt><trkpt lat="45.1266524" lon="11.5384752"><ele>8.0</ele><time>2026-03-22T09:33:13.292Z</time></trkpt><trkpt lat="45.1266245" lon="11.5382323"><ele>8.0</ele><time>2026-03-22T09:33:14.292Z</time></trkpt><trkpt lat="45.1265964" lon="11.5379898"><ele>8.0</ele><time>2026-03-22T09:33:15.295Z</time></trkpt><trkpt lat="45.1265729" lon="11.5377355"><ele>8.0</ele><time>2026-03-22T09:33:16.292Z</time></trkpt><trkpt lat="45.1265389" lon="11.5374903"><ele>8.0</ele><time>2026-03-22T09:33:17.299Z</time></trkpt><trkpt lat="45.1265042" lon="11.5372396"><ele>8.0</ele><time>2026-03-22T09:33:18.292Z</time></trkpt><trkpt lat="45.1264593" lon="11.5369817"><ele>8.0</ele><time>2026-03-22T09:33:19.301Z</time></trkpt><trkpt lat="45.1264034" lon="11.5367227"><ele>8.0</ele><time>2026-03-22T09:33:20.293Z</time></trkpt><trkpt lat="45.1263329" lon="11.5364516"><ele>8.333333333333332</ele><time>2026-03-22T09:33:21.293Z</time></trkpt><trkpt lat="45.1262622" lon="11.5361856"><ele>8.666666666666666</ele><time>2026-03-22T09:33:22.295Z</time></trkpt><trkpt lat="45.1261778" lon="11.5359178"><ele>9.0</ele><time>2026-03-22T09:33:23.299Z</time></trkpt><trkpt lat="45.1260971" lon="11.5356524"><ele>9.0</ele><time>2026-03-22T09:33:24.297Z</time></trkpt><trkpt lat="45.1260146" lon="11.5354018"><ele>9.0</ele><time>2026-03-22T09:33:25.294Z</time></trkpt><trkpt lat="45.1259259" lon="11.535145"><ele>9.0</ele><time>2026-03-22T09:33:26.294Z</time></trkpt><trkpt lat="45.1258404" lon="11.5348938"><ele>8.666666666666666</ele><time>2026-03-22T09:33:27.294Z</time></trkpt><trkpt lat="45.125755" lon="11.5346364"><ele>8.333333333333332</ele><time>2026-03-22T09:33:28.298Z</time></trkpt><trkpt lat="45.1256736" lon="11.5343961"><ele>8.0</ele><time>2026-03-22T09:33:29.298Z</time></trkpt><trkpt lat="45.1255915" lon="11.5341442"><ele>8.0</ele><time>2026-03-22T09:33:30.299Z</time></trkpt><trkpt lat="45.1255114" lon="11.5338954"><ele>8.0</ele><time>2026-03-22T09:33:31.296Z</time></trkpt><trkpt lat="45.1254243" lon="11.5336454"><ele>8.0</ele><time>2026-03-22T09:33:32.299Z</time></trkpt><trkpt lat="45.1253409" lon="11.5334009"><ele>8.0</ele><time>2026-03-22T09:33:33.288Z</time></trkpt><trkpt lat="45.1252548" lon="11.5331513"><ele>8.0</ele><time>2026-03-22T09:33:34.291Z</time></trkpt><trkpt lat="45.1251752" lon="11.5329003"><ele>8.0</ele><time>2026-03-22T09:33:35.292Z</time></trkpt><trkpt lat="45.1250855" lon="11.5326429"><ele>8.0</ele><time>2026-03-22T09:33:36.291Z</time></trkpt><trkpt lat="45.1249973" lon="11.5323856"><ele>8.0</ele><time>2026-03-22T09:33:37.298Z</time></trkpt><trkpt lat="45.1249104" lon="11.5321316"><ele>8.0</ele><time>2026-03-22T09:33:38.29Z</time></trkpt><trkpt lat="45.1248195" lon="11.5318728"><ele>8.666666666666666</ele><time>2026-03-22T09:33:39.298Z</time></trkpt><trkpt lat="45.1247324" lon="11.5316284"><ele>9.333333333333334</ele><time>2026-03-22T09:33:40.291Z</time></trkpt><trkpt lat="45.1246611" lon="11.5314226"><ele>10.0</ele><time>2026-03-22T09:33:41.295Z</time></trkpt><trkpt lat="45.1246065" lon="11.5312457"><ele>9.5</ele><time>2026-03-22T09:33:42.293Z</time></trkpt><trkpt lat="45.1245602" lon="11.5311083"><ele>9.0</ele><time>2026-03-22T09:33:43.287Z</time></trkpt><trkpt lat="45.1245235" lon="11.5310121"><ele>8.5</ele><time>2026-03-22T09:33:44.289Z</time></trkpt><trkpt lat="45.1245061" lon="11.5309082"><ele>8.0</ele><time>2026-03-22T09:33:45.288Z</time></trkpt><trkpt lat="45.1245052" lon="11.5308103"><ele>7.500000000000001</ele><time>2026-03-22T09:33:46.294Z</time></trkpt><trkpt lat="45.1245205" lon="11.5307154"><ele>7.0</ele><time>2026-03-22T09:33:47.285Z</time></trkpt><trkpt lat="45.1245582" lon="11.5306357"><ele>7.0</ele><time>2026-03-22T09:33:48.283Z</time></trkpt><trkpt lat="45.1246125" lon="11.5305553"><ele>6.999999999999999</ele><time>2026-03-22T09:33:49.275Z</time></trkpt><trkpt lat="45.1246782" lon="11.5304784"><ele>6.999999999999999</ele><time>2026-03-22T09:33:50.29Z</time></trkpt><trkpt lat="45.1247568" lon="11.530394"><ele>7.0</ele><time>2026-03-22T09:33:51.287Z</time></trkpt><trkpt lat="45.1248254" lon="11.5302812"><ele>7.0</ele><time>2026-03-22T09:33:52.28Z</time></trkpt><trkpt lat="45.1248561" lon="11.5301531"><ele>7.0</ele><time>2026-03-22T09:33:53.286Z</time></trkpt><trkpt lat="45.1248527" lon="11.5300236"><ele>6.999999999999999</ele><time>2026-03-22T09:33:54.277Z</time></trkpt><trkpt lat="45.1248396" lon="11.5298884"><ele>6.999999999999999</ele><time>2026-03-22T09:33:55.282Z</time></trkpt><trkpt lat="45.1248212" lon="11.5297452"><ele>7.0</ele><time>2026-03-22T09:33:56.285Z</time></trkpt><trkpt lat="45.124765" lon="11.5295996"><ele>7.0</ele><time>2026-03-22T09:33:57.287Z</time></trkpt><trkpt lat="45.1246781" lon="11.5294693"><ele>7.0</ele><time>2026-03-22T09:33:58.29Z</time></trkpt><trkpt lat="45.1245678" lon="11.5293733"><ele>7.0</ele><time>2026-03-22T09:33:59.286Z</time></trkpt><trkpt lat="45.1244596" lon="11.5292969"><ele>7.0</ele><time>2026-03-22T09:34:00.287Z</time></trkpt><trkpt lat="45.1243478" lon="11.5292716"><ele>7.0</ele><time>2026-03-22T09:34:01.293Z</time></trkpt><trkpt lat="45.1242382" lon="11.5292969"><ele>7.0</ele><time>2026-03-22T09:34:02.289Z</time></trkpt><trkpt lat="45.1241243" lon="11.5293191"><ele>6.999999999999999</ele><time>2026-03-22T09:34:03.286Z</time></trkpt><trkpt lat="45.1240238" lon="11.5293071"><ele>6.999999999999999</ele><time>2026-03-22T09:34:04.286Z</time></trkpt><trkpt lat="45.1239378" lon="11.5292478"><ele>7.0</ele><time>2026-03-22T09:34:05.282Z</time></trkpt><trkpt lat="45.1238675" lon="11.5291456"><ele>7.0</ele><time>2026-03-22T09:34:06.284Z</time></trkpt><trkpt lat="45.1238131" lon="11.5289968"><ele>7.0</ele><time>2026-03-22T09:34:07.283Z</time></trkpt><trkpt lat="45.123765" lon="11.528824"><ele>7.0</ele><time>2026-03-22T09:34:08.284Z</time></trkpt><trkpt lat="45.1237134" lon="11.528637"><ele>7.0</ele><time>2026-03-22T09:34:09.289Z</time></trkpt><trkpt lat="45.1236497" lon="11.5284314"><ele>7.0</ele><time>2026-03-22T09:34:10.293Z</time></trkpt><trkpt lat="45.1235774" lon="11.5281905"><ele>7.333333333333334</ele><time>2026-03-22T09:34:11.289Z</time></trkpt><trkpt lat="45.1234966" lon="11.5279478"><ele>7.666666666666666</ele><time>2026-03-22T09:34:12.298Z</time></trkpt><trkpt lat="45.1234216" lon="11.5277214"><ele>8.0</ele><time>2026-03-22T09:34:13.29Z</time></trkpt><trkpt lat="45.1233455" lon="11.5274914"><ele>8.0</ele><time>2026-03-22T09:34:14.29Z</time></trkpt><trkpt lat="45.1232678" lon="11.5272621"><ele>8.0</ele><time>2026-03-22T09:34:15.293Z</time></trkpt><trkpt lat="45.1231889" lon="11.5270193"><ele>8.0</ele><time>2026-03-22T09:34:16.295Z</time></trkpt><trkpt lat="45.1231081" lon="11.5267801"><ele>7.666666666666666</ele><time>2026-03-22T09:34:17.297Z</time></trkpt><trkpt lat="45.1230277" lon="11.5265435"><ele>7.333333333333334</ele><time>2026-03-22T09:34:18.295Z</time></trkpt><trkpt lat="45.1229446" lon="11.5263036"><ele>7.0</ele><time>2026-03-22T09:34:19.299Z</time></trkpt><trkpt lat="45.1228705" lon="11.5260657"><ele>7.0</ele><time>2026-03-22T09:34:20.297Z</time></trkpt><trkpt lat="45.1227934" lon="11.5258445"><ele>7.0</ele><time>2026-03-22T09:34:21.299Z</time></trkpt><trkpt lat="45.1227198" lon="11.5256148"><ele>7.0</ele><time>2026-03-22T09:34:22.3Z</time></trkpt><trkpt lat="45.1226439" lon="11.5253919"><ele>7.0</ele><time>2026-03-22T09:34:23.306Z</time></trkpt><trkpt lat="45.1225648" lon="11.525169"><ele>7.0</ele><time>2026-03-22T09:34:24.297Z</time></trkpt><trkpt lat="45.1224985" lon="11.5249308"><ele>7.0</ele><time>2026-03-22T09:34:25.304Z</time></trkpt><trkpt lat="45.1224276" lon="11.5246841"><ele>7.333333333333334</ele><time>2026-03-22T09:34:26.297Z</time></trkpt><trkpt lat="45.1223564" lon="11.5244399"><ele>7.666666666666666</ele><time>2026-03-22T09:34:27.299Z</time></trkpt><trkpt lat="45.1222993" lon="11.5242045"><ele>8.0</ele><time>2026-03-22T09:34:28.299Z</time></trkpt><trkpt lat="45.1222429" lon="11.5239632"><ele>7.666666666666666</ele><time>2026-03-22T09:34:29.303Z</time></trkpt><trkpt lat="45.1221905" lon="11.5237271"><ele>7.333333333333334</ele><time>2026-03-22T09:34:30.298Z</time></trkpt><trkpt lat="45.1221375" lon="11.5234685"><ele>7.0</ele><time>2026-03-22T09:34:31.298Z</time></trkpt><trkpt lat="45.1220907" lon="11.523201"><ele>7.0</ele><time>2026-03-22T09:34:32.306Z</time></trkpt><trkpt lat="45.12205" lon="11.5229287"><ele>7.0</ele><time>2026-03-22T09:34:33.299Z</time></trkpt><trkpt lat="45.1220129" lon="11.5226475"><ele>7.0</ele><time>2026-03-22T09:34:34.292Z</time></trkpt><trkpt lat="45.1219749" lon="11.5223629"><ele>7.333333333333334</ele><time>2026-03-22T09:34:35.29Z</time></trkpt><trkpt lat="45.1219389" lon="11.5220695"><ele>7.666666666666666</ele><time>2026-03-22T09:34:36.295Z</time></trkpt><trkpt lat="45.1219095" lon="11.5217735"><ele>8.0</ele><time>2026-03-22T09:34:37.29Z</time></trkpt><trkpt lat="45.1218882" lon="11.5214718"><ele>7.666666666666666</ele><time>2026-03-22T09:34:38.293Z</time></trkpt><trkpt lat="45.12188" lon="11.5211704"><ele>7.333333333333334</ele><time>2026-03-22T09:34:39.291Z</time></trkpt><trkpt lat="45.1218805" lon="11.5208719"><ele>7.0</ele><time>2026-03-22T09:34:40.298Z</time></trkpt><trkpt lat="45.121882" lon="11.5205679"><ele>7.0</ele><time>2026-03-22T09:34:41.295Z</time></trkpt><trkpt lat="45.1218828" lon="11.5202614"><ele>7.0</ele><time>2026-03-22T09:34:42.294Z</time></trkpt><trkpt lat="45.1218848" lon="11.5199573"><ele>7.0</ele><time>2026-03-22T09:34:43.299Z</time></trkpt><trkpt lat="45.1218882" lon="11.5196483"><ele>7.333333333333334</ele><time>2026-03-22T09:34:44.299Z</time></trkpt><trkpt lat="45.1218889" lon="11.5193413"><ele>7.666666666666666</ele><time>2026-03-22T09:34:45.293Z</time></trkpt><trkpt lat="45.1218913" lon="11.519039"><ele>8.0</ele><time>2026-03-22T09:34:46.29Z</time></trkpt><trkpt lat="45.121896" lon="11.5187402"><ele>8.0</ele><time>2026-03-22T09:34:47.295Z</time></trkpt><trkpt lat="45.1218978" lon="11.5184346"><ele>8.0</ele><time>2026-03-22T09:34:48.294Z</time></trkpt><trkpt lat="45.1218949" lon="11.5181413"><ele>8.0</ele><time>2026-03-22T09:34:49.291Z</time></trkpt><trkpt lat="45.121898" lon="11.5178499"><ele>8.333333333333332</ele><time>2026-03-22T09:34:50.295Z</time></trkpt><trkpt lat="45.121899" lon="11.5175604"><ele>8.666666666666666</ele><time>2026-03-22T09:34:51.295Z</time></trkpt><trkpt lat="45.1219027" lon="11.5172636"><ele>9.0</ele><time>2026-03-22T09:34:52.297Z</time></trkpt><trkpt lat="45.121905" lon="11.5169637"><ele>9.0</ele><time>2026-03-22T09:34:53.304Z</time></trkpt><trkpt lat="45.1218986" lon="11.5166697"><ele>9.0</ele><time>2026-03-22T09:34:54.3Z</time></trkpt><trkpt lat="45.1218979" lon="11.5163722"><ele>9.0</ele><time>2026-03-22T09:34:55.297Z</time></trkpt><trkpt lat="45.1219014" lon="11.5160802"><ele>9.0</ele><time>2026-03-22T09:34:56.294Z</time></trkpt><trkpt lat="45.1219051" lon="11.5157891"><ele>9.0</ele><time>2026-03-22T09:34:57.306Z</time></trkpt><trkpt lat="45.1219068" lon="11.5154998"><ele>9.0</ele><time>2026-03-22T09:34:58.298Z</time></trkpt><trkpt lat="45.1219094" lon="11.5152033"><ele>9.0</ele><time>2026-03-22T09:34:59.301Z</time></trkpt><trkpt lat="45.1219104" lon="11.5149076"><ele>9.0</ele><time>2026-03-22T09:35:00.293Z</time></trkpt><trkpt lat="45.1219126" lon="11.5146128"><ele>9.0</ele><time>2026-03-22T09:35:01.294Z</time></trkpt><trkpt lat="45.1219174" lon="11.5143185"><ele>8.666666666666666</ele><time>2026-03-22T09:35:02.299Z</time></trkpt><trkpt lat="45.1219228" lon="11.5140255"><ele>8.333333333333332</ele><time>2026-03-22T09:35:03.302Z</time></trkpt><trkpt lat="45.1219284" lon="11.5137328"><ele>8.0</ele><time>2026-03-22T09:35:04.294Z</time></trkpt><trkpt lat="45.1219306" lon="11.5134397"><ele>8.0</ele><time>2026-03-22T09:35:05.294Z</time></trkpt><trkpt lat="45.1219315" lon="11.5131448"><ele>8.0</ele><time>2026-03-22T09:35:06.293Z</time></trkpt><trkpt lat="45.1219303" lon="11.5128524"><ele>8.0</ele><time>2026-03-22T09:35:07.303Z</time></trkpt><trkpt lat="45.1219314" lon="11.5125586"><ele>8.0</ele><time>2026-03-22T09:35:08.296Z</time></trkpt><trkpt lat="45.1219277" lon="11.5122765"><ele>8.0</ele><time>2026-03-22T09:35:09.293Z</time></trkpt><trkpt lat="45.1219284" lon="11.5119944"><ele>8.0</ele><time>2026-03-22T09:35:10.294Z</time></trkpt><trkpt lat="45.1219323" lon="11.5117072"><ele>8.333333333333332</ele><time>2026-03-22T09:35:11.293Z</time></trkpt><trkpt lat="45.1219413" lon="11.511425"><ele>8.666666666666666</ele><time>2026-03-22T09:35:12.302Z</time></trkpt><trkpt lat="45.1219425" lon="11.5111351"><ele>9.0</ele><time>2026-03-22T09:35:13.289Z</time></trkpt><trkpt lat="45.1219464" lon="11.5108384"><ele>9.333333333333334</ele><time>2026-03-22T09:35:14.292Z</time></trkpt><trkpt lat="45.121947" lon="11.5105397"><ele>9.666666666666668</ele><time>2026-03-22T09:35:15.292Z</time></trkpt><trkpt lat="45.1219516" lon="11.5102406"><ele>10.0</ele><time>2026-03-22T09:35:16.298Z</time></trkpt><trkpt lat="45.1219529" lon="11.5099363"><ele>10.0</ele><time>2026-03-22T09:35:17.298Z</time></trkpt><trkpt lat="45.121956" lon="11.5096291"><ele>10.0</ele><time>2026-03-22T09:35:18.296Z</time></trkpt><trkpt lat="45.1219564" lon="11.5093247"><ele>10.0</ele><time>2026-03-22T09:35:19.297Z</time></trkpt><trkpt lat="45.1219579" lon="11.5090176"><ele>9.666666666666668</ele><time>2026-03-22T09:35:20.298Z</time></trkpt><trkpt lat="45.1219602" lon="11.5087112"><ele>9.333333333333334</ele><time>2026-03-22T09:35:21.302Z</time></trkpt><trkpt lat="45.121964" lon="11.5083996"><ele>9.0</ele><time>2026-03-22T09:35:22.303Z</time></trkpt><trkpt lat="45.1219658" lon="11.5080895"><ele>8.666666666666666</ele><time>2026-03-22T09:35:23.297Z</time></trkpt><trkpt lat="45.1219599" lon="11.5077868"><ele>8.333333333333332</ele><time>2026-03-22T09:35:24.309Z</time></trkpt><trkpt lat="45.1219632" lon="11.5074963"><ele>8.0</ele><time>2026-03-22T09:35:25.294Z</time></trkpt><trkpt lat="45.1219664" lon="11.5072229"><ele>8.333333333333332</ele><time>2026-03-22T09:35:26.298Z</time></trkpt><trkpt lat="45.121973" lon="11.506968"><ele>8.666666666666666</ele><time>2026-03-22T09:35:27.294Z</time></trkpt><trkpt lat="45.1219712" lon="11.5067257"><ele>9.0</ele><time>2026-03-22T09:35:28.292Z</time></trkpt><trkpt lat="45.1219769" lon="11.5064787"><ele>9.0</ele><time>2026-03-22T09:35:29.301Z</time></trkpt><trkpt lat="45.1219826" lon="11.5062271"><ele>9.0</ele><time>2026-03-22T09:35:30.3Z</time></trkpt><trkpt lat="45.1219815" lon="11.5059646"><ele>9.0</ele><time>2026-03-22T09:35:31.298Z</time></trkpt><trkpt lat="45.1219812" lon="11.5056988"><ele>9.0</ele><time>2026-03-22T09:35:32.299Z</time></trkpt><trkpt lat="45.1219823" lon="11.505422"><ele>9.0</ele><time>2026-03-22T09:35:33.296Z</time></trkpt><trkpt lat="45.121985" lon="11.5051419"><ele>9.0</ele><time>2026-03-22T09:35:34.307Z</time></trkpt><trkpt lat="45.1219814" lon="11.5048483"><ele>9.0</ele><time>2026-03-22T09:35:35.298Z</time></trkpt><trkpt lat="45.1219762" lon="11.5045514"><ele>9.0</ele><time>2026-03-22T09:35:36.292Z</time></trkpt><trkpt lat="45.1219779" lon="11.5042532"><ele>9.0</ele><time>2026-03-22T09:35:37.3Z</time></trkpt><trkpt lat="45.1219849" lon="11.5039513"><ele>9.0</ele><time>2026-03-22T09:35:38.293Z</time></trkpt><trkpt lat="45.1219984" lon="11.503645"><ele>9.0</ele><time>2026-03-22T09:35:39.297Z</time></trkpt><trkpt lat="45.1220025" lon="11.5033415"><ele>9.0</ele><time>2026-03-22T09:35:40.296Z</time></trkpt><trkpt lat="45.1220012" lon="11.5030281"><ele>9.0</ele><time>2026-03-22T09:35:41.295Z</time></trkpt><trkpt lat="45.1219982" lon="11.5027227"><ele>9.0</ele><time>2026-03-22T09:35:42.295Z</time></trkpt><trkpt lat="45.1219962" lon="11.5024214"><ele>9.0</ele><time>2026-03-22T09:35:43.288Z</time></trkpt><trkpt lat="45.1219772" lon="11.5021185"><ele>9.0</ele><time>2026-03-22T09:35:44.302Z</time></trkpt><trkpt lat="45.121953" lon="11.5018358"><ele>9.0</ele><time>2026-03-22T09:35:45.294Z</time></trkpt><trkpt lat="45.1219091" lon="11.5015499"><ele>9.0</ele><time>2026-03-22T09:35:46.293Z</time></trkpt><trkpt lat="45.12184" lon="11.5012709"><ele>9.333333333333334</ele><time>2026-03-22T09:35:47.287Z</time></trkpt><trkpt lat="45.1217421" lon="11.5010144"><ele>9.666666666666668</ele><time>2026-03-22T09:35:48.289Z</time></trkpt><trkpt lat="45.1216283" lon="11.5007783"><ele>10.0</ele><time>2026-03-22T09:35:49.289Z</time></trkpt><trkpt lat="45.1214852" lon="11.5005559"><ele>9.666666666666668</ele><time>2026-03-22T09:35:50.291Z</time></trkpt><trkpt lat="45.1213296" lon="11.500354"><ele>9.333333333333334</ele><time>2026-03-22T09:35:51.291Z</time></trkpt><trkpt lat="45.1211696" lon="11.5001777"><ele>9.0</ele><time>2026-03-22T09:35:52.286Z</time></trkpt><trkpt lat="45.1210056" lon="11.5000307"><ele>9.0</ele><time>2026-03-22T09:35:53.285Z</time></trkpt><trkpt lat="45.120839" lon="11.4999061"><ele>9.0</ele><time>2026-03-22T09:35:54.3Z</time></trkpt><trkpt lat="45.1206792" lon="11.4998051"><ele>9.0</ele><time>2026-03-22T09:35:55.287Z</time></trkpt><trkpt lat="45.1205194" lon="11.4997152"><ele>9.0</ele><time>2026-03-22T09:35:56.287Z</time></trkpt><trkpt lat="45.1203607" lon="11.499619"><ele>9.0</ele><time>2026-03-22T09:35:57.29Z</time></trkpt><trkpt lat="45.1202003" lon="11.4995249"><ele>9.0</ele><time>2026-03-22T09:35:58.294Z</time></trkpt><trkpt lat="45.1200472" lon="11.4994249"><ele>8.666666666666666</ele><time>2026-03-22T09:35:59.295Z</time></trkpt><trkpt lat="45.119897" lon="11.4993249"><ele>8.333333333333332</ele><time>2026-03-22T09:36:00.296Z</time></trkpt><trkpt lat="45.1197437" lon="11.4992235"><ele>8.0</ele><time>2026-03-22T09:36:01.288Z</time></trkpt><trkpt lat="45.119583" lon="11.4991199"><ele>8.0</ele><time>2026-03-22T09:36:02.297Z</time></trkpt><trkpt lat="45.1194192" lon="11.4990123"><ele>8.0</ele><time>2026-03-22T09:36:03.291Z</time></trkpt><trkpt lat="45.1192428" lon="11.4988975"><ele>8.0</ele><time>2026-03-22T09:36:04.295Z</time></trkpt><trkpt lat="45.1190648" lon="11.4987837"><ele>8.333333333333332</ele><time>2026-03-22T09:36:05.291Z</time></trkpt><trkpt lat="45.1188735" lon="11.4986633"><ele>8.666666666666666</ele><time>2026-03-22T09:36:06.297Z</time></trkpt><trkpt lat="45.1186801" lon="11.4985405"><ele>9.0</ele><time>2026-03-22T09:36:07.291Z</time></trkpt><trkpt lat="45.1184748" lon="11.498417"><ele>9.0</ele><time>2026-03-22T09:36:08.291Z</time></trkpt><trkpt lat="45.1182624" lon="11.4982774"><ele>9.0</ele><time>2026-03-22T09:36:09.289Z</time></trkpt><trkpt lat="45.1180463" lon="11.4981244"><ele>8.5</ele><time>2026-03-22T09:36:10.292Z</time></trkpt><trkpt lat="45.1178213" lon="11.4979615"><ele>8.0</ele><time>2026-03-22T09:36:11.292Z</time></trkpt><trkpt lat="45.1176029" lon="11.4978091"><ele>8.5</ele><time>2026-03-22T09:36:12.291Z</time></trkpt><trkpt lat="45.1173842" lon="11.4976647"><ele>9.0</ele><time>2026-03-22T09:36:13.295Z</time></trkpt><trkpt lat="45.1171632" lon="11.4975197"><ele>9.0</ele><time>2026-03-22T09:36:14.295Z</time></trkpt><trkpt lat="45.1169386" lon="11.4973763"><ele>9.0</ele><time>2026-03-22T09:36:15.29Z</time></trkpt><trkpt lat="45.1167104" lon="11.4972304"><ele>9.0</ele><time>2026-03-22T09:36:16.298Z</time></trkpt><trkpt lat="45.1164873" lon="11.4970906"><ele>9.0</ele><time>2026-03-22T09:36:17.29Z</time></trkpt><trkpt lat="45.1162649" lon="11.496951"><ele>9.0</ele><time>2026-03-22T09:36:18.294Z</time></trkpt><trkpt lat="45.116058" lon="11.4968098"><ele>9.0</ele><time>2026-03-22T09:36:19.291Z</time></trkpt><trkpt lat="45.1158636" lon="11.4966741"><ele>9.0</ele><time>2026-03-22T09:36:20.295Z</time></trkpt><trkpt lat="45.1156814" lon="11.4965382"><ele>8.666666666666666</ele><time>2026-03-22T09:36:21.29Z</time></trkpt><trkpt lat="45.1155104" lon="11.4964179"><ele>8.333333333333332</ele><time>2026-03-22T09:36:22.291Z</time></trkpt><trkpt lat="45.1153473" lon="11.4963054"><ele>8.0</ele><time>2026-03-22T09:36:23.298Z</time></trkpt><trkpt lat="45.1151859" lon="11.4962104"><ele>8.0</ele><time>2026-03-22T09:36:24.291Z</time></trkpt><trkpt lat="45.1150332" lon="11.4961079"><ele>8.0</ele><time>2026-03-22T09:36:25.294Z</time></trkpt><trkpt lat="45.1148925" lon="11.496016"><ele>8.0</ele><time>2026-03-22T09:36:26.297Z</time></trkpt><trkpt lat="45.1147458" lon="11.4959161"><ele>8.666666666666666</ele><time>2026-03-22T09:36:27.295Z</time></trkpt><trkpt lat="45.1145978" lon="11.4958175"><ele>9.333333333333334</ele><time>2026-03-22T09:36:28.294Z</time></trkpt><trkpt lat="45.1144441" lon="11.4957117"><ele>10.0</ele><time>2026-03-22T09:36:29.29Z</time></trkpt><trkpt lat="45.1142823" lon="11.4956013"><ele>10.0</ele><time>2026-03-22T09:36:30.301Z</time></trkpt><trkpt lat="45.1141262" lon="11.4954935"><ele>10.0</ele><time>2026-03-22T09:36:31.291Z</time></trkpt><trkpt lat="45.1139784" lon="11.4953941"><ele>10.0</ele><time>2026-03-22T09:36:32.305Z</time></trkpt><trkpt lat="45.113825" lon="11.4952948"><ele>10.0</ele><time>2026-03-22T09:36:33.293Z</time></trkpt><trkpt lat="45.1136704" lon="11.4952056"><ele>10.0</ele><time>2026-03-22T09:36:34.294Z</time></trkpt><trkpt lat="45.113528" lon="11.4951168"><ele>10.0</ele><time>2026-03-22T09:36:35.296Z</time></trkpt><trkpt lat="45.1133893" lon="11.4950311"><ele>10.0</ele><time>2026-03-22T09:36:36.29Z</time></trkpt><trkpt lat="45.1132557" lon="11.4949454"><ele>10.0</ele><time>2026-03-22T09:36:37.293Z</time></trkpt><trkpt lat="45.1131153" lon="11.4948635"><ele>10.0</ele><time>2026-03-22T09:36:38.291Z</time></trkpt><trkpt lat="45.1129753" lon="11.4947713"><ele>10.0</ele><time>2026-03-22T09:36:39.294Z</time></trkpt><trkpt lat="45.112835" lon="11.4946726"><ele>10.0</ele><time>2026-03-22T09:36:40.293Z</time></trkpt><trkpt lat="45.1126908" lon="11.4945847"><ele>10.0</ele><time>2026-03-22T09:36:41.294Z</time></trkpt><trkpt lat="45.1125477" lon="11.4944946"><ele>10.0</ele><time>2026-03-22T09:36:42.292Z</time></trkpt><trkpt lat="45.1124193" lon="11.4944017"><ele>10.0</ele><time>2026-03-22T09:36:43.292Z</time></trkpt><trkpt lat="45.1122958" lon="11.4943042"><ele>10.0</ele><time>2026-03-22T09:36:44.29Z</time></trkpt><trkpt lat="45.1121741" lon="11.494229"><ele>10.0</ele><time>2026-03-22T09:36:45.292Z</time></trkpt><trkpt lat="45.1120606" lon="11.4941465"><ele>9.8</ele><time>2026-03-22T09:36:46.29Z</time></trkpt><trkpt lat="45.1119684" lon="11.4940532"><ele>9.6</ele><time>2026-03-22T09:36:47.291Z</time></trkpt><trkpt lat="45.1118994" lon="11.4939492"><ele>9.4</ele><time>2026-03-22T09:36:48.29Z</time></trkpt><trkpt lat="45.111828" lon="11.4938662"><ele>9.2</ele><time>2026-03-22T09:36:49.294Z</time></trkpt><trkpt lat="45.111746" lon="11.4938259"><ele>9.0</ele><time>2026-03-22T09:36:50.293Z</time></trkpt><trkpt lat="45.1116491" lon="11.4938142"><ele>9.0</ele><time>2026-03-22T09:36:51.287Z</time></trkpt><trkpt lat="45.1115435" lon="11.4937884"><ele>9.0</ele><time>2026-03-22T09:36:52.286Z</time></trkpt><trkpt lat="45.111437" lon="11.4937392"><ele>9.0</ele><time>2026-03-22T09:36:53.29Z</time></trkpt><trkpt lat="45.1113226" lon="11.4936691"><ele>9.0</ele><time>2026-03-22T09:36:54.286Z</time></trkpt><trkpt lat="45.111194" lon="11.49359"><ele>9.0</ele><time>2026-03-22T09:36:55.283Z</time></trkpt><trkpt lat="45.1110528" lon="11.4935007"><ele>9.0</ele><time>2026-03-22T09:36:56.29Z</time></trkpt><trkpt lat="45.1108957" lon="11.4933991"><ele>9.0</ele><time>2026-03-22T09:36:57.29Z</time></trkpt><trkpt lat="45.1107378" lon="11.4932911"><ele>9.333333333333334</ele><time>2026-03-22T09:36:58.292Z</time></trkpt><trkpt lat="45.1105803" lon="11.4931822"><ele>9.666666666666668</ele><time>2026-03-22T09:36:59.295Z</time></trkpt><trkpt lat="45.1104264" lon="11.4930802"><ele>10.0</ele><time>2026-03-22T09:37:00.284Z</time></trkpt><trkpt lat="45.1102807" lon="11.4929786"><ele>10.333333333333334</ele><time>2026-03-22T09:37:01.287Z</time></trkpt><trkpt lat="45.1101388" lon="11.4928801"><ele>10.666666666666666</ele><time>2026-03-22T09:37:02.284Z</time></trkpt><trkpt lat="45.1100013" lon="11.4927884"><ele>11.0</ele><time>2026-03-22T09:37:03.285Z</time></trkpt><trkpt lat="45.1098519" lon="11.4926905"><ele>10.333333333333332</ele><time>2026-03-22T09:37:04.288Z</time></trkpt><trkpt lat="45.1096933" lon="11.4925925"><ele>9.666666666666666</ele><time>2026-03-22T09:37:05.289Z</time></trkpt><trkpt lat="45.1095283" lon="11.4924754"><ele>9.0</ele><time>2026-03-22T09:37:06.287Z</time></trkpt><trkpt lat="45.109356" lon="11.4923541"><ele>9.0</ele><time>2026-03-22T09:37:07.286Z</time></trkpt><trkpt lat="45.1091753" lon="11.4922248"><ele>9.0</ele><time>2026-03-22T09:37:08.291Z</time></trkpt><trkpt lat="45.1089922" lon="11.4921037"><ele>9.0</ele><time>2026-03-22T09:37:09.293Z</time></trkpt><trkpt lat="45.1088074" lon="11.4919868"><ele>9.666666666666666</ele><time>2026-03-22T09:37:10.289Z</time></trkpt><trkpt lat="45.1086264" lon="11.4918698"><ele>10.333333333333332</ele><time>2026-03-22T09:37:11.291Z</time></trkpt><trkpt lat="45.1084385" lon="11.4917679"><ele>11.0</ele><time>2026-03-22T09:37:12.294Z</time></trkpt><trkpt lat="45.1082609" lon="11.4916591"><ele>10.333333333333332</ele><time>2026-03-22T09:37:13.288Z</time></trkpt><trkpt lat="45.1080799" lon="11.4915439"><ele>9.666666666666666</ele><time>2026-03-22T09:37:14.288Z</time></trkpt><trkpt lat="45.1078968" lon="11.4914313"><ele>9.0</ele><time>2026-03-22T09:37:15.287Z</time></trkpt><trkpt lat="45.1077163" lon="11.4913143"><ele>9.0</ele><time>2026-03-22T09:37:16.286Z</time></trkpt><trkpt lat="45.1075319" lon="11.4911999"><ele>9.0</ele><time>2026-03-22T09:37:17.29Z</time></trkpt><trkpt lat="45.1073542" lon="11.4910865"><ele>9.0</ele><time>2026-03-22T09:37:18.288Z</time></trkpt><trkpt lat="45.1071763" lon="11.4909608"><ele>9.666666666666666</ele><time>2026-03-22T09:37:19.288Z</time></trkpt><trkpt lat="45.1069998" lon="11.4908596"><ele>10.333333333333332</ele><time>2026-03-22T09:37:20.3Z</time></trkpt><trkpt lat="45.1068164" lon="11.4907578"><ele>11.0</ele><time>2026-03-22T09:37:21.287Z</time></trkpt><trkpt lat="45.1066401" lon="11.4906537"><ele>11.333333333333332</ele><time>2026-03-22T09:37:22.292Z</time></trkpt><trkpt lat="45.1064707" lon="11.4905422"><ele>11.666666666666666</ele><time>2026-03-22T09:37:23.292Z</time></trkpt><trkpt lat="45.1062934" lon="11.4904341"><ele>12.0</ele><time>2026-03-22T09:37:24.29Z</time></trkpt><trkpt lat="45.1061172" lon="11.4903303"><ele>12.0</ele><time>2026-03-22T09:37:25.286Z</time></trkpt><trkpt lat="45.105935" lon="11.490222"><ele>12.0</ele><time>2026-03-22T09:37:26.294Z</time></trkpt><trkpt lat="45.1057556" lon="11.4901167"><ele>12.0</ele><time>2026-03-22T09:37:27.284Z</time></trkpt><trkpt lat="45.1055679" lon="11.4900082"><ele>12.333333333333332</ele><time>2026-03-22T09:37:28.292Z</time></trkpt><trkpt lat="45.10538" lon="11.4899023"><ele>12.666666666666666</ele><time>2026-03-22T09:37:29.293Z</time></trkpt><trkpt lat="45.1051913" lon="11.4898042"><ele>13.0</ele><time>2026-03-22T09:37:30.286Z</time></trkpt><trkpt lat="45.1050095" lon="11.4896929"><ele>12.333333333333332</ele><time>2026-03-22T09:37:31.287Z</time></trkpt><trkpt lat="45.1048259" lon="11.4895775"><ele>11.666666666666666</ele><time>2026-03-22T09:37:32.29Z</time></trkpt><trkpt lat="45.1046418" lon="11.4894743"><ele>11.0</ele><time>2026-03-22T09:37:33.284Z</time></trkpt><trkpt lat="45.1044641" lon="11.4893784"><ele>11.0</ele><time>2026-03-22T09:37:34.283Z</time></trkpt><trkpt lat="45.104296" lon="11.4892912"><ele>11.0</ele><time>2026-03-22T09:37:35.286Z</time></trkpt><trkpt lat="45.1041382" lon="11.4892139"><ele>11.0</ele><time>2026-03-22T09:37:36.291Z</time></trkpt><trkpt lat="45.1039881" lon="11.4891282"><ele>12.0</ele><time>2026-03-22T09:37:37.29Z</time></trkpt><trkpt lat="45.1038507" lon="11.4890504"><ele>13.0</ele><time>2026-03-22T09:37:38.282Z</time></trkpt><trkpt lat="45.1037102" lon="11.4889797"><ele>14.0</ele><time>2026-03-22T09:37:39.281Z</time></trkpt><trkpt lat="45.1035665" lon="11.4889124"><ele>15.0</ele><time>2026-03-22T09:37:40.287Z</time></trkpt><trkpt lat="45.1034201" lon="11.4888268"><ele>15.0</ele><time>2026-03-22T09:37:41.284Z</time></trkpt><trkpt lat="45.1032774" lon="11.4887428"><ele>15.0</ele><time>2026-03-22T09:37:42.283Z</time></trkpt><trkpt lat="45.1031366" lon="11.4886726"><ele>15.0</ele><time>2026-03-22T09:37:43.285Z</time></trkpt><trkpt lat="45.1030047" lon="11.4886116"><ele>15.0</ele><time>2026-03-22T09:37:44.292Z</time></trkpt><trkpt lat="45.1028728" lon="11.4885694"><ele>14.25</ele><time>2026-03-22T09:37:45.286Z</time></trkpt><trkpt lat="45.1027387" lon="11.4885536"><ele>13.5</ele><time>2026-03-22T09:37:46.294Z</time></trkpt><trkpt lat="45.1026113" lon="11.4885795"><ele>12.75</ele><time>2026-03-22T09:37:47.286Z</time></trkpt><trkpt lat="45.1024813" lon="11.4886327"><ele>12.0</ele><time>2026-03-22T09:37:48.292Z</time></trkpt><trkpt lat="45.1023464" lon="11.4886888"><ele>12.0</ele><time>2026-03-22T09:37:49.294Z</time></trkpt><trkpt lat="45.1022018" lon="11.4887371"><ele>12.0</ele><time>2026-03-22T09:37:50.299Z</time></trkpt><trkpt lat="45.1020478" lon="11.4887699"><ele>12.0</ele><time>2026-03-22T09:37:51.295Z</time></trkpt><trkpt lat="45.1018807" lon="11.488778"><ele>12.333333333333332</ele><time>2026-03-22T09:37:52.296Z</time></trkpt><trkpt lat="45.1017107" lon="11.4887612"><ele>12.666666666666666</ele><time>2026-03-22T09:37:53.297Z</time></trkpt><trkpt lat="45.101542" lon="11.4887391"><ele>13.0</ele><time>2026-03-22T09:37:54.297Z</time></trkpt><trkpt lat="45.1013825" lon="11.4887149"><ele>12.5</ele><time>2026-03-22T09:37:55.287Z</time></trkpt><trkpt lat="45.1012343" lon="11.4886905"><ele>12.0</ele><time>2026-03-22T09:37:56.291Z</time></trkpt><trkpt lat="45.1010879" lon="11.4886697"><ele>11.5</ele><time>2026-03-22T09:37:57.289Z</time></trkpt><trkpt lat="45.1009479" lon="11.4886477"><ele>11.0</ele><time>2026-03-22T09:37:58.287Z</time></trkpt><trkpt lat="45.1008251" lon="11.4886262"><ele>11.166666666666666</ele><time>2026-03-22T09:37:59.29Z</time></trkpt><trkpt lat="45.1007117" lon="11.4886112"><ele>11.333333333333332</ele><time>2026-03-22T09:38:00.283Z</time></trkpt><trkpt lat="45.1006201" lon="11.4885965"><ele>11.5</ele><time>2026-03-22T09:38:01.286Z</time></trkpt><trkpt lat="45.1005517" lon="11.488585"><ele>11.666666666666666</ele><time>2026-03-22T09:38:02.288Z</time></trkpt><trkpt lat="45.1004762" lon="11.4885741"><ele>11.833333333333334</ele><time>2026-03-22T09:38:04.288Z</time></trkpt><trkpt lat="45.100393" lon="11.488554"><ele>12.0</ele><time>2026-03-22T09:38:08.292Z</time></trkpt><trkpt lat="45.100314" lon="11.4885403"><ele>12.0</ele><time>2026-03-22T09:38:11.278Z</time></trkpt><trkpt lat="45.1002187" lon="11.4885249"><ele>12.0</ele><time>2026-03-22T09:38:13.282Z</time></trkpt><trkpt lat="45.10014" lon="11.4885079"><ele>12.0</ele><time>2026-03-22T09:38:14.28Z</time></trkpt><trkpt lat="45.1000494" lon="11.4884891"><ele>12.0</ele><time>2026-03-22T09:38:15.273Z</time></trkpt><trkpt lat="45.0999463" lon="11.4884631"><ele>12.0</ele><time>2026-03-22T09:38:16.284Z</time></trkpt><trkpt lat="45.0998134" lon="11.4884222"><ele>12.0</ele><time>2026-03-22T09:38:17.278Z</time></trkpt><trkpt lat="45.0996617" lon="11.4883868"><ele>12.0</ele><time>2026-03-22T09:38:18.287Z</time></trkpt><trkpt lat="45.0994825" lon="11.4883459"><ele>12.0</ele><time>2026-03-22T09:38:19.278Z</time></trkpt><trkpt lat="45.0992791" lon="11.4882899"><ele>11.666666666666666</ele><time>2026-03-22T09:38:20.276Z</time></trkpt><trkpt lat="45.099069" lon="11.4882321"><ele>11.333333333333332</ele><time>2026-03-22T09:38:21.279Z</time></trkpt><trkpt lat="45.0988636" lon="11.4881797"><ele>11.0</ele><time>2026-03-22T09:38:22.281Z</time></trkpt><trkpt lat="45.0986679" lon="11.4881344"><ele>11.0</ele><time>2026-03-22T09:38:23.282Z</time></trkpt><trkpt lat="45.0984883" lon="11.4880965"><ele>11.0</ele><time>2026-03-22T09:38:24.285Z</time></trkpt><trkpt lat="45.0983248" lon="11.4880602"><ele>11.0</ele><time>2026-03-22T09:38:25.275Z</time></trkpt><trkpt lat="45.0981594" lon="11.4880189"><ele>11.333333333333332</ele><time>2026-03-22T09:38:26.275Z</time></trkpt><trkpt lat="45.0979945" lon="11.4879792"><ele>11.666666666666666</ele><time>2026-03-22T09:38:27.274Z</time></trkpt><trkpt lat="45.0978229" lon="11.4879434"><ele>12.0</ele><time>2026-03-22T09:38:28.285Z</time></trkpt><trkpt lat="45.0976483" lon="11.487913"><ele>12.0</ele><time>2026-03-22T09:38:29.286Z</time></trkpt><trkpt lat="45.0974707" lon="11.4878715"><ele>12.0</ele><time>2026-03-22T09:38:30.294Z</time></trkpt><trkpt lat="45.0972907" lon="11.487834"><ele>12.0</ele><time>2026-03-22T09:38:31.288Z</time></trkpt><trkpt lat="45.0971103" lon="11.4878029"><ele>12.0</ele><time>2026-03-22T09:38:32.285Z</time></trkpt><trkpt lat="45.0969382" lon="11.4877818"><ele>12.0</ele><time>2026-03-22T09:38:33.284Z</time></trkpt><trkpt lat="45.0967689" lon="11.4877771"><ele>12.0</ele><time>2026-03-22T09:38:34.29Z</time></trkpt><trkpt lat="45.0965954" lon="11.487782"><ele>11.666666666666666</ele><time>2026-03-22T09:38:35.288Z</time></trkpt><trkpt lat="45.0964269" lon="11.4877961"><ele>11.333333333333332</ele><time>2026-03-22T09:38:36.287Z</time></trkpt><trkpt lat="45.0962732" lon="11.4878282"><ele>11.0</ele><time>2026-03-22T09:38:37.283Z</time></trkpt><trkpt lat="45.0961278" lon="11.4878719"><ele>11.0</ele><time>2026-03-22T09:38:38.279Z</time></trkpt><trkpt lat="45.0959867" lon="11.4879107"><ele>11.0</ele><time>2026-03-22T09:38:39.283Z</time></trkpt><trkpt lat="45.0958618" lon="11.4879544"><ele>11.0</ele><time>2026-03-22T09:38:40.28Z</time></trkpt><trkpt lat="45.0957502" lon="11.4879932"><ele>11.0</ele><time>2026-03-22T09:38:41.284Z</time></trkpt><trkpt lat="45.095646" lon="11.4880462"><ele>11.5</ele><time>2026-03-22T09:38:42.281Z</time></trkpt><trkpt lat="45.0955494" lon="11.4881332"><ele>12.0</ele><time>2026-03-22T09:38:43.282Z</time></trkpt><trkpt lat="45.0954445" lon="11.4882115"><ele>12.5</ele><time>2026-03-22T09:38:44.28Z</time></trkpt><trkpt lat="45.0953441" lon="11.4882803"><ele>13.0</ele><time>2026-03-22T09:38:45.285Z</time></trkpt><trkpt lat="45.0952493" lon="11.4883442"><ele>13.0</ele><time>2026-03-22T09:38:46.281Z</time></trkpt><trkpt lat="45.0951599" lon="11.4884187"><ele>13.0</ele><time>2026-03-22T09:38:47.279Z</time></trkpt><trkpt lat="45.0950804" lon="11.4884964"><ele>13.0</ele><time>2026-03-22T09:38:48.283Z</time></trkpt><trkpt lat="45.0950133" lon="11.4885716"><ele>13.0</ele><time>2026-03-22T09:38:49.281Z</time></trkpt><trkpt lat="45.0949613" lon="11.4886372"><ele>13.0</ele><time>2026-03-22T09:38:50.283Z</time></trkpt><trkpt lat="45.0948839" lon="11.4887411"><ele>12.857142857142856</ele><time>2026-03-22T09:38:52.284Z</time></trkpt><trkpt lat="45.0948188" lon="11.4888216"><ele>12.714285714285715</ele><time>2026-03-22T09:38:54.284Z</time></trkpt><trkpt lat="45.0947948" lon="11.4889043"><ele>12.571428571428571</ele><time>2026-03-22T09:40:12.282Z</time></trkpt><trkpt lat="45.0947522" lon="11.4889802"><ele>12.428571428571427</ele><time>2026-03-22T09:40:15.274Z</time></trkpt><trkpt lat="45.0946965" lon="11.4890538"><ele>12.285714285714285</ele><time>2026-03-22T09:40:17.278Z</time></trkpt><trkpt lat="45.0946426" lon="11.4891304"><ele>12.142857142857142</ele><time>2026-03-22T09:40:19.282Z</time></trkpt><trkpt lat="45.0945882" lon="11.4892024"><ele>12.0</ele><time>2026-03-22T09:40:21.279Z</time></trkpt><trkpt lat="45.0945186" lon="11.4892877"><ele>12.0</ele><time>2026-03-22T09:40:23.283Z</time></trkpt><trkpt lat="45.0944473" lon="11.4893906"><ele>12.0</ele><time>2026-03-22T09:40:25.285Z</time></trkpt><trkpt lat="45.0943674" lon="11.4894749"><ele>12.0</ele><time>2026-03-22T09:40:27.276Z</time></trkpt><trkpt lat="45.094276" lon="11.4894815"><ele>12.0</ele><time>2026-03-22T09:40:29.285Z</time></trkpt><trkpt lat="45.0941995" lon="11.4893776"><ele>12.0</ele><time>2026-03-22T09:40:31.284Z</time></trkpt><trkpt lat="45.0941472" lon="11.4892678"><ele>11.999999999999998</ele><time>2026-03-22T09:40:33.282Z</time></trkpt><trkpt lat="45.0941063" lon="11.48918"><ele>12.0</ele><time>2026-03-22T09:40:35.287Z</time></trkpt><trkpt lat="45.094046" lon="11.4891273"><ele>12.0</ele><time>2026-03-22T09:40:38.285Z</time></trkpt><trkpt lat="45.0939928" lon="11.4891763"><ele>12.0</ele><time>2026-03-22T09:40:51.29Z</time></trkpt><trkpt lat="45.0939656" lon="11.4892591"><ele>12.0</ele><time>2026-03-22T09:42:20.288Z</time></trkpt><trkpt lat="45.0939212" lon="11.4893497"><ele>11.999999999999998</ele><time>2026-03-22T09:42:24.278Z</time></trkpt><trkpt lat="45.0938751" lon="11.4894194"><ele>12.0</ele><time>2026-03-22T09:42:27.281Z</time></trkpt><trkpt lat="45.0938118" lon="11.4895215"><ele>11.833333333333334</ele><time>2026-03-22T09:42:30.279Z</time></trkpt><trkpt lat="45.0937653" lon="11.4895963"><ele>11.666666666666666</ele><time>2026-03-22T09:42:32.282Z</time></trkpt><trkpt lat="45.093716" lon="11.4896871"><ele>11.5</ele><time>2026-03-22T09:42:34.278Z</time></trkpt><trkpt lat="45.0936567" lon="11.4898054"><ele>11.333333333333332</ele><time>2026-03-22T09:42:36.284Z</time></trkpt><trkpt lat="45.0935898" lon="11.4898884"><ele>11.166666666666666</ele><time>2026-03-22T09:42:38.276Z</time></trkpt><trkpt lat="45.0935035" lon="11.4898669"><ele>11.0</ele><time>2026-03-22T09:42:40.275Z</time></trkpt><trkpt lat="45.0934518" lon="11.4898015"><ele>11.0</ele><time>2026-03-22T09:42:41.277Z</time></trkpt><trkpt lat="45.0933962" lon="11.4897313"><ele>11.0</ele><time>2026-03-22T09:42:42.275Z</time></trkpt><trkpt lat="45.0933433" lon="11.4896551"><ele>11.0</ele><time>2026-03-22T09:42:43.278Z</time></trkpt><trkpt lat="45.0932931" lon="11.48958"><ele>11.0</ele><time>2026-03-22T09:42:44.275Z</time></trkpt><trkpt lat="45.0932484" lon="11.4895161"><ele>11.0</ele><time>2026-03-22T09:42:45.266Z</time></trkpt><trkpt lat="45.0931622" lon="11.4894028"><ele>11.0</ele><time>2026-03-22T09:42:47.278Z</time></trkpt><trkpt lat="45.0930711" lon="11.4892874"><ele>11.0</ele><time>2026-03-22T09:42:49.275Z</time></trkpt><trkpt lat="45.0930185" lon="11.4892181"><ele>11.0</ele><time>2026-03-22T09:42:50.273Z</time></trkpt><trkpt lat="45.092963" lon="11.4891332"><ele>11.0</ele><time>2026-03-22T09:42:51.274Z</time></trkpt><trkpt lat="45.0929074" lon="11.4890302"><ele>11.0</ele><time>2026-03-22T09:42:52.274Z</time></trkpt><trkpt lat="45.0928508" lon="11.4889255"><ele>11.0</ele><time>2026-03-22T09:42:53.275Z</time></trkpt><trkpt lat="45.0927971" lon="11.4888244"><ele>11.0</ele><time>2026-03-22T09:42:54.277Z</time></trkpt><trkpt lat="45.0927449" lon="11.4887177"><ele>11.25</ele><time>2026-03-22T09:42:55.275Z</time></trkpt><trkpt lat="45.0926876" lon="11.4885983"><ele>11.5</ele><time>2026-03-22T09:42:56.28Z</time></trkpt><trkpt lat="45.0926206" lon="11.4884559"><ele>11.75</ele><time>2026-03-22T09:42:57.275Z</time></trkpt><trkpt lat="45.0925502" lon="11.4882975"><ele>12.0</ele><time>2026-03-22T09:42:58.277Z</time></trkpt><trkpt lat="45.0924805" lon="11.4881383"><ele>11.4</ele><time>2026-03-22T09:42:59.28Z</time></trkpt><trkpt lat="45.092415" lon="11.487986"><ele>10.799999999999999</ele><time>2026-03-22T09:43:00.279Z</time></trkpt><trkpt lat="45.0923591" lon="11.4878463"><ele>10.2</ele><time>2026-03-22T09:43:01.275Z</time></trkpt><trkpt lat="45.0923096" lon="11.4877196"><ele>9.6</ele><time>2026-03-22T09:43:02.284Z</time></trkpt><trkpt lat="45.0922648" lon="11.4876038"><ele>9.0</ele><time>2026-03-22T09:43:03.281Z</time></trkpt><trkpt lat="45.0922278" lon="11.4874974"><ele>9.0</ele><time>2026-03-22T09:43:04.283Z</time></trkpt><trkpt lat="45.0921974" lon="11.4873989"><ele>9.0</ele><time>2026-03-22T09:43:05.281Z</time></trkpt><trkpt lat="45.0921685" lon="11.4873036"><ele>9.0</ele><time>2026-03-22T09:43:06.281Z</time></trkpt><trkpt lat="45.092145" lon="11.4872148"><ele>9.0</ele><time>2026-03-22T09:43:07.284Z</time></trkpt><trkpt lat="45.092104" lon="11.4870689"><ele>9.0</ele><time>2026-03-22T09:43:09.281Z</time></trkpt><trkpt lat="45.0920715" lon="11.4869451"><ele>9.0</ele><time>2026-03-22T09:43:11.286Z</time></trkpt><trkpt lat="45.0920484" lon="11.4868524"><ele>9.0</ele><time>2026-03-22T09:43:13.283Z</time></trkpt><trkpt lat="45.0920316" lon="11.4867472"><ele>9.0</ele><time>2026-03-22T09:43:16.291Z</time></trkpt><trkpt lat="45.0920078" lon="11.4866542"><ele>9.0</ele><time>2026-03-22T09:43:18.281Z</time></trkpt><trkpt lat="45.0919682" lon="11.4864782"><ele>9.0</ele><time>2026-03-22T09:43:20.278Z</time></trkpt><trkpt lat="45.091936" lon="11.4863447"><ele>9.0</ele><time>2026-03-22T09:43:21.278Z</time></trkpt><trkpt lat="45.0919076" lon="11.4861818"><ele>9.0</ele><time>2026-03-22T09:43:22.278Z</time></trkpt><trkpt lat="45.0918782" lon="11.4860032"><ele>9.0</ele><time>2026-03-22T09:43:23.28Z</time></trkpt><trkpt lat="45.0918496" lon="11.4858063"><ele>9.0</ele><time>2026-03-22T09:43:24.273Z</time></trkpt><trkpt lat="45.0918186" lon="11.4856054"><ele>9.0</ele><time>2026-03-22T09:43:25.274Z</time></trkpt><trkpt lat="45.0917811" lon="11.4854247"><ele>9.25</ele><time>2026-03-22T09:43:26.272Z</time></trkpt><trkpt lat="45.0917383" lon="11.4852589"><ele>9.5</ele><time>2026-03-22T09:43:27.278Z</time></trkpt><trkpt lat="45.0916776" lon="11.4851109"><ele>9.75</ele><time>2026-03-22T09:43:28.279Z</time></trkpt><trkpt lat="45.0915854" lon="11.4849745"><ele>10.0</ele><time>2026-03-22T09:43:29.285Z</time></trkpt><trkpt lat="45.0914725" lon="11.4848468"><ele>10.333333333333334</ele><time>2026-03-22T09:43:30.274Z</time></trkpt><trkpt lat="45.0913428" lon="11.4847207"><ele>10.666666666666666</ele><time>2026-03-22T09:43:31.276Z</time></trkpt><trkpt lat="45.0912037" lon="11.4845589"><ele>11.0</ele><time>2026-03-22T09:43:32.281Z</time></trkpt><trkpt lat="45.0910648" lon="11.4843352"><ele>11.0</ele><time>2026-03-22T09:43:33.271Z</time></trkpt><trkpt lat="45.0909336" lon="11.4840869"><ele>11.0</ele><time>2026-03-22T09:43:34.276Z</time></trkpt><trkpt lat="45.0907909" lon="11.4838319"><ele>11.0</ele><time>2026-03-22T09:43:35.275Z</time></trkpt><trkpt lat="45.0906511" lon="11.4835588"><ele>10.666666666666666</ele><time>2026-03-22T09:43:36.282Z</time></trkpt><trkpt lat="45.0905252" lon="11.4833001"><ele>10.333333333333334</ele><time>2026-03-22T09:43:37.275Z</time></trkpt><trkpt lat="45.0904088" lon="11.4830655"><ele>10.0</ele><time>2026-03-22T09:43:38.284Z</time></trkpt><trkpt lat="45.090291" lon="11.4828518"><ele>9.333333333333334</ele><time>2026-03-22T09:43:39.276Z</time></trkpt><trkpt lat="45.0901833" lon="11.4826372"><ele>8.666666666666666</ele><time>2026-03-22T09:43:40.28Z</time></trkpt><trkpt lat="45.0900794" lon="11.4824256"><ele>8.0</ele><time>2026-03-22T09:43:41.282Z</time></trkpt><trkpt lat="45.0899895" lon="11.4822065"><ele>8.0</ele><time>2026-03-22T09:43:42.278Z</time></trkpt><trkpt lat="45.0899115" lon="11.4819746"><ele>8.0</ele><time>2026-03-22T09:43:43.283Z</time></trkpt><trkpt lat="45.0898382" lon="11.4817197"><ele>8.0</ele><time>2026-03-22T09:43:44.282Z</time></trkpt><trkpt lat="45.0897674" lon="11.4814567"><ele>8.333333333333332</ele><time>2026-03-22T09:43:45.289Z</time></trkpt><trkpt lat="45.0897055" lon="11.4811986"><ele>8.666666666666666</ele><time>2026-03-22T09:43:46.282Z</time></trkpt><trkpt lat="45.0896409" lon="11.480947"><ele>9.0</ele><time>2026-03-22T09:43:47.286Z</time></trkpt><trkpt lat="45.0895699" lon="11.4807008"><ele>9.0</ele><time>2026-03-22T09:43:48.284Z</time></trkpt><trkpt lat="45.0894838" lon="11.4804537"><ele>9.0</ele><time>2026-03-22T09:43:49.287Z</time></trkpt><trkpt lat="45.0893893" lon="11.4802308"><ele>9.0</ele><time>2026-03-22T09:43:50.286Z</time></trkpt><trkpt lat="45.0892825" lon="11.480012"><ele>9.0</ele><time>2026-03-22T09:43:51.281Z</time></trkpt><trkpt lat="45.0891719" lon="11.4798075"><ele>9.0</ele><time>2026-03-22T09:43:52.288Z</time></trkpt><trkpt lat="45.0890628" lon="11.4796109"><ele>9.0</ele><time>2026-03-22T09:43:53.286Z</time></trkpt><trkpt lat="45.0889637" lon="11.4794025"><ele>9.0</ele><time>2026-03-22T09:43:54.279Z</time></trkpt><trkpt lat="45.0888754" lon="11.4791852"><ele>9.0</ele><time>2026-03-22T09:43:55.284Z</time></trkpt><trkpt lat="45.0888084" lon="11.4789444"><ele>9.0</ele><time>2026-03-22T09:43:56.282Z</time></trkpt><trkpt lat="45.0887561" lon="11.4786898"><ele>8.666666666666666</ele><time>2026-03-22T09:43:57.283Z</time></trkpt><trkpt lat="45.0887172" lon="11.4784264"><ele>8.333333333333332</ele><time>2026-03-22T09:43:58.283Z</time></trkpt><trkpt lat="45.0886718" lon="11.4781517"><ele>8.0</ele><time>2026-03-22T09:43:59.293Z</time></trkpt><trkpt lat="45.0886291" lon="11.4778632"><ele>8.0</ele><time>2026-03-22T09:44:00.287Z</time></trkpt><trkpt lat="45.0885856" lon="11.477571"><ele>8.0</ele><time>2026-03-22T09:44:01.286Z</time></trkpt><trkpt lat="45.0885407" lon="11.4772781"><ele>8.0</ele><time>2026-03-22T09:44:02.294Z</time></trkpt><trkpt lat="45.0884908" lon="11.4769732"><ele>8.0</ele><time>2026-03-22T09:44:03.282Z</time></trkpt><trkpt lat="45.0884424" lon="11.4766676"><ele>8.0</ele><time>2026-03-22T09:44:04.286Z</time></trkpt><trkpt lat="45.0883934" lon="11.4763573"><ele>8.0</ele><time>2026-03-22T09:44:05.284Z</time></trkpt><trkpt lat="45.0883396" lon="11.4760373"><ele>7.5</ele><time>2026-03-22T09:44:06.283Z</time></trkpt><trkpt lat="45.0882773" lon="11.4757254"><ele>7.0</ele><time>2026-03-22T09:44:07.286Z</time></trkpt><trkpt lat="45.0882072" lon="11.4754253"><ele>7.0</ele><time>2026-03-22T09:44:08.284Z</time></trkpt><trkpt lat="45.0881245" lon="11.4751271"><ele>7.0</ele><time>2026-03-22T09:44:09.289Z</time></trkpt><trkpt lat="45.0880355" lon="11.4748328"><ele>7.0</ele><time>2026-03-22T09:44:10.286Z</time></trkpt><trkpt lat="45.0879445" lon="11.4745449"><ele>7.0</ele><time>2026-03-22T09:44:11.281Z</time></trkpt><trkpt lat="45.087857" lon="11.4742576"><ele>7.0</ele><time>2026-03-22T09:44:12.286Z</time></trkpt><trkpt lat="45.0877744" lon="11.4739754"><ele>8.0</ele><time>2026-03-22T09:44:13.284Z</time></trkpt><trkpt lat="45.0876924" lon="11.4736968"><ele>9.0</ele><time>2026-03-22T09:44:14.289Z</time></trkpt><trkpt lat="45.0876137" lon="11.4734265"><ele>10.0</ele><time>2026-03-22T09:44:15.285Z</time></trkpt><trkpt lat="45.0875378" lon="11.4731684"><ele>10.0</ele><time>2026-03-22T09:44:16.29Z</time></trkpt><trkpt lat="45.0874657" lon="11.4729288"><ele>10.0</ele><time>2026-03-22T09:44:17.284Z</time></trkpt><trkpt lat="45.0873971" lon="11.4726967"><ele>10.0</ele><time>2026-03-22T09:44:18.289Z</time></trkpt><trkpt lat="45.0873283" lon="11.4724811"><ele>9.666666666666668</ele><time>2026-03-22T09:44:19.283Z</time></trkpt><trkpt lat="45.0872566" lon="11.4722731"><ele>9.333333333333334</ele><time>2026-03-22T09:44:20.289Z</time></trkpt><trkpt lat="45.0871669" lon="11.4720908"><ele>9.0</ele><time>2026-03-22T09:44:21.288Z</time></trkpt><trkpt lat="45.0870427" lon="11.4719276"><ele>9.0</ele><time>2026-03-22T09:44:22.279Z</time></trkpt><trkpt lat="45.0869026" lon="11.4717773"><ele>9.0</ele><time>2026-03-22T09:44:23.284Z</time></trkpt><trkpt lat="45.0867429" lon="11.4716508"><ele>9.0</ele><time>2026-03-22T09:44:24.283Z</time></trkpt><trkpt lat="45.0865947" lon="11.4715418"><ele>8.666666666666666</ele><time>2026-03-22T09:44:25.281Z</time></trkpt><trkpt lat="45.0864493" lon="11.4714216"><ele>8.333333333333332</ele><time>2026-03-22T09:44:26.287Z</time></trkpt><trkpt lat="45.0863009" lon="11.4712918"><ele>8.0</ele><time>2026-03-22T09:44:27.283Z</time></trkpt><trkpt lat="45.0861528" lon="11.4711606"><ele>8.0</ele><time>2026-03-22T09:44:28.282Z</time></trkpt><trkpt lat="45.0860005" lon="11.4710331"><ele>8.0</ele><time>2026-03-22T09:44:29.287Z</time></trkpt><trkpt lat="45.085833" lon="11.4709079"><ele>8.0</ele><time>2026-03-22T09:44:30.285Z</time></trkpt><trkpt lat="45.0856611" lon="11.4707748"><ele>8.0</ele><time>2026-03-22T09:44:31.281Z</time></trkpt><trkpt lat="45.0854829" lon="11.4706384"><ele>8.0</ele><time>2026-03-22T09:44:32.291Z</time></trkpt><trkpt lat="45.0852995" lon="11.4705043"><ele>8.0</ele><time>2026-03-22T09:44:33.283Z</time></trkpt><trkpt lat="45.0851123" lon="11.4703643"><ele>7.333333333333333</ele><time>2026-03-22T09:44:34.278Z</time></trkpt><trkpt lat="45.0849269" lon="11.4702261"><ele>6.666666666666666</ele><time>2026-03-22T09:44:35.281Z</time></trkpt><trkpt lat="45.0847376" lon="11.4700858"><ele>6.0</ele><time>2026-03-22T09:44:36.285Z</time></trkpt><trkpt lat="45.0845493" lon="11.4699528"><ele>6.0</ele><time>2026-03-22T09:44:37.282Z</time></trkpt><trkpt lat="45.0843659" lon="11.4698257"><ele>6.0</ele><time>2026-03-22T09:44:38.291Z</time></trkpt><trkpt lat="45.0841781" lon="11.4696903"><ele>6.0</ele><time>2026-03-22T09:44:39.285Z</time></trkpt><trkpt lat="45.0839905" lon="11.4695514"><ele>6.666666666666666</ele><time>2026-03-22T09:44:40.291Z</time></trkpt><trkpt lat="45.0837965" lon="11.4694183"><ele>7.333333333333333</ele><time>2026-03-22T09:44:41.289Z</time></trkpt><trkpt lat="45.0836012" lon="11.4692832"><ele>8.0</ele><time>2026-03-22T09:44:42.288Z</time></trkpt><trkpt lat="45.0834095" lon="11.4691534"><ele>8.0</ele><time>2026-03-22T09:44:43.282Z</time></trkpt><trkpt lat="45.0832322" lon="11.4690099"><ele>8.0</ele><time>2026-03-22T09:44:44.287Z</time></trkpt><trkpt lat="45.083075" lon="11.468861"><ele>8.0</ele><time>2026-03-22T09:44:45.284Z</time></trkpt><trkpt lat="45.0829272" lon="11.4687071"><ele>8.0</ele><time>2026-03-22T09:44:46.288Z</time></trkpt><trkpt lat="45.0828029" lon="11.4685419"><ele>8.0</ele><time>2026-03-22T09:44:47.28Z</time></trkpt><trkpt lat="45.0826869" lon="11.4683787"><ele>8.0</ele><time>2026-03-22T09:44:48.289Z</time></trkpt><trkpt lat="45.0825749" lon="11.4682198"><ele>8.0</ele><time>2026-03-22T09:44:49.28Z</time></trkpt><trkpt lat="45.0824697" lon="11.4680555"><ele>8.0</ele><time>2026-03-22T09:44:50.28Z</time></trkpt><trkpt lat="45.0823813" lon="11.4678754"><ele>8.0</ele><time>2026-03-22T09:44:51.29Z</time></trkpt><trkpt lat="45.082319" lon="11.4676766"><ele>8.5</ele><time>2026-03-22T09:44:52.287Z</time></trkpt><trkpt lat="45.0822857" lon="11.4674781"><ele>9.0</ele><time>2026-03-22T09:44:53.291Z</time></trkpt><trkpt lat="45.0822604" lon="11.4672805"><ele>9.5</ele><time>2026-03-22T09:44:54.279Z</time></trkpt><trkpt lat="45.0822155" lon="11.4670944"><ele>10.0</ele><time>2026-03-22T09:44:55.288Z</time></trkpt><trkpt lat="45.0821458" lon="11.4669153"><ele>10.0</ele><time>2026-03-22T09:44:56.279Z</time></trkpt><trkpt lat="45.0820523" lon="11.4667476"><ele>10.0</ele><time>2026-03-22T09:44:57.277Z</time></trkpt><trkpt lat="45.0819458" lon="11.4665878"><ele>10.0</ele><time>2026-03-22T09:44:58.277Z</time></trkpt><trkpt lat="45.0818165" lon="11.4664409"><ele>10.0</ele><time>2026-03-22T09:44:59.282Z</time></trkpt><trkpt lat="45.0816681" lon="11.4663199"><ele>10.0</ele><time>2026-03-22T09:45:00.278Z</time></trkpt><trkpt lat="45.0815164" lon="11.4662422"><ele>10.0</ele><time>2026-03-22T09:45:01.278Z</time></trkpt><trkpt lat="45.0813735" lon="11.4661982"><ele>9.25</ele><time>2026-03-22T09:45:02.288Z</time></trkpt><trkpt lat="45.0812447" lon="11.4661723"><ele>8.5</ele><time>2026-03-22T09:45:03.278Z</time></trkpt><trkpt lat="45.0811219" lon="11.4661464"><ele>7.75</ele><time>2026-03-22T09:45:04.285Z</time></trkpt><trkpt lat="45.0810047" lon="11.4660996"><ele>7.0</ele><time>2026-03-22T09:45:05.277Z</time></trkpt><trkpt lat="45.0808891" lon="11.466019"><ele>7.0</ele><time>2026-03-22T09:45:06.277Z</time></trkpt><trkpt lat="45.0807959" lon="11.4659218"><ele>7.0</ele><time>2026-03-22T09:45:07.286Z</time></trkpt><trkpt lat="45.080711" lon="11.4658133"><ele>7.0</ele><time>2026-03-22T09:45:08.276Z</time></trkpt><trkpt lat="45.0806233" lon="11.4656987"><ele>7.0</ele><time>2026-03-22T09:45:09.279Z</time></trkpt><trkpt lat="45.0805348" lon="11.4655759"><ele>7.25</ele><time>2026-03-22T09:45:10.283Z</time></trkpt><trkpt lat="45.0804403" lon="11.4654495"><ele>7.5</ele><time>2026-03-22T09:45:11.291Z</time></trkpt><trkpt lat="45.0803384" lon="11.4653199"><ele>7.75</ele><time>2026-03-22T09:45:12.279Z</time></trkpt><trkpt lat="45.0802226" lon="11.4651949"><ele>8.0</ele><time>2026-03-22T09:45:13.286Z</time></trkpt><trkpt lat="45.0800836" lon="11.4650634"><ele>8.666666666666666</ele><time>2026-03-22T09:45:14.281Z</time></trkpt><trkpt lat="45.0799274" lon="11.464939"><ele>9.333333333333334</ele><time>2026-03-22T09:45:15.281Z</time></trkpt><trkpt lat="45.0797763" lon="11.46484"><ele>10.0</ele><time>2026-03-22T09:45:16.279Z</time></trkpt><trkpt lat="45.079634" lon="11.4647512"><ele>10.0</ele><time>2026-03-22T09:45:17.282Z</time></trkpt><trkpt lat="45.0795012" lon="11.4646744"><ele>10.0</ele><time>2026-03-22T09:45:18.283Z</time></trkpt><trkpt lat="45.0793717" lon="11.4646158"><ele>10.0</ele><time>2026-03-22T09:45:19.283Z</time></trkpt><trkpt lat="45.0792433" lon="11.4645676"><ele>10.0</ele><time>2026-03-22T09:45:20.295Z</time></trkpt><trkpt lat="45.0791192" lon="11.4645218"><ele>9.5</ele><time>2026-03-22T09:45:21.284Z</time></trkpt><trkpt lat="45.0789938" lon="11.4644763"><ele>9.0</ele><time>2026-03-22T09:45:22.29Z</time></trkpt><trkpt lat="45.078869" lon="11.4644199"><ele>8.5</ele><time>2026-03-22T09:45:23.284Z</time></trkpt><trkpt lat="45.0787313" lon="11.4643468"><ele>8.0</ele><time>2026-03-22T09:45:24.278Z</time></trkpt><trkpt lat="45.0785788" lon="11.4642596"><ele>8.0</ele><time>2026-03-22T09:45:25.281Z</time></trkpt><trkpt lat="45.0784182" lon="11.4641562"><ele>8.0</ele><time>2026-03-22T09:45:26.287Z</time></trkpt><trkpt lat="45.0782512" lon="11.4640481"><ele>8.0</ele><time>2026-03-22T09:45:27.282Z</time></trkpt><trkpt lat="45.0780759" lon="11.4639284"><ele>8.0</ele><time>2026-03-22T09:45:28.283Z</time></trkpt><trkpt lat="45.077896" lon="11.4637894"><ele>8.0</ele><time>2026-03-22T09:45:29.292Z</time></trkpt><trkpt lat="45.0777184" lon="11.4636518"><ele>8.0</ele><time>2026-03-22T09:45:30.284Z</time></trkpt><trkpt lat="45.0775401" lon="11.4635113"><ele>8.333333333333332</ele><time>2026-03-22T09:45:31.283Z</time></trkpt><trkpt lat="45.0773652" lon="11.4633731"><ele>8.666666666666666</ele><time>2026-03-22T09:45:32.291Z</time></trkpt><trkpt lat="45.0771829" lon="11.4632278"><ele>9.0</ele><time>2026-03-22T09:45:33.287Z</time></trkpt><trkpt lat="45.0769907" lon="11.4630711"><ele>9.0</ele><time>2026-03-22T09:45:34.282Z</time></trkpt><trkpt lat="45.0767994" lon="11.4629242"><ele>9.0</ele><time>2026-03-22T09:45:35.28Z</time></trkpt><trkpt lat="45.0766119" lon="11.462779"><ele>9.0</ele><time>2026-03-22T09:45:36.275Z</time></trkpt><trkpt lat="45.0764175" lon="11.4626206"><ele>9.0</ele><time>2026-03-22T09:45:37.283Z</time></trkpt><trkpt lat="45.0762233" lon="11.4624645"><ele>9.0</ele><time>2026-03-22T09:45:38.279Z</time></trkpt><trkpt lat="45.0760389" lon="11.4623025"><ele>9.0</ele><time>2026-03-22T09:45:39.283Z</time></trkpt><trkpt lat="45.0758764" lon="11.4621314"><ele>8.0</ele><time>2026-03-22T09:45:40.286Z</time></trkpt><trkpt lat="45.0757441" lon="11.461925"><ele>7.0</ele><time>2026-03-22T09:45:41.284Z</time></trkpt><trkpt lat="45.0756316" lon="11.4616747"><ele>6.0</ele><time>2026-03-22T09:45:42.279Z</time></trkpt><trkpt lat="45.0755525" lon="11.4613993"><ele>6.666666666666666</ele><time>2026-03-22T09:45:43.279Z</time></trkpt><trkpt lat="45.0754743" lon="11.4611208"><ele>7.333333333333333</ele><time>2026-03-22T09:45:44.282Z</time></trkpt><trkpt lat="45.0753864" lon="11.4608397"><ele>8.0</ele><time>2026-03-22T09:45:45.279Z</time></trkpt><trkpt lat="45.0752965" lon="11.4605841"><ele>8.0</ele><time>2026-03-22T09:45:46.277Z</time></trkpt><trkpt lat="45.0751865" lon="11.4603633"><ele>8.0</ele><time>2026-03-22T09:45:47.291Z</time></trkpt><trkpt lat="45.0750316" lon="11.4602122"><ele>8.0</ele><time>2026-03-22T09:45:48.283Z</time></trkpt><trkpt lat="45.0748713" lon="11.4600927"><ele>7.666666666666666</ele><time>2026-03-22T09:45:49.272Z</time></trkpt><trkpt lat="45.0747058" lon="11.4600041"><ele>7.333333333333334</ele><time>2026-03-22T09:45:50.279Z</time></trkpt><trkpt lat="45.074523" lon="11.4599701"><ele>7.0</ele><time>2026-03-22T09:45:51.272Z</time></trkpt><trkpt lat="45.0743308" lon="11.4599398"><ele>7.0</ele><time>2026-03-22T09:45:52.285Z</time></trkpt><trkpt lat="45.0741357" lon="11.4599361"><ele>7.0</ele><time>2026-03-22T09:45:53.283Z</time></trkpt><trkpt lat="45.0739474" lon="11.4599296"><ele>7.0</ele><time>2026-03-22T09:45:54.284Z</time></trkpt><trkpt lat="45.0737587" lon="11.4598964"><ele>7.333333333333334</ele><time>2026-03-22T09:45:55.281Z</time></trkpt><trkpt lat="45.0735746" lon="11.4598279"><ele>7.666666666666666</ele><time>2026-03-22T09:45:56.282Z</time></trkpt><trkpt lat="45.0733915" lon="11.4597269"><ele>8.0</ele><time>2026-03-22T09:45:57.276Z</time></trkpt><trkpt lat="45.073207" lon="11.4596194"><ele>7.666666666666666</ele><time>2026-03-22T09:45:58.282Z</time></trkpt><trkpt lat="45.0730251" lon="11.4595272"><ele>7.333333333333334</ele><time>2026-03-22T09:45:59.289Z</time></trkpt><trkpt lat="45.0728507" lon="11.4594544"><ele>7.0</ele><time>2026-03-22T09:46:00.287Z</time></trkpt><trkpt lat="45.0726886" lon="11.4593963"><ele>7.0</ele><time>2026-03-22T09:46:01.282Z</time></trkpt><trkpt lat="45.0725282" lon="11.4593391"><ele>7.0</ele><time>2026-03-22T09:46:02.289Z</time></trkpt><trkpt lat="45.0723818" lon="11.4592846"><ele>7.0</ele><time>2026-03-22T09:46:03.285Z</time></trkpt><trkpt lat="45.0722682" lon="11.4592362"><ele>7.0</ele><time>2026-03-22T09:46:04.278Z</time></trkpt><trkpt lat="45.0721794" lon="11.4591851"><ele>7.199999999999999</ele><time>2026-03-22T09:46:05.274Z</time></trkpt><trkpt lat="45.0720937" lon="11.4591448"><ele>7.3999999999999995</ele><time>2026-03-22T09:46:06.28Z</time></trkpt><trkpt lat="45.0719889" lon="11.4591105"><ele>7.6000000000000005</ele><time>2026-03-22T09:46:07.283Z</time></trkpt><trkpt lat="45.0718921" lon="11.459072"><ele>7.800000000000001</ele><time>2026-03-22T09:46:08.284Z</time></trkpt><trkpt lat="45.071791" lon="11.459037"><ele>8.0</ele><time>2026-03-22T09:46:09.279Z</time></trkpt><trkpt lat="45.0716823" lon="11.4589968"><ele>8.0</ele><time>2026-03-22T09:46:10.286Z</time></trkpt><trkpt lat="45.071553" lon="11.4589487"><ele>8.0</ele><time>2026-03-22T09:46:11.278Z</time></trkpt><trkpt lat="45.07141" lon="11.4588966"><ele>8.0</ele><time>2026-03-22T09:46:12.287Z</time></trkpt><trkpt lat="45.0712493" lon="11.4588444"><ele>8.0</ele><time>2026-03-22T09:46:13.284Z</time></trkpt><trkpt lat="45.0710369" lon="11.4587718"><ele>8.0</ele><time>2026-03-22T09:46:14.286Z</time></trkpt><trkpt lat="45.0708246" lon="11.4586899"><ele>8.0</ele><time>2026-03-22T09:46:15.279Z</time></trkpt><trkpt lat="45.0706354" lon="11.458645"><ele>8.0</ele><time>2026-03-22T09:46:16.286Z</time></trkpt><trkpt lat="45.0704521" lon="11.4586499"><ele>8.0</ele><time>2026-03-22T09:46:17.281Z</time></trkpt><trkpt lat="45.0702591" lon="11.4586707"><ele>8.0</ele><time>2026-03-22T09:46:18.282Z</time></trkpt><trkpt lat="45.0700728" lon="11.4586957"><ele>8.0</ele><time>2026-03-22T09:46:19.282Z</time></trkpt><trkpt lat="45.0698912" lon="11.4587116"><ele>7.666666666666666</ele><time>2026-03-22T09:46:20.293Z</time></trkpt><trkpt lat="45.0697057" lon="11.4587125"><ele>7.333333333333334</ele><time>2026-03-22T09:46:21.277Z</time></trkpt><trkpt lat="45.0695295" lon="11.4586776"><ele>7.0</ele><time>2026-03-22T09:46:22.277Z</time></trkpt><trkpt lat="45.069364" lon="11.4585931"><ele>7.0</ele><time>2026-03-22T09:46:23.288Z</time></trkpt><trkpt lat="45.0692092" lon="11.4584671"><ele>7.0</ele><time>2026-03-22T09:46:24.287Z</time></trkpt><trkpt lat="45.0690518" lon="11.4583066"><ele>7.0</ele><time>2026-03-22T09:46:25.278Z</time></trkpt><trkpt lat="45.0689104" lon="11.4581204"><ele>7.666666666666667</ele><time>2026-03-22T09:46:26.278Z</time></trkpt><trkpt lat="45.0687782" lon="11.457905"><ele>8.333333333333334</ele><time>2026-03-22T09:46:27.274Z</time></trkpt><trkpt lat="45.0686465" lon="11.4576589"><ele>9.0</ele><time>2026-03-22T09:46:28.273Z</time></trkpt><trkpt lat="45.0685147" lon="11.4573987"><ele>9.0</ele><time>2026-03-22T09:46:29.287Z</time></trkpt><trkpt lat="45.0683755" lon="11.4571381"><ele>9.0</ele><time>2026-03-22T09:46:30.274Z</time></trkpt><trkpt lat="45.0682419" lon="11.4568996"><ele>9.0</ele><time>2026-03-22T09:46:31.282Z</time></trkpt><trkpt lat="45.0681112" lon="11.4566563"><ele>9.333333333333334</ele><time>2026-03-22T09:46:32.28Z</time></trkpt><trkpt lat="45.0679779" lon="11.456415"><ele>9.666666666666668</ele><time>2026-03-22T09:46:33.284Z</time></trkpt><trkpt lat="45.0678579" lon="11.4561859"><ele>10.0</ele><time>2026-03-22T09:46:34.282Z</time></trkpt><trkpt lat="45.0677292" lon="11.4559618"><ele>10.0</ele><time>2026-03-22T09:46:35.286Z</time></trkpt><trkpt lat="45.0676069" lon="11.4557435"><ele>10.0</ele><time>2026-03-22T09:46:36.283Z</time></trkpt><trkpt lat="45.0674864" lon="11.455531"><ele>10.0</ele><time>2026-03-22T09:46:37.282Z</time></trkpt><trkpt lat="45.0673706" lon="11.455317"><ele>9.666666666666668</ele><time>2026-03-22T09:46:38.279Z</time></trkpt><trkpt lat="45.0672504" lon="11.455101"><ele>9.333333333333334</ele><time>2026-03-22T09:46:39.286Z</time></trkpt><trkpt lat="45.0671366" lon="11.4548924"><ele>9.0</ele><time>2026-03-22T09:46:40.286Z</time></trkpt><trkpt lat="45.0670376" lon="11.4546767"><ele>9.0</ele><time>2026-03-22T09:46:41.283Z</time></trkpt><trkpt lat="45.0669607" lon="11.4544484"><ele>9.0</ele><time>2026-03-22T09:46:42.286Z</time></trkpt><trkpt lat="45.066917" lon="11.454199"><ele>9.0</ele><time>2026-03-22T09:46:43.281Z</time></trkpt><trkpt lat="45.0668886" lon="11.4539408"><ele>9.666666666666666</ele><time>2026-03-22T09:46:44.282Z</time></trkpt><trkpt lat="45.0668671" lon="11.4536913"><ele>10.333333333333332</ele><time>2026-03-22T09:46:45.28Z</time></trkpt><trkpt lat="45.0668433" lon="11.4534437"><ele>11.0</ele><time>2026-03-22T09:46:46.284Z</time></trkpt><trkpt lat="45.066823" lon="11.4532095"><ele>11.0</ele><time>2026-03-22T09:46:47.28Z</time></trkpt><trkpt lat="45.0668013" lon="11.4529789"><ele>11.0</ele><time>2026-03-22T09:46:48.285Z</time></trkpt><trkpt lat="45.0667781" lon="11.4527621"><ele>11.0</ele><time>2026-03-22T09:46:49.283Z</time></trkpt><trkpt lat="45.0667537" lon="11.452563"><ele>10.833333333333332</ele><time>2026-03-22T09:46:50.279Z</time></trkpt><trkpt lat="45.0667187" lon="11.4524003"><ele>10.666666666666666</ele><time>2026-03-22T09:46:51.289Z</time></trkpt><trkpt lat="45.0666874" lon="11.4522826"><ele>10.5</ele><time>2026-03-22T09:46:52.284Z</time></trkpt><trkpt lat="45.0666543" lon="11.4521821"><ele>10.333333333333334</ele><time>2026-03-22T09:46:53.282Z</time></trkpt><trkpt lat="45.0666154" lon="11.4520883"><ele>10.166666666666668</ele><time>2026-03-22T09:46:54.284Z</time></trkpt><trkpt lat="45.0665825" lon="11.4519988"><ele>10.0</ele><time>2026-03-22T09:46:55.283Z</time></trkpt><trkpt lat="45.0665666" lon="11.4518994"><ele>10.0</ele><time>2026-03-22T09:46:56.282Z</time></trkpt><trkpt lat="45.0665603" lon="11.4517823"><ele>10.0</ele><time>2026-03-22T09:46:57.278Z</time></trkpt><trkpt lat="45.0665682" lon="11.4516589"><ele>10.0</ele><time>2026-03-22T09:46:58.272Z</time></trkpt><trkpt lat="45.0665895" lon="11.4515156"><ele>10.0</ele><time>2026-03-22T09:46:59.284Z</time></trkpt><trkpt lat="45.0666169" lon="11.4513431"><ele>10.0</ele><time>2026-03-22T09:47:00.274Z</time></trkpt><trkpt lat="45.0666437" lon="11.4511303"><ele>10.25</ele><time>2026-03-22T09:47:01.271Z</time></trkpt><trkpt lat="45.0666629" lon="11.4509265"><ele>10.5</ele><time>2026-03-22T09:47:02.281Z</time></trkpt><trkpt lat="45.0666805" lon="11.4507274"><ele>10.75</ele><time>2026-03-22T09:47:03.266Z</time></trkpt><trkpt lat="45.0667139" lon="11.4505444"><ele>11.0</ele><time>2026-03-22T09:47:04.271Z</time></trkpt><trkpt lat="45.0667691" lon="11.4503622"><ele>11.0</ele><time>2026-03-22T09:47:05.258Z</time></trkpt><trkpt lat="45.066862" lon="11.4501845"><ele>11.0</ele><time>2026-03-22T09:47:06.27Z</time></trkpt><trkpt lat="45.066983" lon="11.450006"><ele>11.0</ele><time>2026-03-22T09:47:07.271Z</time></trkpt><trkpt lat="45.0670918" lon="11.4498062"><ele>10.666666666666666</ele><time>2026-03-22T09:47:08.276Z</time></trkpt><trkpt lat="45.0671957" lon="11.4495816"><ele>10.333333333333334</ele><time>2026-03-22T09:47:09.28Z</time></trkpt><trkpt lat="45.0672964" lon="11.4493539"><ele>10.0</ele><time>2026-03-22T09:47:10.28Z</time></trkpt><trkpt lat="45.0673801" lon="11.4491177"><ele>10.333333333333334</ele><time>2026-03-22T09:47:11.279Z</time></trkpt><trkpt lat="45.0674521" lon="11.4488769"><ele>10.666666666666666</ele><time>2026-03-22T09:47:12.283Z</time></trkpt><trkpt lat="45.0675163" lon="11.4486494"><ele>11.0</ele><time>2026-03-22T09:47:13.28Z</time></trkpt><trkpt lat="45.0675713" lon="11.4484293"><ele>10.5</ele><time>2026-03-22T09:47:14.285Z</time></trkpt><trkpt lat="45.0676116" lon="11.448219"><ele>10.0</ele><time>2026-03-22T09:47:15.276Z</time></trkpt><trkpt lat="45.0676268" lon="11.4480137"><ele>9.5</ele><time>2026-03-22T09:47:16.287Z</time></trkpt><trkpt lat="45.0676208" lon="11.4478047"><ele>9.0</ele><time>2026-03-22T09:47:17.277Z</time></trkpt><trkpt lat="45.0675804" lon="11.4475813"><ele>9.0</ele><time>2026-03-22T09:47:18.276Z</time></trkpt><trkpt lat="45.0675108" lon="11.4473537"><ele>9.0</ele><time>2026-03-22T09:47:19.272Z</time></trkpt><trkpt lat="45.0674396" lon="11.4471136"><ele>9.0</ele><time>2026-03-22T09:47:20.277Z</time></trkpt><trkpt lat="45.0673625" lon="11.4468527"><ele>9.0</ele><time>2026-03-22T09:47:21.283Z</time></trkpt><trkpt lat="45.0672765" lon="11.4465874"><ele>9.0</ele><time>2026-03-22T09:47:22.282Z</time></trkpt><trkpt lat="45.0671807" lon="11.4463224"><ele>9.0</ele><time>2026-03-22T09:47:23.288Z</time></trkpt><trkpt lat="45.0670787" lon="11.4460396"><ele>9.0</ele><time>2026-03-22T09:47:24.281Z</time></trkpt><trkpt lat="45.0669696" lon="11.4457442"><ele>9.0</ele><time>2026-03-22T09:47:25.285Z</time></trkpt><trkpt lat="45.0668651" lon="11.4454457"><ele>9.0</ele><time>2026-03-22T09:47:26.281Z</time></trkpt><trkpt lat="45.0667763" lon="11.4451412"><ele>9.0</ele><time>2026-03-22T09:47:27.286Z</time></trkpt><trkpt lat="45.0666973" lon="11.444832"><ele>9.0</ele><time>2026-03-22T09:47:28.281Z</time></trkpt><trkpt lat="45.0666404" lon="11.4445144"><ele>9.0</ele><time>2026-03-22T09:47:29.294Z</time></trkpt><trkpt lat="45.0665916" lon="11.4441942"><ele>8.5</ele><time>2026-03-22T09:47:30.287Z</time></trkpt><trkpt lat="45.066539" lon="11.4438717"><ele>8.0</ele><time>2026-03-22T09:47:31.28Z</time></trkpt><trkpt lat="45.0664652" lon="11.4435559"><ele>8.0</ele><time>2026-03-22T09:47:32.289Z</time></trkpt><trkpt lat="45.0663876" lon="11.4432318"><ele>8.0</ele><time>2026-03-22T09:47:33.287Z</time></trkpt><trkpt lat="45.066316" lon="11.4428934"><ele>7.5</ele><time>2026-03-22T09:47:34.285Z</time></trkpt><trkpt lat="45.0662634" lon="11.442552"><ele>7.0</ele><time>2026-03-22T09:47:35.285Z</time></trkpt><trkpt lat="45.0662139" lon="11.4422085"><ele>7.5</ele><time>2026-03-22T09:47:36.284Z</time></trkpt><trkpt lat="45.0661379" lon="11.4418759"><ele>8.0</ele><time>2026-03-22T09:47:37.29Z</time></trkpt><trkpt lat="45.0660519" lon="11.4415467"><ele>7.5</ele><time>2026-03-22T09:47:38.286Z</time></trkpt><trkpt lat="45.0659606" lon="11.441213"><ele>7.0</ele><time>2026-03-22T09:47:39.292Z</time></trkpt><trkpt lat="45.0658749" lon="11.4408841"><ele>7.0</ele><time>2026-03-22T09:47:40.285Z</time></trkpt><trkpt lat="45.0657792" lon="11.4405519"><ele>7.0</ele><time>2026-03-22T09:47:41.289Z</time></trkpt><trkpt lat="45.0656649" lon="11.4402301"><ele>7.5</ele><time>2026-03-22T09:47:42.28Z</time></trkpt><trkpt lat="45.0655343" lon="11.439916"><ele>8.0</ele><time>2026-03-22T09:47:43.285Z</time></trkpt><trkpt lat="45.0654135" lon="11.4395955"><ele>8.5</ele><time>2026-03-22T09:47:44.283Z</time></trkpt><trkpt lat="45.0653238" lon="11.4392609"><ele>9.0</ele><time>2026-03-22T09:47:45.284Z</time></trkpt><trkpt lat="45.0652567" lon="11.438921"><ele>9.0</ele><time>2026-03-22T09:47:46.284Z</time></trkpt><trkpt lat="45.0651936" lon="11.4385841"><ele>9.0</ele><time>2026-03-22T09:47:47.287Z</time></trkpt><trkpt lat="45.0651149" lon="11.4382687"><ele>9.0</ele><time>2026-03-22T09:47:48.286Z</time></trkpt><trkpt lat="45.0650037" lon="11.4379729"><ele>9.0</ele><time>2026-03-22T09:47:49.286Z</time></trkpt><trkpt lat="45.0648795" lon="11.4376994"><ele>8.0</ele><time>2026-03-22T09:47:50.292Z</time></trkpt><trkpt lat="45.0647428" lon="11.4374328"><ele>7.0</ele><time>2026-03-22T09:47:51.284Z</time></trkpt><trkpt lat="45.0645953" lon="11.4371735"><ele>7.5</ele><time>2026-03-22T09:47:52.299Z</time></trkpt><trkpt lat="45.0644517" lon="11.4369063"><ele>8.0</ele><time>2026-03-22T09:47:53.29Z</time></trkpt><trkpt lat="45.0643078" lon="11.4366359"><ele>8.0</ele><time>2026-03-22T09:47:54.288Z</time></trkpt><trkpt lat="45.064165" lon="11.4363689"><ele>8.0</ele><time>2026-03-22T09:47:55.285Z</time></trkpt><trkpt lat="45.06401" lon="11.4361015"><ele>8.5</ele><time>2026-03-22T09:47:56.295Z</time></trkpt><trkpt lat="45.0638603" lon="11.4358366"><ele>9.0</ele><time>2026-03-22T09:47:57.294Z</time></trkpt><trkpt lat="45.0637235" lon="11.4355482"><ele>8.5</ele><time>2026-03-22T09:47:58.297Z</time></trkpt><trkpt lat="45.0636083" lon="11.4352385"><ele>8.0</ele><time>2026-03-22T09:47:59.31Z</time></trkpt><trkpt lat="45.0634812" lon="11.4349257"><ele>8.0</ele><time>2026-03-22T09:48:00.304Z</time></trkpt><trkpt lat="45.0633372" lon="11.4346387"><ele>8.0</ele><time>2026-03-22T09:48:01.308Z</time></trkpt><trkpt lat="45.0631875" lon="11.4343643"><ele>8.0</ele><time>2026-03-22T09:48:02.308Z</time></trkpt><trkpt lat="45.0630403" lon="11.4340912"><ele>8.0</ele><time>2026-03-22T09:48:03.297Z</time></trkpt><trkpt lat="45.0628941" lon="11.4337999"><ele>8.0</ele><time>2026-03-22T09:48:04.297Z</time></trkpt><trkpt lat="45.0627541" lon="11.4334935"><ele>8.0</ele><time>2026-03-22T09:48:05.294Z</time></trkpt><trkpt lat="45.0626244" lon="11.4331829"><ele>7.5</ele><time>2026-03-22T09:48:06.298Z</time></trkpt><trkpt lat="45.0624996" lon="11.4328703"><ele>7.0</ele><time>2026-03-22T09:48:07.286Z</time></trkpt><trkpt lat="45.0623769" lon="11.4325585"><ele>7.0</ele><time>2026-03-22T09:48:08.291Z</time></trkpt><trkpt lat="45.0622585" lon="11.4322469"><ele>7.0</ele><time>2026-03-22T09:48:09.284Z</time></trkpt><trkpt lat="45.062152" lon="11.4319536"><ele>7.0</ele><time>2026-03-22T09:48:10.286Z</time></trkpt><trkpt lat="45.0620531" lon="11.4316733"><ele>7.0</ele><time>2026-03-22T09:48:11.29Z</time></trkpt><trkpt lat="45.0619525" lon="11.4313989"><ele>7.0</ele><time>2026-03-22T09:48:12.29Z</time></trkpt><trkpt lat="45.0618552" lon="11.4311118"><ele>7.5</ele><time>2026-03-22T09:48:13.29Z</time></trkpt><trkpt lat="45.0617667" lon="11.4308129"><ele>8.0</ele><time>2026-03-22T09:48:14.284Z</time></trkpt><trkpt lat="45.0617018" lon="11.4305016"><ele>7.5</ele><time>2026-03-22T09:48:15.284Z</time></trkpt><trkpt lat="45.0616544" lon="11.4301772"><ele>7.0</ele><time>2026-03-22T09:48:16.287Z</time></trkpt><trkpt lat="45.0616235" lon="11.4298458"><ele>7.5</ele><time>2026-03-22T09:48:17.285Z</time></trkpt><trkpt lat="45.061605" lon="11.429512"><ele>8.0</ele><time>2026-03-22T09:48:18.292Z</time></trkpt><trkpt lat="45.0615946" lon="11.4291773"><ele>8.0</ele><time>2026-03-22T09:48:19.284Z</time></trkpt><trkpt lat="45.0615911" lon="11.4288511"><ele>8.0</ele><time>2026-03-22T09:48:20.29Z</time></trkpt><trkpt lat="45.0615923" lon="11.4285482"><ele>8.0</ele><time>2026-03-22T09:48:21.283Z</time></trkpt><trkpt lat="45.0616006" lon="11.4282463"><ele>8.0</ele><time>2026-03-22T09:48:22.289Z</time></trkpt><trkpt lat="45.0616125" lon="11.42794"><ele>8.0</ele><time>2026-03-22T09:48:23.289Z</time></trkpt><trkpt lat="45.0616324" lon="11.4276332"><ele>8.0</ele><time>2026-03-22T09:48:24.287Z</time></trkpt><trkpt lat="45.0616434" lon="11.4273173"><ele>8.0</ele><time>2026-03-22T09:48:25.29Z</time></trkpt><trkpt lat="45.061637" lon="11.4269989"><ele>8.0</ele><time>2026-03-22T09:48:26.29Z</time></trkpt><trkpt lat="45.0616224" lon="11.4266807"><ele>7.5</ele><time>2026-03-22T09:48:27.292Z</time></trkpt><trkpt lat="45.0615951" lon="11.4263573"><ele>7.0</ele><time>2026-03-22T09:48:28.29Z</time></trkpt><trkpt lat="45.0615655" lon="11.4260314"><ele>7.5</ele><time>2026-03-22T09:48:29.298Z</time></trkpt><trkpt lat="45.0615317" lon="11.4257116"><ele>8.0</ele><time>2026-03-22T09:48:30.289Z</time></trkpt><trkpt lat="45.0614921" lon="11.4253844"><ele>8.0</ele><time>2026-03-22T09:48:31.29Z</time></trkpt><trkpt lat="45.0614464" lon="11.425068"><ele>8.0</ele><time>2026-03-22T09:48:32.289Z</time></trkpt><trkpt lat="45.061399" lon="11.4247767"><ele>8.0</ele><time>2026-03-22T09:48:33.283Z</time></trkpt><trkpt lat="45.0613427" lon="11.4245016"><ele>7.666666666666666</ele><time>2026-03-22T09:48:34.286Z</time></trkpt><trkpt lat="45.0612605" lon="11.4242569"><ele>7.333333333333334</ele><time>2026-03-22T09:48:35.295Z</time></trkpt><trkpt lat="45.0611366" lon="11.4240354"><ele>7.0</ele><time>2026-03-22T09:48:36.284Z</time></trkpt><trkpt lat="45.0610018" lon="11.4238281"><ele>7.0</ele><time>2026-03-22T09:48:37.29Z</time></trkpt><trkpt lat="45.0608474" lon="11.4236342"><ele>7.0</ele><time>2026-03-22T09:48:38.288Z</time></trkpt><trkpt lat="45.0606898" lon="11.4234399"><ele>7.0</ele><time>2026-03-22T09:48:39.296Z</time></trkpt><trkpt lat="45.0605254" lon="11.4232356"><ele>7.333333333333334</ele><time>2026-03-22T09:48:40.295Z</time></trkpt><trkpt lat="45.0603619" lon="11.4230213"><ele>7.666666666666666</ele><time>2026-03-22T09:48:41.286Z</time></trkpt><trkpt lat="45.0601946" lon="11.422815"><ele>8.0</ele><time>2026-03-22T09:48:42.299Z</time></trkpt><trkpt lat="45.060026" lon="11.422597"><ele>8.0</ele><time>2026-03-22T09:48:43.291Z</time></trkpt><trkpt lat="45.0598456" lon="11.4223669"><ele>8.0</ele><time>2026-03-22T09:48:44.291Z</time></trkpt><trkpt lat="45.0596648" lon="11.4221332"><ele>8.0</ele><time>2026-03-22T09:48:45.3Z</time></trkpt><trkpt lat="45.0594822" lon="11.4219045"><ele>8.0</ele><time>2026-03-22T09:48:46.295Z</time></trkpt><trkpt lat="45.0593022" lon="11.4216748"><ele>8.5</ele><time>2026-03-22T09:48:47.307Z</time></trkpt><trkpt lat="45.0591087" lon="11.4214321"><ele>9.0</ele><time>2026-03-22T09:48:48.296Z</time></trkpt><trkpt lat="45.0589176" lon="11.4211861"><ele>9.5</ele><time>2026-03-22T09:48:49.294Z</time></trkpt><trkpt lat="45.0587252" lon="11.4209425"><ele>10.0</ele><time>2026-03-22T09:48:50.293Z</time></trkpt><trkpt lat="45.0585407" lon="11.4207026"><ele>9.0</ele><time>2026-03-22T09:48:51.29Z</time></trkpt><trkpt lat="45.0583741" lon="11.4204822"><ele>8.0</ele><time>2026-03-22T09:48:52.288Z</time></trkpt><trkpt lat="45.0582041" lon="11.4202606"><ele>8.0</ele><time>2026-03-22T09:48:53.288Z</time></trkpt><trkpt lat="45.0580349" lon="11.4200555"><ele>8.0</ele><time>2026-03-22T09:48:54.283Z</time></trkpt><trkpt lat="45.0578662" lon="11.419898"><ele>8.0</ele><time>2026-03-22T09:48:55.291Z</time></trkpt><trkpt lat="45.0576854" lon="11.4197959"><ele>8.0</ele><time>2026-03-22T09:48:56.29Z</time></trkpt><trkpt lat="45.0574957" lon="11.419741"><ele>8.0</ele><time>2026-03-22T09:48:57.29Z</time></trkpt><trkpt lat="45.057288" lon="11.4197261"><ele>8.0</ele><time>2026-03-22T09:48:58.294Z</time></trkpt><trkpt lat="45.0570763" lon="11.4197153"><ele>8.0</ele><time>2026-03-22T09:48:59.293Z</time></trkpt><trkpt lat="45.0568671" lon="11.4196915"><ele>8.0</ele><time>2026-03-22T09:49:00.287Z</time></trkpt><trkpt lat="45.0566413" lon="11.4196579"><ele>8.0</ele><time>2026-03-22T09:49:01.286Z</time></trkpt><trkpt lat="45.0564104" lon="11.4196287"><ele>8.5</ele><time>2026-03-22T09:49:02.307Z</time></trkpt><trkpt lat="45.0561862" lon="11.4196048"><ele>9.0</ele><time>2026-03-22T09:49:03.286Z</time></trkpt><trkpt lat="45.0559574" lon="11.4195719"><ele>8.0</ele><time>2026-03-22T09:49:04.288Z</time></trkpt><trkpt lat="45.0557296" lon="11.4195343"><ele>7.0</ele><time>2026-03-22T09:49:05.298Z</time></trkpt><trkpt lat="45.0554994" lon="11.4194986"><ele>7.0</ele><time>2026-03-22T09:49:06.283Z</time></trkpt><trkpt lat="45.0552698" lon="11.4194689"><ele>7.0</ele><time>2026-03-22T09:49:07.295Z</time></trkpt><trkpt lat="45.055038" lon="11.4194452"><ele>7.5</ele><time>2026-03-22T09:49:08.286Z</time></trkpt><trkpt lat="45.0548012" lon="11.4194143"><ele>8.0</ele><time>2026-03-22T09:49:09.287Z</time></trkpt><trkpt lat="45.054567" lon="11.419385"><ele>8.0</ele><time>2026-03-22T09:49:10.289Z</time></trkpt><trkpt lat="45.0543305" lon="11.4193542"><ele>8.0</ele><time>2026-03-22T09:49:11.29Z</time></trkpt><trkpt lat="45.0540955" lon="11.4193258"><ele>8.5</ele><time>2026-03-22T09:49:12.287Z</time></trkpt><trkpt lat="45.0538608" lon="11.4192931"><ele>9.0</ele><time>2026-03-22T09:49:13.289Z</time></trkpt><trkpt lat="45.0536315" lon="11.4192625"><ele>9.0</ele><time>2026-03-22T09:49:14.29Z</time></trkpt><trkpt lat="45.0534174" lon="11.4192351"><ele>9.0</ele><time>2026-03-22T09:49:15.293Z</time></trkpt><trkpt lat="45.0532066" lon="11.4191904"><ele>9.0</ele><time>2026-03-22T09:49:16.287Z</time></trkpt><trkpt lat="45.0530081" lon="11.4191064"><ele>8.0</ele><time>2026-03-22T09:49:17.29Z</time></trkpt><trkpt lat="45.0528336" lon="11.4189642"><ele>7.0</ele><time>2026-03-22T09:49:18.292Z</time></trkpt><trkpt lat="45.0526823" lon="11.4187711"><ele>6.0</ele><time>2026-03-22T09:49:19.29Z</time></trkpt><trkpt lat="45.0525525" lon="11.4185488"><ele>6.0</ele><time>2026-03-22T09:49:20.286Z</time></trkpt><trkpt lat="45.052433" lon="11.4183041"><ele>6.0</ele><time>2026-03-22T09:49:21.287Z</time></trkpt><trkpt lat="45.0523465" lon="11.418029"><ele>6.0</ele><time>2026-03-22T09:49:22.294Z</time></trkpt><trkpt lat="45.0523129" lon="11.4177463"><ele>6.0</ele><time>2026-03-22T09:49:23.286Z</time></trkpt><trkpt lat="45.0522937" lon="11.4174567"><ele>6.0</ele><time>2026-03-22T09:49:24.287Z</time></trkpt><trkpt lat="45.0522675" lon="11.4171535"><ele>6.0</ele><time>2026-03-22T09:49:25.289Z</time></trkpt><trkpt lat="45.0522349" lon="11.4168415"><ele>7.0</ele><time>2026-03-22T09:49:26.288Z</time></trkpt><trkpt lat="45.0522035" lon="11.4165224"><ele>8.0</ele><time>2026-03-22T09:49:27.293Z</time></trkpt><trkpt lat="45.0521747" lon="11.4161957"><ele>8.5</ele><time>2026-03-22T09:49:28.284Z</time></trkpt><trkpt lat="45.052141" lon="11.4158623"><ele>9.0</ele><time>2026-03-22T09:49:29.303Z</time></trkpt><trkpt lat="45.0521079" lon="11.415534"><ele>8.5</ele><time>2026-03-22T09:49:30.286Z</time></trkpt><trkpt lat="45.0520773" lon="11.4152046"><ele>8.0</ele><time>2026-03-22T09:49:31.296Z</time></trkpt><trkpt lat="45.0520473" lon="11.4148745"><ele>7.0</ele><time>2026-03-22T09:49:32.297Z</time></trkpt><trkpt lat="45.0520162" lon="11.4145457"><ele>6.0</ele><time>2026-03-22T09:49:33.291Z</time></trkpt><trkpt lat="45.051983" lon="11.4142177"><ele>6.0</ele><time>2026-03-22T09:49:34.303Z</time></trkpt><trkpt lat="45.0519453" lon="11.4139037"><ele>6.0</ele><time>2026-03-22T09:49:35.289Z</time></trkpt><trkpt lat="45.0519097" lon="11.4135952"><ele>6.0</ele><time>2026-03-22T09:49:36.295Z</time></trkpt><trkpt lat="45.0518747" lon="11.4132831"><ele>6.0</ele><time>2026-03-22T09:49:37.293Z</time></trkpt><trkpt lat="45.0518502" lon="11.4129632"><ele>6.0</ele><time>2026-03-22T09:49:38.296Z</time></trkpt><trkpt lat="45.0518175" lon="11.4126403"><ele>6.0</ele><time>2026-03-22T09:49:39.293Z</time></trkpt><trkpt lat="45.0517821" lon="11.412309"><ele>6.0</ele><time>2026-03-22T09:49:40.293Z</time></trkpt><trkpt lat="45.0517482" lon="11.4119817"><ele>5.5</ele><time>2026-03-22T09:49:41.29Z</time></trkpt><trkpt lat="45.051711" lon="11.411652"><ele>5.0</ele><time>2026-03-22T09:49:42.29Z</time></trkpt><trkpt lat="45.0516761" lon="11.4113235"><ele>5.0</ele><time>2026-03-22T09:49:43.29Z</time></trkpt><trkpt lat="45.0516246" lon="11.4109909"><ele>5.0</ele><time>2026-03-22T09:49:44.295Z</time></trkpt><trkpt lat="45.0515626" lon="11.4106709"><ele>6.0</ele><time>2026-03-22T09:49:45.29Z</time></trkpt><trkpt lat="45.0514816" lon="11.4103563"><ele>7.0</ele><time>2026-03-22T09:49:46.288Z</time></trkpt><trkpt lat="45.0513788" lon="11.4100484"><ele>7.0</ele><time>2026-03-22T09:49:47.288Z</time></trkpt><trkpt lat="45.0512507" lon="11.409743"><ele>7.0</ele><time>2026-03-22T09:49:48.283Z</time></trkpt><trkpt lat="45.0511074" lon="11.4094567"><ele>7.0</ele><time>2026-03-22T09:49:49.293Z</time></trkpt><trkpt lat="45.0509494" lon="11.4091839"><ele>7.0</ele><time>2026-03-22T09:49:50.291Z</time></trkpt><trkpt lat="45.0507734" lon="11.4089282"><ele>7.5</ele><time>2026-03-22T09:49:51.296Z</time></trkpt><trkpt lat="45.0505934" lon="11.4086836"><ele>8.0</ele><time>2026-03-22T09:49:52.294Z</time></trkpt><trkpt lat="45.0504122" lon="11.4084464"><ele>8.0</ele><time>2026-03-22T09:49:53.3Z</time></trkpt><trkpt lat="45.0502326" lon="11.4082033"><ele>8.0</ele><time>2026-03-22T09:49:54.29Z</time></trkpt><trkpt lat="45.0500583" lon="11.4079697"><ele>7.5</ele><time>2026-03-22T09:49:55.292Z</time></trkpt><trkpt lat="45.0498899" lon="11.4077406"><ele>7.0</ele><time>2026-03-22T09:49:56.29Z</time></trkpt><trkpt lat="45.0497179" lon="11.4075139"><ele>7.0</ele><time>2026-03-22T09:49:57.302Z</time></trkpt><trkpt lat="45.0495498" lon="11.407289"><ele>7.0</ele><time>2026-03-22T09:49:58.295Z</time></trkpt><trkpt lat="45.049382" lon="11.4070578"><ele>7.0</ele><time>2026-03-22T09:49:59.306Z</time></trkpt><trkpt lat="45.0492155" lon="11.4068217"><ele>7.0</ele><time>2026-03-22T09:50:00.296Z</time></trkpt><trkpt lat="45.0490461" lon="11.4065864"><ele>7.0</ele><time>2026-03-22T09:50:01.299Z</time></trkpt><trkpt lat="45.0488727" lon="11.4063593"><ele>7.0</ele><time>2026-03-22T09:50:02.309Z</time></trkpt><trkpt lat="45.0486819" lon="11.4061392"><ele>6.5</ele><time>2026-03-22T09:50:03.287Z</time></trkpt><trkpt lat="45.0484856" lon="11.4059334"><ele>6.0</ele><time>2026-03-22T09:50:04.285Z</time></trkpt><trkpt lat="45.048271" lon="11.4057408"><ele>6.0</ele><time>2026-03-22T09:50:05.292Z</time></trkpt><trkpt lat="45.0480429" lon="11.4055638"><ele>6.0</ele><time>2026-03-22T09:50:06.289Z</time></trkpt><trkpt lat="45.0478112" lon="11.4054018"><ele>6.5</ele><time>2026-03-22T09:50:07.29Z</time></trkpt><trkpt lat="45.0475722" lon="11.405261"><ele>7.0</ele><time>2026-03-22T09:50:08.289Z</time></trkpt><trkpt lat="45.0473367" lon="11.4051481"><ele>7.0</ele><time>2026-03-22T09:50:09.289Z</time></trkpt><trkpt lat="45.0471032" lon="11.4050451"><ele>7.0</ele><time>2026-03-22T09:50:10.291Z</time></trkpt><trkpt lat="45.0468665" lon="11.4049492"><ele>7.0</ele><time>2026-03-22T09:50:11.294Z</time></trkpt><trkpt lat="45.0466279" lon="11.4048589"><ele>7.0</ele><time>2026-03-22T09:50:12.289Z</time></trkpt><trkpt lat="45.0463886" lon="11.4047678"><ele>7.5</ele><time>2026-03-22T09:50:13.292Z</time></trkpt><trkpt lat="45.0461568" lon="11.4046752"><ele>8.0</ele><time>2026-03-22T09:50:14.296Z</time></trkpt><trkpt lat="45.0459265" lon="11.4045806"><ele>7.5</ele><time>2026-03-22T09:50:15.298Z</time></trkpt><trkpt lat="45.0456952" lon="11.4044836"><ele>7.0</ele><time>2026-03-22T09:50:16.301Z</time></trkpt><trkpt lat="45.0454603" lon="11.4043898"><ele>7.0</ele><time>2026-03-22T09:50:17.288Z</time></trkpt><trkpt lat="45.045226" lon="11.4042885"><ele>7.0</ele><time>2026-03-22T09:50:18.291Z</time></trkpt><trkpt lat="45.0449915" lon="11.4041958"><ele>7.5</ele><time>2026-03-22T09:50:19.295Z</time></trkpt><trkpt lat="45.0447596" lon="11.4041107"><ele>8.0</ele><time>2026-03-22T09:50:20.301Z</time></trkpt><trkpt lat="45.0445305" lon="11.4040157"><ele>8.0</ele><time>2026-03-22T09:50:21.291Z</time></trkpt><trkpt lat="45.0442945" lon="11.4039186"><ele>8.0</ele><time>2026-03-22T09:50:22.297Z</time></trkpt><trkpt lat="45.0440584" lon="11.403825"><ele>8.0</ele><time>2026-03-22T09:50:23.289Z</time></trkpt><trkpt lat="45.0438234" lon="11.4037348"><ele>8.0</ele><time>2026-03-22T09:50:24.296Z</time></trkpt><trkpt lat="45.0435885" lon="11.4036451"><ele>8.0</ele><time>2026-03-22T09:50:25.291Z</time></trkpt><trkpt lat="45.0433634" lon="11.4035467"><ele>8.0</ele><time>2026-03-22T09:50:26.294Z</time></trkpt><trkpt lat="45.0431554" lon="11.4034552"><ele>7.0</ele><time>2026-03-22T09:50:27.296Z</time></trkpt><trkpt lat="45.0429382" lon="11.4033695"><ele>6.0</ele><time>2026-03-22T09:50:28.296Z</time></trkpt><trkpt lat="45.042723" lon="11.4032872"><ele>5.0</ele><time>2026-03-22T09:50:29.298Z</time></trkpt><trkpt lat="45.042508" lon="11.4032026"><ele>5.333333333333334</ele><time>2026-03-22T09:50:30.298Z</time></trkpt><trkpt lat="45.0422937" lon="11.4031149"><ele>5.666666666666667</ele><time>2026-03-22T09:50:31.299Z</time></trkpt><trkpt lat="45.0420764" lon="11.4030276"><ele>6.0</ele><time>2026-03-22T09:50:32.304Z</time></trkpt><trkpt lat="45.0418629" lon="11.4029452"><ele>6.0</ele><time>2026-03-22T09:50:33.293Z</time></trkpt><trkpt lat="45.0416443" lon="11.4028714"><ele>6.0</ele><time>2026-03-22T09:50:34.293Z</time></trkpt><trkpt lat="45.0414304" lon="11.4027868"><ele>6.0</ele><time>2026-03-22T09:50:35.291Z</time></trkpt><trkpt lat="45.0412142" lon="11.4026979"><ele>6.333333333333334</ele><time>2026-03-22T09:50:36.295Z</time></trkpt><trkpt lat="45.0410011" lon="11.4026126"><ele>6.666666666666667</ele><time>2026-03-22T09:50:37.293Z</time></trkpt><trkpt lat="45.0407866" lon="11.4025279"><ele>7.0</ele><time>2026-03-22T09:50:38.297Z</time></trkpt><trkpt lat="45.0405724" lon="11.402446"><ele>7.0</ele><time>2026-03-22T09:50:39.291Z</time></trkpt><trkpt lat="45.0403548" lon="11.4023591"><ele>7.0</ele><time>2026-03-22T09:50:40.3Z</time></trkpt><trkpt lat="45.0401304" lon="11.4022719"><ele>8.0</ele><time>2026-03-22T09:50:41.296Z</time></trkpt><trkpt lat="45.0398927" lon="11.4021773"><ele>9.0</ele><time>2026-03-22T09:50:42.299Z</time></trkpt><trkpt lat="45.0396472" lon="11.402082"><ele>9.0</ele><time>2026-03-22T09:50:43.3Z</time></trkpt><trkpt lat="45.0393964" lon="11.4019862"><ele>9.0</ele><time>2026-03-22T09:50:44.294Z</time></trkpt><trkpt lat="45.0391361" lon="11.4018895"><ele>7.5</ele><time>2026-03-22T09:50:45.296Z</time></trkpt><trkpt lat="45.0388643" lon="11.4017929"><ele>6.0</ele><time>2026-03-22T09:50:46.297Z</time></trkpt><trkpt lat="45.0385838" lon="11.4016802"><ele>6.0</ele><time>2026-03-22T09:50:47.297Z</time></trkpt><trkpt lat="45.0383118" lon="11.4015592"><ele>6.0</ele><time>2026-03-22T09:50:48.297Z</time></trkpt><trkpt lat="45.0380512" lon="11.4014412"><ele>7.0</ele><time>2026-03-22T09:50:49.294Z</time></trkpt><trkpt lat="45.0378002" lon="11.4013271"><ele>8.0</ele><time>2026-03-22T09:50:50.304Z</time></trkpt><trkpt lat="45.0375606" lon="11.4012281"><ele>7.0</ele><time>2026-03-22T09:50:51.296Z</time></trkpt><trkpt lat="45.0373337" lon="11.4011376"><ele>6.0</ele><time>2026-03-22T09:50:52.3Z</time></trkpt><trkpt lat="45.0371231" lon="11.401053"><ele>6.0</ele><time>2026-03-22T09:50:53.299Z</time></trkpt><trkpt lat="45.0369244" lon="11.4009728"><ele>6.0</ele><time>2026-03-22T09:50:54.297Z</time></trkpt><trkpt lat="45.0367418" lon="11.4008697"><ele>6.0</ele><time>2026-03-22T09:50:55.303Z</time></trkpt><trkpt lat="45.0365864" lon="11.4007391"><ele>6.333333333333334</ele><time>2026-03-22T09:50:56.3Z</time></trkpt><trkpt lat="45.0364533" lon="11.4005741"><ele>6.666666666666667</ele><time>2026-03-22T09:50:57.304Z</time></trkpt><trkpt lat="45.0363476" lon="11.4003856"><ele>7.0</ele><time>2026-03-22T09:50:58.296Z</time></trkpt><trkpt lat="45.0362624" lon="11.4001688"><ele>7.0</ele><time>2026-03-22T09:50:59.316Z</time></trkpt><trkpt lat="45.0361981" lon="11.3999232"><ele>7.0</ele><time>2026-03-22T09:51:00.298Z</time></trkpt><trkpt lat="45.0361664" lon="11.3996564"><ele>7.0</ele><time>2026-03-22T09:51:01.295Z</time></trkpt><trkpt lat="45.0361704" lon="11.399383"><ele>6.666666666666667</ele><time>2026-03-22T09:51:02.305Z</time></trkpt><trkpt lat="45.0362095" lon="11.3991074"><ele>6.333333333333334</ele><time>2026-03-22T09:51:03.299Z</time></trkpt><trkpt lat="45.0362729" lon="11.3988244"><ele>6.0</ele><time>2026-03-22T09:51:04.295Z</time></trkpt><trkpt lat="45.0363379" lon="11.3985423"><ele>6.0</ele><time>2026-03-22T09:51:05.293Z</time></trkpt><trkpt lat="45.0363979" lon="11.3982458"><ele>6.0</ele><time>2026-03-22T09:51:06.299Z</time></trkpt><trkpt lat="45.0364564" lon="11.3979363"><ele>6.0</ele><time>2026-03-22T09:51:07.299Z</time></trkpt><trkpt lat="45.0365205" lon="11.3976185"><ele>6.5</ele><time>2026-03-22T09:51:08.298Z</time></trkpt><trkpt lat="45.0365865" lon="11.3973038"><ele>7.0</ele><time>2026-03-22T09:51:09.299Z</time></trkpt><trkpt lat="45.0366518" lon="11.3969764"><ele>7.0</ele><time>2026-03-22T09:51:10.299Z</time></trkpt><trkpt lat="45.0367197" lon="11.3966472"><ele>7.0</ele><time>2026-03-22T09:51:11.304Z</time></trkpt><trkpt lat="45.0367892" lon="11.3963144"><ele>7.0</ele><time>2026-03-22T09:51:12.295Z</time></trkpt><trkpt lat="45.0368593" lon="11.3959753"><ele>7.0</ele><time>2026-03-22T09:51:13.296Z</time></trkpt><trkpt lat="45.0369314" lon="11.3956336"><ele>7.0</ele><time>2026-03-22T09:51:14.294Z</time></trkpt><trkpt lat="45.0370019" lon="11.3952867"><ele>7.0</ele><time>2026-03-22T09:51:15.294Z</time></trkpt><trkpt lat="45.0370662" lon="11.3949545"><ele>6.666666666666667</ele><time>2026-03-22T09:51:16.296Z</time></trkpt><trkpt lat="45.0371315" lon="11.3946437"><ele>6.333333333333334</ele><time>2026-03-22T09:51:17.294Z</time></trkpt><trkpt lat="45.037187" lon="11.3943482"><ele>6.0</ele><time>2026-03-22T09:51:18.293Z</time></trkpt><trkpt lat="45.0372463" lon="11.3940692"><ele>6.333333333333334</ele><time>2026-03-22T09:51:19.29Z</time></trkpt><trkpt lat="45.0372813" lon="11.3937981"><ele>6.666666666666667</ele><time>2026-03-22T09:51:20.3Z</time></trkpt><trkpt lat="45.0372707" lon="11.3935542"><ele>7.0</ele><time>2026-03-22T09:51:21.303Z</time></trkpt><trkpt lat="45.0372279" lon="11.3933262"><ele>7.0</ele><time>2026-03-22T09:51:22.296Z</time></trkpt><trkpt lat="45.0371613" lon="11.3930985"><ele>7.0</ele><time>2026-03-22T09:51:23.297Z</time></trkpt><trkpt lat="45.0370698" lon="11.3928867"><ele>7.0</ele><time>2026-03-22T09:51:24.298Z</time></trkpt><trkpt lat="45.0369493" lon="11.392707"><ele>7.0</ele><time>2026-03-22T09:51:25.298Z</time></trkpt><trkpt lat="45.0368186" lon="11.3925645"><ele>7.0</ele><time>2026-03-22T09:51:26.287Z</time></trkpt><trkpt lat="45.0366641" lon="11.3924291"><ele>7.0</ele><time>2026-03-22T09:51:27.299Z</time></trkpt><trkpt lat="45.036497" lon="11.3923211"><ele>7.0</ele><time>2026-03-22T09:51:28.294Z</time></trkpt><trkpt lat="45.0363183" lon="11.3922405"><ele>7.0</ele><time>2026-03-22T09:51:29.299Z</time></trkpt><trkpt lat="45.0361314" lon="11.3921624"><ele>7.0</ele><time>2026-03-22T09:51:30.302Z</time></trkpt><trkpt lat="45.0359363" lon="11.3920835"><ele>7.0</ele><time>2026-03-22T09:51:31.304Z</time></trkpt><trkpt lat="45.0357389" lon="11.3920048"><ele>7.0</ele><time>2026-03-22T09:51:32.298Z</time></trkpt><trkpt lat="45.0355384" lon="11.3919255"><ele>7.0</ele><time>2026-03-22T09:51:33.302Z</time></trkpt><trkpt lat="45.0353321" lon="11.3918456"><ele>7.0</ele><time>2026-03-22T09:51:34.298Z</time></trkpt><trkpt lat="45.035118" lon="11.3917534"><ele>7.0</ele><time>2026-03-22T09:51:35.293Z</time></trkpt><trkpt lat="45.034902" lon="11.3916641"><ele>7.0</ele><time>2026-03-22T09:51:36.295Z</time></trkpt><trkpt lat="45.0346876" lon="11.3915736"><ele>6.5</ele><time>2026-03-22T09:51:37.294Z</time></trkpt><trkpt lat="45.0344687" lon="11.3914861"><ele>6.0</ele><time>2026-03-22T09:51:38.303Z</time></trkpt><trkpt lat="45.0342531" lon="11.3913964"><ele>6.0</ele><time>2026-03-22T09:51:39.295Z</time></trkpt><trkpt lat="45.0340349" lon="11.391304"><ele>6.0</ele><time>2026-03-22T09:51:40.295Z</time></trkpt><trkpt lat="45.0338131" lon="11.3912132"><ele>6.0</ele><time>2026-03-22T09:51:41.299Z</time></trkpt><trkpt lat="45.033591" lon="11.3911233"><ele>6.0</ele><time>2026-03-22T09:51:42.3Z</time></trkpt><trkpt lat="45.0333698" lon="11.3910377"><ele>6.5</ele><time>2026-03-22T09:51:43.294Z</time></trkpt><trkpt lat="45.0331449" lon="11.3909497"><ele>7.0</ele><time>2026-03-22T09:51:44.302Z</time></trkpt><trkpt lat="45.0329221" lon="11.3908588"><ele>7.0</ele><time>2026-03-22T09:51:45.295Z</time></trkpt><trkpt lat="45.0326973" lon="11.3907662"><ele>7.0</ele><time>2026-03-22T09:51:46.3Z</time></trkpt><trkpt lat="45.0324746" lon="11.3906792"><ele>7.0</ele><time>2026-03-22T09:51:47.293Z</time></trkpt><trkpt lat="45.0322714" lon="11.3905932"><ele>7.0</ele><time>2026-03-22T09:51:48.296Z</time></trkpt><trkpt lat="45.0320841" lon="11.3904944"><ele>7.0</ele><time>2026-03-22T09:51:49.29Z</time></trkpt><trkpt lat="45.031923" lon="11.3903654"><ele>7.333333333333334</ele><time>2026-03-22T09:51:50.301Z</time></trkpt><trkpt lat="45.031809" lon="11.3901779"><ele>7.666666666666666</ele><time>2026-03-22T09:51:51.294Z</time></trkpt><trkpt lat="45.0317256" lon="11.3899515"><ele>8.0</ele><time>2026-03-22T09:51:52.289Z</time></trkpt><trkpt lat="45.0316635" lon="11.3897091"><ele>7.666666666666666</ele><time>2026-03-22T09:51:53.295Z</time></trkpt><trkpt lat="45.0316226" lon="11.3894507"><ele>7.333333333333334</ele><time>2026-03-22T09:51:54.301Z</time></trkpt><trkpt lat="45.0316072" lon="11.3891653"><ele>7.0</ele><time>2026-03-22T09:51:55.285Z</time></trkpt><trkpt lat="45.0315992" lon="11.3888776"><ele>7.0</ele><time>2026-03-22T09:51:56.302Z</time></trkpt><trkpt lat="45.0315879" lon="11.3885907"><ele>7.0</ele><time>2026-03-22T09:51:57.295Z</time></trkpt><trkpt lat="45.0315634" lon="11.3883108"><ele>7.0</ele><time>2026-03-22T09:51:58.289Z</time></trkpt><trkpt lat="45.0315183" lon="11.3880621"><ele>7.0</ele><time>2026-03-22T09:51:59.305Z</time></trkpt><trkpt lat="45.0314179" lon="11.3878363"><ele>7.0</ele><time>2026-03-22T09:52:00.292Z</time></trkpt><trkpt lat="45.0313088" lon="11.3876173"><ele>7.0</ele><time>2026-03-22T09:52:01.29Z</time></trkpt><trkpt lat="45.0311895" lon="11.3874277"><ele>7.0</ele><time>2026-03-22T09:52:02.294Z</time></trkpt><trkpt lat="45.0310544" lon="11.3872608"><ele>7.0</ele><time>2026-03-22T09:52:03.286Z</time></trkpt><trkpt lat="45.030911" lon="11.3871369"><ele>7.0</ele><time>2026-03-22T09:52:04.3Z</time></trkpt><trkpt lat="45.0307366" lon="11.3870424"><ele>7.333333333333334</ele><time>2026-03-22T09:52:05.294Z</time></trkpt><trkpt lat="45.0305529" lon="11.3869501"><ele>7.666666666666666</ele><time>2026-03-22T09:52:06.295Z</time></trkpt><trkpt lat="45.0303622" lon="11.3868554"><ele>8.0</ele><time>2026-03-22T09:52:07.291Z</time></trkpt><trkpt lat="45.0301716" lon="11.3867507"><ele>8.0</ele><time>2026-03-22T09:52:08.296Z</time></trkpt><trkpt lat="45.0299727" lon="11.3866444"><ele>8.0</ele><time>2026-03-22T09:52:09.295Z</time></trkpt><trkpt lat="45.0297715" lon="11.3865364"><ele>8.0</ele><time>2026-03-22T09:52:10.295Z</time></trkpt><trkpt lat="45.0295733" lon="11.3864206"><ele>8.0</ele><time>2026-03-22T09:52:11.301Z</time></trkpt><trkpt lat="45.0293668" lon="11.386303"><ele>8.0</ele><time>2026-03-22T09:52:12.297Z</time></trkpt><trkpt lat="45.0291626" lon="11.3861856"><ele>8.0</ele><time>2026-03-22T09:52:13.294Z</time></trkpt><trkpt lat="45.0289548" lon="11.3860646"><ele>8.0</ele><time>2026-03-22T09:52:14.297Z</time></trkpt><trkpt lat="45.0287437" lon="11.3859457"><ele>8.0</ele><time>2026-03-22T09:52:15.295Z</time></trkpt><trkpt lat="45.0285318" lon="11.3858276"><ele>8.0</ele><time>2026-03-22T09:52:16.304Z</time></trkpt><trkpt lat="45.0283135" lon="11.3857069"><ele>8.0</ele><time>2026-03-22T09:52:17.295Z</time></trkpt><trkpt lat="45.0280933" lon="11.3855883"><ele>8.0</ele><time>2026-03-22T09:52:18.295Z</time></trkpt><trkpt lat="45.0278723" lon="11.3854638"><ele>8.0</ele><time>2026-03-22T09:52:19.294Z</time></trkpt><trkpt lat="45.0276506" lon="11.3853432"><ele>8.5</ele><time>2026-03-22T09:52:20.298Z</time></trkpt><trkpt lat="45.0274258" lon="11.3852272"><ele>9.0</ele><time>2026-03-22T09:52:21.298Z</time></trkpt><trkpt lat="45.0272041" lon="11.385106"><ele>9.0</ele><time>2026-03-22T09:52:22.293Z</time></trkpt><trkpt lat="45.0269778" lon="11.3849776"><ele>9.0</ele><time>2026-03-22T09:52:23.302Z</time></trkpt><trkpt lat="45.0267557" lon="11.3848498"><ele>8.0</ele><time>2026-03-22T09:52:24.297Z</time></trkpt><trkpt lat="45.0265358" lon="11.3847178"><ele>7.0</ele><time>2026-03-22T09:52:25.301Z</time></trkpt><trkpt lat="45.026312" lon="11.3845841"><ele>6.5</ele><time>2026-03-22T09:52:26.303Z</time></trkpt><trkpt lat="45.0260824" lon="11.3844507"><ele>6.0</ele><time>2026-03-22T09:52:27.292Z</time></trkpt><trkpt lat="45.0258527" lon="11.3843223"><ele>6.0</ele><time>2026-03-22T09:52:28.295Z</time></trkpt><trkpt lat="45.0256201" lon="11.3841973"><ele>6.0</ele><time>2026-03-22T09:52:29.298Z</time></trkpt><trkpt lat="45.0253891" lon="11.3840647"><ele>6.0</ele><time>2026-03-22T09:52:30.299Z</time></trkpt><trkpt lat="45.0251532" lon="11.383937"><ele>6.0</ele><time>2026-03-22T09:52:31.306Z</time></trkpt><trkpt lat="45.0249223" lon="11.3838124"><ele>7.0</ele><time>2026-03-22T09:52:32.306Z</time></trkpt><trkpt lat="45.0246907" lon="11.3836846"><ele>8.0</ele><time>2026-03-22T09:52:33.298Z</time></trkpt><trkpt lat="45.024467" lon="11.3835654"><ele>8.0</ele><time>2026-03-22T09:52:34.294Z</time></trkpt><trkpt lat="45.0242395" lon="11.3834446"><ele>8.0</ele><time>2026-03-22T09:52:35.305Z</time></trkpt><trkpt lat="45.0240114" lon="11.3833218"><ele>8.0</ele><time>2026-03-22T09:52:36.295Z</time></trkpt><trkpt lat="45.0237887" lon="11.3831983"><ele>8.0</ele><time>2026-03-22T09:52:37.301Z</time></trkpt><trkpt lat="45.0235628" lon="11.3830725"><ele>8.0</ele><time>2026-03-22T09:52:38.3Z</time></trkpt><trkpt lat="45.0233378" lon="11.3829499"><ele>8.0</ele><time>2026-03-22T09:52:39.305Z</time></trkpt><trkpt lat="45.0231131" lon="11.3828245"><ele>8.0</ele><time>2026-03-22T09:52:40.308Z</time></trkpt><trkpt lat="45.0228853" lon="11.3827072"><ele>8.0</ele><time>2026-03-22T09:52:41.299Z</time></trkpt><trkpt lat="45.0226638" lon="11.3825879"><ele>8.0</ele><time>2026-03-22T09:52:42.301Z</time></trkpt><trkpt lat="45.0224398" lon="11.3824637"><ele>8.0</ele><time>2026-03-22T09:52:43.299Z</time></trkpt><trkpt lat="45.0222155" lon="11.3823325"><ele>8.0</ele><time>2026-03-22T09:52:44.305Z</time></trkpt><trkpt lat="45.0219871" lon="11.3822053"><ele>8.0</ele><time>2026-03-22T09:52:45.301Z</time></trkpt><trkpt lat="45.0217625" lon="11.3820802"><ele>7.5</ele><time>2026-03-22T09:52:46.293Z</time></trkpt><trkpt lat="45.0215369" lon="11.3819545"><ele>7.0</ele><time>2026-03-22T09:52:47.298Z</time></trkpt><trkpt lat="45.021316" lon="11.3818284"><ele>7.0</ele><time>2026-03-22T09:52:48.302Z</time></trkpt><trkpt lat="45.0210874" lon="11.3816998"><ele>7.0</ele><time>2026-03-22T09:52:49.3Z</time></trkpt><trkpt lat="45.0208557" lon="11.3815718"><ele>6.5</ele><time>2026-03-22T09:52:50.305Z</time></trkpt><trkpt lat="45.0206291" lon="11.3814372"><ele>6.0</ele><time>2026-03-22T09:52:51.303Z</time></trkpt><trkpt lat="45.0203935" lon="11.3813045"><ele>6.0</ele><time>2026-03-22T09:52:52.31Z</time></trkpt><trkpt lat="45.0201544" lon="11.3811766"><ele>6.0</ele><time>2026-03-22T09:52:53.305Z</time></trkpt><trkpt lat="45.0199142" lon="11.3810459"><ele>5.5</ele><time>2026-03-22T09:52:54.306Z</time></trkpt><trkpt lat="45.0196776" lon="11.380906"><ele>5.0</ele><time>2026-03-22T09:52:55.306Z</time></trkpt><trkpt lat="45.0194344" lon="11.3807657"><ele>5.0</ele><time>2026-03-22T09:52:56.31Z</time></trkpt><trkpt lat="45.0191837" lon="11.3806243"><ele>5.0</ele><time>2026-03-22T09:52:57.301Z</time></trkpt><trkpt lat="45.018937" lon="11.3804941"><ele>5.5</ele><time>2026-03-22T09:52:58.3Z</time></trkpt><trkpt lat="45.0186938" lon="11.3803621"><ele>6.0</ele><time>2026-03-22T09:52:59.304Z</time></trkpt><trkpt lat="45.0184489" lon="11.3802433"><ele>6.5</ele><time>2026-03-22T09:53:00.305Z</time></trkpt><trkpt lat="45.0182029" lon="11.3801158"><ele>7.0</ele><time>2026-03-22T09:53:01.299Z</time></trkpt><trkpt lat="45.0179599" lon="11.3799781"><ele>7.0</ele><time>2026-03-22T09:53:02.307Z</time></trkpt><trkpt lat="45.0177231" lon="11.3798307"><ele>7.0</ele><time>2026-03-22T09:53:03.295Z</time></trkpt><trkpt lat="45.0174949" lon="11.3796919"><ele>7.5</ele><time>2026-03-22T09:53:04.305Z</time></trkpt><trkpt lat="45.0172764" lon="11.3795626"><ele>8.0</ele><time>2026-03-22T09:53:05.298Z</time></trkpt><trkpt lat="45.0170715" lon="11.3794482"><ele>8.0</ele><time>2026-03-22T09:53:06.303Z</time></trkpt><trkpt lat="45.0168744" lon="11.37934"><ele>8.0</ele><time>2026-03-22T09:53:07.297Z</time></trkpt><trkpt lat="45.0166924" lon="11.3792416"><ele>8.0</ele><time>2026-03-22T09:53:08.309Z</time></trkpt><trkpt lat="45.016511" lon="11.3791457"><ele>8.0</ele><time>2026-03-22T09:53:09.302Z</time></trkpt><trkpt lat="45.0163272" lon="11.3790484"><ele>8.0</ele><time>2026-03-22T09:53:10.307Z</time></trkpt><trkpt lat="45.0161524" lon="11.3789434"><ele>8.0</ele><time>2026-03-22T09:53:11.296Z</time></trkpt><trkpt lat="45.0159681" lon="11.3788367"><ele>8.333333333333332</ele><time>2026-03-22T09:53:12.299Z</time></trkpt><trkpt lat="45.0157812" lon="11.3787348"><ele>8.666666666666666</ele><time>2026-03-22T09:53:13.293Z</time></trkpt><trkpt lat="45.0155922" lon="11.3786314"><ele>9.0</ele><time>2026-03-22T09:53:14.302Z</time></trkpt><trkpt lat="45.0153994" lon="11.3785172"><ele>9.0</ele><time>2026-03-22T09:53:15.29Z</time></trkpt><trkpt lat="45.0152015" lon="11.3784011"><ele>9.0</ele><time>2026-03-22T09:53:16.286Z</time></trkpt><trkpt lat="45.0149979" lon="11.3782849"><ele>9.0</ele><time>2026-03-22T09:53:17.29Z</time></trkpt><trkpt lat="45.0148073" lon="11.3781666"><ele>9.0</ele><time>2026-03-22T09:53:18.29Z</time></trkpt><trkpt lat="45.0146102" lon="11.3780461"><ele>9.0</ele><time>2026-03-22T09:53:19.289Z</time></trkpt><trkpt lat="45.0144095" lon="11.3779318"><ele>9.0</ele><time>2026-03-22T09:53:20.291Z</time></trkpt><trkpt lat="45.014209" lon="11.3778139"><ele>9.0</ele><time>2026-03-22T09:53:21.292Z</time></trkpt><trkpt lat="45.0140045" lon="11.3776997"><ele>9.0</ele><time>2026-03-22T09:53:22.297Z</time></trkpt><trkpt lat="45.0138058" lon="11.3775887"><ele>9.0</ele><time>2026-03-22T09:53:23.29Z</time></trkpt><trkpt lat="45.0136091" lon="11.3774805"><ele>9.0</ele><time>2026-03-22T09:53:24.295Z</time></trkpt><trkpt lat="45.013416" lon="11.3773709"><ele>9.0</ele><time>2026-03-22T09:53:25.287Z</time></trkpt><trkpt lat="45.013233" lon="11.3772731"><ele>9.0</ele><time>2026-03-22T09:53:26.295Z</time></trkpt><trkpt lat="45.0130588" lon="11.3771804"><ele>8.333333333333334</ele><time>2026-03-22T09:53:27.294Z</time></trkpt><trkpt lat="45.0128831" lon="11.377092"><ele>7.666666666666667</ele><time>2026-03-22T09:53:28.294Z</time></trkpt><trkpt lat="45.0127014" lon="11.3769933"><ele>7.0</ele><time>2026-03-22T09:53:29.298Z</time></trkpt><trkpt lat="45.0125151" lon="11.3768846"><ele>7.333333333333334</ele><time>2026-03-22T09:53:30.291Z</time></trkpt><trkpt lat="45.012333" lon="11.3767777"><ele>7.666666666666666</ele><time>2026-03-22T09:53:31.301Z</time></trkpt><trkpt lat="45.0121445" lon="11.3766693"><ele>8.0</ele><time>2026-03-22T09:53:32.299Z</time></trkpt><trkpt lat="45.0119578" lon="11.3765625"><ele>8.0</ele><time>2026-03-22T09:53:33.292Z</time></trkpt><trkpt lat="45.0117673" lon="11.3764576"><ele>8.0</ele><time>2026-03-22T09:53:34.291Z</time></trkpt><trkpt lat="45.0115739" lon="11.3763453"><ele>8.0</ele><time>2026-03-22T09:53:35.294Z</time></trkpt><trkpt lat="45.0113795" lon="11.3762358"><ele>8.0</ele><time>2026-03-22T09:53:36.3Z</time></trkpt><trkpt lat="45.0111817" lon="11.3761264"><ele>8.0</ele><time>2026-03-22T09:53:37.299Z</time></trkpt><trkpt lat="45.0109869" lon="11.3760209"><ele>8.0</ele><time>2026-03-22T09:53:38.298Z</time></trkpt><trkpt lat="45.0107944" lon="11.3759109"><ele>8.0</ele><time>2026-03-22T09:53:39.295Z</time></trkpt><trkpt lat="45.0105944" lon="11.375804"><ele>8.0</ele><time>2026-03-22T09:53:40.3Z</time></trkpt><trkpt lat="45.0104049" lon="11.375697"><ele>8.0</ele><time>2026-03-22T09:53:41.296Z</time></trkpt><trkpt lat="45.0102328" lon="11.3755961"><ele>8.333333333333332</ele><time>2026-03-22T09:53:42.297Z</time></trkpt><trkpt lat="45.0100681" lon="11.3755033"><ele>8.666666666666666</ele><time>2026-03-22T09:53:43.292Z</time></trkpt><trkpt lat="45.0099142" lon="11.375412"><ele>9.0</ele><time>2026-03-22T09:53:44.295Z</time></trkpt><trkpt lat="45.0097742" lon="11.3753126"><ele>9.0</ele><time>2026-03-22T09:53:45.303Z</time></trkpt><trkpt lat="45.0096614" lon="11.3751892"><ele>9.0</ele><time>2026-03-22T09:53:46.294Z</time></trkpt><trkpt lat="45.0095859" lon="11.3750511"><ele>9.0</ele><time>2026-03-22T09:53:47.301Z</time></trkpt><trkpt lat="45.0095346" lon="11.3749082"><ele>9.0</ele><time>2026-03-22T09:53:48.3Z</time></trkpt><trkpt lat="45.0095058" lon="11.3747611"><ele>9.25</ele><time>2026-03-22T09:53:49.304Z</time></trkpt><trkpt lat="45.0094991" lon="11.3746153"><ele>9.5</ele><time>2026-03-22T09:53:50.297Z</time></trkpt><trkpt lat="45.0095051" lon="11.3744653"><ele>9.75</ele><time>2026-03-22T09:53:51.292Z</time></trkpt><trkpt lat="45.0095175" lon="11.3742965"><ele>10.0</ele><time>2026-03-22T09:53:52.299Z</time></trkpt><trkpt lat="45.0095306" lon="11.3741138"><ele>10.0</ele><time>2026-03-22T09:53:53.302Z</time></trkpt><trkpt lat="45.0095445" lon="11.3739214"><ele>10.0</ele><time>2026-03-22T09:53:54.302Z</time></trkpt><trkpt lat="45.0095641" lon="11.3737353"><ele>10.0</ele><time>2026-03-22T09:53:55.294Z</time></trkpt><trkpt lat="45.0095974" lon="11.373557"><ele>10.0</ele><time>2026-03-22T09:53:56.299Z</time></trkpt><trkpt lat="45.0096743" lon="11.3733891"><ele>10.0</ele><time>2026-03-22T09:53:57.289Z</time></trkpt><trkpt lat="45.0097906" lon="11.3732382"><ele>10.0</ele><time>2026-03-22T09:53:58.282Z</time></trkpt><trkpt lat="45.0099443" lon="11.3730879"><ele>10.0</ele><time>2026-03-22T09:53:59.297Z</time></trkpt><trkpt lat="45.010103" lon="11.3729421"><ele>10.0</ele><time>2026-03-22T09:54:00.291Z</time></trkpt><trkpt lat="45.0102487" lon="11.37281"><ele>10.0</ele><time>2026-03-22T09:54:01.291Z</time></trkpt><trkpt lat="45.0103939" lon="11.3726771"><ele>10.0</ele><time>2026-03-22T09:54:02.307Z</time></trkpt><trkpt lat="45.0105386" lon="11.3725405"><ele>10.0</ele><time>2026-03-22T09:54:03.291Z</time></trkpt><trkpt lat="45.0106742" lon="11.3724038"><ele>10.0</ele><time>2026-03-22T09:54:04.292Z</time></trkpt><trkpt lat="45.0107953" lon="11.372272"><ele>10.0</ele><time>2026-03-22T09:54:05.29Z</time></trkpt><trkpt lat="45.010907" lon="11.3721597"><ele>10.0</ele><time>2026-03-22T09:54:06.294Z</time></trkpt><trkpt lat="45.0110181" lon="11.3720513"><ele>10.0</ele><time>2026-03-22T09:54:07.291Z</time></trkpt><trkpt lat="45.0111202" lon="11.3719489"><ele>10.0</ele><time>2026-03-22T09:54:08.307Z</time></trkpt><trkpt lat="45.0112188" lon="11.3718424"><ele>10.0</ele><time>2026-03-22T09:54:09.298Z</time></trkpt><trkpt lat="45.0113172" lon="11.3717399"><ele>10.0</ele><time>2026-03-22T09:54:10.297Z</time></trkpt><trkpt lat="45.0114265" lon="11.3716203"><ele>10.0</ele><time>2026-03-22T09:54:11.295Z</time></trkpt><trkpt lat="45.0115445" lon="11.3715039"><ele>10.0</ele><time>2026-03-22T09:54:12.295Z</time></trkpt><trkpt lat="45.0116613" lon="11.3713899"><ele>10.0</ele><time>2026-03-22T09:54:13.293Z</time></trkpt><trkpt lat="45.0117831" lon="11.3712771"><ele>9.75</ele><time>2026-03-22T09:54:14.3Z</time></trkpt><trkpt lat="45.0118999" lon="11.3711595"><ele>9.5</ele><time>2026-03-22T09:54:15.297Z</time></trkpt><trkpt lat="45.0120194" lon="11.3710338"><ele>9.25</ele><time>2026-03-22T09:54:16.284Z</time></trkpt><trkpt lat="45.0121398" lon="11.3709097"><ele>9.0</ele><time>2026-03-22T09:54:17.292Z</time></trkpt><trkpt lat="45.0122603" lon="11.3707871"><ele>9.0</ele><time>2026-03-22T09:54:18.298Z</time></trkpt><trkpt lat="45.0123815" lon="11.3706657"><ele>9.0</ele><time>2026-03-22T09:54:19.292Z</time></trkpt><trkpt lat="45.012498" lon="11.3705442"><ele>9.0</ele><time>2026-03-22T09:54:20.289Z</time></trkpt><trkpt lat="45.012616" lon="11.3704295"><ele>9.0</ele><time>2026-03-22T09:54:21.289Z</time></trkpt><trkpt lat="45.0127371" lon="11.3703127"><ele>9.5</ele><time>2026-03-22T09:54:22.293Z</time></trkpt><trkpt lat="45.0128506" lon="11.3702017"><ele>10.0</ele><time>2026-03-22T09:54:23.289Z</time></trkpt><trkpt lat="45.0129732" lon="11.370091"><ele>10.5</ele><time>2026-03-22T09:54:24.291Z</time></trkpt><trkpt lat="45.0131" lon="11.3699736"><ele>11.0</ele><time>2026-03-22T09:54:25.288Z</time></trkpt><trkpt lat="45.0132114" lon="11.3698506"><ele>11.0</ele><time>2026-03-22T09:54:26.295Z</time></trkpt><trkpt lat="45.013314" lon="11.3697358"><ele>11.0</ele><time>2026-03-22T09:54:27.288Z</time></trkpt><trkpt lat="45.0134221" lon="11.3696264"><ele>11.0</ele><time>2026-03-22T09:54:28.296Z</time></trkpt><trkpt lat="45.0135352" lon="11.3695228"><ele>11.0</ele><time>2026-03-22T09:54:29.293Z</time></trkpt><trkpt lat="45.0136503" lon="11.3694242"><ele>11.25</ele><time>2026-03-22T09:54:30.282Z</time></trkpt><trkpt lat="45.0137717" lon="11.369348"><ele>11.5</ele><time>2026-03-22T09:54:31.284Z</time></trkpt><trkpt lat="45.013911" lon="11.369279"><ele>11.75</ele><time>2026-03-22T09:54:32.285Z</time></trkpt><trkpt lat="45.0140398" lon="11.3692067"><ele>12.0</ele><time>2026-03-22T09:54:33.277Z</time></trkpt><trkpt lat="45.0141714" lon="11.3691392"><ele>12.0</ele><time>2026-03-22T09:54:34.276Z</time></trkpt><trkpt lat="45.0142895" lon="11.3690675"><ele>12.0</ele><time>2026-03-22T09:54:35.276Z</time></trkpt><trkpt lat="45.0143967" lon="11.3690059"><ele>12.0</ele><time>2026-03-22T09:54:36.279Z</time></trkpt><trkpt lat="45.0144956" lon="11.3689147"><ele>12.0</ele><time>2026-03-22T09:54:37.284Z</time></trkpt><trkpt lat="45.0145873" lon="11.3687925"><ele>12.25</ele><time>2026-03-22T09:54:38.289Z</time></trkpt><trkpt lat="45.0146535" lon="11.3686259"><ele>12.5</ele><time>2026-03-22T09:54:39.273Z</time></trkpt><trkpt lat="45.0147088" lon="11.3684387"><ele>12.75</ele><time>2026-03-22T09:54:40.278Z</time></trkpt><trkpt lat="45.0147517" lon="11.368229"><ele>13.0</ele><time>2026-03-22T09:54:41.281Z</time></trkpt><trkpt lat="45.0147973" lon="11.3680116"><ele>12.0</ele><time>2026-03-22T09:54:42.275Z</time></trkpt><trkpt lat="45.0148539" lon="11.3677866"><ele>11.0</ele><time>2026-03-22T09:54:43.285Z</time></trkpt><trkpt lat="45.0149142" lon="11.3675608"><ele>10.0</ele><time>2026-03-22T09:54:44.284Z</time></trkpt><trkpt lat="45.0149715" lon="11.3673116"><ele>10.333333333333334</ele><time>2026-03-22T09:54:45.291Z</time></trkpt><trkpt lat="45.0150324" lon="11.367054"><ele>10.666666666666666</ele><time>2026-03-22T09:54:46.284Z</time></trkpt><trkpt lat="45.015092" lon="11.3667909"><ele>11.0</ele><time>2026-03-22T09:54:47.288Z</time></trkpt><trkpt lat="45.0151566" lon="11.3665336"><ele>11.0</ele><time>2026-03-22T09:54:48.291Z</time></trkpt><trkpt lat="45.0152253" lon="11.3662995"><ele>11.0</ele><time>2026-03-22T09:54:49.291Z</time></trkpt><trkpt lat="45.0153013" lon="11.3660754"><ele>11.0</ele><time>2026-03-22T09:54:50.298Z</time></trkpt><trkpt lat="45.0153821" lon="11.3658536"><ele>11.0</ele><time>2026-03-22T09:54:51.291Z</time></trkpt><trkpt lat="45.0154589" lon="11.3656276"><ele>11.0</ele><time>2026-03-22T09:54:52.293Z</time></trkpt><trkpt lat="45.0155415" lon="11.3654119"><ele>11.0</ele><time>2026-03-22T09:54:53.295Z</time></trkpt><trkpt lat="45.0156267" lon="11.3652076"><ele>10.666666666666666</ele><time>2026-03-22T09:54:54.303Z</time></trkpt><trkpt lat="45.0157051" lon="11.3649983"><ele>10.333333333333334</ele><time>2026-03-22T09:54:55.294Z</time></trkpt><trkpt lat="45.0157974" lon="11.3647993"><ele>10.0</ele><time>2026-03-22T09:54:56.297Z</time></trkpt><trkpt lat="45.0159022" lon="11.3646058"><ele>10.0</ele><time>2026-03-22T09:54:57.294Z</time></trkpt><trkpt lat="45.0160267" lon="11.3644312"><ele>10.0</ele><time>2026-03-22T09:54:58.302Z</time></trkpt><trkpt lat="45.0161593" lon="11.3642745"><ele>10.0</ele><time>2026-03-22T09:54:59.302Z</time></trkpt><trkpt lat="45.0162948" lon="11.3641364"><ele>10.0</ele><time>2026-03-22T09:55:00.299Z</time></trkpt><trkpt lat="45.0164361" lon="11.3640197"><ele>10.0</ele><time>2026-03-22T09:55:01.297Z</time></trkpt><trkpt lat="45.0165955" lon="11.3639022"><ele>10.0</ele><time>2026-03-22T09:55:02.309Z</time></trkpt><trkpt lat="45.0167559" lon="11.3638163"><ele>10.0</ele><time>2026-03-22T09:55:03.296Z</time></trkpt><trkpt lat="45.0169114" lon="11.3637255"><ele>10.0</ele><time>2026-03-22T09:55:04.303Z</time></trkpt><trkpt lat="45.0170593" lon="11.3636006"><ele>10.0</ele><time>2026-03-22T09:55:05.296Z</time></trkpt><trkpt lat="45.0172015" lon="11.3634526"><ele>10.0</ele><time>2026-03-22T09:55:06.305Z</time></trkpt><trkpt lat="45.0173314" lon="11.3632798"><ele>10.0</ele><time>2026-03-22T09:55:07.292Z</time></trkpt><trkpt lat="45.0174613" lon="11.3630964"><ele>10.0</ele><time>2026-03-22T09:55:08.302Z</time></trkpt><trkpt lat="45.0175874" lon="11.3628924"><ele>9.333333333333334</ele><time>2026-03-22T09:55:09.305Z</time></trkpt><trkpt lat="45.0177129" lon="11.3626723"><ele>8.666666666666666</ele><time>2026-03-22T09:55:10.299Z</time></trkpt><trkpt lat="45.0178503" lon="11.3624472"><ele>8.0</ele><time>2026-03-22T09:55:11.301Z</time></trkpt><trkpt lat="45.0179981" lon="11.3622192"><ele>7.666666666666666</ele><time>2026-03-22T09:55:12.3Z</time></trkpt><trkpt lat="45.0181437" lon="11.3620003"><ele>7.333333333333334</ele><time>2026-03-22T09:55:13.302Z</time></trkpt><trkpt lat="45.0182856" lon="11.3617967"><ele>7.0</ele><time>2026-03-22T09:55:14.303Z</time></trkpt><trkpt lat="45.0184181" lon="11.3616002"><ele>7.0</ele><time>2026-03-22T09:55:15.305Z</time></trkpt><trkpt lat="45.0185512" lon="11.3614046"><ele>7.0</ele><time>2026-03-22T09:55:16.309Z</time></trkpt><trkpt lat="45.0186832" lon="11.3612028"><ele>7.0</ele><time>2026-03-22T09:55:17.31Z</time></trkpt><trkpt lat="45.0188034" lon="11.3609812"><ele>6.666666666666667</ele><time>2026-03-22T09:55:18.3Z</time></trkpt><trkpt lat="45.0189141" lon="11.3607477"><ele>6.333333333333334</ele><time>2026-03-22T09:55:19.305Z</time></trkpt><trkpt lat="45.0190211" lon="11.3605133"><ele>6.0</ele><time>2026-03-22T09:55:20.307Z</time></trkpt><trkpt lat="45.0191221" lon="11.3602825"><ele>6.333333333333334</ele><time>2026-03-22T09:55:21.308Z</time></trkpt><trkpt lat="45.019222" lon="11.360056"><ele>6.666666666666667</ele><time>2026-03-22T09:55:22.308Z</time></trkpt><trkpt lat="45.0193262" lon="11.3598216"><ele>7.0</ele><time>2026-03-22T09:55:23.307Z</time></trkpt><trkpt lat="45.019433" lon="11.3595881"><ele>7.0</ele><time>2026-03-22T09:55:24.308Z</time></trkpt><trkpt lat="45.0195468" lon="11.3593607"><ele>7.0</ele><time>2026-03-22T09:55:25.304Z</time></trkpt><trkpt lat="45.0196721" lon="11.3591438"><ele>7.0</ele><time>2026-03-22T09:55:26.312Z</time></trkpt><trkpt lat="45.0198" lon="11.3589283"><ele>7.0</ele><time>2026-03-22T09:55:27.303Z</time></trkpt><trkpt lat="45.0199494" lon="11.3587211"><ele>7.0</ele><time>2026-03-22T09:55:28.309Z</time></trkpt><trkpt lat="45.020098" lon="11.3585188"><ele>7.0</ele><time>2026-03-22T09:55:29.31Z</time></trkpt><trkpt lat="45.0202444" lon="11.3583279"><ele>7.0</ele><time>2026-03-22T09:55:30.313Z</time></trkpt><trkpt lat="45.0203766" lon="11.3581419"><ele>7.0</ele><time>2026-03-22T09:55:31.31Z</time></trkpt><trkpt lat="45.0204983" lon="11.3579247"><ele>7.0</ele><time>2026-03-22T09:55:32.315Z</time></trkpt><trkpt lat="45.0205989" lon="11.3576785"><ele>6.666666666666667</ele><time>2026-03-22T09:55:33.298Z</time></trkpt><trkpt lat="45.0206797" lon="11.3574159"><ele>6.333333333333334</ele><time>2026-03-22T09:55:34.303Z</time></trkpt><trkpt lat="45.0207373" lon="11.3571229"><ele>6.0</ele><time>2026-03-22T09:55:35.299Z</time></trkpt><trkpt lat="45.0207762" lon="11.3568249"><ele>6.0</ele><time>2026-03-22T09:55:36.303Z</time></trkpt><trkpt lat="45.0208152" lon="11.3565477"><ele>6.0</ele><time>2026-03-22T09:55:37.299Z</time></trkpt><trkpt lat="45.0208678" lon="11.3562909"><ele>6.0</ele><time>2026-03-22T09:55:38.302Z</time></trkpt><trkpt lat="45.0209007" lon="11.3560391"><ele>6.333333333333334</ele><time>2026-03-22T09:55:39.302Z</time></trkpt><trkpt lat="45.0209111" lon="11.355775"><ele>6.666666666666667</ele><time>2026-03-22T09:55:40.305Z</time></trkpt><trkpt lat="45.0208893" lon="11.3555019"><ele>7.0</ele><time>2026-03-22T09:55:41.301Z</time></trkpt><trkpt lat="45.0208723" lon="11.3552264"><ele>7.333333333333334</ele><time>2026-03-22T09:55:42.298Z</time></trkpt><trkpt lat="45.0208857" lon="11.3549481"><ele>7.666666666666666</ele><time>2026-03-22T09:55:43.292Z</time></trkpt><trkpt lat="45.020945" lon="11.3546545"><ele>8.0</ele><time>2026-03-22T09:55:44.297Z</time></trkpt><trkpt lat="45.0210156" lon="11.3543399"><ele>8.0</ele><time>2026-03-22T09:55:45.296Z</time></trkpt><trkpt lat="45.021083" lon="11.354004"><ele>8.0</ele><time>2026-03-22T09:55:46.302Z</time></trkpt><trkpt lat="45.0211526" lon="11.3536331"><ele>8.0</ele><time>2026-03-22T09:55:47.297Z</time></trkpt><trkpt lat="45.0212346" lon="11.3532338"><ele>8.0</ele><time>2026-03-22T09:55:48.305Z</time></trkpt><trkpt lat="45.0213263" lon="11.352863"><ele>8.0</ele><time>2026-03-22T09:55:49.305Z</time></trkpt><trkpt lat="45.0214125" lon="11.3525112"><ele>8.0</ele><time>2026-03-22T09:55:50.313Z</time></trkpt><trkpt lat="45.0214897" lon="11.3521727"><ele>8.0</ele><time>2026-03-22T09:55:51.292Z</time></trkpt><trkpt lat="45.0215351" lon="11.3518388"><ele>8.0</ele><time>2026-03-22T09:55:52.315Z</time></trkpt><trkpt lat="45.0215612" lon="11.3514994"><ele>8.0</ele><time>2026-03-22T09:55:53.304Z</time></trkpt><trkpt lat="45.0215611" lon="11.351156"><ele>8.0</ele><time>2026-03-22T09:55:54.302Z</time></trkpt><trkpt lat="45.0215614" lon="11.3508147"><ele>7.5</ele><time>2026-03-22T09:55:55.299Z</time></trkpt><trkpt lat="45.0215737" lon="11.350475"><ele>7.0</ele><time>2026-03-22T09:55:56.304Z</time></trkpt><trkpt lat="45.0215939" lon="11.3501427"><ele>7.0</ele><time>2026-03-22T09:55:57.298Z</time></trkpt><trkpt lat="45.0216198" lon="11.3498113"><ele>7.0</ele><time>2026-03-22T09:55:58.304Z</time></trkpt><trkpt lat="45.0216509" lon="11.3494888"><ele>7.333333333333334</ele><time>2026-03-22T09:55:59.306Z</time></trkpt><trkpt lat="45.0216875" lon="11.3491702"><ele>7.666666666666666</ele><time>2026-03-22T09:56:00.312Z</time></trkpt><trkpt lat="45.0217202" lon="11.3488624"><ele>8.0</ele><time>2026-03-22T09:56:01.306Z</time></trkpt><trkpt lat="45.0217394" lon="11.3485577"><ele>8.0</ele><time>2026-03-22T09:56:02.311Z</time></trkpt><trkpt lat="45.0217573" lon="11.3482676"><ele>8.0</ele><time>2026-03-22T09:56:03.302Z</time></trkpt><trkpt lat="45.0217675" lon="11.3479909"><ele>8.0</ele><time>2026-03-22T09:56:04.305Z</time></trkpt><trkpt lat="45.0217738" lon="11.3477362"><ele>8.0</ele><time>2026-03-22T09:56:05.305Z</time></trkpt><trkpt lat="45.0217561" lon="11.3474947"><ele>8.0</ele><time>2026-03-22T09:56:06.309Z</time></trkpt><trkpt lat="45.0217096" lon="11.3472741"><ele>8.0</ele><time>2026-03-22T09:56:07.31Z</time></trkpt><trkpt lat="45.0216404" lon="11.347059"><ele>8.0</ele><time>2026-03-22T09:56:08.304Z</time></trkpt><trkpt lat="45.0215635" lon="11.3468458"><ele>8.0</ele><time>2026-03-22T09:56:09.303Z</time></trkpt><trkpt lat="45.0214525" lon="11.3466439"><ele>8.0</ele><time>2026-03-22T09:56:10.304Z</time></trkpt><trkpt lat="45.0213178" lon="11.3464826"><ele>8.0</ele><time>2026-03-22T09:56:11.317Z</time></trkpt><trkpt lat="45.0211571" lon="11.3463642"><ele>8.0</ele><time>2026-03-22T09:56:12.304Z</time></trkpt><trkpt lat="45.0209838" lon="11.3462736"><ele>8.0</ele><time>2026-03-22T09:56:13.299Z</time></trkpt><trkpt lat="45.0207864" lon="11.3462144"><ele>8.0</ele><time>2026-03-22T09:56:14.299Z</time></trkpt><trkpt lat="45.0205839" lon="11.3461879"><ele>8.0</ele><time>2026-03-22T09:56:15.303Z</time></trkpt><trkpt lat="45.020396" lon="11.3461328"><ele>8.0</ele><time>2026-03-22T09:56:16.306Z</time></trkpt><trkpt lat="45.020229" lon="11.3460402"><ele>8.0</ele><time>2026-03-22T09:56:17.299Z</time></trkpt><trkpt lat="45.0200832" lon="11.3459098"><ele>8.0</ele><time>2026-03-22T09:56:18.289Z</time></trkpt><trkpt lat="45.0199504" lon="11.3457404"><ele>8.0</ele><time>2026-03-22T09:56:19.308Z</time></trkpt><trkpt lat="45.0198398" lon="11.345531"><ele>8.0</ele><time>2026-03-22T09:56:20.297Z</time></trkpt><trkpt lat="45.0197488" lon="11.345296"><ele>8.0</ele><time>2026-03-22T09:56:21.307Z</time></trkpt><trkpt lat="45.0196797" lon="11.3450169"><ele>8.0</ele><time>2026-03-22T09:56:22.295Z</time></trkpt><trkpt lat="45.0196095" lon="11.344712"><ele>8.0</ele><time>2026-03-22T09:56:23.312Z</time></trkpt><trkpt lat="45.0195396" lon="11.3443885"><ele>8.0</ele><time>2026-03-22T09:56:24.304Z</time></trkpt><trkpt lat="45.0194585" lon="11.3440413"><ele>9.0</ele><time>2026-03-22T09:56:25.303Z</time></trkpt><trkpt lat="45.0193736" lon="11.3436905"><ele>10.0</ele><time>2026-03-22T09:56:26.3Z</time></trkpt><trkpt lat="45.0192914" lon="11.343357"><ele>10.0</ele><time>2026-03-22T09:56:27.302Z</time></trkpt><trkpt lat="45.0192166" lon="11.3430475"><ele>10.0</ele><time>2026-03-22T09:56:28.307Z</time></trkpt><trkpt lat="45.0191345" lon="11.3427333"><ele>9.0</ele><time>2026-03-22T09:56:29.306Z</time></trkpt><trkpt lat="45.0190454" lon="11.3424035"><ele>8.0</ele><time>2026-03-22T09:56:30.299Z</time></trkpt><trkpt lat="45.0189455" lon="11.3420662"><ele>7.5</ele><time>2026-03-22T09:56:31.299Z</time></trkpt><trkpt lat="45.0188325" lon="11.3417309"><ele>7.0</ele><time>2026-03-22T09:56:32.308Z</time></trkpt><trkpt lat="45.018721" lon="11.3413876"><ele>7.0</ele><time>2026-03-22T09:56:33.308Z</time></trkpt><trkpt lat="45.0186175" lon="11.3410446"><ele>7.0</ele><time>2026-03-22T09:56:34.298Z</time></trkpt><trkpt lat="45.0185157" lon="11.3407084"><ele>7.5</ele><time>2026-03-22T09:56:35.297Z</time></trkpt><trkpt lat="45.0184186" lon="11.3404018"><ele>8.0</ele><time>2026-03-22T09:56:36.299Z</time></trkpt><trkpt lat="45.0183252" lon="11.3400992"><ele>8.333333333333332</ele><time>2026-03-22T09:56:37.298Z</time></trkpt><trkpt lat="45.0182412" lon="11.339814"><ele>8.666666666666666</ele><time>2026-03-22T09:56:38.301Z</time></trkpt><trkpt lat="45.018163" lon="11.3395193"><ele>9.0</ele><time>2026-03-22T09:56:39.303Z</time></trkpt><trkpt lat="45.018096" lon="11.3392093"><ele>8.0</ele><time>2026-03-22T09:56:40.301Z</time></trkpt><trkpt lat="45.0180395" lon="11.338889"><ele>7.0</ele><time>2026-03-22T09:56:41.32Z</time></trkpt><trkpt lat="45.017987" lon="11.3385766"><ele>7.0</ele><time>2026-03-22T09:56:42.3Z</time></trkpt><trkpt lat="45.0179414" lon="11.338314"><ele>7.0</ele><time>2026-03-22T09:56:43.299Z</time></trkpt><trkpt lat="45.0178965" lon="11.3381065"><ele>7.0</ele><time>2026-03-22T09:56:44.299Z</time></trkpt><trkpt lat="45.0178584" lon="11.3379327"><ele>7.5</ele><time>2026-03-22T09:56:45.288Z</time></trkpt><trkpt lat="45.017818" lon="11.3377742"><ele>8.0</ele><time>2026-03-22T09:56:46.293Z</time></trkpt><trkpt lat="45.017765" lon="11.3376363"><ele>8.5</ele><time>2026-03-22T09:56:47.29Z</time></trkpt><trkpt lat="45.0177128" lon="11.3375046"><ele>9.0</ele><time>2026-03-22T09:56:48.297Z</time></trkpt><trkpt lat="45.0176595" lon="11.3373574"><ele>9.0</ele><time>2026-03-22T09:56:49.291Z</time></trkpt><trkpt lat="45.0175954" lon="11.3371838"><ele>9.0</ele><time>2026-03-22T09:56:50.3Z</time></trkpt><trkpt lat="45.017531" lon="11.3369961"><ele>9.0</ele><time>2026-03-22T09:56:51.293Z</time></trkpt><trkpt lat="45.017468" lon="11.3367936"><ele>9.0</ele><time>2026-03-22T09:56:52.297Z</time></trkpt><trkpt lat="45.0174055" lon="11.3365699"><ele>8.666666666666666</ele><time>2026-03-22T09:56:53.303Z</time></trkpt><trkpt lat="45.0173484" lon="11.3363255"><ele>8.333333333333332</ele><time>2026-03-22T09:56:54.303Z</time></trkpt><trkpt lat="45.0173023" lon="11.3360655"><ele>8.0</ele><time>2026-03-22T09:56:55.307Z</time></trkpt><trkpt lat="45.0172687" lon="11.3357973"><ele>8.0</ele><time>2026-03-22T09:56:56.31Z</time></trkpt><trkpt lat="45.0172412" lon="11.3355092"><ele>8.0</ele><time>2026-03-22T09:56:57.299Z</time></trkpt><trkpt lat="45.0172189" lon="11.3352071"><ele>8.0</ele><time>2026-03-22T09:56:58.3Z</time></trkpt><trkpt lat="45.0171877" lon="11.3348938"><ele>8.0</ele><time>2026-03-22T09:56:59.319Z</time></trkpt><trkpt lat="45.0171573" lon="11.3345927"><ele>8.0</ele><time>2026-03-22T09:57:00.304Z</time></trkpt><trkpt lat="45.0171285" lon="11.3342974"><ele>8.0</ele><time>2026-03-22T09:57:01.3Z</time></trkpt><trkpt lat="45.0171044" lon="11.3339997"><ele>7.666666666666666</ele><time>2026-03-22T09:57:02.304Z</time></trkpt><trkpt lat="45.0170817" lon="11.3337018"><ele>7.333333333333334</ele><time>2026-03-22T09:57:03.301Z</time></trkpt><trkpt lat="45.0170728" lon="11.3333981"><ele>7.0</ele><time>2026-03-22T09:57:04.302Z</time></trkpt><trkpt lat="45.0170764" lon="11.3330912"><ele>7.333333333333334</ele><time>2026-03-22T09:57:05.297Z</time></trkpt><trkpt lat="45.0170781" lon="11.3327804"><ele>7.666666666666666</ele><time>2026-03-22T09:57:06.299Z</time></trkpt><trkpt lat="45.0170699" lon="11.3324777"><ele>8.0</ele><time>2026-03-22T09:57:07.294Z</time></trkpt><trkpt lat="45.0170753" lon="11.3321943"><ele>8.333333333333332</ele><time>2026-03-22T09:57:08.306Z</time></trkpt><trkpt lat="45.017078" lon="11.3319302"><ele>8.666666666666666</ele><time>2026-03-22T09:57:09.292Z</time></trkpt><trkpt lat="45.0170767" lon="11.3316999"><ele>9.0</ele><time>2026-03-22T09:57:10.304Z</time></trkpt><trkpt lat="45.0170808" lon="11.3315106"><ele>8.75</ele><time>2026-03-22T09:57:11.303Z</time></trkpt><trkpt lat="45.0170779" lon="11.3313305"><ele>8.5</ele><time>2026-03-22T09:57:12.308Z</time></trkpt><trkpt lat="45.0170785" lon="11.3311516"><ele>8.25</ele><time>2026-03-22T09:57:13.311Z</time></trkpt><trkpt lat="45.0170854" lon="11.3309596"><ele>8.0</ele><time>2026-03-22T09:57:14.312Z</time></trkpt><trkpt lat="45.0171032" lon="11.3307544"><ele>8.0</ele><time>2026-03-22T09:57:15.306Z</time></trkpt><trkpt lat="45.017143" lon="11.3305367"><ele>8.0</ele><time>2026-03-22T09:57:16.311Z</time></trkpt><trkpt lat="45.0171789" lon="11.3303261"><ele>8.0</ele><time>2026-03-22T09:57:17.314Z</time></trkpt><trkpt lat="45.0172205" lon="11.3301442"><ele>8.0</ele><time>2026-03-22T09:57:18.306Z</time></trkpt><trkpt lat="45.0172446" lon="11.3299728"><ele>8.0</ele><time>2026-03-22T09:57:19.299Z</time></trkpt><trkpt lat="45.0172497" lon="11.3298224"><ele>8.0</ele><time>2026-03-22T09:57:20.304Z</time></trkpt><trkpt lat="45.0172569" lon="11.329687"><ele>8.0</ele><time>2026-03-22T09:57:21.305Z</time></trkpt><trkpt lat="45.0172558" lon="11.3295532"><ele>8.0</ele><time>2026-03-22T09:57:22.314Z</time></trkpt><trkpt lat="45.0172644" lon="11.3294256"><ele>8.0</ele><time>2026-03-22T09:57:23.308Z</time></trkpt><trkpt lat="45.0172978" lon="11.3293069"><ele>8.0</ele><time>2026-03-22T09:57:24.306Z</time></trkpt><trkpt lat="45.0173318" lon="11.3291796"><ele>8.0</ele><time>2026-03-22T09:57:25.307Z</time></trkpt><trkpt lat="45.0173544" lon="11.3290483"><ele>8.0</ele><time>2026-03-22T09:57:26.302Z</time></trkpt><trkpt lat="45.0173666" lon="11.3289106"><ele>8.0</ele><time>2026-03-22T09:57:27.299Z</time></trkpt><trkpt lat="45.017389" lon="11.328769"><ele>8.0</ele><time>2026-03-22T09:57:28.297Z</time></trkpt><trkpt lat="45.0174347" lon="11.32863"><ele>8.5</ele><time>2026-03-22T09:57:29.311Z</time></trkpt><trkpt lat="45.0175079" lon="11.3284877"><ele>9.0</ele><time>2026-03-22T09:57:30.307Z</time></trkpt><trkpt lat="45.0176065" lon="11.3283371"><ele>9.5</ele><time>2026-03-22T09:57:31.302Z</time></trkpt><trkpt lat="45.0177224" lon="11.3281918"><ele>10.0</ele><time>2026-03-22T09:57:32.302Z</time></trkpt><trkpt lat="45.0178731" lon="11.3280669"><ele>10.0</ele><time>2026-03-22T09:57:33.308Z</time></trkpt><trkpt lat="45.0180525" lon="11.3279578"><ele>10.0</ele><time>2026-03-22T09:57:34.307Z</time></trkpt><trkpt lat="45.0182316" lon="11.3278484"><ele>10.0</ele><time>2026-03-22T09:57:35.315Z</time></trkpt><trkpt lat="45.0184077" lon="11.3277281"><ele>9.666666666666668</ele><time>2026-03-22T09:57:36.302Z</time></trkpt><trkpt lat="45.0185824" lon="11.3276018"><ele>9.333333333333334</ele><time>2026-03-22T09:57:37.308Z</time></trkpt><trkpt lat="45.0187683" lon="11.3274706"><ele>9.0</ele><time>2026-03-22T09:57:38.304Z</time></trkpt><trkpt lat="45.0189609" lon="11.3273394"><ele>9.0</ele><time>2026-03-22T09:57:39.291Z</time></trkpt><trkpt lat="45.01915" lon="11.3272015"><ele>9.0</ele><time>2026-03-22T09:57:40.302Z</time></trkpt><trkpt lat="45.0193471" lon="11.3270582"><ele>9.0</ele><time>2026-03-22T09:57:41.304Z</time></trkpt><trkpt lat="45.019544" lon="11.326914"><ele>9.333333333333334</ele><time>2026-03-22T09:57:42.303Z</time></trkpt><trkpt lat="45.0197322" lon="11.3267594"><ele>9.666666666666668</ele><time>2026-03-22T09:57:43.308Z</time></trkpt><trkpt lat="45.0199168" lon="11.3265936"><ele>10.0</ele><time>2026-03-22T09:57:44.308Z</time></trkpt><trkpt lat="45.0200938" lon="11.3264134"><ele>10.666666666666668</ele><time>2026-03-22T09:57:45.306Z</time></trkpt><trkpt lat="45.0202642" lon="11.3262365"><ele>11.333333333333334</ele><time>2026-03-22T09:57:46.316Z</time></trkpt><trkpt lat="45.0204315" lon="11.3260496"><ele>12.0</ele><time>2026-03-22T09:57:47.304Z</time></trkpt><trkpt lat="45.0206001" lon="11.3258484"><ele>12.0</ele><time>2026-03-22T09:57:48.314Z</time></trkpt><trkpt lat="45.0207652" lon="11.3256476"><ele>12.0</ele><time>2026-03-22T09:57:49.301Z</time></trkpt><trkpt lat="45.0209337" lon="11.3254422"><ele>12.0</ele><time>2026-03-22T09:57:50.311Z</time></trkpt><trkpt lat="45.021102" lon="11.3252329"><ele>11.666666666666666</ele><time>2026-03-22T09:57:51.305Z</time></trkpt><trkpt lat="45.0212689" lon="11.3250292"><ele>11.333333333333332</ele><time>2026-03-22T09:57:52.313Z</time></trkpt><trkpt lat="45.021439" lon="11.3248283"><ele>11.0</ele><time>2026-03-22T09:57:53.32Z</time></trkpt><trkpt lat="45.0216073" lon="11.3246319"><ele>10.0</ele><time>2026-03-22T09:57:54.31Z</time></trkpt><trkpt lat="45.021777" lon="11.3244278"><ele>9.0</ele><time>2026-03-22T09:57:55.306Z</time></trkpt><trkpt lat="45.0219429" lon="11.324225"><ele>8.0</ele><time>2026-03-22T09:57:56.308Z</time></trkpt><trkpt lat="45.0221137" lon="11.3240255"><ele>8.0</ele><time>2026-03-22T09:57:57.302Z</time></trkpt><trkpt lat="45.0222797" lon="11.323825"><ele>8.0</ele><time>2026-03-22T09:57:58.313Z</time></trkpt><trkpt lat="45.0224451" lon="11.3236254"><ele>8.0</ele><time>2026-03-22T09:57:59.316Z</time></trkpt><trkpt lat="45.022611" lon="11.3234273"><ele>8.0</ele><time>2026-03-22T09:58:00.304Z</time></trkpt><trkpt lat="45.0227816" lon="11.3232375"><ele>8.0</ele><time>2026-03-22T09:58:01.315Z</time></trkpt><trkpt lat="45.0229463" lon="11.3230388"><ele>8.0</ele><time>2026-03-22T09:58:02.307Z</time></trkpt><trkpt lat="45.0231089" lon="11.3228438"><ele>8.0</ele><time>2026-03-22T09:58:03.306Z</time></trkpt><trkpt lat="45.0232582" lon="11.3226629"><ele>8.0</ele><time>2026-03-22T09:58:04.305Z</time></trkpt><trkpt lat="45.0234013" lon="11.322498"><ele>8.0</ele><time>2026-03-22T09:58:05.311Z</time></trkpt><trkpt lat="45.0235369" lon="11.3223496"><ele>7.75</ele><time>2026-03-22T09:58:06.305Z</time></trkpt><trkpt lat="45.0236604" lon="11.3222402"><ele>7.5</ele><time>2026-03-22T09:58:07.297Z</time></trkpt><trkpt lat="45.0237773" lon="11.3221611"><ele>7.25</ele><time>2026-03-22T09:58:08.3Z</time></trkpt><trkpt lat="45.023895" lon="11.3220996"><ele>7.0</ele><time>2026-03-22T09:58:09.309Z</time></trkpt><trkpt lat="45.0240229" lon="11.3220427"><ele>7.25</ele><time>2026-03-22T09:58:10.314Z</time></trkpt><trkpt lat="45.0241553" lon="11.3219999"><ele>7.5</ele><time>2026-03-22T09:58:11.316Z</time></trkpt><trkpt lat="45.0242972" lon="11.3219543"><ele>7.75</ele><time>2026-03-22T09:58:12.321Z</time></trkpt><trkpt lat="45.0244275" lon="11.3218895"><ele>8.0</ele><time>2026-03-22T09:58:13.309Z</time></trkpt><trkpt lat="45.024542" lon="11.3217711"><ele>8.0</ele><time>2026-03-22T09:58:14.315Z</time></trkpt><trkpt lat="45.0246372" lon="11.3216117"><ele>8.0</ele><time>2026-03-22T09:58:15.319Z</time></trkpt><trkpt lat="45.0247195" lon="11.3214311"><ele>8.0</ele><time>2026-03-22T09:58:16.307Z</time></trkpt><trkpt lat="45.0247797" lon="11.3212271"><ele>8.0</ele><time>2026-03-22T09:58:17.315Z</time></trkpt><trkpt lat="45.0248025" lon="11.3209922"><ele>8.0</ele><time>2026-03-22T09:58:18.311Z</time></trkpt><trkpt lat="45.0247978" lon="11.3207426"><ele>8.0</ele><time>2026-03-22T09:58:19.3Z</time></trkpt><trkpt lat="45.0248074" lon="11.3205042"><ele>8.0</ele><time>2026-03-22T09:58:20.299Z</time></trkpt><trkpt lat="45.0248338" lon="11.3202587"><ele>8.0</ele><time>2026-03-22T09:58:21.3Z</time></trkpt><trkpt lat="45.024908" lon="11.3200144"><ele>8.0</ele><time>2026-03-22T09:58:22.303Z</time></trkpt><trkpt lat="45.0250036" lon="11.3197865"><ele>8.666666666666666</ele><time>2026-03-22T09:58:23.306Z</time></trkpt><trkpt lat="45.0251076" lon="11.3195496"><ele>9.333333333333334</ele><time>2026-03-22T09:58:24.298Z</time></trkpt><trkpt lat="45.0252091" lon="11.3192954"><ele>10.0</ele><time>2026-03-22T09:58:25.306Z</time></trkpt><trkpt lat="45.0253147" lon="11.3190411"><ele>9.666666666666668</ele><time>2026-03-22T09:58:26.293Z</time></trkpt><trkpt lat="45.0254178" lon="11.3187746"><ele>9.333333333333334</ele><time>2026-03-22T09:58:27.299Z</time></trkpt><trkpt lat="45.0255192" lon="11.3185002"><ele>9.0</ele><time>2026-03-22T09:58:28.301Z</time></trkpt><trkpt lat="45.0256262" lon="11.318232"><ele>9.333333333333334</ele><time>2026-03-22T09:58:29.305Z</time></trkpt><trkpt lat="45.0257397" lon="11.3179568"><ele>9.666666666666668</ele><time>2026-03-22T09:58:30.294Z</time></trkpt><trkpt lat="45.0258486" lon="11.3176819"><ele>10.0</ele><time>2026-03-22T09:58:31.306Z</time></trkpt><trkpt lat="45.0259611" lon="11.3174025"><ele>9.0</ele><time>2026-03-22T09:58:32.31Z</time></trkpt><trkpt lat="45.0260751" lon="11.3171195"><ele>8.0</ele><time>2026-03-22T09:58:33.303Z</time></trkpt><trkpt lat="45.0261863" lon="11.3168315"><ele>8.0</ele><time>2026-03-22T09:58:34.308Z</time></trkpt><trkpt lat="45.0263013" lon="11.3165464"><ele>8.0</ele><time>2026-03-22T09:58:35.312Z</time></trkpt><trkpt lat="45.0264213" lon="11.3162584"><ele>8.5</ele><time>2026-03-22T09:58:36.309Z</time></trkpt><trkpt lat="45.0265357" lon="11.3159655"><ele>9.0</ele><time>2026-03-22T09:58:37.31Z</time></trkpt><trkpt lat="45.026642" lon="11.3156714"><ele>8.5</ele><time>2026-03-22T09:58:38.305Z</time></trkpt><trkpt lat="45.0267523" lon="11.3153778"><ele>8.0</ele><time>2026-03-22T09:58:39.305Z</time></trkpt><trkpt lat="45.026862" lon="11.3150884"><ele>8.0</ele><time>2026-03-22T09:58:40.304Z</time></trkpt><trkpt lat="45.0269791" lon="11.3147925"><ele>8.0</ele><time>2026-03-22T09:58:41.31Z</time></trkpt><trkpt lat="45.0270929" lon="11.3145017"><ele>8.0</ele><time>2026-03-22T09:58:42.306Z</time></trkpt><trkpt lat="45.0272132" lon="11.3142088"><ele>8.0</ele><time>2026-03-22T09:58:43.311Z</time></trkpt><trkpt lat="45.0273325" lon="11.3139126"><ele>8.0</ele><time>2026-03-22T09:58:44.305Z</time></trkpt><trkpt lat="45.0274492" lon="11.3136125"><ele>8.0</ele><time>2026-03-22T09:58:45.309Z</time></trkpt><trkpt lat="45.0275672" lon="11.3133187"><ele>8.0</ele><time>2026-03-22T09:58:46.313Z</time></trkpt><trkpt lat="45.0276838" lon="11.3130231"><ele>8.0</ele><time>2026-03-22T09:58:47.317Z</time></trkpt><trkpt lat="45.027802" lon="11.3127295"><ele>8.0</ele><time>2026-03-22T09:58:48.321Z</time></trkpt><trkpt lat="45.0279161" lon="11.3124319"><ele>8.0</ele><time>2026-03-22T09:58:49.313Z</time></trkpt><trkpt lat="45.0280388" lon="11.3121328"><ele>7.5</ele><time>2026-03-22T09:58:50.312Z</time></trkpt><trkpt lat="45.0281522" lon="11.3118317"><ele>7.0</ele><time>2026-03-22T09:58:51.307Z</time></trkpt><trkpt lat="45.0282693" lon="11.3115311"><ele>7.5</ele><time>2026-03-22T09:58:52.308Z</time></trkpt><trkpt lat="45.0283939" lon="11.311237"><ele>8.0</ele><time>2026-03-22T09:58:53.317Z</time></trkpt><trkpt lat="45.0285151" lon="11.3109439"><ele>8.0</ele><time>2026-03-22T09:58:54.312Z</time></trkpt><trkpt lat="45.0286412" lon="11.3106503"><ele>8.0</ele><time>2026-03-22T09:58:55.318Z</time></trkpt><trkpt lat="45.0287698" lon="11.3103478"><ele>8.5</ele><time>2026-03-22T09:58:56.306Z</time></trkpt><trkpt lat="45.0288948" lon="11.3100515"><ele>9.0</ele><time>2026-03-22T09:58:57.308Z</time></trkpt><trkpt lat="45.0290197" lon="11.3097528"><ele>8.5</ele><time>2026-03-22T09:58:58.309Z</time></trkpt><trkpt lat="45.0291481" lon="11.3094472"><ele>8.0</ele><time>2026-03-22T09:58:59.317Z</time></trkpt><trkpt lat="45.0292833" lon="11.3091476"><ele>8.5</ele><time>2026-03-22T09:59:00.307Z</time></trkpt><trkpt lat="45.0294065" lon="11.308845"><ele>9.0</ele><time>2026-03-22T09:59:01.312Z</time></trkpt><trkpt lat="45.0295322" lon="11.3085443"><ele>9.0</ele><time>2026-03-22T09:59:02.319Z</time></trkpt><trkpt lat="45.0296551" lon="11.3082429"><ele>9.0</ele><time>2026-03-22T09:59:03.315Z</time></trkpt><trkpt lat="45.0297822" lon="11.3079379"><ele>8.0</ele><time>2026-03-22T09:59:04.312Z</time></trkpt><trkpt lat="45.0299107" lon="11.3076362"><ele>7.0</ele><time>2026-03-22T09:59:05.31Z</time></trkpt><trkpt lat="45.0300379" lon="11.3073319"><ele>8.0</ele><time>2026-03-22T09:59:06.32Z</time></trkpt><trkpt lat="45.0301575" lon="11.3070288"><ele>9.0</ele><time>2026-03-22T09:59:07.31Z</time></trkpt><trkpt lat="45.03028" lon="11.3067291"><ele>9.0</ele><time>2026-03-22T09:59:08.312Z</time></trkpt><trkpt lat="45.0304012" lon="11.3064334"><ele>9.0</ele><time>2026-03-22T09:59:09.31Z</time></trkpt><trkpt lat="45.0305253" lon="11.3061473"><ele>8.5</ele><time>2026-03-22T09:59:10.312Z</time></trkpt><trkpt lat="45.0306507" lon="11.3058552"><ele>8.0</ele><time>2026-03-22T09:59:11.312Z</time></trkpt><trkpt lat="45.0307708" lon="11.3055612"><ele>8.0</ele><time>2026-03-22T09:59:12.315Z</time></trkpt><trkpt lat="45.0308796" lon="11.3052804"><ele>8.0</ele><time>2026-03-22T09:59:13.302Z</time></trkpt><trkpt lat="45.0309803" lon="11.3050328"><ele>8.0</ele><time>2026-03-22T09:59:14.315Z</time></trkpt><trkpt lat="45.0310608" lon="11.3048385"><ele>8.0</ele><time>2026-03-22T09:59:15.3Z</time></trkpt><trkpt lat="45.031132" lon="11.3046862"><ele>8.0</ele><time>2026-03-22T09:59:16.305Z</time></trkpt><trkpt lat="45.0312002" lon="11.3045188"><ele>8.0</ele><time>2026-03-22T09:59:17.309Z</time></trkpt><trkpt lat="45.0312688" lon="11.3043613"><ele>8.0</ele><time>2026-03-22T09:59:18.308Z</time></trkpt><trkpt lat="45.0313315" lon="11.3041988"><ele>8.0</ele><time>2026-03-22T09:59:19.312Z</time></trkpt><trkpt lat="45.0314099" lon="11.3040195"><ele>8.0</ele><time>2026-03-22T09:59:20.315Z</time></trkpt><trkpt lat="45.0314926" lon="11.3038248"><ele>8.0</ele><time>2026-03-22T09:59:21.312Z</time></trkpt><trkpt lat="45.0315695" lon="11.3036159"><ele>7.333333333333333</ele><time>2026-03-22T09:59:22.313Z</time></trkpt><trkpt lat="45.0316554" lon="11.3033988"><ele>6.666666666666666</ele><time>2026-03-22T09:59:23.312Z</time></trkpt><trkpt lat="45.0317552" lon="11.3031817"><ele>6.0</ele><time>2026-03-22T09:59:24.306Z</time></trkpt><trkpt lat="45.0318538" lon="11.3029526"><ele>6.0</ele><time>2026-03-22T09:59:25.305Z</time></trkpt><trkpt lat="45.0319551" lon="11.3027164"><ele>6.0</ele><time>2026-03-22T09:59:26.314Z</time></trkpt><trkpt lat="45.0320505" lon="11.3024784"><ele>6.0</ele><time>2026-03-22T09:59:27.309Z</time></trkpt><trkpt lat="45.0321554" lon="11.3022315"><ele>6.0</ele><time>2026-03-22T09:59:28.308Z</time></trkpt><trkpt lat="45.0322593" lon="11.3019822"><ele>6.0</ele><time>2026-03-22T09:59:29.313Z</time></trkpt><trkpt lat="45.0323653" lon="11.3017323"><ele>6.0</ele><time>2026-03-22T09:59:30.312Z</time></trkpt><trkpt lat="45.0324801" lon="11.3014762"><ele>6.0</ele><time>2026-03-22T09:59:31.313Z</time></trkpt><trkpt lat="45.0325919" lon="11.3012105"><ele>6.0</ele><time>2026-03-22T09:59:32.31Z</time></trkpt><trkpt lat="45.0327038" lon="11.3009483"><ele>6.0</ele><time>2026-03-22T09:59:33.316Z</time></trkpt><trkpt lat="45.0328221" lon="11.3006902"><ele>7.0</ele><time>2026-03-22T09:59:34.304Z</time></trkpt><trkpt lat="45.0329434" lon="11.3004263"><ele>8.0</ele><time>2026-03-22T09:59:35.313Z</time></trkpt><trkpt lat="45.0330731" lon="11.3001681"><ele>9.0</ele><time>2026-03-22T09:59:36.305Z</time></trkpt><trkpt lat="45.0332108" lon="11.2999094"><ele>9.5</ele><time>2026-03-22T09:59:37.311Z</time></trkpt><trkpt lat="45.0333537" lon="11.2996589"><ele>10.0</ele><time>2026-03-22T09:59:38.307Z</time></trkpt><trkpt lat="45.0334998" lon="11.2994029"><ele>10.0</ele><time>2026-03-22T09:59:39.32Z</time></trkpt><trkpt lat="45.0336407" lon="11.2991447"><ele>10.0</ele><time>2026-03-22T09:59:40.313Z</time></trkpt><trkpt lat="45.0337854" lon="11.2988837"><ele>10.0</ele><time>2026-03-22T09:59:41.319Z</time></trkpt><trkpt lat="45.0339386" lon="11.2986209"><ele>10.0</ele><time>2026-03-22T09:59:42.314Z</time></trkpt><trkpt lat="45.0340972" lon="11.2983472"><ele>8.0</ele><time>2026-03-22T09:59:43.31Z</time></trkpt><trkpt lat="45.0342634" lon="11.298051"><ele>6.0</ele><time>2026-03-22T09:59:44.313Z</time></trkpt><trkpt lat="45.0344287" lon="11.2977418"><ele>6.0</ele><time>2026-03-22T09:59:45.314Z</time></trkpt><trkpt lat="45.0345911" lon="11.2974335"><ele>6.0</ele><time>2026-03-22T09:59:46.314Z</time></trkpt><trkpt lat="45.0347621" lon="11.2971267"><ele>6.0</ele><time>2026-03-22T09:59:47.318Z</time></trkpt><trkpt lat="45.0349411" lon="11.2968221"><ele>6.0</ele><time>2026-03-22T09:59:48.315Z</time></trkpt><trkpt lat="45.0351267" lon="11.2965218"><ele>6.0</ele><time>2026-03-22T09:59:49.316Z</time></trkpt><trkpt lat="45.0353115" lon="11.2962248"><ele>6.0</ele><time>2026-03-22T09:59:50.312Z</time></trkpt><trkpt lat="45.0354898" lon="11.2959384"><ele>6.0</ele><time>2026-03-22T09:59:51.312Z</time></trkpt><trkpt lat="45.035677" lon="11.295664"><ele>6.0</ele><time>2026-03-22T09:59:52.309Z</time></trkpt><trkpt lat="45.0358642" lon="11.2954008"><ele>6.5</ele><time>2026-03-22T09:59:53.307Z</time></trkpt><trkpt lat="45.0360639" lon="11.2951515"><ele>7.0</ele><time>2026-03-22T09:59:54.303Z</time></trkpt><trkpt lat="45.0362583" lon="11.2949273"><ele>6.5</ele><time>2026-03-22T09:59:55.307Z</time></trkpt><trkpt lat="45.036448" lon="11.2947306"><ele>6.0</ele><time>2026-03-22T09:59:56.309Z</time></trkpt><trkpt lat="45.0366298" lon="11.2945628"><ele>6.666666666666666</ele><time>2026-03-22T09:59:57.313Z</time></trkpt><trkpt lat="45.0368068" lon="11.2944112"><ele>7.333333333333333</ele><time>2026-03-22T09:59:58.306Z</time></trkpt><trkpt lat="45.036978" lon="11.2942673"><ele>8.0</ele><time>2026-03-22T09:59:59.321Z</time></trkpt><trkpt lat="45.037136" lon="11.2941342"><ele>8.0</ele><time>2026-03-22T10:00:00.303Z</time></trkpt><trkpt lat="45.0372732" lon="11.2940208"><ele>8.0</ele><time>2026-03-22T10:00:01.318Z</time></trkpt><trkpt lat="45.0373684" lon="11.2939447"><ele>8.0</ele><time>2026-03-22T10:00:02.331Z</time></trkpt><trkpt lat="45.0374521" lon="11.2939083"><ele>8.0</ele><time>2026-03-22T10:00:03.311Z</time></trkpt><trkpt lat="45.037552" lon="11.2939061"><ele>8.0</ele><time>2026-03-22T10:00:04.308Z</time></trkpt><trkpt lat="45.0376619" lon="11.2939305"><ele>8.0</ele><time>2026-03-22T10:00:05.31Z</time></trkpt><trkpt lat="45.0377679" lon="11.2939415"><ele>8.0</ele><time>2026-03-22T10:00:06.317Z</time></trkpt><trkpt lat="45.0378513" lon="11.2938888"><ele>8.0</ele><time>2026-03-22T10:00:07.312Z</time></trkpt><trkpt lat="45.0379323" lon="11.2938013"><ele>8.0</ele><time>2026-03-22T10:00:08.313Z</time></trkpt><trkpt lat="45.0379885" lon="11.293681"><ele>8.0</ele><time>2026-03-22T10:00:09.306Z</time></trkpt><trkpt lat="45.0380284" lon="11.2935203"><ele>8.0</ele><time>2026-03-22T10:00:10.314Z</time></trkpt><trkpt lat="45.038073" lon="11.293346"><ele>8.0</ele><time>2026-03-22T10:00:11.302Z</time></trkpt><trkpt lat="45.0381529" lon="11.2931878"><ele>8.0</ele><time>2026-03-22T10:00:12.303Z</time></trkpt><trkpt lat="45.0382775" lon="11.2930567"><ele>7.666666666666666</ele><time>2026-03-22T10:00:13.299Z</time></trkpt><trkpt lat="45.0384445" lon="11.2929419"><ele>7.333333333333334</ele><time>2026-03-22T10:00:14.309Z</time></trkpt><trkpt lat="45.0386159" lon="11.292819"><ele>7.0</ele><time>2026-03-22T10:00:15.301Z</time></trkpt><trkpt lat="45.0387729" lon="11.292678"><ele>7.0</ele><time>2026-03-22T10:00:16.31Z</time></trkpt><trkpt lat="45.0389439" lon="11.2925392"><ele>7.0</ele><time>2026-03-22T10:00:17.307Z</time></trkpt><trkpt lat="45.0391115" lon="11.2923937"><ele>7.0</ele><time>2026-03-22T10:00:18.31Z</time></trkpt><trkpt lat="45.0392923" lon="11.2922405"><ele>7.0</ele><time>2026-03-22T10:00:19.311Z</time></trkpt><trkpt lat="45.0394701" lon="11.2920769"><ele>7.0</ele><time>2026-03-22T10:00:20.316Z</time></trkpt><trkpt lat="45.0396597" lon="11.2919118"><ele>7.0</ele><time>2026-03-22T10:00:21.308Z</time></trkpt><trkpt lat="45.0398499" lon="11.2917419"><ele>6.5</ele><time>2026-03-22T10:00:22.313Z</time></trkpt><trkpt lat="45.0400427" lon="11.2915665"><ele>6.0</ele><time>2026-03-22T10:00:23.314Z</time></trkpt><trkpt lat="45.0402329" lon="11.2913909"><ele>6.0</ele><time>2026-03-22T10:00:24.309Z</time></trkpt><trkpt lat="45.0404134" lon="11.2912087"><ele>6.0</ele><time>2026-03-22T10:00:25.309Z</time></trkpt><trkpt lat="45.0405913" lon="11.2910227"><ele>6.0</ele><time>2026-03-22T10:00:26.306Z</time></trkpt><trkpt lat="45.0407576" lon="11.2908303"><ele>6.0</ele><time>2026-03-22T10:00:27.307Z</time></trkpt><trkpt lat="45.0409159" lon="11.2906114"><ele>6.0</ele><time>2026-03-22T10:00:28.309Z</time></trkpt><trkpt lat="45.0410579" lon="11.2903721"><ele>6.0</ele><time>2026-03-22T10:00:29.305Z</time></trkpt><trkpt lat="45.041197" lon="11.2901251"><ele>6.0</ele><time>2026-03-22T10:00:30.296Z</time></trkpt><trkpt lat="45.0413169" lon="11.2898554"><ele>6.0</ele><time>2026-03-22T10:00:31.303Z</time></trkpt><trkpt lat="45.0414328" lon="11.2895869"><ele>6.0</ele><time>2026-03-22T10:00:32.299Z</time></trkpt><trkpt lat="45.0415563" lon="11.2893101"><ele>7.5</ele><time>2026-03-22T10:00:33.305Z</time></trkpt><trkpt lat="45.0416706" lon="11.289024"><ele>9.0</ele><time>2026-03-22T10:00:34.301Z</time></trkpt><trkpt lat="45.0417954" lon="11.28873"><ele>9.0</ele><time>2026-03-22T10:00:35.309Z</time></trkpt><trkpt lat="45.0419264" lon="11.2884121"><ele>9.0</ele><time>2026-03-22T10:00:36.305Z</time></trkpt><trkpt lat="45.0420536" lon="11.2880827"><ele>8.5</ele><time>2026-03-22T10:00:37.313Z</time></trkpt><trkpt lat="45.0421826" lon="11.2877589"><ele>8.0</ele><time>2026-03-22T10:00:38.312Z</time></trkpt><trkpt lat="45.0423168" lon="11.2874242"><ele>8.5</ele><time>2026-03-22T10:00:39.316Z</time></trkpt><trkpt lat="45.042453" lon="11.2870951"><ele>9.0</ele><time>2026-03-22T10:00:40.324Z</time></trkpt><trkpt lat="45.0425931" lon="11.2867784"><ele>9.5</ele><time>2026-03-22T10:00:41.306Z</time></trkpt><trkpt lat="45.0427244" lon="11.2864923"><ele>10.0</ele><time>2026-03-22T10:00:42.306Z</time></trkpt><trkpt lat="45.042846" lon="11.286219"><ele>10.0</ele><time>2026-03-22T10:00:43.309Z</time></trkpt><trkpt lat="45.0429667" lon="11.2859473"><ele>10.0</ele><time>2026-03-22T10:00:44.311Z</time></trkpt><trkpt lat="45.0430863" lon="11.2856719"><ele>10.333333333333334</ele><time>2026-03-22T10:00:45.309Z</time></trkpt><trkpt lat="45.0431959" lon="11.2854064"><ele>10.666666666666666</ele><time>2026-03-22T10:00:46.306Z</time></trkpt><trkpt lat="45.043309" lon="11.2851505"><ele>11.0</ele><time>2026-03-22T10:00:47.307Z</time></trkpt><trkpt lat="45.0434191" lon="11.2848993"><ele>10.333333333333332</ele><time>2026-03-22T10:00:48.311Z</time></trkpt><trkpt lat="45.0435304" lon="11.2846395"><ele>9.666666666666666</ele><time>2026-03-22T10:00:49.318Z</time></trkpt><trkpt lat="45.0436374" lon="11.2843851"><ele>9.0</ele><time>2026-03-22T10:00:50.316Z</time></trkpt><trkpt lat="45.0437352" lon="11.2841265"><ele>10.333333333333332</ele><time>2026-03-22T10:00:51.308Z</time></trkpt><trkpt lat="45.0438169" lon="11.2838599"><ele>11.666666666666666</ele><time>2026-03-22T10:00:52.312Z</time></trkpt><trkpt lat="45.0438757" lon="11.2835842"><ele>13.0</ele><time>2026-03-22T10:00:53.306Z</time></trkpt><trkpt lat="45.0439221" lon="11.283301"><ele>13.333333333333332</ele><time>2026-03-22T10:00:54.308Z</time></trkpt><trkpt lat="45.0439528" lon="11.2830156"><ele>13.666666666666668</ele><time>2026-03-22T10:00:55.309Z</time></trkpt><trkpt lat="45.0439893" lon="11.2827272"><ele>14.0</ele><time>2026-03-22T10:00:56.311Z</time></trkpt><trkpt lat="45.0440278" lon="11.2824455"><ele>12.0</ele><time>2026-03-22T10:00:57.306Z</time></trkpt><trkpt lat="45.0440646" lon="11.2821783"><ele>10.0</ele><time>2026-03-22T10:00:58.301Z</time></trkpt><trkpt lat="45.0441053" lon="11.2819076"><ele>8.0</ele><time>2026-03-22T10:00:59.31Z</time></trkpt><trkpt lat="45.0441487" lon="11.2816298"><ele>7.666666666666666</ele><time>2026-03-22T10:01:00.316Z</time></trkpt><trkpt lat="45.0441892" lon="11.2813465"><ele>7.333333333333334</ele><time>2026-03-22T10:01:01.316Z</time></trkpt><trkpt lat="45.0442314" lon="11.2810563"><ele>7.0</ele><time>2026-03-22T10:01:02.322Z</time></trkpt><trkpt lat="45.0442732" lon="11.2807683"><ele>7.333333333333334</ele><time>2026-03-22T10:01:03.307Z</time></trkpt><trkpt lat="45.044323" lon="11.2804978"><ele>7.666666666666666</ele><time>2026-03-22T10:01:04.31Z</time></trkpt><trkpt lat="45.0444003" lon="11.280245"><ele>8.0</ele><time>2026-03-22T10:01:05.312Z</time></trkpt><trkpt lat="45.0445087" lon="11.2800171"><ele>8.0</ele><time>2026-03-22T10:01:06.314Z</time></trkpt><trkpt lat="45.044623" lon="11.2798159"><ele>8.0</ele><time>2026-03-22T10:01:07.314Z</time></trkpt><trkpt lat="45.0447763" lon="11.2796402"><ele>8.0</ele><time>2026-03-22T10:01:08.319Z</time></trkpt><trkpt lat="45.0449496" lon="11.2794944"><ele>8.0</ele><time>2026-03-22T10:01:09.307Z</time></trkpt><trkpt lat="45.04513" lon="11.2793736"><ele>8.0</ele><time>2026-03-22T10:01:10.318Z</time></trkpt><trkpt lat="45.0453095" lon="11.2792564"><ele>8.0</ele><time>2026-03-22T10:01:11.31Z</time></trkpt><trkpt lat="45.0454951" lon="11.2791376"><ele>8.0</ele><time>2026-03-22T10:01:12.315Z</time></trkpt><trkpt lat="45.0456907" lon="11.2790327"><ele>8.0</ele><time>2026-03-22T10:01:13.307Z</time></trkpt><trkpt lat="45.0458936" lon="11.2789445"><ele>8.0</ele><time>2026-03-22T10:01:14.312Z</time></trkpt><trkpt lat="45.0460937" lon="11.2788698"><ele>7.333333333333333</ele><time>2026-03-22T10:01:15.316Z</time></trkpt><trkpt lat="45.046296" lon="11.2787926"><ele>6.666666666666666</ele><time>2026-03-22T10:01:16.311Z</time></trkpt><trkpt lat="45.0465018" lon="11.2787117"><ele>6.0</ele><time>2026-03-22T10:01:17.317Z</time></trkpt><trkpt lat="45.046713" lon="11.2786109"><ele>6.0</ele><time>2026-03-22T10:01:18.315Z</time></trkpt><trkpt lat="45.0469214" lon="11.2785051"><ele>6.0</ele><time>2026-03-22T10:01:19.314Z</time></trkpt><trkpt lat="45.0471306" lon="11.2783903"><ele>6.0</ele><time>2026-03-22T10:01:20.317Z</time></trkpt><trkpt lat="45.0473368" lon="11.2782669"><ele>6.0</ele><time>2026-03-22T10:01:21.313Z</time></trkpt><trkpt lat="45.0475519" lon="11.2781474"><ele>6.0</ele><time>2026-03-22T10:01:22.32Z</time></trkpt><trkpt lat="45.0477671" lon="11.2780265"><ele>6.0</ele><time>2026-03-22T10:01:23.314Z</time></trkpt><trkpt lat="45.0479767" lon="11.2779"><ele>6.0</ele><time>2026-03-22T10:01:24.318Z</time></trkpt><trkpt lat="45.0481948" lon="11.2777786"><ele>6.5</ele><time>2026-03-22T10:01:25.311Z</time></trkpt><trkpt lat="45.0484107" lon="11.2776516"><ele>7.0</ele><time>2026-03-22T10:01:26.318Z</time></trkpt><trkpt lat="45.0486288" lon="11.2775299"><ele>7.0</ele><time>2026-03-22T10:01:27.314Z</time></trkpt><trkpt lat="45.0488466" lon="11.2774145"><ele>7.0</ele><time>2026-03-22T10:01:28.319Z</time></trkpt><trkpt lat="45.0490659" lon="11.2772966"><ele>7.0</ele><time>2026-03-22T10:01:29.321Z</time></trkpt><trkpt lat="45.049288" lon="11.2771747"><ele>7.0</ele><time>2026-03-22T10:01:30.328Z</time></trkpt><trkpt lat="45.049513" lon="11.2770476"><ele>7.0</ele><time>2026-03-22T10:01:31.324Z</time></trkpt><trkpt lat="45.0497387" lon="11.2769154"><ele>7.0</ele><time>2026-03-22T10:01:32.329Z</time></trkpt><trkpt lat="45.0499624" lon="11.2767803"><ele>6.5</ele><time>2026-03-22T10:01:33.314Z</time></trkpt><trkpt lat="45.0501937" lon="11.2766369"><ele>6.0</ele><time>2026-03-22T10:01:34.312Z</time></trkpt><trkpt lat="45.0504254" lon="11.2764916"><ele>6.5</ele><time>2026-03-22T10:01:35.314Z</time></trkpt><trkpt lat="45.0506522" lon="11.2763515"><ele>7.0</ele><time>2026-03-22T10:01:36.317Z</time></trkpt><trkpt lat="45.0508818" lon="11.2762263"><ele>7.0</ele><time>2026-03-22T10:01:37.319Z</time></trkpt><trkpt lat="45.0510993" lon="11.2761163"><ele>7.0</ele><time>2026-03-22T10:01:38.31Z</time></trkpt><trkpt lat="45.0513037" lon="11.2760426"><ele>7.0</ele><time>2026-03-22T10:01:39.311Z</time></trkpt><trkpt lat="45.0515134" lon="11.276035"><ele>6.333333333333334</ele><time>2026-03-22T10:01:40.317Z</time></trkpt><trkpt lat="45.0517327" lon="11.2760707"><ele>5.666666666666667</ele><time>2026-03-22T10:01:41.31Z</time></trkpt><trkpt lat="45.0519574" lon="11.2761285"><ele>5.0</ele><time>2026-03-22T10:01:42.307Z</time></trkpt><trkpt lat="45.0521774" lon="11.2761718"><ele>5.0</ele><time>2026-03-22T10:01:43.307Z</time></trkpt><trkpt lat="45.0523962" lon="11.2762058"><ele>5.0</ele><time>2026-03-22T10:01:44.312Z</time></trkpt><trkpt lat="45.0526174" lon="11.2762382"><ele>5.0</ele><time>2026-03-22T10:01:45.314Z</time></trkpt><trkpt lat="45.05284" lon="11.2762711"><ele>5.5</ele><time>2026-03-22T10:01:46.315Z</time></trkpt><trkpt lat="45.0530653" lon="11.2763112"><ele>6.0</ele><time>2026-03-22T10:01:47.317Z</time></trkpt><trkpt lat="45.0532922" lon="11.2763456"><ele>6.5</ele><time>2026-03-22T10:01:48.317Z</time></trkpt><trkpt lat="45.0535239" lon="11.2763754"><ele>7.0</ele><time>2026-03-22T10:01:49.319Z</time></trkpt><trkpt lat="45.0537513" lon="11.2763924"><ele>7.0</ele><time>2026-03-22T10:01:50.315Z</time></trkpt><trkpt lat="45.0539773" lon="11.2764135"><ele>7.0</ele><time>2026-03-22T10:01:51.316Z</time></trkpt><trkpt lat="45.0542014" lon="11.2764364"><ele>7.0</ele><time>2026-03-22T10:01:52.316Z</time></trkpt><trkpt lat="45.0544186" lon="11.2764566"><ele>7.0</ele><time>2026-03-22T10:01:53.315Z</time></trkpt><trkpt lat="45.0546408" lon="11.276458"><ele>7.0</ele><time>2026-03-22T10:01:54.314Z</time></trkpt><trkpt lat="45.0548572" lon="11.2764233"><ele>7.333333333333334</ele><time>2026-03-22T10:01:55.311Z</time></trkpt><trkpt lat="45.0550612" lon="11.276329"><ele>7.666666666666666</ele><time>2026-03-22T10:01:56.319Z</time></trkpt><trkpt lat="45.0552559" lon="11.2762076"><ele>8.0</ele><time>2026-03-22T10:01:57.314Z</time></trkpt><trkpt lat="45.055463" lon="11.276091"><ele>8.0</ele><time>2026-03-22T10:01:58.314Z</time></trkpt><trkpt lat="45.0556758" lon="11.2759725"><ele>8.0</ele><time>2026-03-22T10:01:59.319Z</time></trkpt><trkpt lat="45.0558848" lon="11.275856"><ele>7.666666666666666</ele><time>2026-03-22T10:02:00.315Z</time></trkpt><trkpt lat="45.0560878" lon="11.2757352"><ele>7.333333333333334</ele><time>2026-03-22T10:02:01.313Z</time></trkpt><trkpt lat="45.0562964" lon="11.2756244"><ele>7.0</ele><time>2026-03-22T10:02:02.32Z</time></trkpt><trkpt lat="45.0565044" lon="11.2755135"><ele>7.333333333333334</ele><time>2026-03-22T10:02:03.315Z</time></trkpt><trkpt lat="45.0567101" lon="11.2754097"><ele>7.666666666666666</ele><time>2026-03-22T10:02:04.314Z</time></trkpt><trkpt lat="45.0569192" lon="11.2752996"><ele>8.0</ele><time>2026-03-22T10:02:05.315Z</time></trkpt><trkpt lat="45.0571267" lon="11.2751891"><ele>8.0</ele><time>2026-03-22T10:02:06.31Z</time></trkpt><trkpt lat="45.0573328" lon="11.27508"><ele>8.0</ele><time>2026-03-22T10:02:07.31Z</time></trkpt><trkpt lat="45.0575335" lon="11.2749673"><ele>8.0</ele><time>2026-03-22T10:02:08.311Z</time></trkpt><trkpt lat="45.057733" lon="11.2748573"><ele>8.0</ele><time>2026-03-22T10:02:09.314Z</time></trkpt><trkpt lat="45.0579401" lon="11.2747605"><ele>8.0</ele><time>2026-03-22T10:02:10.312Z</time></trkpt><trkpt lat="45.0581453" lon="11.2746775"><ele>8.0</ele><time>2026-03-22T10:02:11.314Z</time></trkpt><trkpt lat="45.0583598" lon="11.2746073"><ele>8.0</ele><time>2026-03-22T10:02:12.31Z</time></trkpt><trkpt lat="45.0585756" lon="11.2745533"><ele>8.0</ele><time>2026-03-22T10:02:13.308Z</time></trkpt><trkpt lat="45.058795" lon="11.2745176"><ele>8.0</ele><time>2026-03-22T10:02:14.317Z</time></trkpt><trkpt lat="45.0590159" lon="11.2745174"><ele>8.333333333333332</ele><time>2026-03-22T10:02:15.306Z</time></trkpt><trkpt lat="45.0592364" lon="11.274522"><ele>8.666666666666666</ele><time>2026-03-22T10:02:16.313Z</time></trkpt><trkpt lat="45.0594591" lon="11.2745235"><ele>9.0</ele><time>2026-03-22T10:02:17.313Z</time></trkpt><trkpt lat="45.0596793" lon="11.2745237"><ele>9.0</ele><time>2026-03-22T10:02:18.316Z</time></trkpt><trkpt lat="45.0598991" lon="11.2745213"><ele>9.0</ele><time>2026-03-22T10:02:19.321Z</time></trkpt><trkpt lat="45.0601255" lon="11.2745202"><ele>9.0</ele><time>2026-03-22T10:02:20.316Z</time></trkpt><trkpt lat="45.0603536" lon="11.2745215"><ele>9.0</ele><time>2026-03-22T10:02:21.326Z</time></trkpt><trkpt lat="45.0605788" lon="11.2745144"><ele>9.0</ele><time>2026-03-22T10:02:22.313Z</time></trkpt><trkpt lat="45.0608063" lon="11.2745118"><ele>8.0</ele><time>2026-03-22T10:02:23.316Z</time></trkpt><trkpt lat="45.0610339" lon="11.2745054"><ele>7.0</ele><time>2026-03-22T10:02:24.314Z</time></trkpt><trkpt lat="45.0612721" lon="11.2744938"><ele>7.0</ele><time>2026-03-22T10:02:25.318Z</time></trkpt><trkpt lat="45.0615058" lon="11.2744835"><ele>7.0</ele><time>2026-03-22T10:02:26.315Z</time></trkpt><trkpt lat="45.0617378" lon="11.2744738"><ele>7.5</ele><time>2026-03-22T10:02:27.315Z</time></trkpt><trkpt lat="45.0619741" lon="11.2744629"><ele>8.0</ele><time>2026-03-22T10:02:28.315Z</time></trkpt><trkpt lat="45.0622054" lon="11.2744439"><ele>8.0</ele><time>2026-03-22T10:02:29.323Z</time></trkpt><trkpt lat="45.0624371" lon="11.2744187"><ele>8.0</ele><time>2026-03-22T10:02:30.322Z</time></trkpt><trkpt lat="45.0626637" lon="11.2743899"><ele>6.5</ele><time>2026-03-22T10:02:31.326Z</time></trkpt><trkpt lat="45.0628925" lon="11.2743573"><ele>5.0</ele><time>2026-03-22T10:02:32.325Z</time></trkpt><trkpt lat="45.0631183" lon="11.2743092"><ele>5.666666666666667</ele><time>2026-03-22T10:02:33.317Z</time></trkpt><trkpt lat="45.0633365" lon="11.2742634"><ele>6.333333333333334</ele><time>2026-03-22T10:02:34.318Z</time></trkpt><trkpt lat="45.0635575" lon="11.274214"><ele>7.0</ele><time>2026-03-22T10:02:35.315Z</time></trkpt><trkpt lat="45.0637766" lon="11.2741594"><ele>7.0</ele><time>2026-03-22T10:02:36.315Z</time></trkpt><trkpt lat="45.0639757" lon="11.2740873"><ele>7.0</ele><time>2026-03-22T10:02:37.315Z</time></trkpt><trkpt lat="45.0641602" lon="11.2739769"><ele>7.0</ele><time>2026-03-22T10:02:38.315Z</time></trkpt><trkpt lat="45.0643344" lon="11.2738291"><ele>7.0</ele><time>2026-03-22T10:02:39.321Z</time></trkpt><trkpt lat="45.0644986" lon="11.2736455"><ele>7.0</ele><time>2026-03-22T10:02:40.318Z</time></trkpt><trkpt lat="45.0646442" lon="11.2734419"><ele>7.0</ele><time>2026-03-22T10:02:41.312Z</time></trkpt><trkpt lat="45.0647988" lon="11.2732343"><ele>7.666666666666667</ele><time>2026-03-22T10:02:42.312Z</time></trkpt><trkpt lat="45.064953" lon="11.2730372"><ele>8.333333333333334</ele><time>2026-03-22T10:02:43.314Z</time></trkpt><trkpt lat="45.0650989" lon="11.2728533"><ele>9.0</ele><time>2026-03-22T10:02:44.306Z</time></trkpt><trkpt lat="45.0652365" lon="11.2726748"><ele>9.0</ele><time>2026-03-22T10:02:45.313Z</time></trkpt><trkpt lat="45.0653624" lon="11.2724924"><ele>9.0</ele><time>2026-03-22T10:02:46.302Z</time></trkpt><trkpt lat="45.0654894" lon="11.2723037"><ele>9.0</ele><time>2026-03-22T10:02:47.311Z</time></trkpt><trkpt lat="45.0656214" lon="11.2721106"><ele>9.0</ele><time>2026-03-22T10:02:48.31Z</time></trkpt><trkpt lat="45.0657542" lon="11.2719113"><ele>9.0</ele><time>2026-03-22T10:02:49.32Z</time></trkpt><trkpt lat="45.0658942" lon="11.2717077"><ele>9.0</ele><time>2026-03-22T10:02:50.31Z</time></trkpt><trkpt lat="45.0660314" lon="11.271504"><ele>8.666666666666666</ele><time>2026-03-22T10:02:51.309Z</time></trkpt><trkpt lat="45.0661736" lon="11.2713047"><ele>8.333333333333332</ele><time>2026-03-22T10:02:52.314Z</time></trkpt><trkpt lat="45.0663152" lon="11.2711104"><ele>8.0</ele><time>2026-03-22T10:02:53.322Z</time></trkpt><trkpt lat="45.0664661" lon="11.2709262"><ele>8.0</ele><time>2026-03-22T10:02:54.315Z</time></trkpt><trkpt lat="45.066616" lon="11.2707389"><ele>8.0</ele><time>2026-03-22T10:02:55.314Z</time></trkpt><trkpt lat="45.0667804" lon="11.270562"><ele>8.0</ele><time>2026-03-22T10:02:56.315Z</time></trkpt><trkpt lat="45.06695" lon="11.2703841"><ele>8.0</ele><time>2026-03-22T10:02:57.318Z</time></trkpt><trkpt lat="45.0671253" lon="11.2702231"><ele>8.0</ele><time>2026-03-22T10:02:58.321Z</time></trkpt><trkpt lat="45.0673094" lon="11.2700745"><ele>8.0</ele><time>2026-03-22T10:02:59.317Z</time></trkpt><trkpt lat="45.0675047" lon="11.2699352"><ele>7.666666666666666</ele><time>2026-03-22T10:03:00.316Z</time></trkpt><trkpt lat="45.0677074" lon="11.2698013"><ele>7.333333333333334</ele><time>2026-03-22T10:03:01.319Z</time></trkpt><trkpt lat="45.0679088" lon="11.2696592"><ele>7.0</ele><time>2026-03-22T10:03:02.32Z</time></trkpt><trkpt lat="45.0681155" lon="11.2695189"><ele>7.0</ele><time>2026-03-22T10:03:03.316Z</time></trkpt><trkpt lat="45.0683203" lon="11.2693747"><ele>7.0</ele><time>2026-03-22T10:03:04.318Z</time></trkpt><trkpt lat="45.0685301" lon="11.2692221"><ele>7.0</ele><time>2026-03-22T10:03:05.316Z</time></trkpt><trkpt lat="45.0687364" lon="11.2690649"><ele>7.0</ele><time>2026-03-22T10:03:06.314Z</time></trkpt><trkpt lat="45.0689446" lon="11.2689121"><ele>8.0</ele><time>2026-03-22T10:03:07.311Z</time></trkpt><trkpt lat="45.0691523" lon="11.2687595"><ele>9.0</ele><time>2026-03-22T10:03:08.309Z</time></trkpt><trkpt lat="45.0693669" lon="11.2686073"><ele>9.0</ele><time>2026-03-22T10:03:09.321Z</time></trkpt><trkpt lat="45.069582" lon="11.2684514"><ele>9.0</ele><time>2026-03-22T10:03:10.322Z</time></trkpt><trkpt lat="45.0697938" lon="11.2682918"><ele>9.0</ele><time>2026-03-22T10:03:11.325Z</time></trkpt><trkpt lat="45.0700037" lon="11.2681459"><ele>9.0</ele><time>2026-03-22T10:03:12.315Z</time></trkpt><trkpt lat="45.0701956" lon="11.2680086"><ele>9.0</ele><time>2026-03-22T10:03:13.305Z</time></trkpt><trkpt lat="45.0703767" lon="11.2678737"><ele>9.0</ele><time>2026-03-22T10:03:14.317Z</time></trkpt><trkpt lat="45.0705528" lon="11.267742"><ele>9.0</ele><time>2026-03-22T10:03:15.311Z</time></trkpt><trkpt lat="45.0707186" lon="11.2675993"><ele>9.0</ele><time>2026-03-22T10:03:16.312Z</time></trkpt><trkpt lat="45.0708752" lon="11.2674351"><ele>8.666666666666666</ele><time>2026-03-22T10:03:17.316Z</time></trkpt><trkpt lat="45.0710373" lon="11.2672282"><ele>8.333333333333332</ele><time>2026-03-22T10:03:18.319Z</time></trkpt><trkpt lat="45.0711888" lon="11.2669936"><ele>8.0</ele><time>2026-03-22T10:03:19.315Z</time></trkpt><trkpt lat="45.0713321" lon="11.2667454"><ele>8.0</ele><time>2026-03-22T10:03:20.311Z</time></trkpt><trkpt lat="45.0714778" lon="11.2665012"><ele>8.0</ele><time>2026-03-22T10:03:21.318Z</time></trkpt><trkpt lat="45.0716055" lon="11.2662308"><ele>7.0</ele><time>2026-03-22T10:03:22.311Z</time></trkpt><trkpt lat="45.0717142" lon="11.2659409"><ele>6.0</ele><time>2026-03-22T10:03:23.309Z</time></trkpt><trkpt lat="45.0718146" lon="11.2656385"><ele>6.5</ele><time>2026-03-22T10:03:24.307Z</time></trkpt><trkpt lat="45.071898" lon="11.265305"><ele>7.0</ele><time>2026-03-22T10:03:25.313Z</time></trkpt><trkpt lat="45.0719712" lon="11.2649702"><ele>7.5</ele><time>2026-03-22T10:03:26.313Z</time></trkpt><trkpt lat="45.0720577" lon="11.2646314"><ele>8.0</ele><time>2026-03-22T10:03:27.312Z</time></trkpt><trkpt lat="45.0721487" lon="11.2642978"><ele>8.0</ele><time>2026-03-22T10:03:28.315Z</time></trkpt><trkpt lat="45.0722361" lon="11.26396"><ele>8.0</ele><time>2026-03-22T10:03:29.317Z</time></trkpt><trkpt lat="45.0723197" lon="11.2636213"><ele>8.0</ele><time>2026-03-22T10:03:30.319Z</time></trkpt><trkpt lat="45.0724038" lon="11.2632874"><ele>8.0</ele><time>2026-03-22T10:03:31.315Z</time></trkpt><trkpt lat="45.0724907" lon="11.2629474"><ele>8.0</ele><time>2026-03-22T10:03:32.32Z</time></trkpt><trkpt lat="45.0725765" lon="11.2626115"><ele>8.0</ele><time>2026-03-22T10:03:33.315Z</time></trkpt><trkpt lat="45.0726606" lon="11.2622831"><ele>7.5</ele><time>2026-03-22T10:03:34.323Z</time></trkpt><trkpt lat="45.0727413" lon="11.2619546"><ele>7.0</ele><time>2026-03-22T10:03:35.312Z</time></trkpt><trkpt lat="45.0728191" lon="11.2616298"><ele>6.5</ele><time>2026-03-22T10:03:36.325Z</time></trkpt><trkpt lat="45.0728966" lon="11.2613141"><ele>6.0</ele><time>2026-03-22T10:03:37.313Z</time></trkpt><trkpt lat="45.0729681" lon="11.2610052"><ele>6.0</ele><time>2026-03-22T10:03:38.319Z</time></trkpt><trkpt lat="45.0730408" lon="11.2607055"><ele>6.0</ele><time>2026-03-22T10:03:39.315Z</time></trkpt><trkpt lat="45.0731082" lon="11.2604134"><ele>6.0</ele><time>2026-03-22T10:03:40.321Z</time></trkpt><trkpt lat="45.0731785" lon="11.2601126"><ele>6.0</ele><time>2026-03-22T10:03:41.314Z</time></trkpt><trkpt lat="45.0732424" lon="11.2597971"><ele>6.0</ele><time>2026-03-22T10:03:42.312Z</time></trkpt><trkpt lat="45.0732975" lon="11.2594783"><ele>6.0</ele><time>2026-03-22T10:03:43.314Z</time></trkpt><trkpt lat="45.0733499" lon="11.2591559"><ele>6.0</ele><time>2026-03-22T10:03:44.315Z</time></trkpt><trkpt lat="45.073394" lon="11.2588333"><ele>6.5</ele><time>2026-03-22T10:03:45.323Z</time></trkpt><trkpt lat="45.0734213" lon="11.258499"><ele>7.0</ele><time>2026-03-22T10:03:46.311Z</time></trkpt><trkpt lat="45.0734454" lon="11.2581527"><ele>7.5</ele><time>2026-03-22T10:03:47.32Z</time></trkpt><trkpt lat="45.0734611" lon="11.2578022"><ele>8.0</ele><time>2026-03-22T10:03:48.32Z</time></trkpt><trkpt lat="45.0734784" lon="11.2574437"><ele>8.0</ele><time>2026-03-22T10:03:49.324Z</time></trkpt><trkpt lat="45.0734929" lon="11.2570822"><ele>8.0</ele><time>2026-03-22T10:03:50.322Z</time></trkpt><trkpt lat="45.0735073" lon="11.2567197"><ele>7.0</ele><time>2026-03-22T10:03:51.315Z</time></trkpt><trkpt lat="45.0735279" lon="11.2563563"><ele>6.0</ele><time>2026-03-22T10:03:52.313Z</time></trkpt><trkpt lat="45.0735457" lon="11.2559899"><ele>6.0</ele><time>2026-03-22T10:03:53.323Z</time></trkpt><trkpt lat="45.0735657" lon="11.255625"><ele>6.0</ele><time>2026-03-22T10:03:54.317Z</time></trkpt><trkpt lat="45.073588" lon="11.2552524"><ele>7.5</ele><time>2026-03-22T10:03:55.316Z</time></trkpt><trkpt lat="45.0736085" lon="11.2548882"><ele>9.0</ele><time>2026-03-22T10:03:56.318Z</time></trkpt><trkpt lat="45.0736318" lon="11.2545157"><ele>9.0</ele><time>2026-03-22T10:03:57.317Z</time></trkpt><trkpt lat="45.0736536" lon="11.25415"><ele>9.0</ele><time>2026-03-22T10:03:58.328Z</time></trkpt><trkpt lat="45.0736713" lon="11.2537864"><ele>8.0</ele><time>2026-03-22T10:03:59.32Z</time></trkpt><trkpt lat="45.0736903" lon="11.2534194"><ele>7.0</ele><time>2026-03-22T10:04:00.323Z</time></trkpt><trkpt lat="45.0737117" lon="11.2530656"><ele>7.0</ele><time>2026-03-22T10:04:01.317Z</time></trkpt><trkpt lat="45.0737306" lon="11.2527267"><ele>7.0</ele><time>2026-03-22T10:04:02.326Z</time></trkpt><trkpt lat="45.0737404" lon="11.2524047"><ele>7.333333333333334</ele><time>2026-03-22T10:04:03.317Z</time></trkpt><trkpt lat="45.0737588" lon="11.2521012"><ele>7.666666666666666</ele><time>2026-03-22T10:04:04.327Z</time></trkpt><trkpt lat="45.073777" lon="11.2518009"><ele>8.0</ele><time>2026-03-22T10:04:05.316Z</time></trkpt><trkpt lat="45.0737943" lon="11.2515067"><ele>8.666666666666666</ele><time>2026-03-22T10:04:06.318Z</time></trkpt><trkpt lat="45.0738122" lon="11.2512132"><ele>9.333333333333334</ele><time>2026-03-22T10:04:07.313Z</time></trkpt><trkpt lat="45.0738273" lon="11.2509301"><ele>10.0</ele><time>2026-03-22T10:04:08.313Z</time></trkpt><trkpt lat="45.0738463" lon="11.2506485"><ele>9.333333333333334</ele><time>2026-03-22T10:04:09.317Z</time></trkpt><trkpt lat="45.0738608" lon="11.2503664"><ele>8.666666666666666</ele><time>2026-03-22T10:04:10.314Z</time></trkpt><trkpt lat="45.0738712" lon="11.2500896"><ele>8.0</ele><time>2026-03-22T10:04:11.319Z</time></trkpt><trkpt lat="45.0738814" lon="11.2498123"><ele>8.0</ele><time>2026-03-22T10:04:12.314Z</time></trkpt><trkpt lat="45.0739" lon="11.2495388"><ele>8.0</ele><time>2026-03-22T10:04:13.314Z</time></trkpt><trkpt lat="45.0739191" lon="11.2492518"><ele>8.0</ele><time>2026-03-22T10:04:14.314Z</time></trkpt><trkpt lat="45.0739335" lon="11.2489533"><ele>8.0</ele><time>2026-03-22T10:04:15.321Z</time></trkpt><trkpt lat="45.0739512" lon="11.2486567"><ele>8.0</ele><time>2026-03-22T10:04:16.32Z</time></trkpt><trkpt lat="45.0739623" lon="11.2483504"><ele>8.0</ele><time>2026-03-22T10:04:17.315Z</time></trkpt><trkpt lat="45.0739775" lon="11.2480342"><ele>8.0</ele><time>2026-03-22T10:04:18.321Z</time></trkpt><trkpt lat="45.073993" lon="11.247716"><ele>8.0</ele><time>2026-03-22T10:04:19.318Z</time></trkpt><trkpt lat="45.0740111" lon="11.2474007"><ele>8.0</ele><time>2026-03-22T10:04:20.321Z</time></trkpt><trkpt lat="45.0740309" lon="11.2470753"><ele>8.0</ele><time>2026-03-22T10:04:21.317Z</time></trkpt><trkpt lat="45.0740456" lon="11.2467458"><ele>8.0</ele><time>2026-03-22T10:04:22.317Z</time></trkpt><trkpt lat="45.0740622" lon="11.2464116"><ele>8.5</ele><time>2026-03-22T10:04:23.319Z</time></trkpt><trkpt lat="45.0740805" lon="11.2460743"><ele>9.0</ele><time>2026-03-22T10:04:24.317Z</time></trkpt><trkpt lat="45.0741009" lon="11.2457421"><ele>9.0</ele><time>2026-03-22T10:04:25.32Z</time></trkpt><trkpt lat="45.0741195" lon="11.2454071"><ele>9.0</ele><time>2026-03-22T10:04:26.315Z</time></trkpt><trkpt lat="45.0741393" lon="11.2450849"><ele>8.333333333333334</ele><time>2026-03-22T10:04:27.324Z</time></trkpt><trkpt lat="45.0741595" lon="11.2447814"><ele>7.666666666666667</ele><time>2026-03-22T10:04:28.312Z</time></trkpt><trkpt lat="45.0741741" lon="11.2444909"><ele>7.0</ele><time>2026-03-22T10:04:29.319Z</time></trkpt><trkpt lat="45.0741897" lon="11.244225"><ele>7.0</ele><time>2026-03-22T10:04:30.317Z</time></trkpt><trkpt lat="45.0742046" lon="11.2439687"><ele>7.0</ele><time>2026-03-22T10:04:31.326Z</time></trkpt><trkpt lat="45.0742142" lon="11.2437245"><ele>7.0</ele><time>2026-03-22T10:04:32.323Z</time></trkpt><trkpt lat="45.0742232" lon="11.2434961"><ele>7.5</ele><time>2026-03-22T10:04:33.327Z</time></trkpt><trkpt lat="45.0742313" lon="11.2432838"><ele>8.0</ele><time>2026-03-22T10:04:34.317Z</time></trkpt><trkpt lat="45.0742411" lon="11.243078"><ele>8.5</ele><time>2026-03-22T10:04:35.314Z</time></trkpt><trkpt lat="45.0742546" lon="11.2428651"><ele>9.0</ele><time>2026-03-22T10:04:36.321Z</time></trkpt><trkpt lat="45.0742647" lon="11.2426437"><ele>9.0</ele><time>2026-03-22T10:04:37.319Z</time></trkpt><trkpt lat="45.0742736" lon="11.2424181"><ele>9.0</ele><time>2026-03-22T10:04:38.317Z</time></trkpt><trkpt lat="45.0742868" lon="11.2421805"><ele>9.0</ele><time>2026-03-22T10:04:39.316Z</time></trkpt><trkpt lat="45.0742997" lon="11.2419364"><ele>9.0</ele><time>2026-03-22T10:04:40.31Z</time></trkpt><trkpt lat="45.074317" lon="11.2416896"><ele>9.0</ele><time>2026-03-22T10:04:41.318Z</time></trkpt><trkpt lat="45.0743268" lon="11.2414339"><ele>9.0</ele><time>2026-03-22T10:04:42.311Z</time></trkpt><trkpt lat="45.0743333" lon="11.2411731"><ele>8.333333333333334</ele><time>2026-03-22T10:04:43.32Z</time></trkpt><trkpt lat="45.0743487" lon="11.2409056"><ele>7.666666666666667</ele><time>2026-03-22T10:04:44.302Z</time></trkpt><trkpt lat="45.0743672" lon="11.2406243"><ele>7.0</ele><time>2026-03-22T10:04:45.296Z</time></trkpt><trkpt lat="45.0743816" lon="11.2403317"><ele>6.666666666666667</ele><time>2026-03-22T10:04:46.297Z</time></trkpt><trkpt lat="45.0743969" lon="11.2400373"><ele>6.333333333333334</ele><time>2026-03-22T10:04:47.307Z</time></trkpt><trkpt lat="45.0744172" lon="11.2397247"><ele>6.0</ele><time>2026-03-22T10:04:48.307Z</time></trkpt><trkpt lat="45.0744338" lon="11.2393957"><ele>7.0</ele><time>2026-03-22T10:04:49.302Z</time></trkpt><trkpt lat="45.0744534" lon="11.2390604"><ele>8.0</ele><time>2026-03-22T10:04:50.298Z</time></trkpt><trkpt lat="45.0744742" lon="11.2387168"><ele>8.0</ele><time>2026-03-22T10:04:51.298Z</time></trkpt><trkpt lat="45.074495" lon="11.2383734"><ele>8.0</ele><time>2026-03-22T10:04:52.294Z</time></trkpt><trkpt lat="45.074509" lon="11.2380161"><ele>8.5</ele><time>2026-03-22T10:04:53.299Z</time></trkpt><trkpt lat="45.0745246" lon="11.2376515"><ele>9.0</ele><time>2026-03-22T10:04:54.301Z</time></trkpt><trkpt lat="45.0745443" lon="11.2372881"><ele>9.0</ele><time>2026-03-22T10:04:55.302Z</time></trkpt><trkpt lat="45.0745668" lon="11.2369121"><ele>9.0</ele><time>2026-03-22T10:04:56.298Z</time></trkpt><trkpt lat="45.074587" lon="11.2365425"><ele>9.0</ele><time>2026-03-22T10:04:57.299Z</time></trkpt><trkpt lat="45.0746099" lon="11.2361747"><ele>9.0</ele><time>2026-03-22T10:04:58.299Z</time></trkpt><trkpt lat="45.0746282" lon="11.2357996"><ele>9.0</ele><time>2026-03-22T10:04:59.31Z</time></trkpt><trkpt lat="45.0746495" lon="11.2354271"><ele>9.0</ele><time>2026-03-22T10:05:00.303Z</time></trkpt><trkpt lat="45.0746685" lon="11.2350592"><ele>9.0</ele><time>2026-03-22T10:05:01.306Z</time></trkpt><trkpt lat="45.0746877" lon="11.2346914"><ele>9.0</ele><time>2026-03-22T10:05:02.313Z</time></trkpt><trkpt lat="45.0747039" lon="11.2343237"><ele>9.5</ele><time>2026-03-22T10:05:03.307Z</time></trkpt><trkpt lat="45.0747178" lon="11.2339459"><ele>10.0</ele><time>2026-03-22T10:05:04.294Z</time></trkpt><trkpt lat="45.0747284" lon="11.2335716"><ele>10.0</ele><time>2026-03-22T10:05:05.308Z</time></trkpt><trkpt lat="45.0747228" lon="11.2331973"><ele>10.0</ele><time>2026-03-22T10:05:06.301Z</time></trkpt><trkpt lat="45.0747079" lon="11.2328249"><ele>9.5</ele><time>2026-03-22T10:05:07.312Z</time></trkpt><trkpt lat="45.0746917" lon="11.23245"><ele>9.0</ele><time>2026-03-22T10:05:08.304Z</time></trkpt><trkpt lat="45.0746711" lon="11.2320704"><ele>9.0</ele><time>2026-03-22T10:05:09.311Z</time></trkpt><trkpt lat="45.0746488" lon="11.2316977"><ele>9.0</ele><time>2026-03-22T10:05:10.307Z</time></trkpt><trkpt lat="45.0746287" lon="11.2313247"><ele>9.0</ele><time>2026-03-22T10:05:11.299Z</time></trkpt><trkpt lat="45.0746119" lon="11.2309466"><ele>9.0</ele><time>2026-03-22T10:05:12.299Z</time></trkpt><trkpt lat="45.074593" lon="11.2305646"><ele>9.0</ele><time>2026-03-22T10:05:13.298Z</time></trkpt><trkpt lat="45.0745734" lon="11.230179"><ele>9.0</ele><time>2026-03-22T10:05:14.301Z</time></trkpt><trkpt lat="45.0745516" lon="11.2297982"><ele>8.5</ele><time>2026-03-22T10:05:15.3Z</time></trkpt><trkpt lat="45.0745327" lon="11.2294146"><ele>8.0</ele><time>2026-03-22T10:05:16.3Z</time></trkpt><trkpt lat="45.0745135" lon="11.2290319"><ele>8.5</ele><time>2026-03-22T10:05:17.299Z</time></trkpt><trkpt lat="45.0744929" lon="11.2286566"><ele>9.0</ele><time>2026-03-22T10:05:18.305Z</time></trkpt><trkpt lat="45.0744748" lon="11.2282798"><ele>9.0</ele><time>2026-03-22T10:05:19.3Z</time></trkpt><trkpt lat="45.0744556" lon="11.2279129"><ele>9.0</ele><time>2026-03-22T10:05:20.309Z</time></trkpt><trkpt lat="45.0744462" lon="11.2275402"><ele>9.5</ele><time>2026-03-22T10:05:21.298Z</time></trkpt><trkpt lat="45.0744457" lon="11.227171"><ele>10.0</ele><time>2026-03-22T10:05:22.293Z</time></trkpt><trkpt lat="45.0744651" lon="11.2268087"><ele>9.5</ele><time>2026-03-22T10:05:23.297Z</time></trkpt><trkpt lat="45.0745026" lon="11.2264399"><ele>9.0</ele><time>2026-03-22T10:05:24.302Z</time></trkpt><trkpt lat="45.0745429" lon="11.2260801"><ele>9.0</ele><time>2026-03-22T10:05:25.294Z</time></trkpt><trkpt lat="45.0745882" lon="11.2257205"><ele>9.0</ele><time>2026-03-22T10:05:26.299Z</time></trkpt><trkpt lat="45.0746254" lon="11.2253596"><ele>9.0</ele><time>2026-03-22T10:05:27.299Z</time></trkpt><trkpt lat="45.074668" lon="11.2250059"><ele>9.0</ele><time>2026-03-22T10:05:28.296Z</time></trkpt><trkpt lat="45.0747026" lon="11.2246458"><ele>9.0</ele><time>2026-03-22T10:05:29.301Z</time></trkpt><trkpt lat="45.0747387" lon="11.2242922"><ele>9.0</ele><time>2026-03-22T10:05:30.3Z</time></trkpt><trkpt lat="45.0747757" lon="11.2239358"><ele>9.0</ele><time>2026-03-22T10:05:31.301Z</time></trkpt><trkpt lat="45.0748059" lon="11.2235783"><ele>9.0</ele><time>2026-03-22T10:05:32.306Z</time></trkpt><trkpt lat="45.0748338" lon="11.2232136"><ele>9.5</ele><time>2026-03-22T10:05:33.298Z</time></trkpt><trkpt lat="45.074865" lon="11.2228548"><ele>10.0</ele><time>2026-03-22T10:05:34.296Z</time></trkpt><trkpt lat="45.0748993" lon="11.2224936"><ele>10.0</ele><time>2026-03-22T10:05:35.299Z</time></trkpt><trkpt lat="45.0749345" lon="11.2221374"><ele>10.0</ele><time>2026-03-22T10:05:36.304Z</time></trkpt><trkpt lat="45.0749739" lon="11.2217755"><ele>9.5</ele><time>2026-03-22T10:05:37.3Z</time></trkpt><trkpt lat="45.0750106" lon="11.2214175"><ele>9.0</ele><time>2026-03-22T10:05:38.304Z</time></trkpt><trkpt lat="45.0750477" lon="11.2210529"><ele>9.0</ele><time>2026-03-22T10:05:39.298Z</time></trkpt><trkpt lat="45.0750842" lon="11.220687"><ele>9.0</ele><time>2026-03-22T10:05:40.299Z</time></trkpt><trkpt lat="45.0751181" lon="11.220325"><ele>9.0</ele><time>2026-03-22T10:05:41.298Z</time></trkpt><trkpt lat="45.0751538" lon="11.2199602"><ele>9.0</ele><time>2026-03-22T10:05:42.299Z</time></trkpt><trkpt lat="45.0751936" lon="11.2195972"><ele>9.5</ele><time>2026-03-22T10:05:43.298Z</time></trkpt><trkpt lat="45.0752307" lon="11.219231"><ele>10.0</ele><time>2026-03-22T10:05:44.299Z</time></trkpt><trkpt lat="45.0752624" lon="11.2188693"><ele>10.0</ele><time>2026-03-22T10:05:45.302Z</time></trkpt><trkpt lat="45.0753022" lon="11.2185121"><ele>10.0</ele><time>2026-03-22T10:05:46.297Z</time></trkpt><trkpt lat="45.0753392" lon="11.2181527"><ele>10.0</ele><time>2026-03-22T10:05:47.3Z</time></trkpt><trkpt lat="45.0753779" lon="11.2177946"><ele>10.0</ele><time>2026-03-22T10:05:48.298Z</time></trkpt><trkpt lat="45.0754236" lon="11.2174507"><ele>10.0</ele><time>2026-03-22T10:05:49.303Z</time></trkpt><trkpt lat="45.0754696" lon="11.2171313"><ele>10.0</ele><time>2026-03-22T10:05:50.302Z</time></trkpt><trkpt lat="45.0755168" lon="11.2168515"><ele>10.0</ele><time>2026-03-22T10:05:51.303Z</time></trkpt><trkpt lat="45.0755617" lon="11.2166116"><ele>9.75</ele><time>2026-03-22T10:05:52.301Z</time></trkpt><trkpt lat="45.0756207" lon="11.2164156"><ele>9.5</ele><time>2026-03-22T10:05:53.302Z</time></trkpt><trkpt lat="45.0756712" lon="11.2162265"><ele>9.25</ele><time>2026-03-22T10:05:54.302Z</time></trkpt><trkpt lat="45.075717" lon="11.2160814"><ele>9.0</ele><time>2026-03-22T10:05:55.298Z</time></trkpt><trkpt lat="45.0757591" lon="11.2159639"><ele>9.0</ele><time>2026-03-22T10:05:56.288Z</time></trkpt><trkpt lat="45.0758139" lon="11.215858"><ele>9.0</ele><time>2026-03-22T10:05:57.293Z</time></trkpt><trkpt lat="45.0758701" lon="11.2157657"><ele>9.0</ele><time>2026-03-22T10:05:58.295Z</time></trkpt><trkpt lat="45.0759324" lon="11.2157002"><ele>9.0</ele><time>2026-03-22T10:05:59.29Z</time></trkpt><trkpt lat="45.0760019" lon="11.2156469"><ele>9.0</ele><time>2026-03-22T10:06:00.29Z</time></trkpt><trkpt lat="45.0760823" lon="11.2156057"><ele>9.0</ele><time>2026-03-22T10:06:01.298Z</time></trkpt><trkpt lat="45.0761628" lon="11.2155799"><ele>9.0</ele><time>2026-03-22T10:06:02.297Z</time></trkpt><trkpt lat="45.0762499" lon="11.2155696"><ele>9.0</ele><time>2026-03-22T10:06:03.293Z</time></trkpt><trkpt lat="45.0763519" lon="11.2155731"><ele>9.0</ele><time>2026-03-22T10:06:04.29Z</time></trkpt><trkpt lat="45.0764622" lon="11.2155755"><ele>9.0</ele><time>2026-03-22T10:06:05.289Z</time></trkpt><trkpt lat="45.0765702" lon="11.2155788"><ele>9.0</ele><time>2026-03-22T10:06:06.294Z</time></trkpt><trkpt lat="45.0766747" lon="11.2155815"><ele>9.2</ele><time>2026-03-22T10:06:07.291Z</time></trkpt><trkpt lat="45.0767781" lon="11.2155812"><ele>9.4</ele><time>2026-03-22T10:06:08.293Z</time></trkpt><trkpt lat="45.0768842" lon="11.2155777"><ele>9.6</ele><time>2026-03-22T10:06:09.298Z</time></trkpt><trkpt lat="45.0769856" lon="11.2155782"><ele>9.8</ele><time>2026-03-22T10:06:10.3Z</time></trkpt><trkpt lat="45.0770803" lon="11.2155854"><ele>10.0</ele><time>2026-03-22T10:06:11.295Z</time></trkpt><trkpt lat="45.0771695" lon="11.2155881"><ele>10.0</ele><time>2026-03-22T10:06:12.293Z</time></trkpt><trkpt lat="45.0772405" lon="11.2155826"><ele>10.0</ele><time>2026-03-22T10:06:13.296Z</time></trkpt><trkpt lat="45.0773108" lon="11.2155707"><ele>10.0</ele><time>2026-03-22T10:06:14.297Z</time></trkpt><trkpt lat="45.0773986" lon="11.2155133"><ele>10.0</ele><time>2026-03-22T10:06:16.308Z</time></trkpt><trkpt lat="45.0773908" lon="11.2153527"><ele>10.0</ele><time>2026-03-22T10:06:18.299Z</time></trkpt><trkpt lat="45.0773637" lon="11.2152446"><ele>10.0</ele><time>2026-03-22T10:06:19.298Z</time></trkpt><trkpt lat="45.0773213" lon="11.215099"><ele>10.0</ele><time>2026-03-22T10:06:20.303Z</time></trkpt><trkpt lat="45.077275" lon="11.214913"><ele>10.0</ele><time>2026-03-22T10:06:21.294Z</time></trkpt><trkpt lat="45.07723" lon="11.2147216"><ele>10.0</ele><time>2026-03-22T10:06:22.295Z</time></trkpt><trkpt lat="45.0771941" lon="11.214533"><ele>10.0</ele><time>2026-03-22T10:06:23.296Z</time></trkpt><trkpt lat="45.0771799" lon="11.2143429"><ele>10.0</ele><time>2026-03-22T10:06:24.298Z</time></trkpt><trkpt lat="45.0771944" lon="11.2141554"><ele>10.0</ele><time>2026-03-22T10:06:25.3Z</time></trkpt><trkpt lat="45.0772323" lon="11.2139772"><ele>10.0</ele><time>2026-03-22T10:06:26.291Z</time></trkpt><trkpt lat="45.0772916" lon="11.2138235"><ele>10.0</ele><time>2026-03-22T10:06:27.302Z</time></trkpt><trkpt lat="45.077374" lon="11.213707"><ele>9.75</ele><time>2026-03-22T10:06:28.294Z</time></trkpt><trkpt lat="45.077486" lon="11.2136263"><ele>9.5</ele><time>2026-03-22T10:06:29.295Z</time></trkpt><trkpt lat="45.077625" lon="11.2135787"><ele>9.25</ele><time>2026-03-22T10:06:30.292Z</time></trkpt><trkpt lat="45.0777889" lon="11.2135385"><ele>9.0</ele><time>2026-03-22T10:06:31.296Z</time></trkpt><trkpt lat="45.0779779" lon="11.2135019"><ele>9.0</ele><time>2026-03-22T10:06:32.302Z</time></trkpt><trkpt lat="45.0781651" lon="11.2134576"><ele>9.0</ele><time>2026-03-22T10:06:33.295Z</time></trkpt><trkpt lat="45.0783483" lon="11.2134023"><ele>9.0</ele><time>2026-03-22T10:06:34.299Z</time></trkpt><trkpt lat="45.0785235" lon="11.2133495"><ele>9.0</ele><time>2026-03-22T10:06:35.296Z</time></trkpt><trkpt lat="45.0786972" lon="11.2132818"><ele>9.0</ele><time>2026-03-22T10:06:36.305Z</time></trkpt><trkpt lat="45.0788742" lon="11.2132062"><ele>9.0</ele><time>2026-03-22T10:06:37.296Z</time></trkpt><trkpt lat="45.0790575" lon="11.2131208"><ele>8.666666666666666</ele><time>2026-03-22T10:06:38.303Z</time></trkpt><trkpt lat="45.0792329" lon="11.2130236"><ele>8.333333333333332</ele><time>2026-03-22T10:06:39.296Z</time></trkpt><trkpt lat="45.0794017" lon="11.2129226"><ele>8.0</ele><time>2026-03-22T10:06:40.296Z</time></trkpt><trkpt lat="45.0795654" lon="11.2128053"><ele>8.0</ele><time>2026-03-22T10:06:41.296Z</time></trkpt><trkpt lat="45.079727" lon="11.2126921"><ele>8.0</ele><time>2026-03-22T10:06:42.297Z</time></trkpt><trkpt lat="45.0798862" lon="11.2126"><ele>8.0</ele><time>2026-03-22T10:06:43.293Z</time></trkpt><trkpt lat="45.0800491" lon="11.2125357"><ele>8.333333333333332</ele><time>2026-03-22T10:06:44.292Z</time></trkpt><trkpt lat="45.0802157" lon="11.2124882"><ele>8.666666666666666</ele><time>2026-03-22T10:06:45.296Z</time></trkpt><trkpt lat="45.0803896" lon="11.212448"><ele>9.0</ele><time>2026-03-22T10:06:46.301Z</time></trkpt><trkpt lat="45.0805618" lon="11.2123939"><ele>9.0</ele><time>2026-03-22T10:06:47.296Z</time></trkpt><trkpt lat="45.0807335" lon="11.2123213"><ele>9.0</ele><time>2026-03-22T10:06:48.303Z</time></trkpt><trkpt lat="45.0809061" lon="11.2122175"><ele>9.0</ele><time>2026-03-22T10:06:49.302Z</time></trkpt><trkpt lat="45.0810758" lon="11.2121037"><ele>8.666666666666666</ele><time>2026-03-22T10:06:50.296Z</time></trkpt><trkpt lat="45.0812341" lon="11.2119667"><ele>8.333333333333332</ele><time>2026-03-22T10:06:51.301Z</time></trkpt><trkpt lat="45.0813872" lon="11.2118117"><ele>8.0</ele><time>2026-03-22T10:06:52.298Z</time></trkpt><trkpt lat="45.0815346" lon="11.2116239"><ele>8.333333333333332</ele><time>2026-03-22T10:06:53.302Z</time></trkpt><trkpt lat="45.0816794" lon="11.2114212"><ele>8.666666666666666</ele><time>2026-03-22T10:06:54.301Z</time></trkpt><trkpt lat="45.0818209" lon="11.2112063"><ele>9.0</ele><time>2026-03-22T10:06:55.299Z</time></trkpt><trkpt lat="45.0819697" lon="11.2109996"><ele>9.0</ele><time>2026-03-22T10:06:56.298Z</time></trkpt><trkpt lat="45.0821272" lon="11.2107922"><ele>9.0</ele><time>2026-03-22T10:06:57.297Z</time></trkpt><trkpt lat="45.0822872" lon="11.2105879"><ele>9.0</ele><time>2026-03-22T10:06:58.3Z</time></trkpt><trkpt lat="45.0824446" lon="11.2103917"><ele>9.0</ele><time>2026-03-22T10:06:59.301Z</time></trkpt><trkpt lat="45.0825899" lon="11.2101923"><ele>9.0</ele><time>2026-03-22T10:07:00.306Z</time></trkpt><trkpt lat="45.0827337" lon="11.209983"><ele>9.0</ele><time>2026-03-22T10:07:01.307Z</time></trkpt><trkpt lat="45.0828807" lon="11.2097644"><ele>9.5</ele><time>2026-03-22T10:07:02.31Z</time></trkpt><trkpt lat="45.0830283" lon="11.2095305"><ele>10.0</ele><time>2026-03-22T10:07:03.299Z</time></trkpt><trkpt lat="45.0831731" lon="11.2092747"><ele>9.5</ele><time>2026-03-22T10:07:04.301Z</time></trkpt><trkpt lat="45.0833145" lon="11.2090234"><ele>9.0</ele><time>2026-03-22T10:07:05.297Z</time></trkpt><trkpt lat="45.0834482" lon="11.208771"><ele>9.0</ele><time>2026-03-22T10:07:06.298Z</time></trkpt><trkpt lat="45.0835775" lon="11.2085296"><ele>9.0</ele><time>2026-03-22T10:07:07.298Z</time></trkpt><trkpt lat="45.0837015" lon="11.2082774"><ele>9.0</ele><time>2026-03-22T10:07:08.298Z</time></trkpt><trkpt lat="45.0838193" lon="11.2080175"><ele>9.0</ele><time>2026-03-22T10:07:09.299Z</time></trkpt><trkpt lat="45.0839294" lon="11.2077511"><ele>9.0</ele><time>2026-03-22T10:07:10.305Z</time></trkpt><trkpt lat="45.0840402" lon="11.2074792"><ele>9.0</ele><time>2026-03-22T10:07:11.296Z</time></trkpt><trkpt lat="45.0841592" lon="11.2072171"><ele>8.666666666666666</ele><time>2026-03-22T10:07:12.299Z</time></trkpt><trkpt lat="45.084282" lon="11.2069809"><ele>8.333333333333332</ele><time>2026-03-22T10:07:13.29Z</time></trkpt><trkpt lat="45.08442" lon="11.2067655"><ele>8.0</ele><time>2026-03-22T10:07:14.292Z</time></trkpt><trkpt lat="45.0845633" lon="11.2065587"><ele>7.666666666666666</ele><time>2026-03-22T10:07:15.298Z</time></trkpt><trkpt lat="45.0847136" lon="11.2063425"><ele>7.333333333333334</ele><time>2026-03-22T10:07:16.301Z</time></trkpt><trkpt lat="45.0848629" lon="11.2061283"><ele>7.0</ele><time>2026-03-22T10:07:17.303Z</time></trkpt><trkpt lat="45.0850099" lon="11.2059117"><ele>7.0</ele><time>2026-03-22T10:07:18.31Z</time></trkpt><trkpt lat="45.0851487" lon="11.205694"><ele>7.0</ele><time>2026-03-22T10:07:19.305Z</time></trkpt><trkpt lat="45.0852856" lon="11.205458"><ele>7.0</ele><time>2026-03-22T10:07:20.299Z</time></trkpt><trkpt lat="45.0854133" lon="11.2052084"><ele>7.0</ele><time>2026-03-22T10:07:21.297Z</time></trkpt><trkpt lat="45.0855305" lon="11.2049439"><ele>7.0</ele><time>2026-03-22T10:07:22.304Z</time></trkpt><trkpt lat="45.085638" lon="11.2046696"><ele>7.0</ele><time>2026-03-22T10:07:23.301Z</time></trkpt><trkpt lat="45.0857462" lon="11.2043952"><ele>7.333333333333334</ele><time>2026-03-22T10:07:24.299Z</time></trkpt><trkpt lat="45.0858603" lon="11.2041187"><ele>7.666666666666666</ele><time>2026-03-22T10:07:25.296Z</time></trkpt><trkpt lat="45.0859793" lon="11.2038607"><ele>8.0</ele><time>2026-03-22T10:07:26.3Z</time></trkpt><trkpt lat="45.0860937" lon="11.2036252"><ele>8.333333333333332</ele><time>2026-03-22T10:07:27.298Z</time></trkpt><trkpt lat="45.0862153" lon="11.2034146"><ele>8.666666666666666</ele><time>2026-03-22T10:07:28.293Z</time></trkpt><trkpt lat="45.0863495" lon="11.2032162"><ele>9.0</ele><time>2026-03-22T10:07:29.295Z</time></trkpt><trkpt lat="45.0864807" lon="11.2030066"><ele>8.333333333333334</ele><time>2026-03-22T10:07:30.302Z</time></trkpt><trkpt lat="45.0865937" lon="11.2028068"><ele>7.666666666666667</ele><time>2026-03-22T10:07:31.306Z</time></trkpt><trkpt lat="45.0866856" lon="11.2025969"><ele>7.0</ele><time>2026-03-22T10:07:32.306Z</time></trkpt><trkpt lat="45.0867475" lon="11.2023833"><ele>7.333333333333334</ele><time>2026-03-22T10:07:33.302Z</time></trkpt><trkpt lat="45.0867741" lon="11.202159"><ele>7.666666666666666</ele><time>2026-03-22T10:07:34.299Z</time></trkpt><trkpt lat="45.0867778" lon="11.2019182"><ele>8.0</ele><time>2026-03-22T10:07:35.297Z</time></trkpt><trkpt lat="45.0867932" lon="11.2016804"><ele>8.0</ele><time>2026-03-22T10:07:36.3Z</time></trkpt><trkpt lat="45.0868198" lon="11.2014429"><ele>8.0</ele><time>2026-03-22T10:07:37.295Z</time></trkpt><trkpt lat="45.0868517" lon="11.2012016"><ele>8.0</ele><time>2026-03-22T10:07:38.297Z</time></trkpt><trkpt lat="45.086886" lon="11.2009439"><ele>8.0</ele><time>2026-03-22T10:07:39.3Z</time></trkpt><trkpt lat="45.0869203" lon="11.2006858"><ele>8.0</ele><time>2026-03-22T10:07:40.302Z</time></trkpt><trkpt lat="45.0869496" lon="11.2004199"><ele>8.0</ele><time>2026-03-22T10:07:41.303Z</time></trkpt><trkpt lat="45.0869805" lon="11.2001506"><ele>8.0</ele><time>2026-03-22T10:07:42.3Z</time></trkpt><trkpt lat="45.0870098" lon="11.1998795"><ele>8.0</ele><time>2026-03-22T10:07:43.298Z</time></trkpt><trkpt lat="45.0870303" lon="11.1996112"><ele>8.0</ele><time>2026-03-22T10:07:44.297Z</time></trkpt><trkpt lat="45.0870537" lon="11.1993437"><ele>8.333333333333332</ele><time>2026-03-22T10:07:45.308Z</time></trkpt><trkpt lat="45.0870729" lon="11.1990729"><ele>8.666666666666666</ele><time>2026-03-22T10:07:46.299Z</time></trkpt><trkpt lat="45.0870948" lon="11.1988017"><ele>9.0</ele><time>2026-03-22T10:07:47.3Z</time></trkpt><trkpt lat="45.0871107" lon="11.1985216"><ele>9.0</ele><time>2026-03-22T10:07:48.307Z</time></trkpt><trkpt lat="45.0871312" lon="11.1982428"><ele>9.0</ele><time>2026-03-22T10:07:49.303Z</time></trkpt><trkpt lat="45.0871432" lon="11.1979599"><ele>9.0</ele><time>2026-03-22T10:07:50.302Z</time></trkpt><trkpt lat="45.0871505" lon="11.1976692"><ele>8.666666666666666</ele><time>2026-03-22T10:07:51.306Z</time></trkpt><trkpt lat="45.0871555" lon="11.1973784"><ele>8.333333333333332</ele><time>2026-03-22T10:07:52.298Z</time></trkpt><trkpt lat="45.0871723" lon="11.1970854"><ele>8.0</ele><time>2026-03-22T10:07:53.306Z</time></trkpt><trkpt lat="45.0871984" lon="11.1967898"><ele>8.333333333333332</ele><time>2026-03-22T10:07:54.298Z</time></trkpt><trkpt lat="45.0872437" lon="11.1964966"><ele>8.666666666666666</ele><time>2026-03-22T10:07:55.296Z</time></trkpt><trkpt lat="45.0873182" lon="11.1962022"><ele>9.0</ele><time>2026-03-22T10:07:56.297Z</time></trkpt><trkpt lat="45.0874056" lon="11.1959243"><ele>9.333333333333334</ele><time>2026-03-22T10:07:57.301Z</time></trkpt><trkpt lat="45.0874947" lon="11.1956386"><ele>9.666666666666668</ele><time>2026-03-22T10:07:58.298Z</time></trkpt><trkpt lat="45.0875751" lon="11.1953494"><ele>10.0</ele><time>2026-03-22T10:07:59.298Z</time></trkpt><trkpt lat="45.087628" lon="11.1950614"><ele>10.333333333333334</ele><time>2026-03-22T10:08:00.295Z</time></trkpt><trkpt lat="45.0876642" lon="11.1947679"><ele>10.666666666666666</ele><time>2026-03-22T10:08:01.3Z</time></trkpt><trkpt lat="45.0876965" lon="11.1944659"><ele>11.0</ele><time>2026-03-22T10:08:02.305Z</time></trkpt><trkpt lat="45.0877215" lon="11.1941568"><ele>11.0</ele><time>2026-03-22T10:08:03.298Z</time></trkpt><trkpt lat="45.0877383" lon="11.1938537"><ele>11.0</ele><time>2026-03-22T10:08:04.301Z</time></trkpt><trkpt lat="45.0877575" lon="11.1935725"><ele>11.0</ele><time>2026-03-22T10:08:05.301Z</time></trkpt><trkpt lat="45.0877757" lon="11.1933106"><ele>11.0</ele><time>2026-03-22T10:08:06.301Z</time></trkpt><trkpt lat="45.087795" lon="11.1930889"><ele>11.0</ele><time>2026-03-22T10:08:07.3Z</time></trkpt><trkpt lat="45.0878236" lon="11.1928814"><ele>11.0</ele><time>2026-03-22T10:08:08.29Z</time></trkpt><trkpt lat="45.0878508" lon="11.1926937"><ele>11.0</ele><time>2026-03-22T10:08:09.29Z</time></trkpt><trkpt lat="45.0878911" lon="11.1925271"><ele>11.0</ele><time>2026-03-22T10:08:10.299Z</time></trkpt><trkpt lat="45.0879352" lon="11.1923571"><ele>11.0</ele><time>2026-03-22T10:08:11.288Z</time></trkpt><trkpt lat="45.0879685" lon="11.19217"><ele>11.0</ele><time>2026-03-22T10:08:12.288Z</time></trkpt><trkpt lat="45.0879864" lon="11.1919616"><ele>11.0</ele><time>2026-03-22T10:08:13.295Z</time></trkpt><trkpt lat="45.0879874" lon="11.1917359"><ele>10.0</ele><time>2026-03-22T10:08:14.296Z</time></trkpt><trkpt lat="45.0879723" lon="11.1914868"><ele>9.0</ele><time>2026-03-22T10:08:15.294Z</time></trkpt><trkpt lat="45.0879608" lon="11.1912349"><ele>8.0</ele><time>2026-03-22T10:08:16.291Z</time></trkpt><trkpt lat="45.0879859" lon="11.1909787"><ele>8.0</ele><time>2026-03-22T10:08:17.293Z</time></trkpt><trkpt lat="45.0880175" lon="11.1907184"><ele>8.0</ele><time>2026-03-22T10:08:18.296Z</time></trkpt><trkpt lat="45.0880342" lon="11.1904363"><ele>8.0</ele><time>2026-03-22T10:08:19.293Z</time></trkpt><trkpt lat="45.0880274" lon="11.190138"><ele>8.666666666666666</ele><time>2026-03-22T10:08:20.31Z</time></trkpt><trkpt lat="45.08801" lon="11.1898457"><ele>9.333333333333334</ele><time>2026-03-22T10:08:21.303Z</time></trkpt><trkpt lat="45.0879964" lon="11.1895762"><ele>10.0</ele><time>2026-03-22T10:08:22.301Z</time></trkpt><trkpt lat="45.0879792" lon="11.1893227"><ele>10.25</ele><time>2026-03-22T10:08:23.305Z</time></trkpt><trkpt lat="45.0879712" lon="11.1890889"><ele>10.5</ele><time>2026-03-22T10:08:24.31Z</time></trkpt><trkpt lat="45.0879564" lon="11.1888906"><ele>10.75</ele><time>2026-03-22T10:08:25.308Z</time></trkpt><trkpt lat="45.0879434" lon="11.1887289"><ele>11.0</ele><time>2026-03-22T10:08:26.302Z</time></trkpt><trkpt lat="45.0879309" lon="11.1885895"><ele>11.0</ele><time>2026-03-22T10:08:27.304Z</time></trkpt><trkpt lat="45.0878993" lon="11.188452"><ele>11.0</ele><time>2026-03-22T10:08:28.304Z</time></trkpt><trkpt lat="45.0878418" lon="11.1883469"><ele>11.0</ele><time>2026-03-22T10:08:29.308Z</time></trkpt><trkpt lat="45.0877464" lon="11.1882683"><ele>11.0</ele><time>2026-03-22T10:08:30.308Z</time></trkpt><trkpt lat="45.0876445" lon="11.1882456"><ele>11.0</ele><time>2026-03-22T10:08:31.293Z</time></trkpt><trkpt lat="45.0875366" lon="11.1882416"><ele>10.75</ele><time>2026-03-22T10:08:32.296Z</time></trkpt><trkpt lat="45.0874143" lon="11.1882408"><ele>10.5</ele><time>2026-03-22T10:08:33.296Z</time></trkpt><trkpt lat="45.0872863" lon="11.1882337"><ele>10.25</ele><time>2026-03-22T10:08:34.299Z</time></trkpt><trkpt lat="45.0871562" lon="11.1882254"><ele>10.0</ele><time>2026-03-22T10:08:35.304Z</time></trkpt><trkpt lat="45.0870206" lon="11.1882178"><ele>10.0</ele><time>2026-03-22T10:08:36.308Z</time></trkpt><trkpt lat="45.0868771" lon="11.1882105"><ele>10.0</ele><time>2026-03-22T10:08:37.301Z</time></trkpt><trkpt lat="45.0867296" lon="11.1882163"><ele>10.0</ele><time>2026-03-22T10:08:38.303Z</time></trkpt><trkpt lat="45.0865829" lon="11.1882128"><ele>10.0</ele><time>2026-03-22T10:08:39.303Z</time></trkpt><trkpt lat="45.0864475" lon="11.1882196"><ele>10.0</ele><time>2026-03-22T10:08:40.305Z</time></trkpt><trkpt lat="45.0863164" lon="11.1882272"><ele>10.0</ele><time>2026-03-22T10:08:41.301Z</time></trkpt><trkpt lat="45.0862076" lon="11.1882362"><ele>10.0</ele><time>2026-03-22T10:08:42.3Z</time></trkpt><trkpt lat="45.0861243" lon="11.1882304"><ele>10.0</ele><time>2026-03-22T10:08:43.296Z</time></trkpt><trkpt lat="45.0860545" lon="11.1882004"><ele>10.0</ele><time>2026-03-22T10:08:44.297Z</time></trkpt><trkpt lat="45.0860067" lon="11.1881312"><ele>10.0</ele><time>2026-03-22T10:08:45.303Z</time></trkpt><trkpt lat="45.0859958" lon="11.1880347"><ele>10.0</ele><time>2026-03-22T10:08:46.291Z</time></trkpt><trkpt lat="45.0860105" lon="11.1879223"><ele>10.0</ele><time>2026-03-22T10:08:47.294Z</time></trkpt><trkpt lat="45.0860406" lon="11.1878014"><ele>10.0</ele><time>2026-03-22T10:08:48.302Z</time></trkpt><trkpt lat="45.0860912" lon="11.1876488"><ele>10.0</ele><time>2026-03-22T10:08:49.296Z</time></trkpt><trkpt lat="45.0861448" lon="11.1874725"><ele>10.333333333333334</ele><time>2026-03-22T10:08:50.304Z</time></trkpt><trkpt lat="45.0862058" lon="11.187275"><ele>10.666666666666666</ele><time>2026-03-22T10:08:51.294Z</time></trkpt><trkpt lat="45.0862698" lon="11.1870589"><ele>11.0</ele><time>2026-03-22T10:08:52.288Z</time></trkpt><trkpt lat="45.0863451" lon="11.1868115"><ele>11.0</ele><time>2026-03-22T10:08:53.284Z</time></trkpt><trkpt lat="45.0864344" lon="11.1865477"><ele>11.0</ele><time>2026-03-22T10:08:54.305Z</time></trkpt><trkpt lat="45.0865221" lon="11.1863058"><ele>11.0</ele><time>2026-03-22T10:08:55.297Z</time></trkpt><trkpt lat="45.0866019" lon="11.1860824"><ele>11.0</ele><time>2026-03-22T10:08:56.296Z</time></trkpt><trkpt lat="45.0866837" lon="11.1858549"><ele>11.0</ele><time>2026-03-22T10:08:57.303Z</time></trkpt><trkpt lat="45.0867597" lon="11.1856215"><ele>11.0</ele><time>2026-03-22T10:08:58.305Z</time></trkpt><trkpt lat="45.0868402" lon="11.1853698"><ele>11.0</ele><time>2026-03-22T10:08:59.312Z</time></trkpt><trkpt lat="45.0869112" lon="11.185108"><ele>11.0</ele><time>2026-03-22T10:09:00.312Z</time></trkpt><trkpt lat="45.0869902" lon="11.1848418"><ele>11.0</ele><time>2026-03-22T10:09:01.309Z</time></trkpt><trkpt lat="45.0870716" lon="11.1845872"><ele>10.666666666666666</ele><time>2026-03-22T10:09:02.316Z</time></trkpt><trkpt lat="45.0871489" lon="11.1843517"><ele>10.333333333333334</ele><time>2026-03-22T10:09:03.306Z</time></trkpt><trkpt lat="45.0872227" lon="11.1841083"><ele>10.0</ele><time>2026-03-22T10:09:04.312Z</time></trkpt><trkpt lat="45.0873019" lon="11.1838667"><ele>10.0</ele><time>2026-03-22T10:09:05.306Z</time></trkpt><trkpt lat="45.0873704" lon="11.1836153"><ele>10.0</ele><time>2026-03-22T10:09:06.308Z</time></trkpt><trkpt lat="45.0874355" lon="11.1833658"><ele>10.0</ele><time>2026-03-22T10:09:07.301Z</time></trkpt><trkpt lat="45.087488" lon="11.183102"><ele>9.666666666666668</ele><time>2026-03-22T10:09:08.3Z</time></trkpt><trkpt lat="45.0875314" lon="11.1828179"><ele>9.333333333333334</ele><time>2026-03-22T10:09:09.304Z</time></trkpt><trkpt lat="45.087566" lon="11.1825223"><ele>9.0</ele><time>2026-03-22T10:09:10.306Z</time></trkpt><trkpt lat="45.0876035" lon="11.1822359"><ele>9.0</ele><time>2026-03-22T10:09:11.309Z</time></trkpt><trkpt lat="45.0876488" lon="11.1819708"><ele>9.0</ele><time>2026-03-22T10:09:12.308Z</time></trkpt><trkpt lat="45.0876986" lon="11.1817279"><ele>9.0</ele><time>2026-03-22T10:09:13.307Z</time></trkpt><trkpt lat="45.087748" lon="11.1815116"><ele>9.5</ele><time>2026-03-22T10:09:14.305Z</time></trkpt><trkpt lat="45.0877569" lon="11.1813093"><ele>10.0</ele><time>2026-03-22T10:09:15.31Z</time></trkpt><trkpt lat="45.0877171" lon="11.1811231"><ele>10.5</ele><time>2026-03-22T10:09:16.309Z</time></trkpt><trkpt lat="45.0876499" lon="11.1809485"><ele>11.0</ele><time>2026-03-22T10:09:17.31Z</time></trkpt><trkpt lat="45.0875771" lon="11.1807707"><ele>10.5</ele><time>2026-03-22T10:09:18.31Z</time></trkpt><trkpt lat="45.087509" lon="11.1806012"><ele>10.0</ele><time>2026-03-22T10:09:19.318Z</time></trkpt><trkpt lat="45.0874432" lon="11.1804476"><ele>9.5</ele><time>2026-03-22T10:09:20.314Z</time></trkpt><trkpt lat="45.0873957" lon="11.1802998"><ele>9.0</ele><time>2026-03-22T10:09:21.309Z</time></trkpt><trkpt lat="45.0873516" lon="11.1801674"><ele>9.0</ele><time>2026-03-22T10:09:22.307Z</time></trkpt><trkpt lat="45.0873284" lon="11.1800596"><ele>9.0</ele><time>2026-03-22T10:09:23.311Z</time></trkpt><trkpt lat="45.0873046" lon="11.1799554"><ele>9.0</ele><time>2026-03-22T10:09:24.311Z</time></trkpt><trkpt lat="45.0872739" lon="11.1798656"><ele>9.0</ele><time>2026-03-22T10:09:25.32Z</time></trkpt><trkpt lat="45.0872238" lon="11.1797984"><ele>9.0</ele><time>2026-03-22T10:09:26.322Z</time></trkpt><trkpt lat="45.0871533" lon="11.1797558"><ele>9.0</ele><time>2026-03-22T10:09:27.318Z</time></trkpt><trkpt lat="45.0870687" lon="11.1797035"><ele>9.0</ele><time>2026-03-22T10:09:28.307Z</time></trkpt><trkpt lat="45.0869728" lon="11.1796446"><ele>9.0</ele><time>2026-03-22T10:09:29.3Z</time></trkpt><trkpt lat="45.0868622" lon="11.1795749"><ele>9.0</ele><time>2026-03-22T10:09:30.318Z</time></trkpt><trkpt lat="45.0867272" lon="11.1794931"><ele>9.0</ele><time>2026-03-22T10:09:31.3Z</time></trkpt><trkpt lat="45.0865883" lon="11.1794043"><ele>9.333333333333334</ele><time>2026-03-22T10:09:32.313Z</time></trkpt><trkpt lat="45.0864379" lon="11.1793079"><ele>9.666666666666668</ele><time>2026-03-22T10:09:33.312Z</time></trkpt><trkpt lat="45.0862757" lon="11.1792001"><ele>10.0</ele><time>2026-03-22T10:09:34.314Z</time></trkpt><trkpt lat="45.0861098" lon="11.179089"><ele>10.0</ele><time>2026-03-22T10:09:35.316Z</time></trkpt><trkpt lat="45.0859437" lon="11.1789743"><ele>10.0</ele><time>2026-03-22T10:09:36.312Z</time></trkpt><trkpt lat="45.0857814" lon="11.178862"><ele>10.0</ele><time>2026-03-22T10:09:37.307Z</time></trkpt><trkpt lat="45.0856164" lon="11.1787446"><ele>10.0</ele><time>2026-03-22T10:09:38.312Z</time></trkpt><trkpt lat="45.0854534" lon="11.1786119"><ele>10.0</ele><time>2026-03-22T10:09:39.307Z</time></trkpt><trkpt lat="45.0852961" lon="11.1784707"><ele>10.0</ele><time>2026-03-22T10:09:40.314Z</time></trkpt><trkpt lat="45.0851336" lon="11.1783202"><ele>10.0</ele><time>2026-03-22T10:09:41.304Z</time></trkpt><trkpt lat="45.0849745" lon="11.1781817"><ele>10.0</ele><time>2026-03-22T10:09:42.307Z</time></trkpt><trkpt lat="45.0848188" lon="11.1780502"><ele>10.0</ele><time>2026-03-22T10:09:43.305Z</time></trkpt><trkpt lat="45.0846712" lon="11.1779439"><ele>10.0</ele><time>2026-03-22T10:09:44.307Z</time></trkpt><trkpt lat="45.0845259" lon="11.1778345"><ele>10.0</ele><time>2026-03-22T10:09:45.302Z</time></trkpt><trkpt lat="45.0843879" lon="11.1777325"><ele>10.0</ele><time>2026-03-22T10:09:46.303Z</time></trkpt><trkpt lat="45.0842502" lon="11.177631"><ele>10.0</ele><time>2026-03-22T10:09:47.297Z</time></trkpt><trkpt lat="45.0841185" lon="11.1775374"><ele>10.0</ele><time>2026-03-22T10:09:48.308Z</time></trkpt><trkpt lat="45.0840032" lon="11.17744"><ele>10.0</ele><time>2026-03-22T10:09:49.305Z</time></trkpt><trkpt lat="45.0838851" lon="11.1773485"><ele>10.0</ele><time>2026-03-22T10:09:50.311Z</time></trkpt><trkpt lat="45.083773" lon="11.1772629"><ele>10.0</ele><time>2026-03-22T10:09:51.304Z</time></trkpt><trkpt lat="45.0836636" lon="11.1771727"><ele>10.0</ele><time>2026-03-22T10:09:52.309Z</time></trkpt><trkpt lat="45.083574" lon="11.1771129"><ele>10.0</ele><time>2026-03-22T10:09:53.293Z</time></trkpt><trkpt lat="45.0835043" lon="11.1770601"><ele>10.0</ele><time>2026-03-22T10:09:54.302Z</time></trkpt><trkpt lat="45.0834503" lon="11.1770048"><ele>10.0</ele><time>2026-03-22T10:09:55.294Z</time></trkpt><trkpt lat="45.0834024" lon="11.1769251"><ele>10.0</ele><time>2026-03-22T10:09:56.305Z</time></trkpt><trkpt lat="45.083364" lon="11.176813"><ele>10.0</ele><time>2026-03-22T10:09:57.305Z</time></trkpt><trkpt lat="45.0833404" lon="11.1766734"><ele>10.0</ele><time>2026-03-22T10:09:58.311Z</time></trkpt><trkpt lat="45.0833369" lon="11.1765145"><ele>10.0</ele><time>2026-03-22T10:09:59.308Z</time></trkpt><trkpt lat="45.0833559" lon="11.1763435"><ele>10.0</ele><time>2026-03-22T10:10:00.31Z</time></trkpt><trkpt lat="45.0834019" lon="11.1761648"><ele>10.0</ele><time>2026-03-22T10:10:01.305Z</time></trkpt><trkpt lat="45.0834825" lon="11.1759621"><ele>10.0</ele><time>2026-03-22T10:10:02.315Z</time></trkpt><trkpt lat="45.083593" lon="11.1757218"><ele>10.0</ele><time>2026-03-22T10:10:03.296Z</time></trkpt><trkpt lat="45.08371" lon="11.1754664"><ele>9.666666666666668</ele><time>2026-03-22T10:10:04.299Z</time></trkpt><trkpt lat="45.0838195" lon="11.1752163"><ele>9.333333333333334</ele><time>2026-03-22T10:10:05.304Z</time></trkpt><trkpt lat="45.0839227" lon="11.1749542"><ele>9.0</ele><time>2026-03-22T10:10:06.302Z</time></trkpt><trkpt lat="45.0840256" lon="11.1746835"><ele>8.5</ele><time>2026-03-22T10:10:07.305Z</time></trkpt><trkpt lat="45.0841311" lon="11.1743991"><ele>8.0</ele><time>2026-03-22T10:10:08.304Z</time></trkpt><trkpt lat="45.0842498" lon="11.1741113"><ele>8.5</ele><time>2026-03-22T10:10:09.307Z</time></trkpt><trkpt lat="45.0843713" lon="11.1738255"><ele>9.0</ele><time>2026-03-22T10:10:10.303Z</time></trkpt><trkpt lat="45.0845057" lon="11.1735331"><ele>9.0</ele><time>2026-03-22T10:10:11.305Z</time></trkpt><trkpt lat="45.0846487" lon="11.1732479"><ele>9.0</ele><time>2026-03-22T10:10:12.306Z</time></trkpt><trkpt lat="45.0848021" lon="11.1729756"><ele>9.5</ele><time>2026-03-22T10:10:13.294Z</time></trkpt><trkpt lat="45.0849719" lon="11.1727239"><ele>10.0</ele><time>2026-03-22T10:10:14.293Z</time></trkpt><trkpt lat="45.0851543" lon="11.172475"><ele>9.5</ele><time>2026-03-22T10:10:15.307Z</time></trkpt><trkpt lat="45.0853427" lon="11.1722359"><ele>9.0</ele><time>2026-03-22T10:10:16.302Z</time></trkpt><trkpt lat="45.0855378" lon="11.1720037"><ele>9.0</ele><time>2026-03-22T10:10:17.301Z</time></trkpt><trkpt lat="45.0857337" lon="11.1717663"><ele>9.0</ele><time>2026-03-22T10:10:18.311Z</time></trkpt><trkpt lat="45.085933" lon="11.1715345"><ele>8.0</ele><time>2026-03-22T10:10:19.315Z</time></trkpt><trkpt lat="45.0861282" lon="11.1713054"><ele>7.0</ele><time>2026-03-22T10:10:20.307Z</time></trkpt><trkpt lat="45.0863248" lon="11.1710673"><ele>7.0</ele><time>2026-03-22T10:10:21.307Z</time></trkpt><trkpt lat="45.0865186" lon="11.1708382"><ele>7.0</ele><time>2026-03-22T10:10:22.31Z</time></trkpt><trkpt lat="45.0867047" lon="11.1706153"><ele>7.0</ele><time>2026-03-22T10:10:23.307Z</time></trkpt><trkpt lat="45.0868856" lon="11.1703921"><ele>7.0</ele><time>2026-03-22T10:10:24.308Z</time></trkpt><trkpt lat="45.087065" lon="11.1701817"><ele>7.0</ele><time>2026-03-22T10:10:25.307Z</time></trkpt><trkpt lat="45.087243" lon="11.1699808"><ele>7.0</ele><time>2026-03-22T10:10:26.309Z</time></trkpt><trkpt lat="45.0874196" lon="11.1697759"><ele>8.5</ele><time>2026-03-22T10:10:27.31Z</time></trkpt><trkpt lat="45.087597" lon="11.1695673"><ele>10.0</ele><time>2026-03-22T10:10:28.308Z</time></trkpt><trkpt lat="45.0877687" lon="11.1693646"><ele>10.0</ele><time>2026-03-22T10:10:29.309Z</time></trkpt><trkpt lat="45.0879446" lon="11.1691563"><ele>10.0</ele><time>2026-03-22T10:10:30.31Z</time></trkpt><trkpt lat="45.0881165" lon="11.1689446"><ele>9.5</ele><time>2026-03-22T10:10:31.311Z</time></trkpt><trkpt lat="45.0882834" lon="11.1687242"><ele>9.0</ele><time>2026-03-22T10:10:32.322Z</time></trkpt><trkpt lat="45.0884452" lon="11.1684853"><ele>9.0</ele><time>2026-03-22T10:10:33.299Z</time></trkpt><trkpt lat="45.0885991" lon="11.1682305"><ele>9.0</ele><time>2026-03-22T10:10:34.297Z</time></trkpt><trkpt lat="45.0887478" lon="11.1679557"><ele>8.5</ele><time>2026-03-22T10:10:35.301Z</time></trkpt><trkpt lat="45.0888915" lon="11.1676683"><ele>8.0</ele><time>2026-03-22T10:10:36.306Z</time></trkpt><trkpt lat="45.0890223" lon="11.167367"><ele>7.5</ele><time>2026-03-22T10:10:37.297Z</time></trkpt><trkpt lat="45.0891368" lon="11.1670546"><ele>7.0</ele><time>2026-03-22T10:10:38.302Z</time></trkpt><trkpt lat="45.0892432" lon="11.1667205"><ele>8.0</ele><time>2026-03-22T10:10:39.3Z</time></trkpt><trkpt lat="45.0893402" lon="11.1663786"><ele>9.0</ele><time>2026-03-22T10:10:40.312Z</time></trkpt><trkpt lat="45.0894216" lon="11.1660265"><ele>8.5</ele><time>2026-03-22T10:10:41.302Z</time></trkpt><trkpt lat="45.0894888" lon="11.1656576"><ele>8.0</ele><time>2026-03-22T10:10:42.303Z</time></trkpt><trkpt lat="45.0895418" lon="11.1652836"><ele>8.0</ele><time>2026-03-22T10:10:43.301Z</time></trkpt><trkpt lat="45.089583" lon="11.1649122"><ele>8.0</ele><time>2026-03-22T10:10:44.304Z</time></trkpt><trkpt lat="45.0896061" lon="11.1645342"><ele>8.0</ele><time>2026-03-22T10:10:45.304Z</time></trkpt><trkpt lat="45.0896124" lon="11.1641429"><ele>8.0</ele><time>2026-03-22T10:10:46.31Z</time></trkpt><trkpt lat="45.0896064" lon="11.1637555"><ele>8.5</ele><time>2026-03-22T10:10:47.302Z</time></trkpt><trkpt lat="45.0895807" lon="11.1633661"><ele>9.0</ele><time>2026-03-22T10:10:48.306Z</time></trkpt><trkpt lat="45.0895404" lon="11.1629767"><ele>9.5</ele><time>2026-03-22T10:10:49.311Z</time></trkpt><trkpt lat="45.0894756" lon="11.1625996"><ele>10.0</ele><time>2026-03-22T10:10:50.306Z</time></trkpt><trkpt lat="45.0893934" lon="11.1622325"><ele>10.0</ele><time>2026-03-22T10:10:51.296Z</time></trkpt><trkpt lat="45.0892964" lon="11.1618754"><ele>10.0</ele><time>2026-03-22T10:10:52.302Z</time></trkpt><trkpt lat="45.0891882" lon="11.1615191"><ele>9.5</ele><time>2026-03-22T10:10:53.299Z</time></trkpt><trkpt lat="45.0890733" lon="11.161173"><ele>9.0</ele><time>2026-03-22T10:10:54.307Z</time></trkpt><trkpt lat="45.0889524" lon="11.1608352"><ele>9.0</ele><time>2026-03-22T10:10:55.307Z</time></trkpt><trkpt lat="45.0888275" lon="11.1605067"><ele>9.0</ele><time>2026-03-22T10:10:56.305Z</time></trkpt><trkpt lat="45.0887127" lon="11.1601772"><ele>8.5</ele><time>2026-03-22T10:10:57.305Z</time></trkpt><trkpt lat="45.0885947" lon="11.1598633"><ele>8.0</ele><time>2026-03-22T10:10:58.31Z</time></trkpt><trkpt lat="45.0884798" lon="11.1595455"><ele>10.0</ele><time>2026-03-22T10:10:59.314Z</time></trkpt><trkpt lat="45.0879442" lon="11.1580924"><ele>8.0</ele><time>2026-03-22T10:11:04.306Z</time></trkpt><trkpt lat="45.086839" lon="11.1524483"><ele>11.0</ele><time>2026-03-22T10:11:28.309Z</time></trkpt><trkpt lat="45.0852133" lon="11.1459623"><ele>11.0</ele><time>2026-03-22T10:11:49.312Z</time></trkpt><trkpt lat="45.0856119" lon="11.1402214"><ele>13.0</ele><time>2026-03-22T10:12:08.308Z</time></trkpt><trkpt lat="45.0827421" lon="11.1371986"><ele>13.0</ele><time>2026-03-22T10:12:40.278Z</time></trkpt><trkpt lat="45.0788056" lon="11.1354383"><ele>13.0</ele><time>2026-03-22T10:12:59.292Z</time></trkpt><trkpt lat="45.0754214" lon="11.1352099"><ele>14.0</ele><time>2026-03-22T10:13:18.312Z</time></trkpt><trkpt lat="45.0727201" lon="11.1344807"><ele>13.0</ele><time>2026-03-22T10:13:38.299Z</time></trkpt><trkpt lat="45.0723562" lon="11.1305974"><ele>15.0</ele><time>2026-03-22T10:14:18.301Z</time></trkpt><trkpt lat="45.0733871" lon="11.1270314"><ele>14.0</ele><time>2026-03-22T10:14:34.308Z</time></trkpt><trkpt lat="45.0750972" lon="11.1228462"><ele>13.0</ele><time>2026-03-22T10:14:51.302Z</time></trkpt><trkpt lat="45.0762884" lon="11.1183815"><ele>11.0</ele><time>2026-03-22T10:15:09.298Z</time></trkpt><trkpt lat="45.0769306" lon="11.1127241"><ele>14.0</ele><time>2026-03-22T10:15:29.306Z</time></trkpt><trkpt lat="45.0752894" lon="11.1074503"><ele>15.0</ele><time>2026-03-22T10:15:45.302Z</time></trkpt><trkpt lat="45.0729949" lon="11.1015994"><ele>14.0</ele><time>2026-03-22T10:16:15.3Z</time></trkpt><trkpt lat="45.0733491" lon="11.104414"><ele>15.0</ele><time>2026-03-22T10:17:10.305Z</time></trkpt><trkpt lat="45.0726094" lon="11.1027405"><ele>20.0</ele><time>2026-03-22T10:17:29.317Z</time></trkpt><trkpt lat="45.0714631" lon="11.1003722"><ele>17.0</ele><time>2026-03-22T10:17:51.294Z</time></trkpt><trkpt lat="45.0689352" lon="11.0987813"><ele>16.0</ele><time>2026-03-22T10:18:11.294Z</time></trkpt><trkpt lat="45.0663642" lon="11.097126"><ele>14.0</ele><time>2026-03-22T10:18:32.315Z</time></trkpt><trkpt lat="45.0641597" lon="11.0933241"><ele>15.0</ele><time>2026-03-22T10:18:52.323Z</time></trkpt><trkpt lat="45.0630171" lon="11.088801"><ele>13.0</ele><time>2026-03-22T10:19:11.307Z</time></trkpt><trkpt lat="45.0613629" lon="11.0846262"><ele>13.0</ele><time>2026-03-22T10:19:43.315Z</time></trkpt><trkpt lat="45.0609516" lon="11.0817629"><ele>11.0</ele><time>2026-03-22T10:19:58.321Z</time></trkpt><trkpt lat="45.0615712" lon="11.0779545"><ele>10.0</ele><time>2026-03-22T10:20:20.322Z</time></trkpt><trkpt lat="45.063279" lon="11.0749421"><ele>15.0</ele><time>2026-03-22T10:20:39.319Z</time></trkpt><trkpt lat="45.0614879" lon="11.0718487"><ele>14.0</ele><time>2026-03-22T10:20:58.32Z</time></trkpt><trkpt lat="45.0604381" lon="11.0671489"><ele>15.0</ele><time>2026-03-22T10:21:21.316Z</time></trkpt><trkpt lat="45.0595314" lon="11.0635575"><ele>14.0</ele><time>2026-03-22T10:21:41.322Z</time></trkpt><trkpt lat="45.0587011" lon="11.0609379"><ele>15.0</ele><time>2026-03-22T10:22:06.297Z</time></trkpt><trkpt lat="45.0573158" lon="11.0586562"><ele>13.0</ele><time>2026-03-22T10:22:22.3Z</time></trkpt><trkpt lat="45.0575341" lon="11.0548357"><ele>13.0</ele><time>2026-03-22T10:22:50.303Z</time></trkpt><trkpt lat="45.0588813" lon="11.0525698"><ele>13.0</ele><time>2026-03-22T10:23:06.305Z</time></trkpt><trkpt lat="45.0615441" lon="11.049405"><ele>11.0</ele><time>2026-03-22T10:23:30.313Z</time></trkpt><trkpt lat="45.064313" lon="11.048809"><ele>12.0</ele><time>2026-03-22T10:23:46.308Z</time></trkpt><trkpt lat="45.0672318" lon="11.0460977"><ele>11.0</ele><time>2026-03-22T10:24:05.311Z</time></trkpt><trkpt lat="45.0674922" lon="11.0412736"><ele>15.0</ele><time>2026-03-22T10:24:30.311Z</time></trkpt><trkpt lat="45.0677486" lon="11.0373612"><ele>15.0</ele><time>2026-03-22T10:24:47.312Z</time></trkpt><trkpt lat="45.0666716" lon="11.0328263"><ele>14.0</ele><time>2026-03-22T10:25:10.311Z</time></trkpt><trkpt lat="45.0662163" lon="11.0280659"><ele>14.0</ele><time>2026-03-22T10:25:31.309Z</time></trkpt><trkpt lat="45.0674121" lon="11.0245384"><ele>20.0</ele><time>2026-03-22T10:25:50.312Z</time></trkpt><trkpt lat="45.0681948" lon="11.0197859"><ele>13.0</ele><time>2026-03-22T10:26:12.313Z</time></trkpt><trkpt lat="45.0676884" lon="11.0160412"><ele>17.0</ele><time>2026-03-22T10:26:33.314Z</time></trkpt><trkpt lat="45.0669694" lon="11.0121334"><ele>14.0</ele><time>2026-03-22T10:26:48.316Z</time></trkpt><trkpt lat="45.0665343" lon="11.0063117"><ele>15.0</ele><time>2026-03-22T10:27:10.316Z</time></trkpt><trkpt lat="45.0677507" lon="11.0016928"><ele>13.0</ele><time>2026-03-22T10:27:35.315Z</time></trkpt><trkpt lat="45.0693289" lon="10.9973122"><ele>15.0</ele><time>2026-03-22T11:17:07.302Z</time></trkpt><trkpt lat="45.0706526" lon="10.9938271"><ele>14.0</ele><time>2026-03-22T11:17:27.307Z</time></trkpt><trkpt lat="45.0710253" lon="10.9899942"><ele>15.0</ele><time>2026-03-22T11:17:46.311Z</time></trkpt><trkpt lat="45.0720632" lon="10.9854279"><ele>18.0</ele><time>2026-03-22T11:18:04.308Z</time></trkpt><trkpt lat="45.0741237" lon="10.9815022"><ele>18.0</ele><time>2026-03-22T11:18:24.309Z</time></trkpt><trkpt lat="45.0756541" lon="10.9782105"><ele>14.0</ele><time>2026-03-22T11:18:43.307Z</time></trkpt><trkpt lat="45.0767011" lon="10.9745336"><ele>18.0</ele><time>2026-03-22T11:19:29.312Z</time></trkpt><trkpt lat="45.0786895" lon="10.9704542"><ele>15.0</ele><time>2026-03-22T11:19:53.305Z</time></trkpt><trkpt lat="45.0804944" lon="10.9661913"><ele>14.0</ele><time>2026-03-22T11:20:13.297Z</time></trkpt><trkpt lat="45.0821145" lon="10.9619471"><ele>13.0</ele><time>2026-03-22T11:20:33.301Z</time></trkpt><trkpt lat="45.0830652" lon="10.9582315"><ele>14.0</ele><time>2026-03-22T11:20:52.304Z</time></trkpt><trkpt lat="45.0845597" lon="10.9550346"><ele>17.0</ele><time>2026-03-22T11:21:19.296Z</time></trkpt><trkpt lat="45.0845043" lon="10.9521592"><ele>15.0</ele><time>2026-03-22T11:22:17.29Z</time></trkpt><trkpt lat="45.0841979" lon="10.9491246"><ele>13.0</ele><time>2026-03-22T11:22:37.294Z</time></trkpt><trkpt lat="45.0828592" lon="10.9455399"><ele>12.0</ele><time>2026-03-22T11:22:54.302Z</time></trkpt><trkpt lat="45.0798748" lon="10.9431911"><ele>15.0</ele><time>2026-03-22T11:23:19.291Z</time></trkpt><trkpt lat="45.0771154" lon="10.9427937"><ele>17.0</ele><time>2026-03-22T11:23:39.293Z</time></trkpt><trkpt lat="45.0747083" lon="10.9445466"><ele>17.0</ele><time>2026-03-22T11:24:06.282Z</time></trkpt><trkpt lat="45.0741855" lon="10.9425384"><ele>16.0</ele><time>2026-03-22T11:24:46.29Z</time></trkpt><trkpt lat="45.0749858" lon="10.9378707"><ele>13.0</ele><time>2026-03-22T11:25:07.289Z</time></trkpt><trkpt lat="45.0757013" lon="10.9340922"><ele>14.0</ele><time>2026-03-22T11:25:25.277Z</time></trkpt><trkpt lat="45.0771825" lon="10.9295754"><ele>14.0</ele><time>2026-03-22T11:25:43.29Z</time></trkpt><trkpt lat="45.0790846" lon="10.9244634"><ele>12.0</ele><time>2026-03-22T11:27:09.294Z</time></trkpt><trkpt lat="45.0798937" lon="10.9216951"><ele>13.0</ele><time>2026-03-22T11:27:31.293Z</time></trkpt><trkpt lat="45.0800186" lon="10.9187391"><ele>13.0</ele><time>2026-03-22T11:27:49.297Z</time></trkpt><trkpt lat="45.0796459" lon="10.9149485"><ele>14.0</ele><time>2026-03-22T11:28:10.295Z</time></trkpt><trkpt lat="45.0798719" lon="10.911058"><ele>23.0</ele><time>2026-03-22T11:28:32.297Z</time></trkpt><trkpt lat="45.079691" lon="10.9072234"><ele>18.0</ele><time>2026-03-22T11:28:53.296Z</time></trkpt><trkpt lat="45.0787837" lon="10.9035298"><ele>18.0</ele><time>2026-03-22T11:29:13.294Z</time></trkpt><trkpt lat="45.0773155" lon="10.9003093"><ele>16.0</ele><time>2026-03-22T11:29:34.288Z</time></trkpt><trkpt lat="45.0791883" lon="10.8974619"><ele>16.0</ele><time>2026-03-22T11:31:25.306Z</time></trkpt><trkpt lat="45.0807469" lon="10.8955944"><ele>17.0</ele><time>2026-03-22T11:32:05.287Z</time></trkpt><trkpt lat="45.0830379" lon="10.8919565"><ele>17.0</ele><time>2026-03-22T11:32:23.296Z</time></trkpt><trkpt lat="45.0844179" lon="10.8865827"><ele>17.0</ele><time>2026-03-22T11:32:43.296Z</time></trkpt><trkpt lat="45.0857577" lon="10.8810674"><ele>18.0</ele><time>2026-03-22T11:33:08.292Z</time></trkpt><trkpt lat="45.0864763" lon="10.8773665"><ele>19.0</ele><time>2026-03-22T11:33:32.293Z</time></trkpt><trkpt lat="45.0869149" lon="10.8755041"><ele>19.0</ele><time>2026-03-22T11:34:06.29Z</time></trkpt><trkpt lat="45.087853" lon="10.8715968"><ele>17.0</ele><time>2026-03-22T11:34:26.292Z</time></trkpt><trkpt lat="45.0891359" lon="10.8660182"><ele>16.0</ele><time>2026-03-22T11:34:54.295Z</time></trkpt><trkpt lat="45.0910199" lon="10.8620653"><ele>21.0</ele><time>2026-03-22T11:35:12.293Z</time></trkpt><trkpt lat="45.0922237" lon="10.8594208"><ele>19.0</ele><time>2026-03-22T11:35:27.298Z</time></trkpt><trkpt lat="45.0944267" lon="10.8545349"><ele>19.0</ele><time>2026-03-22T11:35:46.293Z</time></trkpt><trkpt lat="45.0967043" lon="10.849734"><ele>19.0</ele><time>2026-03-22T11:36:12.291Z</time></trkpt><trkpt lat="45.0985167" lon="10.8467327"><ele>20.0</ele><time>2026-03-22T11:36:35.294Z</time></trkpt><trkpt lat="45.1001743" lon="10.8436979"><ele>18.0</ele><time>2026-03-22T11:36:50.299Z</time></trkpt><trkpt lat="45.1019178" lon="10.8407607"><ele>17.0</ele><time>2026-03-22T11:37:06.296Z</time></trkpt><trkpt lat="45.1036403" lon="10.8376855"><ele>20.0</ele><time>2026-03-22T11:37:34.294Z</time></trkpt><trkpt lat="45.104615" lon="10.8339864"><ele>20.0</ele><time>2026-03-22T11:37:51.302Z</time></trkpt><trkpt lat="45.1062017" lon="10.8295285"><ele>19.0</ele><time>2026-03-22T11:38:10.292Z</time></trkpt><trkpt lat="45.1082541" lon="10.8255246"><ele>23.0</ele><time>2026-03-22T11:38:28.294Z</time></trkpt><trkpt lat="45.1110282" lon="10.8198819"><ele>21.0</ele><time>2026-03-22T11:38:51.297Z</time></trkpt><trkpt lat="45.1129909" lon="10.8158109"><ele>24.0</ele><time>2026-03-22T11:39:35.292Z</time></trkpt><trkpt lat="45.1144315" lon="10.8123631"><ele>22.0</ele><time>2026-03-22T11:39:51.293Z</time></trkpt><trkpt lat="45.1161481" lon="10.8071797"><ele>21.0</ele><time>2026-03-22T11:40:10.299Z</time></trkpt><trkpt lat="45.1180485" lon="10.8029497"><ele>21.0</ele><time>2026-03-22T11:40:29.295Z</time></trkpt><trkpt lat="45.1191201" lon="10.7983378"><ele>23.0</ele><time>2026-03-22T11:40:53.294Z</time></trkpt><trkpt lat="45.1201565" lon="10.7957613"><ele>23.0</ele><time>2026-03-22T11:41:09.289Z</time></trkpt><trkpt lat="45.1219881" lon="10.7928716"><ele>23.0</ele><time>2026-03-22T11:41:27.288Z</time></trkpt><trkpt lat="45.1230092" lon="10.7892339"><ele>23.0</ele><time>2026-03-22T11:41:55.29Z</time></trkpt></trkseg><trkseg><trkpt lat="45.1238936" lon="10.788119"><ele>19.0</ele><time>2026-03-22T13:35:16.328Z</time></trkpt><trkpt lat="45.1252754" lon="10.7883985"><ele>15.0</ele><time>2026-03-22T13:35:34.326Z</time></trkpt><trkpt lat="45.1273206" lon="10.788719"><ele>17.0</ele><time>2026-03-22T13:35:56.335Z</time></trkpt><trkpt lat="45.1300901" lon="10.7888949"><ele>18.0</ele><time>2026-03-22T13:36:15.326Z</time></trkpt><trkpt lat="45.1335146" lon="10.7901617"><ele>17.0</ele><time>2026-03-22T13:36:40.324Z</time></trkpt><trkpt lat="45.1363205" lon="10.7928412"><ele>17.0</ele><time>2026-03-22T13:37:00.335Z</time></trkpt><trkpt lat="45.1395758" lon="10.7944591"><ele>22.0</ele><time>2026-03-22T13:37:23.326Z</time></trkpt><trkpt lat="45.1415689" lon="10.7950997"><ele>19.0</ele><time>2026-03-22T13:37:40.323Z</time></trkpt><trkpt lat="45.1435891" lon="10.7946338"><ele>23.0</ele><time>2026-03-22T13:37:58.334Z</time></trkpt><trkpt lat="45.1445177" lon="10.7960407"><ele>23.0</ele><time>2026-03-22T13:40:13.317Z</time></trkpt><trkpt lat="45.1436102" lon="10.7986621"><ele>23.0</ele><time>2026-03-22T13:40:25.321Z</time></trkpt><trkpt lat="45.144285" lon="10.8045203"><ele>15.0</ele><time>2026-03-22T13:40:49.327Z</time></trkpt><trkpt lat="45.1448281" lon="10.8094404"><ele>21.0</ele><time>2026-03-22T13:41:08.332Z</time></trkpt><trkpt lat="45.1442449" lon="10.8142892"><ele>22.0</ele><time>2026-03-22T13:41:25.328Z</time></trkpt><trkpt lat="45.145607" lon="10.8189764"><ele>20.0</ele><time>2026-03-22T13:41:43.326Z</time></trkpt><trkpt lat="45.1477428" lon="10.8240936"><ele>20.0</ele><time>2026-03-22T13:42:02.334Z</time></trkpt><trkpt lat="45.1499739" lon="10.8291992"><ele>23.0</ele><time>2026-03-22T13:42:25.327Z</time></trkpt><trkpt lat="45.1521078" lon="10.8341239"><ele>23.0</ele><time>2026-03-22T13:42:45.326Z</time></trkpt><trkpt lat="45.1539353" lon="10.8381916"><ele>26.0</ele><time>2026-03-22T13:43:03.327Z</time></trkpt><trkpt lat="45.1565772" lon="10.8413907"><ele>24.0</ele><time>2026-03-22T13:43:31.326Z</time></trkpt><trkpt lat="45.1593472" lon="10.8441572"><ele>23.0</ele><time>2026-03-22T13:43:57.326Z</time></trkpt><trkpt lat="45.1616001" lon="10.8463644"><ele>22.0</ele><time>2026-03-22T13:44:13.326Z</time></trkpt><trkpt lat="45.1644115" lon="10.8491595"><ele>23.0</ele><time>2026-03-22T13:44:37.327Z</time></trkpt><trkpt lat="45.1659879" lon="10.8523831"><ele>23.0</ele><time>2026-03-22T13:45:20.344Z</time></trkpt><trkpt lat="45.1669326" lon="10.85604"><ele>24.0</ele><time>2026-03-22T13:45:48.332Z</time></trkpt><trkpt lat="45.1703688" lon="10.856759"><ele>23.0</ele><time>2026-03-22T13:46:28.331Z</time></trkpt><trkpt lat="45.1737184" lon="10.8550574"><ele>25.0</ele><time>2026-03-22T13:46:43.34Z</time></trkpt><trkpt lat="45.1776314" lon="10.853096"><ele>23.0</ele><time>2026-03-22T13:46:59.342Z</time></trkpt><trkpt lat="45.1821027" lon="10.8508381"><ele>25.0</ele><time>2026-03-22T13:47:16.353Z</time></trkpt><trkpt lat="45.1868439" lon="10.8492248"><ele>27.0</ele><time>2026-03-22T13:47:34.335Z</time></trkpt><trkpt lat="45.1915427" lon="10.8483715"><ele>22.0</ele><time>2026-03-22T13:47:52.33Z</time></trkpt><trkpt lat="45.1962404" lon="10.8475257"><ele>27.0</ele><time>2026-03-22T13:48:09.324Z</time></trkpt><trkpt lat="45.2010394" lon="10.8467648"><ele>27.0</ele><time>2026-03-22T13:48:26.331Z</time></trkpt><trkpt lat="45.2059556" lon="10.8475951"><ele>26.0</ele><time>2026-03-22T13:48:45.329Z</time></trkpt><trkpt lat="45.2105231" lon="10.8498128"><ele>27.0</ele><time>2026-03-22T13:49:04.333Z</time></trkpt><trkpt lat="45.2151533" lon="10.8521612"><ele>28.0</ele><time>2026-03-22T13:49:23.328Z</time></trkpt><trkpt lat="45.2197394" lon="10.8544759"><ele>29.0</ele><time>2026-03-22T13:49:41.329Z</time></trkpt><trkpt lat="45.2244205" lon="10.8568229"><ele>28.0</ele><time>2026-03-22T13:49:59.336Z</time></trkpt><trkpt lat="45.2291131" lon="10.859254"><ele>28.0</ele><time>2026-03-22T13:50:17.329Z</time></trkpt><trkpt lat="45.2336898" lon="10.8615774"><ele>30.0</ele><time>2026-03-22T13:50:34.328Z</time></trkpt><trkpt lat="45.2384824" lon="10.8635093"><ele>31.0</ele><time>2026-03-22T13:50:52.343Z</time></trkpt><trkpt lat="45.2431368" lon="10.8649906"><ele>33.0</ele><time>2026-03-22T13:51:09.331Z</time></trkpt><trkpt lat="45.2478958" lon="10.8664995"><ele>30.0</ele><time>2026-03-22T13:51:26.337Z</time></trkpt><trkpt lat="45.2526546" lon="10.8680084"><ele>30.0</ele><time>2026-03-22T13:51:43.335Z</time></trkpt><trkpt lat="45.2574041" lon="10.8695277"><ele>33.0</ele><time>2026-03-22T13:52:00.33Z</time></trkpt><trkpt lat="45.2621557" lon="10.8710502"><ele>33.0</ele><time>2026-03-22T13:52:17.331Z</time></trkpt><trkpt lat="45.2667762" lon="10.8725201"><ele>33.0</ele><time>2026-03-22T13:52:34.326Z</time></trkpt><trkpt lat="45.2714202" lon="10.8746521"><ele>36.0</ele><time>2026-03-22T13:52:52.344Z</time></trkpt><trkpt lat="45.2757483" lon="10.8779402"><ele>33.0</ele><time>2026-03-22T13:53:10.325Z</time></trkpt><trkpt lat="45.280071" lon="10.881321"><ele>33.0</ele><time>2026-03-22T13:53:28.327Z</time></trkpt><trkpt lat="45.2843741" lon="10.8846599"><ele>35.0</ele><time>2026-03-22T13:53:46.33Z</time></trkpt><trkpt lat="45.2885263" lon="10.8880515"><ele>34.0</ele><time>2026-03-22T13:54:03.329Z</time></trkpt><trkpt lat="45.2924124" lon="10.892125"><ele>33.0</ele><time>2026-03-22T13:54:20.331Z</time></trkpt><trkpt lat="45.2962528" lon="10.8962379"><ele>35.0</ele><time>2026-03-22T13:54:38.332Z</time></trkpt><trkpt lat="45.3000758" lon="10.9003201"><ele>39.0</ele><time>2026-03-22T13:54:55.332Z</time></trkpt><trkpt lat="45.3042001" lon="10.9040073"><ele>36.0</ele><time>2026-03-22T13:55:12.328Z</time></trkpt><trkpt lat="45.3087016" lon="10.9066173"><ele>37.0</ele><time>2026-03-22T13:55:29.338Z</time></trkpt><trkpt lat="45.3132991" lon="10.9089411"><ele>36.0</ele><time>2026-03-22T13:55:46.333Z</time></trkpt><trkpt lat="45.3178342" lon="10.9114661"><ele>37.0</ele><time>2026-03-22T13:56:03.335Z</time></trkpt><trkpt lat="45.3222942" lon="10.9142488"><ele>41.0</ele><time>2026-03-22T13:56:20.344Z</time></trkpt><trkpt lat="45.3269268" lon="10.9168142"><ele>37.0</ele><time>2026-03-22T13:56:38.334Z</time></trkpt><trkpt lat="45.3316807" lon="10.9176337"><ele>41.0</ele><time>2026-03-22T13:56:55.333Z</time></trkpt><trkpt lat="45.3363978" lon="10.918062"><ele>39.0</ele><time>2026-03-22T13:57:13.329Z</time></trkpt><trkpt lat="45.3411297" lon="10.9184816"><ele>40.0</ele><time>2026-03-22T13:57:30.334Z</time></trkpt><trkpt lat="45.3460445" lon="10.918924"><ele>44.0</ele><time>2026-03-22T13:57:48.334Z</time></trkpt><trkpt lat="45.3509531" lon="10.9195008"><ele>43.0</ele><time>2026-03-22T13:58:06.345Z</time></trkpt><trkpt lat="45.355683" lon="10.9202865"><ele>47.0</ele><time>2026-03-22T13:58:23.334Z</time></trkpt><trkpt lat="45.3604331" lon="10.9207299"><ele>49.0</ele><time>2026-03-22T13:58:40.329Z</time></trkpt><trkpt lat="45.3652484" lon="10.9197809"><ele>48.0</ele><time>2026-03-22T13:58:57.334Z</time></trkpt><trkpt lat="45.3698784" lon="10.9175754"><ele>51.0</ele><time>2026-03-22T13:59:14.346Z</time></trkpt><trkpt lat="45.3744422" lon="10.915198"><ele>53.0</ele><time>2026-03-22T13:59:31.331Z</time></trkpt><trkpt lat="45.3790287" lon="10.9128321"><ele>57.0</ele><time>2026-03-22T13:59:48.33Z</time></trkpt><trkpt lat="45.3836605" lon="10.9104157"><ele>60.0</ele><time>2026-03-22T14:00:06.33Z</time></trkpt><trkpt lat="45.3882423" lon="10.9085315"><ele>63.0</ele><time>2026-03-22T14:00:24.321Z</time></trkpt><trkpt lat="45.3937419" lon="10.9089713"><ele>65.0</ele><time>2026-03-22T14:00:44.322Z</time></trkpt><trkpt lat="45.3983837" lon="10.9102757"><ele>65.0</ele><time>2026-03-22T14:01:02.337Z</time></trkpt><trkpt lat="45.4031365" lon="10.9117639"><ele>71.0</ele><time>2026-03-22T14:01:23.334Z</time></trkpt><trkpt lat="45.4066323" lon="10.9150906"><ele>70.0</ele><time>2026-03-22T14:01:44.329Z</time></trkpt><trkpt lat="45.4087079" lon="10.9112015"><ele>72.0</ele><time>2026-03-22T14:02:13.33Z</time></trkpt><trkpt lat="45.4099228" lon="10.9064504"><ele>75.0</ele><time>2026-03-22T14:02:27.328Z</time></trkpt><trkpt lat="45.4118628" lon="10.8992731"><ele>78.0</ele><time>2026-03-22T14:02:45.341Z</time></trkpt><trkpt lat="45.4132653" lon="10.8916177"><ele>81.0</ele><time>2026-03-22T14:03:04.329Z</time></trkpt><trkpt lat="45.4137761" lon="10.883654"><ele>84.0</ele><time>2026-03-22T14:03:23.333Z</time></trkpt><trkpt lat="45.4142426" lon="10.8757401"><ele>82.0</ele><time>2026-03-22T14:03:42.331Z</time></trkpt><trkpt lat="45.4146974" lon="10.8679748"><ele>83.0</ele><time>2026-03-22T14:04:01.333Z</time></trkpt><trkpt lat="45.4151229" lon="10.8609493"><ele>89.0</ele><time>2026-03-22T14:04:19.335Z</time></trkpt><trkpt lat="45.4161345" lon="10.8540145"><ele>101.0</ele><time>2026-03-22T14:04:37.334Z</time></trkpt><trkpt lat="45.4173231" lon="10.847252"><ele>115.0</ele><time>2026-03-22T14:04:53.326Z</time></trkpt><trkpt lat="45.4179837" lon="10.8394331"><ele>105.0</ele><time>2026-03-22T14:05:12.329Z</time></trkpt><trkpt lat="45.4176258" lon="10.8314296"><ele>108.0</ele><time>2026-03-22T14:05:30.328Z</time></trkpt><trkpt lat="45.417083" lon="10.8236079"><ele>119.0</ele><time>2026-03-22T14:05:48.329Z</time></trkpt><trkpt lat="45.4164916" lon="10.815745"><ele>115.0</ele><time>2026-03-22T14:06:07.328Z</time></trkpt><trkpt lat="45.4165158" lon="10.8080071"><ele>115.0</ele><time>2026-03-22T14:06:25.339Z</time></trkpt><trkpt lat="45.4173517" lon="10.8003319"><ele>125.0</ele><time>2026-03-22T14:06:42.327Z</time></trkpt><trkpt lat="45.4184377" lon="10.7925535"><ele>125.0</ele><time>2026-03-22T14:07:00.346Z</time></trkpt><trkpt lat="45.4202252" lon="10.7852576"><ele>127.0</ele><time>2026-03-22T14:07:18.339Z</time></trkpt><trkpt lat="45.4224458" lon="10.7792791"><ele>104.0</ele><time>2026-03-22T14:07:34.335Z</time></trkpt><trkpt lat="45.4249211" lon="10.772042"><ele>101.0</ele><time>2026-03-22T14:07:53.349Z</time></trkpt><trkpt lat="45.4259929" lon="10.7641757"><ele>101.0</ele><time>2026-03-22T14:08:12.344Z</time></trkpt><trkpt lat="45.426808" lon="10.7562191"><ele>98.0</ele><time>2026-03-22T14:08:31.343Z</time></trkpt><trkpt lat="45.427624" lon="10.7482259"><ele>97.0</ele><time>2026-03-22T14:08:50.347Z</time></trkpt><trkpt lat="45.4284043" lon="10.7402817"><ele>103.0</ele><time>2026-03-22T14:09:09.342Z</time></trkpt><trkpt lat="45.4292232" lon="10.7323368"><ele>106.0</ele><time>2026-03-22T14:09:28.358Z</time></trkpt><trkpt lat="45.4295461" lon="10.7242866"><ele>99.0</ele><time>2026-03-22T14:09:47.335Z</time></trkpt><trkpt lat="45.4295228" lon="10.7162672"><ele>87.0</ele><time>2026-03-22T14:10:06.341Z</time></trkpt><trkpt lat="45.4294693" lon="10.7085945"><ele>59.0</ele><time>2026-03-22T14:10:24.343Z</time></trkpt><trkpt lat="45.4293944" lon="10.7006021"><ele>82.0</ele><time>2026-03-22T14:10:43.343Z</time></trkpt><trkpt lat="45.4293512" lon="10.6926565"><ele>88.0</ele><time>2026-03-22T14:11:01.351Z</time></trkpt><trkpt lat="45.4295543" lon="10.6847111"><ele>83.0</ele><time>2026-03-22T14:11:19.342Z</time></trkpt><trkpt lat="45.4300745" lon="10.6768063"><ele>85.0</ele><time>2026-03-22T14:11:37.341Z</time></trkpt><trkpt lat="45.4305796" lon="10.6689059"><ele>79.0</ele><time>2026-03-22T14:11:55.342Z</time></trkpt><trkpt lat="45.4311089" lon="10.6610496"><ele>76.0</ele><time>2026-03-22T14:12:13.339Z</time></trkpt><trkpt lat="45.4315948" lon="10.6532206"><ele>74.0</ele><time>2026-03-22T14:12:32.351Z</time></trkpt><trkpt lat="45.4321319" lon="10.6453828"><ele>78.0</ele><time>2026-03-22T14:12:51.337Z</time></trkpt><trkpt lat="45.4325601" lon="10.6385243"><ele>75.0</ele><time>2026-03-22T14:13:08.343Z</time></trkpt><trkpt lat="45.4328736" lon="10.6315571"><ele>76.0</ele><time>2026-03-22T14:13:25.339Z</time></trkpt><trkpt lat="45.4332049" lon="10.6246717"><ele>83.0</ele><time>2026-03-22T14:13:41.344Z</time></trkpt><trkpt lat="45.4336216" lon="10.6169035"><ele>83.0</ele><time>2026-03-22T14:13:59.347Z</time></trkpt><trkpt lat="45.434002" lon="10.6090897"><ele>85.0</ele><time>2026-03-22T14:14:18.344Z</time></trkpt><trkpt lat="45.4343409" lon="10.6021423"><ele>86.0</ele><time>2026-03-22T14:14:35.341Z</time></trkpt><trkpt lat="45.4354476" lon="10.5942055"><ele>83.0</ele><time>2026-03-22T14:14:54.342Z</time></trkpt><trkpt lat="45.4368785" lon="10.5864909"><ele>87.0</ele><time>2026-03-22T14:15:12.343Z</time></trkpt><trkpt lat="45.438295" lon="10.578908"><ele>85.0</ele><time>2026-03-22T14:15:30.342Z</time></trkpt><trkpt lat="45.4395242" lon="10.5723092"><ele>88.0</ele><time>2026-03-22T14:15:46.343Z</time></trkpt><trkpt lat="45.4409247" lon="10.5647572"><ele>86.0</ele><time>2026-03-22T14:16:05.339Z</time></trkpt><trkpt lat="45.4421652" lon="10.5580265"><ele>89.0</ele><time>2026-03-22T14:16:22.342Z</time></trkpt><trkpt lat="45.443445" lon="10.5511529"><ele>101.0</ele><time>2026-03-22T14:16:39.35Z</time></trkpt><trkpt lat="45.4446521" lon="10.5446215"><ele>110.0</ele><time>2026-03-22T14:16:56.34Z</time></trkpt><trkpt lat="45.4459557" lon="10.5379094"><ele>115.0</ele><time>2026-03-22T14:17:14.335Z</time></trkpt><trkpt lat="45.4477967" lon="10.531451"><ele>137.0</ele><time>2026-03-22T14:17:32.337Z</time></trkpt><trkpt lat="45.4492729" lon="10.5246794"><ele>133.0</ele><time>2026-03-22T14:17:50.327Z</time></trkpt><trkpt lat="45.4500004" lon="10.5176606"><ele>157.0</ele><time>2026-03-22T14:18:06.339Z</time></trkpt><trkpt lat="45.450777" lon="10.5096804"><ele>180.0</ele><time>2026-03-22T14:18:24.333Z</time></trkpt><trkpt lat="45.4515031" lon="10.5019344"><ele>178.0</ele><time>2026-03-22T14:18:43.33Z</time></trkpt><trkpt lat="45.4521981" lon="10.4950416"><ele>164.0</ele><time>2026-03-22T14:19:00.337Z</time></trkpt><trkpt lat="45.453116" lon="10.4870106"><ele>149.0</ele><time>2026-03-22T14:19:18.335Z</time></trkpt><trkpt lat="45.4537828" lon="10.4780143"><ele>145.0</ele><time>2026-03-22T14:19:37.327Z</time></trkpt><trkpt lat="45.4545567" lon="10.4700232"><ele>142.0</ele><time>2026-03-22T14:19:56.34Z</time></trkpt><trkpt lat="45.4563493" lon="10.4625237"><ele>139.0</ele><time>2026-03-22T14:20:14.335Z</time></trkpt><trkpt lat="45.4582311" lon="10.4549288"><ele>132.0</ele><time>2026-03-22T14:20:33.335Z</time></trkpt><trkpt lat="45.45987" lon="10.447309"><ele>131.0</ele><time>2026-03-22T14:20:51.339Z</time></trkpt><trkpt lat="45.461483" lon="10.4395751"><ele>132.0</ele><time>2026-03-22T14:21:09.333Z</time></trkpt><trkpt lat="45.4630381" lon="10.4321455"><ele>135.0</ele><time>2026-03-22T14:21:26.337Z</time></trkpt><trkpt lat="45.463806" lon="10.4243698"><ele>149.0</ele><time>2026-03-22T14:21:45.336Z</time></trkpt><trkpt lat="45.4643654" lon="10.4176657"><ele>133.0</ele><time>2026-03-22T14:22:01.329Z</time></trkpt><trkpt lat="45.4650115" lon="10.4096859"><ele>130.0</ele><time>2026-03-22T14:22:20.336Z</time></trkpt><trkpt lat="45.4656621" lon="10.4020405"><ele>130.0</ele><time>2026-03-22T14:22:38.339Z</time></trkpt><trkpt lat="45.4667863" lon="10.3941325"><ele>132.0</ele><time>2026-03-22T14:22:58.341Z</time></trkpt><trkpt lat="45.4679458" lon="10.3872413"><ele>135.0</ele><time>2026-03-22T14:23:15.342Z</time></trkpt><trkpt lat="45.4692468" lon="10.3806935"><ele>135.0</ele><time>2026-03-22T14:23:36.336Z</time></trkpt><trkpt lat="45.4703492" lon="10.3760053"><ele>134.0</ele><time>2026-03-22T14:23:57.339Z</time></trkpt><trkpt lat="45.4711642" lon="10.3723349"><ele>136.0</ele><time>2026-03-22T14:24:17.339Z</time></trkpt><trkpt lat="45.4720064" lon="10.3684386"><ele>134.0</ele><time>2026-03-22T14:24:33.346Z</time></trkpt><trkpt lat="45.4730602" lon="10.3637638"><ele>136.0</ele><time>2026-03-22T14:24:51.341Z</time></trkpt><trkpt lat="45.4741516" lon="10.3591286"><ele>136.0</ele><time>2026-03-22T14:25:17.337Z</time></trkpt><trkpt lat="45.4749765" lon="10.3552235"><ele>137.0</ele><time>2026-03-22T14:25:35.338Z</time></trkpt><trkpt lat="45.476034" lon="10.3504981"><ele>136.0</ele><time>2026-03-22T14:25:52.345Z</time></trkpt><trkpt lat="45.477149" lon="10.345831"><ele>136.0</ele><time>2026-03-22T14:26:20.34Z</time></trkpt><trkpt lat="45.4784137" lon="10.3401805"><ele>136.0</ele><time>2026-03-22T14:26:47.337Z</time></trkpt><trkpt lat="45.4792377" lon="10.3364964"><ele>136.0</ele><time>2026-03-22T14:27:05.339Z</time></trkpt><trkpt lat="45.4802315" lon="10.3318532"><ele>136.0</ele><time>2026-03-22T14:27:30.339Z</time></trkpt><trkpt lat="45.4810896" lon="10.3281063"><ele>135.0</ele><time>2026-03-22T14:27:48.33Z</time></trkpt><trkpt lat="45.4819046" lon="10.3243727"><ele>135.0</ele><time>2026-03-22T14:28:21.337Z</time></trkpt><trkpt lat="45.4823098" lon="10.3224681"><ele>137.0</ele><time>2026-03-22T14:28:40.332Z</time></trkpt><trkpt lat="45.483158" lon="10.3188008"><ele>136.0</ele><time>2026-03-22T14:28:58.34Z</time></trkpt><trkpt lat="45.484263" lon="10.3140932"><ele>136.0</ele><time>2026-03-22T14:29:25.325Z</time></trkpt><trkpt lat="45.4851681" lon="10.310427"><ele>133.0</ele><time>2026-03-22T14:29:53.338Z</time></trkpt><trkpt lat="45.4858492" lon="10.3076878"><ele>133.0</ele><time>2026-03-22T14:30:13.338Z</time></trkpt><trkpt lat="45.4865728" lon="10.3048328"><ele>131.0</ele><time>2026-03-22T14:30:29.339Z</time></trkpt><trkpt lat="45.4874726" lon="10.3011308"><ele>132.0</ele><time>2026-03-22T14:30:44.341Z</time></trkpt><trkpt lat="45.488903" lon="10.2953872"><ele>127.0</ele><time>2026-03-22T14:31:02.343Z</time></trkpt><trkpt lat="45.4906902" lon="10.2889493"><ele>130.0</ele><time>2026-03-22T14:31:19.334Z</time></trkpt><trkpt lat="45.4930985" lon="10.2816665"><ele>127.0</ele><time>2026-03-22T14:31:38.347Z</time></trkpt><trkpt lat="45.4954157" lon="10.2742716"><ele>120.0</ele><time>2026-03-22T14:31:55.341Z</time></trkpt><trkpt lat="45.4977928" lon="10.2658954"><ele>122.0</ele><time>2026-03-22T14:32:14.346Z</time></trkpt><trkpt lat="45.4998242" lon="10.2587312"><ele>117.0</ele><time>2026-03-22T14:32:31.34Z</time></trkpt><trkpt lat="45.5018575" lon="10.2515216"><ele>119.0</ele><time>2026-03-22T14:32:49.339Z</time></trkpt><trkpt lat="45.5035993" lon="10.2442321"><ele>116.0</ele><time>2026-03-22T14:33:07.341Z</time></trkpt><trkpt lat="45.5052847" lon="10.2367966"><ele>113.0</ele><time>2026-03-22T14:33:24.343Z</time></trkpt><trkpt lat="45.5065891" lon="10.2293097"><ele>117.0</ele><time>2026-03-22T14:33:42.334Z</time></trkpt><trkpt lat="45.5083438" lon="10.2219241"><ele>121.0</ele><time>2026-03-22T14:34:00.337Z</time></trkpt><trkpt lat="45.5113603" lon="10.2151671"><ele>117.0</ele><time>2026-03-22T14:34:18.343Z</time></trkpt><trkpt lat="45.5143416" lon="10.2087396"><ele>121.0</ele><time>2026-03-22T14:34:35.34Z</time></trkpt><trkpt lat="45.5174583" lon="10.2020822"><ele>123.0</ele><time>2026-03-22T14:34:53.344Z</time></trkpt><trkpt lat="45.5192187" lon="10.1945782"><ele>122.0</ele><time>2026-03-22T14:35:12.34Z</time></trkpt><trkpt lat="45.5201164" lon="10.1866429"><ele>120.0</ele><time>2026-03-22T14:35:31.341Z</time></trkpt><trkpt lat="45.5209576" lon="10.1789688"><ele>117.0</ele><time>2026-03-22T14:35:49.336Z</time></trkpt><trkpt lat="45.5224822" lon="10.1724211"><ele>124.0</ele><time>2026-03-22T14:36:06.329Z</time></trkpt><trkpt lat="45.5248896" lon="10.1665958"><ele>120.0</ele><time>2026-03-22T14:36:22.358Z</time></trkpt><trkpt lat="45.5278523" lon="10.160109"><ele>123.0</ele><time>2026-03-22T14:36:40.349Z</time></trkpt><trkpt lat="45.5308453" lon="10.1536363"><ele>122.0</ele><time>2026-03-22T14:36:57.362Z</time></trkpt><trkpt lat="45.5338359" lon="10.147019"><ele>118.0</ele><time>2026-03-22T14:37:15.351Z</time></trkpt><trkpt lat="45.5365524" lon="10.1413814"><ele>121.0</ele><time>2026-03-22T14:37:31.333Z</time></trkpt><trkpt lat="45.5401793" lon="10.1340007"><ele>124.0</ele><time>2026-03-22T14:37:52.351Z</time></trkpt><trkpt lat="45.5430331" lon="10.1281162"><ele>128.0</ele><time>2026-03-22T14:38:09.341Z</time></trkpt><trkpt lat="45.546194" lon="10.1214645"><ele>134.0</ele><time>2026-03-22T14:38:27.342Z</time></trkpt><trkpt lat="45.5493402" lon="10.1150775"><ele>139.0</ele><time>2026-03-22T14:38:46.341Z</time></trkpt><trkpt lat="45.5521413" lon="10.1095888"><ele>139.0</ele><time>2026-03-22T14:39:02.343Z</time></trkpt><trkpt lat="45.5553669" lon="10.10301"><ele>144.0</ele><time>2026-03-22T14:39:20.346Z</time></trkpt><trkpt lat="45.5585763" lon="10.0964217"><ele>148.0</ele><time>2026-03-22T14:39:38.342Z</time></trkpt><trkpt lat="45.5611746" lon="10.0904214"><ele>158.0</ele><time>2026-03-22T14:39:55.369Z</time></trkpt><trkpt lat="45.5630584" lon="10.0831493"><ele>159.0</ele><time>2026-03-22T14:40:13.34Z</time></trkpt><trkpt lat="45.5644749" lon="10.0754345"><ele>163.0</ele><time>2026-03-22T14:40:32.349Z</time></trkpt><trkpt lat="45.565742" lon="10.0686246"><ele>168.0</ele><time>2026-03-22T14:40:49.343Z</time></trkpt><trkpt lat="45.567154" lon="10.060927"><ele>169.0</ele><time>2026-03-22T14:41:08.342Z</time></trkpt><trkpt lat="45.5684664" lon="10.0541118"><ele>172.0</ele><time>2026-03-22T14:41:25.341Z</time></trkpt><trkpt lat="45.5698815" lon="10.0462778"><ele>176.0</ele><time>2026-03-22T14:41:44.341Z</time></trkpt><trkpt lat="45.5712469" lon="10.0387854"><ele>178.0</ele><time>2026-03-22T14:42:02.349Z</time></trkpt><trkpt lat="45.5726363" lon="10.0312147"><ele>179.0</ele><time>2026-03-22T14:42:20.341Z</time></trkpt><trkpt lat="45.574097" lon="10.0234357"><ele>181.0</ele><time>2026-03-22T14:42:38.332Z</time></trkpt><trkpt lat="45.575649" lon="10.0157102"><ele>184.0</ele><time>2026-03-22T14:42:57.344Z</time></trkpt><trkpt lat="45.5768173" lon="10.0091628"><ele>188.0</ele><time>2026-03-22T14:43:13.342Z</time></trkpt><trkpt lat="45.5780398" lon="10.0025171"><ele>195.0</ele><time>2026-03-22T14:43:30.344Z</time></trkpt><trkpt lat="45.5793151" lon="9.9955731"><ele>207.0</ele><time>2026-03-22T14:43:46.34Z</time></trkpt><trkpt lat="45.5813712" lon="9.9881626"><ele>204.0</ele><time>2026-03-22T14:44:04.334Z</time></trkpt><trkpt lat="45.584667" lon="9.9819147"><ele>207.0</ele><time>2026-03-22T14:44:23.342Z</time></trkpt><trkpt lat="45.5878367" lon="9.9764206"><ele>212.0</ele><time>2026-03-22T14:44:41.334Z</time></trkpt><trkpt lat="45.5908264" lon="9.971204"><ele>214.0</ele><time>2026-03-22T14:44:58.331Z</time></trkpt><trkpt lat="45.5938254" lon="9.9659455"><ele>212.0</ele><time>2026-03-22T14:45:14.33Z</time></trkpt><trkpt lat="45.5968418" lon="9.9606746"><ele>209.0</ele><time>2026-03-22T14:45:31.331Z</time></trkpt><trkpt lat="45.6003875" lon="9.9545679"><ele>213.0</ele><time>2026-03-22T14:45:49.328Z</time></trkpt><trkpt lat="45.6038472" lon="9.9485444"><ele>205.0</ele><time>2026-03-22T14:46:07.325Z</time></trkpt><trkpt lat="45.6074365" lon="9.9423098"><ele>201.0</ele><time>2026-03-22T14:46:25.33Z</time></trkpt><trkpt lat="45.6108737" lon="9.9363454"><ele>199.0</ele><time>2026-03-22T14:46:42.329Z</time></trkpt><trkpt lat="45.6143969" lon="9.9302035"><ele>198.0</ele><time>2026-03-22T14:47:00.336Z</time></trkpt><trkpt lat="45.6172271" lon="9.9247414"><ele>198.0</ele><time>2026-03-22T14:47:16.346Z</time></trkpt><trkpt lat="45.6192364" lon="9.9185859"><ele>199.0</ele><time>2026-03-22T14:47:33.329Z</time></trkpt><trkpt lat="45.6206642" lon="9.9120834"><ele>191.0</ele><time>2026-03-22T14:47:49.338Z</time></trkpt><trkpt lat="45.6222315" lon="9.9046406"><ele>202.0</ele><time>2026-03-22T14:48:07.335Z</time></trkpt><trkpt lat="45.6238469" lon="9.8970936"><ele>206.0</ele><time>2026-03-22T14:48:25.336Z</time></trkpt><trkpt lat="45.6256183" lon="9.8898047"><ele>207.0</ele><time>2026-03-22T14:48:42.336Z</time></trkpt><trkpt lat="45.6273031" lon="9.8820868"><ele>202.0</ele><time>2026-03-22T14:49:00.338Z</time></trkpt><trkpt lat="45.628935" lon="9.874519"><ele>203.0</ele><time>2026-03-22T14:49:18.337Z</time></trkpt><trkpt lat="45.6306462" lon="9.8668727"><ele>198.0</ele><time>2026-03-22T14:49:37.332Z</time></trkpt><trkpt lat="45.632302" lon="9.859506"><ele>193.0</ele><time>2026-03-22T14:49:55.329Z</time></trkpt><trkpt lat="45.6339354" lon="9.8517757"><ele>197.0</ele><time>2026-03-22T14:50:13.336Z</time></trkpt><trkpt lat="45.6356604" lon="9.8440285"><ele>200.0</ele><time>2026-03-22T14:50:32.34Z</time></trkpt><trkpt lat="45.6372597" lon="9.836585"><ele>204.0</ele><time>2026-03-22T14:50:50.331Z</time></trkpt><trkpt lat="45.6389103" lon="9.8291274"><ele>204.0</ele><time>2026-03-22T14:51:09.33Z</time></trkpt><trkpt lat="45.6403335" lon="9.8224327"><ele>204.0</ele><time>2026-03-22T14:51:25.33Z</time></trkpt><trkpt lat="45.6420162" lon="9.8147968"><ele>209.0</ele><time>2026-03-22T14:51:44.33Z</time></trkpt><trkpt lat="45.6436974" lon="9.8070278"><ele>209.0</ele><time>2026-03-22T14:52:02.329Z</time></trkpt><trkpt lat="45.6453168" lon="9.7996189"><ele>207.0</ele><time>2026-03-22T14:52:19.333Z</time></trkpt><trkpt lat="45.6470117" lon="9.7921933"><ele>207.0</ele><time>2026-03-22T14:52:37.337Z</time></trkpt><trkpt lat="45.6486168" lon="9.7846464"><ele>208.0</ele><time>2026-03-22T14:52:56.336Z</time></trkpt><trkpt lat="45.650038" lon="9.7781049"><ele>213.0</ele><time>2026-03-22T14:53:12.329Z</time></trkpt><trkpt lat="45.6517372" lon="9.770369"><ele>219.0</ele><time>2026-03-22T14:53:30.338Z</time></trkpt><trkpt lat="45.6531383" lon="9.7625314"><ele>220.0</ele><time>2026-03-22T14:53:49.336Z</time></trkpt><trkpt lat="45.6544288" lon="9.7546878"><ele>225.0</ele><time>2026-03-22T14:54:08.327Z</time></trkpt><trkpt lat="45.6557478" lon="9.7469138"><ele>219.0</ele><time>2026-03-22T14:54:26.33Z</time></trkpt><trkpt lat="45.6571488" lon="9.7393818"><ele>217.0</ele><time>2026-03-22T14:54:43.338Z</time></trkpt><trkpt lat="45.6585841" lon="9.7317653"><ele>226.0</ele><time>2026-03-22T14:55:01.343Z</time></trkpt><trkpt lat="45.6600425" lon="9.7242485"><ele>230.0</ele><time>2026-03-22T14:55:19.319Z</time></trkpt><trkpt lat="45.6612662" lon="9.7174833"><ele>231.0</ele><time>2026-03-22T14:55:36.327Z</time></trkpt><trkpt lat="45.6625125" lon="9.7106633"><ele>233.0</ele><time>2026-03-22T14:55:53.335Z</time></trkpt><trkpt lat="45.6639336" lon="9.7031446"><ele>234.0</ele><time>2026-03-22T14:56:11.326Z</time></trkpt><trkpt lat="45.6653167" lon="9.6955748"><ele>232.0</ele><time>2026-03-22T14:56:29.33Z</time></trkpt><trkpt lat="45.6667757" lon="9.6879426"><ele>232.0</ele><time>2026-03-22T14:56:47.333Z</time></trkpt><trkpt lat="45.6681862" lon="9.6802607"><ele>231.0</ele><time>2026-03-22T14:57:06.327Z</time></trkpt><trkpt lat="45.6696451" lon="9.672485"><ele>228.0</ele><time>2026-03-22T14:57:25.339Z</time></trkpt><trkpt lat="45.6686305" lon="9.6646747"><ele>222.0</ele><time>2026-03-22T14:57:46.335Z</time></trkpt><trkpt lat="45.6655836" lon="9.6590688"><ele>215.0</ele><time>2026-03-22T14:58:03.334Z</time></trkpt><trkpt lat="45.6622073" lon="9.6529807"><ele>210.0</ele><time>2026-03-22T14:58:21.334Z</time></trkpt><trkpt lat="45.6588834" lon="9.6468846"><ele>208.0</ele><time>2026-03-22T14:58:39.334Z</time></trkpt><trkpt lat="45.6554894" lon="9.6407937"><ele>203.0</ele><time>2026-03-22T14:58:57.334Z</time></trkpt><trkpt lat="45.6525091" lon="9.6354655"><ele>201.0</ele><time>2026-03-22T14:59:13.331Z</time></trkpt><trkpt lat="45.6489732" lon="9.6292045"><ele>200.0</ele><time>2026-03-22T14:59:31.345Z</time></trkpt><trkpt lat="45.6454702" lon="9.6228446"><ele>199.0</ele><time>2026-03-22T14:59:50.335Z</time></trkpt><trkpt lat="45.6424178" lon="9.6173742"><ele>197.0</ele><time>2026-03-22T15:00:06.336Z</time></trkpt><trkpt lat="45.6389163" lon="9.6111117"><ele>197.0</ele><time>2026-03-22T15:00:26.332Z</time></trkpt><trkpt lat="45.6354238" lon="9.6048315"><ele>190.0</ele><time>2026-03-22T15:00:44.329Z</time></trkpt><trkpt lat="45.6318987" lon="9.598526"><ele>189.0</ele><time>2026-03-22T15:01:01.324Z</time></trkpt><trkpt lat="45.6283897" lon="9.5922781"><ele>186.0</ele><time>2026-03-22T15:01:20.332Z</time></trkpt><trkpt lat="45.6253087" lon="9.5867259"><ele>185.0</ele><time>2026-03-22T15:01:37.329Z</time></trkpt><trkpt lat="45.6222883" lon="9.5798139"><ele>180.0</ele><time>2026-03-22T15:01:55.337Z</time></trkpt><trkpt lat="45.6195068" lon="9.5716439"><ele>176.0</ele><time>2026-03-22T15:02:13.34Z</time></trkpt><trkpt lat="45.6167831" lon="9.5636151"><ele>177.0</ele><time>2026-03-22T15:02:30.341Z</time></trkpt><trkpt lat="45.6140686" lon="9.5554447"><ele>179.0</ele><time>2026-03-22T15:02:49.338Z</time></trkpt><trkpt lat="45.6115059" lon="9.5475916"><ele>182.0</ele><time>2026-03-22T15:03:07.339Z</time></trkpt><trkpt lat="45.6089995" lon="9.5403162"><ele>184.0</ele><time>2026-03-22T15:03:23.344Z</time></trkpt><trkpt lat="45.6063109" lon="9.5322009"><ele>179.0</ele><time>2026-03-22T15:03:42.333Z</time></trkpt><trkpt lat="45.6038278" lon="9.5249229"><ele>179.0</ele><time>2026-03-22T15:04:00.335Z</time></trkpt><trkpt lat="45.6014758" lon="9.5177647"><ele>180.0</ele><time>2026-03-22T15:04:17.343Z</time></trkpt><trkpt lat="45.5990555" lon="9.5106348"><ele>178.0</ele><time>2026-03-22T15:04:35.339Z</time></trkpt><trkpt lat="45.5966393" lon="9.5036133"><ele>179.0</ele><time>2026-03-22T15:04:53.326Z</time></trkpt><trkpt lat="45.594742" lon="9.4972901"><ele>180.0</ele><time>2026-03-22T15:05:11.33Z</time></trkpt><trkpt lat="45.5932948" lon="9.4896635"><ele>183.0</ele><time>2026-03-22T15:05:29.331Z</time></trkpt><trkpt lat="45.5918515" lon="9.4821208"><ele>181.0</ele><time>2026-03-22T15:05:46.331Z</time></trkpt><trkpt lat="45.5904271" lon="9.4746959"><ele>182.0</ele><time>2026-03-22T15:06:02.337Z</time></trkpt><trkpt lat="45.5889934" lon="9.4668886"><ele>176.0</ele><time>2026-03-22T15:06:20.323Z</time></trkpt><trkpt lat="45.587453" lon="9.4590567"><ele>174.0</ele><time>2026-03-22T15:06:37.325Z</time></trkpt><trkpt lat="45.5858294" lon="9.4505983"><ele>173.0</ele><time>2026-03-22T15:06:55.327Z</time></trkpt><trkpt lat="45.5843143" lon="9.4428491"><ele>170.0</ele><time>2026-03-22T15:07:12.323Z</time></trkpt><trkpt lat="45.5828346" lon="9.4351901"><ele>170.0</ele><time>2026-03-22T15:07:30.342Z</time></trkpt><trkpt lat="45.5813485" lon="9.4274028"><ele>169.0</ele><time>2026-03-22T15:07:48.335Z</time></trkpt><trkpt lat="45.5798641" lon="9.4198742"><ele>167.0</ele><time>2026-03-22T15:08:05.33Z</time></trkpt><trkpt lat="45.5784275" lon="9.4124084"><ele>165.0</ele><time>2026-03-22T15:08:22.327Z</time></trkpt><trkpt lat="45.5770214" lon="9.4048563"><ele>164.0</ele><time>2026-03-22T15:08:39.338Z</time></trkpt><trkpt lat="45.5755774" lon="9.397414"><ele>163.0</ele><time>2026-03-22T15:08:56.334Z</time></trkpt><trkpt lat="45.5741525" lon="9.389831"><ele>164.0</ele><time>2026-03-22T15:09:13.334Z</time></trkpt><trkpt lat="45.5730244" lon="9.3820221"><ele>163.0</ele><time>2026-03-22T15:09:29.332Z</time></trkpt><trkpt lat="45.5717332" lon="9.3732184"><ele>164.0</ele><time>2026-03-22T15:09:47.327Z</time></trkpt><trkpt lat="45.570538" lon="9.3653573"><ele>158.0</ele><time>2026-03-22T15:10:05.331Z</time></trkpt><trkpt lat="45.5694249" lon="9.3577436"><ele>162.0</ele><time>2026-03-22T15:10:23.329Z</time></trkpt><trkpt lat="45.5682701" lon="9.3498848"><ele>156.0</ele><time>2026-03-22T15:10:41.32Z</time></trkpt><trkpt lat="45.5671497" lon="9.3422523"><ele>159.0</ele><time>2026-03-22T15:10:58.334Z</time></trkpt><trkpt lat="45.5660617" lon="9.3346872"><ele>154.0</ele><time>2026-03-22T15:11:14.326Z</time></trkpt><trkpt lat="45.5647417" lon="9.3258799"><ele>153.0</ele><time>2026-03-22T15:11:32.328Z</time></trkpt><trkpt lat="45.5636275" lon="9.3182436"><ele>150.0</ele><time>2026-03-22T15:11:50.333Z</time></trkpt><trkpt lat="45.5625002" lon="9.3103543"><ele>148.0</ele><time>2026-03-22T15:12:07.326Z</time></trkpt><trkpt lat="45.5611897" lon="9.3016187"><ele>147.0</ele><time>2026-03-22T15:12:26.338Z</time></trkpt><trkpt lat="45.5599092" lon="9.2937329"><ele>150.0</ele><time>2026-03-22T15:12:44.323Z</time></trkpt><trkpt lat="45.5588008" lon="9.2859042"><ele>145.0</ele><time>2026-03-22T15:13:02.334Z</time></trkpt><trkpt lat="45.5576554" lon="9.2782942"><ele>144.0</ele><time>2026-03-22T15:13:20.33Z</time></trkpt><trkpt lat="45.5566802" lon="9.2716539"><ele>146.0</ele><time>2026-03-22T15:13:38.334Z</time></trkpt><trkpt lat="45.5557839" lon="9.2657971"><ele>148.0</ele><time>2026-03-22T15:14:09.326Z</time></trkpt><trkpt lat="45.5549089" lon="9.2601151"><ele>149.0</ele><time>2026-03-22T15:14:28.33Z</time></trkpt><trkpt lat="45.5540559" lon="9.2544085"><ele>153.0</ele><time>2026-03-22T15:14:50.319Z</time></trkpt><trkpt lat="45.5534721" lon="9.2504143"><ele>153.0</ele><time>2026-03-22T15:15:12.329Z</time></trkpt><trkpt lat="45.5528882" lon="9.2465776"><ele>151.0</ele><time>2026-03-22T15:15:30.337Z</time></trkpt><trkpt lat="45.5521587" lon="9.2418693"><ele>152.0</ele><time>2026-03-22T15:15:55.334Z</time></trkpt><trkpt lat="45.551707" lon="9.2390254"><ele>151.0</ele><time>2026-03-22T15:16:28.331Z</time></trkpt><trkpt lat="45.5512866" lon="9.2361816"><ele>148.0</ele><time>2026-03-22T15:17:07.305Z</time></trkpt><trkpt lat="45.5501569" lon="9.2286142"><ele>148.0</ele><time>2026-03-22T15:17:35.888Z</time></trkpt><trkpt lat="45.5503708" lon="9.2305188"><ele>148.0</ele><time>2026-03-22T15:17:58.271Z</time></trkpt><trkpt lat="45.5496333" lon="9.2246313"><ele>151.0</ele><time>2026-03-22T15:18:14.316Z</time></trkpt><trkpt lat="45.5488342" lon="9.2179543"><ele>149.0</ele><time>2026-03-22T15:18:31.321Z</time></trkpt><trkpt lat="45.5486007" lon="9.2110128"><ele>148.0</ele><time>2026-03-22T15:18:55.317Z</time></trkpt><trkpt lat="45.5484548" lon="9.2061719"><ele>149.0</ele><time>2026-03-22T15:19:13.316Z</time></trkpt><trkpt lat="45.5481036" lon="9.2012846"><ele>150.0</ele><time>2026-03-22T15:19:27.321Z</time></trkpt><trkpt lat="45.5465206" lon="9.1945924"><ele>150.0</ele><time>2026-03-22T15:19:45.319Z</time></trkpt><trkpt lat="45.5448537" lon="9.1880542"><ele>147.0</ele><time>2026-03-22T15:20:03.318Z</time></trkpt><trkpt lat="45.5431777" lon="9.1815707"><ele>153.0</ele><time>2026-03-22T15:20:21.321Z</time></trkpt><trkpt lat="45.5414119" lon="9.1752908"><ele>148.0</ele><time>2026-03-22T15:20:37.319Z</time></trkpt><trkpt lat="45.5392612" lon="9.1691062"><ele>147.0</ele><time>2026-03-22T15:20:56.329Z</time></trkpt><trkpt lat="45.5365505" lon="9.1632441"><ele>148.0</ele><time>2026-03-22T15:21:14.326Z</time></trkpt><trkpt lat="45.5338019" lon="9.1576651"><ele>145.0</ele><time>2026-03-22T15:21:32.327Z</time></trkpt><trkpt lat="45.5313792" lon="9.1526247"><ele>143.0</ele><time>2026-03-22T15:21:49.325Z</time></trkpt><trkpt lat="45.5285219" lon="9.1468547"><ele>147.0</ele><time>2026-03-22T15:22:08.325Z</time></trkpt><trkpt lat="45.5258083" lon="9.1410237"><ele>142.0</ele><time>2026-03-22T15:22:27.326Z</time></trkpt><trkpt lat="45.5234585" lon="9.1360491"><ele>141.0</ele><time>2026-03-22T15:22:45.335Z</time></trkpt><trkpt lat="45.5206169" lon="9.1303053"><ele>139.0</ele><time>2026-03-22T15:23:04.316Z</time></trkpt><trkpt lat="45.5177791" lon="9.1248687"><ele>144.0</ele><time>2026-03-22T15:23:21.329Z</time></trkpt><trkpt lat="45.5174013" lon="9.1179153"><ele>139.0</ele><time>2026-03-22T15:23:47.345Z</time></trkpt><trkpt lat="45.5201928" lon="9.1123736"><ele>143.0</ele><time>2026-03-22T15:24:06.322Z</time></trkpt><trkpt lat="45.5228389" lon="9.1075725"><ele>144.0</ele><time>2026-03-22T15:24:24.323Z</time></trkpt><trkpt lat="45.5253327" lon="9.1029723"><ele>149.0</ele><time>2026-03-22T15:24:41.329Z</time></trkpt><trkpt lat="45.5278282" lon="9.0983853"><ele>146.0</ele><time>2026-03-22T15:24:58.319Z</time></trkpt><trkpt lat="45.5303643" lon="9.0937827"><ele>153.0</ele><time>2026-03-22T15:25:15.324Z</time></trkpt><trkpt lat="45.5329416" lon="9.0889389"><ele>153.0</ele><time>2026-03-22T15:25:33.327Z</time></trkpt><trkpt lat="45.5354237" lon="9.0843193"><ele>153.0</ele><time>2026-03-22T15:25:50.334Z</time></trkpt><trkpt lat="45.5378901" lon="9.079682"><ele>155.0</ele><time>2026-03-22T15:26:07.33Z</time></trkpt><trkpt lat="45.5404611" lon="9.0748829"><ele>158.0</ele><time>2026-03-22T15:26:24.336Z</time></trkpt><trkpt lat="45.5429292" lon="9.0702891"><ele>163.0</ele><time>2026-03-22T15:26:41.332Z</time></trkpt><trkpt lat="45.5454159" lon="9.0656921"><ele>161.0</ele><time>2026-03-22T15:26:58.331Z</time></trkpt><trkpt lat="45.5480721" lon="9.0612906"><ele>166.0</ele><time>2026-03-22T15:27:16.327Z</time></trkpt><trkpt lat="45.550082" lon="9.0571542"><ele>163.0</ele><time>2026-03-22T15:27:41.325Z</time></trkpt><trkpt lat="45.5527106" lon="9.0523282"><ele>162.0</ele><time>2026-03-22T15:28:00.334Z</time></trkpt><trkpt lat="45.5555127" lon="9.0468166"><ele>166.0</ele><time>2026-03-22T15:28:20.336Z</time></trkpt><trkpt lat="45.5580125" lon="9.0422167"><ele>171.0</ele><time>2026-03-22T15:28:37.331Z</time></trkpt><trkpt lat="45.5604879" lon="9.0376001"><ele>173.0</ele><time>2026-03-22T15:28:54.334Z</time></trkpt><trkpt lat="45.5629069" lon="9.0329465"><ele>174.0</ele><time>2026-03-22T15:29:11.334Z</time></trkpt><trkpt lat="45.5653877" lon="9.0283304"><ele>176.0</ele><time>2026-03-22T15:29:28.343Z</time></trkpt><trkpt lat="45.5678651" lon="9.0237354"><ele>180.0</ele><time>2026-03-22T15:29:45.336Z</time></trkpt><trkpt lat="45.5703306" lon="9.0190753"><ele>182.0</ele><time>2026-03-22T15:30:02.337Z</time></trkpt><trkpt lat="45.5728466" lon="9.0145175"><ele>185.0</ele><time>2026-03-22T15:30:19.332Z</time></trkpt><trkpt lat="45.5764489" lon="9.0113888"><ele>186.0</ele><time>2026-03-22T15:30:37.331Z</time></trkpt><trkpt lat="45.5805406" lon="9.011308"><ele>185.0</ele><time>2026-03-22T15:30:54.334Z</time></trkpt><trkpt lat="45.5846078" lon="9.0115584"><ele>188.0</ele><time>2026-03-22T15:31:11.331Z</time></trkpt><trkpt lat="45.5886938" lon="9.0117027"><ele>190.0</ele><time>2026-03-22T15:31:28.334Z</time></trkpt><trkpt lat="45.5927539" lon="9.0119163"><ele>193.0</ele><time>2026-03-22T15:31:45.336Z</time></trkpt><trkpt lat="45.5968208" lon="9.0121299"><ele>198.0</ele><time>2026-03-22T15:32:02.335Z</time></trkpt><trkpt lat="45.6009232" lon="9.0123392"><ele>197.0</ele><time>2026-03-22T15:32:19.334Z</time></trkpt><trkpt lat="45.604981" lon="9.0125418"><ele>202.0</ele><time>2026-03-22T15:32:36.333Z</time></trkpt><trkpt lat="45.6090548" lon="9.0128718"><ele>209.0</ele><time>2026-03-22T15:32:53.339Z</time></trkpt><trkpt lat="45.6131276" lon="9.0130994"><ele>208.0</ele><time>2026-03-22T15:33:10.337Z</time></trkpt><trkpt lat="45.6171953" lon="9.0133483"><ele>213.0</ele><time>2026-03-22T15:33:27.338Z</time></trkpt><trkpt lat="45.6212745" lon="9.0135276"><ele>214.0</ele><time>2026-03-22T15:33:44.334Z</time></trkpt><trkpt lat="45.6236079" lon="9.0183219"><ele>217.0</ele><time>2026-03-22T15:34:18.344Z</time></trkpt><trkpt lat="45.6250879" lon="9.0179042"><ele>220.0</ele><time>2026-03-22T15:34:28.336Z</time></trkpt><trkpt lat="45.6284335" lon="9.0172459"><ele>221.0</ele><time>2026-03-22T15:34:56.344Z</time></trkpt><trkpt lat="45.6304563" lon="9.0169295"><ele>222.0</ele><time>2026-03-22T15:35:12.347Z</time></trkpt><trkpt lat="45.6329555" lon="9.0154562"><ele>224.0</ele><time>2026-03-22T15:35:49.339Z</time></trkpt><trkpt lat="45.634972" lon="9.0128714"><ele>225.0</ele><time>2026-03-22T15:36:25.341Z</time></trkpt><trkpt lat="45.6362757" lon="9.0106149"><ele>231.0</ele><time>2026-03-22T15:36:39.343Z</time></trkpt><trkpt lat="45.6386771" lon="9.0070999"><ele>228.0</ele><time>2026-03-22T15:37:01.335Z</time></trkpt><trkpt lat="45.6410036" lon="9.0035893"><ele>230.0</ele><time>2026-03-22T15:37:25.338Z</time></trkpt><trkpt lat="45.6429553" lon="9.0008865"><ele>231.0</ele><time>2026-03-22T15:37:54.333Z</time></trkpt><trkpt lat="45.6442965" lon="8.998723"><ele>230.0</ele><time>2026-03-22T15:38:12.332Z</time></trkpt><trkpt lat="45.6458131" lon="8.9965081"><ele>229.0</ele><time>2026-03-22T15:38:31.341Z</time></trkpt><trkpt lat="45.648219" lon="8.9929819"><ele>232.0</ele><time>2026-03-22T15:38:56.345Z</time></trkpt><trkpt lat="45.6497234" lon="8.9907383"><ele>233.0</ele><time>2026-03-22T15:39:20.344Z</time></trkpt><trkpt lat="45.6520805" lon="8.987241"><ele>231.0</ele><time>2026-03-22T15:39:51.346Z</time></trkpt><trkpt lat="45.6489522" lon="8.9851043"><ele>228.0</ele><time>2026-03-22T15:43:36.339Z</time></trkpt><trkpt lat="45.6475001" lon="8.9816261"><ele>228.0</ele><time>2026-03-22T15:43:55.354Z</time></trkpt><trkpt lat="45.6461081" lon="8.9771213"><ele>231.0</ele><time>2026-03-22T15:44:26.36Z</time></trkpt><trkpt lat="45.6448231" lon="8.9737069"><ele>231.0</ele><time>2026-03-22T15:45:27.323Z</time></trkpt></trkseg></trk></gpx>